<?xml version="1.0" encoding="UTF-8" standalone="no" ?>
<gpx xmlns="http://www.topografix.com/GPX/1/1" creator="MapSource 6.16.3" version="1.1" xmlns:xsi="http://www.w3.org/2001/XMLSchema-instance" xsi:schemaLocation="http://www.topografix.com/GPX/1/1 http://www.topografix.com/GPX/1/1/gpx.xsd">

  <metadata>
    <link href="http://www.garmin.com">
      <text>Garmin International</text>
    </link>
    <time>2012-02-01T08:42:50Z</time>
    <bounds maxlat="47.601045034825802" maxlon="19.03063396923244" minlat="47.494177026674151" minlon="18.663898967206478"/>
  </metadata>

  <trk>
    <name>Nyomvonal</name>
    <extensions>
      <gpxx:TrackExtension xmlns:gpxx="http://www.garmin.com/xmlschemas/GpxExtensions/v3">
        <gpxx:DisplayColor>Cyan</gpxx:DisplayColor>
      </gpxx:TrackExtension>
    </extensions>
    <trkseg>
      <trkpt lat="47.503988966345787" lon="19.028820041567087">
        <ele>170.36099999999999</ele>
        <time>2010-02-06T17:20:01Z</time>
      </trkpt>
      <trkpt lat="47.503991983830929" lon="19.028838984668255">
        <ele>169.72</ele>
        <time>2010-02-06T17:20:19Z</time>
      </trkpt>
      <trkpt lat="47.504012016579509" lon="19.028872009366751">
        <ele>168.72200000000001</ele>
        <time>2010-02-06T17:20:23Z</time>
      </trkpt>
      <trkpt lat="47.504027020186186" lon="19.028917020186782">
        <ele>169.91</ele>
        <time>2010-02-06T17:20:27Z</time>
      </trkpt>
      <trkpt lat="47.504047974944115" lon="19.028952978551388">
        <ele>168.959</ele>
        <time>2010-02-06T17:20:30Z</time>
      </trkpt>
      <trkpt lat="47.504060966894031" lon="19.028978040441871">
        <ele>168.08199999999999</ele>
        <time>2010-02-06T17:20:35Z</time>
      </trkpt>
      <trkpt lat="47.504084017127752" lon="19.029023973271251">
        <ele>167.79900000000001</ele>
        <time>2010-02-06T17:20:39Z</time>
      </trkpt>
      <trkpt lat="47.504106983542442" lon="19.029053980484605">
        <ele>167.51300000000001</ele>
        <time>2010-02-06T17:20:41Z</time>
      </trkpt>
      <trkpt lat="47.504141014069319" lon="19.029078036546707">
        <ele>168.15899999999999</ele>
        <time>2010-02-06T17:20:43Z</time>
      </trkpt>
      <trkpt lat="47.504185019060969" lon="19.029067978262901">
        <ele>168.26599999999999</ele>
        <time>2010-02-06T17:20:46Z</time>
      </trkpt>
      <trkpt lat="47.504211002960801" lon="19.029049035161734">
        <ele>167.43799999999999</ele>
        <time>2010-02-06T17:20:48Z</time>
      </trkpt>
      <trkpt lat="47.504250984638929" lon="19.02902003377676">
        <ele>168.11699999999999</ele>
        <time>2010-02-06T17:20:51Z</time>
      </trkpt>
      <trkpt lat="47.504278980195522" lon="19.029003018513322">
        <ele>167.61799999999999</ele>
        <time>2010-02-06T17:20:53Z</time>
      </trkpt>
      <trkpt lat="47.504305969923735" lon="19.02902296744287">
        <ele>167.35300000000001</ele>
        <time>2010-02-06T17:20:55Z</time>
      </trkpt>
      <trkpt lat="47.504335977137089" lon="19.029070995748043">
        <ele>167.285</ele>
        <time>2010-02-06T17:20:57Z</time>
      </trkpt>
      <trkpt lat="47.504355004057288" lon="19.029126986861229">
        <ele>167.726</ele>
        <time>2010-02-06T17:20:59Z</time>
      </trkpt>
      <trkpt lat="47.504385011270642" lon="19.029181972146034">
        <ele>167.726</ele>
        <time>2010-02-06T17:21:01Z</time>
      </trkpt>
      <trkpt lat="47.504420969635248" lon="19.029227988794446">
        <ele>167.27799999999999</ele>
        <time>2010-02-06T17:21:03Z</time>
      </trkpt>
      <trkpt lat="47.504451982676983" lon="19.02928096242249">
        <ele>167.935</ele>
        <time>2010-02-06T17:21:05Z</time>
      </trkpt>
      <trkpt lat="47.504479978233576" lon="19.029335025697947">
        <ele>167.59</ele>
        <time>2010-02-06T17:21:07Z</time>
      </trkpt>
      <trkpt lat="47.504505040124059" lon="19.029392022639513">
        <ele>167.54300000000001</ele>
        <time>2010-02-06T17:21:09Z</time>
      </trkpt>
      <trkpt lat="47.504529012367129" lon="19.029448013752699">
        <ele>167.274</ele>
        <time>2010-02-06T17:21:11Z</time>
      </trkpt>
      <trkpt lat="47.504548039287329" lon="19.029506016522646">
        <ele>167.44399999999999</ele>
        <time>2010-02-06T17:21:13Z</time>
      </trkpt>
      <trkpt lat="47.504562959074974" lon="19.029564019292593">
        <ele>167.71600000000001</ele>
        <time>2010-02-06T17:21:15Z</time>
      </trkpt>
      <trkpt lat="47.504586009308696" lon="19.029620010405779">
        <ele>167.29900000000001</ele>
        <time>2010-02-06T17:21:17Z</time>
      </trkpt>
      <trkpt lat="47.504610987380147" lon="19.029679019004107">
        <ele>166.86799999999999</ele>
        <time>2010-02-06T17:21:19Z</time>
      </trkpt>
      <trkpt lat="47.504631020128727" lon="19.029727969318628">
        <ele>166.83600000000001</ele>
        <time>2010-02-06T17:21:21Z</time>
      </trkpt>
      <trkpt lat="47.504645017907023" lon="19.029779015108943">
        <ele>166.19</ele>
        <time>2010-02-06T17:21:23Z</time>
      </trkpt>
      <trkpt lat="47.504662033170462" lon="19.029826037585735">
        <ele>165.721</ele>
        <time>2010-02-06T17:21:25Z</time>
      </trkpt>
      <trkpt lat="47.504674019291997" lon="19.029887979850173">
        <ele>166.041</ele>
        <time>2010-02-06T17:21:27Z</time>
      </trkpt>
      <trkpt lat="47.504697991535068" lon="19.029960986226797">
        <ele>166.04499999999999</ele>
        <time>2010-02-06T17:21:29Z</time>
      </trkpt>
      <trkpt lat="47.504714000970125" lon="19.030021000653505">
        <ele>165.72499999999999</ele>
        <time>2010-02-06T17:21:31Z</time>
      </trkpt>
      <trkpt lat="47.504727998748422" lon="19.030085960403085">
        <ele>165.428</ele>
        <time>2010-02-06T17:21:33Z</time>
      </trkpt>
      <trkpt lat="47.504738979041576" lon="19.030155027285218">
        <ele>165.28899999999999</ele>
        <time>2010-02-06T17:21:35Z</time>
      </trkpt>
      <trkpt lat="47.504749959334731" lon="19.030213030055165">
        <ele>165.374</ele>
        <time>2010-02-06T17:21:37Z</time>
      </trkpt>
      <trkpt lat="47.50474601984024" lon="19.030283018946648">
        <ele>165.08199999999999</ele>
        <time>2010-02-06T17:21:39Z</time>
      </trkpt>
      <trkpt lat="47.504740990698338" lon="19.030345967039466">
        <ele>165.001</ele>
        <time>2010-02-06T17:21:41Z</time>
      </trkpt>
      <trkpt lat="47.504734033718705" lon="19.030400030314922">
        <ele>165.429</ele>
        <time>2010-02-06T17:21:43Z</time>
      </trkpt>
      <trkpt lat="47.504750965163112" lon="19.030441017821431">
        <ele>164.81800000000001</ele>
        <time>2010-02-06T17:21:45Z</time>
      </trkpt>
      <trkpt lat="47.504775021225214" lon="19.030491979792714">
        <ele>165.04499999999999</ele>
        <time>2010-02-06T17:21:47Z</time>
      </trkpt>
      <trkpt lat="47.504804022610188" lon="19.030540008097887">
        <ele>164.846</ele>
        <time>2010-02-06T17:21:49Z</time>
      </trkpt>
      <trkpt lat="47.504835035651922" lon="19.030574960634112">
        <ele>164.20699999999999</ele>
        <time>2010-02-06T17:21:51Z</time>
      </trkpt>
      <trkpt lat="47.504850039258599" lon="19.030600022524595">
        <ele>163.86000000000001</ele>
        <time>2010-02-06T17:21:53Z</time>
      </trkpt>
      <trkpt lat="47.504901001229882" lon="19.030594993382692">
        <ele>164.505</ele>
        <time>2010-02-06T17:21:56Z</time>
      </trkpt>
      <trkpt lat="47.504944000393152" lon="19.030608991160989">
        <ele>163.95400000000001</ele>
        <time>2010-02-06T17:21:59Z</time>
      </trkpt>
      <trkpt lat="47.504994962364435" lon="19.03063396923244">
        <ele>161.40100000000001</ele>
        <time>2010-02-06T17:22:03Z</time>
      </trkpt>
      <trkpt lat="47.50506604090333" lon="19.03061100281775">
        <ele>161.11199999999999</ele>
        <time>2010-02-06T17:22:05Z</time>
      </trkpt>
      <trkpt lat="47.505103005096316" lon="19.030598010867834">
        <ele>160.5</ele>
        <time>2010-02-06T17:22:07Z</time>
      </trkpt>
      <trkpt lat="47.505138963460922" lon="19.030585018917918">
        <ele>160.24799999999999</ele>
        <time>2010-02-06T17:22:09Z</time>
      </trkpt>
      <trkpt lat="47.505180034786463" lon="19.030576972290874">
        <ele>159.77000000000001</ele>
        <time>2010-02-06T17:22:11Z</time>
      </trkpt>
      <trkpt lat="47.505228985100985" lon="19.0305479709059">
        <ele>158.54599999999999</ele>
        <time>2010-02-06T17:22:13Z</time>
      </trkpt>
      <trkpt lat="47.505279025062919" lon="19.030514024198055">
        <ele>158.238</ele>
        <time>2010-02-06T17:22:15Z</time>
      </trkpt>
      <trkpt lat="47.50532504171133" lon="19.030480999499559">
        <ele>157.60400000000001</ele>
        <time>2010-02-06T17:22:17Z</time>
      </trkpt>
      <trkpt lat="47.505366029217839" lon="19.030444035306573">
        <ele>157.53100000000001</ele>
        <time>2010-02-06T17:22:19Z</time>
      </trkpt>
      <trkpt lat="47.5054129678756" lon="19.030388966202736">
        <ele>156.33199999999999</ele>
        <time>2010-02-06T17:22:21Z</time>
      </trkpt>
      <trkpt lat="47.505452027544379" lon="19.030330963432789">
        <ele>156.41800000000001</ele>
        <time>2010-02-06T17:22:23Z</time>
      </trkpt>
      <trkpt lat="47.505488991737366" lon="19.030264997854829">
        <ele>155.66200000000001</ele>
        <time>2010-02-06T17:22:25Z</time>
      </trkpt>
      <trkpt lat="47.505524028092623" lon="19.030195008963346">
        <ele>155.56800000000001</ele>
        <time>2010-02-06T17:22:27Z</time>
      </trkpt>
      <trkpt lat="47.505543977022171" lon="19.03016097843647">
        <ele>154.316</ele>
        <time>2010-02-06T17:22:28Z</time>
      </trkpt>
      <trkpt lat="47.505575995892286" lon="19.030091995373368">
        <ele>153.845</ele>
        <time>2010-02-06T17:22:30Z</time>
      </trkpt>
      <trkpt lat="47.50560600310564" lon="19.030021000653505">
        <ele>152.90100000000001</ele>
        <time>2010-02-06T17:22:32Z</time>
      </trkpt>
      <trkpt lat="47.505630981177092" lon="19.029944976791739">
        <ele>152.636</ele>
        <time>2010-02-06T17:22:34Z</time>
      </trkpt>
      <trkpt lat="47.505656965076923" lon="19.029869958758354">
        <ele>152.40100000000001</ele>
        <time>2010-02-06T17:22:36Z</time>
      </trkpt>
      <trkpt lat="47.505672974511981" lon="19.029829977080226">
        <ele>152.03100000000001</ele>
        <time>2010-02-06T17:22:37Z</time>
      </trkpt>
      <trkpt lat="47.50569200143218" lon="19.029754037037492">
        <ele>151.577</ele>
        <time>2010-02-06T17:22:39Z</time>
      </trkpt>
      <trkpt lat="47.505705999210477" lon="19.029677007347345">
        <ele>151.66</ele>
        <time>2010-02-06T17:22:41Z</time>
      </trkpt>
      <trkpt lat="47.505728965625167" lon="19.029600983485579">
        <ele>150.70099999999999</ele>
        <time>2010-02-06T17:22:43Z</time>
      </trkpt>
      <trkpt lat="47.505758972838521" lon="19.029528982937336">
        <ele>151.49299999999999</ele>
        <time>2010-02-06T17:22:45Z</time>
      </trkpt>
      <trkpt lat="47.505773976445198" lon="19.029462011530995">
        <ele>152.072</ele>
        <time>2010-02-06T17:22:47Z</time>
      </trkpt>
      <trkpt lat="47.505790991708636" lon="19.029399985447526">
        <ele>151.41900000000001</ele>
        <time>2010-02-06T17:22:49Z</time>
      </trkpt>
      <trkpt lat="47.505813036113977" lon="19.029331002384424">
        <ele>150.714</ele>
        <time>2010-02-06T17:22:51Z</time>
      </trkpt>
      <trkpt lat="47.505846982821822" lon="19.029261013492942">
        <ele>150.89400000000001</ele>
        <time>2010-02-06T17:22:53Z</time>
      </trkpt>
      <trkpt lat="47.505870033055544" lon="19.029184989631176">
        <ele>150.34200000000001</ele>
        <time>2010-02-06T17:22:55Z</time>
      </trkpt>
      <trkpt lat="47.505889981985092" lon="19.029110977426171">
        <ele>149.27600000000001</ele>
        <time>2010-02-06T17:22:57Z</time>
      </trkpt>
      <trkpt lat="47.505900962278247" lon="19.029034031555057">
        <ele>148.911</ele>
        <time>2010-02-06T17:22:59Z</time>
      </trkpt>
      <trkpt lat="47.505910014733672" lon="19.028953984379768">
        <ele>148.98699999999999</ele>
        <time>2010-02-06T17:23:01Z</time>
      </trkpt>
      <trkpt lat="47.505912026390433" lon="19.028874021023512">
        <ele>148.983</ele>
        <time>2010-02-06T17:23:03Z</time>
      </trkpt>
      <trkpt lat="47.505912026390433" lon="19.028802020475268">
        <ele>148.447</ele>
        <time>2010-02-06T17:23:05Z</time>
      </trkpt>
      <trkpt lat="47.505928035825491" lon="19.028730019927025">
        <ele>146.94399999999999</ele>
        <time>2010-02-06T17:23:07Z</time>
      </trkpt>
      <trkpt lat="47.505943961441517" lon="19.028670005500317">
        <ele>146.71199999999999</ele>
        <time>2010-02-06T17:23:09Z</time>
      </trkpt>
      <trkpt lat="47.505938010290265" lon="19.028606973588467">
        <ele>146.494</ele>
        <time>2010-02-06T17:23:11Z</time>
      </trkpt>
      <trkpt lat="47.505953013896942" lon="19.028534973040223">
        <ele>146.303</ele>
        <time>2010-02-06T17:23:13Z</time>
      </trkpt>
      <trkpt lat="47.505975980311632" lon="19.028464984148741">
        <ele>145.32499999999999</ele>
        <time>2010-02-06T17:23:15Z</time>
      </trkpt>
      <trkpt lat="47.505988972261548" lon="19.028391977772117">
        <ele>145.18700000000001</ele>
        <time>2010-02-06T17:23:17Z</time>
      </trkpt>
      <trkpt lat="47.506014034152031" lon="19.028318971395493">
        <ele>145.85599999999999</ele>
        <time>2010-02-06T17:23:19Z</time>
      </trkpt>
      <trkpt lat="47.506018979474902" lon="19.028251999989152">
        <ele>144.86799999999999</ele>
        <time>2010-02-06T17:23:21Z</time>
      </trkpt>
      <trkpt lat="47.506016967818141" lon="19.028179999440908">
        <ele>143.928</ele>
        <time>2010-02-06T17:23:23Z</time>
      </trkpt>
      <trkpt lat="47.50601596198976" lon="19.028107998892665">
        <ele>143.465</ele>
        <time>2010-02-06T17:23:25Z</time>
      </trkpt>
      <trkpt lat="47.506029959768057" lon="19.028034992516041">
        <ele>143.886</ele>
        <time>2010-02-06T17:23:27Z</time>
      </trkpt>
      <trkpt lat="47.506030965596437" lon="19.027969026938081">
        <ele>143.554</ele>
        <time>2010-02-06T17:23:29Z</time>
      </trkpt>
      <trkpt lat="47.506029959768057" lon="19.027898032218218">
        <ele>143.56899999999999</ele>
        <time>2010-02-06T17:23:31Z</time>
      </trkpt>
      <trkpt lat="47.506025014445186" lon="19.027814967557788">
        <ele>143.13</ele>
        <time>2010-02-06T17:23:33Z</time>
      </trkpt>
      <trkpt lat="47.50601302832365" lon="19.027730980888009">
        <ele>143.43100000000001</ele>
        <time>2010-02-06T17:23:35Z</time>
      </trkpt>
      <trkpt lat="47.506010010838509" lon="19.027644982561469">
        <ele>143.22300000000001</ele>
        <time>2010-02-06T17:23:37Z</time>
      </trkpt>
      <trkpt lat="47.505995007231832" lon="19.027567030861974">
        <ele>143.011</ele>
        <time>2010-02-06T17:23:39Z</time>
      </trkpt>
      <trkpt lat="47.505983021110296" lon="19.027508022263646">
        <ele>143.01400000000001</ele>
        <time>2010-02-06T17:23:41Z</time>
      </trkpt>
      <trkpt lat="47.505988972261548" lon="19.027439961209893">
        <ele>142.018</ele>
        <time>2010-02-06T17:23:43Z</time>
      </trkpt>
      <trkpt lat="47.506007999181747" lon="19.027396040037274">
        <ele>141.76599999999999</ele>
        <time>2010-02-06T17:23:44Z</time>
      </trkpt>
      <trkpt lat="47.506017973646522" lon="19.027350023388863">
        <ele>142.75800000000001</ele>
        <time>2010-02-06T17:23:45Z</time>
      </trkpt>
      <trkpt lat="47.506031971424818" lon="19.027273999527097">
        <ele>142.125</ele>
        <time>2010-02-06T17:23:47Z</time>
      </trkpt>
      <trkpt lat="47.506044963374734" lon="19.027200993150473">
        <ele>141.93899999999999</ele>
        <time>2010-02-06T17:23:49Z</time>
      </trkpt>
      <trkpt lat="47.50605602748692" lon="19.02713100425899">
        <ele>141.577</ele>
        <time>2010-02-06T17:23:51Z</time>
      </trkpt>
      <trkpt lat="47.506066001951694" lon="19.027056992053986">
        <ele>141.21199999999999</ele>
        <time>2010-02-06T17:23:53Z</time>
      </trkpt>
      <trkpt lat="47.506057033315301" lon="19.026977028697729">
        <ele>140.59899999999999</ele>
        <time>2010-02-06T17:23:55Z</time>
      </trkpt>
      <trkpt lat="47.506048986688256" lon="19.026902010664344">
        <ele>140.87799999999999</ele>
        <time>2010-02-06T17:23:57Z</time>
      </trkpt>
      <trkpt lat="47.506044041365385" lon="19.026827998459339">
        <ele>140.584</ele>
        <time>2010-02-06T17:23:59Z</time>
      </trkpt>
      <trkpt lat="47.506037000566721" lon="19.026751974597573">
        <ele>139.96700000000001</ele>
        <time>2010-02-06T17:24:01Z</time>
      </trkpt>
      <trkpt lat="47.506040018051863" lon="19.026672011241317">
        <ele>140.16999999999999</ele>
        <time>2010-02-06T17:24:03Z</time>
      </trkpt>
      <trkpt lat="47.506017973646522" lon="19.026588024571538">
        <ele>139.77500000000001</ele>
        <time>2010-02-06T17:24:05Z</time>
      </trkpt>
      <trkpt lat="47.506000036373734" lon="19.026513006538153">
        <ele>140.709</ele>
        <time>2010-02-06T17:24:07Z</time>
      </trkpt>
      <trkpt lat="47.505994001403451" lon="19.026432959362864">
        <ele>139.36699999999999</ele>
        <time>2010-02-06T17:24:09Z</time>
      </trkpt>
      <trkpt lat="47.505983021110296" lon="19.026352996006608">
        <ele>139.15799999999999</ele>
        <time>2010-02-06T17:24:11Z</time>
      </trkpt>
      <trkpt lat="47.505986038595438" lon="19.026269009336829">
        <ele>139.03100000000001</ele>
        <time>2010-02-06T17:24:13Z</time>
      </trkpt>
      <trkpt lat="47.505997018888593" lon="19.02618502266705">
        <ele>138.36000000000001</ele>
        <time>2010-02-06T17:24:15Z</time>
      </trkpt>
      <trkpt lat="47.506002970039845" lon="19.026143029332161">
        <ele>138.584</ele>
        <time>2010-02-06T17:24:16Z</time>
      </trkpt>
      <trkpt lat="47.506029959768057" lon="19.026059964671731">
        <ele>136.87299999999999</ele>
        <time>2010-02-06T17:24:18Z</time>
      </trkpt>
      <trkpt lat="47.506041023880243" lon="19.026017971336842">
        <ele>137.459</ele>
        <time>2010-02-06T17:24:19Z</time>
      </trkpt>
      <trkpt lat="47.506053010001779" lon="19.025973966345191">
        <ele>136.22800000000001</ele>
        <time>2010-02-06T17:24:20Z</time>
      </trkpt>
      <trkpt lat="47.506067007780075" lon="19.025928033515811">
        <ele>137.066</ele>
        <time>2010-02-06T17:24:21Z</time>
      </trkpt>
      <trkpt lat="47.506087962538004" lon="19.025881011039019">
        <ele>137.667</ele>
        <time>2010-02-06T17:24:22Z</time>
      </trkpt>
      <trkpt lat="47.506116963922977" lon="19.025795012712479">
        <ele>136.08799999999999</ele>
        <time>2010-02-06T17:24:24Z</time>
      </trkpt>
      <trkpt lat="47.506136996671557" lon="19.025752013549209">
        <ele>136.15000000000001</ele>
        <time>2010-02-06T17:24:25Z</time>
      </trkpt>
      <trkpt lat="47.506160968914628" lon="19.025708008557558">
        <ele>135.916</ele>
        <time>2010-02-06T17:24:26Z</time>
      </trkpt>
      <trkpt lat="47.50616398639977" lon="19.02566802687943">
        <ele>135.25299999999999</ele>
        <time>2010-02-06T17:24:27Z</time>
      </trkpt>
      <trkpt lat="47.50616398639977" lon="19.025589991360903">
        <ele>135.404</ele>
        <time>2010-02-06T17:24:29Z</time>
      </trkpt>
      <trkpt lat="47.506160968914628" lon="19.025547998026013">
        <ele>135.34100000000001</ele>
        <time>2010-02-06T17:24:30Z</time>
      </trkpt>
      <trkpt lat="47.506147976964712" lon="19.025469962507486">
        <ele>134.84399999999999</ele>
        <time>2010-02-06T17:24:32Z</time>
      </trkpt>
      <trkpt lat="47.506139008328319" lon="19.025397961959243">
        <ele>134.41800000000001</ele>
        <time>2010-02-06T17:24:34Z</time>
      </trkpt>
      <trkpt lat="47.50614202581346" lon="19.025322021916509">
        <ele>134.56299999999999</ele>
        <time>2010-02-06T17:24:36Z</time>
      </trkpt>
      <trkpt lat="47.506136996671557" lon="19.025245998054743">
        <ele>134.40899999999999</ele>
        <time>2010-02-06T17:24:38Z</time>
      </trkpt>
      <trkpt lat="47.506127022206783" lon="19.025166034698486">
        <ele>134.738</ele>
        <time>2010-02-06T17:24:40Z</time>
      </trkpt>
      <trkpt lat="47.506107995286584" lon="19.025084981694818">
        <ele>134.78999999999999</ele>
        <time>2010-02-06T17:24:42Z</time>
      </trkpt>
      <trkpt lat="47.506083017215133" lon="19.025013986974955">
        <ele>134.78299999999999</ele>
        <time>2010-02-06T17:24:44Z</time>
      </trkpt>
      <trkpt lat="47.506050998345017" lon="19.024945003911853">
        <ele>133.81100000000001</ele>
        <time>2010-02-06T17:24:46Z</time>
      </trkpt>
      <trkpt lat="47.506060972809792" lon="19.024885995313525">
        <ele>134.386</ele>
        <time>2010-02-06T17:24:48Z</time>
      </trkpt>
      <trkpt lat="47.50607899390161" lon="19.024822041392326">
        <ele>134.071</ele>
        <time>2010-02-06T17:24:50Z</time>
      </trkpt>
      <trkpt lat="47.506092991679907" lon="19.024770995602012">
        <ele>133.71600000000001</ele>
        <time>2010-02-06T17:24:52Z</time>
      </trkpt>
      <trkpt lat="47.506112018600106" lon="19.02474501170218">
        <ele>134.30000000000001</ele>
        <time>2010-02-06T17:24:54Z</time>
      </trkpt>
      <trkpt lat="47.506143031641841" lon="19.024740988388658">
        <ele>134.76900000000001</ele>
        <time>2010-02-06T17:24:56Z</time>
      </trkpt>
      <trkpt lat="47.506165998056531" lon="19.024733025580645">
        <ele>133.40299999999999</ele>
        <time>2010-02-06T17:24:58Z</time>
      </trkpt>
      <trkpt lat="47.506211008876562" lon="19.024698995053768">
        <ele>133.649</ele>
        <time>2010-02-06T17:25:00Z</time>
      </trkpt>
      <trkpt lat="47.506234981119633" lon="19.024678962305188">
        <ele>134.58099999999999</ele>
        <time>2010-02-06T17:25:01Z</time>
      </trkpt>
      <trkpt lat="47.506258031353354" lon="19.024651972576976">
        <ele>134.40899999999999</ele>
        <time>2010-02-06T17:25:02Z</time>
      </trkpt>
      <trkpt lat="47.506298013031483" lon="19.02459598146379">
        <ele>133.922</ele>
        <time>2010-02-06T17:25:04Z</time>
      </trkpt>
      <trkpt lat="47.506321985274553" lon="19.024575026705861">
        <ele>133.15700000000001</ele>
        <time>2010-02-06T17:25:05Z</time>
      </trkpt>
      <trkpt lat="47.506351992487907" lon="19.024550970643759">
        <ele>133.25399999999999</ele>
        <time>2010-02-06T17:25:06Z</time>
      </trkpt>
      <trkpt lat="47.506387028843164" lon="19.024491040036082">
        <ele>132.749</ele>
        <time>2010-02-06T17:25:08Z</time>
      </trkpt>
      <trkpt lat="47.506409995257854" lon="19.024428008124232">
        <ele>132</ele>
        <time>2010-02-06T17:25:10Z</time>
      </trkpt>
      <trkpt lat="47.50644201412797" lon="19.024371011182666">
        <ele>132.07499999999999</ele>
        <time>2010-02-06T17:25:12Z</time>
      </trkpt>
      <trkpt lat="47.506483001634479" lon="19.024319965392351">
        <ele>132.34700000000001</ele>
        <time>2010-02-06T17:25:14Z</time>
      </trkpt>
      <trkpt lat="47.506504040211439" lon="19.024290964007378">
        <ele>131.45099999999999</ele>
        <time>2010-02-06T17:25:15Z</time>
      </trkpt>
      <trkpt lat="47.506538992747664" lon="19.024230027571321">
        <ele>131.708</ele>
        <time>2010-02-06T17:25:17Z</time>
      </trkpt>
      <trkpt lat="47.506577968597412" lon="19.024166995659471">
        <ele>130.929</ele>
        <time>2010-02-06T17:25:19Z</time>
      </trkpt>
      <trkpt lat="47.506592972204089" lon="19.024135982617736">
        <ele>131.21700000000001</ele>
        <time>2010-02-06T17:25:20Z</time>
      </trkpt>
      <trkpt lat="47.506625996902585" lon="19.024074962362647">
        <ele>131.01499999999999</ele>
        <time>2010-02-06T17:25:22Z</time>
      </trkpt>
      <trkpt lat="47.506662039086223" lon="19.024031963199377">
        <ele>131.042</ele>
        <time>2010-02-06T17:25:24Z</time>
      </trkpt>
      <trkpt lat="47.506692968308926" lon="19.023989969864488">
        <ele>130.99000000000001</ele>
        <time>2010-02-06T17:25:26Z</time>
      </trkpt>
      <trkpt lat="47.506714006885886" lon="19.023955017328262">
        <ele>130.44200000000001</ele>
        <time>2010-02-06T17:25:28Z</time>
      </trkpt>
      <trkpt lat="47.506738984957337" lon="19.023898020386696">
        <ele>130.22499999999999</ele>
        <time>2010-02-06T17:25:30Z</time>
      </trkpt>
      <trkpt lat="47.506773015484214" lon="19.023858038708568">
        <ele>129.411</ele>
        <time>2010-02-06T17:25:33Z</time>
      </trkpt>
      <trkpt lat="47.506783995777369" lon="19.02379903011024">
        <ele>129.36099999999999</ele>
        <time>2010-02-06T17:25:35Z</time>
      </trkpt>
      <trkpt lat="47.506777960807085" lon="19.023754019290209">
        <ele>128.72300000000001</ele>
        <time>2010-02-06T17:25:38Z</time>
      </trkpt>
      <trkpt lat="47.506832024082541" lon="19.023730969056487">
        <ele>128.804</ele>
        <time>2010-02-06T17:25:40Z</time>
      </trkpt>
      <trkpt lat="47.506868988275528" lon="19.023714037612081">
        <ele>128.595</ele>
        <time>2010-02-06T17:25:42Z</time>
      </trkpt>
      <trkpt lat="47.506673522293568" lon="19.023562660440803"/>
      <trkpt lat="47.506565731018782" lon="19.02344380505383"/>
      <trkpt lat="47.506417538970709" lon="19.023186145350337"/>
      <trkpt lat="47.506363643333316" lon="19.022888923063874"/>
      <trkpt lat="47.50625585205853" lon="19.022789848968387"/>
      <trkpt lat="47.506242357194424" lon="19.02276998385787"/>
      <trkpt lat="47.506161471828818" lon="19.02259161695838"/>
      <trkpt lat="47.506053680554032" lon="19.022393468767405"/>
      <trkpt lat="47.506026774644852" lon="19.022373603656888"/>
      <trkpt lat="47.505945889279246" lon="19.022175455465913"/>
      <trkpt lat="47.505851592868567" lon="19.022016953676939"/>
      <trkpt lat="47.505757212638855" lon="19.021779159083962"/>
      <trkpt lat="47.505832649767399" lon="19.021558966487646"/>
      <trkpt lat="47.505904482677579" lon="19.021400380879641"/>
      <trkpt lat="47.506021242588758" lon="19.02138713747263"/>
      <trkpt lat="47.506102127954364" lon="19.021307928487659"/>
      <trkpt lat="47.506245877593756" lon="19.021162586286664"/>
      <trkpt lat="47.506353668868542" lon="19.021056890487671"/>
      <trkpt lat="47.50656028278172" lon="19.020911548286676"/>
      <trkpt lat="47.506596157327294" lon="19.020805852487683"/>
      <trkpt lat="47.506650052964687" lon="19.020660510286689"/>
      <trkpt lat="47.506694979965687" lon="19.020475605502725"/>
      <trkpt lat="47.506757844239473" lon="19.020317019894719"/>
      <trkpt lat="47.506811823695898" lon="19.020198080688715"/>
      <trkpt lat="47.506865719333291" lon="19.020158518105745"/>
      <trkpt lat="47.506946520879865" lon="19.019947126507759"/>
      <trkpt lat="47.506946520879865" lon="19.019933883100748"/>
      <trkpt lat="47.507018353790045" lon="19.019748894497752"/>
      <trkpt lat="47.507036374881864" lon="19.01968284510076"/>
      <trkpt lat="47.507117176428437" lon="19.019511099904776"/>
      <trkpt lat="47.507117176428437" lon="19.019484696909785"/>
      <trkpt lat="47.507189093157649" lon="19.019273305311799"/>
      <trkpt lat="47.507198061794043" lon="19.019167609512806"/>
      <trkpt lat="47.507251957431436" lon="19.01898262090981"/>
      <trkpt lat="47.507287915796041" lon="19.018929814919829"/>
      <trkpt lat="47.507404675707221" lon="19.018929814919829"/>
      <trkpt lat="47.507413644343615" lon="19.01895621791482"/>
      <trkpt lat="47.50749452970922" lon="19.018969461321831"/>
      <trkpt lat="47.50749452970922" lon="19.01898262090981"/>
      <trkpt lat="47.507584299892187" lon="19.019035510718822"/>
      <trkpt lat="47.50768312253058" lon="19.019048670306802"/>
      <trkpt lat="47.507692091166973" lon="19.019048670306802"/>
      <trkpt lat="47.507728049531579" lon="19.018890168517828"/>
      <trkpt lat="47.507808934897184" lon="19.018731582909822"/>
      <trkpt lat="47.507871799170971" lon="19.018520191311836"/>
      <trkpt lat="47.507952684536576" lon="19.018322043120861"/>
      <trkpt lat="47.507997527718544" lon="19.018203187733889"/>
      <trkpt lat="47.508042454719543" lon="19.018057845532894"/>
      <trkpt lat="47.508096350356936" lon="19.017886100336909"/>
      <trkpt lat="47.508096350356936" lon="19.017872856929898"/>
      <trkpt lat="47.508132308721542" lon="19.017767161130905"/>
      <trkpt lat="47.508177235722542" lon="19.01756901293993"/>
      <trkpt lat="47.508177235722542" lon="19.017555769532919"/>
      <trkpt lat="47.508213194087148" lon="19.017423670738935"/>
      <trkpt lat="47.508231131359935" lon="19.017331134527922"/>
      <trkpt lat="47.508231131359935" lon="19.017317974939942"/>
      <trkpt lat="47.508258037269115" lon="19.01723868213594"/>
      <trkpt lat="47.508258037269115" lon="19.01722552254796"/>
      <trkpt lat="47.508311932906508" lon="19.017093339934945"/>
      <trkpt lat="47.508356859907508" lon="19.016974484547973"/>
      <trkpt lat="47.508356859907508" lon="19.016947997733951"/>
      <trkpt lat="47.508419808000326" lon="19.016789495944977"/>
      <trkpt lat="47.508482672274113" lon="19.016591347754002"/>
      <trkpt lat="47.508519552648067" lon="19.016388589516282"/>
      <trkpt lat="47.508613849058747" lon="19.016210222616792"/>
      <trkpt lat="47.508775619789958" lon="19.016051720827818"/>
      <trkpt lat="47.508883411064744" lon="19.015675205737352"/>
      <trkpt lat="47.508964212611318" lon="19.015476973727345"/>
      <trkpt lat="47.509045097976923" lon="19.01527882553637"/>
      <trkpt lat="47.509152889251709" lon="19.015140105038881"/>
      <trkpt lat="47.509389007464051" lon="19.014977999031544">
        <ele>135.14699999999999</ele>
        <time>2010-02-06T17:30:48Z</time>
      </trkpt>
      <trkpt lat="47.509408034384251" lon="19.014916978776455">
        <ele>135.25700000000001</ele>
        <time>2010-02-06T17:30:50Z</time>
      </trkpt>
      <trkpt lat="47.509428989142179" lon="19.014858976006508">
        <ele>135.69</ele>
        <time>2010-02-06T17:30:52Z</time>
      </trkpt>
      <trkpt lat="47.509438963606954" lon="19.014787981286645">
        <ele>135.96700000000001</ele>
        <time>2010-02-06T17:30:54Z</time>
      </trkpt>
      <trkpt lat="47.509444998577237" lon="19.014715980738401">
        <ele>135.56899999999999</ele>
        <time>2010-02-06T17:30:56Z</time>
      </trkpt>
      <trkpt lat="47.509451033547521" lon="19.01464800350368">
        <ele>135.35599999999999</ele>
        <time>2010-02-06T17:30:58Z</time>
      </trkpt>
      <trkpt lat="47.509455978870392" lon="19.014582959935069">
        <ele>134.858</ele>
        <time>2010-02-06T17:31:00Z</time>
      </trkpt>
      <trkpt lat="47.509460002183914" lon="19.01451900601387">
        <ele>135.02199999999999</ele>
        <time>2010-02-06T17:31:02Z</time>
      </trkpt>
      <trkpt lat="47.509465031325817" lon="19.014451028779149">
        <ele>135.185</ele>
        <time>2010-02-06T17:31:04Z</time>
      </trkpt>
      <trkpt lat="47.509475005790591" lon="19.014385985210538">
        <ele>134.66999999999999</ele>
        <time>2010-02-06T17:31:06Z</time>
      </trkpt>
      <trkpt lat="47.509486991912127" lon="19.01432597078383">
        <ele>134.26400000000001</ele>
        <time>2010-02-06T17:31:08Z</time>
      </trkpt>
      <trkpt lat="47.509499983862042" lon="19.014266040176153">
        <ele>134.69499999999999</ele>
        <time>2010-02-06T17:31:10Z</time>
      </trkpt>
      <trkpt lat="47.509520016610622" lon="19.014200996607542">
        <ele>135.63200000000001</ele>
        <time>2010-02-06T17:31:12Z</time>
      </trkpt>
      <trkpt lat="47.509513981640339" lon="19.014130001887679">
        <ele>135.071</ele>
        <time>2010-02-06T17:31:14Z</time>
      </trkpt>
      <trkpt lat="47.509522028267384" lon="19.014071999117732">
        <ele>134.70699999999999</ele>
        <time>2010-02-06T17:31:16Z</time>
      </trkpt>
      <trkpt lat="47.509542983025312" lon="19.014023970812559">
        <ele>134.77600000000001</ele>
        <time>2010-02-06T17:31:18Z</time>
      </trkpt>
      <trkpt lat="47.509553963318467" lon="19.013956999406219">
        <ele>134.44999999999999</ele>
        <time>2010-02-06T17:31:20Z</time>
      </trkpt>
      <trkpt lat="47.509569972753525" lon="19.013891033828259">
        <ele>135.08799999999999</ele>
        <time>2010-02-06T17:31:22Z</time>
      </trkpt>
      <trkpt lat="47.509577013552189" lon="19.013832025229931">
        <ele>134.959</ele>
        <time>2010-02-06T17:31:24Z</time>
      </trkpt>
      <trkpt lat="47.509576007723808" lon="19.013777039945126">
        <ele>134.01300000000001</ele>
        <time>2010-02-06T17:31:26Z</time>
      </trkpt>
      <trkpt lat="47.509595034644008" lon="19.013713002204895">
        <ele>134.62899999999999</ele>
        <time>2010-02-06T17:31:28Z</time>
      </trkpt>
      <trkpt lat="47.509609032422304" lon="19.013642007485032">
        <ele>134.83799999999999</ele>
        <time>2010-02-06T17:31:30Z</time>
      </trkpt>
      <trkpt lat="47.509623030200601" lon="19.013581993058324">
        <ele>134.23699999999999</ele>
        <time>2010-02-06T17:31:32Z</time>
      </trkpt>
      <trkpt lat="47.509647002443671" lon="19.013522984459996">
        <ele>134.328</ele>
        <time>2010-02-06T17:31:34Z</time>
      </trkpt>
      <trkpt lat="47.509684972465038" lon="19.013470010831952">
        <ele>134.77199999999999</ele>
        <time>2010-02-06T17:31:36Z</time>
      </trkpt>
      <trkpt lat="47.509710034355521" lon="19.013414019718766">
        <ele>134.53899999999999</ele>
        <time>2010-02-06T17:31:38Z</time>
      </trkpt>
      <trkpt lat="47.509724032133818" lon="19.013354005292058">
        <ele>134.732</ele>
        <time>2010-02-06T17:31:40Z</time>
      </trkpt>
      <trkpt lat="47.509724032133818" lon="19.013288961723447">
        <ele>134.07300000000001</ele>
        <time>2010-02-06T17:31:42Z</time>
      </trkpt>
      <trkpt lat="47.509719002991915" lon="19.01320799253881">
        <ele>134.05500000000001</ele>
        <time>2010-02-06T17:31:45Z</time>
      </trkpt>
      <trkpt lat="47.509722020477057" lon="19.013158958405256">
        <ele>134.38800000000001</ele>
        <time>2010-02-06T17:31:47Z</time>
      </trkpt>
      <trkpt lat="47.509709028527141" lon="19.013087041676044">
        <ele>134.29300000000001</ele>
        <time>2010-02-06T17:31:49Z</time>
      </trkpt>
      <trkpt lat="47.509682038798928" lon="19.013005988672376">
        <ele>134.136</ele>
        <time>2010-02-06T17:31:51Z</time>
      </trkpt>
      <trkpt lat="47.509676003828645" lon="19.012943962588906">
        <ele>134.62200000000001</ele>
        <time>2010-02-06T17:31:53Z</time>
      </trkpt>
      <trkpt lat="47.509692013263702" lon="19.012872967869043">
        <ele>134.53200000000001</ele>
        <time>2010-02-06T17:31:55Z</time>
      </trkpt>
      <trkpt lat="47.509690001606941" lon="19.012807002291083">
        <ele>134.26400000000001</ele>
        <time>2010-02-06T17:31:57Z</time>
      </trkpt>
      <trkpt lat="47.509705005213618" lon="19.012742964550853">
        <ele>134.62</ele>
        <time>2010-02-06T17:31:59Z</time>
      </trkpt>
      <trkpt lat="47.509705005213618" lon="19.012681022286415">
        <ele>134.77600000000001</ele>
        <time>2010-02-06T17:32:01Z</time>
      </trkpt>
      <trkpt lat="47.509693019092083" lon="19.012614972889423">
        <ele>134.52600000000001</ele>
        <time>2010-02-06T17:32:03Z</time>
      </trkpt>
      <trkpt lat="47.50968798995018" lon="19.012565016746521">
        <ele>134.66200000000001</ele>
        <time>2010-02-06T17:32:05Z</time>
      </trkpt>
      <trkpt lat="47.509680027142167" lon="19.012498967349529">
        <ele>134.18799999999999</ele>
        <time>2010-02-06T17:32:07Z</time>
      </trkpt>
      <trkpt lat="47.509701987728477" lon="19.012426966801286">
        <ele>134.21600000000001</ele>
        <time>2010-02-06T17:32:09Z</time>
      </trkpt>
      <trkpt lat="47.509721014648676" lon="19.012354966253042">
        <ele>134.63499999999999</ele>
        <time>2010-02-06T17:32:11Z</time>
      </trkpt>
      <trkpt lat="47.509738029912114" lon="19.012281959876418">
        <ele>134.36000000000001</ele>
        <time>2010-02-06T17:32:13Z</time>
      </trkpt>
      <trkpt lat="47.509757978841662" lon="19.012228986248374">
        <ele>134.19200000000001</ele>
        <time>2010-02-06T17:32:15Z</time>
      </trkpt>
      <trkpt lat="47.509768037125468" lon="19.012174000963569">
        <ele>134.52799999999999</ele>
        <time>2010-02-06T17:32:17Z</time>
      </trkpt>
      <trkpt lat="47.509772982448339" lon="19.012123961001635">
        <ele>134.26900000000001</ele>
        <time>2010-02-06T17:32:19Z</time>
      </trkpt>
      <trkpt lat="47.509789997711778" lon="19.012068975716829">
        <ele>133.68100000000001</ele>
        <time>2010-02-06T17:32:21Z</time>
      </trkpt>
      <trkpt lat="47.509803995490074" lon="19.012014996260405">
        <ele>134.38300000000001</ele>
        <time>2010-02-06T17:32:23Z</time>
      </trkpt>
      <trkpt lat="47.509826039895415" lon="19.0119409840554">
        <ele>134.506</ele>
        <time>2010-02-06T17:32:26Z</time>
      </trkpt>
      <trkpt lat="47.509854035452008" lon="19.011884992942214">
        <ele>134.917</ele>
        <time>2010-02-06T17:32:28Z</time>
      </trkpt>
      <trkpt lat="47.509869961068034" lon="19.011806035414338">
        <ele>134.00800000000001</ele>
        <time>2010-02-06T17:32:30Z</time>
      </trkpt>
      <trkpt lat="47.509887982159853" lon="19.011724982410669">
        <ele>134.78399999999999</ele>
        <time>2010-02-06T17:32:32Z</time>
      </trkpt>
      <trkpt lat="47.509883958846331" lon="19.011642001569271">
        <ele>134.751</ele>
        <time>2010-02-06T17:32:34Z</time>
      </trkpt>
      <trkpt lat="47.509875996038318" lon="19.011581987142563">
        <ele>134.374</ele>
        <time>2010-02-06T17:32:36Z</time>
      </trkpt>
      <trkpt lat="47.509874990209937" lon="19.011523984372616">
        <ele>134.34</ele>
        <time>2010-02-06T17:32:38Z</time>
      </trkpt>
      <trkpt lat="47.509883036836982" lon="19.011459024623036">
        <ele>134.64500000000001</ele>
        <time>2010-02-06T17:32:40Z</time>
      </trkpt>
      <trkpt lat="47.509871972724795" lon="19.011385012418032">
        <ele>134.14099999999999</ele>
        <time>2010-02-06T17:32:42Z</time>
      </trkpt>
      <trkpt lat="47.509863004088402" lon="19.011323992162943">
        <ele>134.07499999999999</ele>
        <time>2010-02-06T17:32:44Z</time>
      </trkpt>
      <trkpt lat="47.509863004088402" lon="19.011272024363279">
        <ele>134.697</ele>
        <time>2010-02-06T17:32:46Z</time>
      </trkpt>
      <trkpt lat="47.509871972724795" lon="19.011214021593332">
        <ele>134.31299999999999</ele>
        <time>2010-02-06T17:32:48Z</time>
      </trkpt>
      <trkpt lat="47.50988001935184" lon="19.011150989681482">
        <ele>134.39500000000001</ele>
        <time>2010-02-06T17:32:50Z</time>
      </trkpt>
      <trkpt lat="47.509888987988234" lon="19.011082006618381">
        <ele>133.958</ele>
        <time>2010-02-06T17:32:52Z</time>
      </trkpt>
      <trkpt lat="47.509897034615278" lon="19.011014029383659">
        <ele>134.28200000000001</ele>
        <time>2010-02-06T17:32:54Z</time>
      </trkpt>
      <trkpt lat="47.509888987988234" lon="19.010944040492177">
        <ele>134.66399999999999</ele>
        <time>2010-02-06T17:32:56Z</time>
      </trkpt>
      <trkpt lat="47.509897034615278" lon="19.010873967781663">
        <ele>134.73699999999999</ele>
        <time>2010-02-06T17:32:58Z</time>
      </trkpt>
      <trkpt lat="47.509908014908433" lon="19.010818982496858">
        <ele>134.227</ele>
        <time>2010-02-06T17:33:00Z</time>
      </trkpt>
      <trkpt lat="47.509914971888065" lon="19.010771038010716">
        <ele>135.01900000000001</ele>
        <time>2010-02-06T17:33:02Z</time>
      </trkpt>
      <trkpt lat="47.509903991594911" lon="19.010703982785344">
        <ele>134.499</ele>
        <time>2010-02-06T17:33:04Z</time>
      </trkpt>
      <trkpt lat="47.509895022958517" lon="19.010642040520906">
        <ele>134.423</ele>
        <time>2010-02-06T17:33:06Z</time>
      </trkpt>
      <trkpt lat="47.509881025180221" lon="19.010576996952295">
        <ele>135.01400000000001</ele>
        <time>2010-02-06T17:33:08Z</time>
      </trkpt>
      <trkpt lat="47.50985998660326" lon="19.010512037202716">
        <ele>135.38</ele>
        <time>2010-02-06T17:33:10Z</time>
      </trkpt>
      <trkpt lat="47.509850012138486" lon="19.010443976148963">
        <ele>135.09200000000001</ele>
        <time>2010-02-06T17:33:12Z</time>
      </trkpt>
      <trkpt lat="47.509849006310105" lon="19.010377004742622">
        <ele>134.94</ele>
        <time>2010-02-06T17:33:14Z</time>
      </trkpt>
      <trkpt lat="47.509852023795247" lon="19.010316990315914">
        <ele>134.85599999999999</ele>
        <time>2010-02-06T17:33:16Z</time>
      </trkpt>
      <trkpt lat="47.509860992431641" lon="19.010259993374348">
        <ele>134.94900000000001</ele>
        <time>2010-02-06T17:33:18Z</time>
      </trkpt>
      <trkpt lat="47.509857974946499" lon="19.010193021968007">
        <ele>134.36600000000001</ele>
        <time>2010-02-06T17:33:20Z</time>
      </trkpt>
      <trkpt lat="47.509839031845331" lon="19.010129990056157">
        <ele>135.25200000000001</ele>
        <time>2010-02-06T17:33:22Z</time>
      </trkpt>
      <trkpt lat="47.509783040732145" lon="19.010082967579365">
        <ele>134.82300000000001</ele>
        <time>2010-02-06T17:33:24Z</time>
      </trkpt>
      <trkpt lat="47.509723026305437" lon="19.010052038356662">
        <ele>135.46199999999999</ele>
        <time>2010-02-06T17:33:26Z</time>
      </trkpt>
      <trkpt lat="47.509666029363871" lon="19.010023036971688">
        <ele>135.46600000000001</ele>
        <time>2010-02-06T17:33:28Z</time>
      </trkpt>
      <trkpt lat="47.509611966088414" lon="19.010009039193392">
        <ele>135.291</ele>
        <time>2010-02-06T17:33:30Z</time>
      </trkpt>
      <trkpt lat="47.509489003568888" lon="19.009961010888219">
        <ele>134.74100000000001</ele>
        <time>2010-02-06T17:33:35Z</time>
      </trkpt>
      <trkpt lat="47.509439969435334" lon="19.009934021160007">
        <ele>135.30500000000001</ele>
        <time>2010-02-06T17:33:37Z</time>
      </trkpt>
      <trkpt lat="47.509406022727489" lon="19.009895967319608">
        <ele>135.321</ele>
        <time>2010-02-06T17:33:39Z</time>
      </trkpt>
      <trkpt lat="47.509371992200613" lon="19.009848022833467">
        <ele>135.03399999999999</ele>
        <time>2010-02-06T17:33:41Z</time>
      </trkpt>
      <trkpt lat="47.509332010522485" lon="19.009796977043152">
        <ele>135.96199999999999</ele>
        <time>2010-02-06T17:33:43Z</time>
      </trkpt>
      <trkpt lat="47.509316001087427" lon="19.009766969829798">
        <ele>135.65100000000001</ele>
        <time>2010-02-06T17:33:44Z</time>
      </trkpt>
      <trkpt lat="47.509115003049374" lon="19.009454995393753">
        <ele>135.65100000000001</ele>
        <time>2010-02-06T17:33:54Z</time>
      </trkpt>
      <trkpt lat="47.509079966694117" lon="19.009400010108948">
        <ele>136.05000000000001</ele>
        <time>2010-02-06T17:33:56Z</time>
      </trkpt>
      <trkpt lat="47.509047025814652" lon="19.009354999288917">
        <ele>135.46600000000001</ele>
        <time>2010-02-06T17:33:58Z</time>
      </trkpt>
      <trkpt lat="47.509012995287776" lon="19.009329015389085">
        <ele>135.322</ele>
        <time>2010-02-06T17:34:00Z</time>
      </trkpt>
      <trkpt lat="47.508969996124506" lon="19.00931702926755">
        <ele>135.11199999999999</ele>
        <time>2010-02-06T17:34:03Z</time>
      </trkpt>
      <trkpt lat="47.50897603109479" lon="19.009279981255531">
        <ele>134.65600000000001</ele>
        <time>2010-02-06T17:34:30Z</time>
      </trkpt>
      <trkpt lat="47.508946023881435" lon="19.009249974042177">
        <ele>136.18000000000001</ele>
        <time>2010-02-06T17:34:52Z</time>
      </trkpt>
      <trkpt lat="47.508920039981604" lon="19.009189959615469">
        <ele>136.14099999999999</ele>
        <time>2010-02-06T17:34:54Z</time>
      </trkpt>
      <trkpt lat="47.508889026939869" lon="19.009129023179412">
        <ele>136.58099999999999</ele>
        <time>2010-02-06T17:34:56Z</time>
      </trkpt>
      <trkpt lat="47.50884803943336" lon="19.009079989045858">
        <ele>138.04400000000001</ele>
        <time>2010-02-06T17:34:58Z</time>
      </trkpt>
      <trkpt lat="47.508805962279439" lon="19.009030032902956">
        <ele>138.68100000000001</ele>
        <time>2010-02-06T17:35:00Z</time>
      </trkpt>
      <trkpt lat="47.50876103527844" lon="19.008982004597783">
        <ele>138.858</ele>
        <time>2010-02-06T17:35:02Z</time>
      </trkpt>
      <trkpt lat="47.50871803611517" lon="19.008945040404797">
        <ele>139.58699999999999</ele>
        <time>2010-02-06T17:35:04Z</time>
      </trkpt>
      <trkpt lat="47.508682999759912" lon="19.008898017928004">
        <ele>140.447</ele>
        <time>2010-02-06T17:35:06Z</time>
      </trkpt>
      <trkpt lat="47.508661961182952" lon="19.008844960480928">
        <ele>141.131</ele>
        <time>2010-02-06T17:35:08Z</time>
      </trkpt>
      <trkpt lat="47.508633965626359" lon="19.008795004338026">
        <ele>141.78299999999999</ele>
        <time>2010-02-06T17:35:10Z</time>
      </trkpt>
      <trkpt lat="47.508605970069766" lon="19.008742030709982">
        <ele>141.38999999999999</ele>
        <time>2010-02-06T17:35:12Z</time>
      </trkpt>
      <trkpt lat="47.508573029190302" lon="19.00869601406157">
        <ele>141.988</ele>
        <time>2010-02-06T17:35:14Z</time>
      </trkpt>
      <trkpt lat="47.508535981178284" lon="19.008648991584778">
        <ele>142.40799999999999</ele>
        <time>2010-02-06T17:35:16Z</time>
      </trkpt>
      <trkpt lat="47.50850597396493" lon="19.008597023785114">
        <ele>143.21000000000001</ele>
        <time>2010-02-06T17:35:18Z</time>
      </trkpt>
      <trkpt lat="47.50848401337862" lon="19.00854698382318">
        <ele>143.238</ele>
        <time>2010-02-06T17:35:20Z</time>
      </trkpt>
      <trkpt lat="47.508460963144898" lon="19.008498033508658">
        <ele>143.21000000000001</ele>
        <time>2010-02-06T17:35:22Z</time>
      </trkpt>
      <trkpt lat="47.508428022265434" lon="19.008448999375105">
        <ele>143.33699999999999</ele>
        <time>2010-02-06T17:35:24Z</time>
      </trkpt>
      <trkpt lat="47.508396003395319" lon="19.008401976898313">
        <ele>143.845</ele>
        <time>2010-02-06T17:35:26Z</time>
      </trkpt>
      <trkpt lat="47.508362978696823" lon="19.008349003270268">
        <ele>143.96299999999999</ele>
        <time>2010-02-06T17:35:28Z</time>
      </trkpt>
      <trkpt lat="47.50833397731185" lon="19.008296029642224">
        <ele>144.875</ele>
        <time>2010-02-06T17:35:30Z</time>
      </trkpt>
      <trkpt lat="47.508250074461102" lon="19.00788682512939"/>
      <trkpt lat="47.508236579596996" lon="19.007510310038924"/>
      <trkpt lat="47.508223168551922" lon="19.00721300393343"/>
      <trkpt lat="47.508196178823709" lon="19.00689591653645"/>
      <trkpt lat="47.508196178823709" lon="19.006539266556501"/>
      <trkpt lat="47.508196178823709" lon="19.006281606853008"/>
      <trkpt lat="47.508182683959603" lon="19.006083458662033"/>
      <trkpt lat="47.508169272914529" lon="19.005687078461051"/>
      <trkpt lat="47.508169272914529" lon="19.005488930270076"/>
      <trkpt lat="47.508196178823709" lon="19.005092550069094"/>
      <trkpt lat="47.508182683959603" lon="19.00475568138063"/>
      <trkpt lat="47.508169272914529" lon="19.004735816270113"/>
      <trkpt lat="47.508155778050423" lon="19.004517802968621"/>
      <trkpt lat="47.508155778050423" lon="19.004498021677136"/>
      <trkpt lat="47.508209673687816" lon="19.004081860184669"/>
      <trkpt lat="47.508263569325209" lon="19.003725126385689"/>
      <trkpt lat="47.508344454690814" lon="19.003308964893222"/>
      <trkpt lat="47.508384855464101" lon="19.003011742606759"/>
      <trkpt lat="47.508465657010674" lon="19.002635143697262"/>
      <trkpt lat="47.508533047512174" lon="19.002238847315311"/>
      <trkpt lat="47.508654333651066" lon="19.001901894807816"/>
      <trkpt lat="47.508708229288459" lon="19.001446086913347"/>
      <trkpt lat="47.508883411064744" lon="19.000930851325393"/>
      <trkpt lat="47.508977707475424" lon="19.000514689832926"/>
      <trkpt lat="47.50908549875021" lon="19.000098528340459"/>
      <trkpt lat="47.509098993614316" lon="18.999603074043989"/>
      <trkpt lat="47.509112488478422" lon="18.999305851757526"/>
      <trkpt lat="47.50908549875021" lon="18.998830178752542"/>
      <trkpt lat="47.50908549875021" lon="18.998433882370591"/>
      <trkpt lat="47.50908549875021" lon="18.997958209365606"/>
      <trkpt lat="47.509058592841029" lon="18.997324034571648"/>
      <trkpt lat="47.509004697203636" lon="18.997026812285185"/>
      <trkpt lat="47.508950801566243" lon="18.996471930295229"/>
      <trkpt lat="47.508869916200638" lon="18.996095331385732"/>
      <trkpt lat="47.508748630061746" lon="18.995699035003781"/>
      <trkpt lat="47.508654333651066" lon="18.995282873511314"/>
      <trkpt lat="47.508479151874781" lon="18.994926139712334"/>
      <trkpt lat="47.508371360599995" lon="18.994609052315354"/>
      <trkpt lat="47.508330959826708" lon="18.99435130879283"/>
      <trkpt lat="47.508250074461102" lon="18.994093649089336"/>
      <trkpt lat="47.508169272914529" lon="18.993756780400872"/>
      <trkpt lat="47.50810188241303" lon="18.993558632209897"/>
      <trkpt lat="47.508047986775637" lon="18.993162252008915"/>
      <trkpt lat="47.50803449191153" lon="18.99314247071743"/>
      <trkpt lat="47.507940195500851" lon="18.992805518209934"/>
      <trkpt lat="47.507940195500851" lon="18.992785736918449"/>
      <trkpt lat="47.507872804999352" lon="18.992547942325473"/>
      <trkpt lat="47.507832404226065" lon="18.992230854928493"/>
      <trkpt lat="47.507791919633746" lon="18.991933548822999"/>
      <trkpt lat="47.507778508588672" lon="18.991913767531514"/>
      <trkpt lat="47.507697623223066" lon="18.991656107828021"/>
      <trkpt lat="47.507697623223066" lon="18.99161646142602"/>
      <trkpt lat="47.507549431174994" lon="18.991279592737556"/>
      <trkpt lat="47.507468545809388" lon="18.99112100712955"/>
      <trkpt lat="47.507428145036101" lon="18.99108144454658"/>
      <trkpt lat="47.507252963259816" lon="18.990823784843087"/>
      <trkpt lat="47.507252963259816" lon="18.990784138441086"/>
      <trkpt lat="47.507225973531604" lon="18.990387758240104"/>
      <trkpt lat="47.507199067622423" lon="18.990367976948619"/>
      <trkpt lat="47.506996979936957" lon="18.990308549255133"/>
      <trkpt lat="47.506619459018111" lon="18.990070754662156"/>
      <trkpt lat="47.506511667743325" lon="18.989991461858153"/>
      <trkpt lat="47.506363475695252" lon="18.989872522652149"/>
      <trkpt lat="47.50624218955636" lon="18.989793229848146"/>
      <trkpt lat="47.50621528364718" lon="18.989773448556662"/>
      <trkpt lat="47.506067007780075" lon="18.989753667265177"/>
      <trkpt lat="47.506026607006788" lon="18.989753667265177"/>
      <trkpt lat="47.505851425230503" lon="18.98955543525517"/>
      <trkpt lat="47.505811024457216" lon="18.989535653963685"/>
      <trkpt lat="47.50570323318243" lon="18.989535653963685"/>
      <trkpt lat="47.505689738318324" lon="18.989535653963685"/>
      <trkpt lat="47.505487566813827" lon="18.989476226270199"/>
      <trkpt lat="47.505433671176434" lon="18.989476226270199"/>
      <trkpt lat="47.505285479128361" lon="18.989476226270199"/>
      <trkpt lat="47.505245078355074" lon="18.989476226270199"/>
      <trkpt lat="47.505029495805502" lon="18.989476226270199"/>
      <trkpt lat="47.504975600168109" lon="18.989476226270199"/>
      <trkpt lat="47.504746522754431" lon="18.989476226270199"/>
      <trkpt lat="47.504733027890325" lon="18.989476226270199"/>
      <trkpt lat="47.504476960748434" lon="18.98937706835568"/>
      <trkpt lat="47.504234472289681" lon="18.98937706835568"/>
      <trkpt lat="47.504207482561469" lon="18.98937706835568"/>
      <trkpt lat="47.503991900011897" lon="18.98937706835568"/>
      <trkpt lat="47.50395149923861" lon="18.98937706835568"/>
      <trkpt lat="47.503776317462325" lon="18.989297859370708"/>
      <trkpt lat="47.503749327734113" lon="18.989297859370708"/>
      <trkpt lat="47.503385553136468" lon="18.989218566566706"/>
      <trkpt lat="47.503183465451002" lon="18.989139273762703"/>
      <trkpt lat="47.503035189583898" lon="18.989099627360702"/>
      <trkpt lat="47.502994788810611" lon="18.989079846069217"/>
      <trkpt lat="47.502873502671719" lon="18.989000553265214"/>
      <trkpt lat="47.502846596762538" lon="18.988960906863213"/>
      <trkpt lat="47.502590529620647" lon="18.988881697878242"/>
      <trkpt lat="47.502361452206969" lon="18.988822186365724"/>
      <trkpt lat="47.502334546297789" lon="18.988782539963722"/>
      <trkpt lat="47.50219976529479" lon="18.988643819466233"/>
      <trkpt lat="47.502145869657397" lon="18.988643819466233"/>
      <trkpt lat="47.501916792243719" lon="18.988505098968744"/>
      <trkpt lat="47.50175510533154" lon="18.988366378471255"/>
      <trkpt lat="47.501741610467434" lon="18.98834659717977"/>
      <trkpt lat="47.501566428691149" lon="18.988148448988795"/>
      <trkpt lat="47.50136417336762" lon="18.988009644672275"/>
      <trkpt lat="47.501256382092834" lon="18.98816823028028"/>
      <trkpt lat="47.501121601089835" lon="18.98834659717977"/>
      <trkpt lat="47.500973409041762" lon="18.988505098968744"/>
      <trkpt lat="47.50085212290287" lon="18.988683465868235"/>
      <trkpt lat="47.500743996351957" lon="18.98884397931397">
        <ele>362.20400000000001</ele>
        <time>2010-02-06T18:00:18Z</time>
      </trkpt>
      <trkpt lat="47.500704014673829" lon="18.98886501789093">
        <ele>362.71199999999999</ele>
        <time>2010-02-06T18:00:21Z</time>
      </trkpt>
      <trkpt lat="47.500657998025417" lon="18.988893013447523">
        <ele>364.798</ele>
        <time>2010-02-06T18:00:24Z</time>
      </trkpt>
      <trkpt lat="47.500630002468824" lon="18.988920003175735">
        <ele>364.10199999999998</ele>
        <time>2010-02-06T18:00:26Z</time>
      </trkpt>
      <trkpt lat="47.500589014962316" lon="18.988956967368722">
        <ele>364.37299999999999</ele>
        <time>2010-02-06T18:00:29Z</time>
      </trkpt>
      <trkpt lat="47.500553978607059" lon="18.989012958481908">
        <ele>364.983</ele>
        <time>2010-02-06T18:00:32Z</time>
      </trkpt>
      <trkpt lat="47.500532018020749" lon="18.989061992615461">
        <ele>365.072</ele>
        <time>2010-02-06T18:00:34Z</time>
      </trkpt>
      <trkpt lat="47.500511985272169" lon="18.989112032577395">
        <ele>366.04000000000002</ele>
        <time>2010-02-06T18:00:36Z</time>
      </trkpt>
      <trkpt lat="47.500486001372337" lon="18.989148996770382">
        <ele>366.21899999999999</ele>
        <time>2010-02-06T18:00:38Z</time>
      </trkpt>
      <trkpt lat="47.500454988330603" lon="18.989211022853851">
        <ele>367.05900000000003</ele>
        <time>2010-02-06T18:00:41Z</time>
      </trkpt>
      <trkpt lat="47.500432021915913" lon="18.989257039502263">
        <ele>367.18799999999999</ele>
        <time>2010-02-06T18:00:43Z</time>
      </trkpt>
      <trkpt lat="47.500402014702559" lon="18.989301966503263">
        <ele>367.363</ele>
        <time>2010-02-06T18:00:45Z</time>
      </trkpt>
      <trkpt lat="47.500378964468837" lon="18.989332979544997">
        <ele>367.697</ele>
        <time>2010-02-06T18:00:47Z</time>
      </trkpt>
      <trkpt lat="47.500353986397386" lon="18.989358963444829">
        <ele>368.52699999999999</ele>
        <time>2010-02-06T18:00:49Z</time>
      </trkpt>
      <trkpt lat="47.500332025811076" lon="18.98940296843648">
        <ele>368.40300000000002</ele>
        <time>2010-02-06T18:00:51Z</time>
      </trkpt>
      <trkpt lat="47.500307969748974" lon="18.989441022276878">
        <ele>368.90300000000002</ele>
        <time>2010-02-06T18:00:54Z</time>
      </trkpt>
      <trkpt lat="47.500272011384368" lon="18.989475974813104">
        <ele>370.14999999999998</ele>
        <time>2010-02-06T18:00:57Z</time>
      </trkpt>
      <trkpt lat="47.500238986685872" lon="18.98953003808856">
        <ele>369.613</ele>
        <time>2010-02-06T18:01:00Z</time>
      </trkpt>
      <trkpt lat="47.500214008614421" lon="18.989588040858507">
        <ele>370.339</ele>
        <time>2010-02-06T18:01:03Z</time>
      </trkpt>
      <trkpt lat="47.500202022492886" lon="18.989640008658171">
        <ele>370.46100000000001</ele>
        <time>2010-02-06T18:01:06Z</time>
      </trkpt>
      <trkpt lat="47.500184001401067" lon="18.989686025306582">
        <ele>370.613</ele>
        <time>2010-02-06T18:01:09Z</time>
      </trkpt>
      <trkpt lat="47.500158017501235" lon="18.989729024469852">
        <ele>370.50999999999999</ele>
        <time>2010-02-06T18:01:12Z</time>
      </trkpt>
      <trkpt lat="47.500135973095894" lon="18.98979096673429">
        <ele>371.226</ele>
        <time>2010-02-06T18:01:15Z</time>
      </trkpt>
      <trkpt lat="47.500099008902907" lon="18.989847963675857">
        <ele>371.13099999999997</ele>
        <time>2010-02-06T18:01:18Z</time>
      </trkpt>
      <trkpt lat="47.500070007517934" lon="18.989904038608074">
        <ele>372.10500000000002</ele>
        <time>2010-02-06T18:01:21Z</time>
      </trkpt>
      <trkpt lat="47.500049974769354" lon="18.989951983094215">
        <ele>372.53399999999999</ele>
        <time>2010-02-06T18:01:24Z</time>
      </trkpt>
      <trkpt lat="47.500019967556" lon="18.990004034712911">
        <ele>373.02699999999999</ele>
        <time>2010-02-06T18:01:27Z</time>
      </trkpt>
      <trkpt lat="47.499961964786053" lon="18.990023983642459">
        <ele>373.30900000000003</ele>
        <time>2010-02-06T18:01:32Z</time>
      </trkpt>
      <trkpt lat="47.499920977279544" lon="18.990019038319588">
        <ele>374.11500000000001</ele>
        <time>2010-02-06T18:01:36Z</time>
      </trkpt>
      <trkpt lat="47.499895999208093" lon="18.990060025826097">
        <ele>373.68299999999999</ele>
        <time>2010-02-06T18:01:39Z</time>
      </trkpt>
      <trkpt lat="47.499886024743319" lon="18.99013496004045">
        <ele>374.18200000000002</ele>
        <time>2010-02-06T18:01:42Z</time>
      </trkpt>
      <trkpt lat="47.499871021136642" lon="18.990207966417074">
        <ele>374.39699999999999</ele>
        <time>2010-02-06T18:01:45Z</time>
      </trkpt>
      <trkpt lat="47.499857023358345" lon="18.990274015814066">
        <ele>374.82799999999997</ele>
        <time>2010-02-06T18:01:48Z</time>
      </trkpt>
      <trkpt lat="47.499835984781384" lon="18.990318020805717">
        <ele>374.46199999999999</ele>
        <time>2010-02-06T18:01:50Z</time>
      </trkpt>
      <trkpt lat="47.499785022810102" lon="18.990383986383677">
        <ele>374.90899999999999</ele>
        <time>2010-02-06T18:01:54Z</time>
      </trkpt>
      <trkpt lat="47.499751998111606" lon="18.990439977496862">
        <ele>375.91000000000003</ele>
        <time>2010-02-06T18:01:57Z</time>
      </trkpt>
      <trkpt lat="47.499735988676548" lon="18.990491023287177">
        <ele>375.63600000000002</ele>
        <time>2010-02-06T18:02:00Z</time>
      </trkpt>
      <trkpt lat="47.499701036140323" lon="18.990548020228744">
        <ele>376.68299999999999</ele>
        <time>2010-02-06T18:02:03Z</time>
      </trkpt>
      <trkpt lat="47.499663988128304" lon="18.990591019392014">
        <ele>377.12900000000002</ele>
        <time>2010-02-06T18:02:06Z</time>
      </trkpt>
      <trkpt lat="47.499643033370376" lon="18.990635024383664">
        <ele>376.78100000000001</ele>
        <time>2010-02-06T18:02:08Z</time>
      </trkpt>
      <trkpt lat="47.499605985358357" lon="18.990683974698186">
        <ele>376.82900000000001</ele>
        <time>2010-02-06T18:02:11Z</time>
      </trkpt>
      <trkpt lat="47.499580001458526" lon="18.990726973861456">
        <ele>377.36500000000001</ele>
        <time>2010-02-06T18:02:14Z</time>
      </trkpt>
      <trkpt lat="47.49954697676003" lon="18.990782964974642">
        <ele>377.71899999999999</ele>
        <time>2010-02-06T18:02:18Z</time>
      </trkpt>
      <trkpt lat="47.499513030052185" lon="18.990830993279815">
        <ele>377.68599999999998</ele>
        <time>2010-02-06T18:02:21Z</time>
      </trkpt>
      <trkpt lat="47.499492997303605" lon="18.990880027413368">
        <ele>378.49200000000002</ele>
        <time>2010-02-06T18:02:23Z</time>
      </trkpt>
      <trkpt lat="47.499471036717296" lon="18.990934006869793">
        <ele>379.06200000000001</ele>
        <time>2010-02-06T18:02:25Z</time>
      </trkpt>
      <trkpt lat="47.499451003968716" lon="18.990977006033063">
        <ele>379.00799999999998</ele>
        <time>2010-02-06T18:02:27Z</time>
      </trkpt>
      <trkpt lat="47.499422002583742" lon="18.991028973832726">
        <ele>379.27100000000002</ele>
        <time>2010-02-06T18:02:30Z</time>
      </trkpt>
      <trkpt lat="47.499406998977065" lon="18.991087982431054">
        <ele>378.98500000000001</ele>
        <time>2010-02-06T18:02:33Z</time>
      </trkpt>
      <trkpt lat="47.499388977885246" lon="18.991129975765944">
        <ele>378.94999999999999</ele>
        <time>2010-02-06T18:02:36Z</time>
      </trkpt>
      <trkpt lat="47.499330975115299" lon="18.991130981594324">
        <ele>380.29899999999998</ele>
        <time>2010-02-06T18:04:03Z</time>
      </trkpt>
      <trkpt lat="47.499293005093932" lon="18.991083959117532">
        <ele>380.14499999999998</ele>
        <time>2010-02-06T18:04:06Z</time>
      </trkpt>
      <trkpt lat="47.499253023415804" lon="18.991046994924545">
        <ele>380.33800000000002</ele>
        <time>2010-02-06T18:04:09Z</time>
      </trkpt>
      <trkpt lat="47.499211030080914" lon="18.991018999367952">
        <ele>381.53699999999998</ele>
        <time>2010-02-06T18:04:12Z</time>
      </trkpt>
      <trkpt lat="47.499172976240516" lon="18.990968037396669">
        <ele>381.80000000000001</ele>
        <time>2010-02-06T18:04:14Z</time>
      </trkpt>
      <trkpt lat="47.499139029532671" lon="18.990937024354935">
        <ele>382.96199999999999</ele>
        <time>2010-02-06T18:04:16Z</time>
      </trkpt>
      <trkpt lat="47.499097036197782" lon="18.990910034626722">
        <ele>383.29199999999997</ele>
        <time>2010-02-06T18:04:19Z</time>
      </trkpt>
      <trkpt lat="47.499060994014144" lon="18.990861000493169">
        <ele>383.25999999999999</ele>
        <time>2010-02-06T18:04:22Z</time>
      </trkpt>
      <trkpt lat="47.499039033427835" lon="18.990815989673138">
        <ele>383.48500000000001</ele>
        <time>2010-02-06T18:04:25Z</time>
      </trkpt>
      <trkpt lat="47.49901195988059" lon="18.990781037136912">
        <ele>384.65899999999999</ele>
        <time>2010-02-06T18:04:28Z</time>
      </trkpt>
      <trkpt lat="47.498981030657887" lon="18.990740971639752">
        <ele>384.08499999999998</ele>
        <time>2010-02-06T18:04:31Z</time>
      </trkpt>
      <trkpt lat="47.498954040929675" lon="18.990711970254779">
        <ele>385.35899999999998</ele>
        <time>2010-02-06T18:04:33Z</time>
      </trkpt>
      <trkpt lat="47.498920010402799" lon="18.990681963041425">
        <ele>386.12400000000002</ele>
        <time>2010-02-06T18:04:36Z</time>
      </trkpt>
      <trkpt lat="47.49888002872467" lon="18.990631001070142">
        <ele>386.38799999999998</ele>
        <time>2010-02-06T18:04:39Z</time>
      </trkpt>
      <trkpt lat="47.498857984319329" lon="18.990582972764969">
        <ele>387.02800000000002</ele>
        <time>2010-02-06T18:04:42Z</time>
      </trkpt>
      <trkpt lat="47.498848009854555" lon="18.990534022450447">
        <ele>387.13900000000001</ele>
        <time>2010-02-06T18:04:44Z</time>
      </trkpt>
      <trkpt lat="47.498829988762736" lon="18.990475013852119">
        <ele>388.06999999999999</ele>
        <time>2010-02-06T18:04:46Z</time>
      </trkpt>
      <trkpt lat="47.498805010691285" lon="18.990438971668482">
        <ele>388.09399999999999</ele>
        <time>2010-02-06T18:04:48Z</time>
      </trkpt>
      <trkpt lat="47.49877399764955" lon="18.990399995818734">
        <ele>389.16000000000003</ele>
        <time>2010-02-06T18:04:51Z</time>
      </trkpt>
      <trkpt lat="47.498747007921338" lon="18.990367976948619">
        <ele>389.48399999999998</ele>
        <time>2010-02-06T18:04:53Z</time>
      </trkpt>
      <trkpt lat="47.498719012364745" lon="18.990327995270491">
        <ele>389.42399999999998</ele>
        <time>2010-02-06T18:04:56Z</time>
      </trkpt>
      <trkpt lat="47.498685987666249" lon="18.990296982228756">
        <ele>389.64999999999998</ele>
        <time>2010-02-06T18:04:58Z</time>
      </trkpt>
      <trkpt lat="47.498662015423179" lon="18.99026102386415">
        <ele>390.20100000000002</ele>
        <time>2010-02-06T18:05:00Z</time>
      </trkpt>
      <trkpt lat="47.49862396158278" lon="18.990205032750964">
        <ele>390.68200000000002</ele>
        <time>2010-02-06T18:05:03Z</time>
      </trkpt>
      <trkpt lat="47.498595966026187" lon="18.990164967253804">
        <ele>392.12900000000002</ele>
        <time>2010-02-06T18:05:05Z</time>
      </trkpt>
      <trkpt lat="47.498564030975103" lon="18.990134038031101">
        <ele>392.58999999999997</ele>
        <time>2010-02-06T18:05:07Z</time>
      </trkpt>
      <trkpt lat="47.49853603541851" lon="18.990102019160986">
        <ele>393.084</ele>
        <time>2010-02-06T18:05:09Z</time>
      </trkpt>
      <trkpt lat="47.498498987406492" lon="18.990072011947632">
        <ele>393.54500000000002</ele>
        <time>2010-02-06T18:05:11Z</time>
      </trkpt>
      <trkpt lat="47.498453976586461" lon="18.990044016391039">
        <ele>394.03500000000003</ele>
        <time>2010-02-06T18:05:14Z</time>
      </trkpt>
      <trkpt lat="47.498404020443559" lon="18.990010991692543">
        <ele>395.15699999999998</ele>
        <time>2010-02-06T18:05:17Z</time>
      </trkpt>
      <trkpt lat="47.498367978259921" lon="18.989995988085866">
        <ele>395.58300000000003</ele>
        <time>2010-02-06T18:05:19Z</time>
      </trkpt>
      <trkpt lat="47.498334031552076" lon="18.989962041378021">
        <ele>395.80500000000001</ele>
        <time>2010-02-06T18:05:21Z</time>
      </trkpt>
      <trkpt lat="47.498305030167103" lon="18.989941002801061">
        <ele>396.07299999999998</ele>
        <time>2010-02-06T18:05:23Z</time>
      </trkpt>
      <trkpt lat="47.498261025175452" lon="18.989916024729609">
        <ele>396.78899999999999</ele>
        <time>2010-02-06T18:05:26Z</time>
      </trkpt>
      <trkpt lat="47.498219031840563" lon="18.989889035001397">
        <ele>397.23500000000001</ele>
        <time>2010-02-06T18:05:29Z</time>
      </trkpt>
      <trkpt lat="47.498177038505673" lon="18.989869002252817">
        <ele>397.53399999999999</ele>
        <time>2010-02-06T18:05:32Z</time>
      </trkpt>
      <trkpt lat="47.498130016028881" lon="18.989847963675857">
        <ele>398.21499999999997</ele>
        <time>2010-02-06T18:05:35Z</time>
      </trkpt>
      <trkpt lat="47.498089028522372" lon="18.989827008917928">
        <ele>398.17500000000001</ele>
        <time>2010-02-06T18:05:38Z</time>
      </trkpt>
      <trkpt lat="47.498061032965779" lon="18.989813011139631">
        <ele>398.80399999999997</ele>
        <time>2010-02-06T18:05:40Z</time>
      </trkpt>
      <trkpt lat="47.498020967468619" lon="18.989785015583038">
        <ele>398.565</ele>
        <time>2010-02-06T18:05:43Z</time>
      </trkpt>
      <trkpt lat="47.497980985790491" lon="18.989765988662839">
        <ele>399.03500000000003</ele>
        <time>2010-02-06T18:05:46Z</time>
      </trkpt>
      <trkpt lat="47.497936980798841" lon="18.989763977006078">
        <ele>399.416</ele>
        <time>2010-02-06T18:05:49Z</time>
      </trkpt>
      <trkpt lat="47.497901022434235" lon="18.989776968955994">
        <ele>399.69900000000001</ele>
        <time>2010-02-06T18:05:51Z</time>
      </trkpt>
      <trkpt lat="47.4978700093925" lon="18.989772023633122">
        <ele>399.76299999999998</ele>
        <time>2010-02-06T18:05:53Z</time>
      </trkpt>
      <trkpt lat="47.497832961380482" lon="18.989789038896561">
        <ele>399.98899999999998</ele>
        <time>2010-02-06T18:05:56Z</time>
      </trkpt>
      <trkpt lat="47.497793985530734" lon="18.989801025018096">
        <ele>399.93000000000001</ele>
        <time>2010-02-06T18:05:59Z</time>
      </trkpt>
      <trkpt lat="47.497752998024225" lon="18.989799013361335">
        <ele>399.84800000000001</ele>
        <time>2010-02-06T18:06:02Z</time>
      </trkpt>
      <trkpt lat="47.497709998860955" lon="18.989781998097897">
        <ele>400.12299999999999</ele>
        <time>2010-02-06T18:06:05Z</time>
      </trkpt>
      <trkpt lat="47.497670017182827" lon="18.989776968955994">
        <ele>400.04399999999998</ele>
        <time>2010-02-06T18:06:08Z</time>
      </trkpt>
      <trkpt lat="47.497630035504699" lon="18.989758025854826">
        <ele>400.84199999999998</ele>
        <time>2010-02-06T18:06:11Z</time>
      </trkpt>
      <trkpt lat="47.497587958350778" lon="18.989746039733291">
        <ele>400.20100000000002</ele>
        <time>2010-02-06T18:06:14Z</time>
      </trkpt>
      <trkpt lat="47.497546970844269" lon="18.98974402807653">
        <ele>400.40800000000002</ele>
        <time>2010-02-06T18:06:17Z</time>
      </trkpt>
      <trkpt lat="47.497510006651282" lon="18.989755008369684">
        <ele>400.202</ele>
        <time>2010-02-06T18:06:20Z</time>
      </trkpt>
      <trkpt lat="47.497470024973154" lon="18.989738998934627">
        <ele>401.08800000000002</ele>
        <time>2010-02-06T18:06:23Z</time>
      </trkpt>
      <trkpt lat="47.497437000274658" lon="18.989758025854826">
        <ele>400.94499999999999</ele>
        <time>2010-02-06T18:06:26Z</time>
      </trkpt>
      <trkpt lat="47.497406993061304" lon="18.989760959520936">
        <ele>400.48599999999999</ele>
        <time>2010-02-06T18:06:29Z</time>
      </trkpt>
      <trkpt lat="47.497375980019569" lon="18.989748973399401">
        <ele>400.61000000000001</ele>
        <time>2010-02-06T18:06:32Z</time>
      </trkpt>
      <trkpt lat="47.497339015826583" lon="18.989740004763007">
        <ele>400.82600000000002</ele>
        <time>2010-02-06T18:06:35Z</time>
      </trkpt>
      <trkpt lat="47.497298028320074" lon="18.98970203474164">
        <ele>400.98000000000002</ele>
        <time>2010-02-06T18:06:38Z</time>
      </trkpt>
      <trkpt lat="47.497301967814565" lon="18.989690970629454">
        <ele>401.16300000000001</ele>
        <time>2010-02-06T18:06:44Z</time>
      </trkpt>
      <trkpt lat="47.497309008613229" lon="18.989650988951325">
        <ele>401.19</ele>
        <time>2010-02-06T18:06:46Z</time>
      </trkpt>
      <trkpt lat="47.497289981693029" lon="18.989586029201746">
        <ele>400.77300000000002</ele>
        <time>2010-02-06T18:06:48Z</time>
      </trkpt>
      <trkpt lat="47.497285036370158" lon="18.989544035866857">
        <ele>400.77800000000002</ele>
        <time>2010-02-06T18:06:49Z</time>
      </trkpt>
      <trkpt lat="47.497279001399875" lon="18.989500030875206">
        <ele>400.815</ele>
        <time>2010-02-06T18:06:50Z</time>
      </trkpt>
      <trkpt lat="47.497270032763481" lon="18.989458037540317">
        <ele>401.38</ele>
        <time>2010-02-06T18:06:51Z</time>
      </trkpt>
      <trkpt lat="47.497260980308056" lon="18.989415960386395">
        <ele>401.22800000000001</ele>
        <time>2010-02-06T18:06:52Z</time>
      </trkpt>
      <trkpt lat="47.497240025550127" lon="18.989352006465197">
        <ele>401.87299999999999</ele>
        <time>2010-02-06T18:06:54Z</time>
      </trkpt>
      <trkpt lat="47.497196020558476" lon="18.989292997866869">
        <ele>401.23599999999999</ele>
        <time>2010-02-06T18:06:56Z</time>
      </trkpt>
      <trkpt lat="47.497173976153135" lon="18.989257961511612">
        <ele>401.59300000000002</ele>
        <time>2010-02-06T18:06:57Z</time>
      </trkpt>
      <trkpt lat="47.497153021395206" lon="18.989226026460528">
        <ele>401.42200000000003</ele>
        <time>2010-02-06T18:06:58Z</time>
      </trkpt>
      <trkpt lat="47.497108010575175" lon="18.989164000377059">
        <ele>401.95699999999999</ele>
        <time>2010-02-06T18:07:00Z</time>
      </trkpt>
      <trkpt lat="47.497056964784861" lon="18.989107003435493">
        <ele>402.16899999999998</ele>
        <time>2010-02-06T18:07:02Z</time>
      </trkpt>
      <trkpt lat="47.49703299254179" lon="18.9890790078789">
        <ele>401.61900000000003</ele>
        <time>2010-02-06T18:07:03Z</time>
      </trkpt>
      <trkpt lat="47.496983958408237" lon="18.989042965695262">
        <ele>401.93900000000002</ele>
        <time>2010-02-06T18:07:05Z</time>
      </trkpt>
      <trkpt lat="47.496957974508405" lon="18.989027040079236">
        <ele>402.108</ele>
        <time>2010-02-06T18:07:06Z</time>
      </trkpt>
      <trkpt lat="47.496914975345135" lon="18.988982029259205">
        <ele>403.03500000000003</ele>
        <time>2010-02-06T18:07:08Z</time>
      </trkpt>
      <trkpt lat="47.496874993667006" lon="18.988922014832497">
        <ele>402.31099999999998</ele>
        <time>2010-02-06T18:07:10Z</time>
      </trkpt>
      <trkpt lat="47.496845992282033" lon="18.988866023719311">
        <ele>402.88299999999998</ele>
        <time>2010-02-06T18:07:12Z</time>
      </trkpt>
      <trkpt lat="47.496813973411918" lon="18.988811038434505">
        <ele>403.95299999999997</ele>
        <time>2010-02-06T18:07:14Z</time>
      </trkpt>
      <trkpt lat="47.496782960370183" lon="18.988759992644191">
        <ele>403.29300000000001</ele>
        <time>2010-02-06T18:07:16Z</time>
      </trkpt>
      <trkpt lat="47.496758988127112" lon="18.988709030672908">
        <ele>403.96499999999997</ele>
        <time>2010-02-06T18:07:18Z</time>
      </trkpt>
      <trkpt lat="47.4967319983989" lon="18.988656979054213">
        <ele>404.38099999999997</ele>
        <time>2010-02-06T18:07:20Z</time>
      </trkpt>
      <trkpt lat="47.496708026155829" lon="18.988614985719323">
        <ele>404.78399999999999</ele>
        <time>2010-02-06T18:07:22Z</time>
      </trkpt>
      <trkpt lat="47.496673995628953" lon="18.988566035404801">
        <ele>405.346</ele>
        <time>2010-02-06T18:07:25Z</time>
      </trkpt>
      <trkpt lat="47.496658992022276" lon="18.988508032634854">
        <ele>406.21699999999998</ele>
        <time>2010-02-06T18:07:28Z</time>
      </trkpt>
      <trkpt lat="47.496644994243979" lon="18.988442989066243">
        <ele>406.83999999999997</ele>
        <time>2010-02-06T18:07:31Z</time>
      </trkpt>
      <trkpt lat="47.496629990637302" lon="18.988385992124677">
        <ele>406.84699999999998</ele>
        <time>2010-02-06T18:07:34Z</time>
      </trkpt>
      <trkpt lat="47.496610041707754" lon="18.988345004618168">
        <ele>407.25700000000001</ele>
        <time>2010-02-06T18:07:36Z</time>
      </trkpt>
      <trkpt lat="47.496587997302413" lon="18.98828499019146">
        <ele>407.01999999999998</ele>
        <time>2010-02-06T18:07:39Z</time>
      </trkpt>
      <trkpt lat="47.496568970382214" lon="18.988239979371428">
        <ele>407.06099999999998</ele>
        <time>2010-02-06T18:07:41Z</time>
      </trkpt>
      <trkpt lat="47.496558995917439" lon="18.988193962723017">
        <ele>407.05399999999997</ele>
        <time>2010-02-06T18:07:43Z</time>
      </trkpt>
      <trkpt lat="47.496552960947156" lon="18.988150041550398">
        <ele>407.214</ele>
        <time>2010-02-06T18:07:45Z</time>
      </trkpt>
      <trkpt lat="47.496548015624285" lon="18.988106036558747">
        <ele>407.45299999999997</ele>
        <time>2010-02-06T18:07:47Z</time>
      </trkpt>
      <trkpt lat="47.496538963168859" lon="18.988063959404826">
        <ele>407.19200000000001</ele>
        <time>2010-02-06T18:07:49Z</time>
      </trkpt>
      <trkpt lat="47.496524965390563" lon="18.98800503462553">
        <ele>407.24700000000001</ele>
        <time>2010-02-06T18:07:52Z</time>
      </trkpt>
      <trkpt lat="47.496504010632634" lon="18.987948037683964">
        <ele>407.28399999999999</ele>
        <time>2010-02-06T18:07:55Z</time>
      </trkpt>
      <trkpt lat="47.496506022289395" lon="18.987887017428875">
        <ele>407.37700000000001</ele>
        <time>2010-02-06T18:07:58Z</time>
      </trkpt>
      <trkpt lat="47.496494958177209" lon="18.987827003002167">
        <ele>407.57799999999997</ele>
        <time>2010-02-06T18:08:01Z</time>
      </trkpt>
      <trkpt lat="47.496482972055674" lon="18.987786015495658">
        <ele>407.91800000000001</ele>
        <time>2010-02-06T18:08:03Z</time>
      </trkpt>
      <trkpt lat="47.496469980105758" lon="18.987722983583808">
        <ele>407.81999999999999</ele>
        <time>2010-02-06T18:08:06Z</time>
      </trkpt>
      <trkpt lat="47.496462017297745" lon="18.98766104131937">
        <ele>407.94499999999999</ele>
        <time>2010-02-06T18:08:09Z</time>
      </trkpt>
      <trkpt lat="47.496454976499081" lon="18.987603038549423">
        <ele>408.02800000000002</ele>
        <time>2010-02-06T18:08:12Z</time>
      </trkpt>
      <trkpt lat="47.496439972892404" lon="18.98753397166729">
        <ele>408.28800000000001</ele>
        <time>2010-02-06T18:08:15Z</time>
      </trkpt>
      <trkpt lat="47.496421029791236" lon="18.98749097250402">
        <ele>408.137</ele>
        <time>2010-02-06T18:08:17Z</time>
      </trkpt>
      <trkpt lat="47.496383981779218" lon="18.987440010532737">
        <ele>407.87099999999998</ele>
        <time>2010-02-06T18:08:20Z</time>
      </trkpt>
      <trkpt lat="47.496353974565864" lon="18.987397011369467">
        <ele>407.45400000000001</ele>
        <time>2010-02-06T18:08:22Z</time>
      </trkpt>
      <trkpt lat="47.496328996494412" lon="18.987334985285997">
        <ele>406.858</ele>
        <time>2010-02-06T18:08:24Z</time>
      </trkpt>
      <trkpt lat="47.496298989281058" lon="18.987268013879657">
        <ele>405.86000000000001</ele>
        <time>2010-02-06T18:08:26Z</time>
      </trkpt>
      <trkpt lat="47.496264958754182" lon="18.987196013331413">
        <ele>405.85700000000003</ele>
        <time>2010-02-06T18:08:28Z</time>
      </trkpt>
      <trkpt lat="47.496229000389576" lon="18.987127030268312">
        <ele>404.74700000000001</ele>
        <time>2010-02-06T18:08:30Z</time>
      </trkpt>
      <trkpt lat="47.496205028146505" lon="18.987089982256293">
        <ele>404.58600000000001</ele>
        <time>2010-02-06T18:08:31Z</time>
      </trkpt>
      <trkpt lat="47.496165968477726" lon="18.987029967829585">
        <ele>403.47800000000001</ele>
        <time>2010-02-06T18:08:33Z</time>
      </trkpt>
      <trkpt lat="47.496131015941501" lon="18.986987974494696">
        <ele>402.92700000000002</ele>
        <time>2010-02-06T18:08:35Z</time>
      </trkpt>
      <trkpt lat="47.496090028434992" lon="18.986937012523413">
        <ele>402.57600000000002</ele>
        <time>2010-02-06T18:08:37Z</time>
      </trkpt>
      <trkpt lat="47.496048035100102" lon="18.986895019188523">
        <ele>402.39100000000002</ele>
        <time>2010-02-06T18:08:39Z</time>
      </trkpt>
      <trkpt lat="47.496006041765213" lon="18.986855959519744">
        <ele>402.09100000000001</ele>
        <time>2010-02-06T18:08:41Z</time>
      </trkpt>
      <trkpt lat="47.495934041216969" lon="18.986812038347125">
        <ele>402.41899999999998</ele>
        <time>2010-02-06T18:08:43Z</time>
      </trkpt>
      <trkpt lat="47.495892969891429" lon="18.986789993941784">
        <ele>402.50299999999999</ele>
        <time>2010-02-06T18:08:44Z</time>
      </trkpt>
      <trkpt lat="47.495858017355204" lon="18.986774990335107">
        <ele>402.42200000000003</ele>
        <time>2010-02-06T18:08:45Z</time>
      </trkpt>
      <trkpt lat="47.495793979614973" lon="18.986779013648629">
        <ele>402.25200000000001</ele>
        <time>2010-02-06T18:08:47Z</time>
      </trkpt>
      <trkpt lat="47.495760032907128" lon="18.986787982285023">
        <ele>401.73700000000002</ele>
        <time>2010-02-06T18:08:49Z</time>
      </trkpt>
      <trkpt lat="47.495707981288433" lon="18.986801980063319">
        <ele>402.303</ele>
        <time>2010-02-06T18:08:52Z</time>
      </trkpt>
      <trkpt lat="47.495662970468402" lon="18.986853025853634">
        <ele>402.226</ele>
        <time>2010-02-06T18:08:55Z</time>
      </trkpt>
      <trkpt lat="47.495617037639022" lon="18.986901976168156">
        <ele>402.74099999999999</ele>
        <time>2010-02-06T18:08:58Z</time>
      </trkpt>
      <trkpt lat="47.495591975748539" lon="18.986956039443612">
        <ele>403.238</ele>
        <time>2010-02-06T18:09:01Z</time>
      </trkpt>
      <trkpt lat="47.495560040697455" lon="18.986991997808218">
        <ele>404.28399999999999</ele>
        <time>2010-02-06T18:09:04Z</time>
      </trkpt>
      <trkpt lat="47.495526010170579" lon="18.987028962001204">
        <ele>404.64999999999998</ele>
        <time>2010-02-06T18:09:07Z</time>
      </trkpt>
      <trkpt lat="47.495502037927508" lon="18.987077996134758">
        <ele>404.79399999999998</ele>
        <time>2010-02-06T18:09:10Z</time>
      </trkpt>
      <trkpt lat="47.495488962158561" lon="18.987127030268312">
        <ele>405.96100000000001</ele>
        <time>2010-02-06T18:09:13Z</time>
      </trkpt>
      <trkpt lat="47.495473958551884" lon="18.987187966704369">
        <ele>407.625</ele>
        <time>2010-02-06T18:09:17Z</time>
      </trkpt>
      <trkpt lat="47.495447974652052" lon="18.987223003059626">
        <ele>408.97300000000001</ele>
        <time>2010-02-06T18:09:21Z</time>
      </trkpt>
      <trkpt lat="47.495416961610317" lon="18.98725301027298">
        <ele>409.88299999999998</ele>
        <time>2010-02-06T18:09:26Z</time>
      </trkpt>
      <trkpt lat="47.49539902433753" lon="18.987312018871307">
        <ele>410.40300000000002</ele>
        <time>2010-02-06T18:09:32Z</time>
      </trkpt>
      <trkpt lat="47.495376979932189" lon="18.987386031076312">
        <ele>412.12599999999998</ele>
        <time>2010-02-06T18:09:38Z</time>
      </trkpt>
      <trkpt lat="47.49535895884037" lon="18.987434981390834">
        <ele>412.34699999999998</ele>
        <time>2010-02-06T18:09:42Z</time>
      </trkpt>
      <trkpt lat="47.495343033224344" lon="18.987487033009529">
        <ele>412.63600000000002</ele>
        <time>2010-02-06T18:09:48Z</time>
      </trkpt>
      <trkpt lat="47.49531202018261" lon="18.987539000809193">
        <ele>414.125</ele>
        <time>2010-02-06T18:09:54Z</time>
      </trkpt>
      <trkpt lat="47.49529299326241" lon="18.987605972215533">
        <ele>415.06900000000002</ele>
        <time>2010-02-06T18:10:00Z</time>
      </trkpt>
      <trkpt lat="47.49527296051383" lon="18.987672021612525">
        <ele>416.33499999999998</ele>
        <time>2010-02-06T18:10:07Z</time>
      </trkpt>
      <trkpt lat="47.495244964957237" lon="18.987736981362104">
        <ele>418.17899999999997</ele>
        <time>2010-02-06T18:10:13Z</time>
      </trkpt>
      <trkpt lat="47.495219986885786" lon="18.987781992182136">
        <ele>419.404</ele>
        <time>2010-02-06T18:10:17Z</time>
      </trkpt>
      <trkpt lat="47.495168019086123" lon="18.987788027152419">
        <ele>420.76999999999998</ele>
        <time>2010-02-06T18:10:25Z</time>
      </trkpt>
      <trkpt lat="47.495143041014671" lon="18.987815016880631">
        <ele>421.13400000000001</ele>
        <time>2010-02-06T18:10:28Z</time>
      </trkpt>
      <trkpt lat="47.495117979124188" lon="18.987849969416857">
        <ele>421.42399999999998</ele>
        <time>2010-02-06T18:10:31Z</time>
      </trkpt>
      <trkpt lat="47.49507699161768" lon="18.987868996337056">
        <ele>422.041</ele>
        <time>2010-02-06T18:10:34Z</time>
      </trkpt>
      <trkpt lat="47.495048996061087" lon="18.987880982458591">
        <ele>422.29399999999998</ele>
        <time>2010-02-06T18:10:38Z</time>
      </trkpt>
      <trkpt lat="47.495030974969268" lon="18.987914007157087">
        <ele>423.041</ele>
        <time>2010-02-06T18:10:42Z</time>
      </trkpt>
      <trkpt lat="47.494996022433043" lon="18.987946026027203">
        <ele>422.69400000000002</ele>
        <time>2010-02-06T18:10:45Z</time>
      </trkpt>
      <trkpt lat="47.494960986077785" lon="18.987969998270273">
        <ele>423.05500000000001</ele>
        <time>2010-02-06T18:10:49Z</time>
      </trkpt>
      <trkpt lat="47.494930978864431" lon="18.987977039068937">
        <ele>422.971</ele>
        <time>2010-02-06T18:10:53Z</time>
      </trkpt>
      <trkpt lat="47.494865013286471" lon="18.988010985776782">
        <ele>422.863</ele>
        <time>2010-02-06T18:11:00Z</time>
      </trkpt>
      <trkpt lat="47.494813967496157" lon="18.988035041838884">
        <ele>424.02699999999999</ele>
        <time>2010-02-06T18:11:04Z</time>
      </trkpt>
      <trkpt lat="47.494786977767944" lon="18.988043004646897">
        <ele>425.702</ele>
        <time>2010-02-06T18:11:06Z</time>
      </trkpt>
      <trkpt lat="47.494752025231719" lon="18.988053984940052">
        <ele>426.19099999999997</ele>
        <time>2010-02-06T18:11:10Z</time>
      </trkpt>
      <trkpt lat="47.494729980826378" lon="18.988009979948401">
        <ele>426.52199999999999</ele>
        <time>2010-02-06T18:11:15Z</time>
      </trkpt>
      <trkpt lat="47.49471397139132" lon="18.987968992441893">
        <ele>427.56</ele>
        <time>2010-02-06T18:11:23Z</time>
      </trkpt>
      <trkpt lat="47.494688993319869" lon="18.987936973571777">
        <ele>428.91500000000002</ele>
        <time>2010-02-06T18:11:27Z</time>
      </trkpt>
      <trkpt lat="47.494677007198334" lon="18.987900009378791">
        <ele>430.33699999999999</ele>
        <time>2010-02-06T18:11:31Z</time>
      </trkpt>
      <trkpt lat="47.494688993319869" lon="18.987853992730379">
        <ele>431.20999999999998</ele>
        <time>2010-02-06T18:11:34Z</time>
      </trkpt>
      <trkpt lat="47.49468999914825" lon="18.987788027152419">
        <ele>431.536</ele>
        <time>2010-02-06T18:11:38Z</time>
      </trkpt>
      <trkpt lat="47.49468999914825" lon="18.987730024382472">
        <ele>431.488</ele>
        <time>2010-02-06T18:11:42Z</time>
      </trkpt>
      <trkpt lat="47.494702991098166" lon="18.987693982198834">
        <ele>432.04700000000003</ele>
        <time>2010-02-06T18:11:46Z</time>
      </trkpt>
      <trkpt lat="47.494723023846745" lon="18.987656012177467">
        <ele>432.24900000000002</ele>
        <time>2010-02-06T18:11:50Z</time>
      </trkpt>
      <trkpt lat="47.494738027453423" lon="18.987607983872294">
        <ele>434.12799999999999</ele>
        <time>2010-02-06T18:11:54Z</time>
      </trkpt>
      <trkpt lat="47.494723023846745" lon="18.987562973052263">
        <ele>434.55399999999997</ele>
        <time>2010-02-06T18:11:57Z</time>
      </trkpt>
      <trkpt lat="47.494681030511856" lon="18.987507987767458">
        <ele>435.36900000000003</ele>
        <time>2010-02-06T18:12:00Z</time>
      </trkpt>
      <trkpt lat="47.49464699998498" lon="18.98746901191771">
        <ele>435.041</ele>
        <time>2010-02-06T18:12:02Z</time>
      </trkpt>
      <trkpt lat="47.494612969458103" lon="18.98742500692606">
        <ele>436.05399999999997</ele>
        <time>2010-02-06T18:12:05Z</time>
      </trkpt>
      <trkpt lat="47.49458103440702" lon="18.987388964742422">
        <ele>436.41000000000003</ele>
        <time>2010-02-06T18:12:08Z</time>
      </trkpt>
      <trkpt lat="47.494551027193666" lon="18.987298021093011">
        <ele>436.33600000000001</ele>
        <time>2010-02-06T18:13:23Z</time>
      </trkpt>
      <trkpt lat="47.494788486510515" lon="18.98699602112174"/>
      <trkpt lat="47.494896361604333" lon="18.98662612773478"/>
      <trkpt lat="47.494932236149907" lon="18.986282553523779"/>
      <trkpt lat="47.495022090151906" lon="18.986018355935812"/>
      <trkpt lat="47.495129881426692" lon="18.985674865543842"/>
      <trkpt lat="47.495219735428691" lon="18.985410584136844"/>
      <trkpt lat="47.495345463976264" lon="18.985119983553886"/>
      <trkpt lat="47.495327526703477" lon="18.984776409342885"/>
      <trkpt lat="47.495363485068083" lon="18.984538614749908"/>
      <trkpt lat="47.49545325525105" lon="18.984195124357939"/>
      <trkpt lat="47.495543109253049" lon="18.983983732759953"/>
      <trkpt lat="47.495668837800622" lon="18.983693048357964"/>
      <trkpt lat="47.495866483077407" lon="18.983428850769997"/>
      <trkpt lat="47.495776629075408" lon="18.98321745917201"/>
      <trkpt lat="47.495740754529834" lon="18.98321745917201"/>
      <trkpt lat="47.495614942163229" lon="18.983138166368008"/>
      <trkpt lat="47.495399359613657" lon="18.982926774770021"/>
      <trkpt lat="47.495255609974265" lon="18.982741869986057"/>
      <trkpt lat="47.495237672701478" lon="18.982741869986057"/>
      <trkpt lat="47.4949861317873" lon="18.982662577182055"/>
      <trkpt lat="47.494968194514513" lon="18.982636174187064"/>
      <trkpt lat="47.494806507602334" lon="18.982583284378052"/>
      <trkpt lat="47.494611963629723" lon="18.982430985197425">
        <ele>457.18099999999998</ele>
        <time>2010-02-06T18:16:22Z</time>
      </trkpt>
      <trkpt lat="47.494631996378303" lon="18.982373988255858">
        <ele>458.02300000000002</ele>
        <time>2010-02-06T18:16:24Z</time>
      </trkpt>
      <trkpt lat="47.494638031348586" lon="18.98231296800077">
        <ele>457.779</ele>
        <time>2010-02-06T18:16:26Z</time>
      </trkpt>
      <trkpt lat="47.494643982499838" lon="18.982259994372725">
        <ele>457.90800000000002</ele>
        <time>2010-02-06T18:16:28Z</time>
      </trkpt>
      <trkpt lat="47.494649011641741" lon="18.98220500908792">
        <ele>458.10700000000003</ele>
        <time>2010-02-06T18:16:30Z</time>
      </trkpt>
      <trkpt lat="47.494658986106515" lon="18.982133008539677">
        <ele>458.37</ele>
        <time>2010-02-06T18:16:33Z</time>
      </trkpt>
      <trkpt lat="47.494666026905179" lon="18.982068970799446">
        <ele>458.505</ele>
        <time>2010-02-06T18:16:36Z</time>
      </trkpt>
      <trkpt lat="47.494677007198334" lon="18.982023037970066">
        <ele>458.798</ele>
        <time>2010-02-06T18:16:38Z</time>
      </trkpt>
      <trkpt lat="47.494673989713192" lon="18.981972998008132">
        <ele>458.79300000000001</ele>
        <time>2010-02-06T18:16:40Z</time>
      </trkpt>
      <trkpt lat="47.494682958349586" lon="18.981924969702959">
        <ele>458.92700000000002</ele>
        <time>2010-02-06T18:16:42Z</time>
      </trkpt>
      <trkpt lat="47.494682958349586" lon="18.981878031045198">
        <ele>459.64699999999999</ele>
        <time>2010-02-06T18:16:44Z</time>
      </trkpt>
      <trkpt lat="47.494688993319869" lon="18.981832014396787">
        <ele>459.50299999999999</ele>
        <time>2010-02-06T18:16:46Z</time>
      </trkpt>
      <trkpt lat="47.494700979441404" lon="18.981789015233517">
        <ele>460.19999999999999</ele>
        <time>2010-02-06T18:16:48Z</time>
      </trkpt>
      <trkpt lat="47.494707014411688" lon="18.981729000806808">
        <ele>461.00900000000001</ele>
        <time>2010-02-06T18:16:51Z</time>
      </trkpt>
      <trkpt lat="47.494708020240068" lon="18.98166798055172">
        <ele>461.72000000000003</ele>
        <time>2010-02-06T18:16:54Z</time>
      </trkpt>
      <trkpt lat="47.494711959734559" lon="18.981606960296631">
        <ele>461.798</ele>
        <time>2010-02-06T18:16:57Z</time>
      </trkpt>
      <trkpt lat="47.494728974997997" lon="18.981549041345716">
        <ele>462.11399999999998</ele>
        <time>2010-02-06T18:17:00Z</time>
      </trkpt>
      <trkpt lat="47.494763005524874" lon="18.981499001383781">
        <ele>462.50200000000001</ele>
        <time>2010-02-06T18:17:03Z</time>
      </trkpt>
      <trkpt lat="47.494804998859763" lon="18.98145399056375">
        <ele>462.68799999999999</ele>
        <time>2010-02-06T18:17:06Z</time>
      </trkpt>
      <trkpt lat="47.494821008294821" lon="18.981389030814171">
        <ele>462.51400000000001</ele>
        <time>2010-02-06T18:17:09Z</time>
      </trkpt>
      <trkpt lat="47.494830982759595" lon="18.981346031650901">
        <ele>462.80700000000002</ele>
        <time>2010-02-06T18:17:11Z</time>
      </trkpt>
      <trkpt lat="47.494853027164936" lon="18.981307977810502">
        <ele>463.28899999999999</ele>
        <time>2010-02-06T18:17:13Z</time>
      </trkpt>
      <trkpt lat="47.494874987751245" lon="18.981248969212174">
        <ele>463.32799999999997</ele>
        <time>2010-02-06T18:17:16Z</time>
      </trkpt>
      <trkpt lat="47.494898037984967" lon="18.981197001412511">
        <ele>463.31299999999999</ele>
        <time>2010-02-06T18:17:19Z</time>
      </trkpt>
      <trkpt lat="47.494898037984967" lon="18.981156013906002">
        <ele>463.55799999999999</ele>
        <time>2010-02-06T18:17:21Z</time>
      </trkpt>
      <trkpt lat="47.494903989136219" lon="18.98108996450901">
        <ele>463.49400000000003</ele>
        <time>2010-02-06T18:17:24Z</time>
      </trkpt>
      <trkpt lat="47.494899965822697" lon="18.981039002537727">
        <ele>464.029</ele>
        <time>2010-02-06T18:17:26Z</time>
      </trkpt>
      <trkpt lat="47.494901977479458" lon="18.980991980060935">
        <ele>464.762</ele>
        <time>2010-02-06T18:17:28Z</time>
      </trkpt>
      <trkpt lat="47.494894014671445" lon="18.980926014482975">
        <ele>464.69400000000002</ele>
        <time>2010-02-06T18:17:31Z</time>
      </trkpt>
      <trkpt lat="47.494900971651077" lon="18.980883015319705">
        <ele>464.77300000000002</ele>
        <time>2010-02-06T18:17:33Z</time>
      </trkpt>
      <trkpt lat="47.494921004399657" lon="18.980841021984816">
        <ele>464.44</ele>
        <time>2010-02-06T18:17:35Z</time>
      </trkpt>
      <trkpt lat="47.494939025491476" lon="18.980800034478307">
        <ele>464.70299999999997</ele>
        <time>2010-02-06T18:17:37Z</time>
      </trkpt>
      <trkpt lat="47.494959980249405" lon="18.980743959546089">
        <ele>465.065</ele>
        <time>2010-02-06T18:17:40Z</time>
      </trkpt>
      <trkpt lat="47.494955034926534" lon="18.980697020888329">
        <ele>465.55799999999999</ele>
        <time>2010-02-06T18:17:42Z</time>
      </trkpt>
      <trkpt lat="47.494967021048069" lon="18.980654021725059">
        <ele>465.67399999999998</ele>
        <time>2010-02-06T18:17:44Z</time>
      </trkpt>
      <trkpt lat="47.494981018826365" lon="18.980614962056279">
        <ele>465.56999999999999</ele>
        <time>2010-02-06T18:17:46Z</time>
      </trkpt>
      <trkpt lat="47.49499099329114" lon="18.980548996478319">
        <ele>466.21499999999997</ele>
        <time>2010-02-06T18:17:49Z</time>
      </trkpt>
      <trkpt lat="47.495001973584294" lon="18.98048403672874">
        <ele>466.59399999999999</ele>
        <time>2010-02-06T18:17:52Z</time>
      </trkpt>
      <trkpt lat="47.495002979412675" lon="18.980414969846606">
        <ele>467.36399999999998</ele>
        <time>2010-02-06T18:17:55Z</time>
      </trkpt>
      <trkpt lat="47.495022006332874" lon="18.980355961248279">
        <ele>467.65100000000001</ele>
        <time>2010-02-06T18:17:58Z</time>
      </trkpt>
      <trkpt lat="47.495046984404325" lon="18.980320002883673">
        <ele>467.49000000000001</ele>
        <time>2010-02-06T18:18:00Z</time>
      </trkpt>
      <trkpt lat="47.495062993839383" lon="18.980280021205544">
        <ele>467.98700000000002</ele>
        <time>2010-02-06T18:18:02Z</time>
      </trkpt>
      <trkpt lat="47.495066011324525" lon="18.980232998728752">
        <ele>467.87299999999999</ele>
        <time>2010-02-06T18:18:04Z</time>
      </trkpt>
      <trkpt lat="47.495079003274441" lon="18.980192011222243">
        <ele>467.90899999999999</ele>
        <time>2010-02-06T18:18:06Z</time>
      </trkpt>
      <trkpt lat="47.49509702436626" lon="18.980131996795535">
        <ele>468.33999999999997</ele>
        <time>2010-02-06T18:18:09Z</time>
      </trkpt>
      <trkpt lat="47.495088977739215" lon="18.98007801733911">
        <ele>468.923</ele>
        <time>2010-02-06T18:18:11Z</time>
      </trkpt>
      <trkpt lat="47.495096018537879" lon="18.980032000690699">
        <ele>468.65800000000002</ele>
        <time>2010-02-06T18:18:13Z</time>
      </trkpt>
      <trkpt lat="47.495099036023021" lon="18.979984978213906">
        <ele>469.59899999999999</ele>
        <time>2010-02-06T18:18:15Z</time>
      </trkpt>
      <trkpt lat="47.495102975517511" lon="18.979914989322424">
        <ele>469.18799999999999</ele>
        <time>2010-02-06T18:18:18Z</time>
      </trkpt>
      <trkpt lat="47.495105993002653" lon="18.979867966845632">
        <ele>469.572</ele>
        <time>2010-02-06T18:18:20Z</time>
      </trkpt>
      <trkpt lat="47.495115967467427" lon="18.97979998961091">
        <ele>470.07999999999998</ele>
        <time>2010-02-06T18:18:23Z</time>
      </trkpt>
      <trkpt lat="47.495125019922853" lon="18.97975699044764">
        <ele>468.91899999999998</ele>
        <time>2010-02-06T18:18:25Z</time>
      </trkpt>
      <trkpt lat="47.495131976902485" lon="18.97971399128437">
        <ele>469.93599999999998</ele>
        <time>2010-02-06T18:18:27Z</time>
      </trkpt>
      <trkpt lat="47.495138011872768" lon="18.979667974635959">
        <ele>469.959</ele>
        <time>2010-02-06T18:18:29Z</time>
      </trkpt>
      <trkpt lat="47.495146980509162" lon="18.97960502654314">
        <ele>469.846</ele>
        <time>2010-02-06T18:18:32Z</time>
      </trkpt>
      <trkpt lat="47.495142035186291" lon="18.97954098880291">
        <ele>469.899</ele>
        <time>2010-02-06T18:18:35Z</time>
      </trkpt>
      <trkpt lat="47.495147986337543" lon="18.97947896271944">
        <ele>470.40600000000001</ele>
        <time>2010-02-06T18:18:38Z</time>
      </trkpt>
      <trkpt lat="47.495154021307826" lon="18.979418026283383">
        <ele>470.04199999999997</ele>
        <time>2010-02-06T18:18:41Z</time>
      </trkpt>
      <trkpt lat="47.495168019086123" lon="18.979358011856675">
        <ele>471.40899999999999</ele>
        <time>2010-02-06T18:18:44Z</time>
      </trkpt>
      <trkpt lat="47.495172964408994" lon="18.979296991601586">
        <ele>471.76799999999997</ele>
        <time>2010-02-06T18:18:47Z</time>
      </trkpt>
      <trkpt lat="47.495174976065755" lon="18.979234965518117">
        <ele>472.46600000000001</ele>
        <time>2010-02-06T18:18:50Z</time>
      </trkpt>
      <trkpt lat="47.495170030742884" lon="18.979187021031976">
        <ele>472.75299999999999</ele>
        <time>2010-02-06T18:18:53Z</time>
      </trkpt>
      <trkpt lat="47.495128959417343" lon="18.979138992726803">
        <ele>472.77499999999998</ele>
        <time>2010-02-06T18:19:00Z</time>
      </trkpt>
      <trkpt lat="47.495099036023021" lon="18.979104962199926">
        <ele>473.27300000000002</ele>
        <time>2010-02-06T18:19:02Z</time>
      </trkpt>
      <trkpt lat="47.495071962475777" lon="18.979077972471714">
        <ele>473.42399999999998</ele>
        <time>2010-02-06T18:19:04Z</time>
      </trkpt>
      <trkpt lat="47.495044972747564" lon="18.979043019935489">
        <ele>473.16199999999998</ele>
        <time>2010-02-06T18:19:06Z</time>
      </trkpt>
      <trkpt lat="47.49501102603972" lon="18.97900303825736">
        <ele>473.31299999999999</ele>
        <time>2010-02-06T18:19:08Z</time>
      </trkpt>
      <trkpt lat="47.494981018826365" lon="18.978976970538497">
        <ele>474.12599999999998</ele>
        <time>2010-02-06T18:19:10Z</time>
      </trkpt>
      <trkpt lat="47.494956962764263" lon="18.978948974981904">
        <ele>473.92099999999999</ele>
        <time>2010-02-06T18:19:12Z</time>
      </trkpt>
      <trkpt lat="47.494933996349573" lon="18.978914022445679">
        <ele>473.66899999999998</ele>
        <time>2010-02-06T18:19:14Z</time>
      </trkpt>
      <trkpt lat="47.49490600079298" lon="18.97887303493917">
        <ele>474.15499999999997</ele>
        <time>2010-02-06T18:19:17Z</time>
      </trkpt>
      <trkpt lat="47.494868030771613" lon="18.978826012462378">
        <ele>474.923</ele>
        <time>2010-02-06T18:19:20Z</time>
      </trkpt>
      <trkpt lat="47.494843974709511" lon="18.978778989985585">
        <ele>474.786</ele>
        <time>2010-02-06T18:19:23Z</time>
      </trkpt>
      <trkpt lat="47.494828971102834" lon="18.978735990822315">
        <ele>474.26499999999999</ele>
        <time>2010-02-06T18:19:25Z</time>
      </trkpt>
      <trkpt lat="47.494806004688144" lon="18.978692991659045">
        <ele>474.73200000000003</ele>
        <time>2010-02-06T18:19:27Z</time>
      </trkpt>
      <trkpt lat="47.494771974161267" lon="18.978652004152536">
        <ele>474.85700000000003</ele>
        <time>2010-02-06T18:19:30Z</time>
      </trkpt>
      <trkpt lat="47.494735009968281" lon="18.978606993332505">
        <ele>475.26100000000002</ele>
        <time>2010-02-06T18:19:33Z</time>
      </trkpt>
      <trkpt lat="47.494697039946914" lon="18.978564999997616">
        <ele>475.40800000000002</ele>
        <time>2010-02-06T18:19:36Z</time>
      </trkpt>
      <trkpt lat="47.494660997763276" lon="18.978529963642359">
        <ele>474.64800000000002</ele>
        <time>2010-02-06T18:19:39Z</time>
      </trkpt>
      <trkpt lat="47.49462403357029" lon="18.978474978357553">
        <ele>475.50900000000001</ele>
        <time>2010-02-06T18:19:42Z</time>
      </trkpt>
      <trkpt lat="47.494590003043413" lon="18.978427033871412">
        <ele>475.17899999999997</ele>
        <time>2010-02-06T18:19:45Z</time>
      </trkpt>
      <trkpt lat="47.494553038850427" lon="18.978382023051381">
        <ele>475.44299999999998</ele>
        <time>2010-02-06T18:19:48Z</time>
      </trkpt>
      <trkpt lat="47.494527976959944" lon="18.978347992524505">
        <ele>475.262</ele>
        <time>2010-02-06T18:19:50Z</time>
      </trkpt>
      <trkpt lat="47.494490006938577" lon="18.978301975876093">
        <ele>475.54199999999997</ele>
        <time>2010-02-06T18:19:53Z</time>
      </trkpt>
      <trkpt lat="47.494451031088829" lon="18.978261994197965">
        <ele>475.666</ele>
        <time>2010-02-06T18:19:56Z</time>
      </trkpt>
      <trkpt lat="47.49440903775394" lon="18.978222012519836">
        <ele>475.24200000000002</ele>
        <time>2010-02-06T18:19:59Z</time>
      </trkpt>
      <trkpt lat="47.494367966428399" lon="18.978178007528186">
        <ele>475.447</ele>
        <time>2010-02-06T18:20:02Z</time>
      </trkpt>
      <trkpt lat="47.494335025548935" lon="18.978135008364916">
        <ele>475.43599999999998</ele>
        <time>2010-02-06T18:20:04Z</time>
      </trkpt>
      <trkpt lat="47.494306024163961" lon="18.978093015030026">
        <ele>475.25799999999998</ele>
        <time>2010-02-06T18:20:06Z</time>
      </trkpt>
      <trkpt lat="47.494278028607368" lon="18.978040963411331">
        <ele>475.77800000000002</ele>
        <time>2010-02-06T18:20:08Z</time>
      </trkpt>
      <trkpt lat="47.494251960888505" lon="18.977996036410332">
        <ele>475.49599999999998</ele>
        <time>2010-02-06T18:20:10Z</time>
      </trkpt>
      <trkpt lat="47.494228994473815" lon="18.977938033640385">
        <ele>475.67200000000003</ele>
        <time>2010-02-06T18:20:12Z</time>
      </trkpt>
      <trkpt lat="47.494209967553616" lon="18.977881036698818">
        <ele>475.34100000000001</ele>
        <time>2010-02-06T18:20:14Z</time>
      </trkpt>
      <trkpt lat="47.494198987260461" lon="18.977815993130207">
        <ele>475.82100000000003</ele>
        <time>2010-02-06T18:20:16Z</time>
      </trkpt>
      <trkpt lat="47.494177026674151" lon="18.977659000083804">
        <ele>475.358</ele>
        <time>2010-02-06T18:20:21Z</time>
      </trkpt>
      <trkpt lat="47.494179038330913" lon="18.977590017020702">
        <ele>475.61099999999999</ele>
        <time>2010-02-06T18:20:23Z</time>
      </trkpt>
      <trkpt lat="47.494184989482164" lon="18.977555986493826">
        <ele>475.80099999999999</ele>
        <time>2010-02-06T18:20:24Z</time>
      </trkpt>
      <trkpt lat="47.494193958118558" lon="18.977482980117202">
        <ele>475.80099999999999</ele>
        <time>2010-02-06T18:20:26Z</time>
      </trkpt>
      <trkpt lat="47.494206028059125" lon="18.977417014539242">
        <ele>476.12</ele>
        <time>2010-02-06T18:20:28Z</time>
      </trkpt>
      <trkpt lat="47.49421700835228" lon="18.977382984012365">
        <ele>476.53300000000002</ele>
        <time>2010-02-06T18:20:29Z</time>
      </trkpt>
      <trkpt lat="47.494232011958957" lon="18.977317018434405">
        <ele>476.53300000000002</ele>
        <time>2010-02-06T18:20:31Z</time>
      </trkpt>
      <trkpt lat="47.494248021394014" lon="18.977253986522555">
        <ele>476.41300000000001</ele>
        <time>2010-02-06T18:20:33Z</time>
      </trkpt>
      <trkpt lat="47.494276016950607" lon="18.977204030379653">
        <ele>477.19999999999999</ele>
        <time>2010-02-06T18:20:35Z</time>
      </trkpt>
      <trkpt lat="47.494295965880156" lon="18.977150972932577">
        <ele>476.93700000000001</ele>
        <time>2010-02-06T18:20:37Z</time>
      </trkpt>
      <trkpt lat="47.494314992800355" lon="18.977102022618055">
        <ele>476.62700000000001</ele>
        <time>2010-02-06T18:20:39Z</time>
      </trkpt>
      <trkpt lat="47.49434600584209" lon="18.977051982656121">
        <ele>477.024</ele>
        <time>2010-02-06T18:20:41Z</time>
      </trkpt>
      <trkpt lat="47.494377018883824" lon="18.977002026513219">
        <ele>476.98399999999998</ele>
        <time>2010-02-06T18:20:43Z</time>
      </trkpt>
      <trkpt lat="47.494394034147263" lon="18.976949974894524">
        <ele>477.072</ele>
        <time>2010-02-06T18:20:45Z</time>
      </trkpt>
      <trkpt lat="47.494417000561953" lon="18.976905969902873">
        <ele>476.46100000000001</ele>
        <time>2010-02-06T18:20:47Z</time>
      </trkpt>
      <trkpt lat="47.494446001946926" lon="18.976864982396364">
        <ele>476.60899999999998</ele>
        <time>2010-02-06T18:20:49Z</time>
      </trkpt>
      <trkpt lat="47.494478020817041" lon="18.976827012374997">
        <ele>476.779</ele>
        <time>2010-02-06T18:20:51Z</time>
      </trkpt>
      <trkpt lat="47.494510039687157" lon="18.976776972413063">
        <ele>476.59800000000001</ele>
        <time>2010-02-06T18:20:53Z</time>
      </trkpt>
      <trkpt lat="47.49454096890986" lon="18.976729027926922">
        <ele>476.06999999999999</ele>
        <time>2010-02-06T18:20:55Z</time>
      </trkpt>
      <trkpt lat="47.494571981951594" lon="18.976697009056807">
        <ele>476.20100000000002</ele>
        <time>2010-02-06T18:20:57Z</time>
      </trkpt>
      <trkpt lat="47.494608024135232" lon="18.976669013500214">
        <ele>476.137</ele>
        <time>2010-02-06T18:21:00Z</time>
      </trkpt>
      <trkpt lat="47.494640965014696" lon="18.976634982973337">
        <ele>476.62099999999998</ele>
        <time>2010-02-06T18:21:02Z</time>
      </trkpt>
      <trkpt lat="47.494665021076798" lon="18.976605981588364">
        <ele>477.04700000000003</ele>
        <time>2010-02-06T18:21:04Z</time>
      </trkpt>
      <trkpt lat="47.494701985269785" lon="18.976569017395377">
        <ele>477.053</ele>
        <time>2010-02-06T18:21:06Z</time>
      </trkpt>
      <trkpt lat="47.494749007746577" lon="18.97653297521174">
        <ele>477.02999999999997</ele>
        <time>2010-02-06T18:21:08Z</time>
      </trkpt>
      <trkpt lat="47.494781026616693" lon="18.976501962170005">
        <ele>476.87900000000002</ele>
        <time>2010-02-06T18:21:10Z</time>
      </trkpt>
      <trkpt lat="47.494822014123201" lon="18.976466003805399">
        <ele>476.44200000000001</ele>
        <time>2010-02-06T18:21:12Z</time>
      </trkpt>
      <trkpt lat="47.494857972487807" lon="18.97642401047051">
        <ele>476.91500000000002</ele>
        <time>2010-02-06T18:21:14Z</time>
      </trkpt>
      <trkpt lat="47.494898037984967" lon="18.97638201713562">
        <ele>476.78300000000002</ele>
        <time>2010-02-06T18:21:16Z</time>
      </trkpt>
      <trkpt lat="47.494931984692812" lon="18.97633901797235">
        <ele>477.31700000000001</ele>
        <time>2010-02-06T18:21:18Z</time>
      </trkpt>
      <trkpt lat="47.494972972199321" lon="18.976299958303571">
        <ele>476.923</ele>
        <time>2010-02-06T18:21:20Z</time>
      </trkpt>
      <trkpt lat="47.495010020211339" lon="18.976261988282204">
        <ele>477.06099999999998</ele>
        <time>2010-02-06T18:21:22Z</time>
      </trkpt>
      <trkpt lat="47.495059976354241" lon="18.976221000775695">
        <ele>476.93599999999998</ele>
        <time>2010-02-06T18:21:24Z</time>
      </trkpt>
      <trkpt lat="47.495090989395976" lon="18.976182024925947">
        <ele>477.06599999999997</ele>
        <time>2010-02-06T18:21:26Z</time>
      </trkpt>
      <trkpt lat="47.495138011872768" lon="18.976140031591058">
        <ele>477.06200000000001</ele>
        <time>2010-02-06T18:21:28Z</time>
      </trkpt>
      <trkpt lat="47.495182016864419" lon="18.976096026599407">
        <ele>476.77300000000002</ele>
        <time>2010-02-06T18:21:30Z</time>
      </trkpt>
      <trkpt lat="47.49522602185607" lon="18.976051015779376">
        <ele>476.67399999999998</ele>
        <time>2010-02-06T18:21:32Z</time>
      </trkpt>
      <trkpt lat="47.495272038504481" lon="18.9760169852525">
        <ele>477.12900000000002</ele>
        <time>2010-02-06T18:21:34Z</time>
      </trkpt>
      <trkpt lat="47.495306991040707" lon="18.975983960554004">
        <ele>476.90199999999999</ele>
        <time>2010-02-06T18:21:36Z</time>
      </trkpt>
      <trkpt lat="47.495350996032357" lon="18.975942973047495">
        <ele>477.262</ele>
        <time>2010-02-06T18:21:38Z</time>
      </trkpt>
      <trkpt lat="47.495390977710485" lon="18.975901985540986">
        <ele>477.24200000000002</ele>
        <time>2010-02-06T18:21:40Z</time>
      </trkpt>
      <trkpt lat="47.495425008237362" lon="18.975860998034477">
        <ele>476.80900000000003</ele>
        <time>2010-02-06T18:21:42Z</time>
      </trkpt>
      <trkpt lat="47.495458032935858" lon="18.97582202218473">
        <ele>477.233</ele>
        <time>2010-02-06T18:21:44Z</time>
      </trkpt>
      <trkpt lat="47.495493991300464" lon="18.97578296251595">
        <ele>477.173</ele>
        <time>2010-02-06T18:21:46Z</time>
      </trkpt>
      <trkpt lat="47.495534978806973" lon="18.975744992494583">
        <ele>477.82999999999998</ele>
        <time>2010-02-06T18:21:48Z</time>
      </trkpt>
      <trkpt lat="47.495563980191946" lon="18.975714985281229">
        <ele>477.54000000000002</ele>
        <time>2010-02-06T18:21:50Z</time>
      </trkpt>
      <trkpt lat="47.495604967698455" lon="18.975681038573384">
        <ele>477.51999999999998</ele>
        <time>2010-02-06T18:21:52Z</time>
      </trkpt>
      <trkpt lat="47.495655007660389" lon="18.975639967247844">
        <ele>477.452</ele>
        <time>2010-02-06T18:21:54Z</time>
      </trkpt>
      <trkpt lat="47.495695995166898" lon="18.975611971691251">
        <ele>477.90699999999998</ele>
        <time>2010-02-06T18:21:56Z</time>
      </trkpt>
      <trkpt lat="47.49572197906673" lon="18.975577019155025">
        <ele>477.33999999999997</ele>
        <time>2010-02-06T18:21:58Z</time>
      </trkpt>
      <trkpt lat="47.495753997936845" lon="18.975532008334994">
        <ele>477.53300000000002</ele>
        <time>2010-02-06T18:22:00Z</time>
      </trkpt>
      <trkpt lat="47.495794985443354" lon="18.975476017221808">
        <ele>477.59800000000001</ele>
        <time>2010-02-06T18:22:02Z</time>
      </trkpt>
      <trkpt lat="47.495816024020314" lon="18.975406028330326">
        <ele>477.16699999999997</ele>
        <time>2010-02-06T18:22:04Z</time>
      </trkpt>
      <trkpt lat="47.495819963514805" lon="18.975347019731998">
        <ele>477.166</ele>
        <time>2010-02-06T18:22:06Z</time>
      </trkpt>
      <trkpt lat="47.495847959071398" lon="18.975310977548361">
        <ele>476.25</ele>
        <time>2010-02-06T18:22:08Z</time>
      </trkpt>
      <trkpt lat="47.495876960456371" lon="18.975274013355374">
        <ele>476.536</ele>
        <time>2010-02-06T18:22:10Z</time>
      </trkpt>
      <trkpt lat="47.495916020125151" lon="18.975232020020485">
        <ele>476.255</ele>
        <time>2010-02-06T18:22:12Z</time>
      </trkpt>
      <trkpt lat="47.495961030945182" lon="18.975194972008467">
        <ele>476.21499999999997</ele>
        <time>2010-02-06T18:22:14Z</time>
      </trkpt>
      <trkpt lat="47.495993971824646" lon="18.975161025300622">
        <ele>476.81799999999998</ele>
        <time>2010-02-06T18:22:16Z</time>
      </trkpt>
      <trkpt lat="47.496015010401607" lon="18.975125988945365">
        <ele>476.52999999999997</ele>
        <time>2010-02-06T18:22:18Z</time>
      </trkpt>
      <trkpt lat="47.496049040928483" lon="18.975098999217153">
        <ele>476.31299999999999</ele>
        <time>2010-02-06T18:22:20Z</time>
      </trkpt>
      <trkpt lat="47.496081981807947" lon="18.975063962861896">
        <ele>476.61000000000001</ele>
        <time>2010-02-06T18:22:22Z</time>
      </trkpt>
      <trkpt lat="47.496124980971217" lon="18.97502901032567">
        <ele>476.81599999999997</ele>
        <time>2010-02-06T18:22:24Z</time>
      </trkpt>
      <trkpt lat="47.49615197069943" lon="18.975000008940697">
        <ele>477.43799999999999</ele>
        <time>2010-02-06T18:22:26Z</time>
      </trkpt>
      <trkpt lat="47.496190024539828" lon="18.974968995898962">
        <ele>476.858</ele>
        <time>2010-02-06T18:22:28Z</time>
      </trkpt>
      <trkpt lat="47.496222965419292" lon="18.974931025877595">
        <ele>477.76600000000002</ele>
        <time>2010-02-06T18:22:30Z</time>
      </trkpt>
      <trkpt lat="47.496265964582562" lon="18.974893977865577">
        <ele>476.59300000000002</ele>
        <time>2010-02-06T18:22:32Z</time>
      </trkpt>
      <trkpt lat="47.496296977624297" lon="18.974858019500971">
        <ele>477.38299999999998</ele>
        <time>2010-02-06T18:22:34Z</time>
      </trkpt>
      <trkpt lat="47.496330002322793" lon="18.974824994802475">
        <ele>477.67899999999997</ele>
        <time>2010-02-06T18:22:36Z</time>
      </trkpt>
      <trkpt lat="47.496364032849669" lon="18.974788030609488">
        <ele>477.82499999999999</ele>
        <time>2010-02-06T18:22:38Z</time>
      </trkpt>
      <trkpt lat="47.496396973729134" lon="18.974751988425851">
        <ele>477.39299999999997</ele>
        <time>2010-02-06T18:22:40Z</time>
      </trkpt>
      <trkpt lat="47.496423963457346" lon="18.974715024232864">
        <ele>477.30200000000002</ele>
        <time>2010-02-06T18:22:42Z</time>
      </trkpt>
      <trkpt lat="47.4964539706707" lon="18.974674958735704">
        <ele>477.47199999999998</ele>
        <time>2010-02-06T18:22:44Z</time>
      </trkpt>
      <trkpt lat="47.496493030339479" lon="18.974636988714337">
        <ele>477.87299999999999</ele>
        <time>2010-02-06T18:22:46Z</time>
      </trkpt>
      <trkpt lat="47.496533012017608" lon="18.974600024521351">
        <ele>477.48700000000002</ele>
        <time>2010-02-06T18:22:48Z</time>
      </trkpt>
      <trkpt lat="47.496572993695736" lon="18.974569011479616">
        <ele>477.77600000000001</ele>
        <time>2010-02-06T18:22:50Z</time>
      </trkpt>
      <trkpt lat="47.496592020615935" lon="18.97453498095274">
        <ele>476.85599999999999</ele>
        <time>2010-02-06T18:22:52Z</time>
      </trkpt>
      <trkpt lat="47.496620016172528" lon="18.974493993446231">
        <ele>477.75099999999998</ele>
        <time>2010-02-06T18:22:54Z</time>
      </trkpt>
      <trkpt lat="47.496643988415599" lon="18.974460968747735">
        <ele>478.85399999999998</ele>
        <time>2010-02-06T18:22:56Z</time>
      </trkpt>
      <trkpt lat="47.496672989800572" lon="18.974430039525032">
        <ele>477.96699999999998</ele>
        <time>2010-02-06T18:22:58Z</time>
      </trkpt>
      <trkpt lat="47.49670903198421" lon="18.974392991513014">
        <ele>479.32999999999998</ele>
        <time>2010-02-06T18:23:00Z</time>
      </trkpt>
      <trkpt lat="47.496735015884042" lon="18.974354015663266">
        <ele>478.91300000000001</ele>
        <time>2010-02-06T18:23:02Z</time>
      </trkpt>
      <trkpt lat="47.496777009218931" lon="18.974331971257925">
        <ele>478.60300000000001</ele>
        <time>2010-02-06T18:23:04Z</time>
      </trkpt>
      <trkpt lat="47.49681799672544" lon="18.97429802455008">
        <ele>479.04399999999998</ele>
        <time>2010-02-06T18:23:06Z</time>
      </trkpt>
      <trkpt lat="47.496850015595555" lon="18.97425795905292">
        <ele>479.46600000000001</ele>
        <time>2010-02-06T18:23:08Z</time>
      </trkpt>
      <trkpt lat="47.496880022808909" lon="18.974227029830217">
        <ele>479.26900000000001</ele>
        <time>2010-02-06T18:23:10Z</time>
      </trkpt>
      <trkpt lat="47.496925033628941" lon="18.974196016788483">
        <ele>479.22300000000001</ele>
        <time>2010-02-06T18:23:12Z</time>
      </trkpt>
      <trkpt lat="47.496964009478688" lon="18.974157962948084">
        <ele>479.036</ele>
        <time>2010-02-06T18:23:14Z</time>
      </trkpt>
      <trkpt lat="47.497003991156816" lon="18.974116975441575">
        <ele>478.81700000000001</ele>
        <time>2010-02-06T18:23:16Z</time>
      </trkpt>
      <trkpt lat="47.497047996148467" lon="18.974070958793163">
        <ele>479.41000000000003</ele>
        <time>2010-02-06T18:23:18Z</time>
      </trkpt>
      <trkpt lat="47.497095018625259" lon="18.974026031792164">
        <ele>479.84800000000001</ele>
        <time>2010-02-06T18:23:20Z</time>
      </trkpt>
      <trkpt lat="47.497129971161485" lon="18.973989989608526">
        <ele>479.54199999999997</ele>
        <time>2010-02-06T18:23:22Z</time>
      </trkpt>
      <trkpt lat="47.497156960889697" lon="18.973965011537075">
        <ele>479.61599999999999</ele>
        <time>2010-02-06T18:23:24Z</time>
      </trkpt>
      <trkpt lat="47.497185040265322" lon="18.973935004323721">
        <ele>478.96600000000001</ele>
        <time>2010-02-06T18:23:26Z</time>
      </trkpt>
      <trkpt lat="47.497228039428592" lon="18.973898040130734">
        <ele>479.21600000000001</ele>
        <time>2010-02-06T18:23:28Z</time>
      </trkpt>
      <trkpt lat="47.497280007228255" lon="18.973864009603858">
        <ele>478.77699999999999</ele>
        <time>2010-02-06T18:23:30Z</time>
      </trkpt>
      <trkpt lat="47.497319988906384" lon="18.973822016268969">
        <ele>479.00400000000002</ele>
        <time>2010-02-06T18:23:32Z</time>
      </trkpt>
      <trkpt lat="47.497362988069654" lon="18.97378102876246">
        <ele>478.99200000000002</ele>
        <time>2010-02-06T18:23:34Z</time>
      </trkpt>
      <trkpt lat="47.497396012768149" lon="18.973745992407203">
        <ele>478.988</ele>
        <time>2010-02-06T18:23:36Z</time>
      </trkpt>
      <trkpt lat="47.497444963082671" lon="18.973708022385836">
        <ele>479.447</ele>
        <time>2010-02-06T18:23:38Z</time>
      </trkpt>
      <trkpt lat="47.497487962245941" lon="18.973666029050946">
        <ele>480.17200000000003</ele>
        <time>2010-02-06T18:23:40Z</time>
      </trkpt>
      <trkpt lat="47.497515035793185" lon="18.973621018230915">
        <ele>479.97800000000001</ele>
        <time>2010-02-06T18:23:42Z</time>
      </trkpt>
      <trkpt lat="47.497532973065972" lon="18.973585981875658">
        <ele>479.83100000000002</ele>
        <time>2010-02-06T18:23:44Z</time>
      </trkpt>
      <trkpt lat="47.497558034956455" lon="18.973541976884007">
        <ele>479.66000000000003</ele>
        <time>2010-02-06T18:23:46Z</time>
      </trkpt>
      <trkpt lat="47.497585024684668" lon="18.973496966063976">
        <ele>479.846</ele>
        <time>2010-02-06T18:23:48Z</time>
      </trkpt>
      <trkpt lat="47.497631041333079" lon="18.973462013527751">
        <ele>480.46300000000002</ele>
        <time>2010-02-06T18:23:50Z</time>
      </trkpt>
      <trkpt lat="47.497678985819221" lon="18.973424965515733">
        <ele>480.87</ele>
        <time>2010-02-06T18:23:52Z</time>
      </trkpt>
      <trkpt lat="47.497709998860955" lon="18.973395964130759">
        <ele>480.49900000000002</ele>
        <time>2010-02-06T18:23:54Z</time>
      </trkpt>
      <trkpt lat="47.497756015509367" lon="18.973364029079676">
        <ele>480.43900000000002</ele>
        <time>2010-02-06T18:23:56Z</time>
      </trkpt>
      <trkpt lat="47.497797003015876" lon="18.973324969410896">
        <ele>479.93099999999998</ele>
        <time>2010-02-06T18:23:58Z</time>
      </trkpt>
      <trkpt lat="47.497818963602185" lon="18.973286999389529">
        <ele>480.37900000000002</ele>
        <time>2010-02-06T18:24:00Z</time>
      </trkpt>
      <trkpt lat="47.497846959158778" lon="18.97324601188302">
        <ele>480.41199999999998</ele>
        <time>2010-02-06T18:24:02Z</time>
      </trkpt>
      <trkpt lat="47.497877972200513" lon="18.973206030204892">
        <ele>480.38099999999997</ele>
        <time>2010-02-06T18:24:04Z</time>
      </trkpt>
      <trkpt lat="47.497912002727389" lon="18.973164958879352">
        <ele>480.255</ele>
        <time>2010-02-06T18:24:06Z</time>
      </trkpt>
      <trkpt lat="47.497942009940743" lon="18.973123971372843">
        <ele>479.62599999999998</ele>
        <time>2010-02-06T18:24:08Z</time>
      </trkpt>
      <trkpt lat="47.497966988012195" lon="18.973090024664998">
        <ele>480.47800000000001</ele>
        <time>2010-02-06T18:24:10Z</time>
      </trkpt>
      <trkpt lat="47.49799900688231" lon="18.973058005794883">
        <ele>480.44600000000003</ele>
        <time>2010-02-06T18:24:12Z</time>
      </trkpt>
      <trkpt lat="47.498046029359102" lon="18.973021963611245">
        <ele>480.60599999999999</ele>
        <time>2010-02-06T18:24:14Z</time>
      </trkpt>
      <trkpt lat="47.498082993552089" lon="18.972986005246639">
        <ele>481.00700000000001</ele>
        <time>2010-02-06T18:24:16Z</time>
      </trkpt>
      <trkpt lat="47.498115012422204" lon="18.97294401191175">
        <ele>481.01100000000002</ele>
        <time>2010-02-06T18:24:18Z</time>
      </trkpt>
      <trkpt lat="47.498137978836894" lon="18.972903024405241">
        <ele>480.14100000000002</ele>
        <time>2010-02-06T18:24:20Z</time>
      </trkpt>
      <trkpt lat="47.498175026848912" lon="18.972856001928449">
        <ele>480.637</ele>
        <time>2010-02-06T18:24:22Z</time>
      </trkpt>
      <trkpt lat="47.498207967728376" lon="18.972809985280037">
        <ele>481.29399999999998</ele>
        <time>2010-02-06T18:24:24Z</time>
      </trkpt>
      <trkpt lat="47.498240992426872" lon="18.972774026915431">
        <ele>480.73200000000003</ele>
        <time>2010-02-06T18:24:26Z</time>
      </trkpt>
      <trkpt lat="47.498272005468607" lon="18.972734967246652">
        <ele>480.80799999999999</ele>
        <time>2010-02-06T18:24:28Z</time>
      </trkpt>
      <trkpt lat="47.49832103960216" lon="18.972688028588891">
        <ele>480.04899999999998</ele>
        <time>2010-02-06T18:24:30Z</time>
      </trkpt>
      <trkpt lat="47.498364960774779" lon="18.972653998062015">
        <ele>480.36599999999999</ele>
        <time>2010-02-06T18:24:32Z</time>
      </trkpt>
      <trkpt lat="47.498418018221855" lon="18.972613010555506">
        <ele>480.06</ele>
        <time>2010-02-06T18:24:34Z</time>
      </trkpt>
      <trkpt lat="47.498457999899983" lon="18.97258099168539">
        <ele>480.28300000000002</ele>
        <time>2010-02-06T18:24:36Z</time>
      </trkpt>
      <trkpt lat="47.498504016548395" lon="18.972555007785559">
        <ele>479.75400000000002</ele>
        <time>2010-02-06T18:24:38Z</time>
      </trkpt>
      <trkpt lat="47.498534023761749" lon="18.972521983087063">
        <ele>479.649</ele>
        <time>2010-02-06T18:24:40Z</time>
      </trkpt>
      <trkpt lat="47.498553972691298" lon="18.972483007237315">
        <ele>479.44</ele>
        <time>2010-02-06T18:24:42Z</time>
      </trkpt>
      <trkpt lat="47.498589009046555" lon="18.972443025559187">
        <ele>479.90499999999997</ele>
        <time>2010-02-06T18:24:44Z</time>
      </trkpt>
      <trkpt lat="47.498637037351727" lon="18.972402960062027">
        <ele>479.887</ele>
        <time>2010-02-06T18:24:46Z</time>
      </trkpt>
      <trkpt lat="47.498692022636533" lon="18.972361972555518">
        <ele>479.31999999999999</ele>
        <time>2010-02-06T18:24:48Z</time>
      </trkpt>
      <trkpt lat="47.498747007921338" lon="18.972329031676054">
        <ele>479.00200000000001</ele>
        <time>2010-02-06T18:24:50Z</time>
      </trkpt>
      <trkpt lat="47.49879302456975" lon="18.972289972007275">
        <ele>478.81799999999998</ele>
        <time>2010-02-06T18:24:52Z</time>
      </trkpt>
      <trkpt lat="47.498833006247878" lon="18.972242027521133">
        <ele>478.10000000000002</ele>
        <time>2010-02-06T18:24:54Z</time>
      </trkpt>
      <trkpt lat="47.498876005411148" lon="18.972196010872722">
        <ele>478.60000000000002</ele>
        <time>2010-02-06T18:24:56Z</time>
      </trkpt>
      <trkpt lat="47.498911041766405" lon="18.972158040851355">
        <ele>478.11900000000003</ele>
        <time>2010-02-06T18:24:58Z</time>
      </trkpt>
      <trkpt lat="47.498942976817489" lon="18.972117975354195">
        <ele>477.94299999999998</ele>
        <time>2010-02-06T18:25:00Z</time>
      </trkpt>
      <trkpt lat="47.498979019001126" lon="18.972078999504447">
        <ele>477.13200000000001</ele>
        <time>2010-02-06T18:25:02Z</time>
      </trkpt>
      <trkpt lat="47.499026041477919" lon="18.972038011997938">
        <ele>476.733</ele>
        <time>2010-02-06T18:25:04Z</time>
      </trkpt>
      <trkpt lat="47.499068034812808" lon="18.972012028098106">
        <ele>477.76999999999998</ele>
        <time>2010-02-06T18:25:06Z</time>
      </trkpt>
      <trkpt lat="47.499109022319317" lon="18.971981015056372">
        <ele>477.54899999999998</ele>
        <time>2010-02-06T18:25:08Z</time>
      </trkpt>
      <trkpt lat="47.499169036746025" lon="18.971946984529495">
        <ele>476.93000000000001</ele>
        <time>2010-02-06T18:25:10Z</time>
      </trkpt>
      <trkpt lat="47.499222010374069" lon="18.971902979537845">
        <ele>476.255</ele>
        <time>2010-02-06T18:25:12Z</time>
      </trkpt>
      <trkpt lat="47.499253023415804" lon="18.971865009516478">
        <ele>475.89800000000002</ele>
        <time>2010-02-06T18:25:14Z</time>
      </trkpt>
      <trkpt lat="47.499299040064216" lon="18.971835002303123">
        <ele>475.17200000000003</ele>
        <time>2010-02-06T18:25:16Z</time>
      </trkpt>
      <trkpt lat="47.499325023964047" lon="18.971799965947866">
        <ele>474.572</ele>
        <time>2010-02-06T18:25:18Z</time>
      </trkpt>
      <trkpt lat="47.499351007863879" lon="18.971761995926499">
        <ele>474.99299999999999</ele>
        <time>2010-02-06T18:25:20Z</time>
      </trkpt>
      <trkpt lat="47.499405993148685" lon="18.971726037561893">
        <ele>475.161</ele>
        <time>2010-02-06T18:25:22Z</time>
      </trkpt>
      <trkpt lat="47.499446980655193" lon="18.971686977893114">
        <ele>473.94400000000002</ele>
        <time>2010-02-06T18:25:24Z</time>
      </trkpt>
      <trkpt lat="47.49948201701045" lon="18.971650013700128">
        <ele>474.02999999999997</ele>
        <time>2010-02-06T18:25:26Z</time>
      </trkpt>
      <trkpt lat="47.49950397759676" lon="18.971612965688109">
        <ele>474.72800000000001</ele>
        <time>2010-02-06T18:25:28Z</time>
      </trkpt>
      <trkpt lat="47.499515041708946" lon="18.971569966524839">
        <ele>474.44600000000003</ele>
        <time>2010-02-06T18:25:30Z</time>
      </trkpt>
      <trkpt lat="47.499548988416791" lon="18.971528979018331">
        <ele>474.39299999999997</ele>
        <time>2010-02-06T18:25:32Z</time>
      </trkpt>
      <trkpt lat="47.499582013115287" lon="18.971492014825344">
        <ele>473.661</ele>
        <time>2010-02-06T18:25:34Z</time>
      </trkpt>
      <trkpt lat="47.499601962044835" lon="18.971474999561906">
        <ele>473.51900000000001</ele>
        <time>2010-02-06T18:25:36Z</time>
      </trkpt>
      <trkpt lat="47.499636998400092" lon="18.971470976248384">
        <ele>473.77999999999997</ele>
        <time>2010-02-06T18:25:38Z</time>
      </trkpt>
      <trkpt lat="47.499667005613446" lon="18.971468964591622">
        <ele>473.99099999999999</ele>
        <time>2010-02-06T18:25:40Z</time>
      </trkpt>
      <trkpt lat="47.499701958149672" lon="18.971472987905145">
        <ele>474.93799999999999</ele>
        <time>2010-02-06T18:25:43Z</time>
      </trkpt>
      <trkpt lat="47.499731965363026" lon="18.971502995118499">
        <ele>474.80599999999998</ele>
        <time>2010-02-06T18:25:46Z</time>
      </trkpt>
      <trkpt lat="47.499745041131973" lon="18.971524033695459">
        <ele>474.78800000000001</ele>
        <time>2010-02-06T18:25:48Z</time>
      </trkpt>
      <trkpt lat="47.499765995889902" lon="18.971551023423672">
        <ele>475.07999999999998</ele>
        <time>2010-02-06T18:25:51Z</time>
      </trkpt>
      <trkpt lat="47.499788040295243" lon="18.971560997888446">
        <ele>475.06200000000001</ele>
        <time>2010-02-06T18:25:54Z</time>
      </trkpt>
      <trkpt lat="47.499831039458513" lon="18.971519004553556">
        <ele>475.529</ele>
        <time>2010-02-06T18:25:56Z</time>
      </trkpt>
      <trkpt lat="47.499871021136642" lon="18.971478017047048">
        <ele>474.94900000000001</ele>
        <time>2010-02-06T18:25:58Z</time>
      </trkpt>
      <trkpt lat="47.499895999208093" lon="18.971437029540539">
        <ele>475.21199999999999</ele>
        <time>2010-02-06T18:26:00Z</time>
      </trkpt>
      <trkpt lat="47.499938998371363" lon="18.971396964043379">
        <ele>475.44499999999999</ele>
        <time>2010-02-06T18:26:02Z</time>
      </trkpt>
      <trkpt lat="47.499967999756336" lon="18.971358994022012">
        <ele>475.50700000000001</ele>
        <time>2010-02-06T18:26:04Z</time>
      </trkpt>
      <trkpt lat="47.500019967556" lon="18.971314989030361">
        <ele>474.62799999999999</ele>
        <time>2010-02-06T18:26:07Z</time>
      </trkpt>
      <trkpt lat="47.500043017789721" lon="18.971275007352233">
        <ele>475.06999999999999</ele>
        <time>2010-02-06T18:26:09Z</time>
      </trkpt>
      <trkpt lat="47.50006397254765" lon="18.971234019845724">
        <ele>474.95400000000001</ele>
        <time>2010-02-06T18:26:11Z</time>
      </trkpt>
      <trkpt lat="47.500086016952991" lon="18.971195966005325">
        <ele>474.78100000000001</ele>
        <time>2010-02-06T18:26:13Z</time>
      </trkpt>
      <trkpt lat="47.500114012509584" lon="18.971155984327197">
        <ele>474.947</ele>
        <time>2010-02-06T18:26:15Z</time>
      </trkpt>
      <trkpt lat="47.5001460313797" lon="18.971120025962591">
        <ele>474.928</ele>
        <time>2010-02-06T18:26:17Z</time>
      </trkpt>
      <trkpt lat="47.500167991966009" lon="18.971085995435715">
        <ele>474.709</ele>
        <time>2010-02-06T18:26:19Z</time>
      </trkpt>
      <trkpt lat="47.500184001401067" lon="18.971049031242728">
        <ele>474.68700000000001</ele>
        <time>2010-02-06T18:26:21Z</time>
      </trkpt>
      <trkpt lat="47.500208979472518" lon="18.97101198323071">
        <ele>474.49900000000002</ele>
        <time>2010-02-06T18:26:23Z</time>
      </trkpt>
      <trkpt lat="47.500231023877859" lon="18.970976024866104">
        <ele>474.72899999999998</ele>
        <time>2010-02-06T18:26:25Z</time>
      </trkpt>
      <trkpt lat="47.500252984464169" lon="18.970940988510847">
        <ele>474.78399999999999</ele>
        <time>2010-02-06T18:26:27Z</time>
      </trkpt>
      <trkpt lat="47.500267988070846" lon="18.97090301848948">
        <ele>474.81599999999997</ele>
        <time>2010-02-06T18:26:29Z</time>
      </trkpt>
      <trkpt lat="47.500289026647806" lon="18.970864964649081">
        <ele>475.09300000000002</ele>
        <time>2010-02-06T18:26:31Z</time>
      </trkpt>
      <trkpt lat="47.500311993062496" lon="18.970832023769617">
        <ele>474.41000000000003</ele>
        <time>2010-02-06T18:26:33Z</time>
      </trkpt>
      <trkpt lat="47.500343006104231" lon="18.970811991021037">
        <ele>474.887</ele>
        <time>2010-02-06T18:26:35Z</time>
      </trkpt>
      <trkpt lat="47.500392040237784" lon="18.970794975757599">
        <ele>474.99099999999999</ele>
        <time>2010-02-06T18:26:37Z</time>
      </trkpt>
      <trkpt lat="47.500422969460487" lon="18.970787012949586">
        <ele>474.35199999999998</ele>
        <time>2010-02-06T18:26:39Z</time>
      </trkpt>
      <trkpt lat="47.500462029129267" lon="18.970777960494161">
        <ele>474.21699999999998</ele>
        <time>2010-02-06T18:26:42Z</time>
      </trkpt>
      <trkpt lat="47.500496981665492" lon="18.970748037099838">
        <ele>473.959</ele>
        <time>2010-02-06T18:26:44Z</time>
      </trkpt>
      <trkpt lat="47.500522965565324" lon="18.970714006572962">
        <ele>474.78399999999999</ele>
        <time>2010-02-06T18:26:46Z</time>
      </trkpt>
      <trkpt lat="47.500548027455807" lon="18.970660027116537">
        <ele>474.75099999999998</ele>
        <time>2010-02-06T18:26:49Z</time>
      </trkpt>
      <trkpt lat="47.50057702884078" lon="18.970622979104519">
        <ele>474.37400000000002</ele>
        <time>2010-02-06T18:26:51Z</time>
      </trkpt>
      <trkpt lat="47.500601001083851" lon="18.970586014911532">
        <ele>474.72500000000002</ele>
        <time>2010-02-06T18:26:53Z</time>
      </trkpt>
      <trkpt lat="47.500627990812063" lon="18.970558019354939">
        <ele>474.49099999999999</ele>
        <time>2010-02-06T18:26:55Z</time>
      </trkpt>
      <trkpt lat="47.500646011903882" lon="18.970510996878147">
        <ele>474.35300000000001</ele>
        <time>2010-02-06T18:26:58Z</time>
      </trkpt>
      <trkpt lat="47.500670989975333" lon="18.970456011593342">
        <ele>474.19600000000003</ele>
        <time>2010-02-06T18:27:01Z</time>
      </trkpt>
      <trkpt lat="47.500711977481842" lon="18.970394991338253">
        <ele>474.02300000000002</ele>
        <time>2010-02-06T18:27:04Z</time>
      </trkpt>
      <trkpt lat="47.500733016058803" lon="18.970348974689841">
        <ele>472.72000000000003</ele>
        <time>2010-02-06T18:27:06Z</time>
      </trkpt>
      <trkpt lat="47.500758999958634" lon="18.970311004668474">
        <ele>472.72800000000001</ele>
        <time>2010-02-06T18:27:08Z</time>
      </trkpt>
      <trkpt lat="47.500785989686847" lon="18.970273034647107">
        <ele>473.02199999999999</ele>
        <time>2010-02-06T18:27:10Z</time>
      </trkpt>
      <trkpt lat="47.500812979415059" lon="18.970235986635089">
        <ele>473.46499999999997</ele>
        <time>2010-02-06T18:27:12Z</time>
      </trkpt>
      <trkpt lat="47.500833012163639" lon="18.970204973593354">
        <ele>472.76299999999998</ele>
        <time>2010-02-06T18:27:14Z</time>
      </trkpt>
      <trkpt lat="47.500864025205374" lon="18.97017496638">
        <ele>472.83100000000002</ele>
        <time>2010-02-06T18:27:16Z</time>
      </trkpt>
      <trkpt lat="47.500889003276825" lon="18.970142025500536">
        <ele>472.59199999999998</ele>
        <time>2010-02-06T18:27:18Z</time>
      </trkpt>
      <trkpt lat="47.50092102214694" lon="18.970110006630421">
        <ele>472.60700000000003</ele>
        <time>2010-02-06T18:27:20Z</time>
      </trkpt>
      <trkpt lat="47.50094398856163" lon="18.970078993588686">
        <ele>473.33100000000002</ele>
        <time>2010-02-06T18:27:22Z</time>
      </trkpt>
      <trkpt lat="47.500967038795352" lon="18.970041023567319">
        <ele>473.25999999999999</ele>
        <time>2010-02-06T18:27:24Z</time>
      </trkpt>
      <trkpt lat="47.500996962189674" lon="18.970015039667487">
        <ele>473.048</ele>
        <time>2010-02-06T18:27:26Z</time>
      </trkpt>
      <trkpt lat="47.501018000766635" lon="18.969977991655469">
        <ele>473.06700000000001</ele>
        <time>2010-02-06T18:27:28Z</time>
      </trkpt>
      <trkpt lat="47.501033004373312" lon="18.969943961128592">
        <ele>472.459</ele>
        <time>2010-02-06T18:27:30Z</time>
      </trkpt>
      <trkpt lat="47.501042978838086" lon="18.969908002763987">
        <ele>473.13299999999998</ele>
        <time>2010-02-06T18:27:32Z</time>
      </trkpt>
      <trkpt lat="47.501057982444763" lon="18.96987296640873">
        <ele>473.04300000000001</ele>
        <time>2010-02-06T18:27:34Z</time>
      </trkpt>
      <trkpt lat="47.501086983829737" lon="18.969842959195375">
        <ele>473.428</ele>
        <time>2010-02-06T18:27:36Z</time>
      </trkpt>
      <trkpt lat="47.501111961901188" lon="18.969809012487531">
        <ele>473.30599999999998</ele>
        <time>2010-02-06T18:27:38Z</time>
      </trkpt>
      <trkpt lat="47.501130988821387" lon="18.969773976132274">
        <ele>473.20100000000002</ele>
        <time>2010-02-06T18:27:40Z</time>
      </trkpt>
      <trkpt lat="47.501156972721219" lon="18.96974103525281">
        <ele>473.06999999999999</ele>
        <time>2010-02-06T18:27:42Z</time>
      </trkpt>
      <trkpt lat="47.501177005469799" lon="18.969703987240791">
        <ele>473.375</ele>
        <time>2010-02-06T18:27:44Z</time>
      </trkpt>
      <trkpt lat="47.501205001026392" lon="18.96967800334096">
        <ele>473.42500000000001</ele>
        <time>2010-02-06T18:27:46Z</time>
      </trkpt>
      <trkpt lat="47.501248000189662" lon="18.96965897642076">
        <ele>472.89800000000002</ele>
        <time>2010-02-06T18:27:48Z</time>
      </trkpt>
      <trkpt lat="47.501269038766623" lon="18.969626035541296">
        <ele>473.54700000000003</ele>
        <time>2010-02-06T18:27:50Z</time>
      </trkpt>
      <trkpt lat="47.50130700878799" lon="18.969601979479194">
        <ele>473.55000000000001</ele>
        <time>2010-02-06T18:27:52Z</time>
      </trkpt>
      <trkpt lat="47.501335004344583" lon="18.96957297809422">
        <ele>474.36599999999999</ele>
        <time>2010-02-06T18:27:54Z</time>
      </trkpt>
      <trkpt lat="47.50137004069984" lon="18.96955001167953">
        <ele>473.226</ele>
        <time>2010-02-06T18:27:56Z</time>
      </trkpt>
      <trkpt lat="47.501404993236065" lon="18.96952603943646">
        <ele>474.221</ele>
        <time>2010-02-06T18:27:58Z</time>
      </trkpt>
      <trkpt lat="47.501481017097831" lon="18.969484968110919">
        <ele>474.67399999999998</ele>
        <time>2010-02-06T18:28:02Z</time>
      </trkpt>
      <trkpt lat="47.501528961583972" lon="18.969466025009751">
        <ele>474.14299999999997</ele>
        <time>2010-02-06T18:28:04Z</time>
      </trkpt>
      <trkpt lat="47.501570032909513" lon="18.969440963119268">
        <ele>474.14299999999997</ele>
        <time>2010-02-06T18:28:06Z</time>
      </trkpt>
      <trkpt lat="47.501601967960596" lon="18.96939997561276">
        <ele>474.28100000000001</ele>
        <time>2010-02-06T18:28:09Z</time>
      </trkpt>
      <trkpt lat="47.501612026244402" lon="18.969367034733295">
        <ele>474.21600000000001</ele>
        <time>2010-02-06T18:28:11Z</time>
      </trkpt>
      <trkpt lat="47.501613032072783" lon="18.969327975064516">
        <ele>475.24900000000002</ele>
        <time>2010-02-06T18:28:13Z</time>
      </trkpt>
      <trkpt lat="47.501627029851079" lon="18.969259997829795">
        <ele>474.85899999999998</ele>
        <time>2010-02-06T18:28:17Z</time>
      </trkpt>
      <trkpt lat="47.501641027629375" lon="18.969226973131299">
        <ele>474.90499999999997</ele>
        <time>2010-02-06T18:28:19Z</time>
      </trkpt>
      <trkpt lat="47.50167396850884" lon="18.969204006716609">
        <ele>474.63200000000001</ele>
        <time>2010-02-06T18:28:21Z</time>
      </trkpt>
      <trkpt lat="47.501700036227703" lon="18.969176011160016">
        <ele>474.85700000000003</ele>
        <time>2010-02-06T18:28:24Z</time>
      </trkpt>
      <trkpt lat="47.501696012914181" lon="18.969137035310268">
        <ele>475.30599999999998</ele>
        <time>2010-02-06T18:28:28Z</time>
      </trkpt>
      <trkpt lat="47.501701964065433" lon="18.969113985076547">
        <ele>475.01100000000002</ele>
        <time>2010-02-06T18:28:30Z</time>
      </trkpt>
      <trkpt lat="47.50171696767211" lon="18.969080038368702">
        <ele>475.30200000000002</ele>
        <time>2010-02-06T18:28:33Z</time>
      </trkpt>
      <trkpt lat="47.501753009855747" lon="18.969036033377051">
        <ele>475.82799999999997</ele>
        <time>2010-02-06T18:28:36Z</time>
      </trkpt>
      <trkpt lat="47.501789974048734" lon="18.96899001672864">
        <ele>475.71300000000002</ele>
        <time>2010-02-06T18:28:39Z</time>
      </trkpt>
      <trkpt lat="47.501821992918849" lon="18.968937965109944">
        <ele>476.77300000000002</ele>
        <time>2010-02-06T18:28:42Z</time>
      </trkpt>
      <trkpt lat="47.501852000132203" lon="18.968895971775055">
        <ele>476.55000000000001</ele>
        <time>2010-02-06T18:28:45Z</time>
      </trkpt>
      <trkpt lat="47.501869015395641" lon="18.968867976218462">
        <ele>476.59800000000001</ele>
        <time>2010-02-06T18:28:48Z</time>
      </trkpt>
      <trkpt lat="47.501897010952234" lon="18.968826988711953">
        <ele>476.98200000000003</ele>
        <time>2010-02-06T18:28:51Z</time>
      </trkpt>
      <trkpt lat="47.50193003565073" lon="18.968780972063541">
        <ele>476.959</ele>
        <time>2010-02-06T18:28:54Z</time>
      </trkpt>
      <trkpt lat="47.501963982358575" lon="18.968762028962374">
        <ele>477.35399999999998</ele>
        <time>2010-02-06T18:28:56Z</time>
      </trkpt>
      <trkpt lat="47.501976974308491" lon="18.968736967071891">
        <ele>477.25900000000001</ele>
        <time>2010-02-06T18:28:58Z</time>
      </trkpt>
      <trkpt lat="47.50199600122869" lon="18.968700002878904">
        <ele>477.572</ele>
        <time>2010-02-06T18:29:00Z</time>
      </trkpt>
      <trkpt lat="47.502011004835367" lon="18.968649040907621">
        <ele>477.57900000000001</ele>
        <time>2010-02-06T18:29:03Z</time>
      </trkpt>
      <trkpt lat="47.502044029533863" lon="18.968602018430829">
        <ele>477.41000000000003</ele>
        <time>2010-02-06T18:29:06Z</time>
      </trkpt>
      <trkpt lat="47.50206096097827" lon="18.968554995954037">
        <ele>477.68400000000003</ele>
        <time>2010-02-06T18:29:09Z</time>
      </trkpt>
      <trkpt lat="47.502097003161907" lon="18.96852096542716">
        <ele>477.33100000000002</ele>
        <time>2010-02-06T18:29:12Z</time>
      </trkpt>
      <trkpt lat="47.502128016203642" lon="18.968485007062554">
        <ele>477.77800000000002</ele>
        <time>2010-02-06T18:29:15Z</time>
      </trkpt>
      <trkpt lat="47.502156011760235" lon="18.968456005677581">
        <ele>478.05700000000002</ele>
        <time>2010-02-06T18:29:17Z</time>
      </trkpt>
      <trkpt lat="47.50218995846808" lon="18.968438990414143">
        <ele>477.85500000000002</ele>
        <time>2010-02-06T18:29:19Z</time>
      </trkpt>
      <trkpt lat="47.502222983166575" lon="18.968416023999453">
        <ele>477.70299999999997</ele>
        <time>2010-02-06T18:29:21Z</time>
      </trkpt>
      <trkpt lat="47.502248967066407" lon="18.968375958502293">
        <ele>478.09500000000003</ele>
        <time>2010-02-06T18:29:24Z</time>
      </trkpt>
      <trkpt lat="47.502267993986607" lon="18.968329019844532">
        <ele>478.399</ele>
        <time>2010-02-06T18:29:27Z</time>
      </trkpt>
      <trkpt lat="47.502261959016323" lon="18.968274034559727">
        <ele>478.27300000000002</ele>
        <time>2010-02-06T18:29:30Z</time>
      </trkpt>
      <trkpt lat="47.502292972058058" lon="18.968229023739696">
        <ele>478.64699999999999</ele>
        <time>2010-02-06T18:29:33Z</time>
      </trkpt>
      <trkpt lat="47.50231996178627" lon="18.968182001262903">
        <ele>479.22199999999998</ele>
        <time>2010-02-06T18:29:36Z</time>
      </trkpt>
      <trkpt lat="47.502324990928173" lon="18.968123998492956">
        <ele>478.92200000000003</ele>
        <time>2010-02-06T18:29:39Z</time>
      </trkpt>
      <trkpt lat="47.502325996756554" lon="18.968050992116332">
        <ele>479.59300000000002</ele>
        <time>2010-02-06T18:29:42Z</time>
      </trkpt>
      <trkpt lat="47.50231702812016" lon="18.967992989346385">
        <ele>480.161</ele>
        <time>2010-02-06T18:29:45Z</time>
      </trkpt>
      <trkpt lat="47.50231996178627" lon="18.967941021546721">
        <ele>480.23099999999999</ele>
        <time>2010-02-06T18:29:48Z</time>
      </trkpt>
      <trkpt lat="47.50231996178627" lon="18.967876983806491">
        <ele>481.44</ele>
        <time>2010-02-06T18:29:51Z</time>
      </trkpt>
      <trkpt lat="47.502323985099792" lon="18.967819986864924">
        <ele>481.24599999999998</ele>
        <time>2010-02-06T18:29:54Z</time>
      </trkpt>
      <trkpt lat="47.50233898870647" lon="18.967770030722022">
        <ele>481.60300000000001</ele>
        <time>2010-02-06T18:29:57Z</time>
      </trkpt>
      <trkpt lat="47.502364972606301" lon="18.967722002416849">
        <ele>482.178</ele>
        <time>2010-02-06T18:30:00Z</time>
      </trkpt>
      <trkpt lat="47.502386011183262" lon="18.967663999646902">
        <ele>483.048</ele>
        <time>2010-02-06T18:30:03Z</time>
      </trkpt>
      <trkpt lat="47.50240596011281" lon="18.967624017968774">
        <ele>483.34699999999998</ele>
        <time>2010-02-06T18:30:06Z</time>
      </trkpt>
      <trkpt lat="47.502432027831674" lon="18.967566015198827">
        <ele>483.04700000000003</ele>
        <time>2010-02-06T18:30:09Z</time>
      </trkpt>
      <trkpt lat="47.502459017559886" lon="18.96750901825726">
        <ele>484.73000000000002</ele>
        <time>2010-02-06T18:30:12Z</time>
      </trkpt>
      <trkpt lat="47.502473015338182" lon="18.967451015487313">
        <ele>485.00200000000001</ele>
        <time>2010-02-06T18:30:15Z</time>
      </trkpt>
      <trkpt lat="47.502480978146195" lon="18.967409022152424">
        <ele>484.48500000000001</ele>
        <time>2010-02-06T18:30:17Z</time>
      </trkpt>
      <trkpt lat="47.502492964267731" lon="18.967351019382477">
        <ele>484.83600000000001</ele>
        <time>2010-02-06T18:30:20Z</time>
      </trkpt>
      <trkpt lat="47.502506962046027" lon="18.967302991077304">
        <ele>485.11599999999999</ele>
        <time>2010-02-06T18:30:22Z</time>
      </trkpt>
      <trkpt lat="47.502533029764891" lon="18.967268038541079">
        <ele>485.13200000000001</ele>
        <time>2010-02-06T18:30:24Z</time>
      </trkpt>
      <trkpt lat="47.502555996179581" lon="18.967235013842583">
        <ele>484.67000000000002</ele>
        <time>2010-02-06T18:30:26Z</time>
      </trkpt>
      <trkpt lat="47.502578962594271" lon="18.967184973880649">
        <ele>485.25299999999999</ele>
        <time>2010-02-06T18:30:29Z</time>
      </trkpt>
      <trkpt lat="47.50259698368609" lon="18.967138035222888">
        <ele>485.71499999999997</ele>
        <time>2010-02-06T18:30:31Z</time>
      </trkpt>
      <trkpt lat="47.502613998949528" lon="18.967091012746096">
        <ele>485.34699999999998</ele>
        <time>2010-02-06T18:30:33Z</time>
      </trkpt>
      <trkpt lat="47.502592960372567" lon="18.967032004147768">
        <ele>486.45999999999998</ele>
        <time>2010-02-06T18:30:36Z</time>
      </trkpt>
      <trkpt lat="47.502549961209297" lon="18.966982970014215">
        <ele>486.17500000000001</ele>
        <time>2010-02-06T18:30:39Z</time>
      </trkpt>
      <trkpt lat="47.502591032534838" lon="18.966920021921396">
        <ele>486.47000000000003</ele>
        <time>2010-02-06T18:30:42Z</time>
      </trkpt>
      <trkpt lat="47.502621961757541" lon="18.966883979737759">
        <ele>486.72199999999998</ele>
        <time>2010-02-06T18:30:44Z</time>
      </trkpt>
      <trkpt lat="47.502650963142514" lon="18.966841986402869">
        <ele>486.86500000000001</ele>
        <time>2010-02-06T18:30:46Z</time>
      </trkpt>
      <trkpt lat="47.502667978405952" lon="18.966798987239599">
        <ele>486.988</ele>
        <time>2010-02-06T18:30:48Z</time>
      </trkpt>
      <trkpt lat="47.502673007547855" lon="18.966739978641272">
        <ele>486.53699999999998</ele>
        <time>2010-02-06T18:30:51Z</time>
      </trkpt>
      <trkpt lat="47.502674013376236" lon="18.966680970042944">
        <ele>486.185</ele>
        <time>2010-02-06T18:30:54Z</time>
      </trkpt>
      <trkpt lat="47.502695973962545" lon="18.966631013900042">
        <ele>485.94999999999999</ele>
        <time>2010-02-06T18:30:57Z</time>
      </trkpt>
      <trkpt lat="47.502721035853028" lon="18.966590026393533">
        <ele>486.60199999999998</ele>
        <time>2010-02-06T18:31:00Z</time>
      </trkpt>
      <trkpt lat="47.502722963690758" lon="18.966537974774837">
        <ele>487.74299999999999</ele>
        <time>2010-02-06T18:31:04Z</time>
      </trkpt>
      <trkpt lat="47.502696979790926" lon="18.966465974226594">
        <ele>486.01900000000001</ele>
        <time>2010-02-06T18:31:07Z</time>
      </trkpt>
      <trkpt lat="47.502694968134165" lon="18.966417023912072">
        <ele>486.50400000000002</ele>
        <time>2010-02-06T18:31:09Z</time>
      </trkpt>
      <trkpt lat="47.502710977569222" lon="18.966367989778519">
        <ele>487.38299999999998</ele>
        <time>2010-02-06T18:31:11Z</time>
      </trkpt>
      <trkpt lat="47.502734027802944" lon="18.966335970908403">
        <ele>486.613</ele>
        <time>2010-02-06T18:31:13Z</time>
      </trkpt>
      <trkpt lat="47.502753976732492" lon="18.966300012543797">
        <ele>486.23200000000003</ele>
        <time>2010-02-06T18:31:15Z</time>
      </trkpt>
      <trkpt lat="47.502796975895762" lon="18.966270005330443">
        <ele>486.16399999999999</ele>
        <time>2010-02-06T18:31:17Z</time>
      </trkpt>
      <trkpt lat="47.502811979502439" lon="18.966232035309076">
        <ele>485.85899999999998</ele>
        <time>2010-02-06T18:31:19Z</time>
      </trkpt>
      <trkpt lat="47.502828994765878" lon="18.966194987297058">
        <ele>486.76299999999998</ele>
        <time>2010-02-06T18:31:21Z</time>
      </trkpt>
      <trkpt lat="47.502842992544174" lon="18.96615601144731">
        <ele>486.029</ele>
        <time>2010-02-06T18:31:23Z</time>
      </trkpt>
      <trkpt lat="47.502847015857697" lon="18.966088034212589">
        <ele>486.24599999999998</ele>
        <time>2010-02-06T18:31:26Z</time>
      </trkpt>
      <trkpt lat="47.502854978665709" lon="18.96602600812912">
        <ele>486.38299999999998</ele>
        <time>2010-02-06T18:31:29Z</time>
      </trkpt>
      <trkpt lat="47.502866964787245" lon="18.965972028672695">
        <ele>486.14299999999997</ele>
        <time>2010-02-06T18:31:32Z</time>
      </trkpt>
      <trkpt lat="47.502877023071051" lon="18.965932969003916">
        <ele>485.98099999999999</ele>
        <time>2010-02-06T18:31:35Z</time>
      </trkpt>
      <trkpt lat="47.502841986715794" lon="18.965887036174536">
        <ele>485.24900000000002</ele>
        <time>2010-02-06T18:31:41Z</time>
      </trkpt>
      <trkpt lat="47.502775015309453" lon="18.965813023969531">
        <ele>484.86700000000002</ele>
        <time>2010-02-06T18:31:47Z</time>
      </trkpt>
      <trkpt lat="47.502733021974564" lon="18.965756027027965">
        <ele>484.935</ele>
        <time>2010-02-06T18:31:50Z</time>
      </trkpt>
      <trkpt lat="47.502710977569222" lon="18.965705987066031">
        <ele>484.31</ele>
        <time>2010-02-06T18:31:53Z</time>
      </trkpt>
      <trkpt lat="47.502685999497771" lon="18.965657036751509">
        <ele>484.39299999999997</ele>
        <time>2010-02-06T18:31:56Z</time>
      </trkpt>
      <trkpt lat="47.502674013376236" lon="18.965591993182898">
        <ele>483.67099999999999</ele>
        <time>2010-02-06T18:32:00Z</time>
      </trkpt>
      <trkpt lat="47.502676025032997" lon="18.965549999848008">
        <ele>483.25799999999998</ele>
        <time>2010-02-06T18:32:03Z</time>
      </trkpt>
      <trkpt lat="47.502707038074732" lon="18.965498032048345">
        <ele>482.98000000000002</ele>
        <time>2010-02-06T18:32:08Z</time>
      </trkpt>
      <trkpt lat="47.50272698700428" lon="18.965447992086411">
        <ele>482.91000000000003</ele>
        <time>2010-02-06T18:32:11Z</time>
      </trkpt>
      <trkpt lat="47.502716006711125" lon="18.965394012629986">
        <ele>482.89299999999997</ele>
        <time>2010-02-06T18:32:13Z</time>
      </trkpt>
      <trkpt lat="47.502719024196267" lon="18.965331986546516">
        <ele>482.72500000000002</ele>
        <time>2010-02-06T18:32:15Z</time>
      </trkpt>
      <trkpt lat="47.502728998661041" lon="18.965269960463047">
        <ele>482.637</ele>
        <time>2010-02-06T18:32:17Z</time>
      </trkpt>
      <trkpt lat="47.502733021974564" lon="18.965202989056706">
        <ele>482.185</ele>
        <time>2010-02-06T18:32:19Z</time>
      </trkpt>
      <trkpt lat="47.502719024196267" lon="18.965130988508463">
        <ele>482.29300000000001</ele>
        <time>2010-02-06T18:32:21Z</time>
      </trkpt>
      <trkpt lat="47.502744002267718" lon="18.965067034587264">
        <ele>482.51100000000002</ele>
        <time>2010-02-06T18:32:23Z</time>
      </trkpt>
      <trkpt lat="47.502765962854028" lon="18.964995034039021">
        <ele>481.63600000000002</ele>
        <time>2010-02-06T18:32:25Z</time>
      </trkpt>
      <trkpt lat="47.502784989774227" lon="18.964923033490777">
        <ele>481.30099999999999</ele>
        <time>2010-02-06T18:32:27Z</time>
      </trkpt>
      <trkpt lat="47.502800999209285" lon="18.964883973821998">
        <ele>481.53899999999999</ele>
        <time>2010-02-06T18:32:28Z</time>
      </trkpt>
      <trkpt lat="47.502832012251019" lon="18.964809961616993">
        <ele>481.23500000000001</ele>
        <time>2010-02-06T18:32:30Z</time>
      </trkpt>
      <trkpt lat="47.502881968393922" lon="18.964741984382272">
        <ele>480.45400000000001</ele>
        <time>2010-02-06T18:32:32Z</time>
      </trkpt>
      <trkpt lat="47.502881968393922" lon="18.964679036289454">
        <ele>480.18099999999998</ele>
        <time>2010-02-06T18:32:34Z</time>
      </trkpt>
      <trkpt lat="47.502884985879064" lon="18.964619021862745">
        <ele>480.24900000000002</ele>
        <time>2010-02-06T18:32:36Z</time>
      </trkpt>
      <trkpt lat="47.502879034727812" lon="18.964551966637373">
        <ele>479.66000000000003</ele>
        <time>2010-02-06T18:32:38Z</time>
      </trkpt>
      <trkpt lat="47.502891020849347" lon="18.964490024372935">
        <ele>478.61500000000001</ele>
        <time>2010-02-06T18:32:40Z</time>
      </trkpt>
      <trkpt lat="47.502909963950515" lon="18.964430009946227">
        <ele>478.10300000000001</ele>
        <time>2010-02-06T18:32:42Z</time>
      </trkpt>
      <trkpt lat="47.502929996699095" lon="18.964377958327532">
        <ele>477.90600000000001</ele>
        <time>2010-02-06T18:32:44Z</time>
      </trkpt>
      <trkpt lat="47.502964027225971" lon="18.964322973042727">
        <ele>477.81400000000002</ele>
        <time>2010-02-06T18:32:46Z</time>
      </trkpt>
      <trkpt lat="47.503000991418958" lon="18.964259019121528">
        <ele>477.19499999999999</ele>
        <time>2010-02-06T18:32:48Z</time>
      </trkpt>
      <trkpt lat="47.503050025552511" lon="18.964189030230045">
        <ele>476.92599999999999</ele>
        <time>2010-02-06T18:32:50Z</time>
      </trkpt>
      <trkpt lat="47.503094030544162" lon="18.964128009974957">
        <ele>477.04300000000001</ele>
        <time>2010-02-06T18:32:52Z</time>
      </trkpt>
      <trkpt lat="47.503137029707432" lon="18.964082999154925">
        <ele>475.94200000000001</ele>
        <time>2010-02-06T18:32:54Z</time>
      </trkpt>
      <trkpt lat="47.503167958930135" lon="18.964035976678133">
        <ele>476.45100000000002</ele>
        <time>2010-02-06T18:32:56Z</time>
      </trkpt>
      <trkpt lat="47.503200983628631" lon="18.963983003050089">
        <ele>475.43099999999998</ele>
        <time>2010-02-06T18:32:58Z</time>
      </trkpt>
      <trkpt lat="47.503225961700082" lon="18.963965987786651">
        <ele>475.166</ele>
        <time>2010-02-06T18:32:59Z</time>
      </trkpt>
      <trkpt lat="47.503247000277042" lon="18.963917959481478">
        <ele>474.86200000000002</ele>
        <time>2010-02-06T18:33:01Z</time>
      </trkpt>
      <trkpt lat="47.503267033025622" lon="18.963870014995337">
        <ele>474.48899999999998</ele>
        <time>2010-02-06T18:33:03Z</time>
      </trkpt>
      <trkpt lat="47.50332604162395" lon="18.963804971426725">
        <ele>473.29599999999999</ele>
        <time>2010-02-06T18:33:05Z</time>
      </trkpt>
      <trkpt lat="47.503341967239976" lon="18.9637700188905">
        <ele>473.37099999999998</ele>
        <time>2010-02-06T18:33:06Z</time>
      </trkpt>
      <trkpt lat="47.503370968624949" lon="18.963700029999018">
        <ele>473.14100000000002</ele>
        <time>2010-02-06T18:33:08Z</time>
      </trkpt>
      <trkpt lat="47.503385972231627" lon="18.963635992258787">
        <ele>471.86500000000001</ele>
        <time>2010-02-06T18:33:10Z</time>
      </trkpt>
      <trkpt lat="47.503380021080375" lon="18.963568015024066">
        <ele>472.15199999999999</ele>
        <time>2010-02-06T18:33:12Z</time>
      </trkpt>
      <trkpt lat="47.503377003595233" lon="18.963485034182668">
        <ele>471.37200000000001</ele>
        <time>2010-02-06T18:33:14Z</time>
      </trkpt>
      <trkpt lat="47.503389995545149" lon="18.963413033634424">
        <ele>469.87</ele>
        <time>2010-02-06T18:33:16Z</time>
      </trkpt>
      <trkpt lat="47.503394018858671" lon="18.963347990065813">
        <ele>468.84399999999999</ele>
        <time>2010-02-06T18:33:18Z</time>
      </trkpt>
      <trkpt lat="47.503389995545149" lon="18.963273977860808">
        <ele>468.471</ele>
        <time>2010-02-06T18:33:20Z</time>
      </trkpt>
      <trkpt lat="47.503400975838304" lon="18.963198959827423">
        <ele>468.08699999999999</ele>
        <time>2010-02-06T18:33:22Z</time>
      </trkpt>
      <trkpt lat="47.5034149736166" lon="18.963122013956308">
        <ele>467.92599999999999</ele>
        <time>2010-02-06T18:33:24Z</time>
      </trkpt>
      <trkpt lat="47.503427965566516" lon="18.963032998144627">
        <ele>466.81900000000002</ele>
        <time>2010-02-06T18:33:26Z</time>
      </trkpt>
      <trkpt lat="47.503431988880038" lon="18.962957980111241">
        <ele>466.16300000000001</ele>
        <time>2010-02-06T18:33:28Z</time>
      </trkpt>
      <trkpt lat="47.503434000536799" lon="18.96288899704814">
        <ele>466.928</ele>
        <time>2010-02-06T18:33:30Z</time>
      </trkpt>
      <trkpt lat="47.503436012193561" lon="18.962818002328277">
        <ele>465.94299999999998</ele>
        <time>2010-02-06T18:33:32Z</time>
      </trkpt>
      <trkpt lat="47.503459984436631" lon="18.962755976244807">
        <ele>464.65699999999998</ele>
        <time>2010-02-06T18:33:34Z</time>
      </trkpt>
      <trkpt lat="47.503488985821605" lon="18.962699985131621">
        <ele>464.91199999999998</ele>
        <time>2010-02-06T18:33:36Z</time>
      </trkpt>
      <trkpt lat="47.503557968884706" lon="18.962657991796732">
        <ele>464.637</ele>
        <time>2010-02-06T18:33:38Z</time>
      </trkpt>
      <trkpt lat="47.50358697026968" lon="18.962600994855165">
        <ele>464.47300000000001</ele>
        <time>2010-02-06T18:33:40Z</time>
      </trkpt>
      <trkpt lat="47.503580013290048" lon="18.962533017620444">
        <ele>463.71899999999999</ele>
        <time>2010-02-06T18:33:42Z</time>
      </trkpt>
      <trkpt lat="47.503583030775189" lon="18.962442995980382">
        <ele>463.19099999999997</ele>
        <time>2010-02-06T18:33:46Z</time>
      </trkpt>
      <trkpt lat="47.503565009683371" lon="18.962382981553674">
        <ele>461.47399999999999</ele>
        <time>2010-02-06T18:33:48Z</time>
      </trkpt>
      <trkpt lat="47.50358403660357" lon="18.962326990440488">
        <ele>461.29399999999998</ele>
        <time>2010-02-06T18:33:50Z</time>
      </trkpt>
      <trkpt lat="47.503611026331782" lon="18.962262030690908">
        <ele>460.40800000000002</ele>
        <time>2010-02-06T18:33:52Z</time>
      </trkpt>
      <trkpt lat="47.503610020503402" lon="18.962188018485904">
        <ele>459.69999999999999</ele>
        <time>2010-02-06T18:33:54Z</time>
      </trkpt>
      <trkpt lat="47.503604991361499" lon="18.96211501210928">
        <ele>459.14999999999998</ele>
        <time>2010-02-06T18:33:56Z</time>
      </trkpt>
      <trkpt lat="47.503602979704738" lon="18.962045023217797">
        <ele>458.13</ele>
        <time>2010-02-06T18:33:58Z</time>
      </trkpt>
      <trkpt lat="47.50358403660357" lon="18.961990037932992">
        <ele>458.03899999999999</ele>
        <time>2010-02-06T18:34:00Z</time>
      </trkpt>
      <trkpt lat="47.503583030775189" lon="18.961926000192761">
        <ele>457.38499999999999</ele>
        <time>2010-02-06T18:34:02Z</time>
      </trkpt>
      <trkpt lat="47.503593005239964" lon="18.961864979937673">
        <ele>457.26999999999998</ele>
        <time>2010-02-06T18:34:04Z</time>
      </trkpt>
      <trkpt lat="47.503597028553486" lon="18.961800020188093">
        <ele>456.959</ele>
        <time>2010-02-06T18:34:06Z</time>
      </trkpt>
      <trkpt lat="47.503595016896725" lon="18.96173195913434">
        <ele>456.95999999999998</ele>
        <time>2010-02-06T18:34:08Z</time>
      </trkpt>
      <trkpt lat="47.503587976098061" lon="18.961666999384761">
        <ele>456.47500000000002</ele>
        <time>2010-02-06T18:34:10Z</time>
      </trkpt>
      <trkpt lat="47.503585964441299" lon="18.961601033806801">
        <ele>455.10700000000003</ele>
        <time>2010-02-06T18:34:12Z</time>
      </trkpt>
      <trkpt lat="47.50358697026968" lon="18.961533978581429">
        <ele>454.58199999999999</ele>
        <time>2010-02-06T18:34:14Z</time>
      </trkpt>
      <trkpt lat="47.503584958612919" lon="18.96147103048861">
        <ele>453.90699999999998</ele>
        <time>2010-02-06T18:34:16Z</time>
      </trkpt>
      <trkpt lat="47.503568027168512" lon="18.961410010233521">
        <ele>453.68299999999999</ele>
        <time>2010-02-06T18:34:18Z</time>
      </trkpt>
      <trkpt lat="47.503557968884706" lon="18.96136399358511">
        <ele>453.31599999999997</ele>
        <time>2010-02-06T18:34:20Z</time>
      </trkpt>
      <trkpt lat="47.503469036892056" lon="18.961203983053565">
        <ele>453.322</ele>
        <time>2010-02-06T18:34:56Z</time>
      </trkpt>
      <trkpt lat="47.503469958901405" lon="18.961166013032198">
        <ele>452.84500000000003</ele>
        <time>2010-02-06T18:34:59Z</time>
      </trkpt>
      <trkpt lat="47.503475993871689" lon="18.961115973070264">
        <ele>452.91800000000001</ele>
        <time>2010-02-06T18:35:02Z</time>
      </trkpt>
      <trkpt lat="47.503484962508082" lon="18.961065011098981">
        <ele>452.52800000000002</ele>
        <time>2010-02-06T18:35:05Z</time>
      </trkpt>
      <trkpt lat="47.503482028841972" lon="18.961011031642556">
        <ele>451.26900000000001</ele>
        <time>2010-02-06T18:35:08Z</time>
      </trkpt>
      <trkpt lat="47.503484962508082" lon="18.960958980023861">
        <ele>450.81200000000001</ele>
        <time>2010-02-06T18:35:11Z</time>
      </trkpt>
      <trkpt lat="47.503481023013592" lon="18.960907012224197">
        <ele>450.23899999999998</ele>
        <time>2010-02-06T18:35:15Z</time>
      </trkpt>
      <trkpt lat="47.503453027456999" lon="18.960838029161096">
        <ele>449.666</ele>
        <time>2010-02-06T18:35:37Z</time>
      </trkpt>
      <trkpt lat="47.503449004143476" lon="18.960792012512684">
        <ele>449.02699999999999</ele>
        <time>2010-02-06T18:35:39Z</time>
      </trkpt>
      <trkpt lat="47.503444980829954" lon="18.960729986429214">
        <ele>448.97899999999998</ele>
        <time>2010-02-06T18:35:41Z</time>
      </trkpt>
      <trkpt lat="47.503446992486715" lon="18.960672989487648">
        <ele>448.61000000000001</ele>
        <time>2010-02-06T18:35:43Z</time>
      </trkpt>
      <trkpt lat="47.503444980829954" lon="18.960624039173126">
        <ele>447.79700000000003</ele>
        <time>2010-02-06T18:35:45Z</time>
      </trkpt>
      <trkpt lat="47.503442969173193" lon="18.960566036403179">
        <ele>447.48399999999998</ele>
        <time>2010-02-06T18:35:47Z</time>
      </trkpt>
      <trkpt lat="47.503439029678702" lon="18.960507027804852">
        <ele>447.08300000000003</ele>
        <time>2010-02-06T18:35:49Z</time>
      </trkpt>
      <trkpt lat="47.503443975001574" lon="18.96044097840786">
        <ele>446.36500000000001</ele>
        <time>2010-02-06T18:35:51Z</time>
      </trkpt>
      <trkpt lat="47.503443975001574" lon="18.960380963981152">
        <ele>444.83300000000003</ele>
        <time>2010-02-06T18:35:53Z</time>
      </trkpt>
      <trkpt lat="47.503450009971857" lon="18.960322961211205">
        <ele>444.267</ele>
        <time>2010-02-06T18:35:55Z</time>
      </trkpt>
      <trkpt lat="47.50345797277987" lon="18.960260013118386">
        <ele>443.61500000000001</ele>
        <time>2010-02-06T18:35:57Z</time>
      </trkpt>
      <trkpt lat="47.503469958901405" lon="18.960197987034917">
        <ele>442.97800000000001</ele>
        <time>2010-02-06T18:35:59Z</time>
      </trkpt>
      <trkpt lat="47.503464007750154" lon="18.960138978436589">
        <ele>442.76799999999997</ele>
        <time>2010-02-06T18:36:01Z</time>
      </trkpt>
      <trkpt lat="47.503465013578534" lon="18.960064966231585">
        <ele>441.93700000000001</ele>
        <time>2010-02-06T18:36:04Z</time>
      </trkpt>
      <trkpt lat="47.503464007750154" lon="18.960005035623908">
        <ele>441.71899999999999</ele>
        <time>2010-02-06T18:36:06Z</time>
      </trkpt>
      <trkpt lat="47.503463001921773" lon="18.959951978176832">
        <ele>441.43000000000001</ele>
        <time>2010-02-06T18:36:08Z</time>
      </trkpt>
      <trkpt lat="47.503473982214928" lon="18.959890035912395">
        <ele>441.84699999999998</ele>
        <time>2010-02-06T18:36:10Z</time>
      </trkpt>
      <trkpt lat="47.503492003306746" lon="18.959825998172164">
        <ele>440.91500000000002</ele>
        <time>2010-02-06T18:36:12Z</time>
      </trkpt>
      <trkpt lat="47.503494014963508" lon="18.959758020937443">
        <ele>440.39400000000001</ele>
        <time>2010-02-06T18:36:14Z</time>
      </trkpt>
      <trkpt lat="47.503488985821605" lon="18.959685014560819">
        <ele>439.73899999999998</ele>
        <time>2010-02-06T18:36:16Z</time>
      </trkpt>
      <trkpt lat="47.503481023013592" lon="18.959605973213911">
        <ele>438.71800000000002</ele>
        <time>2010-02-06T18:36:18Z</time>
      </trkpt>
      <trkpt lat="47.503472976386547" lon="18.959531961008906">
        <ele>438.18099999999998</ele>
        <time>2010-02-06T18:36:20Z</time>
      </trkpt>
      <trkpt lat="47.503469036892056" lon="18.959462977945805">
        <ele>437.53300000000002</ele>
        <time>2010-02-06T18:36:22Z</time>
      </trkpt>
      <trkpt lat="47.503472976386547" lon="18.959387959912419">
        <ele>438.00900000000001</ele>
        <time>2010-02-06T18:36:24Z</time>
      </trkpt>
      <trkpt lat="47.503444980829954" lon="18.959316965192556">
        <ele>436.65300000000002</ele>
        <time>2010-02-06T18:36:26Z</time>
      </trkpt>
      <trkpt lat="47.503437018021941" lon="18.959240019321442">
        <ele>436.20699999999999</ele>
        <time>2010-02-06T18:36:28Z</time>
      </trkpt>
      <trkpt lat="47.503438023850322" lon="18.959163995459676">
        <ele>436.14400000000001</ele>
        <time>2010-02-06T18:36:30Z</time>
      </trkpt>
      <trkpt lat="47.503432994708419" lon="18.959097024053335">
        <ele>435.38299999999998</ele>
        <time>2010-02-06T18:36:32Z</time>
      </trkpt>
      <trkpt lat="47.503459984436631" lon="18.958956962451339">
        <ele>435.27600000000001</ele>
        <time>2010-02-06T18:36:36Z</time>
      </trkpt>
      <trkpt lat="47.503455961123109" lon="18.95885000936687">
        <ele>433.58600000000001</ele>
        <time>2010-02-06T18:36:39Z</time>
      </trkpt>
      <trkpt lat="47.503452021628618" lon="18.958751019090414">
        <ele>433.38799999999998</ele>
        <time>2010-02-06T18:36:42Z</time>
      </trkpt>
      <trkpt lat="47.50345797277987" lon="18.958712965250015">
        <ele>433.37700000000001</ele>
        <time>2010-02-06T18:36:43Z</time>
      </trkpt>
      <trkpt lat="47.503471970558167" lon="18.958644988015294">
        <ele>433.37700000000001</ele>
        <time>2010-02-06T18:36:45Z</time>
      </trkpt>
      <trkpt lat="47.503479011356831" lon="18.958572987467051">
        <ele>432.346</ele>
        <time>2010-02-06T18:36:47Z</time>
      </trkpt>
      <trkpt lat="47.503499966114759" lon="18.958514984697104">
        <ele>432.08499999999998</ele>
        <time>2010-02-06T18:36:49Z</time>
      </trkpt>
      <trkpt lat="47.503515975549817" lon="18.958457987755537">
        <ele>432.38600000000002</ele>
        <time>2010-02-06T18:36:51Z</time>
      </trkpt>
      <trkpt lat="47.503536008298397" lon="18.958391016349196">
        <ele>431.98899999999998</ele>
        <time>2010-02-06T18:36:53Z</time>
      </trkpt>
      <trkpt lat="47.503533996641636" lon="18.958324966952205">
        <ele>431.83600000000001</ele>
        <time>2010-02-06T18:36:55Z</time>
      </trkpt>
      <trkpt lat="47.503542965278029" lon="18.958267970010638">
        <ele>431.56</ele>
        <time>2010-02-06T18:36:57Z</time>
      </trkpt>
      <trkpt lat="47.503557968884706" lon="18.958203010261059">
        <ele>431.63400000000001</ele>
        <time>2010-02-06T18:36:59Z</time>
      </trkpt>
      <trkpt lat="47.503578001633286" lon="18.958139978349209">
        <ele>431.166</ele>
        <time>2010-02-06T18:37:01Z</time>
      </trkpt>
      <trkpt lat="47.50358697026968" lon="18.958077030256391">
        <ele>431.399</ele>
        <time>2010-02-06T18:37:03Z</time>
      </trkpt>
      <trkpt lat="47.503597028553486" lon="18.958018021658063">
        <ele>431.32400000000001</ele>
        <time>2010-02-06T18:37:05Z</time>
      </trkpt>
      <trkpt lat="47.50362996943295" lon="18.95794996060431">
        <ele>431.49299999999999</ele>
        <time>2010-02-06T18:37:07Z</time>
      </trkpt>
      <trkpt lat="47.503646984696388" lon="18.957889024168253">
        <ele>431.42000000000002</ele>
        <time>2010-02-06T18:37:09Z</time>
      </trkpt>
      <trkpt lat="47.503658970817924" lon="18.957821968942881">
        <ele>431.17000000000002</ele>
        <time>2010-02-06T18:37:11Z</time>
      </trkpt>
      <trkpt lat="47.503653019666672" lon="18.957765977829695">
        <ele>430.15800000000002</ele>
        <time>2010-02-06T18:37:13Z</time>
      </trkpt>
      <trkpt lat="47.503661988303065" lon="18.957713004201651">
        <ele>430.63</ele>
        <time>2010-02-06T18:37:15Z</time>
      </trkpt>
      <trkpt lat="47.503663999959826" lon="18.957662964239717">
        <ele>430.64400000000001</ele>
        <time>2010-02-06T18:37:17Z</time>
      </trkpt>
      <trkpt lat="47.503697024658322" lon="18.957604039460421">
        <ele>430.572</ele>
        <time>2010-02-06T18:37:19Z</time>
      </trkpt>
      <trkpt lat="47.503709010779858" lon="18.957541007548571">
        <ele>430.88900000000001</ele>
        <time>2010-02-06T18:37:21Z</time>
      </trkpt>
      <trkpt lat="47.503717979416251" lon="18.957486022263765">
        <ele>430.11799999999999</ele>
        <time>2010-02-06T18:37:23Z</time>
      </trkpt>
      <trkpt lat="47.503752009943128" lon="18.957420978695154">
        <ele>430.23700000000002</ele>
        <time>2010-02-06T18:37:25Z</time>
      </trkpt>
      <trkpt lat="47.503777993842959" lon="18.957361970096827">
        <ele>430.53899999999999</ele>
        <time>2010-02-06T18:37:27Z</time>
      </trkpt>
      <trkpt lat="47.503815041854978" lon="18.957307990640402">
        <ele>429.904</ele>
        <time>2010-02-06T18:37:29Z</time>
      </trkpt>
      <trkpt lat="47.503854017704725" lon="18.957255017012358">
        <ele>429.72899999999998</ele>
        <time>2010-02-06T18:37:31Z</time>
      </trkpt>
      <trkpt lat="47.503878995776176" lon="18.957200031727552">
        <ele>429.12</ele>
        <time>2010-02-06T18:37:33Z</time>
      </trkpt>
      <trkpt lat="47.503913026303053" lon="18.957126019522548">
        <ele>429.15699999999998</ele>
        <time>2010-02-06T18:37:35Z</time>
      </trkpt>
      <trkpt lat="47.503933981060982" lon="18.957060975953937">
        <ele>429.45100000000002</ele>
        <time>2010-02-06T18:37:37Z</time>
      </trkpt>
      <trkpt lat="47.50395099632442" lon="18.957012025639415">
        <ele>429.23099999999999</ele>
        <time>2010-02-06T18:37:39Z</time>
      </trkpt>
      <trkpt lat="47.503971029073" lon="18.956956034526229">
        <ele>428.935</ele>
        <time>2010-02-06T18:37:41Z</time>
      </trkpt>
      <trkpt lat="47.503996007144451" lon="18.956909012049437">
        <ele>428.97699999999998</ele>
        <time>2010-02-06T18:37:43Z</time>
      </trkpt>
      <trkpt lat="47.504026014357805" lon="18.956846985965967">
        <ele>428.44999999999999</ele>
        <time>2010-02-06T18:37:45Z</time>
      </trkpt>
      <trkpt lat="47.504003969952464" lon="18.956774985417724">
        <ele>428.22899999999998</ele>
        <time>2010-02-06T18:37:49Z</time>
      </trkpt>
      <trkpt lat="47.503958037123084" lon="18.956721005961299">
        <ele>427.31999999999999</ele>
        <time>2010-02-06T18:37:52Z</time>
      </trkpt>
      <trkpt lat="47.503948984667659" lon="18.956660991534591">
        <ele>425.92399999999998</ele>
        <time>2010-02-06T18:37:55Z</time>
      </trkpt>
      <trkpt lat="47.503915959969163" lon="18.956558983772993">
        <ele>425.20999999999998</ele>
        <time>2010-02-06T18:38:03Z</time>
      </trkpt>
      <trkpt lat="47.503939010202885" lon="18.956510033458471">
        <ele>424.64800000000002</ele>
        <time>2010-02-06T18:38:05Z</time>
      </trkpt>
      <trkpt lat="47.503955019637942" lon="18.95646502263844">
        <ele>424.05700000000002</ele>
        <time>2010-02-06T18:38:07Z</time>
      </trkpt>
      <trkpt lat="47.503963988274336" lon="18.956416994333267">
        <ele>424.661</ele>
        <time>2010-02-06T18:38:10Z</time>
      </trkpt>
      <trkpt lat="47.503961976617575" lon="18.956341976299882">
        <ele>424.35700000000003</ele>
        <time>2010-02-06T18:38:13Z</time>
      </trkpt>
      <trkpt lat="47.503963988274336" lon="18.956264024600387">
        <ele>423.32999999999998</ele>
        <time>2010-02-06T18:38:15Z</time>
      </trkpt>
      <trkpt lat="47.503972034901381" lon="18.956194035708904">
        <ele>422.661</ele>
        <time>2010-02-06T18:38:17Z</time>
      </trkpt>
      <trkpt lat="47.503960970789194" lon="18.95612396299839">
        <ele>423.20600000000002</ele>
        <time>2010-02-06T18:38:19Z</time>
      </trkpt>
      <trkpt lat="47.503959964960814" lon="18.956051040440798">
        <ele>421.98899999999998</ele>
        <time>2010-02-06T18:38:21Z</time>
      </trkpt>
      <trkpt lat="47.503958959132433" lon="18.955981973558664">
        <ele>421.60399999999998</ele>
        <time>2010-02-06T18:38:23Z</time>
      </trkpt>
      <trkpt lat="47.503949990496039" lon="18.95590796135366">
        <ele>421.20699999999999</ele>
        <time>2010-02-06T18:38:25Z</time>
      </trkpt>
      <trkpt lat="47.503939010202885" lon="18.955826992169023">
        <ele>420.68299999999999</ele>
        <time>2010-02-06T18:38:27Z</time>
      </trkpt>
      <trkpt lat="47.503920989111066" lon="18.955749040469527">
        <ele>420.37400000000002</ele>
        <time>2010-02-06T18:38:29Z</time>
      </trkpt>
      <trkpt lat="47.503912020474672" lon="18.955682991072536">
        <ele>419.53699999999998</ele>
        <time>2010-02-06T18:38:31Z</time>
      </trkpt>
      <trkpt lat="47.503909002989531" lon="18.955605961382389">
        <ele>418.46199999999999</ele>
        <time>2010-02-06T18:38:33Z</time>
      </trkpt>
      <trkpt lat="47.503893999382854" lon="18.955525998026133">
        <ele>417.70699999999999</ele>
        <time>2010-02-06T18:38:35Z</time>
      </trkpt>
      <trkpt lat="47.503870027139783" lon="18.955450979992747">
        <ele>417.25799999999998</ele>
        <time>2010-02-06T18:38:37Z</time>
      </trkpt>
      <trkpt lat="47.503840019926429" lon="18.955378979444504">
        <ele>416.178</ele>
        <time>2010-02-06T18:38:39Z</time>
      </trkpt>
      <trkpt lat="47.503819987177849" lon="18.955309996381402">
        <ele>415.89800000000002</ele>
        <time>2010-02-06T18:38:41Z</time>
      </trkpt>
      <trkpt lat="47.503811018541455" lon="18.95524000748992">
        <ele>414.56200000000001</ele>
        <time>2010-02-06T18:38:43Z</time>
      </trkpt>
      <trkpt lat="47.503798026591539" lon="18.955169012770057">
        <ele>414.36200000000002</ele>
        <time>2010-02-06T18:38:45Z</time>
      </trkpt>
      <trkpt lat="47.50377899967134" lon="18.955102963373065">
        <ele>413.82400000000001</ele>
        <time>2010-02-06T18:38:47Z</time>
      </trkpt>
      <trkpt lat="47.503768019378185" lon="18.955031968653202">
        <ele>413.44999999999999</ele>
        <time>2010-02-06T18:38:49Z</time>
      </trkpt>
      <trkpt lat="47.503753015771508" lon="18.954971032217145">
        <ele>412.76299999999998</ele>
        <time>2010-02-06T18:38:51Z</time>
      </trkpt>
      <trkpt lat="47.503738012164831" lon="18.954902971163392">
        <ele>411.83300000000003</ele>
        <time>2010-02-06T18:38:53Z</time>
      </trkpt>
      <trkpt lat="47.503710016608238" lon="18.954851003363729">
        <ele>411.91000000000003</ele>
        <time>2010-02-06T18:38:55Z</time>
      </trkpt>
      <trkpt lat="47.503660982474685" lon="18.954823007807136">
        <ele>411.255</ele>
        <time>2010-02-06T18:38:57Z</time>
      </trkpt>
      <trkpt lat="47.503613037988544" lon="18.954776991158724">
        <ele>410.97800000000001</ele>
        <time>2010-02-06T18:39:00Z</time>
      </trkpt>
      <trkpt lat="47.503554029390216" lon="18.954743966460228">
        <ele>410.209</ele>
        <time>2010-02-06T18:39:02Z</time>
      </trkpt>
      <trkpt lat="47.503514969721437" lon="18.954702978953719">
        <ele>409.92899999999997</ele>
        <time>2010-02-06T18:39:04Z</time>
      </trkpt>
      <trkpt lat="47.503470964729786" lon="18.954646987840533">
        <ele>409.20600000000002</ele>
        <time>2010-02-06T18:39:06Z</time>
      </trkpt>
      <trkpt lat="47.503446992486715" lon="18.954612035304308">
        <ele>409.35300000000001</ele>
        <time>2010-02-06T18:39:08Z</time>
      </trkpt>
      <trkpt lat="47.503397958353162" lon="18.954573981463909">
        <ele>408.39100000000002</ele>
        <time>2010-02-06T18:39:10Z</time>
      </trkpt>
      <trkpt lat="47.503354037180543" lon="18.954526036977768">
        <ele>408.37900000000002</ele>
        <time>2010-02-06T18:39:12Z</time>
      </trkpt>
      <trkpt lat="47.503316989168525" lon="18.954483037814498">
        <ele>407.42599999999999</ele>
        <time>2010-02-06T18:39:14Z</time>
      </trkpt>
      <trkpt lat="47.503287987783551" lon="18.954438026994467">
        <ele>407.72199999999998</ele>
        <time>2010-02-06T18:39:16Z</time>
      </trkpt>
      <trkpt lat="47.503257980570197" lon="18.954409025609493">
        <ele>407.39600000000002</ele>
        <time>2010-02-06T18:39:18Z</time>
      </trkpt>
      <trkpt lat="47.503240965306759" lon="18.954384969547391">
        <ele>407.04000000000002</ele>
        <time>2010-02-06T18:39:20Z</time>
      </trkpt>
      <trkpt lat="47.50317701138556" lon="18.954352028667927">
        <ele>406.60199999999998</ele>
        <time>2010-02-06T18:39:22Z</time>
      </trkpt>
      <trkpt lat="47.50311397947371" lon="18.954335013404489">
        <ele>405.92200000000003</ele>
        <time>2010-02-06T18:39:24Z</time>
      </trkpt>
      <trkpt lat="47.503057988360524" lon="18.954311041161418">
        <ele>405.71600000000001</ele>
        <time>2010-02-06T18:39:26Z</time>
      </trkpt>
      <trkpt lat="47.502995962277055" lon="18.954276004806161">
        <ele>405.17399999999998</ele>
        <time>2010-02-06T18:39:28Z</time>
      </trkpt>
      <trkpt lat="47.502958998084068" lon="18.954253038391471">
        <ele>404.173</ele>
        <time>2010-02-06T18:39:30Z</time>
      </trkpt>
      <trkpt lat="47.502915998920798" lon="18.954227976500988">
        <ele>403.21100000000001</ele>
        <time>2010-02-06T18:39:32Z</time>
      </trkpt>
      <trkpt lat="47.502880962565541" lon="18.954195035621524">
        <ele>402.23700000000002</ele>
        <time>2010-02-06T18:39:34Z</time>
      </trkpt>
      <trkpt lat="47.502823965623975" lon="18.954152958467603">
        <ele>401.65600000000001</ele>
        <time>2010-02-06T18:39:36Z</time>
      </trkpt>
      <trkpt lat="47.50279001891613" lon="18.954109959304333">
        <ele>399.21699999999998</ele>
        <time>2010-02-06T18:39:38Z</time>
      </trkpt>
      <trkpt lat="47.502745008096099" lon="18.95408196374774">
        <ele>398.48700000000002</ele>
        <time>2010-02-06T18:39:40Z</time>
      </trkpt>
      <trkpt lat="47.502689016982913" lon="18.95406000316143">
        <ele>397.471</ele>
        <time>2010-02-06T18:39:43Z</time>
      </trkpt>
      <trkpt lat="47.502645011991262" lon="18.953998982906342">
        <ele>397.00900000000001</ele>
        <time>2010-02-06T18:39:46Z</time>
      </trkpt>
      <trkpt lat="47.502603018656373" lon="18.953954977914691">
        <ele>396.28699999999998</ele>
        <time>2010-02-06T18:39:48Z</time>
      </trkpt>
      <trkpt lat="47.502565970644355" lon="18.953922959044576">
        <ele>396.17099999999999</ele>
        <time>2010-02-06T18:39:50Z</time>
      </trkpt>
      <trkpt lat="47.502535041421652" lon="18.953890018165112">
        <ele>396.13999999999999</ele>
        <time>2010-02-06T18:39:52Z</time>
      </trkpt>
      <trkpt lat="47.502495981752872" lon="18.953850958496332">
        <ele>396.03699999999998</ele>
        <time>2010-02-06T18:39:54Z</time>
      </trkpt>
      <trkpt lat="47.502452982589602" lon="18.953825980424881">
        <ele>394.93900000000002</ele>
        <time>2010-02-06T18:39:56Z</time>
      </trkpt>
      <trkpt lat="47.502395985648036" lon="18.953813994303346">
        <ele>395.06299999999999</ele>
        <time>2010-02-06T18:39:58Z</time>
      </trkpt>
      <trkpt lat="47.502351980656385" lon="18.953826986253262">
        <ele>394.60700000000003</ele>
        <time>2010-02-06T18:40:00Z</time>
      </trkpt>
      <trkpt lat="47.502309987321496" lon="18.953841989859939">
        <ele>394.226</ele>
        <time>2010-02-06T18:40:02Z</time>
      </trkpt>
      <trkpt lat="47.50225399620831" lon="18.953816005960107">
        <ele>394.79399999999998</ele>
        <time>2010-02-06T18:40:06Z</time>
      </trkpt>
      <trkpt lat="47.502306969836354" lon="18.953722966834903">
        <ele>393.59399999999999</ele>
        <time>2010-02-06T18:40:32Z</time>
      </trkpt>
      <trkpt lat="47.502337982878089" lon="18.953697988763452">
        <ele>394.19900000000001</ele>
        <time>2010-02-06T18:40:37Z</time>
      </trkpt>
      <trkpt lat="47.502364972606301" lon="18.953659012913704">
        <ele>394.34399999999999</ele>
        <time>2010-02-06T18:40:41Z</time>
      </trkpt>
      <trkpt lat="47.502400008961558" lon="18.953619031235576">
        <ele>393.26999999999998</ele>
        <time>2010-02-06T18:40:44Z</time>
      </trkpt>
      <trkpt lat="47.502430016174912" lon="18.953579971566796">
        <ele>392.32499999999999</ele>
        <time>2010-02-06T18:40:46Z</time>
      </trkpt>
      <trkpt lat="47.502475026994944" lon="18.953539989888668">
        <ele>391.14400000000001</ele>
        <time>2010-02-06T18:40:48Z</time>
      </trkpt>
      <trkpt lat="47.502503022551537" lon="18.953494979068637">
        <ele>390.00999999999999</ele>
        <time>2010-02-06T18:40:50Z</time>
      </trkpt>
      <trkpt lat="47.502528000622988" lon="18.953443011268973">
        <ele>388.77600000000001</ele>
        <time>2010-02-06T18:40:52Z</time>
      </trkpt>
      <trkpt lat="47.502538980916142" lon="18.953376961871982">
        <ele>388.42500000000001</ele>
        <time>2010-02-06T18:40:54Z</time>
      </trkpt>
      <trkpt lat="47.5025549903512" lon="18.953314013779163">
        <ele>388.28199999999998</ele>
        <time>2010-02-06T18:40:57Z</time>
      </trkpt>
      <trkpt lat="47.502573011443019" lon="18.953263973817229">
        <ele>387.45299999999997</ele>
        <time>2010-02-06T18:40:59Z</time>
      </trkpt>
      <trkpt lat="47.502603018656373" lon="18.953218040987849">
        <ele>386.79199999999997</ele>
        <time>2010-02-06T18:41:01Z</time>
      </trkpt>
      <trkpt lat="47.502629002556205" lon="18.953175041824579">
        <ele>386.25299999999999</ele>
        <time>2010-02-06T18:41:03Z</time>
      </trkpt>
      <trkpt lat="47.502660015597939" lon="18.953137993812561">
        <ele>385.58100000000002</ele>
        <time>2010-02-06T18:41:05Z</time>
      </trkpt>
      <trkpt lat="47.502678036689758" lon="18.953100023791194">
        <ele>385.62799999999999</ele>
        <time>2010-02-06T18:41:07Z</time>
      </trkpt>
      <trkpt lat="47.502691028639674" lon="18.953074961900711">
        <ele>385.18799999999999</ele>
        <time>2010-02-06T18:41:09Z</time>
      </trkpt>
      <trkpt lat="47.502728998661041" lon="18.953035986050963">
        <ele>384.67000000000002</ele>
        <time>2010-02-06T18:41:11Z</time>
      </trkpt>
      <trkpt lat="47.502753976732492" lon="18.953012013807893">
        <ele>384.36799999999999</ele>
        <time>2010-02-06T18:41:13Z</time>
      </trkpt>
      <trkpt lat="47.502792030572891" lon="18.952965997159481">
        <ele>384.50700000000001</ele>
        <time>2010-02-06T18:41:15Z</time>
      </trkpt>
      <trkpt lat="47.502822037786245" lon="18.952922997996211">
        <ele>384.09199999999998</ele>
        <time>2010-02-06T18:41:17Z</time>
      </trkpt>
      <trkpt lat="47.502848021686077" lon="18.952860971912742">
        <ele>383.05599999999998</ele>
        <time>2010-02-06T18:41:20Z</time>
      </trkpt>
      <trkpt lat="47.502885991707444" lon="18.952811015769839">
        <ele>383.041</ele>
        <time>2010-02-06T18:41:22Z</time>
      </trkpt>
      <trkpt lat="47.502913987264037" lon="18.952757958322763">
        <ele>381.94400000000002</ele>
        <time>2010-02-06T18:41:24Z</time>
      </trkpt>
      <trkpt lat="47.502926979213953" lon="18.952689981088042">
        <ele>382.39600000000002</ele>
        <time>2010-02-06T18:41:27Z</time>
      </trkpt>
      <trkpt lat="47.502935025840998" lon="18.95264103077352">
        <ele>380.66500000000002</ele>
        <time>2010-02-06T18:41:29Z</time>
      </trkpt>
      <trkpt lat="47.502946006134152" lon="18.952590990811586">
        <ele>380.64699999999999</ele>
        <time>2010-02-06T18:41:31Z</time>
      </trkpt>
      <trkpt lat="47.502987999469042" lon="18.952551009133458">
        <ele>381.01799999999997</ele>
        <time>2010-02-06T18:41:33Z</time>
      </trkpt>
      <trkpt lat="47.503001997247338" lon="18.952505998313427">
        <ele>379.733</ele>
        <time>2010-02-06T18:41:35Z</time>
      </trkpt>
      <trkpt lat="47.503024963662028" lon="18.952456964179873">
        <ele>379.31700000000001</ele>
        <time>2010-02-06T18:41:37Z</time>
      </trkpt>
      <trkpt lat="47.503038961440325" lon="18.952397033572197">
        <ele>379.13</ele>
        <time>2010-02-06T18:41:39Z</time>
      </trkpt>
      <trkpt lat="47.503062011674047" lon="18.952355962246656">
        <ele>378.26900000000001</ele>
        <time>2010-02-06T18:41:41Z</time>
      </trkpt>
      <trkpt lat="47.503083972260356" lon="18.952299971133471">
        <ele>377.40100000000001</ele>
        <time>2010-02-06T18:41:43Z</time>
      </trkpt>
      <trkpt lat="47.503129988908768" lon="18.95225403830409">
        <ele>376.42899999999997</ele>
        <time>2010-02-06T18:41:45Z</time>
      </trkpt>
      <trkpt lat="47.503150021657348" lon="18.952211039140821">
        <ele>375.738</ele>
        <time>2010-02-06T18:41:47Z</time>
      </trkpt>
      <trkpt lat="47.503172988072038" lon="18.952155970036983">
        <ele>375.56599999999997</ele>
        <time>2010-02-06T18:41:50Z</time>
      </trkpt>
      <trkpt lat="47.503204001113772" lon="18.952112970873713">
        <ele>375.22500000000002</ele>
        <time>2010-02-06T18:41:53Z</time>
      </trkpt>
      <trkpt lat="47.503224033862352" lon="18.952062008902431">
        <ele>375.30000000000001</ele>
        <time>2010-02-06T18:41:56Z</time>
      </trkpt>
      <trkpt lat="47.503247000277042" lon="18.952009035274386">
        <ele>374.62</ele>
        <time>2010-02-06T18:41:59Z</time>
      </trkpt>
      <trkpt lat="47.503257980570197" lon="18.951953966170549">
        <ele>374.815</ele>
        <time>2010-02-06T18:42:02Z</time>
      </trkpt>
      <trkpt lat="47.503267033025622" lon="18.951891018077731">
        <ele>374.17200000000003</ele>
        <time>2010-02-06T18:42:05Z</time>
      </trkpt>
      <trkpt lat="47.503313971683383" lon="18.951759003102779">
        <ele>373.59899999999999</ele>
        <time>2010-02-06T18:42:15Z</time>
      </trkpt>
      <trkpt lat="47.503341967239976" lon="18.951682979241014">
        <ele>373.005</ele>
        <time>2010-02-06T18:42:21Z</time>
      </trkpt>
      <trkpt lat="47.503400975838304" lon="18.951635034754872">
        <ele>372.71199999999999</ele>
        <time>2010-02-06T18:42:24Z</time>
      </trkpt>
      <trkpt lat="47.503445986658335" lon="18.951613996177912">
        <ele>372.91899999999998</ele>
        <time>2010-02-06T18:42:26Z</time>
      </trkpt>
      <trkpt lat="47.503482028841972" lon="18.951591029763222">
        <ele>372.90499999999997</ele>
        <time>2010-02-06T18:42:28Z</time>
      </trkpt>
      <trkpt lat="47.503506001085043" lon="18.951554987579584">
        <ele>372.81799999999998</ele>
        <time>2010-02-06T18:42:31Z</time>
      </trkpt>
      <trkpt lat="47.503568027168512" lon="18.951501008123159">
        <ele>372.45699999999999</ele>
        <time>2010-02-06T18:42:34Z</time>
      </trkpt>
      <trkpt lat="47.503601973876357" lon="18.951463960111141">
        <ele>371.13200000000001</ele>
        <time>2010-02-06T18:42:37Z</time>
      </trkpt>
      <trkpt lat="47.503619994968176" lon="18.951425990089774">
        <ele>371.66500000000002</ele>
        <time>2010-02-06T18:42:40Z</time>
      </trkpt>
      <trkpt lat="47.503687972202897" lon="18.951386008411646">
        <ele>371.245</ele>
        <time>2010-02-06T18:42:43Z</time>
      </trkpt>
      <trkpt lat="47.50371303409338" lon="18.951336974278092">
        <ele>370.16000000000003</ele>
        <time>2010-02-06T18:42:49Z</time>
      </trkpt>
      <trkpt lat="47.503740023821592" lon="18.951297998428345">
        <ele>369.44900000000001</ele>
        <time>2010-02-06T18:42:52Z</time>
      </trkpt>
      <trkpt lat="47.503765001893044" lon="18.951259022578597">
        <ele>368.80200000000002</ele>
        <time>2010-02-06T18:42:55Z</time>
      </trkpt>
      <trkpt lat="47.503820993006229" lon="18.951229015365243">
        <ele>368.16500000000002</ele>
        <time>2010-02-06T18:42:59Z</time>
      </trkpt>
      <trkpt lat="47.503859968855977" lon="18.951194984838367">
        <ele>367.726</ele>
        <time>2010-02-06T18:43:02Z</time>
      </trkpt>
      <trkpt lat="47.503918977454305" lon="18.95115802064538">
        <ele>367.61500000000001</ele>
        <time>2010-02-06T18:43:10Z</time>
      </trkpt>
      <trkpt lat="47.503962982445955" lon="18.951136982068419">
        <ele>367.20600000000002</ele>
        <time>2010-02-06T18:43:12Z</time>
      </trkpt>
      <trkpt lat="47.504007993265986" lon="18.951105969026685">
        <ele>366.89600000000002</ele>
        <time>2010-02-06T18:43:14Z</time>
      </trkpt>
      <trkpt lat="47.504045963287354" lon="18.951085014268756">
        <ele>365.98500000000001</ele>
        <time>2010-02-06T18:43:17Z</time>
      </trkpt>
      <trkpt lat="47.504225000739098" lon="18.950977977365255">
        <ele>363.44</ele>
        <time>2010-02-06T18:43:34Z</time>
      </trkpt>
      <trkpt lat="47.504303958266973" lon="18.950934978201985">
        <ele>362.65600000000001</ele>
        <time>2010-02-06T18:43:38Z</time>
      </trkpt>
      <trkpt lat="47.504399009048939" lon="18.950830036774278">
        <ele>362.74299999999999</ele>
        <time>2010-02-06T18:43:46Z</time>
      </trkpt>
      <trkpt lat="47.504430022090673" lon="18.950810004025698">
        <ele>362.19299999999998</ele>
        <time>2010-02-06T18:43:49Z</time>
      </trkpt>
      <trkpt lat="47.504514008760452" lon="18.950772034004331">
        <ele>361.28500000000003</ele>
        <time>2010-02-06T18:43:56Z</time>
      </trkpt>
      <trkpt lat="47.504568994045258" lon="18.95077396184206">
        <ele>360.73399999999998</ele>
        <time>2010-02-06T18:43:59Z</time>
      </trkpt>
      <trkpt lat="47.504630014300346" lon="18.950769016519189">
        <ele>360.44299999999998</ele>
        <time>2010-02-06T18:44:02Z</time>
      </trkpt>
      <trkpt lat="47.504667984321713" lon="18.950772034004331">
        <ele>359.42500000000001</ele>
        <time>2010-02-06T18:44:05Z</time>
      </trkpt>
      <trkpt lat="47.504687011241913" lon="18.950798017904162">
        <ele>359.25400000000002</ele>
        <time>2010-02-06T18:44:08Z</time>
      </trkpt>
      <trkpt lat="47.504712995141745" lon="18.950831964612007">
        <ele>360.04700000000003</ele>
        <time>2010-02-06T18:44:12Z</time>
      </trkpt>
      <trkpt lat="47.504893960431218" lon="18.950901031494141">
        <ele>361.96199999999999</ele>
        <time>2010-02-06T18:44:29Z</time>
      </trkpt>
      <trkpt lat="47.504979036748409" lon="18.951073028147221">
        <ele>362.71300000000002</ele>
        <time>2010-02-06T18:44:44Z</time>
      </trkpt>
      <trkpt lat="47.505013989284635" lon="18.951147962361574">
        <ele>362.46899999999999</ele>
        <time>2010-02-06T18:44:48Z</time>
      </trkpt>
      <trkpt lat="47.505123037844896" lon="18.951170006766915">
        <ele>363.476</ele>
        <time>2010-02-06T18:44:54Z</time>
      </trkpt>
      <trkpt lat="47.50515497289598" lon="18.951124995946884">
        <ele>363.38999999999999</ele>
        <time>2010-02-06T18:44:57Z</time>
      </trkpt>
      <trkpt lat="47.505161007866263" lon="18.951055007055402">
        <ele>363.14600000000002</ele>
        <time>2010-02-06T18:45:00Z</time>
      </trkpt>
      <trkpt lat="47.505192020907998" lon="18.950992980971932">
        <ele>362.36599999999999</ele>
        <time>2010-02-06T18:45:03Z</time>
      </trkpt>
      <trkpt lat="47.505212975665927" lon="18.95094302482903">
        <ele>361.40199999999999</ele>
        <time>2010-02-06T18:45:06Z</time>
      </trkpt>
      <trkpt lat="47.505246000364423" lon="18.950883010402322">
        <ele>359.50400000000002</ele>
        <time>2010-02-06T18:45:10Z</time>
      </trkpt>
      <trkpt lat="47.505279025062919" lon="18.950845040380955">
        <ele>359.214</ele>
        <time>2010-02-06T18:45:13Z</time>
      </trkpt>
      <trkpt lat="47.505312971770763" lon="18.950776979327202">
        <ele>358.91000000000003</ele>
        <time>2010-02-06T18:45:17Z</time>
      </trkpt>
      <trkpt lat="47.505337027832866" lon="18.950725011527538">
        <ele>358.14699999999999</ele>
        <time>2010-02-06T18:45:20Z</time>
      </trkpt>
      <trkpt lat="47.505378015339375" lon="18.950641024857759">
        <ele>356.66199999999998</ele>
        <time>2010-02-06T18:45:24Z</time>
      </trkpt>
      <trkpt lat="47.505424031987786" lon="18.950610011816025">
        <ele>356.50900000000001</ele>
        <time>2010-02-06T18:45:27Z</time>
      </trkpt>
      <trkpt lat="47.505444986745715" lon="18.950576987117529">
        <ele>355.88600000000002</ele>
        <time>2010-02-06T18:45:30Z</time>
      </trkpt>
      <trkpt lat="47.505483040586114" lon="18.950495012104511">
        <ele>355.29300000000001</ele>
        <time>2010-02-06T18:45:34Z</time>
      </trkpt>
      <trkpt lat="47.505440041422844" lon="18.950399961322546">
        <ele>354.46800000000002</ele>
        <time>2010-02-06T18:45:39Z</time>
      </trkpt>
      <trkpt lat="47.505452027544379" lon="18.950356040149927">
        <ele>353.83999999999997</ele>
        <time>2010-02-06T18:45:42Z</time>
      </trkpt>
      <trkpt lat="47.505474993959069" lon="18.95034296438098">
        <ele>354.18799999999999</ele>
        <time>2010-02-06T18:45:45Z</time>
      </trkpt>
      <trkpt lat="47.505521010607481" lon="18.950316980481148">
        <ele>353.74599999999998</ele>
        <time>2010-02-06T18:45:48Z</time>
      </trkpt>
      <trkpt lat="47.505557974800467" lon="18.950264006853104">
        <ele>353.04700000000003</ele>
        <time>2010-02-06T18:45:51Z</time>
      </trkpt>
      <trkpt lat="47.50558597035706" lon="18.950198963284492">
        <ele>352.95499999999998</ele>
        <time>2010-02-06T18:45:55Z</time>
      </trkpt>
      <trkpt lat="47.505616983398795" lon="18.95017197355628">
        <ele>353.387</ele>
        <time>2010-02-06T18:45:58Z</time>
      </trkpt>
      <trkpt lat="47.505640033632517" lon="18.950124029070139">
        <ele>352.81700000000001</ele>
        <time>2010-02-06T18:46:01Z</time>
      </trkpt>
      <trkpt lat="47.505641039460897" lon="18.950071977451444">
        <ele>350.95499999999998</ele>
        <time>2010-02-06T18:46:04Z</time>
      </trkpt>
      <trkpt lat="47.50573500059545" lon="18.950007017701864">
        <ele>350.89999999999998</ele>
        <time>2010-02-06T18:46:12Z</time>
      </trkpt>
      <trkpt lat="47.505750004202127" lon="18.949931999668479">
        <ele>350.08300000000003</ele>
        <time>2010-02-06T18:46:16Z</time>
      </trkpt>
      <trkpt lat="47.505758972838521" lon="18.949894029647112">
        <ele>349</ele>
        <time>2010-02-06T18:46:19Z</time>
      </trkpt>
      <trkpt lat="47.505940021947026" lon="18.949957983568311">
        <ele>346.55000000000001</ele>
        <time>2010-02-06T18:46:33Z</time>
      </trkpt>
      <trkpt lat="47.5059499964118" lon="18.949838960543275">
        <ele>348.32999999999998</ele>
        <time>2010-02-06T18:46:41Z</time>
      </trkpt>
      <trkpt lat="47.505977991968393" lon="18.949763020500541">
        <ele>348.93799999999999</ele>
        <time>2010-02-06T18:46:44Z</time>
      </trkpt>
      <trkpt lat="47.506004981696606" lon="18.949667969718575">
        <ele>349.10300000000001</ele>
        <time>2010-02-06T18:46:48Z</time>
      </trkpt>
      <trkpt lat="47.506027026101947" lon="18.949606027454138">
        <ele>349.63</ele>
        <time>2010-02-06T18:46:52Z</time>
      </trkpt>
      <trkpt lat="47.506059966981411" lon="18.949528997763991">
        <ele>348.01100000000002</ele>
        <time>2010-02-06T18:46:57Z</time>
      </trkpt>
      <trkpt lat="47.506096009165049" lon="18.949456997215748">
        <ele>347.86599999999999</ele>
        <time>2010-02-06T18:47:00Z</time>
      </trkpt>
      <trkpt lat="47.506115958094597" lon="18.949389019981027">
        <ele>347.05799999999999</ele>
        <time>2010-02-06T18:47:03Z</time>
      </trkpt>
      <trkpt lat="47.506091985851526" lon="18.949248036369681">
        <ele>345.339</ele>
        <time>2010-02-06T18:47:11Z</time>
      </trkpt>
      <trkpt lat="47.506106989458203" lon="18.949157008901238">
        <ele>342.91199999999998</ele>
        <time>2010-02-06T18:47:16Z</time>
      </trkpt>
      <trkpt lat="47.506140014156699" lon="18.94907696172595">
        <ele>341.77300000000002</ele>
        <time>2010-02-06T18:47:21Z</time>
      </trkpt>
      <trkpt lat="47.506182007491589" lon="18.948985012248158">
        <ele>340.17500000000001</ele>
        <time>2010-02-06T18:47:26Z</time>
      </trkpt>
      <trkpt lat="47.506212014704943" lon="18.948908988386393">
        <ele>340.20100000000002</ele>
        <time>2010-02-06T18:47:30Z</time>
      </trkpt>
      <trkpt lat="47.506237998604774" lon="18.948847968131304">
        <ele>339.92000000000002</ele>
        <time>2010-02-06T18:47:33Z</time>
      </trkpt>
      <trkpt lat="47.506258031353354" lon="18.948774039745331">
        <ele>339.79500000000002</ele>
        <time>2010-02-06T18:47:37Z</time>
      </trkpt>
      <trkpt lat="47.506268005818129" lon="18.94870899617672">
        <ele>338.57400000000001</ele>
        <time>2010-02-06T18:47:39Z</time>
      </trkpt>
      <trkpt lat="47.506294995546341" lon="18.948599025607109">
        <ele>337.85899999999998</ele>
        <time>2010-02-06T18:47:44Z</time>
      </trkpt>
      <trkpt lat="47.50631402246654" lon="18.948540017008781">
        <ele>337.61399999999998</ele>
        <time>2010-02-06T18:47:48Z</time>
      </trkpt>
      <trkpt lat="47.506346041336656" lon="18.948438009247184">
        <ele>335.73599999999999</ele>
        <time>2010-02-06T18:47:53Z</time>
      </trkpt>
      <trkpt lat="47.506403038278222" lon="18.948336001485586">
        <ele>335.28399999999999</ele>
        <time>2010-02-06T18:48:01Z</time>
      </trkpt>
      <trkpt lat="47.506469003856182" lon="18.94825897179544">
        <ele>334.55099999999999</ele>
        <time>2010-02-06T18:48:07Z</time>
      </trkpt>
      <trkpt lat="47.506476966664195" lon="18.948202980682254">
        <ele>334.63299999999998</ele>
        <time>2010-02-06T18:48:10Z</time>
      </trkpt>
      <trkpt lat="47.506523989140987" lon="18.948127962648869">
        <ele>333.72399999999999</ele>
        <time>2010-02-06T18:48:13Z</time>
      </trkpt>
      <trkpt lat="47.506556008011103" lon="18.948042970150709">
        <ele>332.36599999999999</ele>
        <time>2010-02-06T18:48:16Z</time>
      </trkpt>
      <trkpt lat="47.506562964990735" lon="18.947966024279594">
        <ele>331.65600000000001</ele>
        <time>2010-02-06T18:48:21Z</time>
      </trkpt>
      <trkpt lat="47.506553996354342" lon="18.947910033166409">
        <ele>331.85500000000002</ele>
        <time>2010-02-06T18:48:23Z</time>
      </trkpt>
      <trkpt lat="47.506541004404426" lon="18.947857981547713">
        <ele>331.798</ele>
        <time>2010-02-06T18:48:26Z</time>
      </trkpt>
      <trkpt lat="47.50652801245451" lon="18.947739964351058">
        <ele>331.28100000000001</ele>
        <time>2010-02-06T18:48:32Z</time>
      </trkpt>
      <trkpt lat="47.506519965827465" lon="18.947649020701647">
        <ele>331.32499999999999</ele>
        <time>2010-02-06T18:48:36Z</time>
      </trkpt>
      <trkpt lat="47.506501022726297" lon="18.947585988789797">
        <ele>330.01499999999999</ele>
        <time>2010-02-06T18:48:39Z</time>
      </trkpt>
      <trkpt lat="47.506480989977717" lon="18.947537038475275">
        <ele>329.68799999999999</ele>
        <time>2010-02-06T18:48:42Z</time>
      </trkpt>
      <trkpt lat="47.506461963057518" lon="18.947464032098651">
        <ele>328.09300000000002</ele>
        <time>2010-02-06T18:48:47Z</time>
      </trkpt>
      <trkpt lat="47.506438996642828" lon="18.947390019893646">
        <ele>327.75900000000001</ele>
        <time>2010-02-06T18:48:51Z</time>
      </trkpt>
      <trkpt lat="47.506405971944332" lon="18.947321958839893">
        <ele>327.012</ele>
        <time>2010-02-06T18:48:54Z</time>
      </trkpt>
      <trkpt lat="47.506384011358023" lon="18.94727099686861">
        <ele>326.65699999999998</ele>
        <time>2010-02-06T18:48:57Z</time>
      </trkpt>
      <trkpt lat="47.506398009136319" lon="18.94720503129065">
        <ele>325.63900000000001</ele>
        <time>2010-02-06T18:49:03Z</time>
      </trkpt>
      <trkpt lat="47.506413012742996" lon="18.947139987722039">
        <ele>324.89600000000002</ele>
        <time>2010-02-06T18:49:07Z</time>
      </trkpt>
      <trkpt lat="47.506406977772713" lon="18.947062036022544">
        <ele>323.69499999999999</ele>
        <time>2010-02-06T18:49:11Z</time>
      </trkpt>
      <trkpt lat="47.506417036056519" lon="18.947002021595836">
        <ele>323.976</ele>
        <time>2010-02-06T18:49:14Z</time>
      </trkpt>
      <trkpt lat="47.506428016349673" lon="18.946930021047592">
        <ele>323.63999999999999</ele>
        <time>2010-02-06T18:49:17Z</time>
      </trkpt>
      <trkpt lat="47.506441008299589" lon="18.946880986914039">
        <ele>322.72399999999999</ele>
        <time>2010-02-06T18:49:19Z</time>
      </trkpt>
      <trkpt lat="47.506450982764363" lon="18.946853997185826">
        <ele>322.87700000000001</ele>
        <time>2010-02-06T18:49:22Z</time>
      </trkpt>
      <trkpt lat="47.506472021341324" lon="18.946802029386163">
        <ele>323.22699999999998</ele>
        <time>2010-02-06T18:49:27Z</time>
      </trkpt>
      <trkpt lat="47.506509991362691" lon="18.94677696749568">
        <ele>323.07900000000001</ele>
        <time>2010-02-06T18:49:30Z</time>
      </trkpt>
      <trkpt lat="47.506547961384058" lon="18.946767998859286">
        <ele>323.54899999999998</ele>
        <time>2010-02-06T18:49:33Z</time>
      </trkpt>
      <trkpt lat="47.506579980254173" lon="18.94673204049468">
        <ele>323.15199999999999</ele>
        <time>2010-02-06T18:49:35Z</time>
      </trkpt>
      <trkpt lat="47.506596995517612" lon="18.94666900858283">
        <ele>323.005</ele>
        <time>2010-02-06T18:49:38Z</time>
      </trkpt>
      <trkpt lat="47.506606969982386" lon="18.946613017469645">
        <ele>323.27999999999997</ele>
        <time>2010-02-06T18:49:40Z</time>
      </trkpt>
      <trkpt lat="47.506604036316276" lon="18.946554008871317">
        <ele>321.673</ele>
        <time>2010-02-06T18:49:43Z</time>
      </trkpt>
      <trkpt lat="47.506618034094572" lon="18.946491982787848">
        <ele>321.93599999999998</ele>
        <time>2010-02-06T18:49:46Z</time>
      </trkpt>
      <trkpt lat="47.50663697719574" lon="18.946430962532759">
        <ele>321.584</ele>
        <time>2010-02-06T18:49:50Z</time>
      </trkpt>
      <trkpt lat="47.506643012166023" lon="18.946376983076334">
        <ele>320.839</ele>
        <time>2010-02-06T18:49:53Z</time>
      </trkpt>
      <trkpt lat="47.506642006337643" lon="18.946312023326755">
        <ele>320.44799999999998</ele>
        <time>2010-02-06T18:49:56Z</time>
      </trkpt>
      <trkpt lat="47.506665978580713" lon="18.94626198336482">
        <ele>320.31400000000002</ele>
        <time>2010-02-06T18:49:59Z</time>
      </trkpt>
      <trkpt lat="47.506694979965687" lon="18.946208003908396">
        <ele>318.56900000000002</ele>
        <time>2010-02-06T18:50:02Z</time>
      </trkpt>
      <trkpt lat="47.506716018542647" lon="18.946156958118081">
        <ele>317.61700000000002</ele>
        <time>2010-02-06T18:50:05Z</time>
      </trkpt>
      <trkpt lat="47.50672297552228" lon="18.946100967004895">
        <ele>316.43200000000002</ele>
        <time>2010-02-06T18:50:07Z</time>
      </trkpt>
      <trkpt lat="47.506719036027789" lon="18.946027960628271">
        <ele>314.92099999999999</ele>
        <time>2010-02-06T18:50:10Z</time>
      </trkpt>
      <trkpt lat="47.506705038249493" lon="18.945926958695054">
        <ele>313.89999999999998</ele>
        <time>2010-02-06T18:50:15Z</time>
      </trkpt>
      <trkpt lat="47.506675031036139" lon="18.945779018104076">
        <ele>309.88600000000002</ele>
        <time>2010-02-06T18:50:24Z</time>
      </trkpt>
      <trkpt lat="47.506690034642816" lon="18.945733001455665">
        <ele>310.13499999999999</ele>
        <time>2010-02-06T18:50:26Z</time>
      </trkpt>
      <trkpt lat="47.506710989400744" lon="18.945678016170859">
        <ele>309.815</ele>
        <time>2010-02-06T18:50:28Z</time>
      </trkpt>
      <trkpt lat="47.506726998835802" lon="18.945612972602248">
        <ele>309.61700000000002</ele>
        <time>2010-02-06T18:50:30Z</time>
      </trkpt>
      <trkpt lat="47.50674401409924" lon="18.945536026731133">
        <ele>308.66800000000001</ele>
        <time>2010-02-06T18:50:32Z</time>
      </trkpt>
      <trkpt lat="47.506749965250492" lon="18.945481963455677">
        <ele>308.39100000000002</ele>
        <time>2010-02-06T18:50:34Z</time>
      </trkpt>
      <trkpt lat="47.506756000220776" lon="18.94542396068573">
        <ele>308.18900000000002</ele>
        <time>2010-02-06T18:50:36Z</time>
      </trkpt>
      <trkpt lat="47.50676698051393" lon="18.945360006764531">
        <ele>307.80399999999997</ele>
        <time>2010-02-06T18:50:38Z</time>
      </trkpt>
      <trkpt lat="47.506773015484214" lon="18.945310972630978">
        <ele>307.94</ele>
        <time>2010-02-06T18:50:40Z</time>
      </trkpt>
      <trkpt lat="47.506806962192059" lon="18.945250036194921">
        <ele>307.69799999999998</ele>
        <time>2010-02-06T18:50:42Z</time>
      </trkpt>
      <trkpt lat="47.50685197301209" lon="18.945181975141168">
        <ele>307.577</ele>
        <time>2010-02-06T18:50:44Z</time>
      </trkpt>
      <trkpt lat="47.506862031295896" lon="18.945147022604942">
        <ele>307.553</ele>
        <time>2010-02-06T18:50:45Z</time>
      </trkpt>
      <trkpt lat="47.506884997710586" lon="18.945094970986247">
        <ele>307.32499999999999</ele>
        <time>2010-02-06T18:50:47Z</time>
      </trkpt>
      <trkpt lat="47.506910981610417" lon="18.945063035935163">
        <ele>307.42099999999999</ele>
        <time>2010-02-06T18:50:48Z</time>
      </trkpt>
      <trkpt lat="47.506931014358997" lon="18.944988017901778">
        <ele>306.988</ele>
        <time>2010-02-06T18:50:50Z</time>
      </trkpt>
      <trkpt lat="47.506939982995391" lon="18.944932026788592">
        <ele>307.04700000000003</ele>
        <time>2010-02-06T18:50:52Z</time>
      </trkpt>
      <trkpt lat="47.506963033229113" lon="18.944891039282084">
        <ele>306.45999999999998</ele>
        <time>2010-02-06T18:50:54Z</time>
      </trkpt>
      <trkpt lat="47.506999997422099" lon="18.94484200514853">
        <ele>306.20499999999998</ele>
        <time>2010-02-06T18:50:56Z</time>
      </trkpt>
      <trkpt lat="47.50702396966517" lon="18.944804035127163">
        <ele>305.97199999999998</ele>
        <time>2010-02-06T18:50:58Z</time>
      </trkpt>
      <trkpt lat="47.50706797465682" lon="18.944762963801622">
        <ele>305.84300000000002</ele>
        <time>2010-02-06T18:51:00Z</time>
      </trkpt>
      <trkpt lat="47.507081972435117" lon="18.944714013487101">
        <ele>306.02600000000001</ele>
        <time>2010-02-06T18:51:02Z</time>
      </trkpt>
      <trkpt lat="47.507097981870174" lon="18.944664979353547">
        <ele>305.346</ele>
        <time>2010-02-06T18:51:04Z</time>
      </trkpt>
      <trkpt lat="47.507113991305232" lon="18.944616029039025">
        <ele>305.34899999999999</ele>
        <time>2010-02-06T18:51:06Z</time>
      </trkpt>
      <trkpt lat="47.507120026275516" lon="18.944559032097459">
        <ele>305.14100000000002</ele>
        <time>2010-02-06T18:51:08Z</time>
      </trkpt>
      <trkpt lat="47.507145004346967" lon="18.944507986307144">
        <ele>305.27999999999997</ele>
        <time>2010-02-06T18:51:10Z</time>
      </trkpt>
      <trkpt lat="47.507162019610405" lon="18.944445038214326">
        <ele>305.36099999999999</ele>
        <time>2010-02-06T18:51:12Z</time>
      </trkpt>
      <trkpt lat="47.507171994075179" lon="18.944373037666082">
        <ele>304.69200000000001</ele>
        <time>2010-02-06T18:51:14Z</time>
      </trkpt>
      <trkpt lat="47.507214993238449" lon="18.944335989654064">
        <ele>304.22500000000002</ele>
        <time>2010-02-06T18:51:16Z</time>
      </trkpt>
      <trkpt lat="47.507255980744958" lon="18.944307994097471">
        <ele>304.41399999999999</ele>
        <time>2010-02-06T18:51:18Z</time>
      </trkpt>
      <trkpt lat="47.507289005443454" lon="18.944298019632697">
        <ele>303.87599999999998</ele>
        <time>2010-02-06T18:51:20Z</time>
      </trkpt>
      <trkpt lat="47.50732203014195" lon="18.944292990490794">
        <ele>304.31400000000002</ele>
        <time>2010-02-06T18:51:22Z</time>
      </trkpt>
      <trkpt lat="47.507352959364653" lon="18.944322997704148">
        <ele>305.423</ele>
        <time>2010-02-06T18:51:26Z</time>
      </trkpt>
      <trkpt lat="47.5075370259583" lon="18.94430598244071">
        <ele>306.22399999999999</ele>
        <time>2010-02-06T18:51:37Z</time>
      </trkpt>
      <trkpt lat="47.507682032883167" lon="18.944357028231025">
        <ele>307.64999999999998</ele>
        <time>2010-02-06T18:51:50Z</time>
      </trkpt>
      <trkpt lat="47.50771002843976" lon="18.944382006302476">
        <ele>308.39100000000002</ele>
        <time>2010-02-06T18:51:53Z</time>
      </trkpt>
      <trkpt lat="47.507786974310875" lon="18.944418970495462">
        <ele>309.03500000000003</ele>
        <time>2010-02-06T18:51:58Z</time>
      </trkpt>
      <trkpt lat="47.507806001231074" lon="18.944448977708817">
        <ele>309.77300000000002</ele>
        <time>2010-02-06T18:52:01Z</time>
      </trkpt>
      <trkpt lat="47.507884036749601" lon="18.944574035704136">
        <ele>309.86599999999999</ele>
        <time>2010-02-06T18:52:12Z</time>
      </trkpt>
      <trkpt lat="47.507875990122557" lon="18.944629020988941">
        <ele>310.79599999999999</ele>
        <time>2010-02-06T18:52:16Z</time>
      </trkpt>
      <trkpt lat="47.507936004549265" lon="18.944672020152211">
        <ele>311.26400000000001</ele>
        <time>2010-02-06T18:52:21Z</time>
      </trkpt>
      <trkpt lat="47.507983027026057" lon="18.944718958809972">
        <ele>312.25999999999999</ele>
        <time>2010-02-06T18:52:25Z</time>
      </trkpt>
      <trkpt lat="47.508042035624385" lon="18.944762963801622">
        <ele>313.88900000000001</ele>
        <time>2010-02-06T18:52:32Z</time>
      </trkpt>
      <trkpt lat="47.508131973445415" lon="18.944814009591937">
        <ele>314.346</ele>
        <time>2010-02-06T18:52:38Z</time>
      </trkpt>
      <trkpt lat="47.508230041712523" lon="18.94484200514853">
        <ele>314.65899999999999</ele>
        <time>2010-02-06T18:52:43Z</time>
      </trkpt>
      <trkpt lat="47.508292989805341" lon="18.944910988211632">
        <ele>315.50400000000002</ele>
        <time>2010-02-06T18:52:49Z</time>
      </trkpt>
      <trkpt lat="47.508347975090146" lon="18.944975025951862">
        <ele>317.17899999999997</ele>
        <time>2010-02-06T18:52:56Z</time>
      </trkpt>
      <trkpt lat="47.508433973416686" lon="18.945019030943513">
        <ele>318.79899999999998</ele>
        <time>2010-02-06T18:53:03Z</time>
      </trkpt>
      <trkpt lat="47.508445959538221" lon="18.945055995136499">
        <ele>319.37299999999999</ele>
        <time>2010-02-06T18:53:06Z</time>
      </trkpt>
      <trkpt lat="47.508482001721859" lon="18.945076027885079">
        <ele>319.63999999999999</ele>
        <time>2010-02-06T18:53:09Z</time>
      </trkpt>
      <trkpt lat="47.50850304029882" lon="18.945094970986247">
        <ele>320.13799999999998</ele>
        <time>2010-02-06T18:53:12Z</time>
      </trkpt>
      <trkpt lat="47.50852600671351" lon="18.945167977362871">
        <ele>320.57600000000002</ele>
        <time>2010-02-06T18:53:19Z</time>
      </trkpt>
      <trkpt lat="47.508603958413005" lon="18.945189015939832">
        <ele>321.697</ele>
        <time>2010-02-06T18:53:23Z</time>
      </trkpt>
      <trkpt lat="47.508659027516842" lon="18.945193961262703">
        <ele>322.99099999999999</ele>
        <time>2010-02-06T18:53:26Z</time>
      </trkpt>
      <trkpt lat="47.508776960894465" lon="18.945207037031651">
        <ele>324.00700000000001</ele>
        <time>2010-02-06T18:53:34Z</time>
      </trkpt>
      <trkpt lat="47.508916016668081" lon="18.945203013718128">
        <ele>324.84300000000002</ele>
        <time>2010-02-06T18:53:48Z</time>
      </trkpt>
      <trkpt lat="47.50914903357625" lon="18.945109974592924">
        <ele>328.65800000000002</ele>
        <time>2010-02-06T18:54:06Z</time>
      </trkpt>
      <trkpt lat="47.509227991104126" lon="18.945133024826646">
        <ele>329.07799999999997</ele>
        <time>2010-02-06T18:54:16Z</time>
      </trkpt>
      <trkpt lat="47.509289011359215" lon="18.945125984027982">
        <ele>330.44299999999998</ele>
        <time>2010-02-06T18:54:21Z</time>
      </trkpt>
      <trkpt lat="47.509354976937175" lon="18.945086002349854">
        <ele>332.36000000000001</ele>
        <time>2010-02-06T18:54:25Z</time>
      </trkpt>
      <trkpt lat="47.509420020505786" lon="18.945046020671725">
        <ele>332.81299999999999</ele>
        <time>2010-02-06T18:54:28Z</time>
      </trkpt>
      <trkpt lat="47.509438041597605" lon="18.945037974044681">
        <ele>332.82600000000002</ele>
        <time>2010-02-06T18:54:31Z</time>
      </trkpt>
      <trkpt lat="47.509490009397268" lon="18.945053983479738">
        <ele>332.48899999999998</ele>
        <time>2010-02-06T18:54:35Z</time>
      </trkpt>
      <trkpt lat="47.509556980803609" lon="18.945043003186584">
        <ele>333.30599999999998</ele>
        <time>2010-02-06T18:54:39Z</time>
      </trkpt>
      <trkpt lat="47.509691007435322" lon="18.945088014006615">
        <ele>335.25799999999998</ele>
        <time>2010-02-06T18:54:53Z</time>
      </trkpt>
      <trkpt lat="47.509864009916782" lon="18.945179963484406">
        <ele>338.65499999999997</ele>
        <time>2010-02-06T18:55:09Z</time>
      </trkpt>
      <trkpt lat="47.509894017130136" lon="18.945220028981566">
        <ele>339.09199999999998</ele>
        <time>2010-02-06T18:55:13Z</time>
      </trkpt>
      <trkpt lat="47.50992301851511" lon="18.945226985961199">
        <ele>339.685</ele>
        <time>2010-02-06T18:55:15Z</time>
      </trkpt>
      <trkpt lat="47.509970040991902" lon="18.945214999839664">
        <ele>339.35000000000002</ele>
        <time>2010-02-06T18:55:18Z</time>
      </trkpt>
      <trkpt lat="47.510050004348159" lon="18.945188010111451">
        <ele>340.91300000000001</ele>
        <time>2010-02-06T18:55:23Z</time>
      </trkpt>
      <trkpt lat="47.510192999616265" lon="18.945187004283071">
        <ele>342.827</ele>
        <time>2010-02-06T18:55:31Z</time>
      </trkpt>
      <trkpt lat="47.510229041799903" lon="18.94522899761796">
        <ele>342.93700000000001</ele>
        <time>2010-02-06T18:55:36Z</time>
      </trkpt>
      <trkpt lat="47.510276986286044" lon="18.945238972082734">
        <ele>342.13900000000001</ele>
        <time>2010-02-06T18:55:40Z</time>
      </trkpt>
      <trkpt lat="47.510337000712752" lon="18.945235032588243">
        <ele>343.00700000000001</ele>
        <time>2010-02-06T18:55:43Z</time>
      </trkpt>
      <trkpt lat="47.510518971830606" lon="18.945291023701429">
        <ele>343.71600000000001</ele>
        <time>2010-02-06T18:55:57Z</time>
      </trkpt>
      <trkpt lat="47.510571023449302" lon="18.945297980681062">
        <ele>343.76299999999998</ele>
        <time>2010-02-06T18:56:00Z</time>
      </trkpt>
      <trkpt lat="47.510617040097713" lon="18.945321030914783">
        <ele>344.04000000000002</ele>
        <time>2010-02-06T18:56:06Z</time>
      </trkpt>
      <trkpt lat="47.510730028152466" lon="18.945306027308106">
        <ele>344.18000000000001</ele>
        <time>2010-02-06T18:56:12Z</time>
      </trkpt>
      <trkpt lat="47.510775960981846" lon="18.945311978459358">
        <ele>343.97699999999998</ele>
        <time>2010-02-06T18:56:15Z</time>
      </trkpt>
      <trkpt lat="47.510837987065315" lon="18.945334022864699">
        <ele>345.22500000000002</ele>
        <time>2010-02-06T18:56:20Z</time>
      </trkpt>
      <trkpt lat="47.510874029248953" lon="18.945338968187571">
        <ele>345.89699999999999</ele>
        <time>2010-02-06T18:56:23Z</time>
      </trkpt>
      <trkpt lat="47.510908981785178" lon="18.945351038128138">
        <ele>345.44999999999999</ele>
        <time>2010-02-06T18:56:26Z</time>
      </trkpt>
      <trkpt lat="47.511022975668311" lon="18.945356989279389">
        <ele>345.79700000000003</ele>
        <time>2010-02-06T18:56:34Z</time>
      </trkpt>
      <trkpt lat="47.511152978986502" lon="18.945394037291408">
        <ele>348.73399999999998</ele>
        <time>2010-02-06T18:56:50Z</time>
      </trkpt>
      <trkpt lat="47.511250041425228" lon="18.945447010919452">
        <ele>349.67500000000001</ele>
        <time>2010-02-06T18:57:01Z</time>
      </trkpt>
      <trkpt lat="47.511279964819551" lon="18.945469977334142">
        <ele>349.46300000000002</ele>
        <time>2010-02-06T18:57:04Z</time>
      </trkpt>
      <trkpt lat="47.511323969811201" lon="18.945494033396244">
        <ele>349.08499999999998</ele>
        <time>2010-02-06T18:57:07Z</time>
      </trkpt>
      <trkpt lat="47.511334028095007" lon="18.945535020902753">
        <ele>349.5</ele>
        <time>2010-02-06T18:57:09Z</time>
      </trkpt>
      <trkpt lat="47.5113429967314" lon="18.945573996752501">
        <ele>349.815</ele>
        <time>2010-02-06T18:57:12Z</time>
      </trkpt>
      <trkpt lat="47.511356994509697" lon="18.945627976208925">
        <ele>350.19600000000003</ele>
        <time>2010-02-06T18:57:15Z</time>
      </trkpt>
      <trkpt lat="47.511374009773135" lon="18.94567902199924">
        <ele>349.97300000000001</ele>
        <time>2010-02-06T18:57:18Z</time>
      </trkpt>
      <trkpt lat="47.511367974802852" lon="18.945729983970523">
        <ele>350.46899999999999</ele>
        <time>2010-02-06T18:57:21Z</time>
      </trkpt>
      <trkpt lat="47.511379038915038" lon="18.945764014497399">
        <ele>351.04899999999998</ele>
        <time>2010-02-06T18:57:24Z</time>
      </trkpt>
      <trkpt lat="47.511365963146091" lon="18.945831991732121">
        <ele>352.33100000000002</ele>
        <time>2010-02-06T18:57:29Z</time>
      </trkpt>
      <trkpt lat="47.511355988681316" lon="18.945872979238629">
        <ele>353.06400000000002</ele>
        <time>2010-02-06T18:57:33Z</time>
      </trkpt>
      <trkpt lat="47.511353977024555" lon="18.945932993665338">
        <ele>353.49299999999999</ele>
        <time>2010-02-06T18:57:36Z</time>
      </trkpt>
      <trkpt lat="47.511351965367794" lon="18.945984039455652">
        <ele>353.19099999999997</ele>
        <time>2010-02-06T18:57:39Z</time>
      </trkpt>
      <trkpt lat="47.511351965367794" lon="18.946032989770174">
        <ele>354.22699999999998</ele>
        <time>2010-02-06T18:57:42Z</time>
      </trkpt>
      <trkpt lat="47.511365963146091" lon="18.946087975054979">
        <ele>354.53899999999999</ele>
        <time>2010-02-06T18:57:45Z</time>
      </trkpt>
      <trkpt lat="47.511361017823219" lon="18.946147989481688">
        <ele>354.303</ele>
        <time>2010-02-06T18:57:48Z</time>
      </trkpt>
      <trkpt lat="47.511349031701684" lon="18.946206998080015">
        <ele>355.012</ele>
        <time>2010-02-06T18:57:51Z</time>
      </trkpt>
      <trkpt lat="47.511348025873303" lon="18.946257038041949">
        <ele>354.41699999999997</ele>
        <time>2010-02-06T18:57:54Z</time>
      </trkpt>
      <trkpt lat="47.511324975639582" lon="18.946306994184852">
        <ele>355.315</ele>
        <time>2010-02-06T18:57:57Z</time>
      </trkpt>
      <trkpt lat="47.511310977861285" lon="18.94634697586298">
        <ele>355.16800000000001</ele>
        <time>2010-02-06T18:58:00Z</time>
      </trkpt>
      <trkpt lat="47.511293962597847" lon="18.946428028866649">
        <ele>356.65300000000002</ele>
        <time>2010-02-06T18:58:06Z</time>
      </trkpt>
      <trkpt lat="47.511289017274976" lon="18.946477985009551">
        <ele>356.334</ele>
        <time>2010-02-06T18:58:09Z</time>
      </trkpt>
      <trkpt lat="47.51127895899117" lon="18.946517966687679">
        <ele>356.56200000000001</ele>
        <time>2010-02-06T18:58:12Z</time>
      </trkpt>
      <trkpt lat="47.511283988133073" lon="18.946571024134755">
        <ele>356.45400000000001</ele>
        <time>2010-02-06T18:58:15Z</time>
      </trkpt>
      <trkpt lat="47.51125699840486" lon="18.946628021076322">
        <ele>356.70299999999997</ele>
        <time>2010-02-06T18:58:18Z</time>
      </trkpt>
      <trkpt lat="47.511227997019887" lon="18.94669096916914">
        <ele>357.18299999999999</ele>
        <time>2010-02-06T18:58:22Z</time>
      </trkpt>
      <trkpt lat="47.511197989806533" lon="18.946723993867636">
        <ele>357.60599999999999</ele>
        <time>2010-02-06T18:58:24Z</time>
      </trkpt>
      <trkpt lat="47.511174017563462" lon="18.946780990809202">
        <ele>357.67899999999997</ele>
        <time>2010-02-06T18:58:27Z</time>
      </trkpt>
      <trkpt lat="47.511153984814882" lon="18.946823989972472">
        <ele>358.435</ele>
        <time>2010-02-06T18:58:30Z</time>
      </trkpt>
      <trkpt lat="47.511121965944767" lon="18.946876963600516">
        <ele>359.11500000000001</ele>
        <time>2010-02-06T18:58:33Z</time>
      </trkpt>
      <trkpt lat="47.511129006743431" lon="18.946942007169127">
        <ele>358.93299999999999</ele>
        <time>2010-02-06T18:58:37Z</time>
      </trkpt>
      <trkpt lat="47.511135041713715" lon="18.946981988847256">
        <ele>359.43700000000001</ele>
        <time>2010-02-06T18:58:40Z</time>
      </trkpt>
      <trkpt lat="47.51112699508667" lon="18.947036974132061">
        <ele>359.54700000000003</ele>
        <time>2010-02-06T18:58:43Z</time>
      </trkpt>
      <trkpt lat="47.511122971773148" lon="18.947081984952092">
        <ele>360.34100000000001</ele>
        <time>2010-02-06T18:58:46Z</time>
      </trkpt>
      <trkpt lat="47.51110696233809" lon="18.947138981893659">
        <ele>360.93700000000001</ele>
        <time>2010-02-06T18:58:49Z</time>
      </trkpt>
      <trkpt lat="47.51110696233809" lon="18.947190027683973">
        <ele>360.678</ele>
        <time>2010-02-06T18:58:52Z</time>
      </trkpt>
      <trkpt lat="47.511081984266639" lon="18.947232021018863">
        <ele>360.74599999999998</ele>
        <time>2010-02-06T18:58:55Z</time>
      </trkpt>
      <trkpt lat="47.51106102950871" lon="18.947287006303668">
        <ele>361.46899999999999</ele>
        <time>2010-02-06T18:58:59Z</time>
      </trkpt>
      <trkpt lat="47.511074021458626" lon="18.947347020730376">
        <ele>360.53300000000002</ele>
        <time>2010-02-06T18:59:02Z</time>
      </trkpt>
      <trkpt lat="47.511094976216555" lon="18.947438970208168">
        <ele>361.44299999999998</ele>
        <time>2010-02-06T18:59:06Z</time>
      </trkpt>
      <trkpt lat="47.511112997308373" lon="18.947496972978115">
        <ele>360.97199999999998</ele>
        <time>2010-02-06T18:59:09Z</time>
      </trkpt>
      <trkpt lat="47.511166976764798" lon="18.947568973526359">
        <ele>361.327</ele>
        <time>2010-02-06T18:59:16Z</time>
      </trkpt>
      <trkpt lat="47.511187009513378" lon="18.947620019316673">
        <ele>361.77800000000002</ele>
        <time>2010-02-06T18:59:19Z</time>
      </trkpt>
      <trkpt lat="47.511216010898352" lon="18.947685984894633">
        <ele>361.52800000000002</ele>
        <time>2010-02-06T18:59:22Z</time>
      </trkpt>
      <trkpt lat="47.511229002848268" lon="18.947737030684948">
        <ele>361.45100000000002</ele>
        <time>2010-02-06T18:59:24Z</time>
      </trkpt>
      <trkpt lat="47.511240988969803" lon="18.947799978777766">
        <ele>362.113</ele>
        <time>2010-02-06T18:59:26Z</time>
      </trkpt>
      <trkpt lat="47.511261021718383" lon="18.947839960455894">
        <ele>362.04500000000002</ele>
        <time>2010-02-06T18:59:28Z</time>
      </trkpt>
      <trkpt lat="47.511240988969803" lon="18.947929982095957">
        <ele>362.61000000000001</ele>
        <time>2010-02-06T18:59:31Z</time>
      </trkpt>
      <trkpt lat="47.5112359598279" lon="18.948079012334347">
        <ele>363.65699999999998</ele>
        <time>2010-02-06T18:59:39Z</time>
      </trkpt>
      <trkpt lat="47.511261021718383" lon="18.948155036196113">
        <ele>363.40899999999999</ele>
        <time>2010-02-06T18:59:43Z</time>
      </trkpt>
      <trkpt lat="47.511308966204524" lon="18.948266012594104">
        <ele>364.459</ele>
        <time>2010-02-06T18:59:49Z</time>
      </trkpt>
      <trkpt lat="47.511368980631232" lon="18.948299959301949">
        <ele>364.959</ele>
        <time>2010-02-06T18:59:52Z</time>
      </trkpt>
      <trkpt lat="47.511417008936405" lon="18.948325021192431">
        <ele>365.90600000000001</ele>
        <time>2010-02-06T18:59:55Z</time>
      </trkpt>
      <trkpt lat="47.511433018371463" lon="18.948395010083914">
        <ele>366.125</ele>
        <time>2010-02-06T18:59:58Z</time>
      </trkpt>
      <trkpt lat="47.511443998664618" lon="18.948461981490254">
        <ele>365.947</ele>
        <time>2010-02-06T19:00:01Z</time>
      </trkpt>
      <trkpt lat="47.511464031413198" lon="18.94851696677506">
        <ele>367.27699999999999</ele>
        <time>2010-02-06T19:00:04Z</time>
      </trkpt>
      <trkpt lat="47.511486997827888" lon="18.948572035878897">
        <ele>367.31599999999997</ele>
        <time>2010-02-06T19:00:07Z</time>
      </trkpt>
      <trkpt lat="47.511496972292662" lon="18.948632972314954">
        <ele>367.613</ele>
        <time>2010-02-06T19:00:10Z</time>
      </trkpt>
      <trkpt lat="47.51149202696979" lon="18.94870899617672">
        <ele>367.75</ele>
        <time>2010-02-06T19:00:14Z</time>
      </trkpt>
      <trkpt lat="47.511469982564449" lon="18.948804968968034">
        <ele>368.45100000000002</ele>
        <time>2010-02-06T19:00:19Z</time>
      </trkpt>
      <trkpt lat="47.511463025584817" lon="18.94886096008122">
        <ele>369.20699999999999</ele>
        <time>2010-02-06T19:00:22Z</time>
      </trkpt>
      <trkpt lat="47.511453973129392" lon="18.948912005871534">
        <ele>368.74200000000002</ele>
        <time>2010-02-06T19:00:25Z</time>
      </trkpt>
      <trkpt lat="47.511446010321379" lon="18.948965985327959">
        <ele>370.13400000000001</ele>
        <time>2010-02-06T19:00:28Z</time>
      </trkpt>
      <trkpt lat="47.51144902780652" lon="18.949022982269526">
        <ele>370.57299999999998</ele>
        <time>2010-02-06T19:00:31Z</time>
      </trkpt>
      <trkpt lat="47.511440981179476" lon="18.949072016403079">
        <ele>370.36700000000002</ele>
        <time>2010-02-06T19:00:34Z</time>
      </trkpt>
      <trkpt lat="47.511419020593166" lon="18.949135970324278">
        <ele>371.39100000000002</ele>
        <time>2010-02-06T19:00:37Z</time>
      </trkpt>
      <trkpt lat="47.511412985622883" lon="18.949200008064508">
        <ele>371.68099999999998</ele>
        <time>2010-02-06T19:00:39Z</time>
      </trkpt>
      <trkpt lat="47.511408040300012" lon="18.94924501888454">
        <ele>371.40499999999997</ele>
        <time>2010-02-06T19:00:41Z</time>
      </trkpt>
      <trkpt lat="47.511393958702683" lon="18.949290029704571">
        <ele>371.69200000000001</ele>
        <time>2010-02-06T19:00:43Z</time>
      </trkpt>
      <trkpt lat="47.511389013379812" lon="18.949344009160995">
        <ele>372.041</ele>
        <time>2010-02-06T19:00:45Z</time>
      </trkpt>
      <trkpt lat="47.511376021429896" lon="18.949394971132278">
        <ele>372.33499999999998</ele>
        <time>2010-02-06T19:00:47Z</time>
      </trkpt>
      <trkpt lat="47.511355988681316" lon="18.949447022750974">
        <ele>372.35300000000001</ele>
        <time>2010-02-06T19:00:49Z</time>
      </trkpt>
      <trkpt lat="47.511359006166458" lon="18.949502008035779">
        <ele>372.798</ele>
        <time>2010-02-06T19:00:53Z</time>
      </trkpt>
      <trkpt lat="47.511378033086658" lon="18.949555987492204">
        <ele>372.92899999999997</ele>
        <time>2010-02-06T19:00:57Z</time>
      </trkpt>
      <trkpt lat="47.511417008936405" lon="18.949638968333602">
        <ele>373.67200000000003</ele>
        <time>2010-02-06T19:01:02Z</time>
      </trkpt>
      <trkpt lat="47.51138599589467" lon="18.949706023558974">
        <ele>373.77499999999998</ele>
        <time>2010-02-06T19:01:06Z</time>
      </trkpt>
      <trkpt lat="47.511335033923388" lon="18.949758997187018">
        <ele>374.55000000000001</ele>
        <time>2010-02-06T19:01:09Z</time>
      </trkpt>
      <trkpt lat="47.511349031701684" lon="18.949829991906881">
        <ele>375.34800000000001</ele>
        <time>2010-02-06T19:01:12Z</time>
      </trkpt>
      <trkpt lat="47.511368980631232" lon="18.949896041303873">
        <ele>376.02600000000001</ele>
        <time>2010-02-06T19:01:15Z</time>
      </trkpt>
      <trkpt lat="47.511396976187825" lon="18.949963012710214">
        <ele>376.00400000000002</ele>
        <time>2010-02-06T19:01:18Z</time>
      </trkpt>
      <trkpt lat="47.511373003944755" lon="18.950017997995019">
        <ele>376.14299999999997</ele>
        <time>2010-02-06T19:01:21Z</time>
      </trkpt>
      <trkpt lat="47.511354982852936" lon="18.95008496940136">
        <ele>376.60000000000002</ele>
        <time>2010-02-06T19:01:24Z</time>
      </trkpt>
      <trkpt lat="47.511347020044923" lon="18.95014800131321">
        <ele>376.33499999999998</ele>
        <time>2010-02-06T19:01:27Z</time>
      </trkpt>
      <trkpt lat="47.511348025873303" lon="18.950209021568298">
        <ele>376.62599999999998</ele>
        <time>2010-02-06T19:01:30Z</time>
      </trkpt>
      <trkpt lat="47.51134199090302" lon="18.950284039601684">
        <ele>376.892</ele>
        <time>2010-02-06T19:01:33Z</time>
      </trkpt>
      <trkpt lat="47.511339979246259" lon="18.950373977422714">
        <ele>376.791</ele>
        <time>2010-02-06T19:01:37Z</time>
      </trkpt>
      <trkpt lat="47.51132195815444" lon="18.950428040698171">
        <ele>376.51100000000002</ele>
        <time>2010-02-06T19:01:39Z</time>
      </trkpt>
      <trkpt lat="47.511312989518046" lon="18.950480008497834">
        <ele>377.38499999999999</ele>
        <time>2010-02-06T19:01:42Z</time>
      </trkpt>
      <trkpt lat="47.511296980082989" lon="18.950509009882808">
        <ele>377.29599999999999</ele>
        <time>2010-02-06T19:01:45Z</time>
      </trkpt>
      <trkpt lat="47.511270996183157" lon="18.950543962419033">
        <ele>377.38400000000001</ele>
        <time>2010-02-06T19:01:47Z</time>
      </trkpt>
      <trkpt lat="47.511235037818551" lon="18.950576987117529">
        <ele>377.03800000000001</ele>
        <time>2010-02-06T19:01:50Z</time>
      </trkpt>
      <trkpt lat="47.511224979534745" lon="18.950609005987644">
        <ele>377.24000000000001</ele>
        <time>2010-02-06T19:01:52Z</time>
      </trkpt>
      <trkpt lat="47.511221040040255" lon="18.95066499710083">
        <ele>377.11599999999999</ele>
        <time>2010-02-06T19:01:55Z</time>
      </trkpt>
      <trkpt lat="47.511203018948436" lon="18.950700033456087">
        <ele>378.476</ele>
        <time>2010-02-06T19:01:57Z</time>
      </trkpt>
      <trkpt lat="47.511197989806533" lon="18.95077396184206">
        <ele>378.79300000000001</ele>
        <time>2010-02-06T19:02:00Z</time>
      </trkpt>
      <trkpt lat="47.51119002699852" lon="18.950846968218684">
        <ele>380.11900000000003</ele>
        <time>2010-02-06T19:02:03Z</time>
      </trkpt>
      <trkpt lat="47.51119296066463" lon="18.950896002352238">
        <ele>380.952</ele>
        <time>2010-02-06T19:02:06Z</time>
      </trkpt>
      <trkpt lat="47.511238977313042" lon="18.950928021222353">
        <ele>381.42500000000001</ele>
        <time>2010-02-06T19:02:09Z</time>
      </trkpt>
      <trkpt lat="47.511264039203525" lon="18.950975965708494">
        <ele>382.04500000000002</ele>
        <time>2010-02-06T19:02:12Z</time>
      </trkpt>
      <trkpt lat="47.511293962597847" lon="18.951038997620344">
        <ele>382.54399999999998</ele>
        <time>2010-02-06T19:02:15Z</time>
      </trkpt>
      <trkpt lat="47.511279964819551" lon="18.951116027310491">
        <ele>382.892</ele>
        <time>2010-02-06T19:02:18Z</time>
      </trkpt>
      <trkpt lat="47.511284993961453" lon="18.951188027858734">
        <ele>384.017</ele>
        <time>2010-02-06T19:02:22Z</time>
      </trkpt>
      <trkpt lat="47.511280970647931" lon="18.951277965679765">
        <ele>384.34199999999998</ele>
        <time>2010-02-06T19:02:27Z</time>
      </trkpt>
      <trkpt lat="47.511317012831569" lon="18.951334040611982">
        <ele>384.77600000000001</ele>
        <time>2010-02-06T19:02:30Z</time>
      </trkpt>
      <trkpt lat="47.511325981467962" lon="18.951411992311478">
        <ele>384.85599999999999</ele>
        <time>2010-02-06T19:02:33Z</time>
      </trkpt>
      <trkpt lat="47.511355988681316" lon="18.951479969546199">
        <ele>384.78899999999999</ele>
        <time>2010-02-06T19:02:36Z</time>
      </trkpt>
      <trkpt lat="47.511400999501348" lon="18.951503019779921">
        <ele>385.05099999999999</ele>
        <time>2010-02-06T19:02:38Z</time>
      </trkpt>
      <trkpt lat="47.511440981179476" lon="18.951559010893106">
        <ele>385.66500000000002</ele>
        <time>2010-02-06T19:02:41Z</time>
      </trkpt>
      <trkpt lat="47.511506024748087" lon="18.951554987579584">
        <ele>385.95999999999998</ele>
        <time>2010-02-06T19:02:44Z</time>
      </trkpt>
      <trkpt lat="47.511595962569118" lon="18.951564962044358">
        <ele>386.13099999999997</ele>
        <time>2010-02-06T19:02:51Z</time>
      </trkpt>
      <trkpt lat="47.511677015572786" lon="18.951575020328164">
        <ele>388.60500000000002</ele>
        <time>2010-02-06T19:02:58Z</time>
      </trkpt>
      <trkpt lat="47.511724960058928" lon="18.951574014499784">
        <ele>389.71300000000002</ele>
        <time>2010-02-06T19:03:03Z</time>
      </trkpt>
      <trkpt lat="47.511806013062596" lon="18.951532021164894">
        <ele>390.05900000000003</ele>
        <time>2010-02-06T19:03:06Z</time>
      </trkpt>
      <trkpt lat="47.511830991134048" lon="18.951514000073075">
        <ele>393.91399999999999</ele>
        <time>2010-02-06T19:03:17Z</time>
      </trkpt>
      <trkpt lat="47.511892011389136" lon="18.951432025060058">
        <ele>394.12700000000001</ele>
        <time>2010-02-06T19:03:21Z</time>
      </trkpt>
      <trkpt lat="47.511940039694309" lon="18.95135298371315">
        <ele>394.26299999999998</ele>
        <time>2010-02-06T19:03:25Z</time>
      </trkpt>
      <trkpt lat="47.511983960866928" lon="18.951290035620332">
        <ele>394.78300000000002</ele>
        <time>2010-02-06T19:03:28Z</time>
      </trkpt>
      <trkpt lat="47.512012962251902" lon="18.951233038678765">
        <ele>394.988</ele>
        <time>2010-02-06T19:03:30Z</time>
      </trkpt>
      <trkpt lat="47.512052021920681" lon="18.951191967353225">
        <ele>395.39400000000001</ele>
        <time>2010-02-06T19:03:32Z</time>
      </trkpt>
      <trkpt lat="47.512076999992132" lon="18.951162965968251">
        <ele>396.33300000000003</ele>
        <time>2010-02-06T19:03:35Z</time>
      </trkpt>
      <trkpt lat="47.512088986113667" lon="18.951135976240039">
        <ele>395.96600000000001</ele>
        <time>2010-02-06T19:03:39Z</time>
      </trkpt>
      <trkpt lat="47.512160986661911" lon="18.951104963198304">
        <ele>396.27199999999999</ele>
        <time>2010-02-06T19:03:42Z</time>
      </trkpt>
      <trkpt lat="47.512213038280606" lon="18.951084008440375">
        <ele>396.726</ele>
        <time>2010-02-06T19:03:44Z</time>
      </trkpt>
      <trkpt lat="47.512285960838199" lon="18.951059030368924">
        <ele>396.45499999999998</ele>
        <time>2010-02-06T19:03:49Z</time>
      </trkpt>
      <trkpt lat="47.512315968051553" lon="18.951060036197305">
        <ele>396.96800000000002</ele>
        <time>2010-02-06T19:03:52Z</time>
      </trkpt>
      <trkpt lat="47.512356033548713" lon="18.951043020933867">
        <ele>397.53300000000002</ele>
        <time>2010-02-06T19:03:55Z</time>
      </trkpt>
      <trkpt lat="47.512397021055222" lon="18.951047966256738">
        <ele>397.892</ele>
        <time>2010-02-06T19:03:58Z</time>
      </trkpt>
      <trkpt lat="47.512428034096956" lon="18.951049977913499">
        <ele>398.23899999999998</ele>
        <time>2010-02-06T19:04:01Z</time>
      </trkpt>
      <trkpt lat="47.512482013553381" lon="18.951086020097136">
        <ele>399.11500000000001</ele>
        <time>2010-02-06T19:04:08Z</time>
      </trkpt>
      <trkpt lat="47.512563988566399" lon="18.951074033975601">
        <ele>399.87200000000001</ele>
        <time>2010-02-06T19:04:13Z</time>
      </trkpt>
      <trkpt lat="47.512601958587766" lon="18.951069004833698">
        <ele>399.35000000000002</ele>
        <time>2010-02-06T19:04:15Z</time>
      </trkpt>
      <trkpt lat="47.512643029913306" lon="18.951061964035034">
        <ele>400.21499999999997</ele>
        <time>2010-02-06T19:04:18Z</time>
      </trkpt>
      <trkpt lat="47.512754006311297" lon="18.951000021770597">
        <ele>401.5</ele>
        <time>2010-02-06T19:04:27Z</time>
      </trkpt>
      <trkpt lat="47.512873029336333" lon="18.950828025117517">
        <ele>403.50299999999999</ele>
        <time>2010-02-06T19:04:41Z</time>
      </trkpt>
      <trkpt lat="47.512901024892926" lon="18.950745966285467">
        <ele>404.31400000000002</ele>
        <time>2010-02-06T19:04:44Z</time>
      </trkpt>
      <trkpt lat="47.512971013784409" lon="18.950618980452418">
        <ele>404.73000000000002</ele>
        <time>2010-02-06T19:04:50Z</time>
      </trkpt>
      <trkpt lat="47.513005966320634" lon="18.950529964640737">
        <ele>406.44999999999999</ele>
        <time>2010-02-06T19:04:54Z</time>
      </trkpt>
      <trkpt lat="47.513050977140665" lon="18.950453018769622">
        <ele>406.64699999999999</ele>
        <time>2010-02-06T19:04:58Z</time>
      </trkpt>
      <trkpt lat="47.51310302875936" lon="18.950395015999675">
        <ele>409.13499999999999</ele>
        <time>2010-02-06T19:05:11Z</time>
      </trkpt>
      <trkpt lat="47.513162959367037" lon="18.950361991301179">
        <ele>410.28899999999999</ele>
        <time>2010-02-06T19:05:24Z</time>
      </trkpt>
      <trkpt lat="47.513220040127635" lon="18.950348999351263">
        <ele>410.43900000000002</ele>
        <time>2010-02-06T19:05:27Z</time>
      </trkpt>
      <trkpt lat="47.513269996270537" lon="18.95034397020936">
        <ele>410.86900000000003</ele>
        <time>2010-02-06T19:05:30Z</time>
      </trkpt>
      <trkpt lat="47.513368986546993" lon="18.950331984087825">
        <ele>411.50599999999997</ele>
        <time>2010-02-06T19:05:38Z</time>
      </trkpt>
      <trkpt lat="47.513436963781714" lon="18.950316980481148">
        <ele>411.97800000000001</ele>
        <time>2010-02-06T19:05:41Z</time>
      </trkpt>
      <trkpt lat="47.513492032885551" lon="18.950313040986657">
        <ele>413.59800000000001</ele>
        <time>2010-02-06T19:05:44Z</time>
      </trkpt>
      <trkpt lat="47.513522962108254" lon="18.950331984087825">
        <ele>413.42700000000002</ele>
        <time>2010-02-06T19:05:47Z</time>
      </trkpt>
      <trkpt lat="47.513565961271524" lon="18.950327038764954">
        <ele>414.01900000000001</ele>
        <time>2010-02-06T19:05:49Z</time>
      </trkpt>
      <trkpt lat="47.513608960434794" lon="18.950317986309528">
        <ele>414.53699999999998</ele>
        <time>2010-02-06T19:05:52Z</time>
      </trkpt>
      <trkpt lat="47.513689007610083" lon="18.950340030714869">
        <ele>415.69299999999998</ele>
        <time>2010-02-06T19:05:59Z</time>
      </trkpt>
      <trkpt lat="47.513733012601733" lon="18.950376994907856">
        <ele>416.50999999999999</ele>
        <time>2010-02-06T19:06:04Z</time>
      </trkpt>
      <trkpt lat="47.51376997679472" lon="18.950413037091494">
        <ele>417.42099999999999</ele>
        <time>2010-02-06T19:06:08Z</time>
      </trkpt>
      <trkpt lat="47.513835020363331" lon="18.950444972142577">
        <ele>417.30799999999999</ele>
        <time>2010-02-06T19:06:13Z</time>
      </trkpt>
      <trkpt lat="47.513880031183362" lon="18.950459975749254">
        <ele>417.64600000000002</ele>
        <time>2010-02-06T19:06:16Z</time>
      </trkpt>
      <trkpt lat="47.51389998011291" lon="18.95047296769917">
        <ele>417.976</ele>
        <time>2010-02-06T19:06:19Z</time>
      </trkpt>
      <trkpt lat="47.513897968456149" lon="18.950512027367949">
        <ele>418.22800000000001</ele>
        <time>2010-02-06T19:06:22Z</time>
      </trkpt>
      <trkpt lat="47.513910960406065" lon="18.950552009046078">
        <ele>418.78899999999999</ele>
        <time>2010-02-06T19:06:25Z</time>
      </trkpt>
      <trkpt lat="47.513961000367999" lon="18.950615040957928">
        <ele>418.80000000000001</ele>
        <time>2010-02-06T19:06:31Z</time>
      </trkpt>
      <trkpt lat="47.514036018401384" lon="18.950625015422702">
        <ele>420.185</ele>
        <time>2010-02-06T19:06:37Z</time>
      </trkpt>
      <trkpt lat="47.51407097093761" lon="18.950740015134215">
        <ele>421.64699999999999</ele>
        <time>2010-02-06T19:06:45Z</time>
      </trkpt>
      <trkpt lat="47.514131991192698" lon="18.95077396184206">
        <ele>422.41399999999999</ele>
        <time>2010-02-06T19:06:49Z</time>
      </trkpt>
      <trkpt lat="47.51417700201273" lon="18.950782008469105">
        <ele>423.053</ele>
        <time>2010-02-06T19:06:52Z</time>
      </trkpt>
      <trkpt lat="47.514207009226084" lon="18.95079399459064">
        <ele>423.78300000000002</ele>
        <time>2010-02-06T19:06:54Z</time>
      </trkpt>
      <trkpt lat="47.514223018661141" lon="18.950840011239052">
        <ele>424.24299999999999</ele>
        <time>2010-02-06T19:06:57Z</time>
      </trkpt>
      <trkpt lat="47.514247996732593" lon="18.950871024280787">
        <ele>424.44200000000001</ele>
        <time>2010-02-06T19:07:00Z</time>
      </trkpt>
      <trkpt lat="47.514268029481173" lon="18.950912011787295">
        <ele>424.20600000000002</ele>
        <time>2010-02-06T19:07:03Z</time>
      </trkpt>
      <trkpt lat="47.514310022816062" lon="18.950948975980282">
        <ele>424.86500000000001</ele>
        <time>2010-02-06T19:07:06Z</time>
      </trkpt>
      <trkpt lat="47.514333995059133" lon="18.950989963486791">
        <ele>425.31200000000001</ele>
        <time>2010-02-06T19:07:09Z</time>
      </trkpt>
      <trkpt lat="47.514359978958964" lon="18.951027011498809">
        <ele>425.60700000000003</ele>
        <time>2010-02-06T19:07:12Z</time>
      </trkpt>
      <trkpt lat="47.514388980343938" lon="18.951048972085118">
        <ele>425.548</ele>
        <time>2010-02-06T19:07:14Z</time>
      </trkpt>
      <trkpt lat="47.514432985335588" lon="18.95105198957026">
        <ele>425.38799999999998</ele>
        <time>2010-02-06T19:07:16Z</time>
      </trkpt>
      <trkpt lat="47.51445603556931" lon="18.951074033975601">
        <ele>425.995</ele>
        <time>2010-02-06T19:07:18Z</time>
      </trkpt>
      <trkpt lat="47.514442037791014" lon="18.951146034523845">
        <ele>426.75700000000001</ele>
        <time>2010-02-06T19:07:21Z</time>
      </trkpt>
      <trkpt lat="47.514463998377323" lon="18.951176963746548">
        <ele>426.64800000000002</ele>
        <time>2010-02-06T19:07:24Z</time>
      </trkpt>
      <trkpt lat="47.514479001984" lon="18.951227003708482">
        <ele>426.81799999999998</ele>
        <time>2010-02-06T19:07:27Z</time>
      </trkpt>
      <trkpt lat="47.51452099531889" lon="18.951251981779933">
        <ele>426.70600000000002</ele>
        <time>2010-02-06T19:07:30Z</time>
      </trkpt>
      <trkpt lat="47.514562988653779" lon="18.951259022578597">
        <ele>426.60000000000002</ele>
        <time>2010-02-06T19:07:32Z</time>
      </trkpt>
      <trkpt lat="47.51458402723074" lon="18.951288023963571">
        <ele>427.05700000000002</ele>
        <time>2010-02-06T19:07:34Z</time>
      </trkpt>
      <trkpt lat="47.514602970331907" lon="18.951320964843035">
        <ele>427.31599999999997</ele>
        <time>2010-02-06T19:07:36Z</time>
      </trkpt>
      <trkpt lat="47.514592995867133" lon="18.95139598287642">
        <ele>427.03899999999999</ele>
        <time>2010-02-06T19:07:39Z</time>
      </trkpt>
      <trkpt lat="47.514620991423726" lon="18.951448034495115">
        <ele>428.09800000000001</ele>
        <time>2010-02-06T19:07:42Z</time>
      </trkpt>
      <trkpt lat="47.514639012515545" lon="18.951503019779921">
        <ele>428.07900000000001</ele>
        <time>2010-02-06T19:07:45Z</time>
      </trkpt>
      <trkpt lat="47.514642030000687" lon="18.951578037813306">
        <ele>429.13400000000001</ele>
        <time>2010-02-06T19:07:49Z</time>
      </trkpt>
      <trkpt lat="47.514721993356943" lon="18.951574014499784">
        <ele>429.13900000000001</ele>
        <time>2010-02-06T19:07:54Z</time>
      </trkpt>
      <trkpt lat="47.514731967821717" lon="18.951612990349531">
        <ele>430.31599999999997</ele>
        <time>2010-02-06T19:07:57Z</time>
      </trkpt>
      <trkpt lat="47.514773961156607" lon="18.951625982299447">
        <ele>430.64400000000001</ele>
        <time>2010-02-06T19:08:01Z</time>
      </trkpt>
      <trkpt lat="47.514791982248425" lon="18.951650038361549">
        <ele>430.822</ele>
        <time>2010-02-06T19:08:04Z</time>
      </trkpt>
      <trkpt lat="47.51482198946178" lon="18.951667975634336">
        <ele>431.36799999999999</ele>
        <time>2010-02-06T19:08:06Z</time>
      </trkpt>
      <trkpt lat="47.514828024432063" lon="18.951727990061045">
        <ele>432.33699999999999</ele>
        <time>2010-02-06T19:08:09Z</time>
      </trkpt>
      <trkpt lat="47.514874041080475" lon="18.951750034466386">
        <ele>432.548</ele>
        <time>2010-02-06T19:08:12Z</time>
      </trkpt>
      <trkpt lat="47.514909999445081" lon="18.951762020587921">
        <ele>432.40199999999999</ele>
        <time>2010-02-06T19:08:14Z</time>
      </trkpt>
      <trkpt lat="47.514960961416364" lon="18.951759003102779">
        <ele>432.64999999999998</ele>
        <time>2010-02-06T19:08:16Z</time>
      </trkpt>
      <trkpt lat="47.514981999993324" lon="18.951786998659372">
        <ele>432.79599999999999</ele>
        <time>2010-02-06T19:08:18Z</time>
      </trkpt>
      <trkpt lat="47.514992980286479" lon="18.951824968680739">
        <ele>433.38499999999999</ele>
        <time>2010-02-06T19:08:20Z</time>
      </trkpt>
      <trkpt lat="47.515019970014691" lon="18.951850030571222">
        <ele>433.327</ele>
        <time>2010-02-06T19:08:23Z</time>
      </trkpt>
      <trkpt lat="47.515035979449749" lon="18.951891018077731">
        <ele>433.66500000000002</ele>
        <time>2010-02-06T19:08:26Z</time>
      </trkpt>
      <trkpt lat="47.515075039118528" lon="18.951901998370886">
        <ele>433.56700000000001</ele>
        <time>2010-02-06T19:08:29Z</time>
      </trkpt>
      <trkpt lat="47.515086019411683" lon="18.951949020847678">
        <ele>434.59300000000002</ele>
        <time>2010-02-06T19:08:32Z</time>
      </trkpt>
      <trkpt lat="47.515109991654754" lon="18.951986990869045">
        <ele>435.01999999999998</ele>
        <time>2010-02-06T19:08:35Z</time>
      </trkpt>
      <trkpt lat="47.515131030231714" lon="18.95203803665936">
        <ele>435.48000000000002</ele>
        <time>2010-02-06T19:08:38Z</time>
      </trkpt>
      <trkpt lat="47.515160031616688" lon="18.952087992802262">
        <ele>435.19900000000001</ele>
        <time>2010-02-06T19:08:42Z</time>
      </trkpt>
      <trkpt lat="47.515198001638055" lon="18.952125040814281">
        <ele>436.35899999999998</ele>
        <time>2010-02-06T19:08:46Z</time>
      </trkpt>
      <trkpt lat="47.51522901467979" lon="18.952157981693745">
        <ele>436.69999999999999</ele>
        <time>2010-02-06T19:08:49Z</time>
      </trkpt>
      <trkpt lat="47.515250975266099" lon="18.952209027484059">
        <ele>436.92700000000002</ele>
        <time>2010-02-06T19:08:53Z</time>
      </trkpt>
      <trkpt lat="47.515242006629705" lon="18.952303994446993">
        <ele>438.11500000000001</ele>
        <time>2010-02-06T19:08:58Z</time>
      </trkpt>
      <trkpt lat="47.515232032164931" lon="18.95238496363163">
        <ele>437.98599999999999</ele>
        <time>2010-02-06T19:09:02Z</time>
      </trkpt>
      <trkpt lat="47.515234965831041" lon="18.952454030513763">
        <ele>438.971</ele>
        <time>2010-02-06T19:09:05Z</time>
      </trkpt>
      <trkpt lat="47.515219040215015" lon="18.952543968334794">
        <ele>438.40300000000002</ele>
        <time>2010-02-06T19:09:10Z</time>
      </trkpt>
      <trkpt lat="47.515218034386635" lon="18.95264295861125">
        <ele>438.42500000000001</ele>
        <time>2010-02-06T19:09:16Z</time>
      </trkpt>
      <trkpt lat="47.515241000801325" lon="18.952697021886706">
        <ele>439.07400000000001</ele>
        <time>2010-02-06T19:09:19Z</time>
      </trkpt>
      <trkpt lat="47.515266984701157" lon="18.952752007171512">
        <ele>439.28399999999999</ele>
        <time>2010-02-06T19:09:22Z</time>
      </trkpt>
      <trkpt lat="47.515268996357918" lon="18.9528130274266">
        <ele>439.279</ele>
        <time>2010-02-06T19:09:25Z</time>
      </trkpt>
      <trkpt lat="47.515286011621356" lon="18.952885027974844">
        <ele>439.702</ele>
        <time>2010-02-06T19:09:28Z</time>
      </trkpt>
      <trkpt lat="47.515308978036046" lon="18.952925009652972">
        <ele>440.16000000000003</ele>
        <time>2010-02-06T19:09:30Z</time>
      </trkpt>
      <trkpt lat="47.5153389852494" lon="18.952979994937778">
        <ele>441.01499999999999</ele>
        <time>2010-02-06T19:09:33Z</time>
      </trkpt>
      <trkpt lat="47.515345020219684" lon="18.95307102240622">
        <ele>441.71899999999999</ele>
        <time>2010-02-06T19:09:38Z</time>
      </trkpt>
      <trkpt lat="47.515360023826361" lon="18.95311301574111">
        <ele>441.90199999999999</ele>
        <time>2010-02-06T19:09:41Z</time>
      </trkpt>
      <trkpt lat="47.515379972755909" lon="18.953160038217902">
        <ele>442.173</ele>
        <time>2010-02-06T19:09:44Z</time>
      </trkpt>
      <trkpt lat="47.515400005504489" lon="18.953208988532424">
        <ele>442.52800000000002</ele>
        <time>2010-02-06T19:09:47Z</time>
      </trkpt>
      <trkpt lat="47.515425989404321" lon="18.953252993524075">
        <ele>442.565</ele>
        <time>2010-02-06T19:09:50Z</time>
      </trkpt>
      <trkpt lat="47.515409979969263" lon="18.95332801155746">
        <ele>443.20400000000001</ele>
        <time>2010-02-06T19:09:53Z</time>
      </trkpt>
      <trkpt lat="47.515412997454405" lon="18.953382996842265">
        <ele>442.86099999999999</ele>
        <time>2010-02-06T19:09:56Z</time>
      </trkpt>
      <trkpt lat="47.51542397774756" lon="18.953465977683663">
        <ele>444.22899999999998</ele>
        <time>2010-02-06T19:10:01Z</time>
      </trkpt>
      <trkpt lat="47.51544501632452" lon="18.953503025695682">
        <ele>444.613</ele>
        <time>2010-02-06T19:10:03Z</time>
      </trkpt>
      <trkpt lat="47.515492960810661" lon="18.953553987666965">
        <ele>444.53699999999998</ele>
        <time>2010-02-06T19:10:06Z</time>
      </trkpt>
      <trkpt lat="47.5155099760741" lon="18.953626994043589">
        <ele>445.59699999999998</ele>
        <time>2010-02-06T19:10:09Z</time>
      </trkpt>
      <trkpt lat="47.515547024086118" lon="18.953661024570465">
        <ele>445.35300000000001</ele>
        <time>2010-02-06T19:10:11Z</time>
      </trkpt>
      <trkpt lat="47.515555992722511" lon="18.953703017905354">
        <ele>445.22199999999998</ele>
        <time>2010-02-06T19:10:13Z</time>
      </trkpt>
      <trkpt lat="47.515565967187285" lon="18.953749034553766">
        <ele>446.14999999999998</ele>
        <time>2010-02-06T19:10:15Z</time>
      </trkpt>
      <trkpt lat="47.515550963580608" lon="18.953846013173461">
        <ele>446.161</ele>
        <time>2010-02-06T19:10:18Z</time>
      </trkpt>
      <trkpt lat="47.515579964965582" lon="18.953889012336731">
        <ele>446.56299999999999</ele>
        <time>2010-02-06T19:10:21Z</time>
      </trkpt>
      <trkpt lat="47.515606032684445" lon="18.953934023156762">
        <ele>447.82499999999999</ele>
        <time>2010-02-06T19:10:24Z</time>
      </trkpt>
      <trkpt lat="47.515623969957232" lon="18.953986996784806">
        <ele>446.71100000000001</ele>
        <time>2010-02-06T19:10:27Z</time>
      </trkpt>
      <trkpt lat="47.515677027404308" lon="18.95399303175509">
        <ele>448.79700000000003</ele>
        <time>2010-02-06T19:10:29Z</time>
      </trkpt>
      <trkpt lat="47.515731006860733" lon="18.953991020098329">
        <ele>448.43599999999998</ele>
        <time>2010-02-06T19:10:31Z</time>
      </trkpt>
      <trkpt lat="47.5157689768821" lon="18.954007029533386">
        <ele>448.13299999999998</ele>
        <time>2010-02-06T19:10:33Z</time>
      </trkpt>
      <trkpt lat="47.515796972438693" lon="18.954023960977793">
        <ele>449.45800000000003</ele>
        <time>2010-02-06T19:10:35Z</time>
      </trkpt>
      <trkpt lat="47.515804013237357" lon="18.954069977626204">
        <ele>449.49299999999999</ele>
        <time>2010-02-06T19:10:37Z</time>
      </trkpt>
      <trkpt lat="47.515808958560228" lon="18.9541220292449">
        <ele>449.79500000000002</ele>
        <time>2010-02-06T19:10:40Z</time>
      </trkpt>
      <trkpt lat="47.515826979652047" lon="18.954164022579789">
        <ele>450.5</ele>
        <time>2010-02-06T19:10:43Z</time>
      </trkpt>
      <trkpt lat="47.515835026279092" lon="18.954194029793143">
        <ele>450.63600000000002</ele>
        <time>2010-02-06T19:10:45Z</time>
      </trkpt>
      <trkpt lat="47.515843994915485" lon="18.954224959015846">
        <ele>450.70600000000002</ele>
        <time>2010-02-06T19:10:47Z</time>
      </trkpt>
      <trkpt lat="47.515861010178924" lon="18.954244991764426">
        <ele>450.44299999999998</ele>
        <time>2010-02-06T19:10:49Z</time>
      </trkpt>
      <trkpt lat="47.515879031270742" lon="18.954259995371103">
        <ele>450.90899999999999</ele>
        <time>2010-02-06T19:10:51Z</time>
      </trkpt>
      <trkpt lat="47.515872996300459" lon="18.954320009797812">
        <ele>451.48399999999998</ele>
        <time>2010-02-06T19:10:54Z</time>
      </trkpt>
      <trkpt lat="47.515889005735517" lon="18.954372983425856">
        <ele>451.94999999999999</ele>
        <time>2010-02-06T19:10:58Z</time>
      </trkpt>
      <trkpt lat="47.515874002128839" lon="18.954449007287621">
        <ele>451.37900000000002</ele>
        <time>2010-02-06T19:11:01Z</time>
      </trkpt>
      <trkpt lat="47.515910966321826" lon="18.954475997015834">
        <ele>451.62299999999999</ele>
        <time>2010-02-06T19:11:04Z</time>
      </trkpt>
      <trkpt lat="47.51591800712049" lon="18.954522013664246">
        <ele>452.726</ele>
        <time>2010-02-06T19:11:07Z</time>
      </trkpt>
      <trkpt lat="47.5159399677068" lon="18.954566018655896">
        <ele>452.435</ele>
        <time>2010-02-06T19:11:10Z</time>
      </trkpt>
      <trkpt lat="47.515957988798618" lon="18.954629972577095">
        <ele>452.56200000000001</ele>
        <time>2010-02-06T19:11:13Z</time>
      </trkpt>
      <trkpt lat="47.515966035425663" lon="18.954695016145706">
        <ele>453.20999999999998</ele>
        <time>2010-02-06T19:11:16Z</time>
      </trkpt>
      <trkpt lat="47.516000987961888" lon="18.954730974510312">
        <ele>453.42500000000001</ele>
        <time>2010-02-06T19:11:19Z</time>
      </trkpt>
      <trkpt lat="47.51602403819561" lon="18.954759975895286">
        <ele>453.55700000000002</ele>
        <time>2010-02-06T19:11:21Z</time>
      </trkpt>
      <trkpt lat="47.516029989346862" lon="18.954831976443529">
        <ele>453.94799999999998</ele>
        <time>2010-02-06T19:11:24Z</time>
      </trkpt>
      <trkpt lat="47.516023032367229" lon="18.954900959506631">
        <ele>454.291</ele>
        <time>2010-02-06T19:11:27Z</time>
      </trkpt>
      <trkpt lat="47.516048010438681" lon="18.954933984205127">
        <ele>454.55399999999997</ele>
        <time>2010-02-06T19:11:30Z</time>
      </trkpt>
      <trkpt lat="47.516076005995274" lon="18.9549629855901">
        <ele>454.82799999999997</ele>
        <time>2010-02-06T19:11:33Z</time>
      </trkpt>
      <trkpt lat="47.516088997945189" lon="18.955017970874906">
        <ele>454.98599999999999</ele>
        <time>2010-02-06T19:11:36Z</time>
      </trkpt>
      <trkpt lat="47.51609000377357" lon="18.95506901666522">
        <ele>455.92899999999997</ele>
        <time>2010-02-06T19:11:39Z</time>
      </trkpt>
      <trkpt lat="47.516125040128827" lon="18.955096006393433">
        <ele>456.15600000000001</ele>
        <time>2010-02-06T19:11:42Z</time>
      </trkpt>
      <trkpt lat="47.516120010986924" lon="18.955149985849857">
        <ele>457.61900000000003</ele>
        <time>2010-02-06T19:11:45Z</time>
      </trkpt>
      <trkpt lat="47.516154041513801" lon="18.955179993063211">
        <ele>458.40600000000001</ele>
        <time>2010-02-06T19:11:48Z</time>
      </trkpt>
      <trkpt lat="47.516166027635336" lon="18.9552410133183">
        <ele>458.59500000000003</ele>
        <time>2010-02-06T19:11:51Z</time>
      </trkpt>
      <trkpt lat="47.516169967129827" lon="18.955302033573389">
        <ele>458.51999999999998</ele>
        <time>2010-02-06T19:11:54Z</time>
      </trkpt>
      <trkpt lat="47.516177007928491" lon="18.955352995544672">
        <ele>458.81700000000001</ele>
        <time>2010-02-06T19:11:57Z</time>
      </trkpt>
      <trkpt lat="47.516195029020309" lon="18.955394988879561">
        <ele>458.702</ele>
        <time>2010-02-06T19:12:00Z</time>
      </trkpt>
      <trkpt lat="47.516201985999942" lon="18.955447040498257">
        <ele>459.291</ele>
        <time>2010-02-06T19:12:03Z</time>
      </trkpt>
      <trkpt lat="47.516203997656703" lon="18.955507976934314">
        <ele>459.41800000000001</ele>
        <time>2010-02-06T19:12:06Z</time>
      </trkpt>
      <trkpt lat="47.516217995434999" lon="18.955593975260854">
        <ele>460.721</ele>
        <time>2010-02-06T19:12:11Z</time>
      </trkpt>
      <trkpt lat="47.516240039840341" lon="18.955630017444491">
        <ele>461.07999999999998</ele>
        <time>2010-02-06T19:12:14Z</time>
      </trkpt>
      <trkpt lat="47.516255965456367" lon="18.955676034092903">
        <ele>462.26900000000001</ele>
        <time>2010-02-06T19:12:17Z</time>
      </trkpt>
      <trkpt lat="47.516266023740172" lon="18.955729007720947">
        <ele>462.13900000000001</ele>
        <time>2010-02-06T19:12:20Z</time>
      </trkpt>
      <trkpt lat="47.516283961012959" lon="18.95577603019774">
        <ele>462.67599999999999</ele>
        <time>2010-02-06T19:12:23Z</time>
      </trkpt>
      <trkpt lat="47.516311034560204" lon="18.955826992169023">
        <ele>462.81299999999999</ele>
        <time>2010-02-06T19:12:27Z</time>
      </trkpt>
      <trkpt lat="47.516320003196597" lon="18.955877032130957">
        <ele>462.64100000000002</ele>
        <time>2010-02-06T19:12:30Z</time>
      </trkpt>
      <trkpt lat="47.516326960176229" lon="18.955940986052155">
        <ele>463.60500000000002</ele>
        <time>2010-02-06T19:12:33Z</time>
      </trkpt>
      <trkpt lat="47.516346992924809" lon="18.9559939596802">
        <ele>463.49599999999998</ele>
        <time>2010-02-06T19:12:36Z</time>
      </trkpt>
      <trkpt lat="47.516371970996261" lon="18.956049028784037">
        <ele>463.28500000000003</ele>
        <time>2010-02-06T19:12:39Z</time>
      </trkpt>
      <trkpt lat="47.516398960724473" lon="18.956088004633784">
        <ele>463.63900000000001</ele>
        <time>2010-02-06T19:12:42Z</time>
      </trkpt>
      <trkpt lat="47.516422010958195" lon="18.956138966605067">
        <ele>463.55799999999999</ele>
        <time>2010-02-06T19:12:45Z</time>
      </trkpt>
      <trkpt lat="47.516453023999929" lon="18.956181965768337">
        <ele>464.06299999999999</ele>
        <time>2010-02-06T19:12:48Z</time>
      </trkpt>
      <trkpt lat="47.516480013728142" lon="18.956235023215413">
        <ele>463.82499999999999</ele>
        <time>2010-02-06T19:12:51Z</time>
      </trkpt>
      <trkpt lat="47.516493005678058" lon="18.956279028207064">
        <ele>464.029</ele>
        <time>2010-02-06T19:12:54Z</time>
      </trkpt>
      <trkpt lat="47.516488982364535" lon="18.95635899156332">
        <ele>464.93200000000002</ele>
        <time>2010-02-06T19:12:58Z</time>
      </trkpt>
      <trkpt lat="47.516512032598257" lon="18.956387992948294">
        <ele>465.55700000000002</ele>
        <time>2010-02-06T19:13:01Z</time>
      </trkpt>
      <trkpt lat="47.516517983749509" lon="18.956425962969661">
        <ele>466.08699999999999</ele>
        <time>2010-02-06T19:13:04Z</time>
      </trkpt>
      <trkpt lat="47.516514966264367" lon="18.956495029851794">
        <ele>466.18700000000001</ele>
        <time>2010-02-06T19:13:07Z</time>
      </trkpt>
      <trkpt lat="47.516515972092748" lon="18.956534005701542">
        <ele>467.86399999999998</ele>
        <time>2010-02-06T19:13:10Z</time>
      </trkpt>
      <trkpt lat="47.51649996265769" lon="18.956598965451121">
        <ele>468.31</ele>
        <time>2010-02-06T19:13:16Z</time>
      </trkpt>
      <trkpt lat="47.516501974314451" lon="18.956671971827745">
        <ele>468.39699999999999</ele>
        <time>2010-02-06T19:13:19Z</time>
      </trkpt>
      <trkpt lat="47.516498034819961" lon="18.956738021224737">
        <ele>468.32999999999998</ele>
        <time>2010-02-06T19:13:22Z</time>
      </trkpt>
      <trkpt lat="47.51649996265769" lon="18.956799963489175">
        <ele>468.97800000000001</ele>
        <time>2010-02-06T19:13:26Z</time>
      </trkpt>
      <trkpt lat="47.516502980142832" lon="18.956866012886167">
        <ele>469.59399999999999</ele>
        <time>2010-02-06T19:13:29Z</time>
      </trkpt>
      <trkpt lat="47.516510020941496" lon="18.956913035362959">
        <ele>469.73700000000002</ele>
        <time>2010-02-06T19:13:32Z</time>
      </trkpt>
      <trkpt lat="47.516489988192916" lon="18.956998027861118">
        <ele>470.27699999999999</ele>
        <time>2010-02-06T19:13:37Z</time>
      </trkpt>
      <trkpt lat="47.516483031213284" lon="18.957042032852769">
        <ele>470.798</ele>
        <time>2010-02-06T19:13:40Z</time>
      </trkpt>
      <trkpt lat="47.516485964879394" lon="18.957096012309194">
        <ele>471.03300000000002</ele>
        <time>2010-02-06T19:13:44Z</time>
      </trkpt>
      <trkpt lat="47.516466015949845" lon="18.957144040614367">
        <ele>472.40100000000001</ele>
        <time>2010-02-06T19:13:49Z</time>
      </trkpt>
      <trkpt lat="47.516453023999929" lon="18.957221992313862">
        <ele>473.11200000000002</ele>
        <time>2010-02-06T19:13:52Z</time>
      </trkpt>
      <trkpt lat="47.516452018171549" lon="18.957274965941906">
        <ele>473.27499999999998</ele>
        <time>2010-02-06T19:13:55Z</time>
      </trkpt>
      <trkpt lat="47.516440032050014" lon="18.957318970933557">
        <ele>474.23000000000002</ele>
        <time>2010-02-06T19:13:58Z</time>
      </trkpt>
      <trkpt lat="47.516432991251349" lon="18.957357024773955">
        <ele>474.92200000000003</ele>
        <time>2010-02-06T19:14:01Z</time>
      </trkpt>
      <trkpt lat="47.516431985422969" lon="18.95741100423038">
        <ele>475.476</ele>
        <time>2010-02-06T19:14:04Z</time>
      </trkpt>
      <trkpt lat="47.516404995694757" lon="18.957491973415017">
        <ele>476.00299999999999</ele>
        <time>2010-02-06T19:14:08Z</time>
      </trkpt>
      <trkpt lat="47.516380017623305" lon="18.957618037238717">
        <ele>477.23000000000002</ele>
        <time>2010-02-06T19:14:13Z</time>
      </trkpt>
      <trkpt lat="47.516388986259699" lon="18.957660030573606">
        <ele>477.07999999999998</ele>
        <time>2010-02-06T19:14:16Z</time>
      </trkpt>
      <trkpt lat="47.516374988481402" lon="18.957713004201651">
        <ele>478.18400000000003</ele>
        <time>2010-02-06T19:14:20Z</time>
      </trkpt>
      <trkpt lat="47.516350010409951" lon="18.957813000306487">
        <ele>479.11799999999999</ele>
        <time>2010-02-06T19:14:26Z</time>
      </trkpt>
      <trkpt lat="47.516338024288416" lon="18.957902016118169">
        <ele>480.01600000000002</ele>
        <time>2010-02-06T19:14:30Z</time>
      </trkpt>
      <trkpt lat="47.516337018460035" lon="18.957941997796297">
        <ele>480.08699999999999</ele>
        <time>2010-02-06T19:14:33Z</time>
      </trkpt>
      <trkpt lat="47.516313968226314" lon="18.958017015829682">
        <ele>480.62</ele>
        <time>2010-02-06T19:14:37Z</time>
      </trkpt>
      <trkpt lat="47.516293013468385" lon="18.958070995286107">
        <ele>481.02100000000002</ele>
        <time>2010-02-06T19:14:40Z</time>
      </trkpt>
      <trkpt lat="47.516286978498101" lon="18.958118017762899">
        <ele>481.25</ele>
        <time>2010-02-06T19:14:43Z</time>
      </trkpt>
      <trkpt lat="47.516291001811624" lon="18.958171997219324">
        <ele>481.30900000000003</ele>
        <time>2010-02-06T19:14:46Z</time>
      </trkpt>
      <trkpt lat="47.516295025125146" lon="18.958219019696116">
        <ele>481.678</ele>
        <time>2010-02-06T19:14:49Z</time>
      </trkpt>
      <trkpt lat="47.516307011246681" lon="18.958277022466063">
        <ele>481.85700000000003</ele>
        <time>2010-02-06T19:14:52Z</time>
      </trkpt>
      <trkpt lat="47.516321009024978" lon="18.958338964730501">
        <ele>482.68000000000001</ele>
        <time>2010-02-06T19:14:55Z</time>
      </trkpt>
      <trkpt lat="47.516335006803274" lon="18.958394033834338">
        <ele>483.68599999999998</ele>
        <time>2010-02-06T19:14:58Z</time>
      </trkpt>
      <trkpt lat="47.516349004581571" lon="18.958447007462382">
        <ele>484.08699999999999</ele>
        <time>2010-02-06T19:15:01Z</time>
      </trkpt>
      <trkpt lat="47.516363002359867" lon="18.958494029939175">
        <ele>484.60399999999998</ele>
        <time>2010-02-06T19:15:04Z</time>
      </trkpt>
      <trkpt lat="47.516364008188248" lon="18.958583967760205">
        <ele>485.62299999999999</ele>
        <time>2010-02-06T19:15:09Z</time>
      </trkpt>
      <trkpt lat="47.516352022066712" lon="18.95863501355052">
        <ele>486.02199999999999</ele>
        <time>2010-02-06T19:15:12Z</time>
      </trkpt>
      <trkpt lat="47.516345987096429" lon="18.958688993006945">
        <ele>486.702</ele>
        <time>2010-02-06T19:15:15Z</time>
      </trkpt>
      <trkpt lat="47.516343975439668" lon="18.958751019090414">
        <ele>488.64999999999998</ele>
        <time>2010-02-06T19:15:19Z</time>
      </trkpt>
      <trkpt lat="47.516322014853358" lon="18.958815978839993">
        <ele>487.94099999999997</ele>
        <time>2010-02-06T19:15:22Z</time>
      </trkpt>
      <trkpt lat="47.516303993761539" lon="18.958861995488405">
        <ele>489.209</ele>
        <time>2010-02-06T19:15:25Z</time>
      </trkpt>
      <trkpt lat="47.51630499958992" lon="18.958898959681392">
        <ele>489.38900000000001</ele>
        <time>2010-02-06T19:15:28Z</time>
      </trkpt>
      <trkpt lat="47.516280021518469" lon="18.958969032391906">
        <ele>490.209</ele>
        <time>2010-02-06T19:15:35Z</time>
      </trkpt>
      <trkpt lat="47.516250014305115" lon="18.959028040990233">
        <ele>490.31700000000001</ele>
        <time>2010-02-06T19:15:39Z</time>
      </trkpt>
      <trkpt lat="47.516205003485084" lon="18.95910800434649">
        <ele>491.23200000000003</ele>
        <time>2010-02-06T19:15:44Z</time>
      </trkpt>
      <trkpt lat="47.516195029020309" lon="18.959192996844649">
        <ele>491.38299999999998</ele>
        <time>2010-02-06T19:15:48Z</time>
      </trkpt>
      <trkpt lat="47.516181031242013" lon="18.959262985736132">
        <ele>491.68400000000003</ele>
        <time>2010-02-06T19:15:52Z</time>
      </trkpt>
      <trkpt lat="47.516172984614968" lon="18.95932300016284">
        <ele>492.31099999999998</ele>
        <time>2010-02-06T19:15:56Z</time>
      </trkpt>
      <trkpt lat="47.516191005706787" lon="18.959490973502398">
        <ele>492.71899999999999</ele>
        <time>2010-02-06T19:16:07Z</time>
      </trkpt>
      <trkpt lat="47.51619603484869" lon="18.959531961008906">
        <ele>492.476</ele>
        <time>2010-02-06T19:16:10Z</time>
      </trkpt>
      <trkpt lat="47.51615303568542" lon="18.959589041769505">
        <ele>492.79199999999997</ele>
        <time>2010-02-06T19:16:16Z</time>
      </trkpt>
      <trkpt lat="47.516087992116809" lon="18.959565991535783">
        <ele>493.10199999999998</ele>
        <time>2010-02-06T19:16:23Z</time>
      </trkpt>
      <trkpt lat="47.516093021258712" lon="18.959759026765823">
        <ele>492.89499999999998</ele>
        <time>2010-02-06T19:17:03Z</time>
      </trkpt>
      <trkpt lat="47.516110958531499" lon="18.959810994565487">
        <ele>492.613</ele>
        <time>2010-02-06T19:17:08Z</time>
      </trkpt>
      <trkpt lat="47.516125040128827" lon="18.959886012598872">
        <ele>493.09899999999999</ele>
        <time>2010-02-06T19:17:12Z</time>
      </trkpt>
      <trkpt lat="47.516139959916472" lon="18.959931023418903">
        <ele>492.88900000000001</ele>
        <time>2010-02-06T19:17:15Z</time>
      </trkpt>
      <trkpt lat="47.516165021806955" lon="18.959966981783509">
        <ele>493.01400000000001</ele>
        <time>2010-02-06T19:17:18Z</time>
      </trkpt>
      <trkpt lat="47.516195029020309" lon="18.960005035623908">
        <ele>492.76100000000002</ele>
        <time>2010-02-06T19:17:21Z</time>
      </trkpt>
      <trkpt lat="47.516229981556535" lon="18.960035964846611">
        <ele>493.40199999999999</ele>
        <time>2010-02-06T19:17:24Z</time>
      </trkpt>
      <trkpt lat="47.516259988769889" lon="18.960090028122067">
        <ele>493.13299999999998</ele>
        <time>2010-02-06T19:17:27Z</time>
      </trkpt>
      <trkpt lat="47.516283039003611" lon="18.960150964558125">
        <ele>492.89100000000002</ele>
        <time>2010-02-06T19:17:30Z</time>
      </trkpt>
      <trkpt lat="47.516313968226314" lon="18.960197987034917">
        <ele>493.66300000000001</ele>
        <time>2010-02-06T19:17:33Z</time>
      </trkpt>
      <trkpt lat="47.516343975439668" lon="18.96022598259151">
        <ele>493.05000000000001</ele>
        <time>2010-02-06T19:17:36Z</time>
      </trkpt>
      <trkpt lat="47.516377000138164" lon="18.960267975926399">
        <ele>493.70999999999998</ele>
        <time>2010-02-06T19:17:39Z</time>
      </trkpt>
      <trkpt lat="47.516402984037995" lon="18.960275016725063">
        <ele>493.02499999999998</ele>
        <time>2010-02-06T19:17:41Z</time>
      </trkpt>
      <trkpt lat="47.516421005129814" lon="18.960308041423559">
        <ele>493.09800000000001</ele>
        <time>2010-02-06T19:17:43Z</time>
      </trkpt>
      <trkpt lat="47.516453023999929" lon="18.960337964817882">
        <ele>494.31200000000001</ele>
        <time>2010-02-06T19:17:46Z</time>
      </trkpt>
      <trkpt lat="47.516496023163199" lon="18.960327990353107">
        <ele>494.72199999999998</ele>
        <time>2010-02-06T19:17:50Z</time>
      </trkpt>
      <trkpt lat="47.516529969871044" lon="18.960306029766798">
        <ele>494.55900000000003</ele>
        <time>2010-02-06T19:17:53Z</time>
      </trkpt>
      <trkpt lat="47.516564000397921" lon="18.960260013118386">
        <ele>495.58999999999997</ele>
        <time>2010-02-06T19:17:56Z</time>
      </trkpt>
      <trkpt lat="47.516594007611275" lon="18.960207961499691">
        <ele>496.21899999999999</ele>
        <time>2010-02-06T19:17:59Z</time>
      </trkpt>
      <trkpt lat="47.516629965975881" lon="18.960151970386505">
        <ele>496.72500000000002</ele>
        <time>2010-02-06T19:18:02Z</time>
      </trkpt>
      <trkpt lat="47.516699032858014" lon="18.960165968164802">
        <ele>501.18400000000003</ele>
        <time>2010-02-06T19:18:20Z</time>
      </trkpt>
      <trkpt lat="47.516770027577877" lon="18.960126992315054">
        <ele>502.834</ele>
        <time>2010-02-06T19:18:26Z</time>
      </trkpt>
      <trkpt lat="47.516802968457341" lon="18.960132021456957">
        <ele>504.05700000000002</ele>
        <time>2010-02-06T19:18:30Z</time>
      </trkpt>
      <trkpt lat="47.516835993155837" lon="18.960154987871647">
        <ele>505.46499999999997</ele>
        <time>2010-02-06T19:18:34Z</time>
      </trkpt>
      <trkpt lat="47.51692702062428" lon="18.960083993151784">
        <ele>508.39400000000001</ele>
        <time>2010-02-06T19:18:44Z</time>
      </trkpt>
      <trkpt lat="47.516960967332125" lon="18.960090028122067">
        <ele>508.42099999999999</ele>
        <time>2010-02-06T19:18:47Z</time>
      </trkpt>
      <trkpt lat="47.517020981758833" lon="18.960050968453288">
        <ele>509.77199999999999</ele>
        <time>2010-02-06T19:18:54Z</time>
      </trkpt>
      <trkpt lat="47.517046965658665" lon="18.960014004260302">
        <ele>510.37599999999998</ele>
        <time>2010-02-06T19:18:57Z</time>
      </trkpt>
      <trkpt lat="47.517075967043638" lon="18.960005035623908">
        <ele>510.64100000000002</ele>
        <time>2010-02-06T19:19:00Z</time>
      </trkpt>
      <trkpt lat="47.517111003398895" lon="18.959990032017231">
        <ele>512.49300000000005</ele>
        <time>2010-02-06T19:19:03Z</time>
      </trkpt>
      <trkpt lat="47.517140004783869" lon="18.960020039230585">
        <ele>513.77999999999997</ele>
        <time>2010-02-06T19:19:07Z</time>
      </trkpt>
      <trkpt lat="47.517258021980524" lon="18.959979973733425">
        <ele>518.91099999999994</ele>
        <time>2010-02-06T19:19:23Z</time>
      </trkpt>
      <trkpt lat="47.517306972295046" lon="18.959927000105381">
        <ele>521.66600000000005</ele>
        <time>2010-02-06T19:19:29Z</time>
      </trkpt>
      <trkpt lat="47.517338991165161" lon="18.959913002327085">
        <ele>522.24000000000001</ele>
        <time>2010-02-06T19:19:33Z</time>
      </trkpt>
      <trkpt lat="47.517372015863657" lon="18.959895987063646">
        <ele>524.48000000000002</ele>
        <time>2010-02-06T19:19:37Z</time>
      </trkpt>
      <trkpt lat="47.517494978383183" lon="18.9597740303725">
        <ele>528.99400000000003</ele>
        <time>2010-02-06T19:19:51Z</time>
      </trkpt>
      <trkpt lat="47.517573013901711" lon="18.959715021774173">
        <ele>531.61300000000006</ele>
        <time>2010-02-06T19:20:00Z</time>
      </trkpt>
      <trkpt lat="47.517645014449954" lon="18.959713010117412">
        <ele>532.399</ele>
        <time>2010-02-06T19:20:11Z</time>
      </trkpt>
      <trkpt lat="47.517708968371153" lon="18.959692977368832">
        <ele>533.06299999999999</ele>
        <time>2010-02-06T19:20:18Z</time>
      </trkpt>
      <trkpt lat="47.517789015546441" lon="18.959633968770504">
        <ele>534.80200000000002</ele>
        <time>2010-02-06T19:20:26Z</time>
      </trkpt>
      <trkpt lat="47.517846012488008" lon="18.959597004577518">
        <ele>536.15700000000004</ele>
        <time>2010-02-06T19:20:32Z</time>
      </trkpt>
      <trkpt lat="47.517909966409206" lon="18.959565991535783">
        <ele>537.17700000000002</ele>
        <time>2010-02-06T19:20:36Z</time>
      </trkpt>
      <trkpt lat="47.517946008592844" lon="18.959560040384531">
        <ele>538.51599999999996</ele>
        <time>2010-02-06T19:20:39Z</time>
      </trkpt>
      <trkpt lat="47.51798297278583" lon="18.959533972665668">
        <ele>538.90599999999995</ele>
        <time>2010-02-06T19:20:43Z</time>
      </trkpt>
      <trkpt lat="47.518015997484326" lon="18.9595150295645">
        <ele>539.93799999999999</ele>
        <time>2010-02-06T19:20:46Z</time>
      </trkpt>
      <trkpt lat="47.518074000254273" lon="18.959460966289043">
        <ele>539.40999999999997</ele>
        <time>2010-02-06T19:20:52Z</time>
      </trkpt>
      <trkpt lat="47.518143989145756" lon="18.959354013204575">
        <ele>539.65700000000004</ele>
        <time>2010-02-06T19:21:01Z</time>
      </trkpt>
      <trkpt lat="47.518153041601181" lon="18.959301961585879">
        <ele>538.36099999999999</ele>
        <time>2010-02-06T19:21:03Z</time>
      </trkpt>
      <trkpt lat="47.518170978873968" lon="18.959235996007919">
        <ele>537.58799999999997</ele>
        <time>2010-02-06T19:21:06Z</time>
      </trkpt>
      <trkpt lat="47.518168967217207" lon="18.959185034036636">
        <ele>538.42499999999995</ele>
        <time>2010-02-06T19:21:09Z</time>
      </trkpt>
      <trkpt lat="47.518178019672632" lon="18.95912803709507">
        <ele>538.11099999999999</ele>
        <time>2010-02-06T19:21:12Z</time>
      </trkpt>
      <trkpt lat="47.518193023279309" lon="18.959135999903083">
        <ele>538.09900000000005</ele>
        <time>2010-02-06T19:21:17Z</time>
      </trkpt>
      <trkpt lat="47.518236022442579" lon="18.959163995459676">
        <ele>537.16600000000005</ele>
        <time>2010-02-06T19:21:20Z</time>
      </trkpt>
      <trkpt lat="47.518314979970455" lon="18.959191991016269">
        <ele>537.65099999999995</ele>
        <time>2010-02-06T19:21:24Z</time>
      </trkpt>
      <trkpt lat="47.518342975527048" lon="18.959174975752831">
        <ele>538.44600000000003</ele>
        <time>2010-02-06T19:21:28Z</time>
      </trkpt>
      <trkpt lat="47.518387986347079" lon="18.959155026823282">
        <ele>537.54499999999996</ele>
        <time>2010-02-06T19:21:32Z</time>
      </trkpt>
      <trkpt lat="47.518425034359097" lon="18.9590850379318">
        <ele>536.58699999999999</ele>
        <time>2010-02-06T19:21:36Z</time>
      </trkpt>
      <trkpt lat="47.518450012430549" lon="18.959013037383556">
        <ele>536.99900000000002</ele>
        <time>2010-02-06T19:21:39Z</time>
      </trkpt>
      <trkpt lat="47.518489994108677" lon="18.958961991593242">
        <ele>536.47199999999998</ele>
        <time>2010-02-06T19:21:42Z</time>
      </trkpt>
      <trkpt lat="47.518520001322031" lon="18.958930978551507">
        <ele>536.149</ele>
        <time>2010-02-06T19:21:44Z</time>
      </trkpt>
      <trkpt lat="47.518551014363766" lon="18.958887979388237">
        <ele>535.07100000000003</ele>
        <time>2010-02-06T19:21:47Z</time>
      </trkpt>
      <trkpt lat="47.518576998263597" lon="18.958841962739825">
        <ele>534.08199999999999</ele>
        <time>2010-02-06T19:21:51Z</time>
      </trkpt>
      <trkpt lat="47.518598036840558" lon="18.958806004375219">
        <ele>534.28599999999994</ele>
        <time>2010-02-06T19:21:53Z</time>
      </trkpt>
      <trkpt lat="47.518619997426867" lon="18.958782032132149">
        <ele>534.85299999999995</ele>
        <time>2010-02-06T19:21:56Z</time>
      </trkpt>
      <trkpt lat="47.518664002418518" lon="18.958731992170215">
        <ele>533.93399999999997</ele>
        <time>2010-02-06T19:21:59Z</time>
      </trkpt>
      <trkpt lat="47.518674982711673" lon="18.958694022148848">
        <ele>533.61599999999999</ele>
        <time>2010-02-06T19:22:06Z</time>
      </trkpt>
      <trkpt lat="47.518729967996478" lon="18.958693016320467">
        <ele>533.99000000000001</ele>
        <time>2010-02-06T19:22:36Z</time>
      </trkpt>
      <trkpt lat="47.518708007410169" lon="18.958663009107113">
        <ele>537.42999999999995</ele>
        <time>2010-02-06T19:24:02Z</time>
      </trkpt>
      <trkpt lat="47.518729967996478" lon="18.958638031035662">
        <ele>537.16300000000001</ele>
        <time>2010-02-06T19:24:05Z</time>
      </trkpt>
      <trkpt lat="47.5187530182302" lon="18.958612969145179">
        <ele>536.84400000000005</ele>
        <time>2010-02-06T19:24:07Z</time>
      </trkpt>
      <trkpt lat="47.51877699047327" lon="18.958582961931825">
        <ele>536.08600000000001</ele>
        <time>2010-02-06T19:24:09Z</time>
      </trkpt>
      <trkpt lat="47.518803980201483" lon="18.958547003567219">
        <ele>535.41899999999998</ele>
        <time>2010-02-06T19:24:11Z</time>
      </trkpt>
      <trkpt lat="47.518830969929695" lon="18.958520013839006">
        <ele>535.40899999999999</ele>
        <time>2010-02-06T19:24:13Z</time>
      </trkpt>
      <trkpt lat="47.518853014335036" lon="18.95848598331213">
        <ele>534.38400000000001</ele>
        <time>2010-02-06T19:24:15Z</time>
      </trkpt>
      <trkpt lat="47.518872041255236" lon="18.958437032997608">
        <ele>533.50999999999999</ele>
        <time>2010-02-06T19:24:17Z</time>
      </trkpt>
      <trkpt lat="47.518898025155067" lon="18.958389004692435">
        <ele>532.995</ele>
        <time>2010-02-06T19:24:20Z</time>
      </trkpt>
      <trkpt lat="47.518918979912996" lon="18.958343993872404">
        <ele>532.56100000000004</ele>
        <time>2010-02-06T19:24:23Z</time>
      </trkpt>
      <trkpt lat="47.518957033753395" lon="18.958304012194276">
        <ele>532.69899999999996</ele>
        <time>2010-02-06T19:24:26Z</time>
      </trkpt>
      <trkpt lat="47.518982011824846" lon="18.958251038566232">
        <ele>532.23299999999995</ele>
        <time>2010-02-06T19:24:28Z</time>
      </trkpt>
      <trkpt lat="47.519004978239536" lon="18.958198986947536">
        <ele>531.48400000000004</ele>
        <time>2010-02-06T19:24:30Z</time>
      </trkpt>
      <trkpt lat="47.519030962139368" lon="18.958161016926169">
        <ele>531.10500000000002</ele>
        <time>2010-02-06T19:24:32Z</time>
      </trkpt>
      <trkpt lat="47.519065998494625" lon="18.958106031641364">
        <ele>529.96299999999997</ele>
        <time>2010-02-06T19:24:35Z</time>
      </trkpt>
      <trkpt lat="47.519093994051218" lon="18.958069989457726">
        <ele>529.58000000000004</ele>
        <time>2010-02-06T19:24:37Z</time>
      </trkpt>
      <trkpt lat="47.519124001264572" lon="18.958017015829682">
        <ele>529.12</ele>
        <time>2010-02-06T19:24:39Z</time>
      </trkpt>
      <trkpt lat="47.519145039841533" lon="18.957952978089452">
        <ele>528.553</ele>
        <time>2010-02-06T19:24:41Z</time>
      </trkpt>
      <trkpt lat="47.519172029569745" lon="18.957898998633027">
        <ele>525.91600000000005</ele>
        <time>2010-02-06T19:24:43Z</time>
      </trkpt>
      <trkpt lat="47.519201030954719" lon="18.957847030833364">
        <ele>525.02300000000002</ele>
        <time>2010-02-06T19:24:45Z</time>
      </trkpt>
      <trkpt lat="47.519237995147705" lon="18.957792967557907">
        <ele>524.48500000000001</ele>
        <time>2010-02-06T19:24:47Z</time>
      </trkpt>
      <trkpt lat="47.519260039553046" lon="18.957730019465089">
        <ele>523.52700000000004</ele>
        <time>2010-02-06T19:24:50Z</time>
      </trkpt>
      <trkpt lat="47.519230032339692" lon="18.957696994766593">
        <ele>520.65599999999995</ele>
        <time>2010-02-06T19:24:53Z</time>
      </trkpt>
      <trkpt lat="47.519188961014152" lon="18.957661958411336">
        <ele>519.40499999999997</ele>
        <time>2010-02-06T19:24:56Z</time>
      </trkpt>
      <trkpt lat="47.519176974892616" lon="18.957599010318518">
        <ele>518.32399999999996</ele>
        <time>2010-02-06T19:24:58Z</time>
      </trkpt>
      <trkpt lat="47.519198013469577" lon="18.957533966749907">
        <ele>517.745</ele>
        <time>2010-02-06T19:25:00Z</time>
      </trkpt>
      <trkpt lat="47.519230032339692" lon="18.957470012828708">
        <ele>517.13699999999994</ele>
        <time>2010-02-06T19:25:02Z</time>
      </trkpt>
      <trkpt lat="47.519264984875917" lon="18.957403041422367">
        <ele>516.10400000000004</ele>
        <time>2010-02-06T19:25:04Z</time>
      </trkpt>
      <trkpt lat="47.519297003746033" lon="18.95734503865242">
        <ele>514.71199999999999</ele>
        <time>2010-02-06T19:25:06Z</time>
      </trkpt>
      <trkpt lat="47.519329022616148" lon="18.957289969548583">
        <ele>513.62599999999998</ele>
        <time>2010-02-06T19:25:08Z</time>
      </trkpt>
      <trkpt lat="47.519348971545696" lon="18.957231966778636">
        <ele>513.81100000000004</ele>
        <time>2010-02-06T19:25:10Z</time>
      </trkpt>
      <trkpt lat="47.519379984587431" lon="18.957198020070791">
        <ele>512.60699999999997</ele>
        <time>2010-02-06T19:25:12Z</time>
      </trkpt>
      <trkpt lat="47.519414015114307" lon="18.957169018685818">
        <ele>512.048</ele>
        <time>2010-02-06T19:25:14Z</time>
      </trkpt>
      <trkpt lat="47.519455002620816" lon="18.957161977887154">
        <ele>511.85700000000003</ele>
        <time>2010-02-06T19:25:16Z</time>
      </trkpt>
      <trkpt lat="47.519503030925989" lon="18.957176981493831">
        <ele>510.79300000000001</ele>
        <time>2010-02-06T19:25:19Z</time>
      </trkpt>
      <trkpt lat="47.51954804174602" lon="18.957154015079141">
        <ele>510.36700000000002</ele>
        <time>2010-02-06T19:25:21Z</time>
      </trkpt>
      <trkpt lat="47.51955097541213" lon="18.957100035622716">
        <ele>508.69600000000003</ele>
        <time>2010-02-06T19:25:23Z</time>
      </trkpt>
      <trkpt lat="47.519542006775737" lon="18.957043960690498">
        <ele>507.69600000000003</ele>
        <time>2010-02-06T19:25:25Z</time>
      </trkpt>
      <trkpt lat="47.519518034532666" lon="18.956986963748932">
        <ele>506.745</ele>
        <time>2010-02-06T19:25:27Z</time>
      </trkpt>
      <trkpt lat="47.51950697042048" lon="18.956926027312875">
        <ele>504.99299999999999</ele>
        <time>2010-02-06T19:25:30Z</time>
      </trkpt>
      <trkpt lat="47.519534965977073" lon="18.956864001229405">
        <ele>503.99000000000001</ele>
        <time>2010-02-06T19:25:33Z</time>
      </trkpt>
      <trkpt lat="47.519567990675569" lon="18.956833994016051">
        <ele>503.58100000000002</ele>
        <time>2010-02-06T19:25:35Z</time>
      </trkpt>
      <trkpt lat="47.519601015374064" lon="18.956813039258122">
        <ele>502.30799999999999</ele>
        <time>2010-02-06T19:25:37Z</time>
      </trkpt>
      <trkpt lat="47.519642002880573" lon="18.956781020388007">
        <ele>501.27699999999999</ele>
        <time>2010-02-06T19:25:39Z</time>
      </trkpt>
      <trkpt lat="47.519675027579069" lon="18.956754030659795">
        <ele>500.06</ele>
        <time>2010-02-06T19:25:41Z</time>
      </trkpt>
      <trkpt lat="47.519706962630153" lon="18.956727040931582">
        <ele>498.61500000000001</ele>
        <time>2010-02-06T19:25:43Z</time>
      </trkpt>
      <trkpt lat="47.519715009257197" lon="18.956653028726578">
        <ele>497.90100000000001</ele>
        <time>2010-02-06T19:25:46Z</time>
      </trkpt>
      <trkpt lat="47.51969899982214" lon="18.956600977107882">
        <ele>497.13600000000002</ele>
        <time>2010-02-06T19:25:48Z</time>
      </trkpt>
      <trkpt lat="47.519666980952024" lon="18.956541968509555">
        <ele>496.34699999999998</ele>
        <time>2010-02-06T19:25:50Z</time>
      </trkpt>
      <trkpt lat="47.519628005102277" lon="18.956525037065148">
        <ele>496.19900000000001</ele>
        <time>2010-02-06T19:25:52Z</time>
      </trkpt>
      <trkpt lat="47.51959104090929" lon="18.956535011529922">
        <ele>494.91199999999998</ele>
        <time>2010-02-06T19:25:54Z</time>
      </trkpt>
      <trkpt lat="47.519554998725653" lon="18.956517996266484">
        <ele>494.21800000000002</ele>
        <time>2010-02-06T19:25:56Z</time>
      </trkpt>
      <trkpt lat="47.519568996503949" lon="18.956466028466821">
        <ele>493.892</ele>
        <time>2010-02-06T19:25:59Z</time>
      </trkpt>
      <trkpt lat="47.519596992060542" lon="18.956431997939944">
        <ele>492.65600000000001</ele>
        <time>2010-02-06T19:26:01Z</time>
      </trkpt>
      <trkpt lat="47.519640997052193" lon="18.956409031525254">
        <ele>493.048</ele>
        <time>2010-02-06T19:26:04Z</time>
      </trkpt>
      <trkpt lat="47.519668992608786" lon="18.956405008211732">
        <ele>491.94900000000001</ele>
        <time>2010-02-06T19:26:06Z</time>
      </trkpt>
      <trkpt lat="47.519707968458533" lon="18.956406014040112">
        <ele>491.971</ele>
        <time>2010-02-06T19:26:08Z</time>
      </trkpt>
      <trkpt lat="47.519750967621803" lon="18.956426968798041">
        <ele>491.88099999999997</ele>
        <time>2010-02-06T19:26:10Z</time>
      </trkpt>
      <trkpt lat="47.519800001755357" lon="18.956442978233099">
        <ele>490.18200000000002</ele>
        <time>2010-02-06T19:26:12Z</time>
      </trkpt>
      <trkpt lat="47.51984803006053" lon="18.956436021253467">
        <ele>488.90499999999997</ele>
        <time>2010-02-06T19:26:14Z</time>
      </trkpt>
      <trkpt lat="47.519895974546671" lon="18.956439960747957">
        <ele>488.42599999999999</ele>
        <time>2010-02-06T19:26:16Z</time>
      </trkpt>
      <trkpt lat="47.51993796788156" lon="18.956451024860144">
        <ele>487.90800000000002</ele>
        <time>2010-02-06T19:26:18Z</time>
      </trkpt>
      <trkpt lat="47.519968980923295" lon="18.956456976011395">
        <ele>486.79199999999997</ele>
        <time>2010-02-06T19:26:20Z</time>
      </trkpt>
      <trkpt lat="47.520007034763694" lon="18.956462005153298">
        <ele>485.81200000000001</ele>
        <time>2010-02-06T19:26:22Z</time>
      </trkpt>
      <trkpt lat="47.520054979249835" lon="18.956488994881511">
        <ele>484.44799999999998</ele>
        <time>2010-02-06T19:26:25Z</time>
      </trkpt>
      <trkpt lat="47.520073000341654" lon="18.956447001546621">
        <ele>483.74400000000003</ele>
        <time>2010-02-06T19:26:28Z</time>
      </trkpt>
      <trkpt lat="47.520060008391738" lon="18.956396039575338">
        <ele>482.90100000000001</ele>
        <time>2010-02-06T19:26:30Z</time>
      </trkpt>
      <trkpt lat="47.5200429931283" lon="18.956332001835108">
        <ele>482.82499999999999</ele>
        <time>2010-02-06T19:26:32Z</time>
      </trkpt>
      <trkpt lat="47.520031007006764" lon="18.956268969923258">
        <ele>481.56099999999998</ele>
        <time>2010-02-06T19:26:34Z</time>
      </trkpt>
      <trkpt lat="47.520014997571707" lon="18.95620602183044">
        <ele>480.42700000000002</ele>
        <time>2010-02-06T19:26:36Z</time>
      </trkpt>
      <trkpt lat="47.519988007843494" lon="18.956148019060493">
        <ele>479.14699999999999</ele>
        <time>2010-02-06T19:26:38Z</time>
      </trkpt>
      <trkpt lat="47.519966969266534" lon="18.956093033775687">
        <ele>478.64299999999997</ele>
        <time>2010-02-06T19:26:40Z</time>
      </trkpt>
      <trkpt lat="47.519927993416786" lon="18.95603503100574">
        <ele>478.01400000000001</ele>
        <time>2010-02-06T19:26:43Z</time>
      </trkpt>
      <trkpt lat="47.51989396288991" lon="18.955974010750651">
        <ele>478.654</ele>
        <time>2010-02-06T19:26:45Z</time>
      </trkpt>
      <trkpt lat="47.519860016182065" lon="18.955921959131956">
        <ele>477.37599999999998</ele>
        <time>2010-02-06T19:26:47Z</time>
      </trkpt>
      <trkpt lat="47.519824979826808" lon="18.955877032130957">
        <ele>477.923</ele>
        <time>2010-02-06T19:26:49Z</time>
      </trkpt>
      <trkpt lat="47.519801007583737" lon="18.955825986340642">
        <ele>474.90600000000001</ele>
        <time>2010-02-06T19:26:52Z</time>
      </trkpt>
      <trkpt lat="47.519846018403769" lon="18.955786004662514">
        <ele>473.87799999999999</ele>
        <time>2010-02-06T19:26:55Z</time>
      </trkpt>
      <trkpt lat="47.519888011738658" lon="18.955769995227456">
        <ele>473.11399999999998</ele>
        <time>2010-02-06T19:26:57Z</time>
      </trkpt>
      <trkpt lat="47.519924975931644" lon="18.955759014934301">
        <ele>471.88200000000001</ele>
        <time>2010-02-06T19:26:59Z</time>
      </trkpt>
      <trkpt lat="47.519964035600424" lon="18.955739988014102">
        <ele>471.113</ele>
        <time>2010-02-06T19:27:02Z</time>
      </trkpt>
      <trkpt lat="47.519996976479888" lon="18.95575599744916">
        <ele>470.375</ele>
        <time>2010-02-06T19:27:04Z</time>
      </trkpt>
      <trkpt lat="47.520027989521623" lon="18.955767983570695">
        <ele>469.65300000000002</ele>
        <time>2010-02-06T19:27:06Z</time>
      </trkpt>
      <trkpt lat="47.520079035311937" lon="18.955794973298907">
        <ele>469.16800000000001</ele>
        <time>2010-02-06T19:27:09Z</time>
      </trkpt>
      <trkpt lat="47.520122034475207" lon="18.955818023532629">
        <ele>468.44200000000001</ele>
        <time>2010-02-06T19:27:11Z</time>
      </trkpt>
      <trkpt lat="47.520164027810097" lon="18.955817017704248">
        <ele>469.37</ele>
        <time>2010-02-06T19:27:13Z</time>
      </trkpt>
      <trkpt lat="47.520212978124619" lon="18.955793967470527">
        <ele>468.40499999999997</ele>
        <time>2010-02-06T19:27:16Z</time>
      </trkpt>
      <trkpt lat="47.520267041400075" lon="18.955782987177372">
        <ele>467.46199999999999</ele>
        <time>2010-02-06T19:27:20Z</time>
      </trkpt>
      <trkpt lat="47.520304005593061" lon="18.955802014097571">
        <ele>467.15100000000001</ele>
        <time>2010-02-06T19:27:22Z</time>
      </trkpt>
      <trkpt lat="47.520337030291557" lon="18.955834032967687">
        <ele>466.029</ele>
        <time>2010-02-06T19:27:24Z</time>
      </trkpt>
      <trkpt lat="47.52036795951426" lon="18.95586303435266">
        <ele>465.03500000000003</ele>
        <time>2010-02-06T19:27:26Z</time>
      </trkpt>
      <trkpt lat="47.520391009747982" lon="18.955907039344311">
        <ele>464.334</ele>
        <time>2010-02-06T19:27:28Z</time>
      </trkpt>
      <trkpt lat="47.520417999476194" lon="18.955946015194058">
        <ele>463.60199999999998</ele>
        <time>2010-02-06T19:27:30Z</time>
      </trkpt>
      <trkpt lat="47.520448006689548" lon="18.955981973558664">
        <ele>462.709</ele>
        <time>2010-02-06T19:27:32Z</time>
      </trkpt>
      <trkpt lat="47.520482959225774" lon="18.95601499825716">
        <ele>462.43799999999999</ele>
        <time>2010-02-06T19:27:34Z</time>
      </trkpt>
      <trkpt lat="47.520523024722934" lon="18.956006029620767">
        <ele>460.31700000000001</ele>
        <time>2010-02-06T19:27:36Z</time>
      </trkpt>
      <trkpt lat="47.520542973652482" lon="18.95595096051693">
        <ele>459.78300000000002</ele>
        <time>2010-02-06T19:27:38Z</time>
      </trkpt>
      <trkpt lat="47.520539034157991" lon="18.955890024080873">
        <ele>459.995</ele>
        <time>2010-02-06T19:27:40Z</time>
      </trkpt>
      <trkpt lat="47.520545991137624" lon="18.955837972462177">
        <ele>459.53899999999999</ele>
        <time>2010-02-06T19:27:42Z</time>
      </trkpt>
      <trkpt lat="47.520548002794385" lon="18.955788016319275">
        <ele>459.24099999999999</ele>
        <time>2010-02-06T19:27:44Z</time>
      </trkpt>
      <trkpt lat="47.520554959774017" lon="18.95573596470058">
        <ele>458.34500000000003</ele>
        <time>2010-02-06T19:27:46Z</time>
      </trkpt>
      <trkpt lat="47.520555965602398" lon="18.955687014386058">
        <ele>457.92099999999999</ele>
        <time>2010-02-06T19:27:48Z</time>
      </trkpt>
      <trkpt lat="47.520565018057823" lon="18.955617025494576">
        <ele>456.56099999999998</ele>
        <time>2010-02-06T19:27:50Z</time>
      </trkpt>
      <trkpt lat="47.520595025271177" lon="18.955543013289571">
        <ele>456.30399999999997</ele>
        <time>2010-02-06T19:27:52Z</time>
      </trkpt>
      <trkpt lat="47.520618997514248" lon="18.955479981377721">
        <ele>455.84800000000001</ele>
        <time>2010-02-06T19:27:54Z</time>
      </trkpt>
      <trkpt lat="47.520626038312912" lon="18.955427007749677">
        <ele>454.77699999999999</ele>
        <time>2010-02-06T19:27:56Z</time>
      </trkpt>
      <trkpt lat="47.520653028041124" lon="18.955372022464871">
        <ele>454.23500000000001</ele>
        <time>2010-02-06T19:27:58Z</time>
      </trkpt>
      <trkpt lat="47.520668031647801" lon="18.955322988331318">
        <ele>452.27699999999999</ele>
        <time>2010-02-06T19:28:00Z</time>
      </trkpt>
      <trkpt lat="47.520692003890872" lon="18.955274038016796">
        <ele>452.33300000000003</ele>
        <time>2010-02-06T19:28:02Z</time>
      </trkpt>
      <trkpt lat="47.520716981962323" lon="18.955230033025146">
        <ele>451.79199999999997</ele>
        <time>2010-02-06T19:28:04Z</time>
      </trkpt>
      <trkpt lat="47.520737014710903" lon="18.955186028033495">
        <ele>450.99099999999999</ele>
        <time>2010-02-06T19:28:06Z</time>
      </trkpt>
      <trkpt lat="47.520778002217412" lon="18.955130036920309">
        <ele>449.54700000000003</ele>
        <time>2010-02-06T19:28:09Z</time>
      </trkpt>
      <trkpt lat="47.520787976682186" lon="18.955076979473233">
        <ele>447.87799999999999</ele>
        <time>2010-02-06T19:28:12Z</time>
      </trkpt>
      <trkpt lat="47.520810021087527" lon="18.955034986138344">
        <ele>446.32299999999998</ele>
        <time>2010-02-06T19:28:14Z</time>
      </trkpt>
      <trkpt lat="47.520848996937275" lon="18.954987041652203">
        <ele>444.85399999999998</ele>
        <time>2010-02-06T19:28:16Z</time>
      </trkpt>
      <trkpt lat="47.520877998322248" lon="18.954937001690269">
        <ele>445.61399999999998</ele>
        <time>2010-02-06T19:28:18Z</time>
      </trkpt>
      <trkpt lat="47.520889984443784" lon="18.954891990870237">
        <ele>445.88200000000001</ele>
        <time>2010-02-06T19:28:20Z</time>
      </trkpt>
      <trkpt lat="47.520916974171996" lon="18.954846980050206">
        <ele>445.87099999999998</ele>
        <time>2010-02-06T19:28:23Z</time>
      </trkpt>
      <trkpt lat="47.520941030234098" lon="18.954799035564065">
        <ele>445.21699999999998</ele>
        <time>2010-02-06T19:28:26Z</time>
      </trkpt>
      <trkpt lat="47.520959973335266" lon="18.954751007258892">
        <ele>444.834</ele>
        <time>2010-02-06T19:28:28Z</time>
      </trkpt>
      <trkpt lat="47.520972965285182" lon="18.954695016145706">
        <ele>443.779</ele>
        <time>2010-02-06T19:28:30Z</time>
      </trkpt>
      <trkpt lat="47.52098897472024" lon="18.954642964527011">
        <ele>443.70999999999998</ele>
        <time>2010-02-06T19:28:32Z</time>
      </trkpt>
      <trkpt lat="47.521016970276833" lon="18.95459502004087">
        <ele>443.48099999999999</ele>
        <time>2010-02-06T19:28:34Z</time>
      </trkpt>
      <trkpt lat="47.521051000803709" lon="18.954555038362741">
        <ele>443.01600000000002</ele>
        <time>2010-02-06T19:28:36Z</time>
      </trkpt>
      <trkpt lat="47.52107597887516" lon="18.954524025321007">
        <ele>443.43200000000002</ele>
        <time>2010-02-06T19:28:38Z</time>
      </trkpt>
      <trkpt lat="47.521101962774992" lon="18.954498041421175">
        <ele>442.94400000000002</ele>
        <time>2010-02-06T19:28:40Z</time>
      </trkpt>
      <trkpt lat="47.521144039928913" lon="18.954468034207821">
        <ele>443.24900000000002</ele>
        <time>2010-02-06T19:28:42Z</time>
      </trkpt>
      <trkpt lat="47.521176980808377" lon="18.954432997852564">
        <ele>442.95999999999998</ele>
        <time>2010-02-06T19:28:44Z</time>
      </trkpt>
      <trkpt lat="47.521211011335254" lon="18.954396033659577">
        <ele>442.25</ele>
        <time>2010-02-06T19:28:46Z</time>
      </trkpt>
      <trkpt lat="47.521234983578324" lon="18.954362003132701">
        <ele>442.49099999999999</ele>
        <time>2010-02-06T19:28:48Z</time>
      </trkpt>
      <trkpt lat="47.521261973306537" lon="18.954325038939714">
        <ele>441.68000000000001</ele>
        <time>2010-02-06T19:28:50Z</time>
      </trkpt>
      <trkpt lat="47.521304972469807" lon="18.954259995371103">
        <ele>442.35399999999998</ele>
        <time>2010-02-06T19:28:53Z</time>
      </trkpt>
      <trkpt lat="47.521335985511541" lon="18.954216996207833">
        <ele>441.73200000000003</ele>
        <time>2010-02-06T19:28:55Z</time>
      </trkpt>
      <trkpt lat="47.521360963582993" lon="18.954175002872944">
        <ele>441.02100000000002</ele>
        <time>2010-02-06T19:28:57Z</time>
      </trkpt>
      <trkpt lat="47.52139599993825" lon="18.95412496291101">
        <ele>440.46899999999999</ele>
        <time>2010-02-06T19:29:00Z</time>
      </trkpt>
      <trkpt lat="47.52141703851521" lon="18.954083975404501">
        <ele>441.03300000000002</ele>
        <time>2010-02-06T19:29:02Z</time>
      </trkpt>
      <trkpt lat="47.521448973566294" lon="18.954027984291315">
        <ele>440.88200000000001</ele>
        <time>2010-02-06T19:29:05Z</time>
      </trkpt>
      <trkpt lat="47.52148199826479" lon="18.95399697124958">
        <ele>439.88900000000001</ele>
        <time>2010-02-06T19:29:07Z</time>
      </trkpt>
      <trkpt lat="47.521519968286157" lon="18.953964030370116">
        <ele>439.29399999999998</ele>
        <time>2010-02-06T19:29:09Z</time>
      </trkpt>
      <trkpt lat="47.521551987156272" lon="18.953937962651253">
        <ele>439.27699999999999</ele>
        <time>2010-02-06T19:29:11Z</time>
      </trkpt>
      <trkpt lat="47.521594986319542" lon="18.953894963487983">
        <ele>438.83300000000003</ele>
        <time>2010-02-06T19:29:14Z</time>
      </trkpt>
      <trkpt lat="47.521636979654431" lon="18.953855987638235">
        <ele>438.10000000000002</ele>
        <time>2010-02-06T19:29:18Z</time>
      </trkpt>
      <trkpt lat="47.521673021838069" lon="18.95382103510201">
        <ele>438.24099999999999</ele>
        <time>2010-02-06T19:29:20Z</time>
      </trkpt>
      <trkpt lat="47.521707974374294" lon="18.95377904176712">
        <ele>438.06200000000001</ele>
        <time>2010-02-06T19:29:23Z</time>
      </trkpt>
      <trkpt lat="47.521742004901171" lon="18.953731013461947">
        <ele>437.726</ele>
        <time>2010-02-06T19:29:26Z</time>
      </trkpt>
      <trkpt lat="47.521778969094157" lon="18.953701006248593">
        <ele>437.55599999999998</ele>
        <time>2010-02-06T19:29:28Z</time>
      </trkpt>
      <trkpt lat="47.521810987964272" lon="18.95367200486362">
        <ele>437.85899999999998</ele>
        <time>2010-02-06T19:29:30Z</time>
      </trkpt>
      <trkpt lat="47.52184996381402" lon="18.953641997650266">
        <ele>437.709</ele>
        <time>2010-02-06T19:29:32Z</time>
      </trkpt>
      <trkpt lat="47.521878965198994" lon="18.953611990436912">
        <ele>437.38400000000001</ele>
        <time>2010-02-06T19:29:34Z</time>
      </trkpt>
      <trkpt lat="47.521923976019025" lon="18.953579971566796">
        <ele>437.33600000000001</ele>
        <time>2010-02-06T19:29:37Z</time>
      </trkpt>
      <trkpt lat="47.521963035687804" lon="18.953534038737416">
        <ele>436.83300000000003</ele>
        <time>2010-02-06T19:29:40Z</time>
      </trkpt>
      <trkpt lat="47.52201802097261" lon="18.953495984897017">
        <ele>437.26799999999997</ele>
        <time>2010-02-06T19:29:43Z</time>
      </trkpt>
      <trkpt lat="47.522069988772273" lon="18.953462038189173">
        <ele>436.56599999999997</ele>
        <time>2010-02-06T19:29:46Z</time>
      </trkpt>
      <trkpt lat="47.522108964622021" lon="18.953444017097354">
        <ele>437.06400000000002</ele>
        <time>2010-02-06T19:29:48Z</time>
      </trkpt>
      <trkpt lat="47.522168979048729" lon="18.953433958813548">
        <ele>436.291</ele>
        <time>2010-02-06T19:29:51Z</time>
      </trkpt>
      <trkpt lat="47.522210972383618" lon="18.953407974913716">
        <ele>435.83699999999999</ele>
        <time>2010-02-06T19:29:53Z</time>
      </trkpt>
      <trkpt lat="47.522250032052398" lon="18.953387020155787">
        <ele>435.74900000000002</ele>
        <time>2010-02-06T19:29:55Z</time>
      </trkpt>
      <trkpt lat="47.522280961275101" lon="18.953368999063969">
        <ele>436.35899999999998</ele>
        <time>2010-02-06T19:29:57Z</time>
      </trkpt>
      <trkpt lat="47.522323038429022" lon="18.953344020992517">
        <ele>435.57999999999998</ele>
        <time>2010-02-06T19:29:59Z</time>
      </trkpt>
      <trkpt lat="47.522362014278769" lon="18.953317031264305">
        <ele>436.03199999999998</ele>
        <time>2010-02-06T19:30:02Z</time>
      </trkpt>
      <trkpt lat="47.522403001785278" lon="18.953292975202203">
        <ele>435.71800000000002</ele>
        <time>2010-02-06T19:30:05Z</time>
      </trkpt>
      <trkpt lat="47.522440971806645" lon="18.953274032101035">
        <ele>435.48500000000001</ele>
        <time>2010-02-06T19:30:07Z</time>
      </trkpt>
      <trkpt lat="47.522478019818664" lon="18.953236984089017">
        <ele>434.82400000000001</ele>
        <time>2010-02-06T19:30:09Z</time>
      </trkpt>
      <trkpt lat="47.522501992061734" lon="18.953209994360805">
        <ele>434.66500000000002</ele>
        <time>2010-02-06T19:30:11Z</time>
      </trkpt>
      <trkpt lat="47.522537028416991" lon="18.953204965218902">
        <ele>435.02999999999997</ele>
        <time>2010-02-06T19:30:13Z</time>
      </trkpt>
      <trkpt lat="47.522574998438358" lon="18.953195996582508">
        <ele>434.42099999999999</ele>
        <time>2010-02-06T19:30:15Z</time>
      </trkpt>
      <trkpt lat="47.522620009258389" lon="18.95317898131907">
        <ele>434.43099999999998</ele>
        <time>2010-02-06T19:30:17Z</time>
      </trkpt>
      <trkpt lat="47.522657979279757" lon="18.953166995197535">
        <ele>434.11700000000002</ele>
        <time>2010-02-06T19:30:19Z</time>
      </trkpt>
      <trkpt lat="47.522696033120155" lon="18.953147968277335">
        <ele>433.95600000000002</ele>
        <time>2010-02-06T19:30:21Z</time>
      </trkpt>
      <trkpt lat="47.522742971777916" lon="18.953144028782845">
        <ele>433.995</ele>
        <time>2010-02-06T19:30:24Z</time>
      </trkpt>
      <trkpt lat="47.522786976769567" lon="18.953121984377503">
        <ele>433.47699999999998</ele>
        <time>2010-02-06T19:30:27Z</time>
      </trkpt>
      <trkpt lat="47.522835005074739" lon="18.953105974942446">
        <ele>433.62799999999999</ele>
        <time>2010-02-06T19:30:30Z</time>
      </trkpt>
      <trkpt lat="47.522880015894771" lon="18.95307102240622">
        <ele>432.84500000000003</ele>
        <time>2010-02-06T19:30:33Z</time>
      </trkpt>
      <trkpt lat="47.522928966209292" lon="18.95302802324295">
        <ele>432.32600000000002</ele>
        <time>2010-02-06T19:30:36Z</time>
      </trkpt>
      <trkpt lat="47.522984035313129" lon="18.952997010201216">
        <ele>432.22899999999998</ele>
        <time>2010-02-06T19:30:39Z</time>
      </trkpt>
      <trkpt lat="47.523020999506116" lon="18.952973959967494">
        <ele>432.83699999999999</ele>
        <time>2010-02-06T19:30:41Z</time>
      </trkpt>
      <trkpt lat="47.52305100671947" lon="18.952938001602888">
        <ele>432.02499999999998</ele>
        <time>2010-02-06T19:30:43Z</time>
      </trkpt>
      <trkpt lat="47.523085037246346" lon="18.952909000217915">
        <ele>432.51299999999998</ele>
        <time>2010-02-06T19:30:45Z</time>
      </trkpt>
      <trkpt lat="47.523125018924475" lon="18.952879998832941">
        <ele>432.14600000000002</ele>
        <time>2010-02-06T19:30:47Z</time>
      </trkpt>
      <trkpt lat="47.523156031966209" lon="18.95285896025598">
        <ele>432.39699999999999</ele>
        <time>2010-02-06T19:30:49Z</time>
      </trkpt>
      <trkpt lat="47.523187967017293" lon="18.95281596109271">
        <ele>432.63900000000001</ele>
        <time>2010-02-06T19:30:51Z</time>
      </trkpt>
      <trkpt lat="47.523229960352182" lon="18.952784026041627">
        <ele>432.44999999999999</ele>
        <time>2010-02-06T19:30:54Z</time>
      </trkpt>
      <trkpt lat="47.523276982828975" lon="18.952741026878357">
        <ele>432.56299999999999</ele>
        <time>2010-02-06T19:30:57Z</time>
      </trkpt>
      <trkpt lat="47.523317970335484" lon="18.952700039371848">
        <ele>432.35899999999998</ele>
        <time>2010-02-06T19:31:00Z</time>
      </trkpt>
      <trkpt lat="47.523364992812276" lon="18.952669026330113">
        <ele>432.80500000000001</ele>
        <time>2010-02-06T19:31:03Z</time>
      </trkpt>
      <trkpt lat="47.523405980318785" lon="18.952637007459998">
        <ele>433.09800000000001</ele>
        <time>2010-02-06T19:31:05Z</time>
      </trkpt>
      <trkpt lat="47.523459959775209" lon="18.952601971104741">
        <ele>432.29300000000001</ele>
        <time>2010-02-06T19:31:08Z</time>
      </trkpt>
      <trkpt lat="47.523494996130466" lon="18.952590990811586">
        <ele>432.74000000000001</ele>
        <time>2010-02-06T19:31:10Z</time>
      </trkpt>
      <trkpt lat="47.523540006950498" lon="18.952559977769852">
        <ele>432.70699999999999</ele>
        <time>2010-02-06T19:31:13Z</time>
      </trkpt>
      <trkpt lat="47.523585017770529" lon="18.952550003305078">
        <ele>433.27499999999998</ele>
        <time>2010-02-06T19:31:16Z</time>
      </trkpt>
      <trkpt lat="47.523627011105418" lon="18.952530976384878">
        <ele>433.19299999999998</ele>
        <time>2010-02-06T19:31:18Z</time>
      </trkpt>
      <trkpt lat="47.523665986955166" lon="18.952495018020272">
        <ele>433.72199999999998</ele>
        <time>2010-02-06T19:31:20Z</time>
      </trkpt>
      <trkpt lat="47.523713009431958" lon="18.952457970008254">
        <ele>433.10599999999999</ele>
        <time>2010-02-06T19:31:23Z</time>
      </trkpt>
      <trkpt lat="47.523753996938467" lon="18.952433997765183">
        <ele>433.94299999999998</ele>
        <time>2010-02-06T19:31:26Z</time>
      </trkpt>
      <trkpt lat="47.523803031072021" lon="18.952412037178874">
        <ele>433.31400000000002</ele>
        <time>2010-02-06T19:31:29Z</time>
      </trkpt>
      <trkpt lat="47.523848963901401" lon="18.952398039400578">
        <ele>433.30900000000003</ele>
        <time>2010-02-06T19:31:32Z</time>
      </trkpt>
      <trkpt lat="47.523908978328109" lon="18.952395021915436">
        <ele>432.93099999999998</ele>
        <time>2010-02-06T19:31:35Z</time>
      </trkpt>
      <trkpt lat="47.523985002189875" lon="18.952381024137139">
        <ele>432.70999999999998</ele>
        <time>2010-02-06T19:31:39Z</time>
      </trkpt>
      <trkpt lat="47.524034036323428" lon="18.952378006651998">
        <ele>432.07100000000003</ele>
        <time>2010-02-06T19:31:42Z</time>
      </trkpt>
      <trkpt lat="47.524084998294711" lon="18.952380018308759">
        <ele>431.85199999999998</ele>
        <time>2010-02-06T19:31:45Z</time>
      </trkpt>
      <trkpt lat="47.524135960265994" lon="18.952367026358843">
        <ele>431.428</ele>
        <time>2010-02-06T19:31:48Z</time>
      </trkpt>
      <trkpt lat="47.52416898496449" lon="18.952335007488728">
        <ele>431.154</ele>
        <time>2010-02-06T19:31:50Z</time>
      </trkpt>
      <trkpt lat="47.524220030754805" lon="18.952312963083386">
        <ele>431.75099999999998</ele>
        <time>2010-02-06T19:31:52Z</time>
      </trkpt>
      <trkpt lat="47.524261018261313" lon="18.952289996668696">
        <ele>430.60399999999998</ele>
        <time>2010-02-06T19:31:54Z</time>
      </trkpt>
      <trkpt lat="47.524298988282681" lon="18.952263006940484">
        <ele>430.94799999999998</ele>
        <time>2010-02-06T19:31:56Z</time>
      </trkpt>
      <trkpt lat="47.524334024637938" lon="18.952224031090736">
        <ele>430.66500000000002</ele>
        <time>2010-02-06T19:31:58Z</time>
      </trkpt>
      <trkpt lat="47.524376017972827" lon="18.952172985300422">
        <ele>430.48000000000002</ele>
        <time>2010-02-06T19:32:01Z</time>
      </trkpt>
      <trkpt lat="47.52440401352942" lon="18.95214700140059">
        <ele>429.10700000000003</ele>
        <time>2010-02-06T19:32:03Z</time>
      </trkpt>
      <trkpt lat="47.524439971894026" lon="18.952119005843997">
        <ele>428.72399999999999</ele>
        <time>2010-02-06T19:32:05Z</time>
      </trkpt>
      <trkpt lat="47.524479031562805" lon="18.952087992802262">
        <ele>428.49900000000002</ele>
        <time>2010-02-06T19:32:07Z</time>
      </trkpt>
      <trkpt lat="47.524511972442269" lon="18.952055973932147">
        <ele>427.89600000000002</ele>
        <time>2010-02-06T19:32:09Z</time>
      </trkpt>
      <trkpt lat="47.524549020454288" lon="18.952027978375554">
        <ele>427.15600000000001</ele>
        <time>2010-02-06T19:32:11Z</time>
      </trkpt>
      <trkpt lat="47.524587996304035" lon="18.95199503749609">
        <ele>426.66399999999999</ele>
        <time>2010-02-06T19:32:13Z</time>
      </trkpt>
      <trkpt lat="47.524624960497022" lon="18.951967963948846">
        <ele>426.10199999999998</ele>
        <time>2010-02-06T19:32:15Z</time>
      </trkpt>
      <trkpt lat="47.52466301433742" lon="18.951939968392253">
        <ele>425.35700000000003</ele>
        <time>2010-02-06T19:32:17Z</time>
      </trkpt>
      <trkpt lat="47.524700984358788" lon="18.951920019462705">
        <ele>424.69799999999998</ele>
        <time>2010-02-06T19:32:19Z</time>
      </trkpt>
      <trkpt lat="47.524741971865296" lon="18.951896969228983">
        <ele>424.34300000000002</ele>
        <time>2010-02-06T19:32:21Z</time>
      </trkpt>
      <trkpt lat="47.524777008220553" lon="18.951879031956196">
        <ele>423.88999999999999</ele>
        <time>2010-02-06T19:32:23Z</time>
      </trkpt>
      <trkpt lat="47.52481497824192" lon="18.951865034177899">
        <ele>424.18200000000002</ele>
        <time>2010-02-06T19:32:25Z</time>
      </trkpt>
      <trkpt lat="47.5248540379107" lon="18.951851036399603">
        <ele>423.97300000000001</ele>
        <time>2010-02-06T19:32:27Z</time>
      </trkpt>
      <trkpt lat="47.524893013760448" lon="18.951832009479403">
        <ele>422.59399999999999</ele>
        <time>2010-02-06T19:32:29Z</time>
      </trkpt>
      <trkpt lat="47.524930983781815" lon="18.951806025579572">
        <ele>421.57100000000003</ele>
        <time>2010-02-06T19:32:31Z</time>
      </trkpt>
      <trkpt lat="47.524968031793833" lon="18.951790016144514">
        <ele>421.12299999999999</ele>
        <time>2010-02-06T19:32:33Z</time>
      </trkpt>
      <trkpt lat="47.525004995986819" lon="18.951765960082412">
        <ele>421.39699999999999</ele>
        <time>2010-02-06T19:32:35Z</time>
      </trkpt>
      <trkpt lat="47.525041038170457" lon="18.951749028638005">
        <ele>421.43200000000002</ele>
        <time>2010-02-06T19:32:37Z</time>
      </trkpt>
      <trkpt lat="47.525080014020205" lon="18.951728995889425">
        <ele>420.47899999999998</ele>
        <time>2010-02-06T19:32:39Z</time>
      </trkpt>
      <trkpt lat="47.5251130387187" lon="18.951705023646355">
        <ele>420.61000000000001</ele>
        <time>2010-02-06T19:32:41Z</time>
      </trkpt>
      <trkpt lat="47.525152014568448" lon="18.951663030311465">
        <ele>420.23399999999998</ele>
        <time>2010-02-06T19:32:43Z</time>
      </trkpt>
      <trkpt lat="47.525196019560099" lon="18.951623970642686">
        <ele>419.01900000000001</ele>
        <time>2010-02-06T19:32:45Z</time>
      </trkpt>
      <trkpt lat="47.525230972096324" lon="18.951595975086093">
        <ele>419.36399999999998</ele>
        <time>2010-02-06T19:32:47Z</time>
      </trkpt>
      <trkpt lat="47.525257961824536" lon="18.951559010893106">
        <ele>419.51900000000001</ele>
        <time>2010-02-06T19:32:49Z</time>
      </trkpt>
      <trkpt lat="47.525288974866271" lon="18.951523974537849">
        <ele>418.20999999999998</ele>
        <time>2010-02-06T19:32:51Z</time>
      </trkpt>
      <trkpt lat="47.525317976251245" lon="18.951488016173244">
        <ele>416.72699999999998</ele>
        <time>2010-02-06T19:32:53Z</time>
      </trkpt>
      <trkpt lat="47.525353012606502" lon="18.951464965939522">
        <ele>415.89499999999998</ele>
        <time>2010-02-06T19:32:55Z</time>
      </trkpt>
      <trkpt lat="47.525387965142727" lon="18.951418027281761">
        <ele>415.00299999999999</ele>
        <time>2010-02-06T19:32:58Z</time>
      </trkpt>
      <trkpt lat="47.525419984012842" lon="18.951399000361562">
        <ele>413.92599999999999</ele>
        <time>2010-02-06T19:33:00Z</time>
      </trkpt>
      <trkpt lat="47.525453008711338" lon="18.951382990926504">
        <ele>414.86500000000001</ele>
        <time>2010-02-06T19:33:02Z</time>
      </trkpt>
      <trkpt lat="47.52547899261117" lon="18.951333034783602">
        <ele>413.41199999999998</ele>
        <time>2010-02-06T19:33:05Z</time>
      </trkpt>
      <trkpt lat="47.525514028966427" lon="18.951280983164907">
        <ele>413.23599999999999</ele>
        <time>2010-02-06T19:33:08Z</time>
      </trkpt>
      <trkpt lat="47.525557028129697" lon="18.951251981779933">
        <ele>412.24400000000003</ele>
        <time>2010-02-06T19:33:11Z</time>
      </trkpt>
      <trkpt lat="47.525592986494303" lon="18.951229015365243">
        <ele>411.75799999999998</ele>
        <time>2010-02-06T19:33:13Z</time>
      </trkpt>
      <trkpt lat="47.525630034506321" lon="18.951205965131521">
        <ele>411.12099999999998</ele>
        <time>2010-02-06T19:33:15Z</time>
      </trkpt>
      <trkpt lat="47.525658030062914" lon="18.951164977625012">
        <ele>411.01299999999998</ele>
        <time>2010-02-06T19:33:17Z</time>
      </trkpt>
      <trkpt lat="47.52569398842752" lon="18.951144022867084">
        <ele>409.51600000000002</ele>
        <time>2010-02-06T19:33:20Z</time>
      </trkpt>
      <trkpt lat="47.525727013126016" lon="18.951145028695464">
        <ele>409.43099999999998</ele>
        <time>2010-02-06T19:33:22Z</time>
      </trkpt>
      <trkpt lat="47.525764983147383" lon="18.951133964583278">
        <ele>408.20699999999999</ele>
        <time>2010-02-06T19:33:24Z</time>
      </trkpt>
      <trkpt lat="47.525798007845879" lon="18.951117033138871">
        <ele>407.88900000000001</ele>
        <time>2010-02-06T19:33:26Z</time>
      </trkpt>
      <trkpt lat="47.525860033929348" lon="18.951110998168588">
        <ele>405.012</ele>
        <time>2010-02-06T19:33:29Z</time>
      </trkpt>
      <trkpt lat="47.525903033092618" lon="18.951089037582278">
        <ele>403.68299999999999</ele>
        <time>2010-02-06T19:33:31Z</time>
      </trkpt>
      <trkpt lat="47.52595198340714" lon="18.951073028147221">
        <ele>403.09100000000001</ele>
        <time>2010-02-06T19:33:33Z</time>
      </trkpt>
      <trkpt lat="47.52599598839879" lon="18.951059030368924">
        <ele>402.28699999999998</ele>
        <time>2010-02-06T19:33:35Z</time>
      </trkpt>
      <trkpt lat="47.526033958420157" lon="18.951038997620344">
        <ele>401.73200000000003</ele>
        <time>2010-02-06T19:33:37Z</time>
      </trkpt>
      <trkpt lat="47.526083998382092" lon="18.951003039255738">
        <ele>400.07799999999997</ele>
        <time>2010-02-06T19:33:40Z</time>
      </trkpt>
      <trkpt lat="47.526128003373742" lon="18.950959034264088">
        <ele>399.56</ele>
        <time>2010-02-06T19:33:43Z</time>
      </trkpt>
      <trkpt lat="47.526152981445193" lon="18.950908994302154">
        <ele>398.65499999999997</ele>
        <time>2010-02-06T19:33:46Z</time>
      </trkpt>
      <trkpt lat="47.526179971173406" lon="18.9508599601686">
        <ele>396.952</ele>
        <time>2010-02-06T19:33:49Z</time>
      </trkpt>
      <trkpt lat="47.526180977001786" lon="18.950892984867096">
        <ele>398.471</ele>
        <time>2010-02-06T19:33:54Z</time>
      </trkpt>
      <trkpt lat="47.526206960901618" lon="18.95092299208045">
        <ele>398.30500000000001</ele>
        <time>2010-02-06T19:33:56Z</time>
      </trkpt>
      <trkpt lat="47.526250965893269" lon="18.950952999293804">
        <ele>397.15899999999999</ele>
        <time>2010-02-06T19:33:59Z</time>
      </trkpt>
      <trkpt lat="47.526283990591764" lon="18.950919974595308">
        <ele>396.40100000000001</ele>
        <time>2010-02-06T19:34:01Z</time>
      </trkpt>
      <trkpt lat="47.526301005855203" lon="18.950842022895813">
        <ele>394.029</ele>
        <time>2010-02-06T19:34:03Z</time>
      </trkpt>
      <trkpt lat="47.526301005855203" lon="18.950778990983963">
        <ele>393.78699999999998</ele>
        <time>2010-02-06T19:34:05Z</time>
      </trkpt>
      <trkpt lat="47.526290025562048" lon="18.950726017355919">
        <ele>392.47000000000003</ele>
        <time>2010-02-06T19:34:07Z</time>
      </trkpt>
      <trkpt lat="47.526265969499946" lon="18.950672037899494">
        <ele>392.36200000000002</ele>
        <time>2010-02-06T19:34:10Z</time>
      </trkpt>
      <trkpt lat="47.526255995035172" lon="18.950605988502502">
        <ele>391.08199999999999</ele>
        <time>2010-02-06T19:34:13Z</time>
      </trkpt>
      <trkpt lat="47.526218025013804" lon="18.950557038187981">
        <ele>390.69499999999999</ele>
        <time>2010-02-06T19:34:15Z</time>
      </trkpt>
      <trkpt lat="47.526189023628831" lon="18.950511021539569">
        <ele>389.952</ele>
        <time>2010-02-06T19:34:17Z</time>
      </trkpt>
      <trkpt lat="47.526194974780083" lon="18.950453018769622">
        <ele>388.90300000000002</ele>
        <time>2010-02-06T19:34:19Z</time>
      </trkpt>
      <trkpt lat="47.526225987821817" lon="18.950414964929223">
        <ele>388.88799999999998</ele>
        <time>2010-02-06T19:34:21Z</time>
      </trkpt>
      <trkpt lat="47.52627301029861" lon="18.950400967150927">
        <ele>388.27600000000001</ele>
        <time>2010-02-06T19:34:23Z</time>
      </trkpt>
      <trkpt lat="47.526321960613132" lon="18.950399039313197">
        <ele>387.45600000000002</ele>
        <time>2010-02-06T19:34:25Z</time>
      </trkpt>
      <trkpt lat="47.526376023888588" lon="18.950398033484817">
        <ele>386.70999999999998</ele>
        <time>2010-02-06T19:34:27Z</time>
      </trkpt>
      <trkpt lat="47.526418017223477" lon="18.950400967150927">
        <ele>385.71899999999999</ele>
        <time>2010-02-06T19:34:29Z</time>
      </trkpt>
      <trkpt lat="47.52646503970027" lon="18.950413037091494">
        <ele>384.56599999999997</ele>
        <time>2010-02-06T19:34:31Z</time>
      </trkpt>
      <trkpt lat="47.526520024985075" lon="18.950442038476467">
        <ele>383.50700000000001</ele>
        <time>2010-02-06T19:34:33Z</time>
      </trkpt>
      <trkpt lat="47.526577021926641" lon="18.950483025982976">
        <ele>383.69499999999999</ele>
        <time>2010-02-06T19:34:35Z</time>
      </trkpt>
      <trkpt lat="47.526628989726305" lon="18.95053499378264">
        <ele>382.80000000000001</ele>
        <time>2010-02-06T19:34:37Z</time>
      </trkpt>
      <trkpt lat="47.526676012203097" lon="18.950586039572954">
        <ele>381.78500000000003</ele>
        <time>2010-02-06T19:34:39Z</time>
      </trkpt>
      <trkpt lat="47.526721023023129" lon="18.950639013200998">
        <ele>380.10700000000003</ele>
        <time>2010-02-06T19:34:41Z</time>
      </trkpt>
      <trkpt lat="47.526756981387734" lon="18.950695004314184">
        <ele>379.87200000000001</ele>
        <time>2010-02-06T19:34:43Z</time>
      </trkpt>
      <trkpt lat="47.526791011914611" lon="18.95075099542737">
        <ele>379.16699999999997</ele>
        <time>2010-02-06T19:34:45Z</time>
      </trkpt>
      <trkpt lat="47.52681297250092" lon="18.950818972662091">
        <ele>378.94799999999998</ele>
        <time>2010-02-06T19:34:47Z</time>
      </trkpt>
      <trkpt lat="47.526818001642823" lon="18.950890973210335">
        <ele>378.25099999999998</ele>
        <time>2010-02-06T19:34:49Z</time>
      </trkpt>
      <trkpt lat="47.526814984157681" lon="18.950956016778946">
        <ele>377.25400000000002</ele>
        <time>2010-02-06T19:34:51Z</time>
      </trkpt>
      <trkpt lat="47.526808027178049" lon="18.951020976528525">
        <ele>375.91199999999998</ele>
        <time>2010-02-06T19:34:53Z</time>
      </trkpt>
      <trkpt lat="47.526796963065863" lon="18.951087025925517">
        <ele>375.30500000000001</ele>
        <time>2010-02-06T19:34:55Z</time>
      </trkpt>
      <trkpt lat="47.526784976944327" lon="18.951155003160238">
        <ele>374.63999999999999</ele>
        <time>2010-02-06T19:34:57Z</time>
      </trkpt>
      <trkpt lat="47.526779025793076" lon="18.951219040900469">
        <ele>374.23000000000002</ele>
        <time>2010-02-06T19:34:59Z</time>
      </trkpt>
      <trkpt lat="47.526775002479553" lon="18.951277965679765">
        <ele>374.35500000000002</ele>
        <time>2010-02-06T19:35:01Z</time>
      </trkpt>
      <trkpt lat="47.526775002479553" lon="18.951342003419995">
        <ele>373.44200000000001</ele>
        <time>2010-02-06T19:35:03Z</time>
      </trkpt>
      <trkpt lat="47.526772990822792" lon="18.951400006189942">
        <ele>372.95100000000002</ele>
        <time>2010-02-06T19:35:05Z</time>
      </trkpt>
      <trkpt lat="47.526778019964695" lon="18.951462032273412">
        <ele>373.19</ele>
        <time>2010-02-06T19:35:07Z</time>
      </trkpt>
      <trkpt lat="47.526780031621456" lon="18.951526992022991">
        <ele>372.50200000000001</ele>
        <time>2010-02-06T19:35:09Z</time>
      </trkpt>
      <trkpt lat="47.526781959459186" lon="18.951596980914474">
        <ele>372.483</ele>
        <time>2010-02-06T19:35:11Z</time>
      </trkpt>
      <trkpt lat="47.526781959459186" lon="18.951666969805956">
        <ele>371.44099999999997</ele>
        <time>2010-02-06T19:35:13Z</time>
      </trkpt>
      <trkpt lat="47.526781959459186" lon="18.951736036688089">
        <ele>371.50200000000001</ele>
        <time>2010-02-06T19:35:15Z</time>
      </trkpt>
      <trkpt lat="47.526781959459186" lon="18.951797978952527">
        <ele>370.94900000000001</ele>
        <time>2010-02-06T19:35:17Z</time>
      </trkpt>
      <trkpt lat="47.526776008307934" lon="18.951860005035996">
        <ele>370.50999999999999</ele>
        <time>2010-02-06T19:35:19Z</time>
      </trkpt>
      <trkpt lat="47.52676896750927" lon="18.951925970613956">
        <ele>369.30500000000001</ele>
        <time>2010-02-06T19:35:21Z</time>
      </trkpt>
      <trkpt lat="47.52676703967154" lon="18.9519979711622">
        <ele>369.01499999999999</ele>
        <time>2010-02-06T19:35:23Z</time>
      </trkpt>
      <trkpt lat="47.526753041893244" lon="18.952067038044333">
        <ele>368.88900000000001</ele>
        <time>2010-02-06T19:35:25Z</time>
      </trkpt>
      <trkpt lat="47.526741977781057" lon="18.952130991965532">
        <ele>368.59100000000001</ele>
        <time>2010-02-06T19:35:27Z</time>
      </trkpt>
      <trkpt lat="47.526730997487903" lon="18.952195029705763">
        <ele>368.22899999999998</ele>
        <time>2010-02-06T19:35:29Z</time>
      </trkpt>
      <trkpt lat="47.526718005537987" lon="18.952258983626962">
        <ele>366.96199999999999</ele>
        <time>2010-02-06T19:35:31Z</time>
      </trkpt>
      <trkpt lat="47.526707025244832" lon="18.952316986396909">
        <ele>366.779</ele>
        <time>2010-02-06T19:35:33Z</time>
      </trkpt>
      <trkpt lat="47.526705013588071" lon="18.952370965853333">
        <ele>366.36900000000003</ele>
        <time>2010-02-06T19:35:35Z</time>
      </trkpt>
      <trkpt lat="47.526701996102929" lon="18.95242502912879">
        <ele>365.84399999999999</ele>
        <time>2010-02-06T19:35:37Z</time>
      </trkpt>
      <trkpt lat="47.526709958910942" lon="18.952485965564847">
        <ele>365.16800000000001</ele>
        <time>2010-02-06T19:35:39Z</time>
      </trkpt>
      <trkpt lat="47.526721023023129" lon="18.952542962506413">
        <ele>363.81599999999997</ele>
        <time>2010-02-06T19:35:41Z</time>
      </trkpt>
      <trkpt lat="47.526732003316283" lon="18.95259803161025">
        <ele>362.95999999999998</ele>
        <time>2010-02-06T19:35:43Z</time>
      </trkpt>
      <trkpt lat="47.526748012751341" lon="18.952654022723436">
        <ele>363.08600000000001</ele>
        <time>2010-02-06T19:35:45Z</time>
      </trkpt>
      <trkpt lat="47.52676997333765" lon="18.95270699635148">
        <ele>362.10599999999999</ele>
        <time>2010-02-06T19:35:47Z</time>
      </trkpt>
      <trkpt lat="47.526785982772708" lon="18.952768016606569">
        <ele>360.78100000000001</ele>
        <time>2010-02-06T19:35:49Z</time>
      </trkpt>
      <trkpt lat="47.526804003864527" lon="18.952833982184529">
        <ele>360.61700000000002</ele>
        <time>2010-02-06T19:35:51Z</time>
      </trkpt>
      <trkpt lat="47.526825964450836" lon="18.952905982732773">
        <ele>359.52300000000002</ele>
        <time>2010-02-06T19:35:53Z</time>
      </trkpt>
      <trkpt lat="47.526851026341319" lon="18.952976977452636">
        <ele>358.86599999999999</ele>
        <time>2010-02-06T19:35:55Z</time>
      </trkpt>
      <trkpt lat="47.526881033554673" lon="18.953033974394202">
        <ele>359.19900000000001</ele>
        <time>2010-02-06T19:35:57Z</time>
      </trkpt>
      <trkpt lat="47.526896959170699" lon="18.953088959679008">
        <ele>357.96899999999999</ele>
        <time>2010-02-06T19:35:59Z</time>
      </trkpt>
      <trkpt lat="47.526923026889563" lon="18.953142017126083">
        <ele>357.19099999999997</ele>
        <time>2010-02-06T19:36:01Z</time>
      </trkpt>
      <trkpt lat="47.526959991082549" lon="18.953193984925747">
        <ele>356.834</ele>
        <time>2010-02-06T19:36:03Z</time>
      </trkpt>
      <trkpt lat="47.526997039094567" lon="18.953232960775495">
        <ele>356.75599999999997</ele>
        <time>2010-02-06T19:36:05Z</time>
      </trkpt>
      <trkpt lat="47.527041966095567" lon="18.953253999352455">
        <ele>355.27800000000002</ele>
        <time>2010-02-06T19:36:07Z</time>
      </trkpt>
      <trkpt lat="47.527069039642811" lon="18.953257016837597">
        <ele>355.01400000000001</ele>
        <time>2010-02-06T19:36:08Z</time>
      </trkpt>
      <trkpt lat="47.527118995785713" lon="18.953263973817229">
        <ele>354.16000000000003</ele>
        <time>2010-02-06T19:36:10Z</time>
      </trkpt>
      <trkpt lat="47.527169035747647" lon="18.953270008787513">
        <ele>353.63</ele>
        <time>2010-02-06T19:36:12Z</time>
      </trkpt>
      <trkpt lat="47.527210023254156" lon="18.953275959938765">
        <ele>353.10700000000003</ele>
        <time>2010-02-06T19:36:14Z</time>
      </trkpt>
      <trkpt lat="47.527252016589046" lon="18.953284006565809">
        <ele>352.64699999999999</ele>
        <time>2010-02-06T19:36:16Z</time>
      </trkpt>
      <trkpt lat="47.527293004095554" lon="18.95328501239419">
        <ele>352.58499999999998</ele>
        <time>2010-02-06T19:36:18Z</time>
      </trkpt>
      <trkpt lat="47.527332985773683" lon="18.953291969373822">
        <ele>352.334</ele>
        <time>2010-02-06T19:36:20Z</time>
      </trkpt>
      <trkpt lat="47.527379002422094" lon="18.953314013779163">
        <ele>352.30900000000003</ele>
        <time>2010-02-06T19:36:22Z</time>
      </trkpt>
      <trkpt lat="47.527423007413745" lon="18.953352989628911">
        <ele>352.22300000000001</ele>
        <time>2010-02-06T19:36:24Z</time>
      </trkpt>
      <trkpt lat="47.527456032112241" lon="18.953399006277323">
        <ele>351.899</ele>
        <time>2010-02-06T19:36:26Z</time>
      </trkpt>
      <trkpt lat="47.527486039325595" lon="18.953444017097354">
        <ele>351.57600000000002</ele>
        <time>2010-02-06T19:36:28Z</time>
      </trkpt>
      <trkpt lat="47.527509005740285" lon="18.953499002382159">
        <ele>350.82100000000003</ele>
        <time>2010-02-06T19:36:30Z</time>
      </trkpt>
      <trkpt lat="47.527529038488865" lon="18.953546024858952">
        <ele>351.56999999999999</ele>
        <time>2010-02-06T19:36:32Z</time>
      </trkpt>
      <trkpt lat="47.52754395827651" lon="18.953592963516712">
        <ele>351.25400000000002</ele>
        <time>2010-02-06T19:36:34Z</time>
      </trkpt>
      <trkpt lat="47.527567008510232" lon="18.953653983771801">
        <ele>350.76499999999999</ele>
        <time>2010-02-06T19:36:38Z</time>
      </trkpt>
      <trkpt lat="47.527602966874838" lon="18.95371600985527">
        <ele>350.44400000000002</ele>
        <time>2010-02-06T19:36:42Z</time>
      </trkpt>
      <trkpt lat="47.527631968259811" lon="18.953765965998173">
        <ele>350.84800000000001</ele>
        <time>2010-02-06T19:36:44Z</time>
      </trkpt>
      <trkpt lat="47.527665998786688" lon="18.953798990696669">
        <ele>349.39499999999998</ele>
        <time>2010-02-06T19:36:47Z</time>
      </trkpt>
      <trkpt lat="47.527711009606719" lon="18.953765965998173">
        <ele>349.75299999999999</ele>
        <time>2010-02-06T19:36:51Z</time>
      </trkpt>
      <trkpt lat="47.527739005163312" lon="18.953736964613199">
        <ele>350.11599999999999</ele>
        <time>2010-02-06T19:36:54Z</time>
      </trkpt>
      <trkpt lat="47.527772029861808" lon="18.953719027340412">
        <ele>350.346</ele>
        <time>2010-02-06T19:36:57Z</time>
      </trkpt>
      <trkpt lat="47.527804970741272" lon="18.953702012076974">
        <ele>349.911</ele>
        <time>2010-02-06T19:37:00Z</time>
      </trkpt>
      <trkpt lat="47.527836989611387" lon="18.953697988763452">
        <ele>349.87700000000001</ele>
        <time>2010-02-06T19:37:03Z</time>
      </trkpt>
      <trkpt lat="47.527874037623405" lon="18.953701006248593">
        <ele>349.94600000000003</ele>
        <time>2010-02-06T19:37:06Z</time>
      </trkpt>
      <trkpt lat="47.527916030958295" lon="18.953697988763452">
        <ele>350.17899999999997</ele>
        <time>2010-02-06T19:37:09Z</time>
      </trkpt>
      <trkpt lat="47.527963975444436" lon="18.953706035390496">
        <ele>349.68200000000002</ele>
        <time>2010-02-06T19:37:12Z</time>
      </trkpt>
      <trkpt lat="47.528009992092848" lon="18.953729001805186">
        <ele>350.84899999999999</ele>
        <time>2010-02-06T19:37:15Z</time>
      </trkpt>
      <trkpt lat="47.528039999306202" lon="18.953760014846921">
        <ele>350.47899999999998</ele>
        <time>2010-02-06T19:37:18Z</time>
      </trkpt>
      <trkpt lat="47.52807897515595" lon="18.95377904176712">
        <ele>351.596</ele>
        <time>2010-02-06T19:37:21Z</time>
      </trkpt>
      <trkpt lat="47.528114011511207" lon="18.953803014010191">
        <ele>351.37799999999999</ele>
        <time>2010-02-06T19:37:24Z</time>
      </trkpt>
      <trkpt lat="47.528148964047432" lon="18.953816005960107">
        <ele>351.81299999999999</ele>
        <time>2010-02-06T19:37:27Z</time>
      </trkpt>
      <trkpt lat="47.528192969039083" lon="18.953819023445249">
        <ele>352.464</ele>
        <time>2010-02-06T19:37:31Z</time>
      </trkpt>
      <trkpt lat="47.528235968202353" lon="18.953825980424881">
        <ele>352.71800000000002</ele>
        <time>2010-02-06T19:37:35Z</time>
      </trkpt>
      <trkpt lat="47.528279973194003" lon="18.953826986253262">
        <ele>352.32499999999999</ele>
        <time>2010-02-06T19:37:38Z</time>
      </trkpt>
      <trkpt lat="47.52831400372088" lon="18.953810976818204">
        <ele>352.86000000000001</ele>
        <time>2010-02-06T19:37:41Z</time>
      </trkpt>
      <trkpt lat="47.528361026197672" lon="18.95378096960485">
        <ele>353.13400000000001</ele>
        <time>2010-02-06T19:37:44Z</time>
      </trkpt>
      <trkpt lat="47.528402013704181" lon="18.953753979876637">
        <ele>353.15699999999998</ele>
        <time>2010-02-06T19:37:47Z</time>
      </trkpt>
      <trkpt lat="47.528435960412025" lon="18.953727995976806">
        <ele>352.08800000000002</ele>
        <time>2010-02-06T19:37:50Z</time>
      </trkpt>
      <trkpt lat="47.528476025909185" lon="18.95371600985527">
        <ele>352.74700000000001</ele>
        <time>2010-02-06T19:37:53Z</time>
      </trkpt>
      <trkpt lat="47.52853000536561" lon="18.953703017905354">
        <ele>352.35500000000002</ele>
        <time>2010-02-06T19:37:57Z</time>
      </trkpt>
      <trkpt lat="47.528565041720867" lon="18.953706035390496">
        <ele>353.13900000000001</ele>
        <time>2010-02-06T19:38:00Z</time>
      </trkpt>
      <trkpt lat="47.528626983985305" lon="18.953720033168793">
        <ele>352.851</ele>
        <time>2010-02-06T19:38:03Z</time>
      </trkpt>
      <trkpt lat="47.528675012290478" lon="18.953747022897005">
        <ele>353.00999999999999</ele>
        <time>2010-02-06T19:38:06Z</time>
      </trkpt>
      <trkpt lat="47.528714993968606" lon="18.953744005411863">
        <ele>354.41300000000001</ele>
        <time>2010-02-06T19:38:09Z</time>
      </trkpt>
      <trkpt lat="47.528751036152244" lon="18.953724978491664">
        <ele>354.56200000000001</ele>
        <time>2010-02-06T19:38:12Z</time>
      </trkpt>
      <trkpt lat="47.528783977031708" lon="18.953712992370129">
        <ele>355.52300000000002</ele>
        <time>2010-02-06T19:38:16Z</time>
      </trkpt>
      <trkpt lat="47.528824964538217" lon="18.953681979328394">
        <ele>356.76299999999998</ele>
        <time>2010-02-06T19:38:20Z</time>
      </trkpt>
      <trkpt lat="47.528910040855408" lon="18.953667981550097">
        <ele>356.72300000000001</ele>
        <time>2010-02-06T19:38:27Z</time>
      </trkpt>
      <trkpt lat="47.528953962028027" lon="18.953668987378478">
        <ele>358.012</ele>
        <time>2010-02-06T19:38:31Z</time>
      </trkpt>
      <trkpt lat="47.528996039181948" lon="18.95367200486362">
        <ele>359.137</ele>
        <time>2010-02-06T19:38:34Z</time>
      </trkpt>
      <trkpt lat="47.529043983668089" lon="18.95369597710669">
        <ele>359.05799999999999</ele>
        <time>2010-02-06T19:38:38Z</time>
      </trkpt>
      <trkpt lat="47.529076002538204" lon="18.95369497127831">
        <ele>359.5</ele>
        <time>2010-02-06T19:38:41Z</time>
      </trkpt>
      <trkpt lat="47.529112966731191" lon="18.953701006248593">
        <ele>359.79599999999999</ele>
        <time>2010-02-06T19:38:44Z</time>
      </trkpt>
      <trkpt lat="47.529159989207983" lon="18.953670999035239">
        <ele>360.45100000000002</ele>
        <time>2010-02-06T19:38:49Z</time>
      </trkpt>
      <trkpt lat="47.529209023341537" lon="18.953668987378478">
        <ele>360.76799999999997</ele>
        <time>2010-02-06T19:38:53Z</time>
      </trkpt>
      <trkpt lat="47.529258979484439" lon="18.953648032620549">
        <ele>361.935</ele>
        <time>2010-02-06T19:38:58Z</time>
      </trkpt>
      <trkpt lat="47.529293010011315" lon="18.953648032620549">
        <ele>362.86799999999999</ele>
        <time>2010-02-06T19:39:02Z</time>
      </trkpt>
      <trkpt lat="47.529330980032682" lon="18.953668987378478">
        <ele>363.85500000000002</ele>
        <time>2010-02-06T19:39:06Z</time>
      </trkpt>
      <trkpt lat="47.529370961710811" lon="18.953676028177142">
        <ele>365.26600000000002</ele>
        <time>2010-02-06T19:39:10Z</time>
      </trkpt>
      <trkpt lat="47.529414966702461" lon="18.953657001256943">
        <ele>366.62299999999999</ele>
        <time>2010-02-06T19:39:15Z</time>
      </trkpt>
      <trkpt lat="47.529473975300789" lon="18.953658007085323">
        <ele>367.58999999999997</ele>
        <time>2010-02-06T19:39:19Z</time>
      </trkpt>
      <trkpt lat="47.529516974464059" lon="18.953638980165124">
        <ele>369.04899999999998</ele>
        <time>2010-02-06T19:39:23Z</time>
      </trkpt>
      <trkpt lat="47.529542958363891" lon="18.953620037063956">
        <ele>369.678</ele>
        <time>2010-02-06T19:39:27Z</time>
      </trkpt>
      <trkpt lat="47.529585035517812" lon="18.953619031235576">
        <ele>369.90199999999999</ele>
        <time>2010-02-06T19:39:32Z</time>
      </trkpt>
      <trkpt lat="47.529626023024321" lon="18.953585000708699">
        <ele>371.27800000000002</ele>
        <time>2010-02-06T19:39:38Z</time>
      </trkpt>
      <trkpt lat="47.529678996652365" lon="18.953524986281991">
        <ele>371.56099999999998</ele>
        <time>2010-02-06T19:39:44Z</time>
      </trkpt>
      <trkpt lat="47.529736999422312" lon="18.953486010432243">
        <ele>372.37900000000002</ele>
        <time>2010-02-06T19:39:49Z</time>
      </trkpt>
      <trkpt lat="47.529777986928821" lon="18.953443011268973">
        <ele>373.99400000000003</ele>
        <time>2010-02-06T19:39:53Z</time>
      </trkpt>
      <trkpt lat="47.529808999970555" lon="18.953387020155787">
        <ele>374.15499999999997</ele>
        <time>2010-02-06T19:39:57Z</time>
      </trkpt>
      <trkpt lat="47.529833978042006" lon="18.953349972143769">
        <ele>374.46699999999998</ele>
        <time>2010-02-06T19:40:02Z</time>
      </trkpt>
      <trkpt lat="47.529875971376896" lon="18.953317031264305">
        <ele>376.00299999999999</ele>
        <time>2010-02-06T19:40:07Z</time>
      </trkpt>
      <trkpt lat="47.529893992468715" lon="18.953224997967482">
        <ele>376.58199999999999</ele>
        <time>2010-02-06T19:40:12Z</time>
      </trkpt>
      <trkpt lat="47.529916958883405" lon="18.953166995197535">
        <ele>377.858</ele>
        <time>2010-02-06T19:40:17Z</time>
      </trkpt>
      <trkpt lat="47.529946966096759" lon="18.953112009912729">
        <ele>379.166</ele>
        <time>2010-02-06T19:40:22Z</time>
      </trkpt>
      <trkpt lat="47.529987031593919" lon="18.95307001657784">
        <ele>379.89699999999999</ele>
        <time>2010-02-06T19:40:28Z</time>
      </trkpt>
      <trkpt lat="47.530031036585569" lon="18.953033974394202">
        <ele>380.49099999999999</ele>
        <time>2010-02-06T19:40:33Z</time>
      </trkpt>
      <trkpt lat="47.530073029920459" lon="18.953016959130764">
        <ele>381.315</ele>
        <time>2010-02-06T19:40:38Z</time>
      </trkpt>
      <trkpt lat="47.530100019648671" lon="18.952986029908061">
        <ele>381.76600000000002</ele>
        <time>2010-02-06T19:40:43Z</time>
      </trkpt>
      <trkpt lat="47.530121980234981" lon="18.952954011037946">
        <ele>383.57400000000001</ele>
        <time>2010-02-06T19:40:46Z</time>
      </trkpt>
      <trkpt lat="47.530152993276715" lon="18.952918974682689">
        <ele>383.755</ele>
        <time>2010-02-06T19:40:50Z</time>
      </trkpt>
      <trkpt lat="47.530185012146831" lon="18.952873963862658">
        <ele>383.86500000000001</ele>
        <time>2010-02-06T19:40:55Z</time>
      </trkpt>
      <trkpt lat="47.530245026573539" lon="18.952807998284698">
        <ele>385.32600000000002</ele>
        <time>2010-02-06T19:41:03Z</time>
      </trkpt>
      <trkpt lat="47.530290959402919" lon="18.952762987464666">
        <ele>386.315</ele>
        <time>2010-02-06T19:41:10Z</time>
      </trkpt>
      <trkpt lat="47.530343011021614" lon="18.952743038535118">
        <ele>387.13099999999997</ele>
        <time>2010-02-06T19:41:14Z</time>
      </trkpt>
      <trkpt lat="47.530400007963181" lon="18.9527059905231">
        <ele>387.31400000000002</ele>
        <time>2010-02-06T19:41:18Z</time>
      </trkpt>
      <trkpt lat="47.530445018783212" lon="18.952673971652985">
        <ele>388.56099999999998</ele>
        <time>2010-02-06T19:41:23Z</time>
      </trkpt>
      <trkpt lat="47.530472008511424" lon="18.952646981924772">
        <ele>388.18299999999999</ele>
        <time>2010-02-06T19:41:26Z</time>
      </trkpt>
      <trkpt lat="47.530501009896398" lon="18.95261999219656">
        <ele>387.59500000000003</ele>
        <time>2010-02-06T19:41:30Z</time>
      </trkpt>
      <trkpt lat="47.530562030151486" lon="18.95259803161025">
        <ele>388.49900000000002</ele>
        <time>2010-02-06T19:41:37Z</time>
      </trkpt>
      <trkpt lat="47.530600000172853" lon="18.952567018568516">
        <ele>389.315</ele>
        <time>2010-02-06T19:41:41Z</time>
      </trkpt>
      <trkpt lat="47.530654985457659" lon="18.952538017183542">
        <ele>389.90600000000001</ele>
        <time>2010-02-06T19:41:46Z</time>
      </trkpt>
      <trkpt lat="47.530727991834283" lon="18.952489988878369">
        <ele>392.04700000000003</ele>
        <time>2010-02-06T19:41:52Z</time>
      </trkpt>
      <trkpt lat="47.530776020139456" lon="18.95246903412044">
        <ele>392.45499999999998</ele>
        <time>2010-02-06T19:41:56Z</time>
      </trkpt>
      <trkpt lat="47.530831005424261" lon="18.952440032735467">
        <ele>392.947</ele>
        <time>2010-02-06T19:42:03Z</time>
      </trkpt>
      <trkpt lat="47.530875010415912" lon="18.952424023300409">
        <ele>393.98899999999998</ele>
        <time>2010-02-06T19:42:08Z</time>
      </trkpt>
      <trkpt lat="47.530956985428929" lon="18.952396027743816">
        <ele>394.88299999999998</ele>
        <time>2010-02-06T19:42:14Z</time>
      </trkpt>
      <trkpt lat="47.53102102316916" lon="18.952372977510095">
        <ele>395.83600000000001</ele>
        <time>2010-02-06T19:42:19Z</time>
      </trkpt>
      <trkpt lat="47.531063016504049" lon="18.952356968075037">
        <ele>395.93700000000001</ele>
        <time>2010-02-06T19:42:23Z</time>
      </trkpt>
      <trkpt lat="47.531092017889023" lon="18.952338024973869">
        <ele>395.851</ele>
        <time>2010-02-06T19:42:26Z</time>
      </trkpt>
      <trkpt lat="47.531139040365815" lon="18.952332995831966">
        <ele>396.91500000000002</ele>
        <time>2010-02-06T19:42:32Z</time>
      </trkpt>
      <trkpt lat="47.531176004558802" lon="18.952347999438643">
        <ele>397.79199999999997</ele>
        <time>2010-02-06T19:42:37Z</time>
      </trkpt>
      <trkpt lat="47.531217997893691" lon="18.952389992773533">
        <ele>398.51100000000002</ele>
        <time>2010-02-06T19:42:41Z</time>
      </trkpt>
      <trkpt lat="47.531249010935426" lon="18.952407008036971">
        <ele>399.29599999999999</ele>
        <time>2010-02-06T19:42:45Z</time>
      </trkpt>
      <trkpt lat="47.531305002048612" lon="18.952402984723449">
        <ele>402.97899999999998</ele>
        <time>2010-02-06T19:42:53Z</time>
      </trkpt>
      <trkpt lat="47.531377002596855" lon="18.952449001371861">
        <ele>405.06299999999999</ele>
        <time>2010-02-06T19:43:02Z</time>
      </trkpt>
      <trkpt lat="47.531421007588506" lon="18.952497029677033">
        <ele>406.21899999999999</ele>
        <time>2010-02-06T19:43:08Z</time>
      </trkpt>
      <trkpt lat="47.53147498704493" lon="18.952484959736466">
        <ele>407.79599999999999</ele>
        <time>2010-02-06T19:43:14Z</time>
      </trkpt>
      <trkpt lat="47.531510023400187" lon="18.952504992485046">
        <ele>409.51900000000001</ele>
        <time>2010-02-06T19:43:20Z</time>
      </trkpt>
      <trkpt lat="47.531568026170135" lon="18.952558971941471">
        <ele>412.70600000000002</ele>
        <time>2010-02-06T19:43:32Z</time>
      </trkpt>
      <trkpt lat="47.531607002019882" lon="18.952547991648316">
        <ele>414.202</ele>
        <time>2010-02-06T19:43:37Z</time>
      </trkpt>
      <trkpt lat="47.531638015061617" lon="18.952589984983206">
        <ele>415.16199999999998</ele>
        <time>2010-02-06T19:43:42Z</time>
      </trkpt>
      <trkpt lat="47.531726025044918" lon="18.952564001083374">
        <ele>417.92500000000001</ele>
        <time>2010-02-06T19:43:55Z</time>
      </trkpt>
      <trkpt lat="47.531777992844582" lon="18.952637007459998">
        <ele>418.40699999999998</ele>
        <time>2010-02-06T19:44:03Z</time>
      </trkpt>
      <trkpt lat="47.531825015321374" lon="18.952630972489715">
        <ele>419.22199999999998</ele>
        <time>2010-02-06T19:44:07Z</time>
      </trkpt>
      <trkpt lat="47.531886035576463" lon="18.952623009681702">
        <ele>419.334</ele>
        <time>2010-02-06T19:44:13Z</time>
      </trkpt>
      <trkpt lat="47.531935991719365" lon="18.952613035216928">
        <ele>421.33600000000001</ele>
        <time>2010-02-06T19:44:17Z</time>
      </trkpt>
      <trkpt lat="47.531977985054255" lon="18.952613035216928">
        <ele>422.43200000000002</ele>
        <time>2010-02-06T19:44:22Z</time>
      </trkpt>
      <trkpt lat="47.532017966732383" lon="18.952636001631618">
        <ele>424.20800000000003</ele>
        <time>2010-02-06T19:44:29Z</time>
      </trkpt>
      <trkpt lat="47.532061971724033" lon="18.952656034380198">
        <ele>424.762</ele>
        <time>2010-02-06T19:44:35Z</time>
      </trkpt>
      <trkpt lat="47.532112011685967" lon="18.952667014673352">
        <ele>426.17599999999999</ele>
        <time>2010-02-06T19:44:41Z</time>
      </trkpt>
      <trkpt lat="47.532145036384463" lon="18.952668020501733">
        <ele>428.00900000000001</ele>
        <time>2010-02-06T19:44:45Z</time>
      </trkpt>
      <trkpt lat="47.532177977263927" lon="18.952689981088042">
        <ele>428.73399999999998</ele>
        <time>2010-02-06T19:44:49Z</time>
      </trkpt>
      <trkpt lat="47.532206978648901" lon="18.952721999958158">
        <ele>429.673</ele>
        <time>2010-02-06T19:44:53Z</time>
      </trkpt>
      <trkpt lat="47.532246960327029" lon="18.952753012999892">
        <ele>430.71199999999999</ele>
        <time>2010-02-06T19:44:58Z</time>
      </trkpt>
      <trkpt lat="47.532281996682286" lon="18.952774973586202">
        <ele>431.46800000000002</ele>
        <time>2010-02-06T19:45:03Z</time>
      </trkpt>
      <trkpt lat="47.532323990017176" lon="18.952795006334782">
        <ele>432.27199999999999</ele>
        <time>2010-02-06T19:45:09Z</time>
      </trkpt>
      <trkpt lat="47.532350979745388" lon="18.952830964699388">
        <ele>433.72899999999998</ele>
        <time>2010-02-06T19:45:14Z</time>
      </trkpt>
      <trkpt lat="47.532390039414167" lon="18.952854014933109">
        <ele>434.78199999999998</ele>
        <time>2010-02-06T19:45:19Z</time>
      </trkpt>
      <trkpt lat="47.532433960586786" lon="18.952907994389534">
        <ele>435.71300000000002</ele>
        <time>2010-02-06T19:45:23Z</time>
      </trkpt>
      <trkpt lat="47.532474026083946" lon="18.952953005209565">
        <ele>435.88</ele>
        <time>2010-02-06T19:45:27Z</time>
      </trkpt>
      <trkpt lat="47.532505039125681" lon="18.95298502407968">
        <ele>435.79700000000003</ele>
        <time>2010-02-06T19:45:31Z</time>
      </trkpt>
      <trkpt lat="47.532529011368752" lon="18.953013019636273">
        <ele>437.16899999999998</ele>
        <time>2010-02-06T19:45:35Z</time>
      </trkpt>
      <trkpt lat="47.532561030238867" lon="18.953044032678008">
        <ele>437.29399999999998</ele>
        <time>2010-02-06T19:45:39Z</time>
      </trkpt>
      <trkpt lat="47.532582990825176" lon="18.953086026012897">
        <ele>438.03199999999998</ele>
        <time>2010-02-06T19:45:43Z</time>
      </trkpt>
      <trkpt lat="47.532609980553389" lon="18.953133970499039">
        <ele>438.31200000000001</ele>
        <time>2010-02-06T19:45:47Z</time>
      </trkpt>
      <trkpt lat="47.53263303078711" lon="18.953183004632592">
        <ele>439.04500000000002</ele>
        <time>2010-02-06T19:45:51Z</time>
      </trkpt>
      <trkpt lat="47.53265499137342" lon="18.953237989917397">
        <ele>441.25299999999999</ele>
        <time>2010-02-06T19:45:56Z</time>
      </trkpt>
      <trkpt lat="47.532675024122" lon="18.953277971595526">
        <ele>441.03199999999998</ele>
        <time>2010-02-06T19:45:59Z</time>
      </trkpt>
      <trkpt lat="47.532693967223167" lon="18.953317031264305">
        <ele>441.48000000000002</ele>
        <time>2010-02-06T19:46:02Z</time>
      </trkpt>
      <trkpt lat="47.532724980264902" lon="18.953330023214221">
        <ele>442.31799999999998</ele>
        <time>2010-02-06T19:46:05Z</time>
      </trkpt>
      <trkpt lat="47.532764039933681" lon="18.953341003507376">
        <ele>441.64600000000002</ele>
        <time>2010-02-06T19:46:08Z</time>
      </trkpt>
      <trkpt lat="47.532807039096951" lon="18.95335097797215">
        <ele>441.00099999999998</ele>
        <time>2010-02-06T19:46:10Z</time>
      </trkpt>
      <trkpt lat="47.532853977754712" lon="18.953359024599195">
        <ele>441.59899999999999</ele>
        <time>2010-02-06T19:46:13Z</time>
      </trkpt>
      <trkpt lat="47.532908963039517" lon="18.953376961871982">
        <ele>441.75700000000001</ele>
        <time>2010-02-06T19:46:18Z</time>
      </trkpt>
      <trkpt lat="47.532949028536677" lon="18.953387020155787">
        <ele>441.36200000000002</ele>
        <time>2010-02-06T19:46:21Z</time>
      </trkpt>
      <trkpt lat="47.532992027699947" lon="18.9533949829638">
        <ele>441.55500000000001</ele>
        <time>2010-02-06T19:46:24Z</time>
      </trkpt>
      <trkpt lat="47.533028991892934" lon="18.953413004055619">
        <ele>440.57100000000003</ele>
        <time>2010-02-06T19:46:27Z</time>
      </trkpt>
      <trkpt lat="47.533064028248191" lon="18.953428007662296">
        <ele>441.036</ele>
        <time>2010-02-06T19:46:30Z</time>
      </trkpt>
      <trkpt lat="47.533111972734332" lon="18.953451979905367">
        <ele>440.57799999999997</ele>
        <time>2010-02-06T19:46:34Z</time>
      </trkpt>
      <trkpt lat="47.533156983554363" lon="18.953464971855283">
        <ele>440.77100000000002</ele>
        <time>2010-02-06T19:46:38Z</time>
      </trkpt>
      <trkpt lat="47.533207023516297" lon="18.953472012653947">
        <ele>441.24799999999999</ele>
        <time>2010-02-06T19:46:42Z</time>
      </trkpt>
      <trkpt lat="47.533249016851187" lon="18.953486010432243">
        <ele>441.226</ele>
        <time>2010-02-06T19:46:45Z</time>
      </trkpt>
      <trkpt lat="47.533284975215793" lon="18.953503025695682">
        <ele>441.74799999999999</ele>
        <time>2010-02-06T19:46:48Z</time>
      </trkpt>
      <trkpt lat="47.533315988257527" lon="18.953524986281991">
        <ele>441.15899999999999</ele>
        <time>2010-02-06T19:46:52Z</time>
      </trkpt>
      <trkpt lat="47.533359993249178" lon="18.953552981838584">
        <ele>441.43799999999999</ele>
        <time>2010-02-06T19:46:57Z</time>
      </trkpt>
      <trkpt lat="47.533394023776054" lon="18.953567985445261">
        <ele>441.88200000000001</ele>
        <time>2010-02-06T19:47:00Z</time>
      </trkpt>
      <trkpt lat="47.533454960212111" lon="18.953597992658615">
        <ele>442.26299999999998</ele>
        <time>2010-02-06T19:47:03Z</time>
      </trkpt>
      <trkpt lat="47.533483039587736" lon="18.95360897295177">
        <ele>442.63200000000001</ele>
        <time>2010-02-06T19:47:07Z</time>
      </trkpt>
      <trkpt lat="47.53351497463882" lon="18.953618025407195">
        <ele>443.59100000000001</ele>
        <time>2010-02-06T19:47:10Z</time>
      </trkpt>
      <trkpt lat="47.53355504013598" lon="18.953650966286659">
        <ele>442.60000000000002</ele>
        <time>2010-02-06T19:47:13Z</time>
      </trkpt>
      <trkpt lat="47.53360197879374" lon="18.953675022348762">
        <ele>443.06299999999999</ele>
        <time>2010-02-06T19:47:17Z</time>
      </trkpt>
      <trkpt lat="47.533655958250165" lon="18.953690025955439">
        <ele>443.86200000000002</ele>
        <time>2010-02-06T19:47:21Z</time>
      </trkpt>
      <trkpt lat="47.53370700404048" lon="18.95369497127831">
        <ele>443.94</ele>
        <time>2010-02-06T19:47:24Z</time>
      </trkpt>
      <trkpt lat="47.533747991546988" lon="18.953698994591832">
        <ele>444.08699999999999</ele>
        <time>2010-02-06T19:47:28Z</time>
      </trkpt>
      <trkpt lat="47.533780010417104" lon="18.953727995976806">
        <ele>443.99900000000002</ele>
        <time>2010-02-06T19:47:32Z</time>
      </trkpt>
      <trkpt lat="47.533811023458838" lon="18.953760014846921">
        <ele>445.303</ele>
        <time>2010-02-06T19:47:37Z</time>
      </trkpt>
      <trkpt lat="47.533842958509922" lon="18.953815000131726">
        <ele>445.64299999999997</ele>
        <time>2010-02-06T19:47:43Z</time>
      </trkpt>
      <trkpt lat="47.533871037885547" lon="18.953849030658603">
        <ele>446.09699999999998</ele>
        <time>2010-02-06T19:47:47Z</time>
      </trkpt>
      <trkpt lat="47.533903978765011" lon="18.953880965709686">
        <ele>445.60300000000001</ele>
        <time>2010-02-06T19:47:51Z</time>
      </trkpt>
      <trkpt lat="47.53394496627152" lon="18.953905021771789">
        <ele>445.95400000000001</ele>
        <time>2010-02-06T19:47:55Z</time>
      </trkpt>
      <trkpt lat="47.533994000405073" lon="18.953923964872956">
        <ele>446.01600000000002</ele>
        <time>2010-02-06T19:48:00Z</time>
      </trkpt>
      <trkpt lat="47.534021995961666" lon="18.953985990956426">
        <ele>446.77800000000002</ele>
        <time>2010-02-06T19:48:05Z</time>
      </trkpt>
      <trkpt lat="47.534058960154653" lon="18.95401700399816">
        <ele>448.166</ele>
        <time>2010-02-06T19:48:10Z</time>
      </trkpt>
      <trkpt lat="47.534087961539626" lon="18.954052040353417">
        <ele>449.87</ele>
        <time>2010-02-06T19:48:15Z</time>
      </trkpt>
      <trkpt lat="47.534112017601728" lon="18.954099984839559">
        <ele>451.60199999999998</ele>
        <time>2010-02-06T19:48:20Z</time>
      </trkpt>
      <trkpt lat="47.534146970137954" lon="18.954136027023196">
        <ele>452.06799999999998</ele>
        <time>2010-02-06T19:48:24Z</time>
      </trkpt>
      <trkpt lat="47.534175971522927" lon="18.954161005094647">
        <ele>452.11000000000001</ele>
        <time>2010-02-06T19:48:28Z</time>
      </trkpt>
      <trkpt lat="47.534213019534945" lon="18.954191012308002">
        <ele>452.13400000000001</ele>
        <time>2010-02-06T19:48:32Z</time>
      </trkpt>
      <trkpt lat="47.534235985949636" lon="18.95423199981451">
        <ele>452.66399999999999</ele>
        <time>2010-02-06T19:48:36Z</time>
      </trkpt>
      <trkpt lat="47.534249983727932" lon="18.954279022291303">
        <ele>452.96899999999999</ele>
        <time>2010-02-06T19:48:40Z</time>
      </trkpt>
      <trkpt lat="47.534259958192706" lon="18.954321015626192">
        <ele>454.28899999999999</ele>
        <time>2010-02-06T19:48:44Z</time>
      </trkpt>
      <trkpt lat="47.534258030354977" lon="18.95438396371901">
        <ele>454.22000000000003</ele>
        <time>2010-02-06T19:48:48Z</time>
      </trkpt>
      <trkpt lat="47.534239003434777" lon="18.954435009509325">
        <ele>454.50999999999999</ele>
        <time>2010-02-06T19:48:52Z</time>
      </trkpt>
      <trkpt lat="47.534207990393043" lon="18.954483959823847">
        <ele>453.76100000000002</ele>
        <time>2010-02-06T19:48:56Z</time>
      </trkpt>
      <trkpt lat="47.534184018149972" lon="18.954518996179104">
        <ele>454.28800000000001</ele>
        <time>2010-02-06T19:48:59Z</time>
      </trkpt>
      <trkpt lat="47.534153005108237" lon="18.954537017270923">
        <ele>454.55900000000003</ele>
        <time>2010-02-06T19:49:02Z</time>
      </trkpt>
      <trkpt lat="47.5341169629246" lon="18.954561995342374">
        <ele>454.92000000000002</ele>
        <time>2010-02-06T19:49:06Z</time>
      </trkpt>
      <trkpt lat="47.534098019823432" lon="18.954609017819166">
        <ele>455.37799999999999</ele>
        <time>2010-02-06T19:49:09Z</time>
      </trkpt>
      <trkpt lat="47.534078992903233" lon="18.954656962305307">
        <ele>456.125</ele>
        <time>2010-02-06T19:49:13Z</time>
      </trkpt>
      <trkpt lat="47.534064995124936" lon="18.954705996438861">
        <ele>456.80099999999999</ele>
        <time>2010-02-06T19:49:18Z</time>
      </trkpt>
      <trkpt lat="47.534036999568343" lon="18.954745978116989">
        <ele>457.04300000000001</ele>
        <time>2010-02-06T19:49:22Z</time>
      </trkpt>
      <trkpt lat="47.534016966819763" lon="18.954794006422162">
        <ele>457.65899999999999</ele>
        <time>2010-02-06T19:49:26Z</time>
      </trkpt>
      <trkpt lat="47.534016966819763" lon="18.954866006970406">
        <ele>457.916</ele>
        <time>2010-02-06T19:49:30Z</time>
      </trkpt>
      <trkpt lat="47.534015960991383" lon="18.954917974770069">
        <ele>457.37099999999998</ele>
        <time>2010-02-06T19:49:33Z</time>
      </trkpt>
      <trkpt lat="47.534001041203737" lon="18.954966003075242">
        <ele>457.85599999999999</ele>
        <time>2010-02-06T19:49:37Z</time>
      </trkpt>
      <trkpt lat="47.533972961828113" lon="18.95500497892499">
        <ele>458.66800000000001</ele>
        <time>2010-02-06T19:49:41Z</time>
      </trkpt>
      <trkpt lat="47.533937003463507" lon="18.955033980309963">
        <ele>459.31599999999997</ele>
        <time>2010-02-06T19:49:45Z</time>
      </trkpt>
      <trkpt lat="47.53390003927052" lon="18.955034986138344">
        <ele>459.48700000000002</ele>
        <time>2010-02-06T19:49:48Z</time>
      </trkpt>
      <trkpt lat="47.533847987651825" lon="18.95504898391664">
        <ele>459.95299999999997</ele>
        <time>2010-02-06T19:49:53Z</time>
      </trkpt>
      <trkpt lat="47.53381404094398" lon="18.955073039978743">
        <ele>460.46699999999998</ele>
        <time>2010-02-06T19:49:57Z</time>
      </trkpt>
      <trkpt lat="47.533782022073865" lon="18.955106986686587">
        <ele>460.39800000000002</ele>
        <time>2010-02-06T19:50:03Z</time>
      </trkpt>
      <trkpt lat="47.53373097628355" lon="18.955110004171729">
        <ele>460.92899999999997</ele>
        <time>2010-02-06T19:50:12Z</time>
      </trkpt>
      <trkpt lat="47.533692000433803" lon="18.955130036920309">
        <ele>461.48899999999998</ele>
        <time>2010-02-06T19:50:17Z</time>
      </trkpt>
      <trkpt lat="47.533703986555338" lon="18.955158032476902">
        <ele>462.995</ele>
        <time>2010-02-06T19:51:02Z</time>
      </trkpt>
      <trkpt lat="47.533694012090564" lon="18.955211006104946">
        <ele>462.43900000000002</ele>
        <time>2010-02-06T19:51:13Z</time>
      </trkpt>
      <trkpt lat="47.53370700404048" lon="18.9552600402385">
        <ele>459.56</ele>
        <time>2010-02-06T19:51:17Z</time>
      </trkpt>
      <trkpt lat="47.533719995990396" lon="18.955311002209783">
        <ele>458.666</ele>
        <time>2010-02-06T19:51:19Z</time>
      </trkpt>
      <trkpt lat="47.533713039010763" lon="18.955373028293252">
        <ele>458.05000000000001</ele>
        <time>2010-02-06T19:51:22Z</time>
      </trkpt>
      <trkpt lat="47.533699041232467" lon="18.955433964729309">
        <ele>457.154</ele>
        <time>2010-02-06T19:51:25Z</time>
      </trkpt>
      <trkpt lat="47.533694012090564" lon="18.955496996641159">
        <ele>455.47699999999998</ele>
        <time>2010-02-06T19:51:29Z</time>
      </trkpt>
      <trkpt lat="47.53373097628355" lon="18.955515017732978">
        <ele>455.04599999999999</ele>
        <time>2010-02-06T19:51:31Z</time>
      </trkpt>
      <trkpt lat="47.533771963790059" lon="18.955524992197752">
        <ele>453.53100000000001</ele>
        <time>2010-02-06T19:51:33Z</time>
      </trkpt>
      <trkpt lat="47.533809011802077" lon="18.955531027168036">
        <ele>452.49000000000001</ele>
        <time>2010-02-06T19:51:35Z</time>
      </trkpt>
      <trkpt lat="47.533848993480206" lon="18.955517029389739">
        <ele>451.29700000000003</ele>
        <time>2010-02-06T19:51:37Z</time>
      </trkpt>
      <trkpt lat="47.533888975158334" lon="18.955503031611443">
        <ele>450.87400000000002</ele>
        <time>2010-02-06T19:51:39Z</time>
      </trkpt>
      <trkpt lat="47.53392300568521" lon="18.955472018569708">
        <ele>449.52300000000002</ele>
        <time>2010-02-06T19:51:41Z</time>
      </trkpt>
      <trkpt lat="47.533934991806746" lon="18.955527003854513">
        <ele>448.274</ele>
        <time>2010-02-06T19:51:44Z</time>
      </trkpt>
      <trkpt lat="47.533916970714927" lon="18.955565979704261">
        <ele>447.52600000000001</ele>
        <time>2010-02-06T19:51:46Z</time>
      </trkpt>
      <trkpt lat="47.533881012350321" lon="18.955616019666195">
        <ele>447.16000000000003</ele>
        <time>2010-02-06T19:51:48Z</time>
      </trkpt>
      <trkpt lat="47.533848993480206" lon="18.955651978030801">
        <ele>446.30200000000002</ele>
        <time>2010-02-06T19:51:50Z</time>
      </trkpt>
      <trkpt lat="47.533827032893896" lon="18.955673016607761">
        <ele>446.07799999999997</ele>
        <time>2010-02-06T19:51:52Z</time>
      </trkpt>
      <trkpt lat="47.533796019852161" lon="18.955720039084554">
        <ele>445.04700000000003</ele>
        <time>2010-02-06T19:51:55Z</time>
      </trkpt>
      <trkpt lat="47.533695017918944" lon="18.955730013549328">
        <ele>443.60700000000003</ele>
        <time>2010-02-06T19:52:06Z</time>
      </trkpt>
      <trkpt lat="47.533673979341984" lon="18.955781981348991">
        <ele>441.15300000000002</ele>
        <time>2010-02-06T19:52:09Z</time>
      </trkpt>
      <trkpt lat="47.533670039847493" lon="18.955824980512261">
        <ele>440.45499999999998</ele>
        <time>2010-02-06T19:52:12Z</time>
      </trkpt>
      <trkpt lat="47.533616982400417" lon="18.955851970240474">
        <ele>441.36700000000002</ele>
        <time>2010-02-06T19:52:15Z</time>
      </trkpt>
      <trkpt lat="47.53357901237905" lon="18.95586202852428">
        <ele>440.12400000000002</ele>
        <time>2010-02-06T19:52:18Z</time>
      </trkpt>
      <trkpt lat="47.533518997952342" lon="18.95590603351593">
        <ele>441.178</ele>
        <time>2010-02-06T19:52:24Z</time>
      </trkpt>
      <trkpt lat="47.533465018495917" lon="18.955931011587381">
        <ele>439.57299999999998</ele>
        <time>2010-02-06T19:52:27Z</time>
      </trkpt>
      <trkpt lat="47.533412966877222" lon="18.955962024629116">
        <ele>439.762</ele>
        <time>2010-02-06T19:52:30Z</time>
      </trkpt>
      <trkpt lat="47.533367034047842" lon="18.955987002700567">
        <ele>439.20800000000003</ele>
        <time>2010-02-06T19:52:32Z</time>
      </trkpt>
      <trkpt lat="47.533322023227811" lon="18.956011980772018">
        <ele>438.21699999999998</ele>
        <time>2010-02-06T19:52:34Z</time>
      </trkpt>
      <trkpt lat="47.533283969387412" lon="18.956025978550315">
        <ele>437.75900000000001</ele>
        <time>2010-02-06T19:52:37Z</time>
      </trkpt>
      <trkpt lat="47.533244993537664" lon="18.956018015742302">
        <ele>437.69900000000001</ele>
        <time>2010-02-06T19:52:40Z</time>
      </trkpt>
      <trkpt lat="47.533195959404111" lon="18.956011980772018">
        <ele>436.53899999999999</ele>
        <time>2010-02-06T19:52:44Z</time>
      </trkpt>
      <trkpt lat="47.533151032403111" lon="18.95603402517736">
        <ele>436.26299999999998</ele>
        <time>2010-02-06T19:52:47Z</time>
      </trkpt>
      <trkpt lat="47.533095963299274" lon="18.956046011298895">
        <ele>435.67200000000003</ele>
        <time>2010-02-06T19:52:53Z</time>
      </trkpt>
      <trkpt lat="47.533038966357708" lon="18.956065960228443">
        <ele>435.89499999999998</ele>
        <time>2010-02-06T19:52:56Z</time>
      </trkpt>
      <trkpt lat="47.532967971637845" lon="18.956102002412081">
        <ele>433.61099999999999</ele>
        <time>2010-02-06T19:53:00Z</time>
      </trkpt>
      <trkpt lat="47.53289001993835" lon="18.956145001575351">
        <ele>432.60599999999999</ele>
        <time>2010-02-06T19:53:05Z</time>
      </trkpt>
      <trkpt lat="47.532839979976416" lon="18.956191018223763">
        <ele>431.86700000000002</ele>
        <time>2010-02-06T19:53:08Z</time>
      </trkpt>
      <trkpt lat="47.532782983034849" lon="18.956203004345298">
        <ele>430.87400000000002</ele>
        <time>2010-02-06T19:53:13Z</time>
      </trkpt>
      <trkpt lat="47.532743001356721" lon="18.956230999901891">
        <ele>430.46899999999999</ele>
        <time>2010-02-06T19:53:16Z</time>
      </trkpt>
      <trkpt lat="47.532686004415154" lon="18.956281039863825">
        <ele>429.74000000000001</ele>
        <time>2010-02-06T19:53:19Z</time>
      </trkpt>
      <trkpt lat="47.532644011080265" lon="18.956322027370334">
        <ele>428.447</ele>
        <time>2010-02-06T19:53:22Z</time>
      </trkpt>
      <trkpt lat="47.532617021352053" lon="18.956356979906559">
        <ele>427.90899999999999</ele>
        <time>2010-02-06T19:53:25Z</time>
      </trkpt>
      <trkpt lat="47.532591037452221" lon="18.956424035131931">
        <ele>427.601</ele>
        <time>2010-02-06T19:53:28Z</time>
      </trkpt>
      <trkpt lat="47.532579973340034" lon="18.956469967961311">
        <ele>426.10300000000001</ele>
        <time>2010-02-06T19:53:30Z</time>
      </trkpt>
      <trkpt lat="47.532600006088614" lon="18.956528976559639">
        <ele>425.23899999999998</ele>
        <time>2010-02-06T19:53:32Z</time>
      </trkpt>
      <trkpt lat="47.532608974725008" lon="18.956579016521573">
        <ele>423.76499999999999</ele>
        <time>2010-02-06T19:53:34Z</time>
      </trkpt>
      <trkpt lat="47.532604029402137" lon="18.956651017069817">
        <ele>422.41199999999998</ele>
        <time>2010-02-06T19:53:36Z</time>
      </trkpt>
      <trkpt lat="47.532595982775092" lon="18.956712959334254">
        <ele>421.18599999999998</ele>
        <time>2010-02-06T19:53:38Z</time>
      </trkpt>
      <trkpt lat="47.532587014138699" lon="18.956772973760962">
        <ele>420.41800000000001</ele>
        <time>2010-02-06T19:53:40Z</time>
      </trkpt>
      <trkpt lat="47.532582990825176" lon="18.956837011501193">
        <ele>419.78300000000002</ele>
        <time>2010-02-06T19:53:42Z</time>
      </trkpt>
      <trkpt lat="47.532586008310318" lon="18.956897025927901">
        <ele>420.25799999999998</ele>
        <time>2010-02-06T19:53:44Z</time>
      </trkpt>
      <trkpt lat="47.532604029402137" lon="18.956948993727565">
        <ele>420.08300000000003</ele>
        <time>2010-02-06T19:53:46Z</time>
      </trkpt>
      <trkpt lat="47.532624984160066" lon="18.957001967355609">
        <ele>419.55500000000001</ele>
        <time>2010-02-06T19:53:48Z</time>
      </trkpt>
      <trkpt lat="47.532625989988446" lon="18.957070028409362">
        <ele>418.29000000000002</ele>
        <time>2010-02-06T19:53:50Z</time>
      </trkpt>
      <trkpt lat="47.532629007473588" lon="18.957133982330561">
        <ele>417.88</ele>
        <time>2010-02-06T19:53:52Z</time>
      </trkpt>
      <trkpt lat="47.532640993595123" lon="18.957197014242411">
        <ele>416.916</ele>
        <time>2010-02-06T19:53:54Z</time>
      </trkpt>
      <trkpt lat="47.532628001645207" lon="18.957256022840738">
        <ele>416.56299999999999</ele>
        <time>2010-02-06T19:53:56Z</time>
      </trkpt>
      <trkpt lat="47.532578967511654" lon="18.957308996468782">
        <ele>414.51799999999997</ele>
        <time>2010-02-06T19:53:58Z</time>
      </trkpt>
      <trkpt lat="47.532528005540371" lon="18.957331962883472">
        <ele>413.44799999999998</ele>
        <time>2010-02-06T19:54:00Z</time>
      </trkpt>
      <trkpt lat="47.532478971406817" lon="18.957339003682137">
        <ele>412.48500000000001</ele>
        <time>2010-02-06T19:54:02Z</time>
      </trkpt>
      <trkpt lat="47.532429015263915" lon="18.957341015338898">
        <ele>411.65100000000001</ele>
        <time>2010-02-06T19:54:04Z</time>
      </trkpt>
      <trkpt lat="47.532391967251897" lon="18.957333974540234">
        <ele>411.39499999999998</ele>
        <time>2010-02-06T19:54:06Z</time>
      </trkpt>
      <trkpt lat="47.53235500305891" lon="18.95732500590384">
        <ele>410.65800000000002</ele>
        <time>2010-02-06T19:54:08Z</time>
      </trkpt>
      <trkpt lat="47.532305968925357" lon="18.957328023388982">
        <ele>410.36399999999998</ele>
        <time>2010-02-06T19:54:10Z</time>
      </trkpt>
      <trkpt lat="47.532258024439216" lon="18.95732500590384">
        <ele>409.33600000000001</ele>
        <time>2010-02-06T19:54:12Z</time>
      </trkpt>
      <trkpt lat="47.532211001962423" lon="18.957334980368614">
        <ele>408.46100000000001</ele>
        <time>2010-02-06T19:54:14Z</time>
      </trkpt>
      <trkpt lat="47.532179988920689" lon="18.957372028380632">
        <ele>407.06700000000001</ele>
        <time>2010-02-06T19:54:16Z</time>
      </trkpt>
      <trkpt lat="47.532174037769437" lon="18.957435982301831">
        <ele>405.87599999999998</ele>
        <time>2010-02-06T19:54:18Z</time>
      </trkpt>
      <trkpt lat="47.532174959778786" lon="18.957503037527204">
        <ele>404.375</ele>
        <time>2010-02-06T19:54:20Z</time>
      </trkpt>
      <trkpt lat="47.532170014455914" lon="18.957569003105164">
        <ele>403.96800000000002</ele>
        <time>2010-02-06T19:54:22Z</time>
      </trkpt>
      <trkpt lat="47.532179988920689" lon="18.957630023360252">
        <ele>403.02999999999997</ele>
        <time>2010-02-06T19:54:24Z</time>
      </trkpt>
      <trkpt lat="47.532186023890972" lon="18.957690037786961">
        <ele>402.12400000000002</ele>
        <time>2010-02-06T19:54:26Z</time>
      </trkpt>
      <trkpt lat="47.532186023890972" lon="18.957757009193301">
        <ele>400.92700000000002</ele>
        <time>2010-02-06T19:54:28Z</time>
      </trkpt>
      <trkpt lat="47.532203961163759" lon="18.957815011963248">
        <ele>400.16800000000001</ele>
        <time>2010-02-06T19:54:30Z</time>
      </trkpt>
      <trkpt lat="47.532222988083959" lon="18.95786396227777">
        <ele>399.52300000000002</ele>
        <time>2010-02-06T19:54:32Z</time>
      </trkpt>
      <trkpt lat="47.532233968377113" lon="18.957915008068085">
        <ele>398.89100000000002</ele>
        <time>2010-02-06T19:54:34Z</time>
      </trkpt>
      <trkpt lat="47.532234974205494" lon="18.95796999335289">
        <ele>397.82299999999998</ele>
        <time>2010-02-06T19:54:36Z</time>
      </trkpt>
      <trkpt lat="47.53224603831768" lon="18.958029001951218">
        <ele>397.25299999999999</ele>
        <time>2010-02-06T19:54:38Z</time>
      </trkpt>
      <trkpt lat="47.532240003347397" lon="18.958104019984603">
        <ele>395.84899999999999</ele>
        <time>2010-02-06T19:54:40Z</time>
      </trkpt>
      <trkpt lat="47.532237991690636" lon="18.958169985562563">
        <ele>395.95699999999999</ele>
        <time>2010-02-06T19:54:42Z</time>
      </trkpt>
      <trkpt lat="47.53224603831768" lon="18.958238968625665">
        <ele>394.01900000000001</ele>
        <time>2010-02-06T19:54:44Z</time>
      </trkpt>
      <trkpt lat="47.532250983640552" lon="18.958319015800953">
        <ele>394</ele>
        <time>2010-02-06T19:54:47Z</time>
      </trkpt>
      <trkpt lat="47.532260958105326" lon="18.958404008299112">
        <ele>393.565</ele>
        <time>2010-02-06T19:54:50Z</time>
      </trkpt>
      <trkpt lat="47.532252995297313" lon="18.958470979705453">
        <ele>393.00200000000001</ele>
        <time>2010-02-06T19:54:52Z</time>
      </trkpt>
      <trkpt lat="47.53224796615541" lon="18.958537029102445">
        <ele>391.87599999999998</ele>
        <time>2010-02-06T19:54:54Z</time>
      </trkpt>
      <trkpt lat="47.532254001125693" lon="18.958600983023643">
        <ele>391.53199999999998</ele>
        <time>2010-02-06T19:54:56Z</time>
      </trkpt>
      <trkpt lat="47.532259030267596" lon="18.958663009107113">
        <ele>390.71499999999997</ele>
        <time>2010-02-06T19:54:58Z</time>
      </trkpt>
      <trkpt lat="47.532258024439216" lon="18.958739032968879">
        <ele>390.36799999999999</ele>
        <time>2010-02-06T19:55:00Z</time>
      </trkpt>
      <trkpt lat="47.53226799890399" lon="18.958798041567206">
        <ele>390.29500000000002</ele>
        <time>2010-02-06T19:55:02Z</time>
      </trkpt>
      <trkpt lat="47.532284008339047" lon="18.958859983831644">
        <ele>389.154</ele>
        <time>2010-02-06T19:55:04Z</time>
      </trkpt>
      <trkpt lat="47.532305968925357" lon="18.958922009915113">
        <ele>388.75799999999998</ele>
        <time>2010-02-06T19:55:06Z</time>
      </trkpt>
      <trkpt lat="47.532313009724021" lon="18.958981018513441">
        <ele>387.03699999999998</ele>
        <time>2010-02-06T19:55:08Z</time>
      </trkpt>
      <trkpt lat="47.532315021380782" lon="18.95904203876853">
        <ele>385.673</ele>
        <time>2010-02-06T19:55:10Z</time>
      </trkpt>
      <trkpt lat="47.532317033037543" lon="18.959114039316773">
        <ele>382.822</ele>
        <time>2010-02-06T19:55:12Z</time>
      </trkpt>
      <trkpt lat="47.532299011945724" lon="18.959197020158172">
        <ele>381.96499999999997</ele>
        <time>2010-02-06T19:55:14Z</time>
      </trkpt>
      <trkpt lat="47.532279985025525" lon="18.959256028756499">
        <ele>381.875</ele>
        <time>2010-02-06T19:55:16Z</time>
      </trkpt>
      <trkpt lat="47.532246960327029" lon="18.959316965192556">
        <ele>380.19400000000002</ele>
        <time>2010-02-06T19:55:18Z</time>
      </trkpt>
      <trkpt lat="47.532213013619184" lon="18.959379997104406">
        <ele>380.21600000000001</ele>
        <time>2010-02-06T19:55:20Z</time>
      </trkpt>
      <trkpt lat="47.532187029719353" lon="18.959425007924438">
        <ele>378.577</ele>
        <time>2010-02-06T19:55:22Z</time>
      </trkpt>
      <trkpt lat="47.53215903416276" lon="18.959459960460663">
        <ele>377.75799999999998</ele>
        <time>2010-02-06T19:55:24Z</time>
      </trkpt>
      <trkpt lat="47.532144030556083" lon="18.959510000422597">
        <ele>376.35700000000003</ele>
        <time>2010-02-06T19:55:26Z</time>
      </trkpt>
      <trkpt lat="47.532112011685967" lon="18.959566997364163">
        <ele>375.68700000000001</ele>
        <time>2010-02-06T19:55:28Z</time>
      </trkpt>
      <trkpt lat="47.532087033614516" lon="18.959617959335446">
        <ele>373.91800000000001</ele>
        <time>2010-02-06T19:55:30Z</time>
      </trkpt>
      <trkpt lat="47.532058032229543" lon="18.959666993469">
        <ele>373.94400000000002</ele>
        <time>2010-02-06T19:55:32Z</time>
      </trkpt>
      <trkpt lat="47.532019978389144" lon="18.95973396487534">
        <ele>373.14699999999999</ele>
        <time>2010-02-06T19:55:35Z</time>
      </trkpt>
      <trkpt lat="47.531985025852919" lon="18.959794985130429">
        <ele>371.94799999999998</ele>
        <time>2010-02-06T19:55:37Z</time>
      </trkpt>
      <trkpt lat="47.5319479778409" lon="18.959861034527421">
        <ele>370.50200000000001</ele>
        <time>2010-02-06T19:55:39Z</time>
      </trkpt>
      <trkpt lat="47.531911013647914" lon="18.959900010377169">
        <ele>370.31099999999998</ele>
        <time>2010-02-06T19:55:41Z</time>
      </trkpt>
      <trkpt lat="47.531885029748082" lon="18.959974022582173">
        <ele>370.36599999999999</ele>
        <time>2010-02-06T19:55:43Z</time>
      </trkpt>
      <trkpt lat="47.531891986727715" lon="18.960037976503372">
        <ele>370.05799999999999</ele>
        <time>2010-02-06T19:55:45Z</time>
      </trkpt>
      <trkpt lat="47.531909001991153" lon="18.960106037557125">
        <ele>370.29000000000002</ele>
        <time>2010-02-06T19:55:47Z</time>
      </trkpt>
      <trkpt lat="47.531917970627546" lon="18.960175020620227">
        <ele>369.77600000000001</ele>
        <time>2010-02-06T19:55:49Z</time>
      </trkpt>
      <trkpt lat="47.531919982284307" lon="18.960240986198187">
        <ele>369.38900000000001</ele>
        <time>2010-02-06T19:55:51Z</time>
      </trkpt>
      <trkpt lat="47.531927023082972" lon="18.960293959826231">
        <ele>369.50799999999998</ele>
        <time>2010-02-06T19:55:53Z</time>
      </trkpt>
      <trkpt lat="47.531906990334392" lon="18.960389010608196">
        <ele>369.79899999999998</ele>
        <time>2010-02-06T19:55:56Z</time>
      </trkpt>
      <trkpt lat="47.531889975070953" lon="18.960454976186156">
        <ele>368.35300000000001</ele>
        <time>2010-02-06T19:55:58Z</time>
      </trkpt>
      <trkpt lat="47.531871031969786" lon="18.960510967299342">
        <ele>367.81700000000001</ele>
        <time>2010-02-06T19:56:00Z</time>
      </trkpt>
      <trkpt lat="47.531857034191489" lon="18.960581040009856">
        <ele>367.21499999999997</ele>
        <time>2010-02-06T19:56:04Z</time>
      </trkpt>
      <trkpt lat="47.53183901309967" lon="18.960626972839236">
        <ele>366.58600000000001</ele>
        <time>2010-02-06T19:56:06Z</time>
      </trkpt>
      <trkpt lat="47.531828032806516" lon="18.960681958124042">
        <ele>367.24900000000002</ele>
        <time>2010-02-06T19:56:09Z</time>
      </trkpt>
      <trkpt lat="47.53181898035109" lon="18.960753036662936">
        <ele>366.291</ele>
        <time>2010-02-06T19:56:12Z</time>
      </trkpt>
      <trkpt lat="47.531808000057936" lon="18.960821013897657">
        <ele>366.43299999999999</ele>
        <time>2010-02-06T19:56:15Z</time>
      </trkpt>
      <trkpt lat="47.531790984794497" lon="18.960883039981127">
        <ele>366.08699999999999</ele>
        <time>2010-02-06T19:56:18Z</time>
      </trkpt>
      <trkpt lat="47.531797019764781" lon="18.960945988073945">
        <ele>365.11700000000002</ele>
        <time>2010-02-06T19:56:21Z</time>
      </trkpt>
      <trkpt lat="47.531786039471626" lon="18.960993010550737">
        <ele>364.83699999999999</ele>
        <time>2010-02-06T19:56:23Z</time>
      </trkpt>
      <trkpt lat="47.53177497535944" lon="18.961041960865259">
        <ele>364.548</ele>
        <time>2010-02-06T19:56:25Z</time>
      </trkpt>
      <trkpt lat="47.531766006723046" lon="18.961088983342052">
        <ele>363.88200000000001</ele>
        <time>2010-02-06T19:56:27Z</time>
      </trkpt>
      <trkpt lat="47.53175200894475" lon="18.961146986111999">
        <ele>364.10500000000002</ele>
        <time>2010-02-06T19:56:30Z</time>
      </trkpt>
      <trkpt lat="47.531734993681312" lon="18.96119199693203">
        <ele>363.88099999999997</ele>
        <time>2010-02-06T19:56:33Z</time>
      </trkpt>
      <trkpt lat="47.531718984246254" lon="18.961239019408822">
        <ele>363.10500000000002</ele>
        <time>2010-02-06T19:56:36Z</time>
      </trkpt>
      <trkpt lat="47.531700041145086" lon="18.961291993036866">
        <ele>363.42700000000002</ele>
        <time>2010-02-06T19:56:39Z</time>
      </trkpt>
      <trkpt lat="47.531673973426223" lon="18.961317976936698">
        <ele>362.77199999999999</ele>
        <time>2010-02-06T19:56:41Z</time>
      </trkpt>
      <trkpt lat="47.531642038375139" lon="18.961345972493291">
        <ele>362.53800000000001</ele>
        <time>2010-02-06T19:56:44Z</time>
      </trkpt>
      <trkpt lat="47.531612031161785" lon="18.961394000798464">
        <ele>362.80799999999999</ele>
        <time>2010-02-06T19:56:47Z</time>
      </trkpt>
      <trkpt lat="47.531589986756444" lon="18.96142995916307">
        <ele>362.39699999999999</ele>
        <time>2010-02-06T19:56:49Z</time>
      </trkpt>
      <trkpt lat="47.531569031998515" lon="18.96147103048861">
        <ele>362.54599999999999</ele>
        <time>2010-02-06T19:56:51Z</time>
      </trkpt>
      <trkpt lat="47.531544975936413" lon="18.961511012166739">
        <ele>361.89999999999998</ele>
        <time>2010-02-06T19:56:53Z</time>
      </trkpt>
      <trkpt lat="47.531513040885329" lon="18.961546970531344">
        <ele>361.41899999999998</ele>
        <time>2010-02-06T19:56:55Z</time>
      </trkpt>
      <trkpt lat="47.531479010358453" lon="18.96157999522984">
        <ele>361.44600000000003</ele>
        <time>2010-02-06T19:56:58Z</time>
      </trkpt>
      <trkpt lat="47.531458977609873" lon="18.961624000221491">
        <ele>361.46100000000001</ele>
        <time>2010-02-06T19:57:00Z</time>
      </trkpt>
      <trkpt lat="47.531440034508705" lon="18.961668005213141">
        <ele>361.71499999999997</ele>
        <time>2010-02-06T19:57:02Z</time>
      </trkpt>
      <trkpt lat="47.531435005366802" lon="18.961720978841186">
        <ele>360.30099999999999</ele>
        <time>2010-02-06T19:57:04Z</time>
      </trkpt>
      <trkpt lat="47.531426958739758" lon="18.961783004924655">
        <ele>360.30599999999998</ele>
        <time>2010-02-06T19:57:06Z</time>
      </trkpt>
      <trkpt lat="47.531402986496687" lon="18.961843019351363">
        <ele>359.92500000000001</ele>
        <time>2010-02-06T19:57:08Z</time>
      </trkpt>
      <trkpt lat="47.531383959576488" lon="18.961912002414465">
        <ele>359.64100000000002</ele>
        <time>2010-02-06T19:57:10Z</time>
      </trkpt>
      <trkpt lat="47.5313660223037" lon="18.961968999356031">
        <ele>358.774</ele>
        <time>2010-02-06T19:57:12Z</time>
      </trkpt>
      <trkpt lat="47.531348001211882" lon="18.962027002125978">
        <ele>358.685</ele>
        <time>2010-02-06T19:57:14Z</time>
      </trkpt>
      <trkpt lat="47.531332997605205" lon="18.962091039866209">
        <ele>358.69099999999997</ele>
        <time>2010-02-06T19:57:16Z</time>
      </trkpt>
      <trkpt lat="47.53132201731205" lon="18.962152982130647">
        <ele>357.84100000000001</ele>
        <time>2010-02-06T19:57:18Z</time>
      </trkpt>
      <trkpt lat="47.531306007876992" lon="18.962219031527638">
        <ele>358.36599999999999</ele>
        <time>2010-02-06T19:57:20Z</time>
      </trkpt>
      <trkpt lat="47.531287986785173" lon="18.96226798184216">
        <ele>358.03100000000001</ele>
        <time>2010-02-06T19:57:22Z</time>
      </trkpt>
      <trkpt lat="47.531273989006877" lon="18.962308969348669">
        <ele>358.23500000000001</ele>
        <time>2010-02-06T19:57:24Z</time>
      </trkpt>
      <trkpt lat="47.531260997056961" lon="18.962354985997081">
        <ele>357.93000000000001</ele>
        <time>2010-02-06T19:57:26Z</time>
      </trkpt>
      <trkpt lat="47.531243981793523" lon="18.962398990988731">
        <ele>357.80599999999998</ele>
        <time>2010-02-06T19:57:28Z</time>
      </trkpt>
      <trkpt lat="47.531226966530085" lon="18.962444001808763">
        <ele>357.39999999999998</ele>
        <time>2010-02-06T19:57:30Z</time>
      </trkpt>
      <trkpt lat="47.531206011772156" lon="18.962483983486891">
        <ele>357.39400000000001</ele>
        <time>2010-02-06T19:57:32Z</time>
      </trkpt>
      <trkpt lat="47.531174998730421" lon="18.962528994306922">
        <ele>357.40899999999999</ele>
        <time>2010-02-06T19:57:35Z</time>
      </trkpt>
      <trkpt lat="47.53115102648735" lon="18.962556989863515">
        <ele>357.14299999999997</ele>
        <time>2010-02-06T19:57:37Z</time>
      </trkpt>
      <trkpt lat="47.531125964596868" lon="18.962607029825449">
        <ele>356.67899999999997</ele>
        <time>2010-02-06T19:57:40Z</time>
      </trkpt>
      <trkpt lat="47.531104004010558" lon="18.962656985968351">
        <ele>356.55900000000003</ele>
        <time>2010-02-06T19:57:43Z</time>
      </trkpt>
      <trkpt lat="47.531085982918739" lon="18.962691016495228">
        <ele>356.61099999999999</ele>
        <time>2010-02-06T19:57:45Z</time>
      </trkpt>
      <trkpt lat="47.531071985140443" lon="18.96273703314364">
        <ele>356.512</ele>
        <time>2010-02-06T19:57:47Z</time>
      </trkpt>
      <trkpt lat="47.531054969877005" lon="18.962806016206741">
        <ele>356.41000000000003</ele>
        <time>2010-02-06T19:57:50Z</time>
      </trkpt>
      <trkpt lat="47.531042983755469" lon="18.962850021198392">
        <ele>356.11200000000002</ele>
        <time>2010-02-06T19:57:52Z</time>
      </trkpt>
      <trkpt lat="47.531026974320412" lon="18.962899977341294">
        <ele>356.89100000000002</ele>
        <time>2010-02-06T19:57:55Z</time>
      </trkpt>
      <trkpt lat="47.530999984592199" lon="18.962951023131609">
        <ele>356.42500000000001</ele>
        <time>2010-02-06T19:57:58Z</time>
      </trkpt>
      <trkpt lat="47.530952962115407" lon="18.962994022294879">
        <ele>356.12599999999998</ele>
        <time>2010-02-06T19:58:01Z</time>
      </trkpt>
      <trkpt lat="47.530913986265659" lon="18.963037021458149">
        <ele>355.608</ele>
        <time>2010-02-06T19:58:04Z</time>
      </trkpt>
      <trkpt lat="47.530886996537447" lon="18.9630619995296">
        <ele>355.12799999999999</ele>
        <time>2010-02-06T19:58:06Z</time>
      </trkpt>
      <trkpt lat="47.530855983495712" lon="18.963089995086193">
        <ele>354.71699999999998</ele>
        <time>2010-02-06T19:58:08Z</time>
      </trkpt>
      <trkpt lat="47.530817007645965" lon="18.963122013956308">
        <ele>354.60500000000002</ele>
        <time>2010-02-06T19:58:10Z</time>
      </trkpt>
      <trkpt lat="47.530777025967836" lon="18.963156966492534">
        <ele>353.37400000000002</ele>
        <time>2010-02-06T19:58:12Z</time>
      </trkpt>
      <trkpt lat="47.530740983784199" lon="18.963204994797707">
        <ele>353.20299999999997</ele>
        <time>2010-02-06T19:58:14Z</time>
      </trkpt>
      <trkpt lat="47.530713994055986" lon="18.963266015052795">
        <ele>352.02100000000002</ele>
        <time>2010-02-06T19:58:16Z</time>
      </trkpt>
      <trkpt lat="47.530708964914083" lon="18.963321000337601">
        <ele>351.79500000000002</ele>
        <time>2010-02-06T19:58:18Z</time>
      </trkpt>
      <trkpt lat="47.530707037076354" lon="18.963467013090849">
        <ele>350.85300000000001</ele>
        <time>2010-02-06T19:58:23Z</time>
      </trkpt>
      <trkpt lat="47.530687004327774" lon="18.963558040559292">
        <ele>350.41199999999998</ele>
        <time>2010-02-06T19:58:26Z</time>
      </trkpt>
      <trkpt lat="47.530660014599562" lon="18.963603973388672">
        <ele>349.57400000000001</ele>
        <time>2010-02-06T19:58:28Z</time>
      </trkpt>
      <trkpt lat="47.530625984072685" lon="18.963673962280154">
        <ele>349.57400000000001</ele>
        <time>2010-02-06T19:58:31Z</time>
      </trkpt>
      <trkpt lat="47.530590025708079" lon="18.963721990585327">
        <ele>348.79000000000002</ele>
        <time>2010-02-06T19:58:34Z</time>
      </trkpt>
      <trkpt lat="47.530562030151486" lon="18.963784016668797">
        <ele>348.47899999999998</ele>
        <time>2010-02-06T19:58:36Z</time>
      </trkpt>
      <trkpt lat="47.530522970482707" lon="18.963861968368292">
        <ele>348.47899999999998</ele>
        <time>2010-02-06T19:58:39Z</time>
      </trkpt>
      <trkpt lat="47.530488017946482" lon="18.963932963088155">
        <ele>347.28100000000001</ele>
        <time>2010-02-06T19:58:42Z</time>
      </trkpt>
      <trkpt lat="47.53046496771276" lon="18.963973028585315">
        <ele>347.37599999999998</ele>
        <time>2010-02-06T19:58:44Z</time>
      </trkpt>
      <trkpt lat="47.53044200129807" lon="18.964019967243075">
        <ele>346.63200000000001</ele>
        <time>2010-02-06T19:58:46Z</time>
      </trkpt>
      <trkpt lat="47.530420040711761" lon="18.964087022468448">
        <ele>346.24799999999999</ele>
        <time>2010-02-06T19:58:48Z</time>
      </trkpt>
      <trkpt lat="47.530396990478039" lon="18.964146031066775">
        <ele>346.38400000000001</ele>
        <time>2010-02-06T19:58:50Z</time>
      </trkpt>
      <trkpt lat="47.530389027670026" lon="18.964192969724536">
        <ele>346.00599999999997</ele>
        <time>2010-02-06T19:58:52Z</time>
      </trkpt>
      <trkpt lat="47.530383998528123" lon="18.964251978322864">
        <ele>345.983</ele>
        <time>2010-02-06T19:58:54Z</time>
      </trkpt>
      <trkpt lat="47.53037896938622" lon="18.96430897526443">
        <ele>346.36099999999999</ele>
        <time>2010-02-06T19:58:56Z</time>
      </trkpt>
      <trkpt lat="47.530390033498406" lon="18.964364966377616">
        <ele>345.99000000000001</ele>
        <time>2010-02-06T19:58:58Z</time>
      </trkpt>
      <trkpt lat="47.530400007963181" lon="18.964416012167931">
        <ele>346.33699999999999</ele>
        <time>2010-02-06T19:59:00Z</time>
      </trkpt>
      <trkpt lat="47.530415011569858" lon="18.964478960260749">
        <ele>345.23000000000002</ele>
        <time>2010-02-06T19:59:03Z</time>
      </trkpt>
      <trkpt lat="47.530406964942813" lon="18.964545009657741">
        <ele>345.375</ele>
        <time>2010-02-06T19:59:06Z</time>
      </trkpt>
      <trkpt lat="47.530406964942813" lon="18.964618016034365">
        <ele>345.76499999999999</ele>
        <time>2010-02-06T19:59:09Z</time>
      </trkpt>
      <trkpt lat="47.53044200129807" lon="18.964671995490789">
        <ele>345.45699999999999</ele>
        <time>2010-02-06T19:59:12Z</time>
      </trkpt>
      <trkpt lat="47.530472008511424" lon="18.964722035452724">
        <ele>345.096</ele>
        <time>2010-02-06T19:59:15Z</time>
      </trkpt>
      <trkpt lat="47.530506039038301" lon="18.964769979938865">
        <ele>345.39499999999998</ele>
        <time>2010-02-06T19:59:18Z</time>
      </trkpt>
      <trkpt lat="47.530546020716429" lon="18.964813984930515">
        <ele>344.327</ele>
        <time>2010-02-06T19:59:21Z</time>
      </trkpt>
      <trkpt lat="47.530586002394557" lon="18.964854972437024">
        <ele>344.05900000000003</ele>
        <time>2010-02-06T19:59:24Z</time>
      </trkpt>
      <trkpt lat="47.530615003779531" lon="18.964896965771914">
        <ele>343.702</ele>
        <time>2010-02-06T19:59:27Z</time>
      </trkpt>
      <trkpt lat="47.530635036528111" lon="18.964966032654047">
        <ele>342.83600000000001</ele>
        <time>2010-02-06T19:59:30Z</time>
      </trkpt>
      <trkpt lat="47.53065699711442" lon="18.965012971311808">
        <ele>342.44299999999998</ele>
        <time>2010-02-06T19:59:33Z</time>
      </trkpt>
      <trkpt lat="47.530693961307406" lon="18.965045996010303">
        <ele>342.26499999999999</ele>
        <time>2010-02-06T19:59:35Z</time>
      </trkpt>
      <trkpt lat="47.53072002902627" lon="18.965083966031671">
        <ele>342.255</ele>
        <time>2010-02-06T19:59:37Z</time>
      </trkpt>
      <trkpt lat="47.530751964077353" lon="18.965108022093773">
        <ele>341.63099999999997</ele>
        <time>2010-02-06T19:59:39Z</time>
      </trkpt>
      <trkpt lat="47.530794041231275" lon="18.965098969638348">
        <ele>340.66199999999998</ele>
        <time>2010-02-06T19:59:41Z</time>
      </trkpt>
      <trkpt lat="47.530834022909403" lon="18.965113973245025">
        <ele>340.03800000000001</ele>
        <time>2010-02-06T19:59:43Z</time>
      </trkpt>
      <trkpt lat="47.530888002365828" lon="18.965117996558547">
        <ele>339.51100000000002</ele>
        <time>2010-02-06T19:59:45Z</time>
      </trkpt>
      <trkpt lat="47.53093795850873" lon="18.965111961588264">
        <ele>338.88400000000001</ele>
        <time>2010-02-06T19:59:47Z</time>
      </trkpt>
      <trkpt lat="47.530991015955806" lon="18.96510299295187">
        <ele>338.43099999999998</ele>
        <time>2010-02-06T19:59:49Z</time>
      </trkpt>
      <trkpt lat="47.531039966270328" lon="18.965106010437012">
        <ele>337.33499999999998</ele>
        <time>2010-02-06T19:59:51Z</time>
      </trkpt>
      <trkpt lat="47.531083971261978" lon="18.965114979073405">
        <ele>338.06799999999998</ele>
        <time>2010-02-06T19:59:53Z</time>
      </trkpt>
      <trkpt lat="47.53113099373877" lon="18.965114979073405">
        <ele>336.94400000000002</ele>
        <time>2010-02-06T19:59:55Z</time>
      </trkpt>
      <trkpt lat="47.531176004558802" lon="18.965122019872069">
        <ele>336.47899999999998</ele>
        <time>2010-02-06T19:59:57Z</time>
      </trkpt>
      <trkpt lat="47.531219003722072" lon="18.965139035135508">
        <ele>335.77100000000002</ele>
        <time>2010-02-06T19:59:59Z</time>
      </trkpt>
      <trkpt lat="47.53125999122858" lon="18.965164013206959">
        <ele>334.99400000000003</ele>
        <time>2010-02-06T20:00:01Z</time>
      </trkpt>
      <trkpt lat="47.531303996220231" lon="18.965183962136507">
        <ele>334.12900000000002</ele>
        <time>2010-02-06T20:00:03Z</time>
      </trkpt>
      <trkpt lat="47.531348001211882" lon="18.965196032077074">
        <ele>333.22800000000001</ele>
        <time>2010-02-06T20:00:05Z</time>
      </trkpt>
      <trkpt lat="47.531407009810209" lon="18.965187985450029">
        <ele>332.39699999999999</ele>
        <time>2010-02-06T20:00:07Z</time>
      </trkpt>
      <trkpt lat="47.53145101480186" lon="18.965179016813636">
        <ele>331.86200000000002</ele>
        <time>2010-02-06T20:00:09Z</time>
      </trkpt>
      <trkpt lat="47.531490996479988" lon="18.965183962136507">
        <ele>331.15499999999997</ele>
        <time>2010-02-06T20:00:11Z</time>
      </trkpt>
      <trkpt lat="47.531531983986497" lon="18.965178010985255">
        <ele>330.94200000000001</ele>
        <time>2010-02-06T20:00:13Z</time>
      </trkpt>
      <trkpt lat="47.531574983149767" lon="18.965187985450029">
        <ele>331.34100000000001</ele>
        <time>2010-02-06T20:00:15Z</time>
      </trkpt>
      <trkpt lat="47.531627034768462" lon="18.965195026248693">
        <ele>330.63</ele>
        <time>2010-02-06T20:00:17Z</time>
      </trkpt>
      <trkpt lat="47.531680008396506" lon="18.965198965743184">
        <ele>329.54599999999999</ele>
        <time>2010-02-06T20:00:19Z</time>
      </trkpt>
      <trkpt lat="47.531728036701679" lon="18.965202989056706">
        <ele>328.04899999999998</ele>
        <time>2010-02-06T20:00:21Z</time>
      </trkpt>
      <trkpt lat="47.531792996451259" lon="18.965178010985255">
        <ele>328.15600000000001</ele>
        <time>2010-02-06T20:00:23Z</time>
      </trkpt>
      <trkpt lat="47.531840018928051" lon="18.965154960751534">
        <ele>326.79399999999998</ele>
        <time>2010-02-06T20:00:25Z</time>
      </trkpt>
      <trkpt lat="47.531884023919702" lon="18.965144986286759">
        <ele>327.01999999999998</ele>
        <time>2010-02-06T20:00:27Z</time>
      </trkpt>
      <trkpt lat="47.531929034739733" lon="18.965138029307127">
        <ele>326.608</ele>
        <time>2010-02-06T20:00:29Z</time>
      </trkpt>
      <trkpt lat="47.531985025852919" lon="18.965133000165224">
        <ele>326.154</ele>
        <time>2010-02-06T20:00:31Z</time>
      </trkpt>
      <trkpt lat="47.532020984217525" lon="18.965129982680082">
        <ele>325.18099999999998</ele>
        <time>2010-02-06T20:00:33Z</time>
      </trkpt>
      <trkpt lat="47.532071024179459" lon="18.965116990730166">
        <ele>324.56799999999998</ele>
        <time>2010-02-06T20:00:35Z</time>
      </trkpt>
      <trkpt lat="47.532122991979122" lon="18.965111039578915">
        <ele>323.72000000000003</ele>
        <time>2010-02-06T20:00:37Z</time>
      </trkpt>
      <trkpt lat="47.532176971435547" lon="18.965101987123489">
        <ele>323.88200000000001</ele>
        <time>2010-02-06T20:00:39Z</time>
      </trkpt>
      <trkpt lat="47.532233968377113" lon="18.965088995173573">
        <ele>322.995</ele>
        <time>2010-02-06T20:00:41Z</time>
      </trkpt>
      <trkpt lat="47.532275961712003" lon="18.965066028758883">
        <ele>322.36000000000001</ele>
        <time>2010-02-06T20:00:43Z</time>
      </trkpt>
      <trkpt lat="47.532319966703653" lon="18.965026969090104">
        <ele>321.13799999999998</ele>
        <time>2010-02-06T20:00:45Z</time>
      </trkpt>
      <trkpt lat="47.532361960038543" lon="18.965000985190272">
        <ele>321.06400000000002</ele>
        <time>2010-02-06T20:00:47Z</time>
      </trkpt>
      <trkpt lat="47.532404037192464" lon="18.964970977976918">
        <ele>320.40300000000002</ele>
        <time>2010-02-06T20:00:49Z</time>
      </trkpt>
      <trkpt lat="47.532449970021844" lon="18.964952034875751">
        <ele>318.94200000000001</ele>
        <time>2010-02-06T20:00:51Z</time>
      </trkpt>
      <trkpt lat="47.532496992498636" lon="18.964925967156887">
        <ele>318.52300000000002</ele>
        <time>2010-02-06T20:00:53Z</time>
      </trkpt>
      <trkpt lat="47.532545020803809" lon="18.964897971600294">
        <ele>318.00200000000001</ele>
        <time>2010-02-06T20:00:55Z</time>
      </trkpt>
      <trkpt lat="47.532596988603473" lon="18.964857989922166">
        <ele>317.17500000000001</ele>
        <time>2010-02-06T20:00:57Z</time>
      </trkpt>
      <trkpt lat="47.532649040222168" lon="18.964827982708812">
        <ele>316.35399999999998</ele>
        <time>2010-02-06T20:00:59Z</time>
      </trkpt>
      <trkpt lat="47.532690027728677" lon="18.964812979102135">
        <ele>315.94</ele>
        <time>2010-02-06T20:01:01Z</time>
      </trkpt>
      <trkpt lat="47.532729003578424" lon="18.964784983545542">
        <ele>314.72899999999998</ele>
        <time>2010-02-06T20:01:03Z</time>
      </trkpt>
      <trkpt lat="47.532775020226836" lon="18.964768974110484">
        <ele>314.488</ele>
        <time>2010-02-06T20:01:05Z</time>
      </trkpt>
      <trkpt lat="47.532813996076584" lon="18.964753970503807">
        <ele>313.52800000000002</ele>
        <time>2010-02-06T20:01:07Z</time>
      </trkpt>
      <trkpt lat="47.532849032431841" lon="18.964749025180936">
        <ele>312.73099999999999</ele>
        <time>2010-02-06T20:01:09Z</time>
      </trkpt>
      <trkpt lat="47.532892031595111" lon="18.964722035452724">
        <ele>312.00999999999999</ele>
        <time>2010-02-06T20:01:11Z</time>
      </trkpt>
      <trkpt lat="47.532922960817814" lon="18.964698985219002">
        <ele>311.74700000000001</ele>
        <time>2010-02-06T20:01:13Z</time>
      </trkpt>
      <trkpt lat="47.532963026314974" lon="18.964669983834028">
        <ele>311.66699999999997</ele>
        <time>2010-02-06T20:01:15Z</time>
      </trkpt>
      <trkpt lat="47.533008959144354" lon="18.964642994105816">
        <ele>310.62400000000002</ele>
        <time>2010-02-06T20:01:17Z</time>
      </trkpt>
      <trkpt lat="47.533051036298275" lon="18.964621033519506">
        <ele>309.77199999999999</ele>
        <time>2010-02-06T20:01:19Z</time>
      </trkpt>
      <trkpt lat="47.533091017976403" lon="18.964582979679108">
        <ele>309.61200000000002</ele>
        <time>2010-02-06T20:01:21Z</time>
      </trkpt>
      <trkpt lat="47.533143991604447" lon="18.964530006051064">
        <ele>307.61799999999999</ele>
        <time>2010-02-06T20:01:24Z</time>
      </trkpt>
      <trkpt lat="47.533212974667549" lon="18.964496981352568">
        <ele>304.75400000000002</ele>
        <time>2010-02-06T20:01:30Z</time>
      </trkpt>
      <trkpt lat="47.533295033499599" lon="18.964575016871095">
        <ele>303.71300000000002</ele>
        <time>2010-02-06T20:01:38Z</time>
      </trkpt>
      <trkpt lat="47.533340966328979" lon="18.96454400382936">
        <ele>303.86099999999999</ele>
        <time>2010-02-06T20:01:43Z</time>
      </trkpt>
      <trkpt lat="47.533377008512616" lon="18.964547021314502">
        <ele>302.81799999999998</ele>
        <time>2010-02-06T20:01:48Z</time>
      </trkpt>
      <trkpt lat="47.533401986584067" lon="18.964473009109497">
        <ele>302.55599999999998</ele>
        <time>2010-02-06T20:01:52Z</time>
      </trkpt>
      <trkpt lat="47.533436017110944" lon="18.964425986632705">
        <ele>301.553</ele>
        <time>2010-02-06T20:01:54Z</time>
      </trkpt>
      <trkpt lat="47.533477004617453" lon="18.964374018833041">
        <ele>300.07999999999998</ele>
        <time>2010-02-06T20:01:57Z</time>
      </trkpt>
      <trkpt lat="47.533528972417116" lon="18.96434904076159">
        <ele>298.15499999999997</ele>
        <time>2010-02-06T20:02:00Z</time>
      </trkpt>
      <trkpt lat="47.533584963530302" lon="18.964330013841391">
        <ele>297.529</ele>
        <time>2010-02-06T20:02:02Z</time>
      </trkpt>
      <trkpt lat="47.533623017370701" lon="18.96430897526443">
        <ele>296.90300000000002</ele>
        <time>2010-02-06T20:02:04Z</time>
      </trkpt>
      <trkpt lat="47.533671967685223" lon="18.964278968051076">
        <ele>297.05799999999999</ele>
        <time>2010-02-06T20:02:06Z</time>
      </trkpt>
      <trkpt lat="47.533701974898577" lon="18.964250972494483">
        <ele>295.17500000000001</ele>
        <time>2010-02-06T20:02:08Z</time>
      </trkpt>
      <trkpt lat="47.533737011253834" lon="18.964213002473116">
        <ele>295.38</ele>
        <time>2010-02-06T20:02:10Z</time>
      </trkpt>
      <trkpt lat="47.533784033730626" lon="18.964158017188311">
        <ele>295.34899999999999</ele>
        <time>2010-02-06T20:02:12Z</time>
      </trkpt>
      <trkpt lat="47.533819992095232" lon="18.96411401219666">
        <ele>295.11900000000003</ele>
        <time>2010-02-06T20:02:14Z</time>
      </trkpt>
      <trkpt lat="47.533863997086883" lon="18.964062966406345">
        <ele>294.73500000000001</ele>
        <time>2010-02-06T20:02:17Z</time>
      </trkpt>
      <trkpt lat="47.533912025392056" lon="18.964003035798669">
        <ele>295.21199999999999</ele>
        <time>2010-02-06T20:02:20Z</time>
      </trkpt>
      <trkpt lat="47.533955024555326" lon="18.963941009715199">
        <ele>294.68400000000003</ele>
        <time>2010-02-06T20:02:22Z</time>
      </trkpt>
      <trkpt lat="47.53398796543479" lon="18.963903039693832">
        <ele>295.00999999999999</ele>
        <time>2010-02-06T20:02:24Z</time>
      </trkpt>
      <trkpt lat="47.534029958769679" lon="18.963852999731898">
        <ele>295.21499999999997</ele>
        <time>2010-02-06T20:02:26Z</time>
      </trkpt>
      <trkpt lat="47.534066000953317" lon="18.963803965598345">
        <ele>294.45499999999998</ele>
        <time>2010-02-06T20:02:28Z</time>
      </trkpt>
      <trkpt lat="47.534119980409741" lon="18.963779993355274">
        <ele>294.11599999999999</ele>
        <time>2010-02-06T20:02:30Z</time>
      </trkpt>
      <trkpt lat="47.534167002886534" lon="18.963730037212372">
        <ele>293.81799999999998</ele>
        <time>2010-02-06T20:02:32Z</time>
      </trkpt>
      <trkpt lat="47.53420396707952" lon="18.963688965886831">
        <ele>293.55799999999999</ele>
        <time>2010-02-06T20:02:34Z</time>
      </trkpt>
      <trkpt lat="47.534255012869835" lon="18.963642027229071">
        <ele>293.23899999999998</ele>
        <time>2010-02-06T20:02:37Z</time>
      </trkpt>
      <trkpt lat="47.534291977062821" lon="18.963601961731911">
        <ele>292.95999999999998</ele>
        <time>2010-02-06T20:02:39Z</time>
      </trkpt>
      <trkpt lat="47.534328019246459" lon="18.963550999760628">
        <ele>291.98500000000001</ele>
        <time>2010-02-06T20:02:41Z</time>
      </trkpt>
      <trkpt lat="47.534360960125923" lon="18.963502971455455">
        <ele>292.23099999999999</ele>
        <time>2010-02-06T20:02:43Z</time>
      </trkpt>
      <trkpt lat="47.534407982602715" lon="18.963453015312552">
        <ele>291.03899999999999</ele>
        <time>2010-02-06T20:02:45Z</time>
      </trkpt>
      <trkpt lat="47.534442013129592" lon="18.96340498700738">
        <ele>290.81</ele>
        <time>2010-02-06T20:02:47Z</time>
      </trkpt>
      <trkpt lat="47.534475037828088" lon="18.963360982015729">
        <ele>290.92899999999997</ele>
        <time>2010-02-06T20:02:49Z</time>
      </trkpt>
      <trkpt lat="47.534510996192694" lon="18.963302979245782">
        <ele>290.65100000000001</ele>
        <time>2010-02-06T20:02:51Z</time>
      </trkpt>
      <trkpt lat="47.534552989527583" lon="18.963236007839441">
        <ele>289.99599999999998</ele>
        <time>2010-02-06T20:02:54Z</time>
      </trkpt>
      <trkpt lat="47.534584002569318" lon="18.963194014504552">
        <ele>289.71600000000001</ele>
        <time>2010-02-06T20:02:56Z</time>
      </trkpt>
      <trkpt lat="47.534643011167645" lon="18.963113967329264">
        <ele>289.59100000000001</ele>
        <time>2010-02-06T20:02:59Z</time>
      </trkpt>
      <trkpt lat="47.534677041694522" lon="18.963068034499884">
        <ele>289.70999999999998</ele>
        <time>2010-02-06T20:03:01Z</time>
      </trkpt>
      <trkpt lat="47.534723980352283" lon="18.963007014244795">
        <ele>289.75200000000001</ele>
        <time>2010-02-06T20:03:04Z</time>
      </trkpt>
      <trkpt lat="47.534754993394017" lon="18.962967032566667">
        <ele>289.75400000000002</ele>
        <time>2010-02-06T20:03:07Z</time>
      </trkpt>
      <trkpt lat="47.534801010042429" lon="18.962905006483197">
        <ele>288.45800000000003</ele>
        <time>2010-02-06T20:03:10Z</time>
      </trkpt>
      <trkpt lat="47.5348249822855" lon="18.962840968742967">
        <ele>288.351</ele>
        <time>2010-02-06T20:03:12Z</time>
      </trkpt>
      <trkpt lat="47.534861024469137" lon="18.962781960144639">
        <ele>288.92399999999998</ele>
        <time>2010-02-06T20:03:14Z</time>
      </trkpt>
      <trkpt lat="47.534894971176982" lon="18.962732004001737">
        <ele>288.82900000000001</ele>
        <time>2010-02-06T20:03:16Z</time>
      </trkpt>
      <trkpt lat="47.534937970340252" lon="18.962677018716931">
        <ele>288.75200000000001</ele>
        <time>2010-02-06T20:03:18Z</time>
      </trkpt>
      <trkpt lat="47.534955991432071" lon="18.962627984583378">
        <ele>289.12700000000001</ele>
        <time>2010-02-06T20:03:20Z</time>
      </trkpt>
      <trkpt lat="47.534985998645425" lon="18.962575010955334">
        <ele>288.42399999999998</ele>
        <time>2010-02-06T20:03:23Z</time>
      </trkpt>
      <trkpt lat="47.53501801751554" lon="18.962538968771696">
        <ele>287.27699999999999</ele>
        <time>2010-02-06T20:03:25Z</time>
      </trkpt>
      <trkpt lat="47.535057999193668" lon="18.962508961558342">
        <ele>287.40199999999999</ele>
        <time>2010-02-06T20:03:28Z</time>
      </trkpt>
      <trkpt lat="47.535117007791996" lon="18.962452970445156">
        <ele>286.92200000000003</ele>
        <time>2010-02-06T20:03:31Z</time>
      </trkpt>
      <trkpt lat="47.535149026662111" lon="18.962418017908931">
        <ele>286.91300000000001</ele>
        <time>2010-02-06T20:03:33Z</time>
      </trkpt>
      <trkpt lat="47.535191019997001" lon="18.962388010695577">
        <ele>286.642</ele>
        <time>2010-02-06T20:03:36Z</time>
      </trkpt>
      <trkpt lat="47.535256985574961" lon="18.962337970733643">
        <ele>286.44099999999997</ele>
        <time>2010-02-06T20:03:39Z</time>
      </trkpt>
      <trkpt lat="47.53529897890985" lon="18.962297989055514">
        <ele>286.22199999999998</ele>
        <time>2010-02-06T20:03:41Z</time>
      </trkpt>
      <trkpt lat="47.5353620108217" lon="18.962254989892244">
        <ele>286.34199999999998</ele>
        <time>2010-02-06T20:03:44Z</time>
      </trkpt>
      <trkpt lat="47.535400986671448" lon="18.962225988507271">
        <ele>286.20699999999999</ele>
        <time>2010-02-06T20:03:46Z</time>
      </trkpt>
      <trkpt lat="47.535457983613014" lon="18.962174020707607">
        <ele>286.072</ele>
        <time>2010-02-06T20:03:49Z</time>
      </trkpt>
      <trkpt lat="47.535499976947904" lon="18.962146025151014">
        <ele>285.56299999999999</ele>
        <time>2010-02-06T20:03:51Z</time>
      </trkpt>
      <trkpt lat="47.535544987767935" lon="18.962131021544337">
        <ele>285.56200000000001</ele>
        <time>2010-02-06T20:03:53Z</time>
      </trkpt>
      <trkpt lat="47.535583041608334" lon="18.962106965482235">
        <ele>285.51400000000001</ele>
        <time>2010-02-06T20:03:55Z</time>
      </trkpt>
      <trkpt lat="47.53562000580132" lon="18.962096991017461">
        <ele>283.17700000000002</ele>
        <time>2010-02-06T20:03:57Z</time>
      </trkpt>
      <trkpt lat="47.535665016621351" lon="18.962097996845841">
        <ele>281.88799999999998</ele>
        <time>2010-02-06T20:03:59Z</time>
      </trkpt>
      <trkpt lat="47.535700974985957" lon="18.962120963260531">
        <ele>280.77199999999999</ele>
        <time>2010-02-06T20:04:01Z</time>
      </trkpt>
      <trkpt lat="47.535743974149227" lon="18.962160022929311">
        <ele>279.28699999999998</ele>
        <time>2010-02-06T20:04:03Z</time>
      </trkpt>
      <trkpt lat="47.535773981362581" lon="18.962188018485904">
        <ele>277.98399999999998</ele>
        <time>2010-02-06T20:04:05Z</time>
      </trkpt>
      <trkpt lat="47.535810023546219" lon="18.962231017649174">
        <ele>277.28399999999999</ele>
        <time>2010-02-06T20:04:07Z</time>
      </trkpt>
      <trkpt lat="47.53583500161767" lon="18.962268987670541">
        <ele>276.94</ele>
        <time>2010-02-06T20:04:09Z</time>
      </trkpt>
      <trkpt lat="47.535867020487785" lon="18.962308969348669">
        <ele>275.14600000000002</ele>
        <time>2010-02-06T20:04:11Z</time>
      </trkpt>
      <trkpt lat="47.535889986902475" lon="18.962355991825461">
        <ele>274.36200000000002</ele>
        <time>2010-02-06T20:04:13Z</time>
      </trkpt>
      <trkpt lat="47.535903984680772" lon="18.96239697933197">
        <ele>273.37400000000002</ele>
        <time>2010-02-06T20:04:15Z</time>
      </trkpt>
      <trkpt lat="47.53590096719563" lon="18.962451964616776">
        <ele>272.20100000000002</ele>
        <time>2010-02-06T20:04:17Z</time>
      </trkpt>
      <trkpt lat="47.535889986902475" lon="18.962514996528625">
        <ele>271.48599999999999</ele>
        <time>2010-02-06T20:04:19Z</time>
      </trkpt>
      <trkpt lat="47.535894010215998" lon="18.962581967934966">
        <ele>269.73200000000003</ele>
        <time>2010-02-06T20:04:21Z</time>
      </trkpt>
      <trkpt lat="47.53589803352952" lon="18.962641982361674">
        <ele>270.06099999999998</ele>
        <time>2010-02-06T20:04:23Z</time>
      </trkpt>
      <trkpt lat="47.535887975245714" lon="18.962708031758666">
        <ele>268.92700000000002</ele>
        <time>2010-02-06T20:04:26Z</time>
      </trkpt>
      <trkpt lat="47.535862997174263" lon="18.962795035913587">
        <ele>268.15699999999998</ele>
        <time>2010-02-06T20:04:28Z</time>
      </trkpt>
      <trkpt lat="47.535862997174263" lon="18.962882962077856">
        <ele>266.536</ele>
        <time>2010-02-06T20:04:30Z</time>
      </trkpt>
      <trkpt lat="47.535909013822675" lon="18.962939037010074">
        <ele>266.26499999999999</ele>
        <time>2010-02-06T20:04:32Z</time>
      </trkpt>
      <trkpt lat="47.535955030471087" lon="18.962984969839454">
        <ele>264.45800000000003</ele>
        <time>2010-02-06T20:04:34Z</time>
      </trkpt>
      <trkpt lat="47.535993000492454" lon="18.963028974831104">
        <ele>263.74900000000002</ele>
        <time>2010-02-06T20:04:36Z</time>
      </trkpt>
      <trkpt lat="47.536041028797626" lon="18.963077003136277">
        <ele>263.33300000000003</ele>
        <time>2010-02-06T20:04:38Z</time>
      </trkpt>
      <trkpt lat="47.536098025739193" lon="18.963122013956308">
        <ele>261.39499999999998</ele>
        <time>2010-02-06T20:04:40Z</time>
      </trkpt>
      <trkpt lat="47.536138007417321" lon="18.963164007291198">
        <ele>260.49400000000003</ele>
        <time>2010-02-06T20:04:42Z</time>
      </trkpt>
      <trkpt lat="47.536182012408972" lon="18.963200971484184">
        <ele>259.238</ele>
        <time>2010-02-06T20:04:44Z</time>
      </trkpt>
      <trkpt lat="47.536222999915481" lon="18.963221004232764">
        <ele>257.77999999999997</ele>
        <time>2010-02-06T20:04:46Z</time>
      </trkpt>
      <trkpt lat="47.53626499325037" lon="18.963245982304215">
        <ele>257.36000000000001</ele>
        <time>2010-02-06T20:04:48Z</time>
      </trkpt>
      <trkpt lat="47.536310004070401" lon="18.963264003396034">
        <ele>257.03800000000001</ele>
        <time>2010-02-06T20:04:50Z</time>
      </trkpt>
      <trkpt lat="47.536361971870065" lon="18.963280012831092">
        <ele>256.59699999999998</ele>
        <time>2010-02-06T20:04:52Z</time>
      </trkpt>
      <trkpt lat="47.536406982690096" lon="18.963294010609388">
        <ele>256.142</ele>
        <time>2010-02-06T20:04:54Z</time>
      </trkpt>
      <trkpt lat="47.536446964368224" lon="18.963327035307884">
        <ele>255.65600000000001</ele>
        <time>2010-02-06T20:04:56Z</time>
      </trkpt>
      <trkpt lat="47.536483006551862" lon="18.963368022814393">
        <ele>255.79300000000001</ele>
        <time>2010-02-06T20:04:58Z</time>
      </trkpt>
      <trkpt lat="47.53652298822999" lon="18.963397024199367">
        <ele>254.56899999999999</ele>
        <time>2010-02-06T20:05:00Z</time>
      </trkpt>
      <trkpt lat="47.536566993221641" lon="18.963440023362637">
        <ele>253.136</ele>
        <time>2010-02-06T20:05:02Z</time>
      </trkpt>
      <trkpt lat="47.536617033183575" lon="18.963474975898862">
        <ele>253.27099999999999</ele>
        <time>2010-02-06T20:05:04Z</time>
      </trkpt>
      <trkpt lat="47.536652991548181" lon="18.963503977283835">
        <ele>251.459</ele>
        <time>2010-02-06T20:05:06Z</time>
      </trkpt>
      <trkpt lat="47.536705965176225" lon="18.963539013639092">
        <ele>250.85400000000001</ele>
        <time>2010-02-06T20:05:08Z</time>
      </trkpt>
      <trkpt lat="47.536750975996256" lon="18.963558040559292">
        <ele>249.45400000000001</ele>
        <time>2010-02-06T20:05:10Z</time>
      </trkpt>
      <trkpt lat="47.536806967109442" lon="18.963591987267137">
        <ele>248.63900000000001</ele>
        <time>2010-02-06T20:05:12Z</time>
      </trkpt>
      <trkpt lat="47.536861030384898" lon="18.963601961731911">
        <ele>247.85599999999999</ele>
        <time>2010-02-06T20:05:14Z</time>
      </trkpt>
      <trkpt lat="47.536893971264362" lon="18.963627023622394">
        <ele>247.226</ele>
        <time>2010-02-06T20:05:16Z</time>
      </trkpt>
      <trkpt lat="47.536937976256013" lon="18.963645966723561">
        <ele>245.94999999999999</ele>
        <time>2010-02-06T20:05:18Z</time>
      </trkpt>
      <trkpt lat="47.536982987076044" lon="18.96368402056396">
        <ele>244.84200000000001</ele>
        <time>2010-02-06T20:05:20Z</time>
      </trkpt>
      <trkpt lat="47.537019029259682" lon="18.96372701972723">
        <ele>243.81899999999999</ele>
        <time>2010-02-06T20:05:22Z</time>
      </trkpt>
      <trkpt lat="47.537053981795907" lon="18.963764989748597">
        <ele>243.053</ele>
        <time>2010-02-06T20:05:24Z</time>
      </trkpt>
      <trkpt lat="47.537093963474035" lon="18.963808994740248">
        <ele>241.88</ele>
        <time>2010-02-06T20:05:26Z</time>
      </trkpt>
      <trkpt lat="47.537107961252332" lon="18.963874038308859">
        <ele>241.84100000000001</ele>
        <time>2010-02-06T20:05:28Z</time>
      </trkpt>
      <trkpt lat="47.537138974294066" lon="18.963929023593664">
        <ele>241.11099999999999</ele>
        <time>2010-02-06T20:05:30Z</time>
      </trkpt>
      <trkpt lat="47.537146015092731" lon="18.964002029970288">
        <ele>240.39699999999999</ele>
        <time>2010-02-06T20:05:32Z</time>
      </trkpt>
      <trkpt lat="47.537158001214266" lon="18.964052991941571">
        <ele>238.59999999999999</ele>
        <time>2010-02-06T20:05:34Z</time>
      </trkpt>
      <trkpt lat="47.537173004820943" lon="18.964127004146576">
        <ele>237.928</ele>
        <time>2010-02-06T20:05:36Z</time>
      </trkpt>
      <trkpt lat="47.537182979285717" lon="18.964199004694819">
        <ele>236.88200000000001</ele>
        <time>2010-02-06T20:05:38Z</time>
      </trkpt>
      <trkpt lat="47.537193959578872" lon="18.964268993586302">
        <ele>236.327</ele>
        <time>2010-02-06T20:05:40Z</time>
      </trkpt>
      <trkpt lat="47.537197982892394" lon="18.964330013841391">
        <ele>235.22900000000001</ele>
        <time>2010-02-06T20:05:42Z</time>
      </trkpt>
      <trkpt lat="47.537216003984213" lon="18.96439203992486">
        <ele>234.63200000000001</ele>
        <time>2010-02-06T20:05:44Z</time>
      </trkpt>
      <trkpt lat="47.537228995934129" lon="18.964459011331201">
        <ele>234.48099999999999</ele>
        <time>2010-02-06T20:05:46Z</time>
      </trkpt>
      <trkpt lat="47.537236958742142" lon="18.964524976909161">
        <ele>234.06899999999999</ele>
        <time>2010-02-06T20:05:48Z</time>
      </trkpt>
      <trkpt lat="47.537265038117766" lon="18.964569987729192">
        <ele>234</ele>
        <time>2010-02-06T20:05:50Z</time>
      </trkpt>
      <trkpt lat="47.537285992875695" lon="18.964628996327519">
        <ele>234.40000000000001</ele>
        <time>2010-02-06T20:05:52Z</time>
      </trkpt>
      <trkpt lat="47.537311976775527" lon="18.964685993269086">
        <ele>233.661</ele>
        <time>2010-02-06T20:05:54Z</time>
      </trkpt>
      <trkpt lat="47.537343995645642" lon="18.964742990210652">
        <ele>233.441</ele>
        <time>2010-02-06T20:05:56Z</time>
      </trkpt>
      <trkpt lat="47.537376014515758" lon="18.964790012687445">
        <ele>233.28200000000001</ele>
        <time>2010-02-06T20:05:58Z</time>
      </trkpt>
      <trkpt lat="47.537405015900731" lon="18.964834017679095">
        <ele>234.035</ele>
        <time>2010-02-06T20:06:00Z</time>
      </trkpt>
      <trkpt lat="47.537462012842298" lon="18.964884979650378">
        <ele>233.02199999999999</ele>
        <time>2010-02-06T20:06:03Z</time>
      </trkpt>
      <trkpt lat="47.537499982863665" lon="18.964922027662396">
        <ele>233.23400000000001</ele>
        <time>2010-02-06T20:06:06Z</time>
      </trkpt>
      <trkpt lat="47.537547005340457" lon="18.964955974370241">
        <ele>233.524</ele>
        <time>2010-02-06T20:06:10Z</time>
      </trkpt>
      <trkpt lat="47.5376380328089" lon="18.964964020997286">
        <ele>233.46199999999999</ele>
        <time>2010-02-06T20:06:20Z</time>
      </trkpt>
      <trkpt lat="47.537678014487028" lon="18.96499402821064">
        <ele>233.52799999999999</ele>
        <time>2010-02-06T20:06:25Z</time>
      </trkpt>
      <trkpt lat="47.537711039185524" lon="18.965012971311808">
        <ele>232.42099999999999</ele>
        <time>2010-02-06T20:06:28Z</time>
      </trkpt>
      <trkpt lat="47.537742974236608" lon="18.965041972696781">
        <ele>231.41499999999999</ele>
        <time>2010-02-06T20:06:31Z</time>
      </trkpt>
      <trkpt lat="47.537779016420245" lon="18.965068962424994">
        <ele>229.76400000000001</ele>
        <time>2010-02-06T20:06:34Z</time>
      </trkpt>
      <trkpt lat="47.537823021411896" lon="18.965086983516812">
        <ele>229.381</ele>
        <time>2010-02-06T20:06:37Z</time>
      </trkpt>
      <trkpt lat="47.537857973948121" lon="18.965103998780251">
        <ele>227.68299999999999</ele>
        <time>2010-02-06T20:06:39Z</time>
      </trkpt>
      <trkpt lat="47.53789602778852" lon="18.965107016265392">
        <ele>226.96199999999999</ele>
        <time>2010-02-06T20:06:41Z</time>
      </trkpt>
      <trkpt lat="47.537936009466648" lon="18.965116990730166">
        <ele>225.53100000000001</ele>
        <time>2010-02-06T20:06:43Z</time>
      </trkpt>
      <trkpt lat="47.53798202611506" lon="18.965133000165224">
        <ele>224.01599999999999</ele>
        <time>2010-02-06T20:06:45Z</time>
      </trkpt>
      <trkpt lat="47.538024019449949" lon="18.965159989893436">
        <ele>224.11600000000001</ele>
        <time>2010-02-06T20:06:47Z</time>
      </trkpt>
      <trkpt lat="47.538042040541768" lon="18.965224027633667">
        <ele>223.643</ele>
        <time>2010-02-06T20:06:49Z</time>
      </trkpt>
      <trkpt lat="47.538054026663303" lon="18.965285969898105">
        <ele>223.78399999999999</ele>
        <time>2010-02-06T20:06:51Z</time>
      </trkpt>
      <trkpt lat="47.538066012784839" lon="18.965341039001942">
        <ele>223.667</ele>
        <time>2010-02-06T20:06:53Z</time>
      </trkpt>
      <trkpt lat="47.538085039705038" lon="18.965412033721805">
        <ele>223.464</ele>
        <time>2010-02-06T20:06:55Z</time>
      </trkpt>
      <trkpt lat="47.538107000291348" lon="18.965460984036326">
        <ele>223.959</ele>
        <time>2010-02-06T20:06:57Z</time>
      </trkpt>
      <trkpt lat="47.538153016939759" lon="18.965499959886074">
        <ele>223.91900000000001</ele>
        <time>2010-02-06T20:07:00Z</time>
      </trkpt>
      <trkpt lat="47.538174977526069" lon="18.965549999848008">
        <ele>224.22</ele>
        <time>2010-02-06T20:07:03Z</time>
      </trkpt>
      <trkpt lat="47.538216970860958" lon="18.965626023709774">
        <ele>223.76900000000001</ele>
        <time>2010-02-06T20:07:08Z</time>
      </trkpt>
      <trkpt lat="47.53824396058917" lon="18.965698024258018">
        <ele>224.19499999999999</ele>
        <time>2010-02-06T20:07:12Z</time>
      </trkpt>
      <trkpt lat="47.538273967802525" lon="18.965766001492739">
        <ele>224.358</ele>
        <time>2010-02-06T20:07:16Z</time>
      </trkpt>
      <trkpt lat="47.538321996107697" lon="18.965801959857345">
        <ele>224.14400000000001</ele>
        <time>2010-02-06T20:07:19Z</time>
      </trkpt>
      <trkpt lat="47.538384022191167" lon="18.965830039232969">
        <ele>224.52699999999999</ele>
        <time>2010-02-06T20:07:22Z</time>
      </trkpt>
      <trkpt lat="47.538428027182817" lon="18.965827021747828">
        <ele>223.995</ele>
        <time>2010-02-06T20:07:25Z</time>
      </trkpt>
      <trkpt lat="47.538476977497339" lon="18.965844037011266">
        <ele>223.98400000000001</ele>
        <time>2010-02-06T20:07:28Z</time>
      </trkpt>
      <trkpt lat="47.538531962782145" lon="18.965851999819279">
        <ele>223.358</ele>
        <time>2010-02-06T20:07:32Z</time>
      </trkpt>
      <trkpt lat="47.538576973602176" lon="18.965869015082717">
        <ele>222.94399999999999</ele>
        <time>2010-02-06T20:07:35Z</time>
      </trkpt>
      <trkpt lat="47.538637993857265" lon="18.965890975669026">
        <ele>223.63300000000001</ele>
        <time>2010-02-06T20:07:38Z</time>
      </trkpt>
      <trkpt lat="47.53869398497045" lon="18.965903967618942">
        <ele>222.70500000000001</ele>
        <time>2010-02-06T20:07:41Z</time>
      </trkpt>
      <trkpt lat="47.538731032982469" lon="18.965943027287722">
        <ele>221.88800000000001</ele>
        <time>2010-02-06T20:07:44Z</time>
      </trkpt>
      <trkpt lat="47.53877897746861" lon="18.965969011187553">
        <ele>221.35599999999999</ele>
        <time>2010-02-06T20:07:46Z</time>
      </trkpt>
      <trkpt lat="47.538818037137389" lon="18.96600698120892">
        <ele>220.21700000000001</ele>
        <time>2010-02-06T20:07:49Z</time>
      </trkpt>
      <trkpt lat="47.538866987451911" lon="18.966041011735797">
        <ele>220.02699999999999</ele>
        <time>2010-02-06T20:07:52Z</time>
      </trkpt>
      <trkpt lat="47.538900012150407" lon="18.966062972322106">
        <ele>219.245</ele>
        <time>2010-02-06T20:07:55Z</time>
      </trkpt>
      <trkpt lat="47.538962960243225" lon="18.9660270139575">
        <ele>219.64599999999999</ele>
        <time>2010-02-06T20:08:00Z</time>
      </trkpt>
      <trkpt lat="47.539009982720017" lon="18.965985020622611">
        <ele>220.286</ele>
        <time>2010-02-06T20:08:04Z</time>
      </trkpt>
      <trkpt lat="47.53905801102519" lon="18.965949984267354">
        <ele>220.40000000000001</ele>
        <time>2010-02-06T20:08:07Z</time>
      </trkpt>
      <trkpt lat="47.539110984653234" lon="18.965912014245987">
        <ele>221.024</ele>
        <time>2010-02-06T20:08:11Z</time>
      </trkpt>
      <trkpt lat="47.539158007130027" lon="18.965886030346155">
        <ele>220.48400000000001</ele>
        <time>2010-02-06T20:08:15Z</time>
      </trkpt>
      <trkpt lat="47.539219027385116" lon="18.965881001204252">
        <ele>220.304</ele>
        <time>2010-02-06T20:08:19Z</time>
      </trkpt>
      <trkpt lat="47.539289016276598" lon="18.965859040617943">
        <ele>220.024</ele>
        <time>2010-02-06T20:08:23Z</time>
      </trkpt>
      <trkpt lat="47.539346013218164" lon="18.965859040617943">
        <ele>219.864</ele>
        <time>2010-02-06T20:08:26Z</time>
      </trkpt>
      <trkpt lat="47.539394041523337" lon="18.965863985940814">
        <ele>219.15299999999999</ele>
        <time>2010-02-06T20:08:29Z</time>
      </trkpt>
      <trkpt lat="47.53944399766624" lon="18.96585501730442">
        <ele>219.29400000000001</ele>
        <time>2010-02-06T20:08:31Z</time>
      </trkpt>
      <trkpt lat="47.539494037628174" lon="18.965851999819279">
        <ele>218.821</ele>
        <time>2010-02-06T20:08:33Z</time>
      </trkpt>
      <trkpt lat="47.539543993771076" lon="18.96583397872746">
        <ele>218.917</ele>
        <time>2010-02-06T20:08:35Z</time>
      </trkpt>
      <trkpt lat="47.539586992934346" lon="18.965816041454673">
        <ele>218.36500000000001</ele>
        <time>2010-02-06T20:08:37Z</time>
      </trkpt>
      <trkpt lat="47.539641978219151" lon="18.965784022584558">
        <ele>218.852</ele>
        <time>2010-02-06T20:08:40Z</time>
      </trkpt>
      <trkpt lat="47.539694029837847" lon="18.965743035078049">
        <ele>218.929</ele>
        <time>2010-02-06T20:08:43Z</time>
      </trkpt>
      <trkpt lat="47.539736023172736" lon="18.965702969580889">
        <ele>217.839</ele>
        <time>2010-02-06T20:08:46Z</time>
      </trkpt>
      <trkpt lat="47.539770975708961" lon="18.965675979852676">
        <ele>218.77600000000001</ele>
        <time>2010-02-06T20:08:48Z</time>
      </trkpt>
      <trkpt lat="47.53981196321547" lon="18.965644966810942">
        <ele>219.428</ele>
        <time>2010-02-06T20:08:50Z</time>
      </trkpt>
      <trkpt lat="47.539848005399108" lon="18.965600039809942">
        <ele>219.30199999999999</ele>
        <time>2010-02-06T20:08:52Z</time>
      </trkpt>
      <trkpt lat="47.539899973198771" lon="18.965556034818292">
        <ele>218.85300000000001</ele>
        <time>2010-02-06T20:08:55Z</time>
      </trkpt>
      <trkpt lat="47.539946995675564" lon="18.965507000684738">
        <ele>218.898</ele>
        <time>2010-02-06T20:08:58Z</time>
      </trkpt>
      <trkpt lat="47.539991000667214" lon="18.965461989864707">
        <ele>218.892</ele>
        <time>2010-02-06T20:09:01Z</time>
      </trkpt>
      <trkpt lat="47.540028970688581" lon="18.965431982651353">
        <ele>218.95400000000001</ele>
        <time>2010-02-06T20:09:03Z</time>
      </trkpt>
      <trkpt lat="47.5400660187006" lon="18.96540398709476">
        <ele>219.03700000000001</ele>
        <time>2010-02-06T20:09:05Z</time>
      </trkpt>
      <trkpt lat="47.540095020085573" lon="18.965375991538167">
        <ele>219.06700000000001</ele>
        <time>2010-02-06T20:09:07Z</time>
      </trkpt>
      <trkpt lat="47.540167020633817" lon="18.965329974889755">
        <ele>218.61099999999999</ele>
        <time>2010-02-06T20:09:11Z</time>
      </trkpt>
      <trkpt lat="47.540234997868538" lon="18.965311031788588">
        <ele>218.84399999999999</ele>
        <time>2010-02-06T20:09:14Z</time>
      </trkpt>
      <trkpt lat="47.540280008688569" lon="18.965268032625318">
        <ele>218.423</ele>
        <time>2010-02-06T20:09:17Z</time>
      </trkpt>
      <trkpt lat="47.540320996195078" lon="18.965229978784919">
        <ele>218.941</ele>
        <time>2010-02-06T20:09:20Z</time>
      </trkpt>
      <trkpt lat="47.540388973429799" lon="18.965183040127158">
        <ele>219.29499999999999</ele>
        <time>2010-02-06T20:09:24Z</time>
      </trkpt>
      <trkpt lat="47.540427027270198" lon="18.965133000165224">
        <ele>219.72800000000001</ele>
        <time>2010-02-06T20:09:27Z</time>
      </trkpt>
      <trkpt lat="47.540452005341649" lon="18.965076003223658">
        <ele>220.678</ele>
        <time>2010-02-06T20:09:31Z</time>
      </trkpt>
      <trkpt lat="47.540480000898242" lon="18.965053958818316">
        <ele>220.834</ele>
        <time>2010-02-06T20:09:34Z</time>
      </trkpt>
      <trkpt lat="47.540542026981711" lon="18.965022023767233">
        <ele>221.43899999999999</ele>
        <time>2010-02-06T20:09:38Z</time>
      </trkpt>
      <trkpt lat="47.540596006438136" lon="18.964985981583595">
        <ele>221.363</ele>
        <time>2010-02-06T20:09:43Z</time>
      </trkpt>
      <trkpt lat="47.540622996166348" lon="18.964965026825666">
        <ele>222.25800000000001</ele>
        <time>2010-02-06T20:09:47Z</time>
      </trkpt>
      <trkpt lat="47.540660966187716" lon="18.964928984642029">
        <ele>220.96899999999999</ele>
        <time>2010-02-06T20:09:50Z</time>
      </trkpt>
      <trkpt lat="47.540723998099566" lon="18.964922027662396">
        <ele>221.261</ele>
        <time>2010-02-06T20:09:53Z</time>
      </trkpt>
      <trkpt lat="47.540804967284203" lon="18.964935019612312">
        <ele>221.40299999999999</ele>
        <time>2010-02-06T20:09:58Z</time>
      </trkpt>
      <trkpt lat="47.540846960619092" lon="18.964928984642029">
        <ele>220.726</ele>
        <time>2010-02-06T20:10:01Z</time>
      </trkpt>
      <trkpt lat="47.540889037773013" lon="18.964894032105803">
        <ele>221.059</ele>
        <time>2010-02-06T20:10:04Z</time>
      </trkpt>
      <trkpt lat="47.540930025279522" lon="18.964856984093785">
        <ele>220.084</ele>
        <time>2010-02-06T20:10:07Z</time>
      </trkpt>
      <trkpt lat="47.540975958108902" lon="18.964841980487108">
        <ele>220.489</ele>
        <time>2010-02-06T20:10:10Z</time>
      </trkpt>
      <trkpt lat="47.541015017777681" lon="18.964832006022334">
        <ele>219.43100000000001</ele>
        <time>2010-02-06T20:10:12Z</time>
      </trkpt>
      <trkpt lat="47.541047036647797" lon="18.964813984930515">
        <ele>219.45500000000001</ele>
        <time>2010-02-06T20:10:14Z</time>
      </trkpt>
      <trkpt lat="47.541076960042119" lon="18.964792024344206">
        <ele>219.58099999999999</ele>
        <time>2010-02-06T20:10:16Z</time>
      </trkpt>
      <trkpt lat="47.541131023317575" lon="18.964766040444374">
        <ele>219.79900000000001</ele>
        <time>2010-02-06T20:10:18Z</time>
      </trkpt>
      <trkpt lat="47.541196988895535" lon="18.964723041281104">
        <ele>219.471</ele>
        <time>2010-02-06T20:10:20Z</time>
      </trkpt>
      <trkpt lat="47.541246023029089" lon="18.96469303406775">
        <ele>219.108</ele>
        <time>2010-02-06T20:10:22Z</time>
      </trkpt>
      <trkpt lat="47.54129002802074" lon="18.964670989662409">
        <ele>219.94200000000001</ele>
        <time>2010-02-06T20:10:24Z</time>
      </trkpt>
      <trkpt lat="47.54133596085012" lon="18.964665038511157">
        <ele>220.078</ele>
        <time>2010-02-06T20:10:26Z</time>
      </trkpt>
      <trkpt lat="47.541372003033757" lon="18.96465296857059">
        <ele>219.75800000000001</ele>
        <time>2010-02-06T20:10:28Z</time>
      </trkpt>
      <trkpt lat="47.541407961398363" lon="18.964641988277435">
        <ele>219.322</ele>
        <time>2010-02-06T20:10:30Z</time>
      </trkpt>
      <trkpt lat="47.541460013017058" lon="18.964612986892462">
        <ele>219.66800000000001</ele>
        <time>2010-02-06T20:10:32Z</time>
      </trkpt>
      <trkpt lat="47.54150896333158" lon="18.964595971629024">
        <ele>218.78200000000001</ele>
        <time>2010-02-06T20:10:34Z</time>
      </trkpt>
      <trkpt lat="47.541557997465134" lon="18.964577028527856">
        <ele>218.88300000000001</ele>
        <time>2010-02-06T20:10:36Z</time>
      </trkpt>
      <trkpt lat="47.541607031598687" lon="18.964556995779276">
        <ele>218.69200000000001</ele>
        <time>2010-02-06T20:10:38Z</time>
      </trkpt>
      <trkpt lat="47.541662016883492" lon="18.964539980515838">
        <ele>218.12</ele>
        <time>2010-02-06T20:10:40Z</time>
      </trkpt>
      <trkpt lat="47.541712978854775" lon="18.964521959424019">
        <ele>218.55699999999999</ele>
        <time>2010-02-06T20:10:42Z</time>
      </trkpt>
      <trkpt lat="47.541760001331568" lon="18.964511984959245">
        <ele>217.78399999999999</ele>
        <time>2010-02-06T20:10:44Z</time>
      </trkpt>
      <trkpt lat="47.541795037686825" lon="18.964507961645722">
        <ele>218.208</ele>
        <time>2010-02-06T20:10:46Z</time>
      </trkpt>
      <trkpt lat="47.541839964687824" lon="18.964515002444386">
        <ele>216.44399999999999</ele>
        <time>2010-02-06T20:10:48Z</time>
      </trkpt>
      <trkpt lat="47.54187198355794" lon="18.964532017707825">
        <ele>215.83600000000001</ele>
        <time>2010-02-06T20:10:50Z</time>
      </trkpt>
      <trkpt lat="47.541886987164617" lon="18.964567976072431">
        <ele>215.715</ele>
        <time>2010-02-06T20:10:53Z</time>
      </trkpt>
      <trkpt lat="47.541897967457771" lon="18.964597983285785">
        <ele>212.94999999999999</ele>
        <time>2010-02-06T20:11:02Z</time>
      </trkpt>
      <trkpt lat="47.541902996599674" lon="18.964671995490789">
        <ele>210.18799999999999</ele>
        <time>2010-02-06T20:11:09Z</time>
      </trkpt>
      <trkpt lat="47.541928980499506" lon="18.964725974947214">
        <ele>210.32499999999999</ele>
        <time>2010-02-06T20:11:11Z</time>
      </trkpt>
      <trkpt lat="47.541960999369621" lon="18.96477903239429">
        <ele>210.38</ele>
        <time>2010-02-06T20:11:14Z</time>
      </trkpt>
      <trkpt lat="47.542012967169285" lon="18.964793030172586">
        <ele>210.43600000000001</ele>
        <time>2010-02-06T20:11:17Z</time>
      </trkpt>
      <trkpt lat="47.542059989646077" lon="18.964780038222671">
        <ele>209.74100000000001</ele>
        <time>2010-02-06T20:11:19Z</time>
      </trkpt>
      <trkpt lat="47.542093014344573" lon="18.964771991595626">
        <ele>209.31800000000001</ele>
        <time>2010-02-06T20:11:21Z</time>
      </trkpt>
      <trkpt lat="47.542131990194321" lon="18.964762017130852">
        <ele>209.666</ele>
        <time>2010-02-06T20:11:24Z</time>
      </trkpt>
      <trkpt lat="47.542150011286139" lon="18.964771991595626">
        <ele>209.18799999999999</ele>
        <time>2010-02-06T20:11:29Z</time>
      </trkpt>
      <trkpt lat="47.542175995185971" lon="18.964915992692113">
        <ele>209.589</ele>
        <time>2010-02-06T20:11:36Z</time>
      </trkpt>
      <trkpt lat="47.542177001014352" lon="18.965010037645698">
        <ele>209.17400000000001</ele>
        <time>2010-02-06T20:11:39Z</time>
      </trkpt>
      <trkpt lat="47.542198039591312" lon="18.965081032365561">
        <ele>209.65799999999999</ele>
        <time>2010-02-06T20:11:43Z</time>
      </trkpt>
      <trkpt lat="47.542198961600661" lon="18.96516602486372">
        <ele>208.86600000000001</ele>
        <time>2010-02-06T20:11:50Z</time>
      </trkpt>
      <trkpt lat="47.542245984077454" lon="18.965207012370229">
        <ele>209.185</ele>
        <time>2010-02-06T20:11:53Z</time>
      </trkpt>
      <trkpt lat="47.54228001460433" lon="18.965246994048357">
        <ele>208.17599999999999</ele>
        <time>2010-02-06T20:11:56Z</time>
      </trkpt>
      <trkpt lat="47.542289989069104" lon="18.965301979333162">
        <ele>208.75399999999999</ele>
        <time>2010-02-06T20:12:00Z</time>
      </trkpt>
      <trkpt lat="47.542303986847401" lon="18.965355958789587">
        <ele>208.708</ele>
        <time>2010-02-06T20:12:03Z</time>
      </trkpt>
      <trkpt lat="47.542303986847401" lon="18.965415973216295">
        <ele>208.661</ele>
        <time>2010-02-06T20:12:06Z</time>
      </trkpt>
      <trkpt lat="47.542313039302826" lon="18.965470958501101">
        <ele>208.495</ele>
        <time>2010-02-06T20:12:09Z</time>
      </trkpt>
      <trkpt lat="47.542317984625697" lon="18.965542959049344">
        <ele>208.59200000000001</ele>
        <time>2010-02-06T20:12:12Z</time>
      </trkpt>
      <trkpt lat="47.542318990454078" lon="18.965610014274716">
        <ele>209.08600000000001</ele>
        <time>2010-02-06T20:12:15Z</time>
      </trkpt>
      <trkpt lat="47.542331982403994" lon="18.965666005387902">
        <ele>208.09100000000001</ele>
        <time>2010-02-06T20:12:18Z</time>
      </trkpt>
      <trkpt lat="47.542322007939219" lon="18.965743035078049">
        <ele>207.77199999999999</ele>
        <time>2010-02-06T20:12:21Z</time>
      </trkpt>
      <trkpt lat="47.542331982403994" lon="18.965801037847996">
        <ele>207.48099999999999</ele>
        <time>2010-02-06T20:12:25Z</time>
      </trkpt>
      <trkpt lat="47.542321002110839" lon="18.965857028961182">
        <ele>207.78299999999999</ele>
        <time>2010-02-06T20:12:30Z</time>
      </trkpt>
      <trkpt lat="47.54230298101902" lon="18.965878989547491">
        <ele>206.755</ele>
        <time>2010-02-06T20:12:34Z</time>
      </trkpt>
      <trkpt lat="47.542299041524529" lon="18.965930035337806">
        <ele>207.459</ele>
        <time>2010-02-06T20:12:38Z</time>
      </trkpt>
      <trkpt lat="47.542295018211007" lon="18.96598401479423">
        <ele>207.114</ele>
        <time>2010-02-06T20:12:42Z</time>
      </trkpt>
      <trkpt lat="47.542293006554246" lon="18.966023996472359">
        <ele>208.005</ele>
        <time>2010-02-06T20:12:46Z</time>
      </trkpt>
      <trkpt lat="47.542268028482795" lon="18.966060038655996">
        <ele>208.17699999999999</ele>
        <time>2010-02-06T20:12:50Z</time>
      </trkpt>
      <trkpt lat="47.542283032089472" lon="18.966120975092053">
        <ele>208.59800000000001</ele>
        <time>2010-02-06T20:12:55Z</time>
      </trkpt>
      <trkpt lat="47.542317984625697" lon="18.966170009225607">
        <ele>209.03</ele>
        <time>2010-02-06T20:12:59Z</time>
      </trkpt>
      <trkpt lat="47.54236601293087" lon="18.966189036145806">
        <ele>209.53100000000001</ele>
        <time>2010-02-06T20:13:04Z</time>
      </trkpt>
      <trkpt lat="47.542428961023688" lon="18.966227006167173">
        <ele>210.899</ele>
        <time>2010-02-06T20:13:09Z</time>
      </trkpt>
      <trkpt lat="47.542483024299145" lon="18.966244021430612">
        <ele>211.44200000000001</ele>
        <time>2010-02-06T20:13:13Z</time>
      </trkpt>
      <trkpt lat="47.542526023462415" lon="18.966293977573514">
        <ele>211.84299999999999</ele>
        <time>2010-02-06T20:13:17Z</time>
      </trkpt>
      <trkpt lat="47.542567010968924" lon="18.966313004493713">
        <ele>212.62200000000001</ele>
        <time>2010-02-06T20:13:21Z</time>
      </trkpt>
      <trkpt lat="47.5426010414958" lon="18.966334965080023">
        <ele>213.06</ele>
        <time>2010-02-06T20:13:25Z</time>
      </trkpt>
      <trkpt lat="47.542618978768587" lon="18.966363966464996">
        <ele>213.755</ele>
        <time>2010-02-06T20:13:29Z</time>
      </trkpt>
      <trkpt lat="47.542634988203645" lon="18.966407971456647">
        <ele>214.77699999999999</ele>
        <time>2010-02-06T20:13:33Z</time>
      </trkpt>
      <trkpt lat="47.542662983760238" lon="18.96643303334713">
        <ele>216.642</ele>
        <time>2010-02-06T20:13:38Z</time>
      </trkpt>
      <trkpt lat="47.542678993195295" lon="18.966477960348129">
        <ele>218.71000000000001</ele>
        <time>2010-02-06T20:13:42Z</time>
      </trkpt>
      <trkpt lat="47.54271000623703" lon="18.966528000310063">
        <ele>220.23699999999999</ele>
        <time>2010-02-06T20:13:47Z</time>
      </trkpt>
      <trkpt lat="47.542726015672088" lon="18.966581979766488">
        <ele>221.41300000000001</ele>
        <time>2010-02-06T20:13:51Z</time>
      </trkpt>
      <trkpt lat="47.542741019278765" lon="18.966650040820241">
        <ele>221.846</ele>
        <time>2010-02-06T20:13:55Z</time>
      </trkpt>
      <trkpt lat="47.542786030098796" lon="18.966684993356466">
        <ele>222.00700000000001</ele>
        <time>2010-02-06T20:13:59Z</time>
      </trkpt>
      <trkpt lat="47.542842021211982" lon="18.966720029711723">
        <ele>222.428</ele>
        <time>2010-02-06T20:14:03Z</time>
      </trkpt>
      <trkpt lat="47.542898012325168" lon="18.966723969206214">
        <ele>223.41399999999999</ele>
        <time>2010-02-06T20:14:06Z</time>
      </trkpt>
      <trkpt lat="47.542929025366902" lon="18.966764034703374">
        <ele>223.489</ele>
        <time>2010-02-06T20:14:09Z</time>
      </trkpt>
      <trkpt lat="47.542940005660057" lon="18.966837963089347">
        <ele>224.11699999999999</ele>
        <time>2010-02-06T20:14:13Z</time>
      </trkpt>
      <trkpt lat="47.542978981509805" lon="18.966896971687675">
        <ele>223.69300000000001</ele>
        <time>2010-02-06T20:14:17Z</time>
      </trkpt>
      <trkpt lat="47.543003959581256" lon="18.966963021084666">
        <ele>225.60599999999999</ele>
        <time>2010-02-06T20:14:22Z</time>
      </trkpt>
      <trkpt lat="47.54303396679461" lon="18.966989004984498">
        <ele>227.03</ele>
        <time>2010-02-06T20:14:25Z</time>
      </trkpt>
      <trkpt lat="47.543089035898447" lon="18.966983975842595">
        <ele>228.673</ele>
        <time>2010-02-06T20:14:28Z</time>
      </trkpt>
      <trkpt lat="47.543098004534841" lon="18.967019012197852">
        <ele>229.45699999999999</ele>
        <time>2010-02-06T20:14:32Z</time>
      </trkpt>
      <trkpt lat="47.543126000091434" lon="18.967081038281322">
        <ele>228.59899999999999</ele>
        <time>2010-02-06T20:14:35Z</time>
      </trkpt>
      <trkpt lat="47.54316296428442" lon="18.967128982767463">
        <ele>230.72</ele>
        <time>2010-02-06T20:14:38Z</time>
      </trkpt>
      <trkpt lat="47.543210992589593" lon="18.96718799136579">
        <ele>230.91300000000001</ele>
        <time>2010-02-06T20:14:42Z</time>
      </trkpt>
      <trkpt lat="47.543239993974566" lon="18.96725001744926">
        <ele>231.36600000000001</ele>
        <time>2010-02-06T20:14:48Z</time>
      </trkpt>
      <trkpt lat="47.543257009238005" lon="18.967321012169123">
        <ele>231.078</ele>
        <time>2010-02-06T20:14:53Z</time>
      </trkpt>
      <trkpt lat="47.543283998966217" lon="18.967369962483644">
        <ele>232.46000000000001</ele>
        <time>2010-02-06T20:14:57Z</time>
      </trkpt>
      <trkpt lat="47.5433349609375" lon="18.967439029365778">
        <ele>233.37799999999999</ele>
        <time>2010-02-06T20:15:03Z</time>
      </trkpt>
      <trkpt lat="47.543393969535828" lon="18.967512035742402">
        <ele>236.553</ele>
        <time>2010-02-06T20:15:10Z</time>
      </trkpt>
      <trkpt lat="47.543422970920801" lon="18.967578001320362">
        <ele>237.357</ele>
        <time>2010-02-06T20:15:15Z</time>
      </trkpt>
      <trkpt lat="47.543450966477394" lon="18.967604991048574">
        <ele>237.846</ele>
        <time>2010-02-06T20:15:18Z</time>
      </trkpt>
      <trkpt lat="47.543491031974554" lon="18.967651007696986">
        <ele>237.85400000000001</ele>
        <time>2010-02-06T20:15:22Z</time>
      </trkpt>
      <trkpt lat="47.543520033359528" lon="18.967699036002159">
        <ele>238.458</ele>
        <time>2010-02-06T20:15:25Z</time>
      </trkpt>
      <trkpt lat="47.543536964803934" lon="18.967731976881623">
        <ele>239.68799999999999</ele>
        <time>2010-02-06T20:15:29Z</time>
      </trkpt>
      <trkpt lat="47.54356998950243" lon="18.967784028500319">
        <ele>241.12</ele>
        <time>2010-02-06T20:15:32Z</time>
      </trkpt>
      <trkpt lat="47.543627992272377" lon="18.967825016006827">
        <ele>241.91300000000001</ele>
        <time>2010-02-06T20:15:35Z</time>
      </trkpt>
      <trkpt lat="47.543671997264028" lon="18.967855023220181">
        <ele>242.273</ele>
        <time>2010-02-06T20:15:39Z</time>
      </trkpt>
      <trkpt lat="47.543712984770536" lon="18.967876983806491">
        <ele>243.964</ele>
        <time>2010-02-06T20:15:43Z</time>
      </trkpt>
      <trkpt lat="47.543780039995909" lon="18.967881007120013">
        <ele>243.547</ele>
        <time>2010-02-06T20:15:47Z</time>
      </trkpt>
      <trkpt lat="47.543840976431966" lon="18.967893999069929">
        <ele>243.54400000000001</ele>
        <time>2010-02-06T20:15:51Z</time>
      </trkpt>
      <trkpt lat="47.543915994465351" lon="18.96791503764689">
        <ele>244.66</ele>
        <time>2010-02-06T20:15:57Z</time>
      </trkpt>
      <trkpt lat="47.543937033042312" lon="18.967947978526354">
        <ele>246.87100000000001</ele>
        <time>2010-02-06T20:16:03Z</time>
      </trkpt>
      <trkpt lat="47.543989000841975" lon="18.967976979911327">
        <ele>247.93700000000001</ele>
        <time>2010-02-06T20:16:08Z</time>
      </trkpt>
      <trkpt lat="47.544058989733458" lon="18.96798200905323">
        <ele>247.53999999999999</ele>
        <time>2010-02-06T20:16:13Z</time>
      </trkpt>
      <trkpt lat="47.544127972796559" lon="18.967985026538372">
        <ele>248.482</ele>
        <time>2010-02-06T20:16:17Z</time>
      </trkpt>
      <trkpt lat="47.54417197778821" lon="18.968027019873261">
        <ele>248.61699999999999</ele>
        <time>2010-02-06T20:16:21Z</time>
      </trkpt>
      <trkpt lat="47.544212965294719" lon="18.968053003773093">
        <ele>250.36000000000001</ele>
        <time>2010-02-06T20:16:25Z</time>
      </trkpt>
      <trkpt lat="47.54423500970006" lon="18.968096002936363">
        <ele>250.66499999999999</ele>
        <time>2010-02-06T20:16:29Z</time>
      </trkpt>
      <trkpt lat="47.544260993599892" lon="18.968137996271253">
        <ele>251.23500000000001</ele>
        <time>2010-02-06T20:16:34Z</time>
      </trkpt>
      <trkpt lat="47.544310027733445" lon="18.968162974342704">
        <ele>251.45599999999999</ele>
        <time>2010-02-06T20:16:38Z</time>
      </trkpt>
      <trkpt lat="47.544326959177852" lon="18.968207985162735">
        <ele>251.548</ele>
        <time>2010-02-06T20:16:42Z</time>
      </trkpt>
      <trkpt lat="47.544369958341122" lon="18.968246039003134">
        <ele>252.76900000000001</ele>
        <time>2010-02-06T20:16:47Z</time>
      </trkpt>
      <trkpt lat="47.544413963332772" lon="18.968334970995784">
        <ele>251.964</ele>
        <time>2010-02-06T20:16:51Z</time>
      </trkpt>
      <trkpt lat="47.544443970546126" lon="18.968377970159054">
        <ele>252.864</ele>
        <time>2010-02-06T20:16:54Z</time>
      </trkpt>
      <trkpt lat="47.544446988031268" lon="18.968465980142355">
        <ele>252.61799999999999</ele>
        <time>2010-02-06T20:16:58Z</time>
      </trkpt>
      <trkpt lat="47.544458974152803" lon="18.968511996790767">
        <ele>254.767</ele>
        <time>2010-02-06T20:17:02Z</time>
      </trkpt>
      <trkpt lat="47.544471966102719" lon="18.968552984297276">
        <ele>256.39699999999999</ele>
        <time>2010-02-06T20:17:06Z</time>
      </trkpt>
      <trkpt lat="47.544485963881016" lon="18.968595983460546">
        <ele>257.23899999999998</ele>
        <time>2010-02-06T20:17:10Z</time>
      </trkpt>
      <trkpt lat="47.544487975537777" lon="18.968688016757369">
        <ele>256.98000000000002</ele>
        <time>2010-02-06T20:17:14Z</time>
      </trkpt>
      <trkpt lat="47.544495016336441" lon="18.968789018690586">
        <ele>257.49400000000003</ele>
        <time>2010-02-06T20:17:18Z</time>
      </trkpt>
      <trkpt lat="47.544491998851299" lon="18.9688849914819">
        <ele>257.88</ele>
        <time>2010-02-06T20:17:22Z</time>
      </trkpt>
      <trkpt lat="47.54449300467968" lon="18.968934025615454">
        <ele>257.85399999999998</ele>
        <time>2010-02-06T20:17:25Z</time>
      </trkpt>
      <trkpt lat="47.544474983587861" lon="18.968992028385401">
        <ele>260.68000000000001</ele>
        <time>2010-02-06T20:17:30Z</time>
      </trkpt>
      <trkpt lat="47.544475989416242" lon="18.969036033377051">
        <ele>261.15899999999999</ele>
        <time>2010-02-06T20:17:34Z</time>
      </trkpt>
      <trkpt lat="47.544479006901383" lon="18.969093030318618">
        <ele>261.68400000000003</ele>
        <time>2010-02-06T20:17:38Z</time>
      </trkpt>
      <trkpt lat="47.544491998851299" lon="18.969181962311268">
        <ele>262.63600000000002</ele>
        <time>2010-02-06T20:17:42Z</time>
      </trkpt>
      <trkpt lat="47.544518988579512" lon="18.969238037243485">
        <ele>262.88099999999997</ele>
        <time>2010-02-06T20:17:46Z</time>
      </trkpt>
      <trkpt lat="47.544513959437609" lon="18.969301991164684">
        <ele>263.755</ele>
        <time>2010-02-06T20:17:49Z</time>
      </trkpt>
      <trkpt lat="47.544495016336441" lon="18.969379020854831">
        <ele>263.85899999999998</ele>
        <time>2010-02-06T20:17:53Z</time>
      </trkpt>
      <trkpt lat="47.544499961659312" lon="18.969448003917933">
        <ele>264.82100000000003</ele>
        <time>2010-02-06T20:17:57Z</time>
      </trkpt>
      <trkpt lat="47.544500967487693" lon="18.969509024173021">
        <ele>265.53800000000001</ele>
        <time>2010-02-06T20:18:01Z</time>
      </trkpt>
      <trkpt lat="47.544490993022919" lon="18.969565015286207">
        <ele>267.286</ele>
        <time>2010-02-06T20:18:06Z</time>
      </trkpt>
      <trkpt lat="47.544500967487693" lon="18.96965503692627">
        <ele>268.86700000000002</ele>
        <time>2010-02-06T20:18:12Z</time>
      </trkpt>
      <trkpt lat="47.544502979144454" lon="18.969762995839119">
        <ele>270.29399999999998</ele>
        <time>2010-02-06T20:18:18Z</time>
      </trkpt>
      <trkpt lat="47.544505996629596" lon="18.969836002215743">
        <ele>270.733</ele>
        <time>2010-02-06T20:18:22Z</time>
      </trkpt>
      <trkpt lat="47.544512031599879" lon="18.969918983057141">
        <ele>270.84100000000001</ele>
        <time>2010-02-06T20:18:26Z</time>
      </trkpt>
      <trkpt lat="47.544529968872666" lon="18.969988971948624">
        <ele>271.56700000000001</ele>
        <time>2010-02-06T20:18:30Z</time>
      </trkpt>
      <trkpt lat="47.544550001621246" lon="18.970054015517235">
        <ele>271.834</ele>
        <time>2010-02-06T20:18:34Z</time>
      </trkpt>
      <trkpt lat="47.544561987742782" lon="18.970144959166646">
        <ele>273.21899999999999</ele>
        <time>2010-02-06T20:18:39Z</time>
      </trkpt>
      <trkpt lat="47.544574979692698" lon="18.97021796554327">
        <ele>274.70699999999999</ele>
        <time>2010-02-06T20:18:43Z</time>
      </trkpt>
      <trkpt lat="47.544597024098039" lon="18.970303041860461">
        <ele>274.31400000000002</ele>
        <time>2010-02-06T20:18:47Z</time>
      </trkpt>
      <trkpt lat="47.544608004391193" lon="18.970360038802028">
        <ele>275.41399999999999</ele>
        <time>2010-02-06T20:18:50Z</time>
      </trkpt>
      <trkpt lat="47.544615967199206" lon="18.970433967188001">
        <ele>275.16199999999998</ele>
        <time>2010-02-06T20:18:54Z</time>
      </trkpt>
      <trkpt lat="47.544628037139773" lon="18.970494987443089">
        <ele>275.899</ele>
        <time>2010-02-06T20:18:58Z</time>
      </trkpt>
      <trkpt lat="47.544649997726083" lon="18.970558019354939">
        <ele>276.25700000000001</ele>
        <time>2010-02-06T20:19:03Z</time>
      </trkpt>
      <trkpt lat="47.544673969969153" lon="18.970618033781648">
        <ele>276.49900000000002</ele>
        <time>2010-02-06T20:19:07Z</time>
      </trkpt>
      <trkpt lat="47.544704983010888" lon="18.970659021288157">
        <ele>276.38499999999999</ele>
        <time>2010-02-06T20:19:10Z</time>
      </trkpt>
      <trkpt lat="47.544734990224242" lon="18.970700008794665">
        <ele>275.71600000000001</ele>
        <time>2010-02-06T20:19:13Z</time>
      </trkpt>
      <trkpt lat="47.544757034629583" lon="18.97075398825109">
        <ele>276.19200000000001</ele>
        <time>2010-02-06T20:19:16Z</time>
      </trkpt>
      <trkpt lat="47.544763991609216" lon="18.970822971314192">
        <ele>276.28300000000002</ele>
        <time>2010-02-06T20:19:19Z</time>
      </trkpt>
      <trkpt lat="47.544769020751119" lon="18.970897989347577">
        <ele>276.43799999999999</ele>
        <time>2010-02-06T20:19:23Z</time>
      </trkpt>
      <trkpt lat="47.544806990772486" lon="18.970951968804002">
        <ele>276.54899999999998</ele>
        <time>2010-02-06T20:19:27Z</time>
      </trkpt>
      <trkpt lat="47.544826017692685" lon="18.97103201597929">
        <ele>276.214</ele>
        <time>2010-02-06T20:19:31Z</time>
      </trkpt>
      <trkpt lat="47.544852001592517" lon="18.971078032627702">
        <ele>276.18299999999999</ele>
        <time>2010-02-06T20:19:34Z</time>
      </trkpt>
      <trkpt lat="47.54485996440053" lon="18.971165036782622">
        <ele>275.95699999999999</ele>
        <time>2010-02-06T20:19:38Z</time>
      </trkpt>
      <trkpt lat="47.54487999714911" lon="18.971229996532202">
        <ele>275.59899999999999</ele>
        <time>2010-02-06T20:19:41Z</time>
      </trkpt>
      <trkpt lat="47.54490002989769" lon="18.971293028444052">
        <ele>275.34399999999999</ele>
        <time>2010-02-06T20:19:44Z</time>
      </trkpt>
      <trkpt lat="47.544930959120393" lon="18.971348013728857">
        <ele>274.89100000000002</ele>
        <time>2010-02-06T20:19:47Z</time>
      </trkpt>
      <trkpt lat="47.544969012960792" lon="18.971411967650056">
        <ele>274.57799999999997</ele>
        <time>2010-02-06T20:19:50Z</time>
      </trkpt>
      <trkpt lat="47.544988039880991" lon="18.971492014825344">
        <ele>274.95400000000001</ele>
        <time>2010-02-06T20:19:54Z</time>
      </trkpt>
      <trkpt lat="47.544997008517385" lon="18.971568960696459">
        <ele>275.279</ele>
        <time>2010-02-06T20:19:58Z</time>
      </trkpt>
      <trkpt lat="47.545017963275313" lon="18.971638027578592">
        <ele>275.14499999999998</ele>
        <time>2010-02-06T20:20:02Z</time>
      </trkpt>
      <trkpt lat="47.545045036822557" lon="18.971691001206636">
        <ele>275.59800000000001</ele>
        <time>2010-02-06T20:20:05Z</time>
      </trkpt>
      <trkpt lat="47.545070014894009" lon="18.971758978441358">
        <ele>275.46100000000001</ele>
        <time>2010-02-06T20:20:09Z</time>
      </trkpt>
      <trkpt lat="47.54507202655077" lon="18.971816981211305">
        <ele>275.35599999999999</ele>
        <time>2010-02-06T20:20:13Z</time>
      </trkpt>
      <trkpt lat="47.54505199380219" lon="18.971839025616646">
        <ele>275.01999999999998</ele>
        <time>2010-02-06T20:20:16Z</time>
      </trkpt>
      <trkpt lat="47.545031039044261" lon="18.971870960667729">
        <ele>275.846</ele>
        <time>2010-02-06T20:20:19Z</time>
      </trkpt>
      <trkpt lat="47.545019974932075" lon="18.971939021721482">
        <ele>276.89499999999998</ele>
        <time>2010-02-06T20:20:23Z</time>
      </trkpt>
      <trkpt lat="47.545015029609203" lon="18.972012028098106">
        <ele>279.101</ele>
        <time>2010-02-06T20:20:27Z</time>
      </trkpt>
      <trkpt lat="47.545004971325397" lon="18.972086040303111">
        <ele>279.791</ele>
        <time>2010-02-06T20:20:32Z</time>
      </trkpt>
      <trkpt lat="47.545002037659287" lon="18.972139013931155">
        <ele>280.12200000000001</ele>
        <time>2010-02-06T20:20:35Z</time>
      </trkpt>
      <trkpt lat="47.544992985203862" lon="18.972206991165876">
        <ele>280.87700000000001</ele>
        <time>2010-02-06T20:20:40Z</time>
      </trkpt>
      <trkpt lat="47.544959038496017" lon="18.972246972844005">
        <ele>282.613</ele>
        <time>2010-02-06T20:20:44Z</time>
      </trkpt>
      <trkpt lat="47.544933976605535" lon="18.972282009199262">
        <ele>283.08800000000002</ele>
        <time>2010-02-06T20:20:48Z</time>
      </trkpt>
      <trkpt lat="47.544907992705703" lon="18.972324002534151">
        <ele>284.05200000000002</ele>
        <time>2010-02-06T20:20:51Z</time>
      </trkpt>
      <trkpt lat="47.544882008805871" lon="18.972357027232647">
        <ele>285.51499999999999</ele>
        <time>2010-02-06T20:20:54Z</time>
      </trkpt>
      <trkpt lat="47.544871028512716" lon="18.972396003082395">
        <ele>286.01900000000001</ele>
        <time>2010-02-06T20:20:57Z</time>
      </trkpt>
      <trkpt lat="47.544840015470982" lon="18.972440008074045">
        <ele>286.512</ele>
        <time>2010-02-06T20:21:03Z</time>
      </trkpt>
      <trkpt lat="47.544764997437596" lon="18.972522988915443">
        <ele>286.447</ele>
        <time>2010-02-06T20:21:11Z</time>
      </trkpt>
      <trkpt lat="47.544716969132423" lon="18.972564982250333">
        <ele>287.815</ele>
        <time>2010-02-06T20:21:16Z</time>
      </trkpt>
      <trkpt lat="47.544671036303043" lon="18.97260102443397">
        <ele>289.51100000000002</ele>
        <time>2010-02-06T20:21:21Z</time>
      </trkpt>
      <trkpt lat="47.544647986069322" lon="18.972633965313435">
        <ele>290.02100000000002</ele>
        <time>2010-02-06T20:21:24Z</time>
      </trkpt>
      <trkpt lat="47.544612027704716" lon="18.972695991396904">
        <ele>290.226</ele>
        <time>2010-02-06T20:21:28Z</time>
      </trkpt>
      <trkpt lat="47.544582020491362" lon="18.972715018317103">
        <ele>291.30599999999998</ele>
        <time>2010-02-06T20:21:31Z</time>
      </trkpt>
      <trkpt lat="47.544542960822582" lon="18.972766986116767">
        <ele>291.97500000000002</ele>
        <time>2010-02-06T20:21:36Z</time>
      </trkpt>
      <trkpt lat="47.544502979144454" lon="18.972829012200236">
        <ele>291.70600000000002</ele>
        <time>2010-02-06T20:21:39Z</time>
      </trkpt>
      <trkpt lat="47.544470960274339" lon="18.9728809799999">
        <ele>291.98599999999999</ele>
        <time>2010-02-06T20:21:42Z</time>
      </trkpt>
      <trkpt lat="47.544442964717746" lon="18.972934037446976">
        <ele>292.13200000000001</ele>
        <time>2010-02-06T20:21:46Z</time>
      </trkpt>
      <trkpt lat="47.544393008574843" lon="18.973014000803232">
        <ele>292.738</ele>
        <time>2010-02-06T20:21:52Z</time>
      </trkpt>
      <trkpt lat="47.544370964169502" lon="18.973039984703064">
        <ele>293.11900000000003</ele>
        <time>2010-02-06T20:21:56Z</time>
      </trkpt>
      <trkpt lat="47.544339029118419" lon="18.97309698164463">
        <ele>293.86599999999999</ele>
        <time>2010-02-06T20:22:00Z</time>
      </trkpt>
      <trkpt lat="47.544315978884697" lon="18.973130006343126">
        <ele>294.48200000000003</ele>
        <time>2010-02-06T20:22:03Z</time>
      </trkpt>
      <trkpt lat="47.544283960014582" lon="18.973198989406228">
        <ele>294.99000000000001</ele>
        <time>2010-02-06T20:22:07Z</time>
      </trkpt>
      <trkpt lat="47.544245989993215" lon="18.973277024924755">
        <ele>296.173</ele>
        <time>2010-02-06T20:22:12Z</time>
      </trkpt>
      <trkpt lat="47.544213971123099" lon="18.973338967189193">
        <ele>296.84399999999999</ele>
        <time>2010-02-06T20:22:16Z</time>
      </trkpt>
      <trkpt lat="47.544180024415255" lon="18.973377021029592">
        <ele>297.51799999999997</ele>
        <time>2010-02-06T20:22:19Z</time>
      </trkpt>
      <trkpt lat="47.544152028858662" lon="18.97343804128468">
        <ele>298.767</ele>
        <time>2010-02-06T20:22:23Z</time>
      </trkpt>
      <trkpt lat="47.544125039130449" lon="18.97348003461957">
        <ele>298.92899999999997</ele>
        <time>2010-02-06T20:22:26Z</time>
      </trkpt>
      <trkpt lat="47.544098971411586" lon="18.97352403961122">
        <ele>298.99000000000001</ele>
        <time>2010-02-06T20:22:29Z</time>
      </trkpt>
      <trkpt lat="47.544071981683373" lon="18.973565027117729">
        <ele>299.22000000000003</ele>
        <time>2010-02-06T20:22:32Z</time>
      </trkpt>
      <trkpt lat="47.544038034975529" lon="18.973614983260632">
        <ele>299.21499999999997</ele>
        <time>2010-02-06T20:22:36Z</time>
      </trkpt>
      <trkpt lat="47.544001992791891" lon="18.973664017394185">
        <ele>299.137</ele>
        <time>2010-02-06T20:22:40Z</time>
      </trkpt>
      <trkpt lat="47.54397802054882" lon="18.973702993243933">
        <ele>300.197</ele>
        <time>2010-02-06T20:22:44Z</time>
      </trkpt>
      <trkpt lat="47.543951030820608" lon="18.973754961043596">
        <ele>299.59500000000003</ele>
        <time>2010-02-06T20:22:47Z</time>
      </trkpt>
      <trkpt lat="47.543930998072028" lon="18.973811035975814">
        <ele>300.01900000000001</ele>
        <time>2010-02-06T20:22:51Z</time>
      </trkpt>
      <trkpt lat="47.543896967545152" lon="18.973857974633574">
        <ele>300.63299999999998</ele>
        <time>2010-02-06T20:22:55Z</time>
      </trkpt>
      <trkpt lat="47.543869977816939" lon="18.973898040130734">
        <ele>300.79199999999997</ele>
        <time>2010-02-06T20:22:58Z</time>
      </trkpt>
      <trkpt lat="47.543841982260346" lon="18.973935004323721">
        <ele>300.12900000000002</ele>
        <time>2010-02-06T20:23:02Z</time>
      </trkpt>
      <trkpt lat="47.543806023895741" lon="18.974010022357106">
        <ele>301.46899999999999</ele>
        <time>2010-02-06T20:23:06Z</time>
      </trkpt>
      <trkpt lat="47.543785991147161" lon="18.974060984328389">
        <ele>300.94499999999999</ele>
        <time>2010-02-06T20:23:09Z</time>
      </trkpt>
      <trkpt lat="47.543742991983891" lon="18.974132984876633">
        <ele>302.02800000000002</ele>
        <time>2010-02-06T20:23:13Z</time>
      </trkpt>
      <trkpt lat="47.543749026954174" lon="18.974243039265275">
        <ele>302.88799999999998</ele>
        <time>2010-02-06T20:23:17Z</time>
      </trkpt>
      <trkpt lat="47.543757995590568" lon="18.974329037591815">
        <ele>302.90499999999997</ele>
        <time>2010-02-06T20:23:20Z</time>
      </trkpt>
      <trkpt lat="47.543769981712103" lon="18.974402965977788">
        <ele>302.84500000000003</ele>
        <time>2010-02-06T20:23:23Z</time>
      </trkpt>
      <trkpt lat="47.543798983097076" lon="18.974460968747735">
        <ele>303.66199999999998</ele>
        <time>2010-02-06T20:23:26Z</time>
      </trkpt>
      <trkpt lat="47.543811975046992" lon="18.974521989002824">
        <ele>303.94400000000002</ele>
        <time>2010-02-06T20:23:29Z</time>
      </trkpt>
      <trkpt lat="47.543837958946824" lon="18.974594995379448">
        <ele>303.74599999999998</ele>
        <time>2010-02-06T20:23:32Z</time>
      </trkpt>
      <trkpt lat="47.5438910163939" lon="18.974613016471267">
        <ele>304.33199999999999</ele>
        <time>2010-02-06T20:23:35Z</time>
      </trkpt>
      <trkpt lat="47.543907025828958" lon="18.974701026454568">
        <ele>304.07499999999999</ele>
        <time>2010-02-06T20:23:39Z</time>
      </trkpt>
      <trkpt lat="47.543927980586886" lon="18.974778978154063">
        <ele>305.27999999999997</ele>
        <time>2010-02-06T20:23:43Z</time>
      </trkpt>
      <trkpt lat="47.543943990021944" lon="18.974834969267249">
        <ele>306.29199999999997</ele>
        <time>2010-02-06T20:23:46Z</time>
      </trkpt>
      <trkpt lat="47.543970979750156" lon="18.974875034764409">
        <ele>307.04500000000002</ele>
        <time>2010-02-06T20:23:49Z</time>
      </trkpt>
      <trkpt lat="47.543991012498736" lon="18.974923985078931">
        <ele>308.05799999999999</ele>
        <time>2010-02-06T20:23:52Z</time>
      </trkpt>
      <trkpt lat="47.544018002226949" lon="18.974988022819161">
        <ele>308.66500000000002</ele>
        <time>2010-02-06T20:23:56Z</time>
      </trkpt>
      <trkpt lat="47.544059995561838" lon="18.975011995062232">
        <ele>309.26799999999997</ele>
        <time>2010-02-06T20:23:59Z</time>
      </trkpt>
      <trkpt lat="47.544072987511754" lon="18.975064968690276">
        <ele>309.34199999999998</ele>
        <time>2010-02-06T20:24:02Z</time>
      </trkpt>
      <trkpt lat="47.544095031917095" lon="18.975112996995449">
        <ele>309.387</ele>
        <time>2010-02-06T20:24:05Z</time>
      </trkpt>
      <trkpt lat="47.544141970574856" lon="18.975149039179087">
        <ele>310.26100000000002</ele>
        <time>2010-02-06T20:24:09Z</time>
      </trkpt>
      <trkpt lat="47.54417298361659" lon="18.975202012807131">
        <ele>311.24700000000001</ele>
        <time>2010-02-06T20:24:13Z</time>
      </trkpt>
      <trkpt lat="47.544188993051648" lon="18.975260015577078">
        <ele>311.64699999999999</ele>
        <time>2010-02-06T20:24:17Z</time>
      </trkpt>
      <trkpt lat="47.544195028021932" lon="18.975321035832167">
        <ele>312.64400000000001</ele>
        <time>2010-02-06T20:24:20Z</time>
      </trkpt>
      <trkpt lat="47.54423601552844" lon="18.975358000025153">
        <ele>312.60899999999998</ele>
        <time>2010-02-06T20:24:24Z</time>
      </trkpt>
      <trkpt lat="47.544254036620259" lon="18.975403010845184">
        <ele>313.726</ele>
        <time>2010-02-06T20:24:27Z</time>
      </trkpt>
      <trkpt lat="47.544280020520091" lon="18.975465036928654">
        <ele>314.23000000000002</ele>
        <time>2010-02-06T20:24:30Z</time>
      </trkpt>
      <trkpt lat="47.544302986934781" lon="18.975514993071556">
        <ele>314.24299999999999</ele>
        <time>2010-02-06T20:24:34Z</time>
      </trkpt>
      <trkpt lat="47.54434104077518" lon="18.975550029426813">
        <ele>314.26999999999998</ele>
        <time>2010-02-06T20:24:39Z</time>
      </trkpt>
      <trkpt lat="47.544339029118419" lon="18.975623035803437">
        <ele>316.101</ele>
        <time>2010-02-06T20:24:43Z</time>
      </trkpt>
      <trkpt lat="47.544350009411573" lon="18.975661005824804">
        <ele>316.68099999999998</ele>
        <time>2010-02-06T20:24:46Z</time>
      </trkpt>
      <trkpt lat="47.544372975826263" lon="18.975699981674552">
        <ele>317.36000000000001</ele>
        <time>2010-02-06T20:24:50Z</time>
      </trkpt>
      <trkpt lat="47.544398037716746" lon="18.975742980837822">
        <ele>316.79000000000002</ele>
        <time>2010-02-06T20:24:54Z</time>
      </trkpt>
      <trkpt lat="47.544413963332772" lon="18.975811963900924">
        <ele>317.86500000000001</ele>
        <time>2010-02-06T20:24:58Z</time>
      </trkpt>
      <trkpt lat="47.54442997276783" lon="18.975897040218115">
        <ele>319.36000000000001</ele>
        <time>2010-02-06T20:25:03Z</time>
      </trkpt>
      <trkpt lat="47.544455034658313" lon="18.975939033553004">
        <ele>320.416</ele>
        <time>2010-02-06T20:25:07Z</time>
      </trkpt>
      <trkpt lat="47.544488981366158" lon="18.975982032716274">
        <ele>321.76100000000002</ele>
        <time>2010-02-06T20:25:11Z</time>
      </trkpt>
      <trkpt lat="47.544523011893034" lon="18.976022014394403">
        <ele>322.70600000000002</ele>
        <time>2010-02-06T20:25:15Z</time>
      </trkpt>
      <trkpt lat="47.54455603659153" lon="18.976055039092898">
        <ele>322.733</ele>
        <time>2010-02-06T20:25:19Z</time>
      </trkpt>
      <trkpt lat="47.544586965814233" lon="18.976086974143982">
        <ele>323.23599999999999</ele>
        <time>2010-02-06T20:25:23Z</time>
      </trkpt>
      <trkpt lat="47.544631976634264" lon="18.976133996620774">
        <ele>324.34699999999998</ele>
        <time>2010-02-06T20:25:28Z</time>
      </trkpt>
      <trkpt lat="47.544648991897702" lon="18.976205997169018">
        <ele>325.63999999999999</ele>
        <time>2010-02-06T20:25:32Z</time>
      </trkpt>
      <trkpt lat="47.544657960534096" lon="18.976269029080868">
        <ele>326.46100000000001</ele>
        <time>2010-02-06T20:25:35Z</time>
      </trkpt>
      <trkpt lat="47.544699031859636" lon="18.976285960525274">
        <ele>327.14999999999998</ele>
        <time>2010-02-06T20:25:38Z</time>
      </trkpt>
      <trkpt lat="47.544726021587849" lon="18.976343963295221">
        <ele>328.33199999999999</ele>
        <time>2010-02-06T20:25:42Z</time>
      </trkpt>
      <trkpt lat="47.544758040457964" lon="18.976395009085536">
        <ele>328.91000000000003</ele>
        <time>2010-02-06T20:25:46Z</time>
      </trkpt>
      <trkpt lat="47.544770026579499" lon="18.976439014077187">
        <ele>329.38799999999998</ele>
        <time>2010-02-06T20:25:50Z</time>
      </trkpt>
      <trkpt lat="47.544777989387512" lon="18.976499028503895">
        <ele>329.93000000000001</ele>
        <time>2010-02-06T20:25:54Z</time>
      </trkpt>
      <trkpt lat="47.544800033792853" lon="18.97655300796032">
        <ele>332.48200000000003</ele>
        <time>2010-02-06T20:25:59Z</time>
      </trkpt>
      <trkpt lat="47.544785030186176" lon="18.976621991023421">
        <ele>332.18799999999999</ele>
        <time>2010-02-06T20:26:02Z</time>
      </trkpt>
      <trkpt lat="47.544753011316061" lon="18.976708995178342">
        <ele>332.65300000000002</ele>
        <time>2010-02-06T20:26:05Z</time>
      </trkpt>
      <trkpt lat="47.544746976345778" lon="18.976737996563315">
        <ele>332.59500000000003</ele>
        <time>2010-02-06T20:26:08Z</time>
      </trkpt>
      <trkpt lat="47.544735996052623" lon="18.976757023483515">
        <ele>332.91800000000001</ele>
        <time>2010-02-06T20:26:11Z</time>
      </trkpt>
      <trkpt lat="47.544721998274326" lon="18.976788958534598">
        <ele>333.38200000000001</ele>
        <time>2010-02-06T20:26:14Z</time>
      </trkpt>
      <trkpt lat="47.544680004939437" lon="18.976801028475165">
        <ele>333.94900000000001</ele>
        <time>2010-02-06T20:26:19Z</time>
      </trkpt>
      <trkpt lat="47.544654021039605" lon="18.976856013759971">
        <ele>334.28500000000003</ele>
        <time>2010-02-06T20:26:23Z</time>
      </trkpt>
      <trkpt lat="47.544632982462645" lon="18.976893983781338">
        <ele>334.89699999999999</ele>
        <time>2010-02-06T20:26:26Z</time>
      </trkpt>
      <trkpt lat="47.54460196942091" lon="18.976946035400033">
        <ele>335.66000000000003</ele>
        <time>2010-02-06T20:26:29Z</time>
      </trkpt>
      <trkpt lat="47.544568022713065" lon="18.976992974057794">
        <ele>335.63799999999998</ele>
        <time>2010-02-06T20:26:32Z</time>
      </trkpt>
      <trkpt lat="47.544539021328092" lon="18.977036979049444">
        <ele>336.20400000000001</ele>
        <time>2010-02-06T20:26:35Z</time>
      </trkpt>
      <trkpt lat="47.544513959437609" lon="18.97704997099936">
        <ele>336.08600000000001</ele>
        <time>2010-02-06T20:26:38Z</time>
      </trkpt>
      <trkpt lat="47.544475989416242" lon="18.97709297016263">
        <ele>336.92599999999999</ele>
        <time>2010-02-06T20:26:43Z</time>
      </trkpt>
      <trkpt lat="47.544428966939449" lon="18.977137980982661">
        <ele>337.87799999999999</ele>
        <time>2010-02-06T20:26:47Z</time>
      </trkpt>
      <trkpt lat="47.544394014403224" lon="18.977167988196015">
        <ele>337.31900000000002</ele>
        <time>2010-02-06T20:26:50Z</time>
      </trkpt>
      <trkpt lat="47.544352021068335" lon="18.977197995409369">
        <ele>338.08199999999999</ele>
        <time>2010-02-06T20:26:54Z</time>
      </trkpt>
      <trkpt lat="47.544310027733445" lon="18.977206964045763">
        <ele>338.82299999999998</ele>
        <time>2010-02-06T20:26:57Z</time>
      </trkpt>
      <trkpt lat="47.544281026348472" lon="18.977234959602356">
        <ele>339.077</ele>
        <time>2010-02-06T20:27:00Z</time>
      </trkpt>
      <trkpt lat="47.544253030791879" lon="18.977278964594007">
        <ele>340.661</ele>
        <time>2010-02-06T20:27:03Z</time>
      </trkpt>
      <trkpt lat="47.544223023578525" lon="18.977310983464122">
        <ele>341.26799999999997</ele>
        <time>2010-02-06T20:27:06Z</time>
      </trkpt>
      <trkpt lat="47.54419201053679" lon="18.977354988455772">
        <ele>342.22000000000003</ele>
        <time>2010-02-06T20:27:09Z</time>
      </trkpt>
      <trkpt lat="47.544151023030281" lon="18.977423971518874">
        <ele>342.30099999999999</ele>
        <time>2010-02-06T20:27:14Z</time>
      </trkpt>
      <trkpt lat="47.544113975018263" lon="18.977463031187654">
        <ele>342.07600000000002</ele>
        <time>2010-02-06T20:27:17Z</time>
      </trkpt>
      <trkpt lat="47.544080028310418" lon="18.97749999538064">
        <ele>342.71800000000002</ele>
        <time>2010-02-06T20:27:20Z</time>
      </trkpt>
      <trkpt lat="47.544037029147148" lon="18.977548023685813">
        <ele>343.07600000000002</ele>
        <time>2010-02-06T20:27:24Z</time>
      </trkpt>
      <trkpt lat="47.543996041640639" lon="18.977594040334225">
        <ele>344.12200000000001</ele>
        <time>2010-02-06T20:27:27Z</time>
      </trkpt>
      <trkpt lat="47.543967962265015" lon="18.97764902561903">
        <ele>344.584</ele>
        <time>2010-02-06T20:27:30Z</time>
      </trkpt>
      <trkpt lat="47.543940972536802" lon="18.977689007297158">
        <ele>344.37599999999998</ele>
        <time>2010-02-06T20:27:33Z</time>
      </trkpt>
      <trkpt lat="47.543918006122112" lon="18.977726977318525">
        <ele>344.85700000000003</ele>
        <time>2010-02-06T20:27:37Z</time>
      </trkpt>
      <trkpt lat="47.543880036100745" lon="18.977779028937221">
        <ele>345.71499999999997</ele>
        <time>2010-02-06T20:27:41Z</time>
      </trkpt>
      <trkpt lat="47.543846005573869" lon="18.977836025878787">
        <ele>345.358</ele>
        <time>2010-02-06T20:27:45Z</time>
      </trkpt>
      <trkpt lat="47.543824966996908" lon="18.977890005335212">
        <ele>345.721</ele>
        <time>2010-02-06T20:27:49Z</time>
      </trkpt>
      <trkpt lat="47.543800994753838" lon="18.977981032803655">
        <ele>346.36399999999998</ele>
        <time>2010-02-06T20:27:53Z</time>
      </trkpt>
      <trkpt lat="47.543793031945825" lon="18.978064013645053">
        <ele>346.15300000000002</ele>
        <time>2010-02-06T20:27:58Z</time>
      </trkpt>
      <trkpt lat="47.543780962005258" lon="18.978149006143212">
        <ele>346.74400000000003</ele>
        <time>2010-02-06T20:28:02Z</time>
      </trkpt>
      <trkpt lat="47.543779034167528" lon="18.978222012519836">
        <ele>348.108</ele>
        <time>2010-02-06T20:28:06Z</time>
      </trkpt>
      <trkpt lat="47.543766964226961" lon="18.978276997804642">
        <ele>349.55799999999999</ele>
        <time>2010-02-06T20:28:11Z</time>
      </trkpt>
      <trkpt lat="47.543755983933806" lon="18.978355033323169">
        <ele>350.12900000000002</ele>
        <time>2010-02-06T20:28:15Z</time>
      </trkpt>
      <trkpt lat="47.543756989762187" lon="18.97844597697258">
        <ele>351.197</ele>
        <time>2010-02-06T20:28:20Z</time>
      </trkpt>
      <trkpt lat="47.543746009469032" lon="18.978519989177585">
        <ele>350.95499999999998</ele>
        <time>2010-02-06T20:28:23Z</time>
      </trkpt>
      <trkpt lat="47.543732011690736" lon="18.978613028302789">
        <ele>351.03899999999999</ele>
        <time>2010-02-06T20:28:27Z</time>
      </trkpt>
      <trkpt lat="47.543737040832639" lon="18.978683017194271">
        <ele>351.65699999999998</ele>
        <time>2010-02-06T20:28:31Z</time>
      </trkpt>
      <trkpt lat="47.543732011690736" lon="18.978774966672063">
        <ele>351.89100000000002</ele>
        <time>2010-02-06T20:28:36Z</time>
      </trkpt>
      <trkpt lat="47.543737962841988" lon="18.978849984705448">
        <ele>352.52100000000002</ele>
        <time>2010-02-06T20:28:40Z</time>
      </trkpt>
      <trkpt lat="47.543749026954174" lon="18.978914022445679">
        <ele>352.68099999999998</ele>
        <time>2010-02-06T20:28:43Z</time>
      </trkpt>
      <trkpt lat="47.543763024732471" lon="18.978973031044006">
        <ele>353.27999999999997</ele>
        <time>2010-02-06T20:28:47Z</time>
      </trkpt>
      <trkpt lat="47.543785991147161" lon="18.979035979136825">
        <ele>353.58199999999999</ele>
        <time>2010-02-06T20:28:52Z</time>
      </trkpt>
      <trkpt lat="47.543786996975541" lon="18.979113008826971">
        <ele>354.37799999999999</ele>
        <time>2010-02-06T20:28:56Z</time>
      </trkpt>
      <trkpt lat="47.543812980875373" lon="18.979163970798254">
        <ele>354.83600000000001</ele>
        <time>2010-02-06T20:29:00Z</time>
      </trkpt>
      <trkpt lat="47.543820021674037" lon="18.979237983003259">
        <ele>355.60300000000001</ele>
        <time>2010-02-06T20:29:04Z</time>
      </trkpt>
      <trkpt lat="47.543813986703753" lon="18.979314006865025">
        <ele>355.34399999999999</ele>
        <time>2010-02-06T20:29:07Z</time>
      </trkpt>
      <trkpt lat="47.543834019452333" lon="18.979379972442985">
        <ele>355.87900000000002</ele>
        <time>2010-02-06T20:29:11Z</time>
      </trkpt>
      <trkpt lat="47.543871989473701" lon="18.979439986869693">
        <ele>356.77199999999999</ele>
        <time>2010-02-06T20:29:15Z</time>
      </trkpt>
      <trkpt lat="47.543895039707422" lon="18.979478040710092">
        <ele>356.38499999999999</ele>
        <time>2010-02-06T20:29:18Z</time>
      </trkpt>
      <trkpt lat="47.543909037485719" lon="18.979548029601574">
        <ele>356.505</ele>
        <time>2010-02-06T20:29:22Z</time>
      </trkpt>
      <trkpt lat="47.543952958658338" lon="18.97958499379456">
        <ele>356.74400000000003</ele>
        <time>2010-02-06T20:29:26Z</time>
      </trkpt>
      <trkpt lat="47.544013978913426" lon="18.97960796020925">
        <ele>357.76999999999998</ele>
        <time>2010-02-06T20:29:30Z</time>
      </trkpt>
      <trkpt lat="47.544048009440303" lon="18.979661017656326">
        <ele>358.34300000000002</ele>
        <time>2010-02-06T20:29:35Z</time>
      </trkpt>
      <trkpt lat="47.544083967804909" lon="18.979706028476357">
        <ele>359.06299999999999</ele>
        <time>2010-02-06T20:29:40Z</time>
      </trkpt>
      <trkpt lat="47.544157980009913" lon="18.979705022647977">
        <ele>360.25200000000001</ele>
        <time>2010-02-06T20:29:46Z</time>
      </trkpt>
      <trkpt lat="47.54421598277986" lon="18.979679038748145">
        <ele>356.07900000000001</ele>
        <time>2010-02-06T20:29:52Z</time>
      </trkpt>
      <trkpt lat="47.544245989993215" lon="18.97973301820457">
        <ele>362.11700000000002</ele>
        <time>2010-02-06T20:29:58Z</time>
      </trkpt>
      <trkpt lat="47.5443019811064" lon="18.979732012376189">
        <ele>363.16399999999999</ele>
        <time>2010-02-06T20:30:04Z</time>
      </trkpt>
      <trkpt lat="47.5443210080266" lon="18.979809964075685">
        <ele>365.24700000000001</ele>
        <time>2010-02-06T20:30:11Z</time>
      </trkpt>
      <trkpt lat="47.544355038553476" lon="18.979826979339123">
        <ele>366.14299999999997</ele>
        <time>2010-02-06T20:30:16Z</time>
      </trkpt>
      <trkpt lat="47.544385967776179" lon="18.979875007644296">
        <ele>367.25999999999999</ele>
        <time>2010-02-06T20:30:21Z</time>
      </trkpt>
      <trkpt lat="47.544432990252972" lon="18.979913983494043">
        <ele>369.26499999999999</ele>
        <time>2010-02-06T20:30:28Z</time>
      </trkpt>
      <trkpt lat="47.544521000236273" lon="18.979957988485694">
        <ele>372.52300000000002</ele>
        <time>2010-02-06T20:30:37Z</time>
      </trkpt>
      <trkpt lat="47.544554024934769" lon="18.980015991255641">
        <ele>373.05900000000003</ele>
        <time>2010-02-06T20:30:42Z</time>
      </trkpt>
      <trkpt lat="47.544565005227923" lon="18.980087991803885">
        <ele>373.05500000000001</ele>
        <time>2010-02-06T20:30:46Z</time>
      </trkpt>
      <trkpt lat="47.544595012441278" lon="18.980131996795535">
        <ele>374.00400000000002</ele>
        <time>2010-02-06T20:30:50Z</time>
      </trkpt>
      <trkpt lat="47.544628959149122" lon="18.980156974866986">
        <ele>375.01299999999998</ele>
        <time>2010-02-06T20:30:54Z</time>
      </trkpt>
      <trkpt lat="47.54464597441256" lon="18.980205003172159">
        <ele>375.10300000000001</ele>
        <time>2010-02-06T20:30:58Z</time>
      </trkpt>
      <trkpt lat="47.544669024646282" lon="18.980269962921739">
        <ele>375.67700000000002</ele>
        <time>2010-02-06T20:31:03Z</time>
      </trkpt>
      <trkpt lat="47.544669024646282" lon="18.980329977348447">
        <ele>375.81</ele>
        <time>2010-02-06T20:31:07Z</time>
      </trkpt>
      <trkpt lat="47.544667012989521" lon="18.980384962633252">
        <ele>376.90100000000001</ele>
        <time>2010-02-06T20:31:11Z</time>
      </trkpt>
      <trkpt lat="47.544662989675999" lon="18.980431985110044">
        <ele>378.00700000000001</ele>
        <time>2010-02-06T20:31:14Z</time>
      </trkpt>
      <trkpt lat="47.544671958312392" lon="18.980485964566469">
        <ele>377.94900000000001</ele>
        <time>2010-02-06T20:31:18Z</time>
      </trkpt>
      <trkpt lat="47.544671958312392" lon="18.980548996478319">
        <ele>378.75400000000002</ele>
        <time>2010-02-06T20:31:22Z</time>
      </trkpt>
      <trkpt lat="47.544671036303043" lon="18.980610016733408">
        <ele>378.19299999999998</ele>
        <time>2010-02-06T20:31:25Z</time>
      </trkpt>
      <trkpt lat="47.544672964140773" lon="18.980686040595174">
        <ele>378.99700000000001</ele>
        <time>2010-02-06T20:31:29Z</time>
      </trkpt>
      <trkpt lat="47.54466600716114" lon="18.98074303753674">
        <ele>378.202</ele>
        <time>2010-02-06T20:31:32Z</time>
      </trkpt>
      <trkpt lat="47.544668018817902" lon="18.980797016993165">
        <ele>379.52999999999997</ele>
        <time>2010-02-06T20:31:36Z</time>
      </trkpt>
      <trkpt lat="47.544655026867986" lon="18.98085200227797">
        <ele>377.72699999999998</ele>
        <time>2010-02-06T20:31:39Z</time>
      </trkpt>
      <trkpt lat="47.54464597441256" lon="18.980918973684311">
        <ele>377.89299999999997</ele>
        <time>2010-02-06T20:31:42Z</time>
      </trkpt>
      <trkpt lat="47.544649997726083" lon="18.980975970625877">
        <ele>376.43200000000002</ele>
        <time>2010-02-06T20:31:46Z</time>
      </trkpt>
      <trkpt lat="47.544603981077671" lon="18.981042020022869">
        <ele>375.96300000000002</ele>
        <time>2010-02-06T20:31:50Z</time>
      </trkpt>
      <trkpt lat="47.544568022713065" lon="18.981101028621197">
        <ele>374.10500000000002</ele>
        <time>2010-02-06T20:31:54Z</time>
      </trkpt>
      <trkpt lat="47.544519994407892" lon="18.981120977550745">
        <ele>372.81099999999998</ele>
        <time>2010-02-06T20:31:58Z</time>
      </trkpt>
      <trkpt lat="47.544481018558145" lon="18.981141010299325">
        <ele>372.94600000000003</ele>
        <time>2010-02-06T20:32:00Z</time>
      </trkpt>
      <trkpt lat="47.544441958889365" lon="18.981148973107338">
        <ele>372.76400000000001</ele>
        <time>2010-02-06T20:32:02Z</time>
      </trkpt>
      <trkpt lat="47.544409018009901" lon="18.981149978935719">
        <ele>371.32499999999999</ele>
        <time>2010-02-06T20:32:04Z</time>
      </trkpt>
      <trkpt lat="47.544373981654644" lon="18.981146961450577">
        <ele>371.37900000000002</ele>
        <time>2010-02-06T20:32:06Z</time>
      </trkpt>
      <trkpt lat="47.544339029118419" lon="18.981149978935719">
        <ele>372.065</ele>
        <time>2010-02-06T20:32:08Z</time>
      </trkpt>
      <trkpt lat="47.544310027733445" lon="18.981175040826201">
        <ele>370.87400000000002</ele>
        <time>2010-02-06T20:32:10Z</time>
      </trkpt>
      <trkpt lat="47.544274991378188" lon="18.981209993362427">
        <ele>370.24900000000002</ele>
        <time>2010-02-06T20:32:13Z</time>
      </trkpt>
      <trkpt lat="47.544252024963498" lon="18.981288028880954">
        <ele>369.89600000000002</ele>
        <time>2010-02-06T20:32:20Z</time>
      </trkpt>
      <trkpt lat="47.54423601552844" lon="18.98134401999414">
        <ele>369.858</ele>
        <time>2010-02-06T20:32:22Z</time>
      </trkpt>
      <trkpt lat="47.544228974729776" lon="18.981414008885622">
        <ele>367.74599999999998</ele>
        <time>2010-02-06T20:32:24Z</time>
      </trkpt>
      <trkpt lat="47.544251019135118" lon="18.98145298473537">
        <ele>368.84899999999999</ele>
        <time>2010-02-06T20:32:26Z</time>
      </trkpt>
      <trkpt lat="47.544287983328104" lon="18.981510987505317">
        <ele>368.26400000000001</ele>
        <time>2010-02-06T20:32:29Z</time>
      </trkpt>
      <trkpt lat="47.54432201385498" lon="18.981534959748387">
        <ele>366.72800000000001</ele>
        <time>2010-02-06T20:32:31Z</time>
      </trkpt>
      <trkpt lat="47.544367024675012" lon="18.98158298805356">
        <ele>364.31599999999997</ele>
        <time>2010-02-06T20:32:34Z</time>
      </trkpt>
      <trkpt lat="47.544402983039618" lon="18.981631016358733">
        <ele>361.88799999999998</ele>
        <time>2010-02-06T20:32:36Z</time>
      </trkpt>
      <trkpt lat="47.54445000551641" lon="18.98166798055172">
        <ele>360.12900000000002</ele>
        <time>2010-02-06T20:32:38Z</time>
      </trkpt>
      <trkpt lat="47.544488981366158" lon="18.981695976108313">
        <ele>358.60500000000002</ele>
        <time>2010-02-06T20:32:40Z</time>
      </trkpt>
      <trkpt lat="47.544522006064653" lon="18.981738975271583">
        <ele>358.74900000000002</ele>
        <time>2010-02-06T20:32:42Z</time>
      </trkpt>
      <trkpt lat="47.544555030763149" lon="18.981773005798459">
        <ele>358.10599999999999</ele>
        <time>2010-02-06T20:32:44Z</time>
      </trkpt>
      <trkpt lat="47.544591994956136" lon="18.981807958334684">
        <ele>357.86000000000001</ele>
        <time>2010-02-06T20:32:47Z</time>
      </trkpt>
      <trkpt lat="47.544638011604548" lon="18.98186000995338">
        <ele>357.00200000000001</ele>
        <time>2010-02-06T20:32:50Z</time>
      </trkpt>
      <trkpt lat="47.544648991897702" lon="18.981929998844862">
        <ele>356.88499999999999</ele>
        <time>2010-02-06T20:32:52Z</time>
      </trkpt>
      <trkpt lat="47.544658966362476" lon="18.981996970251203">
        <ele>356.92000000000002</ele>
        <time>2010-02-06T20:32:54Z</time>
      </trkpt>
      <trkpt lat="47.544689979404211" lon="18.982047010213137">
        <ele>355.42599999999999</ele>
        <time>2010-02-06T20:32:56Z</time>
      </trkpt>
      <trkpt lat="47.544713029637933" lon="18.98209797218442">
        <ele>354.97399999999999</ele>
        <time>2010-02-06T20:32:58Z</time>
      </trkpt>
      <trkpt lat="47.544725015759468" lon="18.982156980782747">
        <ele>353.64600000000002</ele>
        <time>2010-02-06T20:33:00Z</time>
      </trkpt>
      <trkpt lat="47.54475200548768" lon="18.982234010472894">
        <ele>352.19499999999999</ele>
        <time>2010-02-06T20:33:03Z</time>
      </trkpt>
      <trkpt lat="47.544766003265977" lon="18.982306011021137">
        <ele>351.47000000000003</ele>
        <time>2010-02-06T20:33:05Z</time>
      </trkpt>
      <trkpt lat="47.544780001044273" lon="18.982360996305943">
        <ele>350.03500000000003</ele>
        <time>2010-02-06T20:33:07Z</time>
      </trkpt>
      <trkpt lat="47.544820988550782" lon="18.982392009347677">
        <ele>350.82100000000003</ele>
        <time>2010-02-06T20:33:09Z</time>
      </trkpt>
      <trkpt lat="47.544842027127743" lon="18.98243903182447">
        <ele>347.846</ele>
        <time>2010-02-06T20:33:11Z</time>
      </trkpt>
      <trkpt lat="47.544875973835588" lon="18.982471972703934">
        <ele>346.98599999999999</ele>
        <time>2010-02-06T20:33:13Z</time>
      </trkpt>
      <trkpt lat="47.544905981048942" lon="18.982510026544333">
        <ele>346.86099999999999</ele>
        <time>2010-02-06T20:33:15Z</time>
      </trkpt>
      <trkpt lat="47.54494596272707" lon="18.982539027929306">
        <ele>345.71100000000001</ele>
        <time>2010-02-06T20:33:17Z</time>
      </trkpt>
      <trkpt lat="47.545017963275313" lon="18.982541039586067">
        <ele>345.476</ele>
        <time>2010-02-06T20:33:20Z</time>
      </trkpt>
      <trkpt lat="47.545070014894009" lon="18.982543973252177">
        <ele>344.30599999999998</ele>
        <time>2010-02-06T20:33:22Z</time>
      </trkpt>
      <trkpt lat="47.545121982693672" lon="18.982564006000757">
        <ele>342.54700000000003</ele>
        <time>2010-02-06T20:33:24Z</time>
      </trkpt>
      <trkpt lat="47.545178979635239" lon="18.982565011829138">
        <ele>341.39400000000001</ele>
        <time>2010-02-06T20:33:26Z</time>
      </trkpt>
      <trkpt lat="47.545228013768792" lon="18.982561994343996">
        <ele>339.83999999999997</ele>
        <time>2010-02-06T20:33:28Z</time>
      </trkpt>
      <trkpt lat="47.545286016538739" lon="18.982555037364364">
        <ele>340.01600000000002</ele>
        <time>2010-02-06T20:33:31Z</time>
      </trkpt>
      <trkpt lat="47.545347958803177" lon="18.982553025707603">
        <ele>337.79000000000002</ele>
        <time>2010-02-06T20:33:35Z</time>
      </trkpt>
      <trkpt lat="47.545402022078633" lon="18.98256903514266">
        <ele>337.851</ele>
        <time>2010-02-06T20:33:37Z</time>
      </trkpt>
      <trkpt lat="47.545468993484974" lon="18.982601976022124">
        <ele>337.512</ele>
        <time>2010-02-06T20:33:40Z</time>
      </trkpt>
      <trkpt lat="47.545592039823532" lon="18.982659978792071">
        <ele>337.12700000000001</ele>
        <time>2010-02-06T20:33:46Z</time>
      </trkpt>
      <trkpt lat="47.545635038986802" lon="18.982668025419116">
        <ele>336.42500000000001</ele>
        <time>2010-02-06T20:33:48Z</time>
      </trkpt>
      <trkpt lat="47.545703016221523" lon="18.982690991833806">
        <ele>336.23399999999998</ele>
        <time>2010-02-06T20:33:52Z</time>
      </trkpt>
      <trkpt lat="47.545749032869935" lon="18.982707001268864">
        <ele>336.31400000000002</ele>
        <time>2010-02-06T20:33:55Z</time>
      </trkpt>
      <trkpt lat="47.545799994841218" lon="18.982732985168695">
        <ele>336.38400000000001</ele>
        <time>2010-02-06T20:33:59Z</time>
      </trkpt>
      <trkpt lat="47.545837964862585" lon="18.982761986553669">
        <ele>336.84300000000002</ele>
        <time>2010-02-06T20:34:02Z</time>
      </trkpt>
      <trkpt lat="47.545896973460913" lon="18.982787970453501">
        <ele>336.80700000000002</ele>
        <time>2010-02-06T20:34:06Z</time>
      </trkpt>
      <trkpt lat="47.545957993716002" lon="18.982791993767023">
        <ele>336.73500000000001</ele>
        <time>2010-02-06T20:34:10Z</time>
      </trkpt>
      <trkpt lat="47.545990012586117" lon="18.98282996378839">
        <ele>337.375</ele>
        <time>2010-02-06T20:34:14Z</time>
      </trkpt>
      <trkpt lat="47.545982971787453" lon="18.982874974608421">
        <ele>337.16699999999997</ele>
        <time>2010-02-06T20:34:17Z</time>
      </trkpt>
      <trkpt lat="47.545961011201143" lon="18.982943035662174">
        <ele>337.23899999999998</ele>
        <time>2010-02-06T20:34:20Z</time>
      </trkpt>
      <trkpt lat="47.545925974845886" lon="18.98302199319005">
        <ele>336.89499999999998</ele>
        <time>2010-02-06T20:34:26Z</time>
      </trkpt>
      <trkpt lat="47.545907031744719" lon="18.98306499235332">
        <ele>337.529</ele>
        <time>2010-02-06T20:34:30Z</time>
      </trkpt>
      <trkpt lat="47.5458699837327" lon="18.98310799151659">
        <ele>337.50999999999999</ele>
        <time>2010-02-06T20:34:34Z</time>
      </trkpt>
      <trkpt lat="47.54582698456943" lon="18.983159037306905">
        <ele>336.87799999999999</ele>
        <time>2010-02-06T20:34:38Z</time>
      </trkpt>
      <trkpt lat="47.545806029811502" lon="18.983226008713245">
        <ele>337.04000000000002</ele>
        <time>2010-02-06T20:34:41Z</time>
      </trkpt>
      <trkpt lat="47.545776022598147" lon="18.983289962634444">
        <ele>337.11799999999999</ele>
        <time>2010-02-06T20:34:44Z</time>
      </trkpt>
      <trkpt lat="47.545750038698316" lon="18.983374033123255">
        <ele>336.97300000000001</ele>
        <time>2010-02-06T20:34:48Z</time>
      </trkpt>
      <trkpt lat="47.545725982636213" lon="18.983460031449795">
        <ele>337.017</ele>
        <time>2010-02-06T20:34:51Z</time>
      </trkpt>
      <trkpt lat="47.545719025656581" lon="18.983517028391361">
        <ele>336.65499999999997</ele>
        <time>2010-02-06T20:34:53Z</time>
      </trkpt>
      <trkpt lat="47.545710979029536" lon="18.983576958999038">
        <ele>336.01799999999997</ele>
        <time>2010-02-06T20:34:55Z</time>
      </trkpt>
      <trkpt lat="47.54569698125124" lon="18.983635967597365">
        <ele>335.36200000000002</ele>
        <time>2010-02-06T20:34:57Z</time>
      </trkpt>
      <trkpt lat="47.545677032321692" lon="18.983697993680835">
        <ele>334.56900000000002</ele>
        <time>2010-02-06T20:34:59Z</time>
      </trkpt>
      <trkpt lat="47.545662028715014" lon="18.983758008107543">
        <ele>334.447</ele>
        <time>2010-02-06T20:35:01Z</time>
      </trkpt>
      <trkpt lat="47.545649958774447" lon="18.983824979513884">
        <ele>333.40899999999999</ele>
        <time>2010-02-06T20:35:03Z</time>
      </trkpt>
      <trkpt lat="47.545635038986802" lon="18.983891028910875">
        <ele>333.68900000000002</ele>
        <time>2010-02-06T20:35:05Z</time>
      </trkpt>
      <trkpt lat="47.545626992359757" lon="18.983956994488835">
        <ele>332.197</ele>
        <time>2010-02-06T20:35:07Z</time>
      </trkpt>
      <trkpt lat="47.545623974874616" lon="18.984027989208698">
        <ele>331.60300000000001</ele>
        <time>2010-02-06T20:35:09Z</time>
      </trkpt>
      <trkpt lat="47.545608971267939" lon="18.984125973656774">
        <ele>330.89800000000002</ele>
        <time>2010-02-06T20:35:11Z</time>
      </trkpt>
      <trkpt lat="47.545601008459926" lon="18.984177019447088">
        <ele>330.53100000000001</ele>
        <time>2010-02-06T20:35:12Z</time>
      </trkpt>
      <trkpt lat="47.545593967661262" lon="18.984226975589991">
        <ele>329.726</ele>
        <time>2010-02-06T20:35:13Z</time>
      </trkpt>
      <trkpt lat="47.545594973489642" lon="18.984312973916531">
        <ele>328.91899999999998</ele>
        <time>2010-02-06T20:35:15Z</time>
      </trkpt>
      <trkpt lat="47.545607965439558" lon="18.984392015263438">
        <ele>327.63299999999998</ele>
        <time>2010-02-06T20:35:17Z</time>
      </trkpt>
      <trkpt lat="47.545620035380125" lon="18.984469966962934">
        <ele>327.22899999999998</ele>
        <time>2010-02-06T20:35:19Z</time>
      </trkpt>
      <trkpt lat="47.545634033158422" lon="18.984543979167938">
        <ele>326.488</ele>
        <time>2010-02-06T20:35:21Z</time>
      </trkpt>
      <trkpt lat="47.545673009008169" lon="18.984587984159589">
        <ele>326.226</ele>
        <time>2010-02-06T20:35:23Z</time>
      </trkpt>
      <trkpt lat="47.545707961544394" lon="18.984640035778284">
        <ele>325.80099999999999</ele>
        <time>2010-02-06T20:35:25Z</time>
      </trkpt>
      <trkpt lat="47.545747021213174" lon="18.984683034941554">
        <ele>324.911</ele>
        <time>2010-02-06T20:35:27Z</time>
      </trkpt>
      <trkpt lat="47.545789014548063" lon="18.984716981649399">
        <ele>324.89299999999997</ele>
        <time>2010-02-06T20:35:29Z</time>
      </trkpt>
      <trkpt lat="47.545833019539714" lon="18.98476199246943">
        <ele>324.34399999999999</ele>
        <time>2010-02-06T20:35:31Z</time>
      </trkpt>
      <trkpt lat="47.545873001217842" lon="18.984799040481448">
        <ele>323.61000000000001</ele>
        <time>2010-02-06T20:35:33Z</time>
      </trkpt>
      <trkpt lat="47.545922035351396" lon="18.984830975532532">
        <ele>323.10199999999998</ele>
        <time>2010-02-06T20:35:35Z</time>
      </trkpt>
      <trkpt lat="47.545963022857904" lon="18.984871963039041">
        <ele>322.36099999999999</ele>
        <time>2010-02-06T20:35:37Z</time>
      </trkpt>
      <trkpt lat="47.546000992879272" lon="18.984905993565917">
        <ele>322.11900000000003</ele>
        <time>2010-02-06T20:35:39Z</time>
      </trkpt>
      <trkpt lat="47.546046003699303" lon="18.984931977465749">
        <ele>321.60500000000002</ele>
        <time>2010-02-06T20:35:41Z</time>
      </trkpt>
      <trkpt lat="47.546086991205812" lon="18.984963996335864">
        <ele>321.74799999999999</ele>
        <time>2010-02-06T20:35:43Z</time>
      </trkpt>
      <trkpt lat="47.546124961227179" lon="18.98499702103436">
        <ele>322.05500000000001</ele>
        <time>2010-02-06T20:35:45Z</time>
      </trkpt>
      <trkpt lat="47.546176007017493" lon="18.985039014369249">
        <ele>321.56700000000001</ele>
        <time>2010-02-06T20:35:48Z</time>
      </trkpt>
      <trkpt lat="47.546225041151047" lon="18.985070027410984">
        <ele>320.92700000000002</ele>
        <time>2010-02-06T20:35:51Z</time>
      </trkpt>
      <trkpt lat="47.546248007565737" lon="18.985119983553886">
        <ele>320.952</ele>
        <time>2010-02-06T20:35:54Z</time>
      </trkpt>
      <trkpt lat="47.54627700895071" lon="18.985170023515821">
        <ele>320.27699999999999</ele>
        <time>2010-02-06T20:35:57Z</time>
      </trkpt>
      <trkpt lat="47.546308021992445" lon="18.985216962173581">
        <ele>320.21800000000002</ele>
        <time>2010-02-06T20:36:00Z</time>
      </trkpt>
      <trkpt lat="47.546445988118649" lon="18.985216962173581">
        <ele>318.79199999999997</ele>
        <time>2010-02-06T20:36:10Z</time>
      </trkpt>
      <trkpt lat="47.546562999486923" lon="18.985220985487103">
        <ele>320.06099999999998</ele>
        <time>2010-02-06T20:36:18Z</time>
      </trkpt>
      <trkpt lat="47.546595018357038" lon="18.985251998528838">
        <ele>319.71800000000002</ele>
        <time>2010-02-06T20:36:22Z</time>
      </trkpt>
      <trkpt lat="47.546629970893264" lon="18.985261972993612">
        <ele>320.37400000000002</ele>
        <time>2010-02-06T20:36:25Z</time>
      </trkpt>
      <trkpt lat="47.546708006411791" lon="18.98529902100563">
        <ele>320.39800000000002</ele>
        <time>2010-02-06T20:36:34Z</time>
      </trkpt>
      <trkpt lat="47.546704988926649" lon="18.985376972705126">
        <ele>321.01999999999998</ele>
        <time>2010-02-06T20:36:38Z</time>
      </trkpt>
      <trkpt lat="47.54670700058341" lon="18.985438998788595">
        <ele>320.83999999999997</ele>
        <time>2010-02-06T20:36:42Z</time>
      </trkpt>
      <trkpt lat="47.546690991148353" lon="18.985553998500109">
        <ele>321.42200000000003</ele>
        <time>2010-02-06T20:36:50Z</time>
      </trkpt>
      <trkpt lat="47.546730972826481" lon="18.985630022361875">
        <ele>321.97800000000001</ele>
        <time>2010-02-06T20:36:55Z</time>
      </trkpt>
      <trkpt lat="47.5467489939183" lon="18.985745022073388">
        <ele>323.37200000000001</ele>
        <time>2010-02-06T20:37:06Z</time>
      </trkpt>
      <trkpt lat="47.546771038323641" lon="18.985797995701432">
        <ele>324.86700000000002</ele>
        <time>2010-02-06T20:37:09Z</time>
      </trkpt>
      <trkpt lat="47.54681303165853" lon="18.985866978764534">
        <ele>325.06400000000002</ele>
        <time>2010-02-06T20:37:15Z</time>
      </trkpt>
      <trkpt lat="47.546887965872884" lon="18.985929004848003">
        <ele>326.20100000000002</ele>
        <time>2010-02-06T20:37:20Z</time>
      </trkpt>
      <trkpt lat="47.546940017491579" lon="18.98596697486937">
        <ele>326.59800000000001</ele>
        <time>2010-02-06T20:37:23Z</time>
      </trkpt>
      <trkpt lat="47.546973964199424" lon="18.986031012609601">
        <ele>327.62299999999999</ele>
        <time>2010-02-06T20:37:26Z</time>
      </trkpt>
      <trkpt lat="47.546999026089907" lon="18.986097984015942">
        <ele>328.09300000000002</ele>
        <time>2010-02-06T20:37:29Z</time>
      </trkpt>
      <trkpt lat="47.547018975019455" lon="18.986165961250663">
        <ele>327.88200000000001</ele>
        <time>2010-02-06T20:37:32Z</time>
      </trkpt>
      <trkpt lat="47.5470270216465" lon="18.986211977899075">
        <ele>328.64100000000002</ele>
        <time>2010-02-06T20:37:34Z</time>
      </trkpt>
      <trkpt lat="47.547040013596416" lon="18.986279033124447">
        <ele>329.315</ele>
        <time>2010-02-06T20:37:37Z</time>
      </trkpt>
      <trkpt lat="47.547047976404428" lon="18.986339969560504">
        <ele>329.94799999999998</ele>
        <time>2010-02-06T20:37:40Z</time>
      </trkpt>
      <trkpt lat="47.547079995274544" lon="18.986377017572522">
        <ele>330.44999999999999</ele>
        <time>2010-02-06T20:37:43Z</time>
      </trkpt>
      <trkpt lat="47.547121988609433" lon="18.986409958451986">
        <ele>331.08100000000002</ele>
        <time>2010-02-06T20:37:46Z</time>
      </trkpt>
      <trkpt lat="47.547145960852504" lon="18.98643895983696">
        <ele>331.68799999999999</ele>
        <time>2010-02-06T20:37:49Z</time>
      </trkpt>
      <trkpt lat="47.5471599586308" lon="18.986476007848978">
        <ele>331.96800000000002</ele>
        <time>2010-02-06T20:37:52Z</time>
      </trkpt>
      <trkpt lat="47.547178985551" lon="18.986494028940797">
        <ele>332.358</ele>
        <time>2010-02-06T20:37:56Z</time>
      </trkpt>
      <trkpt lat="47.547172028571367" lon="18.986543985083699">
        <ele>333.495</ele>
        <time>2010-02-06T20:38:00Z</time>
      </trkpt>
      <trkpt lat="47.547184014692903" lon="18.986631995067">
        <ele>334.07999999999998</ele>
        <time>2010-02-06T20:38:05Z</time>
      </trkpt>
      <trkpt lat="47.547207986935973" lon="18.986683962866664">
        <ele>334.49599999999998</ele>
        <time>2010-02-06T20:38:08Z</time>
      </trkpt>
      <trkpt lat="47.547227013856173" lon="18.986758980900049">
        <ele>335.613</ele>
        <time>2010-02-06T20:38:13Z</time>
      </trkpt>
      <trkpt lat="47.547259032726288" lon="18.986806003376842">
        <ele>335.50200000000001</ele>
        <time>2010-02-06T20:38:18Z</time>
      </trkpt>
      <trkpt lat="47.547273030504584" lon="18.986857971176505">
        <ele>337.31799999999998</ele>
        <time>2010-02-06T20:38:22Z</time>
      </trkpt>
      <trkpt lat="47.547256015241146" lon="18.986966013908386">
        <ele>335.54199999999997</ele>
        <time>2010-02-06T20:38:29Z</time>
      </trkpt>
      <trkpt lat="47.547255009412766" lon="18.987030973657966">
        <ele>338.31</ele>
        <time>2010-02-06T20:38:33Z</time>
      </trkpt>
      <trkpt lat="47.547250986099243" lon="18.987100040540099">
        <ele>339.98500000000001</ele>
        <time>2010-02-06T20:38:38Z</time>
      </trkpt>
      <trkpt lat="47.547273030504584" lon="18.987160976976156">
        <ele>340.32799999999997</ele>
        <time>2010-02-06T20:38:43Z</time>
      </trkpt>
      <trkpt lat="47.547316029667854" lon="18.98719098418951">
        <ele>341.13499999999999</ele>
        <time>2010-02-06T20:38:48Z</time>
      </trkpt>
      <trkpt lat="47.547370009124279" lon="18.987278994172812">
        <ele>342.22199999999998</ele>
        <time>2010-02-06T20:39:02Z</time>
      </trkpt>
      <trkpt lat="47.547370009124279" lon="18.987487033009529">
        <ele>347.62099999999998</ele>
        <time>2010-02-06T20:39:23Z</time>
      </trkpt>
      <trkpt lat="47.547413008287549" lon="18.98761996999383">
        <ele>350.108</ele>
        <time>2010-02-06T20:39:39Z</time>
      </trkpt>
      <trkpt lat="47.547428011894226" lon="18.987675039097667">
        <ele>352.767</ele>
        <time>2010-02-06T20:39:51Z</time>
      </trkpt>
      <trkpt lat="47.547422982752323" lon="18.987751984968781">
        <ele>357.08300000000003</ele>
        <time>2010-02-06T20:40:04Z</time>
      </trkpt>
      <trkpt lat="47.547421976923943" lon="18.98781300522387">
        <ele>356.84699999999998</ele>
        <time>2010-02-06T20:40:12Z</time>
      </trkpt>
      <trkpt lat="47.547433963045478" lon="18.987874025478959">
        <ele>361.42899999999997</ele>
        <time>2010-02-06T20:40:20Z</time>
      </trkpt>
      <trkpt lat="47.547477968037128" lon="18.988002017140388">
        <ele>363.32400000000001</ele>
        <time>2010-02-06T20:40:34Z</time>
      </trkpt>
      <trkpt lat="47.547559021040797" lon="18.988074017688632">
        <ele>366.58300000000003</ele>
        <time>2010-02-06T20:40:54Z</time>
      </trkpt>
      <trkpt lat="47.547597996890545" lon="18.988251965492964">
        <ele>373.892</ele>
        <time>2010-02-06T20:41:23Z</time>
      </trkpt>
      <trkpt lat="47.547717019915581" lon="18.98839496076107">
        <ele>382.38799999999998</ele>
        <time>2010-02-06T20:41:57Z</time>
      </trkpt>
      <trkpt lat="47.547838976606727" lon="18.988600987941027">
        <ele>387.16399999999999</ele>
        <time>2010-02-06T20:42:30Z</time>
      </trkpt>
      <trkpt lat="47.547926986590028" lon="18.988683968782425">
        <ele>392.12599999999998</ele>
        <time>2010-02-06T20:42:50Z</time>
      </trkpt>
      <trkpt lat="47.547963028773665" lon="18.988702995702624">
        <ele>393.73500000000001</ele>
        <time>2010-02-06T20:42:54Z</time>
      </trkpt>
      <trkpt lat="47.547968979924917" lon="18.988786982372403">
        <ele>395.76100000000002</ele>
        <time>2010-02-06T20:43:02Z</time>
      </trkpt>
      <trkpt lat="47.548003010451794" lon="18.988867029547691">
        <ele>396.01100000000002</ele>
        <time>2010-02-06T20:43:12Z</time>
      </trkpt>
      <trkpt lat="47.548180036246777" lon="18.988917991518974">
        <ele>395.74900000000002</ele>
        <time>2010-02-06T20:44:17Z</time>
      </trkpt>
      <trkpt lat="47.548160003498197" lon="18.988978005945683">
        <ele>396.363</ele>
        <time>2010-02-06T20:45:00Z</time>
      </trkpt>
      <trkpt lat="47.548215994611382" lon="18.988963002339005">
        <ele>397.18200000000002</ele>
        <time>2010-02-06T20:45:05Z</time>
      </trkpt>
      <trkpt lat="47.548280032351613" lon="18.988963002339005">
        <ele>397.17599999999999</ele>
        <time>2010-02-06T20:45:11Z</time>
      </trkpt>
      <trkpt lat="47.548324037343264" lon="18.98897398263216">
        <ele>397.49099999999999</ele>
        <time>2010-02-06T20:45:16Z</time>
      </trkpt>
      <trkpt lat="47.548382040113211" lon="18.988961996510625">
        <ele>397.77999999999997</ele>
        <time>2010-02-06T20:45:20Z</time>
      </trkpt>
      <trkpt lat="47.54842696711421" lon="18.988949004560709">
        <ele>397.59100000000001</ele>
        <time>2010-02-06T20:45:25Z</time>
      </trkpt>
      <trkpt lat="47.548468038439751" lon="18.98895101621747">
        <ele>398.01100000000002</ele>
        <time>2010-02-06T20:45:30Z</time>
      </trkpt>
      <trkpt lat="47.548520006239414" lon="18.988934000954032">
        <ele>398.64400000000001</ele>
        <time>2010-02-06T20:45:34Z</time>
      </trkpt>
      <trkpt lat="47.54855596460402" lon="18.988946992903948">
        <ele>398.91800000000001</ele>
        <time>2010-02-06T20:45:39Z</time>
      </trkpt>
      <trkpt lat="47.548597035929561" lon="18.988946992903948">
        <ele>399.38900000000001</ele>
        <time>2010-02-06T20:45:43Z</time>
      </trkpt>
      <trkpt lat="47.548645986244082" lon="18.98895101621747">
        <ele>399.43700000000001</ele>
        <time>2010-02-06T20:45:48Z</time>
      </trkpt>
      <trkpt lat="47.548684040084481" lon="18.988949004560709">
        <ele>400.16699999999997</ele>
        <time>2010-02-06T20:45:51Z</time>
      </trkpt>
      <trkpt lat="47.548733996227384" lon="18.988957973197103">
        <ele>400.53199999999998</ele>
        <time>2010-02-06T20:45:55Z</time>
      </trkpt>
      <trkpt lat="47.548769032582641" lon="18.988984962925315">
        <ele>401.28399999999999</ele>
        <time>2010-02-06T20:45:59Z</time>
      </trkpt>
      <trkpt lat="47.548814965412021" lon="18.988989992067218">
        <ele>401.18099999999998</ele>
        <time>2010-02-06T20:46:02Z</time>
      </trkpt>
      <trkpt lat="47.548852013424039" lon="18.988989992067218">
        <ele>402.20499999999998</ele>
        <time>2010-02-06T20:46:05Z</time>
      </trkpt>
      <trkpt lat="47.548890989273787" lon="18.988983035087585">
        <ele>401.851</ele>
        <time>2010-02-06T20:46:08Z</time>
      </trkpt>
      <trkpt lat="47.548928037285805" lon="18.98897297680378">
        <ele>402.59500000000003</ele>
        <time>2010-02-06T20:46:11Z</time>
      </trkpt>
      <trkpt lat="47.548957960680127" lon="18.988984040915966">
        <ele>403.036</ele>
        <time>2010-02-06T20:46:14Z</time>
      </trkpt>
      <trkpt lat="47.548994002863765" lon="18.988989992067218">
        <ele>402.76600000000002</ele>
        <time>2010-02-06T20:46:17Z</time>
      </trkpt>
      <trkpt lat="47.549031972885132" lon="18.989004995673895">
        <ele>402.77699999999999</ele>
        <time>2010-02-06T20:46:20Z</time>
      </trkpt>
      <trkpt lat="47.549066003412008" lon="18.989014970138669">
        <ele>404.13400000000001</ele>
        <time>2010-02-06T20:46:23Z</time>
      </trkpt>
      <trkpt lat="47.549086036160588" lon="18.989046989008784">
        <ele>404.88600000000002</ele>
        <time>2010-02-06T20:46:26Z</time>
      </trkpt>
      <trkpt lat="47.549107996746898" lon="18.989083031192422">
        <ele>404.68299999999999</ele>
        <time>2010-02-06T20:46:29Z</time>
      </trkpt>
      <trkpt lat="47.549126017838717" lon="18.989104991778731">
        <ele>405.64100000000002</ele>
        <time>2010-02-06T20:46:32Z</time>
      </trkpt>
      <trkpt lat="47.549158036708832" lon="18.989133993163705">
        <ele>405.53300000000002</ele>
        <time>2010-02-06T20:46:36Z</time>
      </trkpt>
      <trkpt lat="47.54917798563838" lon="18.989175986498594">
        <ele>406.678</ele>
        <time>2010-02-06T20:46:40Z</time>
      </trkpt>
      <trkpt lat="47.549222996458411" lon="18.98918897844851">
        <ele>406.42899999999997</ele>
        <time>2010-02-06T20:46:44Z</time>
      </trkpt>
      <trkpt lat="47.549267001450062" lon="18.98918897844851">
        <ele>406.64400000000001</ele>
        <time>2010-02-06T20:46:47Z</time>
      </trkpt>
      <trkpt lat="47.549288040027022" lon="18.989239018410444">
        <ele>407.21800000000002</ele>
        <time>2010-02-06T20:46:51Z</time>
      </trkpt>
      <trkpt lat="47.549318969249725" lon="18.989275982603431">
        <ele>408.09500000000003</ele>
        <time>2010-02-06T20:46:55Z</time>
      </trkpt>
      <trkpt lat="47.549341013655066" lon="18.989303978160024">
        <ele>408.61000000000001</ele>
        <time>2010-02-06T20:46:58Z</time>
      </trkpt>
      <trkpt lat="47.549374038353562" lon="18.989320993423462">
        <ele>409.29199999999997</ele>
        <time>2010-02-06T20:47:02Z</time>
      </trkpt>
      <trkpt lat="47.54941301420331" lon="18.989313030615449">
        <ele>409.23099999999999</ele>
        <time>2010-02-06T20:47:06Z</time>
      </trkpt>
      <trkpt lat="47.549450984224677" lon="18.989281011745334">
        <ele>409.00599999999997</ele>
        <time>2010-02-06T20:47:10Z</time>
      </trkpt>
      <trkpt lat="47.549483003094792" lon="18.989237006753683">
        <ele>409.24299999999999</ele>
        <time>2010-02-06T20:47:14Z</time>
      </trkpt>
      <trkpt lat="47.549513010308146" lon="18.989191995933652">
        <ele>410.71800000000002</ele>
        <time>2010-02-06T20:47:18Z</time>
      </trkpt>
      <trkpt lat="47.549562966451049" lon="18.989160982891917">
        <ele>410.09399999999999</ele>
        <time>2010-02-06T20:47:23Z</time>
      </trkpt>
      <trkpt lat="47.549606971442699" lon="18.98914497345686">
        <ele>410.553</ele>
        <time>2010-02-06T20:47:27Z</time>
      </trkpt>
      <trkpt lat="47.549636978656054" lon="18.989141033962369">
        <ele>411.226</ele>
        <time>2010-02-06T20:47:29Z</time>
      </trkpt>
      <trkpt lat="47.549676960334182" lon="18.989156959578395">
        <ele>412.51299999999998</ele>
        <time>2010-02-06T20:47:34Z</time>
      </trkpt>
      <trkpt lat="47.549710990861058" lon="18.989184033125639">
        <ele>414.86700000000002</ele>
        <time>2010-02-06T20:47:39Z</time>
      </trkpt>
      <trkpt lat="47.549761030822992" lon="18.989191995933652">
        <ele>416.19799999999998</ele>
        <time>2010-02-06T20:47:44Z</time>
      </trkpt>
      <trkpt lat="47.549810986965895" lon="18.989184033125639">
        <ele>415.822</ele>
        <time>2010-02-06T20:47:48Z</time>
      </trkpt>
      <trkpt lat="47.549834037199616" lon="18.989214962348342">
        <ele>415.75400000000002</ele>
        <time>2010-02-06T20:47:51Z</time>
      </trkpt>
      <trkpt lat="47.549861026927829" lon="18.989258967339993">
        <ele>416.55700000000002</ele>
        <time>2010-02-06T20:47:55Z</time>
      </trkpt>
      <trkpt lat="47.549892039969563" lon="18.989286040887237">
        <ele>416.78100000000001</ele>
        <time>2010-02-06T20:47:59Z</time>
      </trkpt>
      <trkpt lat="47.549924980849028" lon="18.989305989816785">
        <ele>417.19200000000001</ele>
        <time>2010-02-06T20:48:03Z</time>
      </trkpt>
      <trkpt lat="47.549969991669059" lon="18.989285035058856">
        <ele>418.02600000000001</ele>
        <time>2010-02-06T20:48:08Z</time>
      </trkpt>
      <trkpt lat="47.550016008317471" lon="18.989253016188741">
        <ele>418.45600000000002</ele>
        <time>2010-02-06T20:48:12Z</time>
      </trkpt>
      <trkpt lat="47.550049033015966" lon="18.989228960126638">
        <ele>418.47800000000001</ele>
        <time>2010-02-06T20:48:15Z</time>
      </trkpt>
      <trkpt lat="47.550082979723811" lon="18.989200964570045">
        <ele>418.74700000000001</ele>
        <time>2010-02-06T20:48:18Z</time>
      </trkpt>
      <trkpt lat="47.550117010250688" lon="18.989172969013453">
        <ele>418.35199999999998</ele>
        <time>2010-02-06T20:48:21Z</time>
      </trkpt>
      <trkpt lat="47.550147017464042" lon="18.989156037569046">
        <ele>417.755</ele>
        <time>2010-02-06T20:48:24Z</time>
      </trkpt>
      <trkpt lat="47.550191022455692" lon="18.98914497345686">
        <ele>417.22399999999999</ele>
        <time>2010-02-06T20:48:28Z</time>
      </trkpt>
      <trkpt lat="47.550269979983568" lon="18.98912301287055">
        <ele>418.23099999999999</ele>
        <time>2010-02-06T20:48:36Z</time>
      </trkpt>
      <trkpt lat="47.550325971096754" lon="18.989057969301939">
        <ele>419.20100000000002</ele>
        <time>2010-02-06T20:48:43Z</time>
      </trkpt>
      <trkpt lat="47.550528980791569" lon="18.989089988172054">
        <ele>422.416</ele>
        <time>2010-02-06T20:49:03Z</time>
      </trkpt>
      <trkpt lat="47.550584971904755" lon="18.989067021757364">
        <ele>423.21600000000001</ele>
        <time>2010-02-06T20:49:09Z</time>
      </trkpt>
      <trkpt lat="47.550657978281379" lon="18.989056963473558">
        <ele>426.58100000000002</ele>
        <time>2010-02-06T20:49:20Z</time>
      </trkpt>
      <trkpt lat="47.550761997699738" lon="18.989040032029152">
        <ele>427.87200000000001</ele>
        <time>2010-02-06T20:49:32Z</time>
      </trkpt>
      <trkpt lat="47.55083198659122" lon="18.989038020372391">
        <ele>429.32400000000001</ele>
        <time>2010-02-06T20:49:42Z</time>
      </trkpt>
      <trkpt lat="47.550872974097729" lon="18.989009018987417">
        <ele>430.43599999999998</ele>
        <time>2010-02-06T20:49:47Z</time>
      </trkpt>
      <trkpt lat="47.550925025716424" lon="18.988965013995767">
        <ele>431.22300000000001</ele>
        <time>2010-02-06T20:49:52Z</time>
      </trkpt>
      <trkpt lat="47.550962995737791" lon="18.988984962925315">
        <ele>431.89299999999997</ele>
        <time>2010-02-06T20:50:00Z</time>
      </trkpt>
      <trkpt lat="47.550984034314752" lon="18.989022010937333">
        <ele>433.78300000000002</ele>
        <time>2010-02-06T20:50:06Z</time>
      </trkpt>
      <trkpt lat="47.551020998507738" lon="18.989038020372391">
        <ele>435.15699999999998</ele>
        <time>2010-02-06T20:50:12Z</time>
      </trkpt>
      <trkpt lat="47.551042037084699" lon="18.989073978736997">
        <ele>435.81299999999999</ele>
        <time>2010-02-06T20:50:17Z</time>
      </trkpt>
      <trkpt lat="47.551063997671008" lon="18.989104991778731">
        <ele>436.834</ele>
        <time>2010-02-06T20:50:22Z</time>
      </trkpt>
      <trkpt lat="47.551104985177517" lon="18.989081019535661">
        <ele>437.71100000000001</ele>
        <time>2010-02-06T20:50:28Z</time>
      </trkpt>
      <trkpt lat="47.551148990169168" lon="18.989105997607112">
        <ele>438.21499999999997</ele>
        <time>2010-02-06T20:50:35Z</time>
      </trkpt>
      <trkpt lat="47.551195006817579" lon="18.989100968465209">
        <ele>439.298</ele>
        <time>2010-02-06T20:50:41Z</time>
      </trkpt>
      <trkpt lat="47.5512629840523" lon="18.989073978736997">
        <ele>441.279</ele>
        <time>2010-02-06T20:50:50Z</time>
      </trkpt>
      <trkpt lat="47.55130497738719" lon="18.989054029807448">
        <ele>443.19999999999999</ele>
        <time>2010-02-06T20:50:56Z</time>
      </trkpt>
      <trkpt lat="47.55134797655046" lon="18.989025028422475">
        <ele>443.10599999999999</ele>
        <time>2010-02-06T20:51:02Z</time>
      </trkpt>
      <trkpt lat="47.551386030390859" lon="18.989000972360373">
        <ele>443.90199999999999</ele>
        <time>2010-02-06T20:51:07Z</time>
      </trkpt>
      <trkpt lat="47.551429029554129" lon="18.988974988460541">
        <ele>445.85300000000001</ele>
        <time>2010-02-06T20:51:14Z</time>
      </trkpt>
      <trkpt lat="47.551462976261973" lon="18.988949004560709">
        <ele>447.40100000000001</ele>
        <time>2010-02-06T20:51:21Z</time>
      </trkpt>
      <trkpt lat="47.551503041759133" lon="18.988928971812129">
        <ele>447.47800000000001</ele>
        <time>2010-02-06T20:51:27Z</time>
      </trkpt>
      <trkpt lat="47.551532965153456" lon="18.988897958770394">
        <ele>448.37799999999999</ele>
        <time>2010-02-06T20:51:34Z</time>
      </trkpt>
      <trkpt lat="47.551578981801867" lon="18.988897958770394">
        <ele>448.738</ele>
        <time>2010-02-06T20:51:42Z</time>
      </trkpt>
      <trkpt lat="47.551616029813886" lon="18.988874992355704">
        <ele>449.851</ele>
        <time>2010-02-06T20:51:47Z</time>
      </trkpt>
      <trkpt lat="47.551640002056956" lon="18.988848002627492">
        <ele>448.74599999999998</ele>
        <time>2010-02-06T20:51:52Z</time>
      </trkpt>
      <trkpt lat="47.55167000927031" lon="18.988854037597775">
        <ele>452.50200000000001</ele>
        <time>2010-02-06T20:51:57Z</time>
      </trkpt>
      <trkpt lat="47.551701022312045" lon="18.98886401206255">
        <ele>452.54700000000003</ele>
        <time>2010-02-06T20:52:03Z</time>
      </trkpt>
      <trkpt lat="47.551718959584832" lon="18.988892007619143">
        <ele>453.40600000000001</ele>
        <time>2010-02-06T20:52:09Z</time>
      </trkpt>
      <trkpt lat="47.551726000383496" lon="18.988935006782413">
        <ele>453.18400000000003</ele>
        <time>2010-02-06T20:52:14Z</time>
      </trkpt>
      <trkpt lat="47.551743015646935" lon="18.988970965147018">
        <ele>454.10700000000003</ele>
        <time>2010-02-06T20:52:19Z</time>
      </trkpt>
      <trkpt lat="47.551779979839921" lon="18.988984962925315">
        <ele>456.096</ele>
        <time>2010-02-06T20:52:26Z</time>
      </trkpt>
      <trkpt lat="47.5518190395087" lon="18.98897398263216">
        <ele>457.96499999999997</ele>
        <time>2010-02-06T20:52:32Z</time>
      </trkpt>
      <trkpt lat="47.551866983994842" lon="18.988969959318638">
        <ele>458.673</ele>
        <time>2010-02-06T20:52:38Z</time>
      </trkpt>
      <trkpt lat="47.551900008693337" lon="18.988980017602444">
        <ele>457.72500000000002</ele>
        <time>2010-02-06T20:52:42Z</time>
      </trkpt>
      <trkpt lat="47.551889028400183" lon="18.989018993452191">
        <ele>458.77199999999999</ele>
        <time>2010-02-06T20:52:48Z</time>
      </trkpt>
      <trkpt lat="47.55186203867197" lon="18.989029973745346">
        <ele>459.16399999999999</ele>
        <time>2010-02-06T20:53:10Z</time>
      </trkpt>
      <trkpt lat="47.551843011751771" lon="18.989055035635829">
        <ele>457.84699999999998</ele>
        <time>2010-02-06T20:53:36Z</time>
      </trkpt>
      <trkpt lat="47.551873018965125" lon="18.989070039242506">
        <ele>458.315</ele>
        <time>2010-02-06T20:53:41Z</time>
      </trkpt>
      <trkpt lat="47.551902020350099" lon="18.989091999828815">
        <ele>458.90499999999997</ele>
        <time>2010-02-06T20:53:45Z</time>
      </trkpt>
      <trkpt lat="47.551933033391833" lon="18.989083031192422">
        <ele>457.185</ele>
        <time>2010-02-06T20:53:49Z</time>
      </trkpt>
      <trkpt lat="47.551960023120046" lon="18.989057969301939">
        <ele>456.92000000000002</ele>
        <time>2010-02-06T20:53:53Z</time>
      </trkpt>
      <trkpt lat="47.551994975656271" lon="18.989089988172054">
        <ele>457.14499999999998</ele>
        <time>2010-02-06T20:53:57Z</time>
      </trkpt>
      <trkpt lat="47.552020959556103" lon="18.989121001213789">
        <ele>456.60300000000001</ele>
        <time>2010-02-06T20:54:00Z</time>
      </trkpt>
      <trkpt lat="47.552063958719373" lon="18.989146985113621">
        <ele>455.91800000000001</ele>
        <time>2010-02-06T20:54:03Z</time>
      </trkpt>
      <trkpt lat="47.552094971761107" lon="18.98916601203382">
        <ele>455.57799999999997</ele>
        <time>2010-02-06T20:54:05Z</time>
      </trkpt>
      <trkpt lat="47.552131013944745" lon="18.98918797262013">
        <ele>455.13799999999998</ele>
        <time>2010-02-06T20:54:08Z</time>
      </trkpt>
      <trkpt lat="47.552169989794493" lon="18.989196019247174">
        <ele>452.80000000000001</ele>
        <time>2010-02-06T20:54:11Z</time>
      </trkpt>
      <trkpt lat="47.552207037806511" lon="18.989228960126638">
        <ele>452.80399999999997</ele>
        <time>2010-02-06T20:54:14Z</time>
      </trkpt>
      <trkpt lat="47.552231010049582" lon="18.989272965118289">
        <ele>452.03100000000001</ele>
        <time>2010-02-06T20:54:17Z</time>
      </trkpt>
      <trkpt lat="47.552226986736059" lon="18.98931697010994">
        <ele>451.60700000000003</ele>
        <time>2010-02-06T20:54:20Z</time>
      </trkpt>
      <trkpt lat="47.552210977301002" lon="18.989366004243493">
        <ele>451.76100000000002</ele>
        <time>2010-02-06T20:54:23Z</time>
      </trkpt>
      <trkpt lat="47.55220795981586" lon="18.989420989528298">
        <ele>451.43599999999998</ele>
        <time>2010-02-06T20:54:27Z</time>
      </trkpt>
      <trkpt lat="47.552211983129382" lon="18.989481003955007">
        <ele>451.17700000000002</ele>
        <time>2010-02-06T20:54:30Z</time>
      </trkpt>
      <trkpt lat="47.552222963422537" lon="18.989528026431799">
        <ele>450.88099999999997</ele>
        <time>2010-02-06T20:54:32Z</time>
      </trkpt>
      <trkpt lat="47.552236039191484" lon="18.989579994231462">
        <ele>450.29300000000001</ele>
        <time>2010-02-06T20:54:34Z</time>
      </trkpt>
      <trkpt lat="47.552250036969781" lon="18.989644031971693">
        <ele>449.49799999999999</ele>
        <time>2010-02-06T20:54:36Z</time>
      </trkpt>
      <trkpt lat="47.552260011434555" lon="18.989707985892892">
        <ele>447.88499999999999</ele>
        <time>2010-02-06T20:54:38Z</time>
      </trkpt>
      <trkpt lat="47.552263028919697" lon="18.989771017804742">
        <ele>446.947</ele>
        <time>2010-02-06T20:54:40Z</time>
      </trkpt>
      <trkpt lat="47.55227099172771" lon="18.989823991432786">
        <ele>446.58100000000002</ele>
        <time>2010-02-06T20:54:42Z</time>
      </trkpt>
      <trkpt lat="47.552293036133051" lon="18.989865984767675">
        <ele>446.29399999999998</ele>
        <time>2010-02-06T20:54:44Z</time>
      </trkpt>
      <trkpt lat="47.552322037518024" lon="18.989902026951313">
        <ele>444.93799999999999</ele>
        <time>2010-02-06T20:54:46Z</time>
      </trkpt>
      <trkpt lat="47.55233502946794" lon="18.989947037771344">
        <ele>444.04899999999998</ele>
        <time>2010-02-06T20:54:48Z</time>
      </trkpt>
      <trkpt lat="47.552346009761095" lon="18.989993976429105">
        <ele>442.91800000000001</ele>
        <time>2010-02-06T20:54:50Z</time>
      </trkpt>
      <trkpt lat="47.552367970347404" lon="18.990034963935614">
        <ele>442.63999999999999</ele>
        <time>2010-02-06T20:54:52Z</time>
      </trkpt>
      <trkpt lat="47.5524009950459" lon="18.990057008340955">
        <ele>441.51299999999998</ele>
        <time>2010-02-06T20:54:54Z</time>
      </trkpt>
      <trkpt lat="47.552438965067267" lon="18.990082992240787">
        <ele>441.79000000000002</ele>
        <time>2010-02-06T20:54:56Z</time>
      </trkpt>
      <trkpt lat="47.552474001422524" lon="18.990105036646128">
        <ele>440.87700000000001</ele>
        <time>2010-02-06T20:54:58Z</time>
      </trkpt>
      <trkpt lat="47.55250602029264" lon="18.990133032202721">
        <ele>439.92700000000002</ele>
        <time>2010-02-06T20:55:00Z</time>
      </trkpt>
      <trkpt lat="47.552540972828865" lon="18.99017502553761">
        <ele>439.28300000000002</ele>
        <time>2010-02-06T20:55:02Z</time>
      </trkpt>
      <trkpt lat="47.552575003355742" lon="18.99021802470088">
        <ele>437.70400000000001</ele>
        <time>2010-02-06T20:55:04Z</time>
      </trkpt>
      <trkpt lat="47.552608028054237" lon="18.990238979458809">
        <ele>435.517</ele>
        <time>2010-02-06T20:55:06Z</time>
      </trkpt>
      <trkpt lat="47.552644992247224" lon="18.990273009985685">
        <ele>434.85300000000001</ele>
        <time>2010-02-06T20:55:08Z</time>
      </trkpt>
      <trkpt lat="47.552687991410494" lon="18.990303017199039">
        <ele>433.97399999999999</ele>
        <time>2010-02-06T20:55:10Z</time>
      </trkpt>
      <trkpt lat="47.552735013887286" lon="18.990308968350291">
        <ele>432.80399999999997</ele>
        <time>2010-02-06T20:55:12Z</time>
      </trkpt>
      <trkpt lat="47.552777007222176" lon="18.990315003320575">
        <ele>432.28800000000001</ele>
        <time>2010-02-06T20:55:14Z</time>
      </trkpt>
      <trkpt lat="47.552826963365078" lon="18.990336041897535">
        <ele>431.86200000000002</ele>
        <time>2010-02-06T20:55:16Z</time>
      </trkpt>
      <trkpt lat="47.552868034690619" lon="18.990358002483845">
        <ele>431.464</ele>
        <time>2010-02-06T20:55:18Z</time>
      </trkpt>
      <trkpt lat="47.552911033853889" lon="18.990382980555296">
        <ele>429.94900000000001</ele>
        <time>2010-02-06T20:55:20Z</time>
      </trkpt>
      <trkpt lat="47.55295998416841" lon="18.990394966676831">
        <ele>429.18599999999998</ele>
        <time>2010-02-06T20:55:22Z</time>
      </trkpt>
      <trkpt lat="47.553010024130344" lon="18.990393960848451">
        <ele>428.30599999999998</ele>
        <time>2010-02-06T20:55:24Z</time>
      </trkpt>
      <trkpt lat="47.553059980273247" lon="18.990405024960637">
        <ele>426.44400000000002</ele>
        <time>2010-02-06T20:55:26Z</time>
      </trkpt>
      <trkpt lat="47.553101973608136" lon="18.990407958626747">
        <ele>426.58600000000001</ele>
        <time>2010-02-06T20:55:28Z</time>
      </trkpt>
      <trkpt lat="47.553147990256548" lon="18.99041298776865">
        <ele>425.14699999999999</ele>
        <time>2010-02-06T20:55:30Z</time>
      </trkpt>
      <trkpt lat="47.553188977763057" lon="18.990425979718566">
        <ele>424.22000000000003</ele>
        <time>2010-02-06T20:55:32Z</time>
      </trkpt>
      <trkpt lat="47.553236000239849" lon="18.990423968061805">
        <ele>423.59699999999998</ele>
        <time>2010-02-06T20:55:34Z</time>
      </trkpt>
      <trkpt lat="47.553270030766726" lon="18.990428997203708">
        <ele>422.721</ele>
        <time>2010-02-06T20:55:36Z</time>
      </trkpt>
      <trkpt lat="47.55330297164619" lon="18.990442994982004">
        <ele>423.40199999999999</ele>
        <time>2010-02-06T20:55:38Z</time>
      </trkpt>
      <trkpt lat="47.553340019658208" lon="18.990439977496862">
        <ele>421.91800000000001</ele>
        <time>2010-02-06T20:55:40Z</time>
      </trkpt>
      <trkpt lat="47.553415037691593" lon="18.990436038002372">
        <ele>422.02199999999999</ele>
        <time>2010-02-06T20:55:44Z</time>
      </trkpt>
      <trkpt lat="47.55345200188458" lon="18.990437965840101">
        <ele>419.327</ele>
        <time>2010-02-06T20:55:46Z</time>
      </trkpt>
      <trkpt lat="47.553501036018133" lon="18.990464033558965">
        <ele>418.20499999999998</ele>
        <time>2010-02-06T20:55:49Z</time>
      </trkpt>
      <trkpt lat="47.553525008261204" lon="18.990497980266809">
        <ele>417.72399999999999</ele>
        <time>2010-02-06T20:55:51Z</time>
      </trkpt>
      <trkpt lat="47.553542023524642" lon="18.990547014400363">
        <ele>416.82499999999999</ele>
        <time>2010-02-06T20:55:53Z</time>
      </trkpt>
      <trkpt lat="47.553579993546009" lon="18.99060501717031">
        <ele>417.07499999999999</ele>
        <time>2010-02-06T20:55:56Z</time>
      </trkpt>
      <trkpt lat="47.553615029901266" lon="18.990636030212045">
        <ele>417.04700000000003</ele>
        <time>2010-02-06T20:55:58Z</time>
      </trkpt>
      <trkpt lat="47.55364503711462" lon="18.990669976919889">
        <ele>417.76900000000001</ele>
        <time>2010-02-06T20:56:00Z</time>
      </trkpt>
      <trkpt lat="47.553677977994084" lon="18.990709036588669">
        <ele>415.99099999999999</ele>
        <time>2010-02-06T20:56:02Z</time>
      </trkpt>
      <trkpt lat="47.553708991035819" lon="18.990741977468133">
        <ele>416.11099999999999</ele>
        <time>2010-02-06T20:56:04Z</time>
      </trkpt>
      <trkpt lat="47.553747966885567" lon="18.990786988288164">
        <ele>415.92700000000002</ele>
        <time>2010-02-06T20:56:08Z</time>
      </trkpt>
      <trkpt lat="47.553775040432811" lon="18.990837028250098">
        <ele>416.79000000000002</ele>
        <time>2010-02-06T20:56:12Z</time>
      </trkpt>
      <trkpt lat="47.553809992969036" lon="18.990893019363284">
        <ele>415.71300000000002</ele>
        <time>2010-02-06T20:56:16Z</time>
      </trkpt>
      <trkpt lat="47.553841006010771" lon="18.990943981334567">
        <ele>416.33800000000002</ele>
        <time>2010-02-06T20:56:20Z</time>
      </trkpt>
      <trkpt lat="47.553890040144324" lon="18.990989997982979">
        <ele>415.58499999999998</ele>
        <time>2010-02-06T20:56:24Z</time>
      </trkpt>
      <trkpt lat="47.553929015994072" lon="18.991026962175965">
        <ele>415.73000000000002</ele>
        <time>2010-02-06T20:56:27Z</time>
      </trkpt>
      <trkpt lat="47.553962962701917" lon="18.991084964945912">
        <ele>415.28100000000001</ele>
        <time>2010-02-06T20:56:31Z</time>
      </trkpt>
      <trkpt lat="47.554005039855838" lon="18.991136010736227">
        <ele>415.875</ele>
        <time>2010-02-06T20:56:35Z</time>
      </trkpt>
      <trkpt lat="47.55403496325016" lon="18.991175992414355">
        <ele>415.42700000000002</ele>
        <time>2010-02-06T20:56:39Z</time>
      </trkpt>
      <trkpt lat="47.55407502874732" lon="18.99118697270751">
        <ele>414.89499999999998</ele>
        <time>2010-02-06T20:56:42Z</time>
      </trkpt>
      <trkpt lat="47.554121967405081" lon="18.991213962435722">
        <ele>414.24799999999999</ele>
        <time>2010-02-06T20:56:46Z</time>
      </trkpt>
      <trkpt lat="47.554153986275196" lon="18.991262996569276">
        <ele>414.84100000000001</ele>
        <time>2010-02-06T20:56:51Z</time>
      </trkpt>
      <trkpt lat="47.554224980995059" lon="18.991301972419024">
        <ele>413.613</ele>
        <time>2010-02-06T20:56:58Z</time>
      </trkpt>
      <trkpt lat="47.554273009300232" lon="18.991328962147236">
        <ele>413.16699999999997</ele>
        <time>2010-02-06T20:57:02Z</time>
      </trkpt>
      <trkpt lat="47.554317014291883" lon="18.991365004330873">
        <ele>412.84500000000003</ele>
        <time>2010-02-06T20:57:06Z</time>
      </trkpt>
      <trkpt lat="47.554365964606404" lon="18.991403980180621">
        <ele>412.85599999999999</ele>
        <time>2010-02-06T20:57:10Z</time>
      </trkpt>
      <trkpt lat="47.554417010396719" lon="18.991430969908834">
        <ele>413.09399999999999</ele>
        <time>2010-02-06T20:57:14Z</time>
      </trkpt>
      <trkpt lat="47.554451040923595" lon="18.991472041234374">
        <ele>412.53399999999999</ele>
        <time>2010-02-06T20:57:17Z</time>
      </trkpt>
      <trkpt lat="47.554485993459821" lon="18.991500958800316">
        <ele>412.767</ele>
        <time>2010-02-06T20:57:21Z</time>
      </trkpt>
      <trkpt lat="47.55452698096633" lon="18.991540018469095">
        <ele>411.88099999999997</ele>
        <time>2010-02-06T20:57:25Z</time>
      </trkpt>
      <trkpt lat="47.554582972079515" lon="18.991569019854069">
        <ele>412.12400000000002</ele>
        <time>2010-02-06T20:57:29Z</time>
      </trkpt>
      <trkpt lat="47.554629994556308" lon="18.991620987653732">
        <ele>411.96100000000001</ele>
        <time>2010-02-06T20:57:33Z</time>
      </trkpt>
      <trkpt lat="47.554683974012733" lon="18.991660969331861">
        <ele>410.928</ele>
        <time>2010-02-06T20:57:37Z</time>
      </trkpt>
      <trkpt lat="47.554739965125918" lon="18.991713020950556">
        <ele>410.40499999999997</ele>
        <time>2010-02-06T20:57:42Z</time>
      </trkpt>
      <trkpt lat="47.554802997037768" lon="18.991719977930188">
        <ele>408.37799999999999</ele>
        <time>2010-02-06T20:57:46Z</time>
      </trkpt>
      <trkpt lat="47.55487198010087" lon="18.991717966273427">
        <ele>407.10899999999998</ele>
        <time>2010-02-06T20:57:49Z</time>
      </trkpt>
      <trkpt lat="47.554925959557295" lon="18.991706985980272">
        <ele>406.29700000000003</ele>
        <time>2010-02-06T20:57:51Z</time>
      </trkpt>
      <trkpt lat="47.554975999519229" lon="18.991701034829021">
        <ele>405.15600000000001</ele>
        <time>2010-02-06T20:57:53Z</time>
      </trkpt>
      <trkpt lat="47.555018998682499" lon="18.991685025393963">
        <ele>405.08800000000002</ele>
        <time>2010-02-06T20:57:55Z</time>
      </trkpt>
      <trkpt lat="47.555067026987672" lon="18.991674967110157">
        <ele>404.44400000000002</ele>
        <time>2010-02-06T20:57:58Z</time>
      </trkpt>
      <trkpt lat="47.555136010050774" lon="18.991688964888453">
        <ele>403.94999999999999</ele>
        <time>2010-02-06T20:58:01Z</time>
      </trkpt>
      <trkpt lat="47.555189989507198" lon="18.99170296266675">
        <ele>403.024</ele>
        <time>2010-02-06T20:58:04Z</time>
      </trkpt>
      <trkpt lat="47.555240029469132" lon="18.991719977930188">
        <ele>401.09399999999999</ele>
        <time>2010-02-06T20:58:07Z</time>
      </trkpt>
      <trkpt lat="47.555294008925557" lon="18.991741016507149">
        <ele>401.209</ele>
        <time>2010-02-06T20:58:10Z</time>
      </trkpt>
      <trkpt lat="47.555342959240079" lon="18.991753002628684">
        <ele>400.221</ele>
        <time>2010-02-06T20:58:12Z</time>
      </trkpt>
      <trkpt lat="47.555396016687155" lon="18.991761971265078">
        <ele>399.70999999999998</ele>
        <time>2010-02-06T20:58:15Z</time>
      </trkpt>
      <trkpt lat="47.555455025285482" lon="18.991799019277096">
        <ele>399.20400000000001</ele>
        <time>2010-02-06T20:58:20Z</time>
      </trkpt>
      <trkpt lat="47.555558038875461" lon="18.991820979863405">
        <ele>398.37700000000001</ele>
        <time>2010-02-06T20:58:27Z</time>
      </trkpt>
      <trkpt lat="47.555607995018363" lon="18.991775969043374">
        <ele>397.90899999999999</ele>
        <time>2010-02-06T20:58:30Z</time>
      </trkpt>
      <trkpt lat="47.555650994181633" lon="18.991706985980272">
        <ele>397.13</ele>
        <time>2010-02-06T20:58:33Z</time>
      </trkpt>
      <trkpt lat="47.555683013051748" lon="18.991650994867086">
        <ele>396.92099999999999</ele>
        <time>2010-02-06T20:58:35Z</time>
      </trkpt>
      <trkpt lat="47.555716037750244" lon="18.991601960733533">
        <ele>395.41800000000001</ele>
        <time>2010-02-06T20:58:37Z</time>
      </trkpt>
      <trkpt lat="47.555759036913514" lon="18.991538006812334">
        <ele>394.29399999999998</ele>
        <time>2010-02-06T20:58:40Z</time>
      </trkpt>
      <trkpt lat="47.55579499527812" lon="18.991509005427361">
        <ele>393.84500000000003</ele>
        <time>2010-02-06T20:58:42Z</time>
      </trkpt>
      <trkpt lat="47.555834976956248" lon="18.991471035405993">
        <ele>394.22000000000003</ele>
        <time>2010-02-06T20:58:44Z</time>
      </trkpt>
      <trkpt lat="47.555869007483125" lon="18.991437004879117">
        <ele>393.64600000000002</ele>
        <time>2010-02-06T20:58:46Z</time>
      </trkpt>
      <trkpt lat="47.555894991382957" lon="18.991400040686131">
        <ele>392.44999999999999</ele>
        <time>2010-02-06T20:58:48Z</time>
      </trkpt>
      <trkpt lat="47.555928016081452" lon="18.991357041522861">
        <ele>391.91699999999997</ele>
        <time>2010-02-06T20:58:50Z</time>
      </trkpt>
      <trkpt lat="47.555961962789297" lon="18.991319993510842">
        <ele>391.98399999999998</ele>
        <time>2010-02-06T20:58:52Z</time>
      </trkpt>
      <trkpt lat="47.556013008579612" lon="18.991280011832714">
        <ele>389.89100000000002</ele>
        <time>2010-02-06T20:58:55Z</time>
      </trkpt>
      <trkpt lat="47.556060031056404" lon="18.991227960214019">
        <ele>387.577</ele>
        <time>2010-02-06T20:58:58Z</time>
      </trkpt>
      <trkpt lat="47.556099006906152" lon="18.991171969100833">
        <ele>387.13299999999998</ele>
        <time>2010-02-06T20:59:01Z</time>
      </trkpt>
      <trkpt lat="47.556123984977603" lon="18.991116983816028">
        <ele>386.23500000000001</ele>
        <time>2010-02-06T20:59:03Z</time>
      </trkpt>
      <trkpt lat="47.55615902133286" lon="18.991056969389319">
        <ele>386.36700000000002</ele>
        <time>2010-02-06T20:59:05Z</time>
      </trkpt>
      <trkpt lat="47.556177964434028" lon="18.991006007418036">
        <ele>385.68200000000002</ele>
        <time>2010-02-06T20:59:07Z</time>
      </trkpt>
      <trkpt lat="47.55620202049613" lon="18.990948004648089">
        <ele>384.39699999999999</ele>
        <time>2010-02-06T20:59:10Z</time>
      </trkpt>
      <trkpt lat="47.556225992739201" lon="18.990891007706523">
        <ele>383.93000000000001</ele>
        <time>2010-02-06T20:59:13Z</time>
      </trkpt>
      <trkpt lat="47.556249964982271" lon="18.990831999108195">
        <ele>383.27800000000002</ele>
        <time>2010-02-06T20:59:16Z</time>
      </trkpt>
      <trkpt lat="47.556277960538864" lon="18.990795034915209">
        <ele>382.505</ele>
        <time>2010-02-06T20:59:18Z</time>
      </trkpt>
      <trkpt lat="47.556303022429347" lon="18.990753963589668">
        <ele>381.10599999999999</ele>
        <time>2010-02-06T20:59:20Z</time>
      </trkpt>
      <trkpt lat="47.556324983015656" lon="18.99071398191154">
        <ele>382.00900000000001</ele>
        <time>2010-02-06T20:59:22Z</time>
      </trkpt>
      <trkpt lat="47.556363036856055" lon="18.990672994405031">
        <ele>379.95600000000002</ele>
        <time>2010-02-06T20:59:24Z</time>
      </trkpt>
      <trkpt lat="47.556393966078758" lon="18.990637036040425">
        <ele>378.52600000000001</ele>
        <time>2010-02-06T20:59:26Z</time>
      </trkpt>
      <trkpt lat="47.556421961635351" lon="18.990594036877155">
        <ele>377.50999999999999</ele>
        <time>2010-02-06T20:59:28Z</time>
      </trkpt>
      <trkpt lat="47.556445011869073" lon="18.990552965551615">
        <ele>377.85399999999998</ele>
        <time>2010-02-06T20:59:30Z</time>
      </trkpt>
      <trkpt lat="47.556476024910808" lon="18.990511978045106">
        <ele>377.59199999999998</ele>
        <time>2010-02-06T20:59:32Z</time>
      </trkpt>
      <trkpt lat="47.556511983275414" lon="18.990466967225075">
        <ele>376.38400000000001</ele>
        <time>2010-02-06T20:59:34Z</time>
      </trkpt>
      <trkpt lat="47.556545007973909" lon="18.990426985546947">
        <ele>375.54000000000002</ele>
        <time>2010-02-06T20:59:36Z</time>
      </trkpt>
      <trkpt lat="47.556571997702122" lon="18.990388009697199">
        <ele>374.84699999999998</ele>
        <time>2010-02-06T20:59:38Z</time>
      </trkpt>
      <trkpt lat="47.556598987430334" lon="18.990340987220407">
        <ele>374.61200000000002</ele>
        <time>2010-02-06T20:59:40Z</time>
      </trkpt>
      <trkpt lat="47.556630000472069" lon="18.990299999713898">
        <ele>373.46300000000002</ele>
        <time>2010-02-06T20:59:42Z</time>
      </trkpt>
      <trkpt lat="47.556648021563888" lon="18.990249959751964">
        <ele>372.48500000000001</ele>
        <time>2010-02-06T20:59:44Z</time>
      </trkpt>
      <trkpt lat="47.556662019342184" lon="18.990200003609061">
        <ele>371.589</ele>
        <time>2010-02-06T20:59:46Z</time>
      </trkpt>
      <trkpt lat="47.556689009070396" lon="18.990133032202721">
        <ele>371.048</ele>
        <time>2010-02-06T20:59:49Z</time>
      </trkpt>
      <trkpt lat="47.556728990748525" lon="18.990083998069167">
        <ele>369.83600000000001</ele>
        <time>2010-02-06T20:59:52Z</time>
      </trkpt>
      <trkpt lat="47.556763021275401" lon="18.990062037482858">
        <ele>369.37400000000002</ele>
        <time>2010-02-06T20:59:56Z</time>
      </trkpt>
      <trkpt lat="47.556787999346852" lon="18.990083998069167">
        <ele>368.41699999999997</ele>
        <time>2010-02-06T20:59:59Z</time>
      </trkpt>
      <trkpt lat="47.556813983246684" lon="18.990105958655477">
        <ele>366.96300000000002</ele>
        <time>2010-02-06T21:00:01Z</time>
      </trkpt>
      <trkpt lat="47.556838961318135" lon="18.990143006667495">
        <ele>367.01400000000001</ele>
        <time>2010-02-06T21:00:03Z</time>
      </trkpt>
      <trkpt lat="47.556857988238335" lon="18.990178965032101">
        <ele>365.33499999999998</ele>
        <time>2010-02-06T21:00:05Z</time>
      </trkpt>
      <trkpt lat="47.556879026815295" lon="18.990233028307557">
        <ele>365.89499999999998</ele>
        <time>2010-02-06T21:00:09Z</time>
      </trkpt>
      <trkpt lat="47.556909034028649" lon="18.990276027470827">
        <ele>365.31799999999998</ele>
        <time>2010-02-06T21:00:12Z</time>
      </trkpt>
      <trkpt lat="47.556932000443339" lon="18.990321960300207">
        <ele>365.05700000000002</ele>
        <time>2010-02-06T21:00:15Z</time>
      </trkpt>
      <trkpt lat="47.556944992393255" lon="18.990372000262141">
        <ele>365.39299999999997</ele>
        <time>2010-02-06T21:00:18Z</time>
      </trkpt>
      <trkpt lat="47.556983968243003" lon="18.990407036617398">
        <ele>364.41399999999999</ele>
        <time>2010-02-06T21:00:21Z</time>
      </trkpt>
      <trkpt lat="47.557027973234653" lon="18.990428997203708">
        <ele>365.08499999999998</ele>
        <time>2010-02-06T21:00:24Z</time>
      </trkpt>
      <trkpt lat="47.557068038731813" lon="18.990453975275159">
        <ele>364.69400000000002</ele>
        <time>2010-02-06T21:00:27Z</time>
      </trkpt>
      <trkpt lat="47.557100979611278" lon="18.990477025508881">
        <ele>365.30200000000002</ele>
        <time>2010-02-06T21:00:30Z</time>
      </trkpt>
      <trkpt lat="47.557131992653012" lon="18.990516001358628">
        <ele>364.92000000000002</ele>
        <time>2010-02-06T21:00:33Z</time>
      </trkpt>
      <trkpt lat="47.557161999866366" lon="18.990555983036757">
        <ele>365.065</ele>
        <time>2010-02-06T21:00:36Z</time>
      </trkpt>
      <trkpt lat="47.557197036221623" lon="18.990589007735252">
        <ele>364.83100000000002</ele>
        <time>2010-02-06T21:00:39Z</time>
      </trkpt>
      <trkpt lat="47.55723400041461" lon="18.990621026605368">
        <ele>365.27999999999997</ele>
        <time>2010-02-06T21:00:42Z</time>
      </trkpt>
      <trkpt lat="47.557281022891402" lon="18.990638041868806">
        <ele>365.14999999999998</ele>
        <time>2010-02-06T21:00:45Z</time>
      </trkpt>
      <trkpt lat="47.557323016226292" lon="18.990647010505199">
        <ele>364.983</ele>
        <time>2010-02-06T21:00:48Z</time>
      </trkpt>
      <trkpt lat="47.557361992076039" lon="18.990665031597018">
        <ele>365.35700000000003</ele>
        <time>2010-02-06T21:00:51Z</time>
      </trkpt>
      <trkpt lat="47.55738596431911" lon="18.990690009668469">
        <ele>365.54399999999998</ele>
        <time>2010-02-06T21:00:53Z</time>
      </trkpt>
      <trkpt lat="47.557422006502748" lon="18.990705013275146">
        <ele>365.32400000000001</ele>
        <time>2010-02-06T21:00:56Z</time>
      </trkpt>
      <trkpt lat="47.557460982352495" lon="18.990724040195346">
        <ele>365.637</ele>
        <time>2010-02-06T21:00:59Z</time>
      </trkpt>
      <trkpt lat="47.557495012879372" lon="18.990732003003359">
        <ele>365.66399999999999</ele>
        <time>2010-02-06T21:01:02Z</time>
      </trkpt>
      <trkpt lat="47.557530971243978" lon="18.990740971639752">
        <ele>365.274</ele>
        <time>2010-02-06T21:01:05Z</time>
      </trkpt>
      <trkpt lat="47.557570030912757" lon="18.990749018266797">
        <ele>365.50400000000002</ele>
        <time>2010-02-06T21:01:08Z</time>
      </trkpt>
      <trkpt lat="47.557613030076027" lon="18.990761004388332">
        <ele>365.76600000000002</ele>
        <time>2010-02-06T21:01:11Z</time>
      </trkpt>
      <trkpt lat="47.557651000097394" lon="18.990771984681487">
        <ele>366.154</ele>
        <time>2010-02-06T21:01:14Z</time>
      </trkpt>
      <trkpt lat="47.557692993432283" lon="18.990787994116545">
        <ele>366.27999999999997</ele>
        <time>2010-02-06T21:01:17Z</time>
      </trkpt>
      <trkpt lat="47.557729035615921" lon="18.99079998023808">
        <ele>366.197</ele>
        <time>2010-02-06T21:01:20Z</time>
      </trkpt>
      <trkpt lat="47.557765999808908" lon="18.990810960531235">
        <ele>365.25400000000002</ele>
        <time>2010-02-06T21:01:23Z</time>
      </trkpt>
      <trkpt lat="47.557806987315416" lon="18.990822024643421">
        <ele>365.95699999999999</ele>
        <time>2010-02-06T21:01:26Z</time>
      </trkpt>
      <trkpt lat="47.557843029499054" lon="18.990822024643421">
        <ele>366.298</ele>
        <time>2010-02-06T21:01:29Z</time>
      </trkpt>
      <trkpt lat="47.55787898786366" lon="18.99082001298666">
        <ele>366.00400000000002</ele>
        <time>2010-02-06T21:01:32Z</time>
      </trkpt>
      <trkpt lat="47.557923998683691" lon="18.990795034915209">
        <ele>365.78300000000002</ele>
        <time>2010-02-06T21:01:35Z</time>
      </trkpt>
      <trkpt lat="47.557970015332103" lon="18.990772990509868">
        <ele>365.851</ele>
        <time>2010-02-06T21:01:38Z</time>
      </trkpt>
      <trkpt lat="47.558001028373837" lon="18.990764021873474">
        <ele>366.01900000000001</ele>
        <time>2010-02-06T21:01:40Z</time>
      </trkpt>
      <trkpt lat="47.558046039193869" lon="18.990755975246429">
        <ele>365.35700000000003</ele>
        <time>2010-02-06T21:01:43Z</time>
      </trkpt>
      <trkpt lat="47.558088032528758" lon="18.99075698107481">
        <ele>365.09699999999998</ele>
        <time>2010-02-06T21:01:46Z</time>
      </trkpt>
      <trkpt lat="47.558131031692028" lon="18.990758992731571">
        <ele>365.19400000000002</ele>
        <time>2010-02-06T21:01:49Z</time>
      </trkpt>
      <trkpt lat="47.558172019198537" lon="18.99075698107481">
        <ele>364.77600000000001</ele>
        <time>2010-02-06T21:01:52Z</time>
      </trkpt>
      <trkpt lat="47.558212000876665" lon="18.990753041580319">
        <ele>363.899</ele>
        <time>2010-02-06T21:01:55Z</time>
      </trkpt>
      <trkpt lat="47.558248965069652" lon="18.990754969418049">
        <ele>364.16399999999999</ele>
        <time>2010-02-06T21:01:58Z</time>
      </trkpt>
      <trkpt lat="47.558285007253289" lon="18.990770978853106">
        <ele>365.06799999999998</ele>
        <time>2010-02-06T21:02:01Z</time>
      </trkpt>
      <trkpt lat="47.558327000588179" lon="18.990781037136912">
        <ele>364.30099999999999</ele>
        <time>2010-02-06T21:02:04Z</time>
      </trkpt>
      <trkpt lat="47.558366982266307" lon="18.990781959146261">
        <ele>364.05500000000001</ele>
        <time>2010-02-06T21:02:07Z</time>
      </trkpt>
      <trkpt lat="47.558406963944435" lon="18.990752035751939">
        <ele>363.49900000000002</ele>
        <time>2010-02-06T21:02:10Z</time>
      </trkpt>
      <trkpt lat="47.558445017784834" lon="18.990727979689837">
        <ele>363.35599999999999</ele>
        <time>2010-02-06T21:02:13Z</time>
      </trkpt>
      <trkpt lat="47.558484999462962" lon="18.990709958598018">
        <ele>362.99900000000002</ele>
        <time>2010-02-06T21:02:16Z</time>
      </trkpt>
      <trkpt lat="47.558527998626232" lon="18.990686992183328">
        <ele>361.98099999999999</ele>
        <time>2010-02-06T21:02:19Z</time>
      </trkpt>
      <trkpt lat="47.558570997789502" lon="18.990663019940257">
        <ele>362.06599999999997</ele>
        <time>2010-02-06T21:02:22Z</time>
      </trkpt>
      <trkpt lat="47.55861097946763" lon="18.990634018555284">
        <ele>362.05900000000003</ele>
        <time>2010-02-06T21:02:25Z</time>
      </trkpt>
      <trkpt lat="47.558651966974139" lon="18.990608034655452">
        <ele>362.07499999999999</ele>
        <time>2010-02-06T21:02:28Z</time>
      </trkpt>
      <trkpt lat="47.558694966137409" lon="18.990580961108208">
        <ele>361.49299999999999</ele>
        <time>2010-02-06T21:02:31Z</time>
      </trkpt>
      <trkpt lat="47.558724973350763" lon="18.990569980815053">
        <ele>360.74000000000001</ele>
        <time>2010-02-06T21:02:33Z</time>
      </trkpt>
      <trkpt lat="47.558755986392498" lon="18.99056201800704">
        <ele>360.22399999999999</ele>
        <time>2010-02-06T21:02:35Z</time>
      </trkpt>
      <trkpt lat="47.558788005262613" lon="18.990553971379995">
        <ele>361.07400000000001</ele>
        <time>2010-02-06T21:02:37Z</time>
      </trkpt>
      <trkpt lat="47.558832010254264" lon="18.990537039935589">
        <ele>359.767</ele>
        <time>2010-02-06T21:02:40Z</time>
      </trkpt>
      <trkpt lat="47.558872997760773" lon="18.990514995530248">
        <ele>360.12</ele>
        <time>2010-02-06T21:02:43Z</time>
      </trkpt>
      <trkpt lat="47.558914991095662" lon="18.990493034943938">
        <ele>359.52199999999999</ele>
        <time>2010-02-06T21:02:46Z</time>
      </trkpt>
      <trkpt lat="47.55895497277379" lon="18.990485994145274">
        <ele>359.63</ele>
        <time>2010-02-06T21:02:49Z</time>
      </trkpt>
      <trkpt lat="47.55899696610868" lon="18.990483982488513">
        <ele>359.40100000000001</ele>
        <time>2010-02-06T21:02:52Z</time>
      </trkpt>
      <trkpt lat="47.559036025777459" lon="18.990480965003371">
        <ele>358.61900000000003</ele>
        <time>2010-02-06T21:02:55Z</time>
      </trkpt>
      <trkpt lat="47.559072989970446" lon="18.990468978881836">
        <ele>358.69499999999999</ele>
        <time>2010-02-06T21:02:58Z</time>
      </trkpt>
      <trkpt lat="47.559109032154083" lon="18.990440983325243">
        <ele>358.52800000000002</ele>
        <time>2010-02-06T21:03:01Z</time>
      </trkpt>
      <trkpt lat="47.559139039367437" lon="18.990394966676831">
        <ele>358.31900000000002</ele>
        <time>2010-02-06T21:03:04Z</time>
      </trkpt>
      <trkpt lat="47.55916896276176" lon="18.990348028019071">
        <ele>357.86200000000002</ele>
        <time>2010-02-06T21:03:07Z</time>
      </trkpt>
      <trkpt lat="47.559194024652243" lon="18.990316009148955">
        <ele>358.27800000000002</ele>
        <time>2010-02-06T21:03:09Z</time>
      </trkpt>
      <trkpt lat="47.559217996895313" lon="18.990287007763982">
        <ele>357.95699999999999</ele>
        <time>2010-02-06T21:03:11Z</time>
      </trkpt>
      <trkpt lat="47.55925202742219" lon="18.990248031914234">
        <ele>357.91000000000003</ele>
        <time>2010-02-06T21:03:14Z</time>
      </trkpt>
      <trkpt lat="47.559285974130034" lon="18.990216013044119">
        <ele>357.85399999999998</ele>
        <time>2010-02-06T21:03:17Z</time>
      </trkpt>
      <trkpt lat="47.559316987171769" lon="18.990187011659145">
        <ele>357.64699999999999</ele>
        <time>2010-02-06T21:03:20Z</time>
      </trkpt>
      <trkpt lat="47.559348000213504" lon="18.990147029981017">
        <ele>358.024</ele>
        <time>2010-02-06T21:03:23Z</time>
      </trkpt>
      <trkpt lat="47.559379013255239" lon="18.990105036646128">
        <ele>358.08699999999999</ele>
        <time>2010-02-06T21:03:26Z</time>
      </trkpt>
      <trkpt lat="47.559412959963083" lon="18.990061031654477">
        <ele>357.76499999999999</ele>
        <time>2010-02-06T21:03:29Z</time>
      </trkpt>
      <trkpt lat="47.559445984661579" lon="18.990019038319588">
        <ele>357.88999999999999</ele>
        <time>2010-02-06T21:03:32Z</time>
      </trkpt>
      <trkpt lat="47.559479009360075" lon="18.989978972822428">
        <ele>357.07499999999999</ele>
        <time>2010-02-06T21:03:35Z</time>
      </trkpt>
      <trkpt lat="47.5595139618963" lon="18.989946031942964">
        <ele>357.74599999999998</ele>
        <time>2010-02-06T21:03:38Z</time>
      </trkpt>
      <trkpt lat="47.559537012130022" lon="18.989922981709242">
        <ele>357.22500000000002</ele>
        <time>2010-02-06T21:03:40Z</time>
      </trkpt>
      <trkpt lat="47.559568025171757" lon="18.989887023344636">
        <ele>357.63499999999999</ele>
        <time>2010-02-06T21:03:43Z</time>
      </trkpt>
      <trkpt lat="47.559600966051221" lon="18.989858021959662">
        <ele>358.37099999999998</ele>
        <time>2010-02-06T21:03:46Z</time>
      </trkpt>
      <trkpt lat="47.559630973264575" lon="18.989824997261167">
        <ele>358.12099999999998</ele>
        <time>2010-02-06T21:03:49Z</time>
      </trkpt>
      <trkpt lat="47.559663997963071" lon="18.989798007532954">
        <ele>358.48099999999999</ele>
        <time>2010-02-06T21:03:52Z</time>
      </trkpt>
      <trkpt lat="47.559700040146708" lon="18.989764982834458">
        <ele>358.45299999999997</ele>
        <time>2010-02-06T21:03:55Z</time>
      </trkpt>
      <trkpt lat="47.559732981026173" lon="18.989735981449485">
        <ele>358.55700000000002</ele>
        <time>2010-02-06T21:03:58Z</time>
      </trkpt>
      <trkpt lat="47.559764999896288" lon="18.989706980064511">
        <ele>358.26999999999998</ele>
        <time>2010-02-06T21:04:01Z</time>
      </trkpt>
      <trkpt lat="47.559801964089274" lon="18.989683007821441">
        <ele>358.37</ele>
        <time>2010-02-06T21:04:04Z</time>
      </trkpt>
      <trkpt lat="47.55983498878777" lon="18.989663980901241">
        <ele>358.077</ele>
        <time>2010-02-06T21:04:07Z</time>
      </trkpt>
      <trkpt lat="47.559870025143027" lon="18.98965802974999">
        <ele>358.08999999999997</ele>
        <time>2010-02-06T21:04:10Z</time>
      </trkpt>
      <trkpt lat="47.559904977679253" lon="18.989636991173029">
        <ele>358.13299999999998</ele>
        <time>2010-02-06T21:04:13Z</time>
      </trkpt>
      <trkpt lat="47.559944037348032" lon="18.989619975909591">
        <ele>358.50400000000002</ele>
        <time>2010-02-06T21:04:16Z</time>
      </trkpt>
      <trkpt lat="47.559982007369399" lon="18.989598015323281">
        <ele>358.12900000000002</ele>
        <time>2010-02-06T21:04:19Z</time>
      </trkpt>
      <trkpt lat="47.560012014582753" lon="18.989579994231462">
        <ele>358.30000000000001</ele>
        <time>2010-02-06T21:04:21Z</time>
      </trkpt>
      <trkpt lat="47.560053002089262" lon="18.989556021988392">
        <ele>358.19999999999999</ele>
        <time>2010-02-06T21:04:24Z</time>
      </trkpt>
      <trkpt lat="47.560093989595771" lon="18.989538000896573">
        <ele>357.95999999999998</ele>
        <time>2010-02-06T21:04:27Z</time>
      </trkpt>
      <trkpt lat="47.56013497710228" lon="18.989519979804754">
        <ele>358.464</ele>
        <time>2010-02-06T21:04:30Z</time>
      </trkpt>
      <trkpt lat="47.560172025114298" lon="18.989500030875206">
        <ele>357.40699999999998</ele>
        <time>2010-02-06T21:04:33Z</time>
      </trkpt>
      <trkpt lat="47.560207983478904" lon="18.989476980641484">
        <ele>358.35199999999998</ele>
        <time>2010-02-06T21:04:36Z</time>
      </trkpt>
      <trkpt lat="47.560243019834161" lon="18.989447979256511">
        <ele>358.16199999999998</ele>
        <time>2010-02-06T21:04:39Z</time>
      </trkpt>
      <trkpt lat="47.560276966542006" lon="18.98942300118506">
        <ele>358.07900000000001</ele>
        <time>2010-02-06T21:04:42Z</time>
      </trkpt>
      <trkpt lat="47.56030797958374" lon="18.98940104059875">
        <ele>358.07299999999998</ele>
        <time>2010-02-06T21:04:45Z</time>
      </trkpt>
      <trkpt lat="47.560342010110617" lon="18.989371033385396">
        <ele>358.483</ele>
        <time>2010-02-06T21:04:48Z</time>
      </trkpt>
      <trkpt lat="47.560376040637493" lon="18.989361980929971">
        <ele>358.63799999999998</ele>
        <time>2010-02-06T21:04:51Z</time>
      </trkpt>
      <trkpt lat="47.560411999002099" lon="18.989356029778719">
        <ele>358.67399999999998</ele>
        <time>2010-02-06T21:04:54Z</time>
      </trkpt>
      <trkpt lat="47.560447035357356" lon="18.989343037828803">
        <ele>358.55900000000003</ele>
        <time>2010-02-06T21:04:57Z</time>
      </trkpt>
      <trkpt lat="47.560480982065201" lon="18.989331973716617">
        <ele>359.089</ele>
        <time>2010-02-06T21:05:00Z</time>
      </trkpt>
      <trkpt lat="47.560518030077219" lon="18.98931697010994">
        <ele>358.95299999999997</ele>
        <time>2010-02-06T21:05:03Z</time>
      </trkpt>
      <trkpt lat="47.560557005926967" lon="18.989304983988404">
        <ele>359.50599999999997</ele>
        <time>2010-02-06T21:05:06Z</time>
      </trkpt>
      <trkpt lat="47.560594975948334" lon="18.989296015352011">
        <ele>359.88799999999998</ele>
        <time>2010-02-06T21:05:09Z</time>
      </trkpt>
      <trkpt lat="47.560630012303591" lon="18.989288974553347">
        <ele>359.916</ele>
        <time>2010-02-06T21:05:12Z</time>
      </trkpt>
      <trkpt lat="47.560663037002087" lon="18.989282017573714">
        <ele>359.72199999999998</ele>
        <time>2010-02-06T21:05:15Z</time>
      </trkpt>
      <trkpt lat="47.560697989538312" lon="18.989281011745334">
        <ele>359.31099999999998</ele>
        <time>2010-02-06T21:05:18Z</time>
      </trkpt>
      <trkpt lat="47.560733025893569" lon="18.98927397094667">
        <ele>360.29199999999997</ele>
        <time>2010-02-06T21:05:21Z</time>
      </trkpt>
      <trkpt lat="47.560804020613432" lon="18.989254022017121">
        <ele>359.89600000000002</ele>
        <time>2010-02-06T21:05:27Z</time>
      </trkpt>
      <trkpt lat="47.560838973149657" lon="18.989245975390077">
        <ele>360.44600000000003</ele>
        <time>2010-02-06T21:05:30Z</time>
      </trkpt>
      <trkpt lat="47.560875015333295" lon="18.989242035895586">
        <ele>360.61799999999999</ele>
        <time>2010-02-06T21:05:33Z</time>
      </trkpt>
      <trkpt lat="47.56090996786952" lon="18.989246981218457">
        <ele>360.911</ele>
        <time>2010-02-06T21:05:36Z</time>
      </trkpt>
      <trkpt lat="47.5609490275383" lon="18.98925201036036">
        <ele>360.952</ele>
        <time>2010-02-06T21:05:39Z</time>
      </trkpt>
      <trkpt lat="47.560980962589383" lon="18.989246981218457">
        <ele>361.38499999999999</ele>
        <time>2010-02-06T21:05:42Z</time>
      </trkpt>
      <trkpt lat="47.561021028086543" lon="18.989254022017121">
        <ele>361.40699999999998</ele>
        <time>2010-02-06T21:05:45Z</time>
      </trkpt>
      <trkpt lat="47.56105899810791" lon="18.989257961511612">
        <ele>361.30099999999999</ele>
        <time>2010-02-06T21:05:48Z</time>
      </trkpt>
      <trkpt lat="47.561095040291548" lon="18.989255027845502">
        <ele>361.12200000000001</ele>
        <time>2010-02-06T21:05:51Z</time>
      </trkpt>
      <trkpt lat="47.561130998656154" lon="18.989256033673882">
        <ele>362.32299999999998</ele>
        <time>2010-02-06T21:05:54Z</time>
      </trkpt>
      <trkpt lat="47.56116402335465" lon="18.989246981218457">
        <ele>362.31</ele>
        <time>2010-02-06T21:05:57Z</time>
      </trkpt>
      <trkpt lat="47.561199981719255" lon="18.989243963733315">
        <ele>362.21800000000002</ele>
        <time>2010-02-06T21:06:00Z</time>
      </trkpt>
      <trkpt lat="47.561233006417751" lon="18.989245975390077">
        <ele>362.37</ele>
        <time>2010-02-06T21:06:03Z</time>
      </trkpt>
      <trkpt lat="47.561267958953977" lon="18.989249998703599">
        <ele>362.80099999999999</ele>
        <time>2010-02-06T21:06:06Z</time>
      </trkpt>
      <trkpt lat="47.561302995309234" lon="18.989246981218457">
        <ele>362.75299999999999</ele>
        <time>2010-02-06T21:06:09Z</time>
      </trkpt>
      <trkpt lat="47.561341971158981" lon="18.989249998703599">
        <ele>362.74700000000001</ele>
        <time>2010-02-06T21:06:12Z</time>
      </trkpt>
      <trkpt lat="47.561378013342619" lon="18.989257039502263">
        <ele>362.267</ele>
        <time>2010-02-06T21:06:15Z</time>
      </trkpt>
      <trkpt lat="47.561413971707225" lon="18.989257961511612">
        <ele>363.30700000000002</ele>
        <time>2010-02-06T21:06:18Z</time>
      </trkpt>
      <trkpt lat="47.561453031376004" lon="18.989247987046838">
        <ele>364.07100000000003</ele>
        <time>2010-02-06T21:06:21Z</time>
      </trkpt>
      <trkpt lat="47.56148798391223" lon="18.989236000925303">
        <ele>364.30500000000001</ele>
        <time>2010-02-06T21:06:24Z</time>
      </trkpt>
      <trkpt lat="47.561521008610725" lon="18.98922803811729">
        <ele>363.755</ele>
        <time>2010-02-06T21:06:27Z</time>
      </trkpt>
      <trkpt lat="47.561555039137602" lon="18.989228960126638">
        <ele>365.04599999999999</ele>
        <time>2010-02-06T21:06:30Z</time>
      </trkpt>
      <trkpt lat="47.561590997502208" lon="18.9892309717834">
        <ele>364.95699999999999</ele>
        <time>2010-02-06T21:06:33Z</time>
      </trkpt>
      <trkpt lat="47.561628967523575" lon="18.989222003147006">
        <ele>365.11500000000001</ele>
        <time>2010-02-06T21:06:36Z</time>
      </trkpt>
      <trkpt lat="47.561664003878832" lon="18.989224014803767">
        <ele>366.08100000000002</ele>
        <time>2010-02-06T21:06:39Z</time>
      </trkpt>
      <trkpt lat="47.561699040234089" lon="18.989229965955019">
        <ele>366.05599999999998</ele>
        <time>2010-02-06T21:06:42Z</time>
      </trkpt>
      <trkpt lat="47.561737010255456" lon="18.989246981218457">
        <ele>366.72000000000003</ele>
        <time>2010-02-06T21:06:46Z</time>
      </trkpt>
      <trkpt lat="47.561768023297191" lon="18.989253016188741">
        <ele>366.97800000000001</ele>
        <time>2010-02-06T21:06:49Z</time>
      </trkpt>
      <trkpt lat="47.561803981661797" lon="18.989258967339993">
        <ele>367.32799999999997</ele>
        <time>2010-02-06T21:06:53Z</time>
      </trkpt>
      <trkpt lat="47.561837006360292" lon="18.989265002310276">
        <ele>367.23200000000003</ele>
        <time>2010-02-06T21:06:56Z</time>
      </trkpt>
      <trkpt lat="47.561868019402027" lon="18.989270031452179">
        <ele>367.28699999999998</ele>
        <time>2010-02-06T21:06:59Z</time>
      </trkpt>
      <trkpt lat="47.561904983595014" lon="18.989271959289908">
        <ele>367.83499999999998</ele>
        <time>2010-02-06T21:07:03Z</time>
      </trkpt>
      <trkpt lat="47.561940019950271" lon="18.989282017573714">
        <ele>367.73599999999999</ele>
        <time>2010-02-06T21:07:06Z</time>
      </trkpt>
      <trkpt lat="47.561972038820386" lon="18.989286962896585">
        <ele>367.94999999999999</ele>
        <time>2010-02-06T21:07:09Z</time>
      </trkpt>
      <trkpt lat="47.562001040205359" lon="18.989299032837152">
        <ele>367.86399999999998</ele>
        <time>2010-02-06T21:07:12Z</time>
      </trkpt>
      <trkpt lat="47.562032975256443" lon="18.989310013130307">
        <ele>368.38799999999998</ele>
        <time>2010-02-06T21:07:15Z</time>
      </trkpt>
      <trkpt lat="47.562065999954939" lon="18.989325016736984">
        <ele>368.16199999999998</ele>
        <time>2010-02-06T21:07:18Z</time>
      </trkpt>
      <trkpt lat="47.562107993289828" lon="18.989333985373378">
        <ele>368.82400000000001</ele>
        <time>2010-02-06T21:07:22Z</time>
      </trkpt>
      <trkpt lat="47.562138000503182" lon="18.98933700285852">
        <ele>368.697</ele>
        <time>2010-02-06T21:07:25Z</time>
      </trkpt>
      <trkpt lat="47.562171025201678" lon="18.989343037828803">
        <ele>369.02600000000001</ele>
        <time>2010-02-06T21:07:28Z</time>
      </trkpt>
      <trkpt lat="47.562210001051426" lon="18.989355023950338">
        <ele>369.48700000000002</ele>
        <time>2010-02-06T21:07:31Z</time>
      </trkpt>
      <trkpt lat="47.562245037406683" lon="18.98936097510159">
        <ele>369.87099999999998</ele>
        <time>2010-02-06T21:07:34Z</time>
      </trkpt>
      <trkpt lat="47.562277978286147" lon="18.989358963444829">
        <ele>370.61500000000001</ele>
        <time>2010-02-06T21:07:37Z</time>
      </trkpt>
      <trkpt lat="47.562315026298165" lon="18.989339014515281">
        <ele>369.92599999999999</ele>
        <time>2010-02-06T21:07:40Z</time>
      </trkpt>
      <trkpt lat="47.562352996319532" lon="18.989321999251842">
        <ele>369.072</ele>
        <time>2010-02-06T21:07:43Z</time>
      </trkpt>
      <trkpt lat="47.56239197216928" lon="18.989297021180391">
        <ele>369.27100000000002</ele>
        <time>2010-02-06T21:07:46Z</time>
      </trkpt>
      <trkpt lat="47.562431031838059" lon="18.989285035058856">
        <ele>368.83199999999999</ele>
        <time>2010-02-06T21:07:49Z</time>
      </trkpt>
      <trkpt lat="47.562473025172949" lon="18.989284029230475">
        <ele>369.24400000000003</ele>
        <time>2010-02-06T21:07:52Z</time>
      </trkpt>
      <trkpt lat="47.562516024336219" lon="18.989296015352011">
        <ele>369.61399999999998</ele>
        <time>2010-02-06T21:07:55Z</time>
      </trkpt>
      <trkpt lat="47.562556006014347" lon="18.989299032837152">
        <ele>369.80700000000002</ele>
        <time>2010-02-06T21:07:58Z</time>
      </trkpt>
      <trkpt lat="47.562596993520856" lon="18.989301966503263">
        <ele>369.46600000000001</ele>
        <time>2010-02-06T21:08:01Z</time>
      </trkpt>
      <trkpt lat="47.562638986855745" lon="18.989304983988404">
        <ele>369.38</ele>
        <time>2010-02-06T21:08:04Z</time>
      </trkpt>
      <trkpt lat="47.562676034867764" lon="18.989300960674882">
        <ele>370.70800000000003</ele>
        <time>2010-02-06T21:08:07Z</time>
      </trkpt>
      <trkpt lat="47.562716016545892" lon="18.98931697010994">
        <ele>370.74099999999999</ele>
        <time>2010-02-06T21:08:10Z</time>
      </trkpt>
      <trkpt lat="47.562752980738878" lon="18.989329040050507">
        <ele>370.47000000000003</ele>
        <time>2010-02-06T21:08:13Z</time>
      </trkpt>
      <trkpt lat="47.562787011265755" lon="18.989334991201758">
        <ele>370.84699999999998</ele>
        <time>2010-02-06T21:08:16Z</time>
      </trkpt>
      <trkpt lat="47.562821041792631" lon="18.989348988980055">
        <ele>371.334</ele>
        <time>2010-02-06T21:08:19Z</time>
      </trkpt>
      <trkpt lat="47.562860017642379" lon="18.98935996927321">
        <ele>371.983</ele>
        <time>2010-02-06T21:08:22Z</time>
      </trkpt>
      <trkpt lat="47.562896981835365" lon="18.989374972879887">
        <ele>371.99700000000001</ele>
        <time>2010-02-06T21:08:25Z</time>
      </trkpt>
      <trkpt lat="47.562938975170255" lon="18.989384025335312">
        <ele>372.13600000000002</ele>
        <time>2010-02-06T21:08:28Z</time>
      </trkpt>
      <trkpt lat="47.562981974333525" lon="18.989386959001422">
        <ele>372.35199999999998</ele>
        <time>2010-02-06T21:08:31Z</time>
      </trkpt>
      <trkpt lat="47.563020028173923" lon="18.989390982314944">
        <ele>372.63</ele>
        <time>2010-02-06T21:08:34Z</time>
      </trkpt>
      <trkpt lat="47.563054980710149" lon="18.989395005628467">
        <ele>372.73599999999999</ele>
        <time>2010-02-06T21:08:37Z</time>
      </trkpt>
      <trkpt lat="47.563090017065406" lon="18.989399028941989">
        <ele>373.01299999999998</ele>
        <time>2010-02-06T21:08:40Z</time>
      </trkpt>
      <trkpt lat="47.563129998743534" lon="18.989404980093241">
        <ele>372.54000000000002</ele>
        <time>2010-02-06T21:08:43Z</time>
      </trkpt>
      <trkpt lat="47.563170986250043" lon="18.989415960386395">
        <ele>372.541</ele>
        <time>2010-02-06T21:08:46Z</time>
      </trkpt>
      <trkpt lat="47.563203005120158" lon="18.98942400701344">
        <ele>372.745</ele>
        <time>2010-02-06T21:08:48Z</time>
      </trkpt>
      <trkpt lat="47.563244998455048" lon="18.989442028105259">
        <ele>371.98899999999998</ele>
        <time>2010-02-06T21:08:51Z</time>
      </trkpt>
      <trkpt lat="47.563283974304795" lon="18.989447979256511">
        <ele>372.30200000000002</ele>
        <time>2010-02-06T21:08:54Z</time>
      </trkpt>
      <trkpt lat="47.563321022316813" lon="18.989454014226794">
        <ele>372.23200000000003</ele>
        <time>2010-02-06T21:08:57Z</time>
      </trkpt>
      <trkpt lat="47.563359998166561" lon="18.989462982863188">
        <ele>373.13600000000002</ele>
        <time>2010-02-06T21:09:00Z</time>
      </trkpt>
      <trkpt lat="47.563397968187928" lon="18.989477986469865">
        <ele>373.24900000000002</ele>
        <time>2010-02-06T21:09:03Z</time>
      </trkpt>
      <trkpt lat="47.563436022028327" lon="18.98948603309691">
        <ele>373.46899999999999</ele>
        <time>2010-02-06T21:09:06Z</time>
      </trkpt>
      <trkpt lat="47.563478015363216" lon="18.989499025046825">
        <ele>373.274</ele>
        <time>2010-02-06T21:09:09Z</time>
      </trkpt>
      <trkpt lat="47.563517997041345" lon="18.989513022825122">
        <ele>372.97000000000003</ele>
        <time>2010-02-06T21:09:12Z</time>
      </trkpt>
      <trkpt lat="47.563557978719473" lon="18.989521991461515">
        <ele>373.03199999999998</ele>
        <time>2010-02-06T21:09:15Z</time>
      </trkpt>
      <trkpt lat="47.563597960397601" lon="18.989527020603418">
        <ele>373.04899999999998</ele>
        <time>2010-02-06T21:09:18Z</time>
      </trkpt>
      <trkpt lat="47.563636014238" lon="18.989526014775038">
        <ele>372.87</ele>
        <time>2010-02-06T21:09:21Z</time>
      </trkpt>
      <trkpt lat="47.563672978430986" lon="18.989520985633135">
        <ele>373.26499999999999</ele>
        <time>2010-02-06T21:09:24Z</time>
      </trkpt>
      <trkpt lat="47.563715977594256" lon="18.989515034481883">
        <ele>372.76999999999998</ele>
        <time>2010-02-06T21:09:27Z</time>
      </trkpt>
      <trkpt lat="47.563758976757526" lon="18.989517968147993">
        <ele>373.01999999999998</ele>
        <time>2010-02-06T21:09:30Z</time>
      </trkpt>
      <trkpt lat="47.563798958435655" lon="18.989516040310264">
        <ele>372.89800000000002</ele>
        <time>2010-02-06T21:09:33Z</time>
      </trkpt>
      <trkpt lat="47.563838018104434" lon="18.989503970369697">
        <ele>373.28899999999999</ele>
        <time>2010-02-06T21:09:36Z</time>
      </trkpt>
      <trkpt lat="47.563874982297421" lon="18.989490978419781">
        <ele>372.86799999999999</ele>
        <time>2010-02-06T21:09:39Z</time>
      </trkpt>
      <trkpt lat="47.563913036137819" lon="18.989473963156343">
        <ele>372.589</ele>
        <time>2010-02-06T21:09:42Z</time>
      </trkpt>
      <trkpt lat="47.563947988674045" lon="18.989448985084891">
        <ele>372.77800000000002</ele>
        <time>2010-02-06T21:09:45Z</time>
      </trkpt>
      <trkpt lat="47.563983025029302" lon="18.989435993134975">
        <ele>372.423</ele>
        <time>2010-02-06T21:09:48Z</time>
      </trkpt>
      <trkpt lat="47.564020995050669" lon="18.989432975649834">
        <ele>372.154</ele>
        <time>2010-02-06T21:09:51Z</time>
      </trkpt>
      <trkpt lat="47.564057037234306" lon="18.989428030326962">
        <ele>373.40600000000001</ele>
        <time>2010-02-06T21:09:54Z</time>
      </trkpt>
      <trkpt lat="47.564095007255673" lon="18.989419983699918">
        <ele>372.839</ele>
        <time>2010-02-06T21:09:57Z</time>
      </trkpt>
      <trkpt lat="47.56413297727704" lon="18.989406991750002">
        <ele>372.012</ele>
        <time>2010-02-06T21:10:00Z</time>
      </trkpt>
      <trkpt lat="47.564173964783549" lon="18.989393999800086">
        <ele>372.27199999999999</ele>
        <time>2010-02-06T21:10:03Z</time>
      </trkpt>
      <trkpt lat="47.564211012795568" lon="18.989382013678551">
        <ele>372.53300000000002</ele>
        <time>2010-02-06T21:10:06Z</time>
      </trkpt>
      <trkpt lat="47.564250994473696" lon="18.989363992586732">
        <ele>372.024</ele>
        <time>2010-02-06T21:10:09Z</time>
      </trkpt>
      <trkpt lat="47.564292987808585" lon="18.989353012293577">
        <ele>372.15699999999998</ele>
        <time>2010-02-06T21:10:12Z</time>
      </trkpt>
      <trkpt lat="47.564332969486713" lon="18.989344965666533">
        <ele>372.24599999999998</ele>
        <time>2010-02-06T21:10:15Z</time>
      </trkpt>
      <trkpt lat="47.564377980306745" lon="18.989344965666533">
        <ele>372.60199999999998</ele>
        <time>2010-02-06T21:10:18Z</time>
      </trkpt>
      <trkpt lat="47.564419973641634" lon="18.989340020343661">
        <ele>371.70699999999999</ele>
        <time>2010-02-06T21:10:21Z</time>
      </trkpt>
      <trkpt lat="47.564461966976523" lon="18.989329962059855">
        <ele>372.51600000000002</ele>
        <time>2010-02-06T21:10:24Z</time>
      </trkpt>
      <trkpt lat="47.564491974189878" lon="18.989327028393745">
        <ele>372.41000000000003</ele>
        <time>2010-02-06T21:10:26Z</time>
      </trkpt>
      <trkpt lat="47.564535979181528" lon="18.989320993423462">
        <ele>372.64499999999998</ele>
        <time>2010-02-06T21:10:29Z</time>
      </trkpt>
      <trkpt lat="47.564578978344798" lon="18.989313030615449">
        <ele>372.15499999999997</ele>
        <time>2010-02-06T21:10:32Z</time>
      </trkpt>
      <trkpt lat="47.564607979729772" lon="18.989305989816785">
        <ele>372.36200000000002</ele>
        <time>2010-02-06T21:10:34Z</time>
      </trkpt>
      <trkpt lat="47.56464896723628" lon="18.989298027008772">
        <ele>372.62799999999999</ele>
        <time>2010-02-06T21:10:37Z</time>
      </trkpt>
      <trkpt lat="47.56468802690506" lon="18.989286040887237">
        <ele>372.435</ele>
        <time>2010-02-06T21:10:40Z</time>
      </trkpt>
      <trkpt lat="47.56473102606833" lon="18.989280005916953">
        <ele>371.60700000000003</ele>
        <time>2010-02-06T21:10:43Z</time>
      </trkpt>
      <trkpt lat="47.564759021624923" lon="18.989271959289908">
        <ele>371.82299999999998</ele>
        <time>2010-02-06T21:10:45Z</time>
      </trkpt>
      <trkpt lat="47.56479799747467" lon="18.989272965118289">
        <ele>371.30399999999997</ele>
        <time>2010-02-06T21:10:48Z</time>
      </trkpt>
      <trkpt lat="47.564835967496037" lon="18.989254022017121">
        <ele>371.36399999999998</ele>
        <time>2010-02-06T21:10:51Z</time>
      </trkpt>
      <trkpt lat="47.564877960830927" lon="18.989239018410444">
        <ele>371.529</ele>
        <time>2010-02-06T21:10:54Z</time>
      </trkpt>
      <trkpt lat="47.56490402854979" lon="18.989218985661864">
        <ele>370.77499999999998</ele>
        <time>2010-02-06T21:10:56Z</time>
      </trkpt>
      <trkpt lat="47.564937975257635" lon="18.989190990105271">
        <ele>370.72699999999998</ele>
        <time>2010-02-06T21:10:59Z</time>
      </trkpt>
      <trkpt lat="47.564978962764144" lon="18.989168023690581">
        <ele>370.74099999999999</ele>
        <time>2010-02-06T21:11:02Z</time>
      </trkpt>
      <trkpt lat="47.565018022432923" lon="18.98914597928524">
        <ele>371.166</ele>
        <time>2010-02-06T21:11:05Z</time>
      </trkpt>
      <trkpt lat="47.565059009939432" lon="18.989129969850183">
        <ele>370.44799999999998</ele>
        <time>2010-02-06T21:11:08Z</time>
      </trkpt>
      <trkpt lat="47.565099997445941" lon="18.989118989557028">
        <ele>371.005</ele>
        <time>2010-02-06T21:11:11Z</time>
      </trkpt>
      <trkpt lat="47.565137967467308" lon="18.989107003435493">
        <ele>370.49799999999999</ele>
        <time>2010-02-06T21:11:14Z</time>
      </trkpt>
      <trkpt lat="47.565171997994184" lon="18.989091999828815">
        <ele>370.851</ele>
        <time>2010-02-06T21:11:17Z</time>
      </trkpt>
      <trkpt lat="47.565207034349442" lon="18.989082025364041">
        <ele>370.19</ele>
        <time>2010-02-06T21:11:20Z</time>
      </trkpt>
      <trkpt lat="47.565242992714047" lon="18.989068027585745">
        <ele>370.31700000000001</ele>
        <time>2010-02-06T21:11:23Z</time>
      </trkpt>
      <trkpt lat="47.565280040726066" lon="18.989057969301939">
        <ele>370.827</ele>
        <time>2010-02-06T21:11:26Z</time>
      </trkpt>
      <trkpt lat="47.565317004919052" lon="18.989051012322307">
        <ele>369.66300000000001</ele>
        <time>2010-02-06T21:11:29Z</time>
      </trkpt>
      <trkpt lat="47.565354974940419" lon="18.989042965695262">
        <ele>369.59899999999999</ele>
        <time>2010-02-06T21:11:32Z</time>
      </trkpt>
      <trkpt lat="47.565393028780818" lon="18.989035002887249">
        <ele>369.40899999999999</ele>
        <time>2010-02-06T21:11:35Z</time>
      </trkpt>
      <trkpt lat="47.565432004630566" lon="18.989026034250855">
        <ele>369.05500000000001</ele>
        <time>2010-02-06T21:11:38Z</time>
      </trkpt>
      <trkpt lat="47.565472992137074" lon="18.989030979573727">
        <ele>369.65600000000001</ele>
        <time>2010-02-06T21:11:41Z</time>
      </trkpt>
      <trkpt lat="47.565512973815203" lon="18.989068027585745">
        <ele>367.66399999999999</ele>
        <time>2010-02-06T21:11:44Z</time>
      </trkpt>
      <trkpt lat="47.565530994907022" lon="18.989129969850183">
        <ele>368.38200000000001</ele>
        <time>2010-02-06T21:11:47Z</time>
      </trkpt>
      <trkpt lat="47.565526971593499" lon="18.989179003983736">
        <ele>368</ele>
        <time>2010-02-06T21:11:49Z</time>
      </trkpt>
      <trkpt lat="47.565524037927389" lon="18.989224014803767">
        <ele>367.06799999999998</ele>
        <time>2010-02-06T21:11:51Z</time>
      </trkpt>
      <trkpt lat="47.565521020442247" lon="18.989276988431811">
        <ele>366.255</ele>
        <time>2010-02-06T21:11:56Z</time>
      </trkpt>
      <trkpt lat="47.565516997128725" lon="18.989335997030139">
        <ele>366.041</ele>
        <time>2010-02-06T21:12:03Z</time>
      </trkpt>
      <trkpt lat="47.565537029877305" lon="18.989372039213777">
        <ele>365.87099999999998</ele>
        <time>2010-02-06T21:12:05Z</time>
      </trkpt>
      <trkpt lat="47.565554967150092" lon="18.989412020891905">
        <ele>365.71899999999999</ele>
        <time>2010-02-06T21:12:07Z</time>
      </trkpt>
      <trkpt lat="47.565588997676969" lon="18.98944303393364">
        <ele>365.70800000000003</ele>
        <time>2010-02-06T21:12:09Z</time>
      </trkpt>
      <trkpt lat="47.565634008497" lon="18.98944303393364">
        <ele>365.303</ele>
        <time>2010-02-06T21:12:11Z</time>
      </trkpt>
      <trkpt lat="47.565673990175128" lon="18.989419983699918">
        <ele>365.30000000000001</ele>
        <time>2010-02-06T21:12:13Z</time>
      </trkpt>
      <trkpt lat="47.565711960196495" lon="18.989401962608099">
        <ele>365.30500000000001</ele>
        <time>2010-02-06T21:12:15Z</time>
      </trkpt>
      <trkpt lat="47.565744984894991" lon="18.989375978708267">
        <ele>364.44499999999999</ele>
        <time>2010-02-06T21:12:17Z</time>
      </trkpt>
      <trkpt lat="47.565778009593487" lon="18.989332979544997">
        <ele>364.62099999999998</ele>
        <time>2010-02-06T21:12:20Z</time>
      </trkpt>
      <trkpt lat="47.565810028463602" lon="18.989288974553347">
        <ele>364.74200000000002</ele>
        <time>2010-02-06T21:12:23Z</time>
      </trkpt>
      <trkpt lat="47.565832994878292" lon="18.989263996481895">
        <ele>364.678</ele>
        <time>2010-02-06T21:12:25Z</time>
      </trkpt>
      <trkpt lat="47.565860990434885" lon="18.989224014803767">
        <ele>364.846</ele>
        <time>2010-02-06T21:12:28Z</time>
      </trkpt>
      <trkpt lat="47.565870964899659" lon="18.989064004272223">
        <ele>365.49799999999999</ele>
        <time>2010-02-06T21:31:12Z</time>
      </trkpt>
      <trkpt lat="47.565863002091646" lon="18.989157965406775">
        <ele>366.08699999999999</ele>
        <time>2010-02-06T21:31:26Z</time>
      </trkpt>
      <trkpt lat="47.56585001014173" lon="18.989212028682232">
        <ele>365.875</ele>
        <time>2010-02-06T21:31:28Z</time>
      </trkpt>
      <trkpt lat="47.565827965736389" lon="18.98925100453198">
        <ele>365.47300000000001</ele>
        <time>2010-02-06T21:31:30Z</time>
      </trkpt>
      <trkpt lat="47.565793013200164" lon="18.989290986210108">
        <ele>364.78800000000001</ele>
        <time>2010-02-06T21:31:32Z</time>
      </trkpt>
      <trkpt lat="47.565686982125044" lon="18.989369021728635">
        <ele>365.41000000000003</ele>
        <time>2010-02-06T21:31:37Z</time>
      </trkpt>
      <trkpt lat="47.565649012103677" lon="18.989392993971705">
        <ele>365.31400000000002</ele>
        <time>2010-02-06T21:31:39Z</time>
      </trkpt>
      <trkpt lat="47.565611964091659" lon="18.989415038377047">
        <ele>365.24299999999999</ele>
        <time>2010-02-06T21:31:41Z</time>
      </trkpt>
      <trkpt lat="47.565574999898672" lon="18.989442028105259">
        <ele>365.24299999999999</ele>
        <time>2010-02-06T21:31:43Z</time>
      </trkpt>
      <trkpt lat="47.565535018220544" lon="18.989462982863188">
        <ele>365.49900000000002</ele>
        <time>2010-02-06T21:31:45Z</time>
      </trkpt>
      <trkpt lat="47.565515991300344" lon="18.989506987854838">
        <ele>365.029</ele>
        <time>2010-02-06T21:31:47Z</time>
      </trkpt>
      <trkpt lat="47.565513979643583" lon="18.98955300450325">
        <ele>364.33699999999999</ele>
        <time>2010-02-06T21:31:49Z</time>
      </trkpt>
      <trkpt lat="47.565508028492332" lon="18.989601032808423">
        <ele>364.71499999999997</ele>
        <time>2010-02-06T21:31:51Z</time>
      </trkpt>
      <trkpt lat="47.56550501100719" lon="18.989651994779706">
        <ele>363.71699999999998</ele>
        <time>2010-02-06T21:31:53Z</time>
      </trkpt>
      <trkpt lat="47.565512973815203" lon="18.98970102891326">
        <ele>363.495</ele>
        <time>2010-02-06T21:31:55Z</time>
      </trkpt>
      <trkpt lat="47.56554801017046" lon="18.989728018641472">
        <ele>363.34800000000001</ele>
        <time>2010-02-06T21:31:57Z</time>
      </trkpt>
      <trkpt lat="47.56559201516211" lon="18.989720977842808">
        <ele>363.64699999999999</ele>
        <time>2010-02-06T21:31:59Z</time>
      </trkpt>
      <trkpt lat="47.565630991011858" lon="18.989703040570021">
        <ele>363.75599999999997</ele>
        <time>2010-02-06T21:32:01Z</time>
      </trkpt>
      <trkpt lat="47.565664015710354" lon="18.989676972851157">
        <ele>363.209</ele>
        <time>2010-02-06T21:32:03Z</time>
      </trkpt>
      <trkpt lat="47.56569997407496" lon="18.989669010043144">
        <ele>363.03500000000003</ele>
        <time>2010-02-06T21:32:05Z</time>
      </trkpt>
      <trkpt lat="47.565731992945075" lon="18.989646965637803">
        <ele>362.94600000000003</ele>
        <time>2010-02-06T21:32:07Z</time>
      </trkpt>
      <trkpt lat="47.565773986279964" lon="18.989625005051494">
        <ele>362.089</ele>
        <time>2010-02-06T21:32:10Z</time>
      </trkpt>
      <trkpt lat="47.565822014585137" lon="18.989599021151662">
        <ele>362.31599999999997</ele>
        <time>2010-02-06T21:32:12Z</time>
      </trkpt>
      <trkpt lat="47.565864007920027" lon="18.989565996453166">
        <ele>361.30000000000001</ele>
        <time>2010-02-06T21:32:14Z</time>
      </trkpt>
      <trkpt lat="47.565909018740058" lon="18.989540012553334">
        <ele>360.54599999999999</ele>
        <time>2010-02-06T21:32:16Z</time>
      </trkpt>
      <trkpt lat="47.565942965447903" lon="18.989504976198077">
        <ele>359.33300000000003</ele>
        <time>2010-02-06T21:32:18Z</time>
      </trkpt>
      <trkpt lat="47.565981019288301" lon="18.989478992298245">
        <ele>359.09800000000001</ele>
        <time>2010-02-06T21:32:20Z</time>
      </trkpt>
      <trkpt lat="47.566026030108333" lon="18.989458959549665">
        <ele>359.52199999999999</ele>
        <time>2010-02-06T21:32:22Z</time>
      </trkpt>
      <trkpt lat="47.566071962937713" lon="18.989434987306595">
        <ele>358.65699999999998</ele>
        <time>2010-02-06T21:32:25Z</time>
      </trkpt>
      <trkpt lat="47.566114040091634" lon="18.989404980093241">
        <ele>357.63400000000001</ele>
        <time>2010-02-06T21:32:27Z</time>
      </trkpt>
      <trkpt lat="47.566166007891297" lon="18.989368015900254">
        <ele>357.36599999999999</ele>
        <time>2010-02-06T21:32:29Z</time>
      </trkpt>
      <trkpt lat="47.566214958205819" lon="18.989333985373378">
        <ele>357.536</ele>
        <time>2010-02-06T21:32:31Z</time>
      </trkpt>
      <trkpt lat="47.566255023702979" lon="18.98929500952363">
        <ele>356.92200000000003</ele>
        <time>2010-02-06T21:32:33Z</time>
      </trkpt>
      <trkpt lat="47.566286036744714" lon="18.989246981218457">
        <ele>356.16899999999998</ele>
        <time>2010-02-06T21:32:35Z</time>
      </trkpt>
      <trkpt lat="47.566336998715997" lon="18.989205993711948">
        <ele>355.59199999999998</ele>
        <time>2010-02-06T21:32:37Z</time>
      </trkpt>
      <trkpt lat="47.56638796068728" lon="18.989168023690581">
        <ele>354.13299999999998</ele>
        <time>2010-02-06T21:32:39Z</time>
      </trkpt>
      <trkpt lat="47.56642802618444" lon="18.989136004820466">
        <ele>354.88799999999998</ele>
        <time>2010-02-06T21:32:41Z</time>
      </trkpt>
      <trkpt lat="47.56647102534771" lon="18.989105997607112">
        <ele>354.702</ele>
        <time>2010-02-06T21:32:43Z</time>
      </trkpt>
      <trkpt lat="47.566502038389444" lon="18.989065010100603">
        <ele>354.32400000000001</ele>
        <time>2010-02-06T21:32:45Z</time>
      </trkpt>
      <trkpt lat="47.566544031724334" lon="18.989031985402107">
        <ele>354.00900000000001</ele>
        <time>2010-02-06T21:32:47Z</time>
      </trkpt>
      <trkpt lat="47.566584013402462" lon="18.989000972360373">
        <ele>353.82299999999998</ele>
        <time>2010-02-06T21:32:49Z</time>
      </trkpt>
      <trkpt lat="47.566633969545364" lon="18.988969959318638">
        <ele>353.56200000000001</ele>
        <time>2010-02-06T21:32:52Z</time>
      </trkpt>
      <trkpt lat="47.566679986193776" lon="18.988936012610793">
        <ele>353.66199999999998</ele>
        <time>2010-02-06T21:32:55Z</time>
      </trkpt>
      <trkpt lat="47.566718040034175" lon="18.988900976255536">
        <ele>353.46100000000001</ele>
        <time>2010-02-06T21:32:58Z</time>
      </trkpt>
      <trkpt lat="47.566758021712303" lon="18.988866023719311">
        <ele>353.61900000000003</ele>
        <time>2010-02-06T21:33:01Z</time>
      </trkpt>
      <trkpt lat="47.566801020875573" lon="18.988831993192434">
        <ele>354.03800000000001</ele>
        <time>2010-02-06T21:33:04Z</time>
      </trkpt>
      <trkpt lat="47.566850977018476" lon="18.988799974322319">
        <ele>353.48000000000002</ele>
        <time>2010-02-06T21:33:07Z</time>
      </trkpt>
      <trkpt lat="47.566897999495268" lon="18.988776002079248">
        <ele>353.07100000000003</ele>
        <time>2010-02-06T21:33:10Z</time>
      </trkpt>
      <trkpt lat="47.566949967294931" lon="18.988754041492939">
        <ele>352.161</ele>
        <time>2010-02-06T21:33:14Z</time>
      </trkpt>
      <trkpt lat="47.566989026963711" lon="18.988743983209133">
        <ele>352.916</ele>
        <time>2010-02-06T21:33:16Z</time>
      </trkpt>
      <trkpt lat="47.56703001447022" lon="18.988738032057881">
        <ele>351.57999999999998</ele>
        <time>2010-02-06T21:33:18Z</time>
      </trkpt>
      <trkpt lat="47.56707401946187" lon="18.988722022622824">
        <ele>351.80599999999998</ele>
        <time>2010-02-06T21:33:20Z</time>
      </trkpt>
      <trkpt lat="47.567133028060198" lon="18.988696960732341">
        <ele>350.46800000000002</ele>
        <time>2010-02-06T21:33:23Z</time>
      </trkpt>
      <trkpt lat="47.567173009738326" lon="18.98867298848927">
        <ele>350.41300000000001</ele>
        <time>2010-02-06T21:33:26Z</time>
      </trkpt>
      <trkpt lat="47.567222965881228" lon="18.988641975447536">
        <ele>349.733</ele>
        <time>2010-02-06T21:33:29Z</time>
      </trkpt>
      <trkpt lat="47.567261019721627" lon="18.988611968234181">
        <ele>350.113</ele>
        <time>2010-02-06T21:33:32Z</time>
      </trkpt>
      <trkpt lat="47.567291026934981" lon="18.988567963242531">
        <ele>348.81700000000001</ele>
        <time>2010-02-06T21:33:35Z</time>
      </trkpt>
      <trkpt lat="47.567325979471207" lon="18.988540973514318">
        <ele>349.505</ele>
        <time>2010-02-06T21:33:38Z</time>
      </trkpt>
      <trkpt lat="47.567362021654844" lon="18.988509960472584">
        <ele>348.47699999999998</ele>
        <time>2010-02-06T21:33:41Z</time>
      </trkpt>
      <trkpt lat="47.567404014989734" lon="18.988480037078261">
        <ele>348.541</ele>
        <time>2010-02-06T21:33:44Z</time>
      </trkpt>
      <trkpt lat="47.567451037466526" lon="18.988461010158062">
        <ele>348.59199999999998</ele>
        <time>2010-02-06T21:33:47Z</time>
      </trkpt>
      <trkpt lat="47.567511973902583" lon="18.988411976024508">
        <ele>347.71199999999999</ele>
        <time>2010-02-06T21:33:51Z</time>
      </trkpt>
      <trkpt lat="47.56756603717804" lon="18.988380040973425">
        <ele>348.09800000000001</ele>
        <time>2010-02-06T21:33:54Z</time>
      </trkpt>
      <trkpt lat="47.567610964179039" lon="18.988335030153394">
        <ele>347.86700000000002</ele>
        <time>2010-02-06T21:33:58Z</time>
      </trkpt>
      <trkpt lat="47.567662009969354" lon="18.988292030990124">
        <ele>347.58699999999999</ele>
        <time>2010-02-06T21:34:02Z</time>
      </trkpt>
      <trkpt lat="47.567701991647482" lon="18.98826302960515">
        <ele>347.78800000000001</ele>
        <time>2010-02-06T21:34:05Z</time>
      </trkpt>
      <trkpt lat="47.567747002467513" lon="18.988226987421513">
        <ele>348.40199999999999</ele>
        <time>2010-02-06T21:34:09Z</time>
      </trkpt>
      <trkpt lat="47.567795030772686" lon="18.988170996308327">
        <ele>347.88799999999998</ele>
        <time>2010-02-06T21:34:15Z</time>
      </trkpt>
      <trkpt lat="47.567837024107575" lon="18.988117016851902">
        <ele>347.85000000000002</ele>
        <time>2010-02-06T21:34:19Z</time>
      </trkpt>
      <trkpt lat="47.567874994128942" lon="18.988089021295309">
        <ele>347.81999999999999</ele>
        <time>2010-02-06T21:34:22Z</time>
      </trkpt>
      <trkpt lat="47.567931991070509" lon="18.988074017688632">
        <ele>346.83499999999998</ele>
        <time>2010-02-06T21:34:26Z</time>
      </trkpt>
      <trkpt lat="47.567981025204062" lon="18.988107964396477">
        <ele>348.02100000000002</ele>
        <time>2010-02-06T21:34:30Z</time>
      </trkpt>
      <trkpt lat="47.568013966083527" lon="18.988167978823185">
        <ele>347.69499999999999</ele>
        <time>2010-02-06T21:34:33Z</time>
      </trkpt>
      <trkpt lat="47.568055959418416" lon="18.988207960501313">
        <ele>348.47000000000003</ele>
        <time>2010-02-06T21:34:37Z</time>
      </trkpt>
      <trkpt lat="47.568118991330266" lon="18.988239979371428">
        <ele>348.99400000000003</ele>
        <time>2010-02-06T21:34:44Z</time>
      </trkpt>
      <trkpt lat="47.568151010200381" lon="18.988238973543048">
        <ele>348.94600000000003</ele>
        <time>2010-02-06T21:34:47Z</time>
      </trkpt>
      <trkpt lat="47.568177999928594" lon="18.988249031826854">
        <ele>348.78800000000001</ele>
        <time>2010-02-06T21:34:49Z</time>
      </trkpt>
      <trkpt lat="47.5682139582932" lon="18.988268980756402">
        <ele>348.49799999999999</ele>
        <time>2010-02-06T21:34:51Z</time>
      </trkpt>
      <trkpt lat="47.568240026012063" lon="18.988298987969756">
        <ele>349.04000000000002</ele>
        <time>2010-02-06T21:34:53Z</time>
      </trkpt>
      <trkpt lat="47.568275984376669" lon="18.988310974091291">
        <ele>348.916</ele>
        <time>2010-02-06T21:34:55Z</time>
      </trkpt>
      <trkpt lat="47.568314038217068" lon="18.988294964656234">
        <ele>349.08499999999998</ele>
        <time>2010-02-06T21:34:58Z</time>
      </trkpt>
      <trkpt lat="47.568348990753293" lon="18.988292030990124">
        <ele>349.50400000000002</ele>
        <time>2010-02-06T21:35:00Z</time>
      </trkpt>
      <trkpt lat="47.568374974653125" lon="18.988325977697968">
        <ele>349.666</ele>
        <time>2010-02-06T21:35:02Z</time>
      </trkpt>
      <trkpt lat="47.568400036543608" lon="18.988370988518">
        <ele>349.584</ele>
        <time>2010-02-06T21:35:05Z</time>
      </trkpt>
      <trkpt lat="47.568425014615059" lon="18.988404013216496">
        <ele>349.185</ele>
        <time>2010-02-06T21:35:09Z</time>
      </trkpt>
      <trkpt lat="47.568463990464807" lon="18.988439971581101">
        <ele>348.09699999999998</ele>
        <time>2010-02-06T21:35:13Z</time>
      </trkpt>
      <trkpt lat="47.568491986021399" lon="18.988493029028177">
        <ele>348.76600000000002</ele>
        <time>2010-02-06T21:35:16Z</time>
      </trkpt>
      <trkpt lat="47.568505983799696" lon="18.988548014312983">
        <ele>348.85599999999999</ele>
        <time>2010-02-06T21:35:19Z</time>
      </trkpt>
      <trkpt lat="47.568526016548276" lon="18.98860601708293">
        <ele>348.70299999999997</ele>
        <time>2010-02-06T21:35:22Z</time>
      </trkpt>
      <trkpt lat="47.568547977134585" lon="18.988638035953045">
        <ele>347.90100000000001</ele>
        <time>2010-02-06T21:35:24Z</time>
      </trkpt>
      <trkpt lat="47.568572033196688" lon="18.988682962954044">
        <ele>347.738</ele>
        <time>2010-02-06T21:35:27Z</time>
      </trkpt>
      <trkpt lat="47.568604974076152" lon="18.988726967945695">
        <ele>346.96600000000001</ele>
        <time>2010-02-06T21:35:30Z</time>
      </trkpt>
      <trkpt lat="47.568625006824732" lon="18.988785976544023">
        <ele>346.75999999999999</ele>
        <time>2010-02-06T21:35:33Z</time>
      </trkpt>
      <trkpt lat="47.568656019866467" lon="18.988825036212802">
        <ele>346.10599999999999</ele>
        <time>2010-02-06T21:35:36Z</time>
      </trkpt>
      <trkpt lat="47.568682003766298" lon="18.988869041204453">
        <ele>346.49799999999999</ele>
        <time>2010-02-06T21:35:39Z</time>
      </trkpt>
      <trkpt lat="47.568705976009369" lon="18.988928971812129">
        <ele>346.90499999999997</ele>
        <time>2010-02-06T21:35:42Z</time>
      </trkpt>
      <trkpt lat="47.568734977394342" lon="18.988980017602444">
        <ele>347.15100000000001</ele>
        <time>2010-02-06T21:35:45Z</time>
      </trkpt>
      <trkpt lat="47.568758027628064" lon="18.98901698179543">
        <ele>347.221</ele>
        <time>2010-02-06T21:35:47Z</time>
      </trkpt>
      <trkpt lat="47.568774959072471" lon="18.989056963473558">
        <ele>347.49700000000001</ele>
        <time>2010-02-06T21:35:49Z</time>
      </trkpt>
      <trkpt lat="47.568797003477812" lon="18.989096023142338">
        <ele>347.23099999999999</ele>
        <time>2010-02-06T21:35:51Z</time>
      </trkpt>
      <trkpt lat="47.568841008469462" lon="18.989118989557028">
        <ele>347.73500000000001</ele>
        <time>2010-02-06T21:35:54Z</time>
      </trkpt>
      <trkpt lat="47.568874033167958" lon="18.989116977900267">
        <ele>347.79899999999998</ele>
        <time>2010-02-06T21:35:56Z</time>
      </trkpt>
      <trkpt lat="47.568915020674467" lon="18.989104991778731">
        <ele>347.62700000000001</ele>
        <time>2010-02-06T21:35:59Z</time>
      </trkpt>
      <trkpt lat="47.56894301623106" lon="18.989093005657196">
        <ele>347.82999999999998</ele>
        <time>2010-02-06T21:36:01Z</time>
      </trkpt>
      <trkpt lat="47.568975035101175" lon="18.989081019535661">
        <ele>347.94900000000001</ele>
        <time>2010-02-06T21:36:03Z</time>
      </trkpt>
      <trkpt lat="47.569004958495498" lon="18.989068027585745">
        <ele>347.51999999999998</ele>
        <time>2010-02-06T21:36:05Z</time>
      </trkpt>
      <trkpt lat="47.569048041477799" lon="18.989050006493926">
        <ele>347.64600000000002</ele>
        <time>2010-02-06T21:36:07Z</time>
      </trkpt>
      <trkpt lat="47.569083999842405" lon="18.989033997058868">
        <ele>347.56799999999998</ele>
        <time>2010-02-06T21:36:09Z</time>
      </trkpt>
      <trkpt lat="47.569126999005675" lon="18.989014970138669">
        <ele>347.35899999999998</ele>
        <time>2010-02-06T21:36:11Z</time>
      </trkpt>
      <trkpt lat="47.569160023704171" lon="18.988985968753695">
        <ele>347.37700000000001</ele>
        <time>2010-02-06T21:36:13Z</time>
      </trkpt>
      <trkpt lat="47.569195982068777" lon="18.988955039530993">
        <ele>347.37200000000001</ele>
        <time>2010-02-06T21:36:15Z</time>
      </trkpt>
      <trkpt lat="47.569231018424034" lon="18.988923020660877">
        <ele>348.49700000000001</ele>
        <time>2010-02-06T21:36:17Z</time>
      </trkpt>
      <trkpt lat="47.569267982617021" lon="18.988891001790762">
        <ele>348.00599999999997</ele>
        <time>2010-02-06T21:36:19Z</time>
      </trkpt>
      <trkpt lat="47.569307964295149" lon="18.988860994577408">
        <ele>347.89800000000002</ele>
        <time>2010-02-06T21:36:21Z</time>
      </trkpt>
      <trkpt lat="47.569351969286799" lon="18.988830987364054">
        <ele>347.471</ele>
        <time>2010-02-06T21:36:23Z</time>
      </trkpt>
      <trkpt lat="47.569406032562256" lon="18.988794023171067">
        <ele>347.899</ele>
        <time>2010-02-06T21:36:25Z</time>
      </trkpt>
      <trkpt lat="47.569445008412004" lon="18.988750018179417">
        <ele>346.351</ele>
        <time>2010-02-06T21:36:27Z</time>
      </trkpt>
      <trkpt lat="47.569493958726525" lon="18.988710036501288">
        <ele>346.88400000000001</ele>
        <time>2010-02-06T21:36:29Z</time>
      </trkpt>
      <trkpt lat="47.56954500451684" lon="18.988662008196115">
        <ele>345.56400000000002</ele>
        <time>2010-02-06T21:36:31Z</time>
      </trkpt>
      <trkpt lat="47.569597978144884" lon="18.988618003204465">
        <ele>344.86900000000003</ele>
        <time>2010-02-06T21:36:33Z</time>
      </trkpt>
      <trkpt lat="47.569623040035367" lon="18.988595958799124">
        <ele>344.58100000000002</ele>
        <time>2010-02-06T21:36:34Z</time>
      </trkpt>
      <trkpt lat="47.569660004228354" lon="18.988558994606137">
        <ele>344.791</ele>
        <time>2010-02-06T21:36:36Z</time>
      </trkpt>
      <trkpt lat="47.569690011441708" lon="18.988518007099628">
        <ele>343.28699999999998</ele>
        <time>2010-02-06T21:36:38Z</time>
      </trkpt>
      <trkpt lat="47.569724963977933" lon="18.9884780254215">
        <ele>342.72300000000001</ele>
        <time>2010-02-06T21:36:40Z</time>
      </trkpt>
      <trkpt lat="47.569752959534526" lon="18.988433014601469">
        <ele>342.346</ele>
        <time>2010-02-06T21:36:42Z</time>
      </trkpt>
      <trkpt lat="47.569776009768248" lon="18.988393032923341">
        <ele>342.25</ele>
        <time>2010-02-06T21:36:44Z</time>
      </trkpt>
      <trkpt lat="47.569806016981602" lon="18.988335030153394">
        <ele>341.39400000000001</ele>
        <time>2010-02-06T21:36:47Z</time>
      </trkpt>
      <trkpt lat="47.569827977567911" lon="18.988291025161743">
        <ele>341.86200000000002</ele>
        <time>2010-02-06T21:36:50Z</time>
      </trkpt>
      <trkpt lat="47.569853961467743" lon="18.988247020170093">
        <ele>340.37400000000002</ele>
        <time>2010-02-06T21:36:53Z</time>
      </trkpt>
      <trkpt lat="47.569887991994619" lon="18.988202009350061">
        <ele>340.92899999999997</ele>
        <time>2010-02-06T21:36:56Z</time>
      </trkpt>
      <trkpt lat="47.569926967844367" lon="18.988146018236876">
        <ele>340.30500000000001</ele>
        <time>2010-02-06T21:36:59Z</time>
      </trkpt>
      <trkpt lat="47.569979019463062" lon="18.9880929607898">
        <ele>339.86399999999998</ele>
        <time>2010-02-06T21:37:02Z</time>
      </trkpt>
      <trkpt lat="47.57003802806139" lon="18.988057002425194">
        <ele>339.59699999999998</ele>
        <time>2010-02-06T21:37:05Z</time>
      </trkpt>
      <trkpt lat="47.570069041103125" lon="18.988029006868601">
        <ele>340.68700000000001</ele>
        <time>2010-02-06T21:37:07Z</time>
      </trkpt>
      <trkpt lat="47.570116985589266" lon="18.988001011312008">
        <ele>340.24900000000002</ele>
        <time>2010-02-06T21:37:09Z</time>
      </trkpt>
      <trkpt lat="47.570152021944523" lon="18.987977961078286">
        <ele>339.435</ele>
        <time>2010-02-06T21:37:11Z</time>
      </trkpt>
      <trkpt lat="47.570181023329496" lon="18.987943008542061">
        <ele>339.50299999999999</ele>
        <time>2010-02-06T21:37:13Z</time>
      </trkpt>
      <trkpt lat="47.570192003622651" lon="18.987892968580127">
        <ele>338.36500000000001</ele>
        <time>2010-02-06T21:37:16Z</time>
      </trkpt>
      <trkpt lat="47.570239026099443" lon="18.987848963588476">
        <ele>338.92000000000002</ele>
        <time>2010-02-06T21:37:19Z</time>
      </trkpt>
      <trkpt lat="47.570255035534501" lon="18.987809987738729">
        <ele>338.33499999999998</ele>
        <time>2010-02-06T21:37:22Z</time>
      </trkpt>
      <trkpt lat="47.570267021656036" lon="18.987760031595826">
        <ele>337.76299999999998</ele>
        <time>2010-02-06T21:37:25Z</time>
      </trkpt>
      <trkpt lat="47.570271966978908" lon="18.987718960270286">
        <ele>336.68599999999998</ele>
        <time>2010-02-06T21:37:28Z</time>
      </trkpt>
      <trkpt lat="47.570294011384249" lon="18.9876629691571">
        <ele>336.49000000000001</ele>
        <time>2010-02-06T21:37:31Z</time>
      </trkpt>
      <trkpt lat="47.570331981405616" lon="18.987621981650591">
        <ele>336.69600000000003</ele>
        <time>2010-02-06T21:37:33Z</time>
      </trkpt>
      <trkpt lat="47.570360982790589" lon="18.987578982487321">
        <ele>335.673</ele>
        <time>2010-02-06T21:37:35Z</time>
      </trkpt>
      <trkpt lat="47.570386966690421" lon="18.987547969445586">
        <ele>335.73899999999998</ele>
        <time>2010-02-06T21:37:37Z</time>
      </trkpt>
      <trkpt lat="47.570424014702439" lon="18.987507987767458">
        <ele>335.767</ele>
        <time>2010-02-06T21:37:40Z</time>
      </trkpt>
      <trkpt lat="47.57044798694551" lon="18.987472029402852">
        <ele>336.37200000000001</ele>
        <time>2010-02-06T21:37:42Z</time>
      </trkpt>
      <trkpt lat="47.570478999987245" lon="18.987435987219214">
        <ele>336.68799999999999</ele>
        <time>2010-02-06T21:37:46Z</time>
      </trkpt>
      <trkpt lat="47.570560975000262" lon="18.987386031076312">
        <ele>338.01799999999997</ele>
        <time>2010-02-06T21:37:55Z</time>
      </trkpt>
      <trkpt lat="47.57059802301228" lon="18.987359963357449">
        <ele>339.23399999999998</ele>
        <time>2010-02-06T21:38:00Z</time>
      </trkpt>
      <trkpt lat="47.570650996640325" lon="18.987350994721055">
        <ele>340.25999999999999</ele>
        <time>2010-02-06T21:38:08Z</time>
      </trkpt>
      <trkpt lat="47.570696007460356" lon="18.987287962809205">
        <ele>341.03199999999998</ele>
        <time>2010-02-06T21:38:13Z</time>
      </trkpt>
      <trkpt lat="47.570729032158852" lon="18.987245969474316">
        <ele>341.42599999999999</ele>
        <time>2010-02-06T21:38:16Z</time>
      </trkpt>
      <trkpt lat="47.57077001966536" lon="18.987220991402864">
        <ele>342.64400000000001</ele>
        <time>2010-02-06T21:38:19Z</time>
      </trkpt>
      <trkpt lat="47.570802960544825" lon="18.987182015553117">
        <ele>342.31099999999998</ele>
        <time>2010-02-06T21:38:23Z</time>
      </trkpt>
      <trkpt lat="47.57083598524332" lon="18.987149996683002">
        <ele>342.97500000000002</ele>
        <time>2010-02-06T21:38:26Z</time>
      </trkpt>
      <trkpt lat="47.570873033255339" lon="18.987114960327744">
        <ele>343.274</ele>
        <time>2010-02-06T21:38:29Z</time>
      </trkpt>
      <trkpt lat="47.570917038246989" lon="18.987079001963139">
        <ele>343.71300000000002</ele>
        <time>2010-02-06T21:38:32Z</time>
      </trkpt>
      <trkpt lat="47.570960959419608" lon="18.987022005021572">
        <ele>344.02499999999998</ele>
        <time>2010-02-06T21:38:37Z</time>
      </trkpt>
      <trkpt lat="47.570988032966852" lon="18.98697498254478">
        <ele>344.25299999999999</ele>
        <time>2010-02-06T21:38:41Z</time>
      </trkpt>
      <trkpt lat="47.571010999381542" lon="18.986926032230258">
        <ele>344.54199999999997</ele>
        <time>2010-02-06T21:38:45Z</time>
      </trkpt>
      <trkpt lat="47.571041006594896" lon="18.986874986439943">
        <ele>343.96899999999999</ele>
        <time>2010-02-06T21:38:48Z</time>
      </trkpt>
      <trkpt lat="47.571075959131122" lon="18.98684699088335">
        <ele>343.75599999999997</ele>
        <time>2010-02-06T21:38:51Z</time>
      </trkpt>
      <trkpt lat="47.571103032678366" lon="18.986807009205222">
        <ele>343.67000000000002</ele>
        <time>2010-02-06T21:38:54Z</time>
      </trkpt>
      <trkpt lat="47.571132034063339" lon="18.986766021698713">
        <ele>343.21600000000001</ele>
        <time>2010-02-06T21:38:58Z</time>
      </trkpt>
      <trkpt lat="47.571153994649649" lon="18.986711958423257">
        <ele>343.68200000000002</ele>
        <time>2010-02-06T21:39:01Z</time>
      </trkpt>
      <trkpt lat="47.571190036833286" lon="18.986663008108735">
        <ele>344.19200000000001</ele>
        <time>2010-02-06T21:39:05Z</time>
      </trkpt>
      <trkpt lat="47.57124200463295" lon="18.986607016995549">
        <ele>343.791</ele>
        <time>2010-02-06T21:39:09Z</time>
      </trkpt>
      <trkpt lat="47.571278968825936" lon="18.986571980640292">
        <ele>344.26400000000001</ele>
        <time>2010-02-06T21:39:12Z</time>
      </trkpt>
      <trkpt lat="47.571291038766503" lon="18.986524036154151">
        <ele>344.38299999999998</ele>
        <time>2010-02-06T21:39:16Z</time>
      </trkpt>
      <trkpt lat="47.571314005181193" lon="18.98648195900023">
        <ele>345.08600000000001</ele>
        <time>2010-02-06T21:39:20Z</time>
      </trkpt>
      <trkpt lat="47.571336971595883" lon="18.986432002857327">
        <ele>345.77499999999998</ele>
        <time>2010-02-06T21:39:26Z</time>
      </trkpt>
      <trkpt lat="47.571381982415915" lon="18.98639696650207">
        <ele>345.541</ele>
        <time>2010-02-06T21:39:30Z</time>
      </trkpt>
      <trkpt lat="47.571404026821256" lon="18.98631096817553">
        <ele>346.53399999999999</ele>
        <time>2010-02-06T21:39:36Z</time>
      </trkpt>
      <trkpt lat="47.571424981579185" lon="18.986261012032628">
        <ele>346.50700000000001</ele>
        <time>2010-02-06T21:39:40Z</time>
      </trkpt>
      <trkpt lat="47.571467980742455" lon="18.9862210303545">
        <ele>345.57999999999998</ele>
        <time>2010-02-06T21:39:45Z</time>
      </trkpt>
      <trkpt lat="47.571509974077344" lon="18.986192028969526">
        <ele>345.31900000000002</ele>
        <time>2010-02-06T21:39:50Z</time>
      </trkpt>
      <trkpt lat="47.571559008210897" lon="18.986142994835973">
        <ele>346.06200000000001</ele>
        <time>2010-02-06T21:39:56Z</time>
      </trkpt>
      <trkpt lat="47.571636037901044" lon="18.98607200011611">
        <ele>348.10000000000002</ele>
        <time>2010-02-06T21:40:09Z</time>
      </trkpt>
      <trkpt lat="47.571670990437269" lon="18.986021960154176">
        <ele>348.60000000000002</ele>
        <time>2010-02-06T21:40:13Z</time>
      </trkpt>
      <trkpt lat="47.571707032620907" lon="18.985962029546499">
        <ele>348.58800000000002</ele>
        <time>2010-02-06T21:40:19Z</time>
      </trkpt>
      <trkpt lat="47.571755982935429" lon="18.985910983756185">
        <ele>348.63900000000001</ele>
        <time>2010-02-06T21:40:25Z</time>
      </trkpt>
      <trkpt lat="47.571809040382504" lon="18.985876031219959">
        <ele>349.23500000000001</ele>
        <time>2010-02-06T21:40:30Z</time>
      </trkpt>
      <trkpt lat="47.571854973211884" lon="18.985845018178225">
        <ele>349.255</ele>
        <time>2010-02-06T21:40:36Z</time>
      </trkpt>
      <trkpt lat="47.571895960718393" lon="18.985806964337826">
        <ele>349.38600000000002</ele>
        <time>2010-02-06T21:40:40Z</time>
      </trkpt>
      <trkpt lat="47.57195102982223" lon="18.985749967396259">
        <ele>347.63499999999999</ele>
        <time>2010-02-06T21:40:46Z</time>
      </trkpt>
      <trkpt lat="47.571980031207204" lon="18.985716020688415">
        <ele>347.60199999999998</ele>
        <time>2010-02-06T21:40:49Z</time>
      </trkpt>
      <trkpt lat="47.572008026763797" lon="18.985688025131822">
        <ele>347.089</ele>
        <time>2010-02-06T21:40:52Z</time>
      </trkpt>
      <trkpt lat="47.572030993178487" lon="18.985644020140171">
        <ele>346.74799999999999</ele>
        <time>2010-02-06T21:40:56Z</time>
      </trkpt>
      <trkpt lat="47.572062006220222" lon="18.985588029026985">
        <ele>347.31200000000001</ele>
        <time>2010-02-06T21:41:01Z</time>
      </trkpt>
      <trkpt lat="47.572099976241589" lon="18.985551986843348">
        <ele>347.05799999999999</ele>
        <time>2010-02-06T21:41:04Z</time>
      </trkpt>
      <trkpt lat="47.572134006768465" lon="18.985497001558542">
        <ele>346.84800000000001</ele>
        <time>2010-02-06T21:41:08Z</time>
      </trkpt>
      <trkpt lat="47.57216602563858" lon="18.985460037365556">
        <ele>346.56099999999998</ele>
        <time>2010-02-06T21:41:12Z</time>
      </trkpt>
      <trkpt lat="47.572200978174806" lon="18.985417960211635">
        <ele>345.09699999999998</ele>
        <time>2010-02-06T21:41:16Z</time>
      </trkpt>
      <trkpt lat="47.572239032015204" lon="18.985361969098449">
        <ele>344.61599999999999</ele>
        <time>2010-02-06T21:41:21Z</time>
      </trkpt>
      <trkpt lat="47.572286976501346" lon="18.98532098159194">
        <ele>343.90699999999998</ele>
        <time>2010-02-06T21:41:26Z</time>
      </trkpt>
      <trkpt lat="47.572300974279642" lon="18.985272031277418">
        <ele>343.529</ele>
        <time>2010-02-06T21:41:30Z</time>
      </trkpt>
      <trkpt lat="47.572330981492996" lon="18.985242024064064">
        <ele>343.61700000000002</ele>
        <time>2010-02-06T21:41:33Z</time>
      </trkpt>
      <trkpt lat="47.57236098870635" lon="18.985189972445369">
        <ele>342.65600000000001</ele>
        <time>2010-02-06T21:41:38Z</time>
      </trkpt>
      <trkpt lat="47.572417985647917" lon="18.985156025737524">
        <ele>343.47899999999998</ele>
        <time>2010-02-06T21:41:44Z</time>
      </trkpt>
      <trkpt lat="47.572451010346413" lon="18.985111014917493">
        <ele>344.10500000000002</ele>
        <time>2010-02-06T21:41:48Z</time>
      </trkpt>
      <trkpt lat="47.572482023388147" lon="18.985075978562236">
        <ele>343.80500000000001</ele>
        <time>2010-02-06T21:41:52Z</time>
      </trkpt>
      <trkpt lat="47.572513036429882" lon="18.98504002019763">
        <ele>343.98000000000002</ele>
        <time>2010-02-06T21:41:56Z</time>
      </trkpt>
      <trkpt lat="47.57255201227963" lon="18.984986040741205">
        <ele>344.04300000000001</ele>
        <time>2010-02-06T21:42:00Z</time>
      </trkpt>
      <trkpt lat="47.572583025321364" lon="18.984943041577935">
        <ele>343.315</ele>
        <time>2010-02-06T21:42:03Z</time>
      </trkpt>
      <trkpt lat="47.572625018656254" lon="18.984896019101143">
        <ele>343.87</ele>
        <time>2010-02-06T21:42:08Z</time>
      </trkpt>
      <trkpt lat="47.572652008384466" lon="18.984871963039041">
        <ele>344.11799999999999</ele>
        <time>2010-02-06T21:42:12Z</time>
      </trkpt>
      <trkpt lat="47.57270397618413" lon="18.984836004674435">
        <ele>343.78399999999999</ele>
        <time>2010-02-06T21:42:17Z</time>
      </trkpt>
      <trkpt lat="47.572735995054245" lon="18.984772972762585">
        <ele>344.44600000000003</ele>
        <time>2010-02-06T21:42:22Z</time>
      </trkpt>
      <trkpt lat="47.572774970903993" lon="18.984721004962921">
        <ele>344.70800000000003</ele>
        <time>2010-02-06T21:42:27Z</time>
      </trkpt>
      <trkpt lat="47.572813024744391" lon="18.984660990536213">
        <ele>345.32900000000001</ele>
        <time>2010-02-06T21:42:32Z</time>
      </trkpt>
      <trkpt lat="47.572847977280617" lon="18.984615979716182">
        <ele>345.07600000000002</ele>
        <time>2010-02-06T21:42:36Z</time>
      </trkpt>
      <trkpt lat="47.572871027514338" lon="18.98456702940166">
        <ele>345.77800000000002</ele>
        <time>2010-02-06T21:42:40Z</time>
      </trkpt>
      <trkpt lat="47.57291603833437" lon="18.984516989439726">
        <ele>345.863</ele>
        <time>2010-02-06T21:42:44Z</time>
      </trkpt>
      <trkpt lat="47.572951996698976" lon="18.984470972791314">
        <ele>345.38200000000001</ele>
        <time>2010-02-06T21:42:47Z</time>
      </trkpt>
      <trkpt lat="47.572988038882613" lon="18.984435014426708">
        <ele>344.125</ele>
        <time>2010-02-06T21:42:50Z</time>
      </trkpt>
      <trkpt lat="47.573020979762077" lon="18.984399978071451">
        <ele>343.71899999999999</ele>
        <time>2010-02-06T21:42:53Z</time>
      </trkpt>
      <trkpt lat="47.573043024167418" lon="18.984356978908181">
        <ele>342.84199999999998</ele>
        <time>2010-02-06T21:42:57Z</time>
      </trkpt>
      <trkpt lat="47.573106978088617" lon="18.984301993623376">
        <ele>342.20600000000002</ele>
        <time>2010-02-06T21:43:01Z</time>
      </trkpt>
      <trkpt lat="47.573166992515326" lon="18.984258994460106">
        <ele>341.61399999999998</ele>
        <time>2010-02-06T21:43:04Z</time>
      </trkpt>
      <trkpt lat="47.573208985850215" lon="18.98422596976161">
        <ele>340.37599999999998</ele>
        <time>2010-02-06T21:43:06Z</time>
      </trkpt>
      <trkpt lat="47.573231030255556" lon="18.984180958941579">
        <ele>338.392</ele>
        <time>2010-02-06T21:43:09Z</time>
      </trkpt>
      <trkpt lat="47.573256008327007" lon="18.984133014455438">
        <ele>336.76600000000002</ele>
        <time>2010-02-06T21:43:12Z</time>
      </trkpt>
      <trkpt lat="47.573294984176755" lon="18.984081968665123">
        <ele>335.74200000000002</ele>
        <time>2010-02-06T21:43:15Z</time>
      </trkpt>
      <trkpt lat="47.573318034410477" lon="18.984027989208698">
        <ele>335.24299999999999</ele>
        <time>2010-02-06T21:43:18Z</time>
      </trkpt>
      <trkpt lat="47.57334602996707" lon="18.983984990045428">
        <ele>334.67500000000001</ele>
        <time>2010-02-06T21:43:21Z</time>
      </trkpt>
      <trkpt lat="47.573391040787101" lon="18.983936039730906">
        <ele>334.61700000000002</ele>
        <time>2010-02-06T21:43:24Z</time>
      </trkpt>
      <trkpt lat="47.573414007201791" lon="18.983877031132579">
        <ele>334.00900000000001</ele>
        <time>2010-02-06T21:43:27Z</time>
      </trkpt>
      <trkpt lat="47.573440996930003" lon="18.983839983120561">
        <ele>333.49799999999999</ele>
        <time>2010-02-06T21:43:30Z</time>
      </trkpt>
      <trkpt lat="47.573469998314977" lon="18.98379597812891">
        <ele>333.42099999999999</ele>
        <time>2010-02-06T21:43:33Z</time>
      </trkpt>
      <trkpt lat="47.573491958901286" lon="18.983739987015724">
        <ele>332.21800000000002</ele>
        <time>2010-02-06T21:43:36Z</time>
      </trkpt>
      <trkpt lat="47.573517020791769" lon="18.983691958710551">
        <ele>331.702</ele>
        <time>2010-02-06T21:43:39Z</time>
      </trkpt>
      <trkpt lat="47.573534036055207" lon="18.983646025881171">
        <ele>331.16199999999998</ele>
        <time>2010-02-06T21:43:42Z</time>
      </trkpt>
      <trkpt lat="47.57354099303484" lon="18.983591040596366">
        <ele>329.12700000000001</ele>
        <time>2010-02-06T21:43:45Z</time>
      </trkpt>
      <trkpt lat="47.573581980541348" lon="18.983566984534264">
        <ele>329.21800000000002</ele>
        <time>2010-02-06T21:43:48Z</time>
      </trkpt>
      <trkpt lat="47.573617016896605" lon="18.983525997027755">
        <ele>328.64999999999998</ele>
        <time>2010-02-06T21:43:51Z</time>
      </trkpt>
      <trkpt lat="47.573639983311296" lon="18.983480986207724">
        <ele>328.52999999999997</ele>
        <time>2010-02-06T21:43:55Z</time>
      </trkpt>
      <trkpt lat="47.573687005788088" lon="18.983430024236441">
        <ele>328.92700000000002</ele>
        <time>2010-02-06T21:43:59Z</time>
      </trkpt>
      <trkpt lat="47.573716007173061" lon="18.983390964567661">
        <ele>328.99400000000003</ele>
        <time>2010-02-06T21:44:02Z</time>
      </trkpt>
      <trkpt lat="47.573753977194428" lon="18.98336598649621">
        <ele>329.31099999999998</ele>
        <time>2010-02-06T21:44:05Z</time>
      </trkpt>
      <trkpt lat="47.573763029649854" lon="18.983319969847798">
        <ele>329.78399999999999</ele>
        <time>2010-02-06T21:44:10Z</time>
      </trkpt>
      <trkpt lat="47.573791025206447" lon="18.983275964856148">
        <ele>330.91399999999999</ele>
        <time>2010-02-06T21:44:15Z</time>
      </trkpt>
      <trkpt lat="47.573837963864207" lon="18.98321402259171">
        <ele>331.971</ele>
        <time>2010-02-06T21:44:21Z</time>
      </trkpt>
      <trkpt lat="47.573865037411451" lon="18.983167000114918">
        <ele>332.00700000000001</ele>
        <time>2010-02-06T21:44:25Z</time>
      </trkpt>
      <trkpt lat="47.573883980512619" lon="18.983111009001732">
        <ele>331.79599999999999</ele>
        <time>2010-02-06T21:44:29Z</time>
      </trkpt>
      <trkpt lat="47.573908036574721" lon="18.983070021495223">
        <ele>329.94499999999999</ele>
        <time>2010-02-06T21:44:32Z</time>
      </trkpt>
      <trkpt lat="47.573958998546004" lon="18.983003972098231">
        <ele>329.67500000000001</ele>
        <time>2010-02-06T21:44:37Z</time>
      </trkpt>
      <trkpt lat="47.573990011587739" lon="18.982950998470187">
        <ele>327.99700000000001</ele>
        <time>2010-02-06T21:44:41Z</time>
      </trkpt>
      <trkpt lat="47.574041979387403" lon="18.982917973771691">
        <ele>327.74599999999998</ele>
        <time>2010-02-06T21:44:44Z</time>
      </trkpt>
      <trkpt lat="47.574063017964363" lon="18.982877992093563">
        <ele>326.85700000000003</ele>
        <time>2010-02-06T21:44:48Z</time>
      </trkpt>
      <trkpt lat="47.574101993814111" lon="18.982825018465519">
        <ele>326.34199999999998</ele>
        <time>2010-02-06T21:44:52Z</time>
      </trkpt>
      <trkpt lat="47.574138035997748" lon="18.982769027352333">
        <ele>325.755</ele>
        <time>2010-02-06T21:44:56Z</time>
      </trkpt>
      <trkpt lat="47.574153039604425" lon="18.98269803263247">
        <ele>325.416</ele>
        <time>2010-02-06T21:45:00Z</time>
      </trkpt>
      <trkpt lat="47.57418698631227" lon="18.982651010155678">
        <ele>325.46699999999998</ele>
        <time>2010-02-06T21:45:04Z</time>
      </trkpt>
      <trkpt lat="47.574235014617443" lon="18.982627959921956">
        <ele>325.26600000000002</ele>
        <time>2010-02-06T21:45:09Z</time>
      </trkpt>
      <trkpt lat="47.574278013780713" lon="18.982586972415447">
        <ele>324.35599999999999</ele>
        <time>2010-02-06T21:45:12Z</time>
      </trkpt>
      <trkpt lat="47.574321012943983" lon="18.982533998787403">
        <ele>323.363</ele>
        <time>2010-02-06T21:45:15Z</time>
      </trkpt>
      <trkpt lat="47.574340961873531" lon="18.982499968260527">
        <ele>322.19600000000003</ele>
        <time>2010-02-06T21:45:17Z</time>
      </trkpt>
      <trkpt lat="47.574351020157337" lon="18.982455041259527">
        <ele>321.83800000000002</ele>
        <time>2010-02-06T21:45:19Z</time>
      </trkpt>
      <trkpt lat="47.574394019320607" lon="18.982425034046173">
        <ele>320.24799999999999</ele>
        <time>2010-02-06T21:45:21Z</time>
      </trkpt>
      <trkpt lat="47.5744220148772" lon="18.982383040711284">
        <ele>319.31</ele>
        <time>2010-02-06T21:45:23Z</time>
      </trkpt>
      <trkpt lat="47.574469037353992" lon="18.98235403932631">
        <ele>318.79300000000001</ele>
        <time>2010-02-06T21:45:25Z</time>
      </trkpt>
      <trkpt lat="47.574483035132289" lon="18.98231397382915">
        <ele>318.15100000000001</ele>
        <time>2010-02-06T21:45:27Z</time>
      </trkpt>
      <trkpt lat="47.57448404096067" lon="18.982254965230823">
        <ele>317.38900000000001</ele>
        <time>2010-02-06T21:45:30Z</time>
      </trkpt>
      <trkpt lat="47.574511030688882" lon="18.982213977724314">
        <ele>316.76799999999997</ele>
        <time>2010-02-06T21:45:32Z</time>
      </trkpt>
      <trkpt lat="47.574539026245475" lon="18.982168966904283">
        <ele>316.75599999999997</ele>
        <time>2010-02-06T21:45:34Z</time>
      </trkpt>
      <trkpt lat="47.574559981003404" lon="18.982128985226154">
        <ele>316.01600000000002</ele>
        <time>2010-02-06T21:45:36Z</time>
      </trkpt>
      <trkpt lat="47.574578002095222" lon="18.982099983841181">
        <ele>315.24400000000003</ele>
        <time>2010-02-06T21:45:38Z</time>
      </trkpt>
      <trkpt lat="47.574605997651815" lon="18.982070982456207">
        <ele>315.26999999999998</ele>
        <time>2010-02-06T21:45:40Z</time>
      </trkpt>
      <trkpt lat="47.574633993208408" lon="18.982024965807796">
        <ele>315.01400000000001</ele>
        <time>2010-02-06T21:45:43Z</time>
      </trkpt>
      <trkpt lat="47.574644973501563" lon="18.981985989958048">
        <ele>315.20299999999997</ele>
        <time>2010-02-06T21:45:45Z</time>
      </trkpt>
      <trkpt lat="47.574669029563665" lon="18.981940979138017">
        <ele>315.76799999999997</ele>
        <time>2010-02-06T21:45:48Z</time>
      </trkpt>
      <trkpt lat="47.574700964614749" lon="18.981896974146366">
        <ele>315.46199999999999</ele>
        <time>2010-02-06T21:45:51Z</time>
      </trkpt>
      <trkpt lat="47.574740024283528" lon="18.981865039095283">
        <ele>313.73000000000002</ele>
        <time>2010-02-06T21:45:54Z</time>
      </trkpt>
      <trkpt lat="47.574797021225095" lon="18.981825979426503">
        <ele>313.58499999999998</ele>
        <time>2010-02-06T21:45:57Z</time>
      </trkpt>
      <trkpt lat="47.574819987639785" lon="18.981779962778091">
        <ele>311.95699999999999</ele>
        <time>2010-02-06T21:45:59Z</time>
      </trkpt>
      <trkpt lat="47.574861980974674" lon="18.981722965836525">
        <ele>311.65100000000001</ele>
        <time>2010-02-06T21:46:02Z</time>
      </trkpt>
      <trkpt lat="47.574901962652802" lon="18.981658006086946">
        <ele>311.714</ele>
        <time>2010-02-06T21:46:06Z</time>
      </trkpt>
      <trkpt lat="47.574914032593369" lon="18.981598997488618">
        <ele>312.392</ele>
        <time>2010-02-06T21:46:09Z</time>
      </trkpt>
      <trkpt lat="47.574913026764989" lon="18.981542000547051">
        <ele>312.49400000000003</ele>
        <time>2010-02-06T21:46:12Z</time>
      </trkpt>
      <trkpt lat="47.574949990957975" lon="18.981487015262246">
        <ele>313.00599999999997</ele>
        <time>2010-02-06T21:46:15Z</time>
      </trkpt>
      <trkpt lat="47.574975974857807" lon="18.981434963643551">
        <ele>313.22500000000002</ele>
        <time>2010-02-06T21:46:18Z</time>
      </trkpt>
      <trkpt lat="47.574993995949626" lon="18.981386013329029">
        <ele>313.66000000000003</ele>
        <time>2010-02-06T21:46:21Z</time>
      </trkpt>
      <trkpt lat="47.574991984292865" lon="18.981331028044224">
        <ele>312.75200000000001</ele>
        <time>2010-02-06T21:46:24Z</time>
      </trkpt>
      <trkpt lat="47.574995001778007" lon="18.981274031102657">
        <ele>312.67200000000003</ele>
        <time>2010-02-06T21:46:27Z</time>
      </trkpt>
      <trkpt lat="47.575001958757639" lon="18.981213010847569">
        <ele>312.322</ele>
        <time>2010-02-06T21:46:30Z</time>
      </trkpt>
      <trkpt lat="47.5750039704144" lon="18.981161965057254">
        <ele>311.91399999999999</ele>
        <time>2010-02-06T21:46:33Z</time>
      </trkpt>
      <trkpt lat="47.574984021484852" lon="18.98110999725759">
        <ele>311.87299999999999</ele>
        <time>2010-02-06T21:46:35Z</time>
      </trkpt>
      <trkpt lat="47.574948985129595" lon="18.98104696534574">
        <ele>312.63299999999998</ele>
        <time>2010-02-06T21:46:38Z</time>
      </trkpt>
      <trkpt lat="47.574953008443117" lon="18.980991980060935">
        <ele>313.43599999999998</ele>
        <time>2010-02-06T21:46:41Z</time>
      </trkpt>
      <trkpt lat="47.574969017878175" lon="18.980947975069284">
        <ele>312.96600000000001</ele>
        <time>2010-02-06T21:46:44Z</time>
      </trkpt>
      <trkpt lat="47.574989972636104" lon="18.980892989784479">
        <ele>313.197</ele>
        <time>2010-02-06T21:46:48Z</time>
      </trkpt>
      <trkpt lat="47.575019979849458" lon="18.980827024206519">
        <ele>313.26900000000001</ele>
        <time>2010-02-06T21:46:51Z</time>
      </trkpt>
      <trkpt lat="47.575033977627754" lon="18.980772038921714">
        <ele>312.94600000000003</ele>
        <time>2010-02-06T21:46:54Z</time>
      </trkpt>
      <trkpt lat="47.575045041739941" lon="18.98072300478816">
        <ele>313.20600000000002</ele>
        <time>2010-02-06T21:46:57Z</time>
      </trkpt>
      <trkpt lat="47.575071025639772" lon="18.980670031160116">
        <ele>313.274</ele>
        <time>2010-02-06T21:47:00Z</time>
      </trkpt>
      <trkpt lat="47.575097009539604" lon="18.980626026168466">
        <ele>313.00099999999998</ele>
        <time>2010-02-06T21:47:03Z</time>
      </trkpt>
      <trkpt lat="47.575135985389352" lon="18.980580009520054">
        <ele>313.03699999999998</ele>
        <time>2010-02-06T21:47:06Z</time>
      </trkpt>
      <trkpt lat="47.575163980945945" lon="18.980522006750107">
        <ele>313.09300000000002</ele>
        <time>2010-02-06T21:47:09Z</time>
      </trkpt>
      <trkpt lat="47.575171021744609" lon="18.980462998151779">
        <ele>313.91699999999997</ele>
        <time>2010-02-06T21:47:12Z</time>
      </trkpt>
      <trkpt lat="47.575150988996029" lon="18.98040097206831">
        <ele>314.38</ele>
        <time>2010-02-06T21:47:16Z</time>
      </trkpt>
      <trkpt lat="47.575182002037764" lon="18.980322014540434">
        <ele>315.82799999999997</ele>
        <time>2010-02-06T21:47:22Z</time>
      </trkpt>
      <trkpt lat="47.575184013694525" lon="18.980255965143442">
        <ele>315.63799999999998</ele>
        <time>2010-02-06T21:47:26Z</time>
      </trkpt>
      <trkpt lat="47.575203040614724" lon="18.980191005393863">
        <ele>316.47399999999999</ele>
        <time>2010-02-06T21:47:30Z</time>
      </trkpt>
      <trkpt lat="47.575192982330918" lon="18.98012101650238">
        <ele>316.91800000000001</ele>
        <time>2010-02-06T21:47:34Z</time>
      </trkpt>
      <trkpt lat="47.575207985937595" lon="18.980074999853969">
        <ele>317.22800000000001</ele>
        <time>2010-02-06T21:47:37Z</time>
      </trkpt>
      <trkpt lat="47.575203962624073" lon="18.980024959892035">
        <ele>318.334</ele>
        <time>2010-02-06T21:47:41Z</time>
      </trkpt>
      <trkpt lat="47.575215026736259" lon="18.97994801402092">
        <ele>318.20699999999999</ele>
        <time>2010-02-06T21:47:45Z</time>
      </trkpt>
      <trkpt lat="47.575255008414388" lon="18.979871990159154">
        <ele>319.57400000000001</ele>
        <time>2010-02-06T21:47:50Z</time>
      </trkpt>
      <trkpt lat="47.575303036719561" lon="18.979836031794548">
        <ele>319.858</ele>
        <time>2010-02-06T21:47:53Z</time>
      </trkpt>
      <trkpt lat="47.5752819981426" lon="18.97977601736784">
        <ele>320.476</ele>
        <time>2010-02-06T21:47:57Z</time>
      </trkpt>
      <trkpt lat="47.575264982879162" lon="18.979716002941132">
        <ele>321.10700000000003</ele>
        <time>2010-02-06T21:48:01Z</time>
      </trkpt>
      <trkpt lat="47.575248973444104" lon="18.979653976857662">
        <ele>321.52300000000002</ele>
        <time>2010-02-06T21:48:05Z</time>
      </trkpt>
      <trkpt lat="47.575262971222401" lon="18.979592034593225">
        <ele>321.49900000000002</ele>
        <time>2010-02-06T21:48:09Z</time>
      </trkpt>
      <trkpt lat="47.575252996757627" lon="18.979544006288052">
        <ele>322.291</ele>
        <time>2010-02-06T21:48:13Z</time>
      </trkpt>
      <trkpt lat="47.57525903172791" lon="18.979473011568189">
        <ele>322.29500000000002</ele>
        <time>2010-02-06T21:48:17Z</time>
      </trkpt>
      <trkpt lat="47.57526196539402" lon="18.979409979656339">
        <ele>322.596</ele>
        <time>2010-02-06T21:48:21Z</time>
      </trkpt>
      <trkpt lat="47.5752819981426" lon="18.979351976886392">
        <ele>322.65499999999997</ele>
        <time>2010-02-06T21:48:24Z</time>
      </trkpt>
      <trkpt lat="47.575278980657458" lon="18.979277964681387">
        <ele>324.44900000000001</ele>
        <time>2010-02-06T21:48:28Z</time>
      </trkpt>
      <trkpt lat="47.575234975665808" lon="18.979185009375215">
        <ele>324.43099999999998</ele>
        <time>2010-02-06T21:48:34Z</time>
      </trkpt>
      <trkpt lat="47.575171021744609" lon="18.979106973856688">
        <ele>325.70600000000002</ele>
        <time>2010-02-06T21:48:40Z</time>
      </trkpt>
      <trkpt lat="47.575148977339268" lon="18.97906799800694">
        <ele>326.48599999999999</ele>
        <time>2010-02-06T21:48:43Z</time>
      </trkpt>
      <trkpt lat="47.575141014531255" lon="18.978998009115458">
        <ele>326.005</ele>
        <time>2010-02-06T21:48:47Z</time>
      </trkpt>
      <trkpt lat="47.575134979560971" lon="18.978929026052356">
        <ele>326.29700000000003</ele>
        <time>2010-02-06T21:48:51Z</time>
      </trkpt>
      <trkpt lat="47.575108995661139" lon="18.978866999968886">
        <ele>326.786</ele>
        <time>2010-02-06T21:48:55Z</time>
      </trkpt>
      <trkpt lat="47.575084017589688" lon="18.978807991370559">
        <ele>326.505</ele>
        <time>2010-02-06T21:48:58Z</time>
      </trkpt>
      <trkpt lat="47.575053004547954" lon="18.978747976943851">
        <ele>327.19900000000001</ele>
        <time>2010-02-06T21:49:02Z</time>
      </trkpt>
      <trkpt lat="47.5750039704144" lon="18.978650998324156">
        <ele>326.83600000000001</ele>
        <time>2010-02-06T21:49:07Z</time>
      </trkpt>
      <trkpt lat="47.574993995949626" lon="18.978602970018983">
        <ele>326.10700000000003</ele>
        <time>2010-02-06T21:49:09Z</time>
      </trkpt>
      <trkpt lat="47.574974969029427" lon="18.978549996390939">
        <ele>324.10899999999998</ele>
        <time>2010-02-06T21:49:11Z</time>
      </trkpt>
      <trkpt lat="47.574970023706555" lon="18.978486964479089">
        <ele>324.39100000000002</ele>
        <time>2010-02-06T21:49:14Z</time>
      </trkpt>
      <trkpt lat="47.574933981522918" lon="18.978425022214651">
        <ele>323.649</ele>
        <time>2010-02-06T21:49:17Z</time>
      </trkpt>
      <trkpt lat="47.574929036200047" lon="18.978377999737859">
        <ele>323.447</ele>
        <time>2010-02-06T21:49:20Z</time>
      </trkpt>
      <trkpt lat="47.574885031208396" lon="18.978289989754558">
        <ele>323.52300000000002</ele>
        <time>2010-02-06T21:49:26Z</time>
      </trkpt>
      <trkpt lat="47.574844965711236" lon="18.978222012519836">
        <ele>324.09199999999998</ele>
        <time>2010-02-06T21:49:30Z</time>
      </trkpt>
      <trkpt lat="47.574811019003391" lon="18.978161998093128">
        <ele>324.62099999999998</ele>
        <time>2010-02-06T21:49:34Z</time>
      </trkpt>
      <trkpt lat="47.574728960171342" lon="18.978086980059743">
        <ele>325.31</ele>
        <time>2010-02-06T21:49:39Z</time>
      </trkpt>
      <trkpt lat="47.574732983484864" lon="18.977940967306495">
        <ele>326.20400000000001</ele>
        <time>2010-02-06T21:49:52Z</time>
      </trkpt>
      <trkpt lat="47.574751004576683" lon="18.977846000343561">
        <ele>327.77600000000001</ele>
        <time>2010-02-06T21:50:00Z</time>
      </trkpt>
      <trkpt lat="47.574751004576683" lon="18.977789003401995">
        <ele>328.303</ele>
        <time>2010-02-06T21:50:04Z</time>
      </trkpt>
      <trkpt lat="47.574748992919922" lon="18.977731000632048">
        <ele>329.10500000000002</ele>
        <time>2010-02-06T21:50:07Z</time>
      </trkpt>
      <trkpt lat="47.574742035940289" lon="18.977657994255424">
        <ele>329.62900000000002</ele>
        <time>2010-02-06T21:50:12Z</time>
      </trkpt>
      <trkpt lat="47.574749998748302" lon="18.977590017020702">
        <ele>329.36000000000001</ele>
        <time>2010-02-06T21:50:16Z</time>
      </trkpt>
      <trkpt lat="47.574736000970006" lon="18.977518016472459">
        <ele>330.404</ele>
        <time>2010-02-06T21:50:20Z</time>
      </trkpt>
      <trkpt lat="47.574710017070174" lon="18.977479040622711">
        <ele>330.25299999999999</ele>
        <time>2010-02-06T21:50:23Z</time>
      </trkpt>
      <trkpt lat="47.574681015685201" lon="18.97743402980268">
        <ele>330.16699999999997</ele>
        <time>2010-02-06T21:50:26Z</time>
      </trkpt>
      <trkpt lat="47.574626030400395" lon="18.977378960698843">
        <ele>330.41500000000002</ele>
        <time>2010-02-06T21:50:30Z</time>
      </trkpt>
      <trkpt lat="47.574584959074855" lon="18.977325987070799">
        <ele>330.18000000000001</ele>
        <time>2010-02-06T21:50:34Z</time>
      </trkpt>
      <trkpt lat="47.574569033458829" lon="18.977132029831409">
        <ele>330.67000000000002</ele>
        <time>2010-02-06T21:50:48Z</time>
      </trkpt>
      <trkpt lat="47.574566015973687" lon="18.977074027061462">
        <ele>331.38900000000001</ele>
        <time>2010-02-06T21:50:52Z</time>
      </trkpt>
      <trkpt lat="47.574543971568346" lon="18.977019041776657">
        <ele>330.82799999999997</ele>
        <time>2010-02-06T21:50:56Z</time>
      </trkpt>
      <trkpt lat="47.574525028467178" lon="18.976933965459466">
        <ele>331.589</ele>
        <time>2010-02-06T21:51:02Z</time>
      </trkpt>
      <trkpt lat="47.574559981003404" lon="18.976874034851789">
        <ele>331.96899999999999</ele>
        <time>2010-02-06T21:51:07Z</time>
      </trkpt>
      <trkpt lat="47.574555035680532" lon="18.976774960756302">
        <ele>331.67700000000002</ele>
        <time>2010-02-06T21:51:14Z</time>
      </trkpt>
      <trkpt lat="47.574587976559997" lon="18.976714024320245">
        <ele>331.928</ele>
        <time>2010-02-06T21:51:18Z</time>
      </trkpt>
      <trkpt lat="47.574608009308577" lon="18.976624002680182">
        <ele>332.44200000000001</ele>
        <time>2010-02-06T21:51:24Z</time>
      </trkpt>
      <trkpt lat="47.574617983773351" lon="18.976565999910235">
        <ele>332.79599999999999</ele>
        <time>2010-02-06T21:51:29Z</time>
      </trkpt>
      <trkpt lat="47.57461303845048" lon="18.976527024060488">
        <ele>333.60599999999999</ele>
        <time>2010-02-06T21:51:34Z</time>
      </trkpt>
      <trkpt lat="47.574600968509912" lon="18.97646801546216">
        <ele>333.40499999999997</ele>
        <time>2010-02-06T21:51:40Z</time>
      </trkpt>
      <trkpt lat="47.574627958238125" lon="18.976400038227439">
        <ele>333.83100000000002</ele>
        <time>2010-02-06T21:51:47Z</time>
      </trkpt>
      <trkpt lat="47.574657965451479" lon="18.976352009922266">
        <ele>333.834</ele>
        <time>2010-02-06T21:51:51Z</time>
      </trkpt>
      <trkpt lat="47.574713034555316" lon="18.976250002160668">
        <ele>334.30799999999999</ele>
        <time>2010-02-06T21:51:59Z</time>
      </trkpt>
      <trkpt lat="47.574732983484864" lon="18.976174984127283">
        <ele>334.92099999999999</ele>
        <time>2010-02-06T21:52:04Z</time>
      </trkpt>
      <trkpt lat="47.574725020676851" lon="18.976119998842478">
        <ele>334.85500000000002</ele>
        <time>2010-02-06T21:52:12Z</time>
      </trkpt>
      <trkpt lat="47.574773970991373" lon="18.976041041314602">
        <ele>335.952</ele>
        <time>2010-02-06T21:52:24Z</time>
      </trkpt>
      <trkpt lat="47.57478897459805" lon="18.975998964160681">
        <ele>336.20699999999999</ele>
        <time>2010-02-06T21:52:29Z</time>
      </trkpt>
      <trkpt lat="47.574829962104559" lon="18.975941967219114">
        <ele>336.49400000000003</ele>
        <time>2010-02-06T21:52:36Z</time>
      </trkpt>
      <trkpt lat="47.574889976531267" lon="18.975882036611438">
        <ele>337.48899999999998</ele>
        <time>2010-02-06T21:52:42Z</time>
      </trkpt>
      <trkpt lat="47.574915960431099" lon="18.975840965285897">
        <ele>337.82100000000003</ele>
        <time>2010-02-06T21:52:46Z</time>
      </trkpt>
      <trkpt lat="47.574940016493201" lon="18.975799977779388">
        <ele>338.053</ele>
        <time>2010-02-06T21:52:51Z</time>
      </trkpt>
      <trkpt lat="47.574955020099878" lon="18.975747004151344">
        <ele>338.97399999999999</ele>
        <time>2010-02-06T21:52:55Z</time>
      </trkpt>
      <trkpt lat="47.574988966807723" lon="18.975718002766371">
        <ele>340.08300000000003</ele>
        <time>2010-02-06T21:52:59Z</time>
      </trkpt>
      <trkpt lat="47.575007993727922" lon="18.97562999278307">
        <ele>340.91899999999998</ele>
        <time>2010-02-06T21:53:06Z</time>
      </trkpt>
      <trkpt lat="47.575022997334599" lon="18.975582970306277">
        <ele>341.48700000000002</ele>
        <time>2010-02-06T21:53:10Z</time>
      </trkpt>
      <trkpt lat="47.575020985677838" lon="18.975505018606782">
        <ele>341.18099999999998</ele>
        <time>2010-02-06T21:53:15Z</time>
      </trkpt>
      <trkpt lat="47.575018974021077" lon="18.975440980866551">
        <ele>341.10199999999998</ele>
        <time>2010-02-06T21:53:19Z</time>
      </trkpt>
      <trkpt lat="47.575011011213064" lon="18.975360011681914">
        <ele>341.49099999999999</ele>
        <time>2010-02-06T21:53:24Z</time>
      </trkpt>
      <trkpt lat="47.575029032304883" lon="18.97530703805387">
        <ele>341.952</ele>
        <time>2010-02-06T21:53:28Z</time>
      </trkpt>
      <trkpt lat="47.57504596374929" lon="18.975251968950033">
        <ele>342.178</ele>
        <time>2010-02-06T21:53:32Z</time>
      </trkpt>
      <trkpt lat="47.575062979012728" lon="18.975196983665228">
        <ele>342.56599999999997</ele>
        <time>2010-02-06T21:53:36Z</time>
      </trkpt>
      <trkpt lat="47.575083011761308" lon="18.975146021693945">
        <ele>342.65499999999997</ele>
        <time>2010-02-06T21:53:39Z</time>
      </trkpt>
      <trkpt lat="47.575079994276166" lon="18.975082989782095">
        <ele>342.48500000000001</ele>
        <time>2010-02-06T21:53:43Z</time>
      </trkpt>
      <trkpt lat="47.575069013983011" lon="18.975017024204135">
        <ele>343.05200000000002</ele>
        <time>2010-02-06T21:53:47Z</time>
      </trkpt>
      <trkpt lat="47.575103966519237" lon="18.97496497258544">
        <ele>343.113</ele>
        <time>2010-02-06T21:53:51Z</time>
      </trkpt>
      <trkpt lat="47.575108995661139" lon="18.974918033927679">
        <ele>344.05900000000003</ele>
        <time>2010-02-06T21:53:54Z</time>
      </trkpt>
      <trkpt lat="47.575091980397701" lon="18.974846033379436">
        <ele>344.39499999999998</ele>
        <time>2010-02-06T21:53:58Z</time>
      </trkpt>
      <trkpt lat="47.575098015367985" lon="18.974789958447218">
        <ele>343.947</ele>
        <time>2010-02-06T21:54:01Z</time>
      </trkpt>
      <trkpt lat="47.575093992054462" lon="18.974720975384116">
        <ele>343.95100000000002</ele>
        <time>2010-02-06T21:54:05Z</time>
      </trkpt>
      <trkpt lat="47.575097009539604" lon="18.974655009806156">
        <ele>343.73399999999998</ele>
        <time>2010-02-06T21:54:09Z</time>
      </trkpt>
      <trkpt lat="47.575077982619405" lon="18.974563982337713">
        <ele>343.50700000000001</ele>
        <time>2010-02-06T21:54:14Z</time>
      </trkpt>
      <trkpt lat="47.575128022581339" lon="18.974487958475947">
        <ele>343.82900000000001</ele>
        <time>2010-02-06T21:54:18Z</time>
      </trkpt>
      <trkpt lat="47.575125005096197" lon="18.974425010383129">
        <ele>342.85700000000003</ele>
        <time>2010-02-06T21:54:22Z</time>
      </trkpt>
      <trkpt lat="47.575111007317901" lon="18.97436298429966">
        <ele>342.29899999999998</ele>
        <time>2010-02-06T21:54:26Z</time>
      </trkpt>
      <trkpt lat="47.575106984004378" lon="18.974290983751416">
        <ele>341.79300000000001</ele>
        <time>2010-02-06T21:54:30Z</time>
      </trkpt>
      <trkpt lat="47.575091980397701" lon="18.974208002910018">
        <ele>340.85700000000003</ele>
        <time>2010-02-06T21:54:35Z</time>
      </trkpt>
      <trkpt lat="47.575069013983011" lon="18.974151005968451">
        <ele>340.548</ele>
        <time>2010-02-06T21:54:38Z</time>
      </trkpt>
      <trkpt lat="47.575090974569321" lon="18.974076993763447">
        <ele>340.13400000000001</ele>
        <time>2010-02-06T21:54:42Z</time>
      </trkpt>
      <trkpt lat="47.57508896291256" lon="18.974031982943416">
        <ele>339.80900000000003</ele>
        <time>2010-02-06T21:54:45Z</time>
      </trkpt>
      <trkpt lat="47.575180996209383" lon="18.973957970738411">
        <ele>339.68200000000002</ele>
        <time>2010-02-06T21:54:50Z</time>
      </trkpt>
      <trkpt lat="47.575159035623074" lon="18.973886976018548">
        <ele>339.226</ele>
        <time>2010-02-06T21:54:54Z</time>
      </trkpt>
      <trkpt lat="47.575160963460803" lon="18.97382796742022">
        <ele>339.11500000000001</ele>
        <time>2010-02-06T21:54:58Z</time>
      </trkpt>
      <trkpt lat="47.575168004259467" lon="18.973777005448937">
        <ele>338.65100000000001</ele>
        <time>2010-02-06T21:55:01Z</time>
      </trkpt>
      <trkpt lat="47.575161969289184" lon="18.973712967708707">
        <ele>338.49000000000001</ele>
        <time>2010-02-06T21:55:05Z</time>
      </trkpt>
      <trkpt lat="47.575157023966312" lon="18.973638033494353">
        <ele>338.27999999999997</ele>
        <time>2010-02-06T21:55:09Z</time>
      </trkpt>
      <trkpt lat="47.575165992602706" lon="18.973562009632587">
        <ele>338.07100000000003</ele>
        <time>2010-02-06T21:55:13Z</time>
      </trkpt>
      <trkpt lat="47.575183007866144" lon="18.973493026569486">
        <ele>337.24599999999998</ele>
        <time>2010-02-06T21:55:16Z</time>
      </trkpt>
      <trkpt lat="47.575227012857795" lon="18.973423037678003">
        <ele>336.50299999999999</ele>
        <time>2010-02-06T21:55:20Z</time>
      </trkpt>
      <trkpt lat="47.575227012857795" lon="18.973368974402547">
        <ele>335.947</ele>
        <time>2010-02-06T21:55:23Z</time>
      </trkpt>
      <trkpt lat="47.575233969837427" lon="18.973306026309729">
        <ele>334.72800000000001</ele>
        <time>2010-02-06T21:55:27Z</time>
      </trkpt>
      <trkpt lat="47.575226007029414" lon="18.973235031589866">
        <ele>334.22199999999998</ele>
        <time>2010-02-06T21:55:31Z</time>
      </trkpt>
      <trkpt lat="47.575258025899529" lon="18.973148027434945">
        <ele>333.85899999999998</ele>
        <time>2010-02-06T21:55:36Z</time>
      </trkpt>
      <trkpt lat="47.575263977050781" lon="18.973097987473011">
        <ele>333.94799999999998</ele>
        <time>2010-02-06T21:55:39Z</time>
      </trkpt>
      <trkpt lat="47.575300019234419" lon="18.973045013844967">
        <ele>334.24700000000001</ele>
        <time>2010-02-06T21:55:43Z</time>
      </trkpt>
      <trkpt lat="47.575330026447773" lon="18.972990028560162">
        <ele>333.93200000000002</ele>
        <time>2010-02-06T21:55:46Z</time>
      </trkpt>
      <trkpt lat="47.57532499730587" lon="18.972914004698396">
        <ele>334.20100000000002</ele>
        <time>2010-02-06T21:55:50Z</time>
      </trkpt>
      <trkpt lat="47.57532499730587" lon="18.972851978614926">
        <ele>333.57900000000001</ele>
        <time>2010-02-06T21:55:54Z</time>
      </trkpt>
      <trkpt lat="47.575336983427405" lon="18.972789030522108">
        <ele>332.99599999999998</ele>
        <time>2010-02-06T21:55:58Z</time>
      </trkpt>
      <trkpt lat="47.575341006740928" lon="18.972719041630626">
        <ele>331.524</ele>
        <time>2010-02-06T21:56:02Z</time>
      </trkpt>
      <trkpt lat="47.575359027832747" lon="18.972660033032298">
        <ele>331.45999999999998</ele>
        <time>2010-02-06T21:56:06Z</time>
      </trkpt>
      <trkpt lat="47.575379982590675" lon="18.972597001120448">
        <ele>331.73899999999998</ele>
        <time>2010-02-06T21:56:11Z</time>
      </trkpt>
      <trkpt lat="47.575407978147268" lon="18.972540004178882">
        <ele>331.94400000000002</ele>
        <time>2010-02-06T21:56:15Z</time>
      </trkpt>
      <trkpt lat="47.57543102838099" lon="18.972492981702089">
        <ele>332.20100000000002</ele>
        <time>2010-02-06T21:56:18Z</time>
      </trkpt>
      <trkpt lat="47.575423987582326" lon="18.972443025559187">
        <ele>332.221</ele>
        <time>2010-02-06T21:56:21Z</time>
      </trkpt>
      <trkpt lat="47.575418036431074" lon="18.972397008910775">
        <ele>332.11900000000003</ele>
        <time>2010-02-06T21:56:24Z</time>
      </trkpt>
      <trkpt lat="47.575432034209371" lon="18.972330037504435">
        <ele>332.09899999999999</ele>
        <time>2010-02-06T21:56:28Z</time>
      </trkpt>
      <trkpt lat="47.575442008674145" lon="18.972267005592585">
        <ele>332.14800000000002</ele>
        <time>2010-02-06T21:56:32Z</time>
      </trkpt>
      <trkpt lat="47.575437985360622" lon="18.972199028357863">
        <ele>331.93700000000001</ele>
        <time>2010-02-06T21:56:36Z</time>
      </trkpt>
      <trkpt lat="47.575430022552609" lon="18.972137002274394">
        <ele>331.65800000000002</ele>
        <time>2010-02-06T21:56:39Z</time>
      </trkpt>
      <trkpt lat="47.575428010895848" lon="18.972061984241009">
        <ele>331.09500000000003</ele>
        <time>2010-02-06T21:56:43Z</time>
      </trkpt>
      <trkpt lat="47.575392974540591" lon="18.971990989521146">
        <ele>330.334</ele>
        <time>2010-02-06T21:56:47Z</time>
      </trkpt>
      <trkpt lat="47.575369002297521" lon="18.971922006458044">
        <ele>330.73200000000003</ele>
        <time>2010-02-06T21:56:51Z</time>
      </trkpt>
      <trkpt lat="47.575369002297521" lon="18.971879007294774">
        <ele>330.82600000000002</ele>
        <time>2010-02-06T21:56:54Z</time>
      </trkpt>
      <trkpt lat="47.575383000075817" lon="18.971807006746531">
        <ele>330.76400000000001</ele>
        <time>2010-02-06T21:56:58Z</time>
      </trkpt>
      <trkpt lat="47.575418036431074" lon="18.971739029511809">
        <ele>330.95999999999998</ele>
        <time>2010-02-06T21:57:02Z</time>
      </trkpt>
      <trkpt lat="47.575408983975649" lon="18.971684966236353">
        <ele>331.03899999999999</ele>
        <time>2010-02-06T21:57:05Z</time>
      </trkpt>
      <trkpt lat="47.575429016724229" lon="18.971615983173251">
        <ele>330.94499999999999</ele>
        <time>2010-02-06T21:57:09Z</time>
      </trkpt>
      <trkpt lat="47.575427005067468" lon="18.971552029252052">
        <ele>330.20600000000002</ele>
        <time>2010-02-06T21:57:13Z</time>
      </trkpt>
      <trkpt lat="47.575452988967299" lon="18.971496038138866">
        <ele>330.55200000000002</ele>
        <time>2010-02-06T21:57:17Z</time>
      </trkpt>
      <trkpt lat="47.575513003394008" lon="18.971438035368919">
        <ele>330.03199999999998</ele>
        <time>2010-02-06T21:57:21Z</time>
      </trkpt>
      <trkpt lat="47.575535969808698" lon="18.971380032598972">
        <ele>330.55399999999997</ele>
        <time>2010-02-06T21:57:25Z</time>
      </trkpt>
      <trkpt lat="47.57556295953691" lon="18.971311971545219">
        <ele>330.86500000000001</ele>
        <time>2010-02-06T21:57:29Z</time>
      </trkpt>
      <trkpt lat="47.575574023649096" lon="18.971249023452401">
        <ele>330.44999999999999</ele>
        <time>2010-02-06T21:57:33Z</time>
      </trkpt>
      <trkpt lat="47.575586009770632" lon="18.971185991540551">
        <ele>330.39100000000002</ele>
        <time>2010-02-06T21:57:38Z</time>
      </trkpt>
      <trkpt lat="47.575600007548928" lon="18.971121031790972">
        <ele>330.09500000000003</ele>
        <time>2010-02-06T21:57:43Z</time>
      </trkpt>
      <trkpt lat="47.575635965913534" lon="18.971051964908838">
        <ele>329.88200000000001</ele>
        <time>2010-02-06T21:57:48Z</time>
      </trkpt>
      <trkpt lat="47.575623979791999" lon="18.970996979624033">
        <ele>330.50400000000002</ele>
        <time>2010-02-06T21:57:52Z</time>
      </trkpt>
      <trkpt lat="47.575620040297508" lon="18.970940988510847">
        <ele>329.81999999999999</ele>
        <time>2010-02-06T21:57:56Z</time>
      </trkpt>
      <trkpt lat="47.575657004490495" lon="18.97086001932621">
        <ele>330.48500000000001</ele>
        <time>2010-02-06T21:58:02Z</time>
      </trkpt>
      <trkpt lat="47.575650969520211" lon="18.970808973535895">
        <ele>330.53199999999998</ele>
        <time>2010-02-06T21:58:06Z</time>
      </trkpt>
      <trkpt lat="47.575676031410694" lon="18.970728004351258">
        <ele>331.57600000000002</ele>
        <time>2010-02-06T21:58:12Z</time>
      </trkpt>
      <trkpt lat="47.575717018917203" lon="18.970673019066453">
        <ele>331.03100000000001</ele>
        <time>2010-02-06T21:58:16Z</time>
      </trkpt>
      <trkpt lat="47.575705032795668" lon="18.970617027953267">
        <ele>331.66500000000002</ele>
        <time>2010-02-06T21:58:20Z</time>
      </trkpt>
      <trkpt lat="47.575708972290158" lon="18.970549972727895">
        <ele>330.601</ele>
        <time>2010-02-06T21:58:25Z</time>
      </trkpt>
      <trkpt lat="47.575743002817035" lon="18.970475038513541">
        <ele>329.80599999999998</ele>
        <time>2010-02-06T21:58:30Z</time>
      </trkpt>
      <trkpt lat="47.575770998373628" lon="18.970412006601691">
        <ele>329.96499999999997</ele>
        <time>2010-02-06T21:58:34Z</time>
      </trkpt>
      <trkpt lat="47.575761023908854" lon="18.97034696303308">
        <ele>328.88799999999998</ele>
        <time>2010-02-06T21:58:38Z</time>
      </trkpt>
      <trkpt lat="47.575774015858769" lon="18.970292983576655">
        <ele>327.98099999999999</ele>
        <time>2010-02-06T21:58:42Z</time>
      </trkpt>
      <trkpt lat="47.575776027515531" lon="18.970226012170315">
        <ele>327.613</ele>
        <time>2010-02-06T21:58:46Z</time>
      </trkpt>
      <trkpt lat="47.575831012800336" lon="18.970163986086845">
        <ele>328.20999999999998</ele>
        <time>2010-02-06T21:58:50Z</time>
      </trkpt>
      <trkpt lat="47.575841993093491" lon="18.970118975266814">
        <ele>327.24299999999999</ele>
        <time>2010-02-06T21:58:53Z</time>
      </trkpt>
      <trkpt lat="47.575860014185309" lon="18.970062984153628">
        <ele>327.83499999999998</ele>
        <time>2010-02-06T21:58:57Z</time>
      </trkpt>
      <trkpt lat="47.575878035277128" lon="18.96999903023243">
        <ele>327.274</ele>
        <time>2010-02-06T21:59:01Z</time>
      </trkpt>
      <trkpt lat="47.575911981984973" lon="18.969934992492199">
        <ele>327.25</ele>
        <time>2010-02-06T21:59:07Z</time>
      </trkpt>
      <trkpt lat="47.575931008905172" lon="18.96982803940773">
        <ele>327.512</ele>
        <time>2010-02-06T21:59:15Z</time>
      </trkpt>
      <trkpt lat="47.575939977541566" lon="18.969760984182358">
        <ele>327.67899999999997</ele>
        <time>2010-02-06T21:59:19Z</time>
      </trkpt>
      <trkpt lat="47.575946012511849" lon="18.969705998897552">
        <ele>327.56999999999999</ele>
        <time>2010-02-06T21:59:22Z</time>
      </trkpt>
      <trkpt lat="47.575979037210345" lon="18.969667023047805">
        <ele>327.78800000000001</ele>
        <time>2010-02-06T21:59:25Z</time>
      </trkpt>
      <trkpt lat="47.576027987524867" lon="18.969612959772348">
        <ele>326.46699999999998</ele>
        <time>2010-02-06T21:59:29Z</time>
      </trkpt>
      <trkpt lat="47.576052965596318" lon="18.969554034993052">
        <ele>327.08600000000001</ele>
        <time>2010-02-06T21:59:34Z</time>
      </trkpt>
      <trkpt lat="47.576068975031376" lon="18.969497960060835">
        <ele>326.62799999999999</ele>
        <time>2010-02-06T21:59:38Z</time>
      </trkpt>
      <trkpt lat="47.576078027486801" lon="18.969454038888216">
        <ele>327.14299999999997</ele>
        <time>2010-02-06T21:59:41Z</time>
      </trkpt>
      <trkpt lat="47.576082972809672" lon="18.969397963955998">
        <ele>326.96100000000001</ele>
        <time>2010-02-06T21:59:45Z</time>
      </trkpt>
      <trkpt lat="47.576086996123195" lon="18.969348007813096">
        <ele>326.97899999999998</ele>
        <time>2010-02-06T21:59:49Z</time>
      </trkpt>
      <trkpt lat="47.576090013608336" lon="18.969267960637808">
        <ele>327.17000000000002</ele>
        <time>2010-02-06T21:59:56Z</time>
      </trkpt>
      <trkpt lat="47.576140975579619" lon="18.969181040301919">
        <ele>327.30099999999999</ele>
        <time>2010-02-06T22:00:04Z</time>
      </trkpt>
      <trkpt lat="47.576189003884792" lon="18.969153966754675">
        <ele>327.392</ele>
        <time>2010-02-06T22:00:09Z</time>
      </trkpt>
      <trkpt lat="47.576221022754908" lon="18.969118008390069">
        <ele>327.11500000000001</ele>
        <time>2010-02-06T22:00:13Z</time>
      </trkpt>
      <trkpt lat="47.576225968077779" lon="18.969050031155348">
        <ele>327.53399999999999</ele>
        <time>2010-02-06T22:00:20Z</time>
      </trkpt>
      <trkpt lat="47.576239965856075" lon="18.968993034213781">
        <ele>326.32400000000001</ele>
        <time>2010-02-06T22:00:24Z</time>
      </trkpt>
      <trkpt lat="47.576237032189965" lon="18.968936959281564">
        <ele>327.05599999999998</ele>
        <time>2010-02-06T22:00:28Z</time>
      </trkpt>
      <trkpt lat="47.576250024139881" lon="18.968865964561701">
        <ele>326.45800000000003</ele>
        <time>2010-02-06T22:00:33Z</time>
      </trkpt>
      <trkpt lat="47.57624801248312" lon="18.968813996762037">
        <ele>327.70400000000001</ele>
        <time>2010-02-06T22:00:37Z</time>
      </trkpt>
      <trkpt lat="47.57622797973454" lon="18.968749037012458">
        <ele>328.70999999999998</ele>
        <time>2010-02-06T22:00:42Z</time>
      </trkpt>
      <trkpt lat="47.576216999441385" lon="18.968706037849188">
        <ele>328.315</ele>
        <time>2010-02-06T22:00:45Z</time>
      </trkpt>
      <trkpt lat="47.576196966692805" lon="18.968642000108957">
        <ele>328.38200000000001</ele>
        <time>2010-02-06T22:00:49Z</time>
      </trkpt>
      <trkpt lat="47.576210964471102" lon="18.968550972640514">
        <ele>330.05200000000002</ele>
        <time>2010-02-06T22:00:57Z</time>
      </trkpt>
      <trkpt lat="47.576237032189965" lon="18.968491964042187">
        <ele>330.44200000000001</ele>
        <time>2010-02-06T22:01:02Z</time>
      </trkpt>
      <trkpt lat="47.576262010261416" lon="18.968446031212807">
        <ele>330.93599999999998</ele>
        <time>2010-02-06T22:01:06Z</time>
      </trkpt>
      <trkpt lat="47.576314983889461" lon="18.968400014564395">
        <ele>330.04500000000002</ele>
        <time>2010-02-06T22:01:10Z</time>
      </trkpt>
      <trkpt lat="47.576368963345885" lon="18.968374030664563">
        <ele>330.98599999999999</ele>
        <time>2010-02-06T22:01:13Z</time>
      </trkpt>
      <trkpt lat="47.576408023014665" lon="18.968343017622828">
        <ele>330.76299999999998</ele>
        <time>2010-02-06T22:01:18Z</time>
      </trkpt>
      <trkpt lat="47.576467031612992" lon="18.96830496378243">
        <ele>331.31999999999999</ele>
        <time>2010-02-06T22:01:26Z</time>
      </trkpt>
      <trkpt lat="47.576501984149218" lon="18.968272022902966">
        <ele>330.78800000000001</ele>
        <time>2010-02-06T22:01:30Z</time>
      </trkpt>
      <trkpt lat="47.576517993584275" lon="18.968227012082934">
        <ele>330.983</ele>
        <time>2010-02-06T22:01:33Z</time>
      </trkpt>
      <trkpt lat="47.576523022726178" lon="18.968176972121">
        <ele>331.31200000000001</ele>
        <time>2010-02-06T22:01:36Z</time>
      </trkpt>
      <trkpt lat="47.57652604021132" lon="18.968123998492956">
        <ele>331.30000000000001</ele>
        <time>2010-02-06T22:01:39Z</time>
      </trkpt>
      <trkpt lat="47.576524028554559" lon="18.968074964359403">
        <ele>331.73399999999998</ele>
        <time>2010-02-06T22:01:42Z</time>
      </trkpt>
      <trkpt lat="47.576502989977598" lon="18.968029031530023">
        <ele>330.41500000000002</ele>
        <time>2010-02-06T22:01:46Z</time>
      </trkpt>
      <trkpt lat="47.57644004188478" lon="18.967969017103314">
        <ele>329.29399999999998</ele>
        <time>2010-02-06T22:01:57Z</time>
      </trkpt>
      <trkpt lat="47.57639997638762" lon="18.967928029596806">
        <ele>329.29199999999997</ele>
        <time>2010-02-06T22:02:00Z</time>
      </trkpt>
      <trkpt lat="47.576371980831027" lon="18.967900034040213">
        <ele>329.601</ele>
        <time>2010-02-06T22:02:03Z</time>
      </trkpt>
      <trkpt lat="47.576348008587956" lon="18.967861980199814">
        <ele>329.96199999999999</ele>
        <time>2010-02-06T22:02:06Z</time>
      </trkpt>
      <trkpt lat="47.576314983889461" lon="18.967817975208163">
        <ele>330.18000000000001</ele>
        <time>2010-02-06T22:02:09Z</time>
      </trkpt>
      <trkpt lat="47.576302997767925" lon="18.967762989923358">
        <ele>330.77600000000001</ele>
        <time>2010-02-06T22:02:12Z</time>
      </trkpt>
      <trkpt lat="47.576299980282784" lon="18.967714039608836">
        <ele>331.14999999999998</ele>
        <time>2010-02-06T22:02:15Z</time>
      </trkpt>
      <trkpt lat="47.576436018571258" lon="18.967613959684968">
        <ele>329.34300000000002</ele>
        <time>2010-02-06T22:02:30Z</time>
      </trkpt>
      <trkpt lat="47.576454961672425" lon="18.967513041570783">
        <ele>326.803</ele>
        <time>2010-02-06T22:02:45Z</time>
      </trkpt>
      <trkpt lat="47.576434006914496" lon="18.967464007437229">
        <ele>327.05700000000002</ele>
        <time>2010-02-06T22:02:48Z</time>
      </trkpt>
      <trkpt lat="47.576402993872762" lon="18.967436011880636">
        <ele>327.00299999999999</ele>
        <time>2010-02-06T22:02:51Z</time>
      </trkpt>
      <trkpt lat="47.576381033286452" lon="18.967387983575463">
        <ele>327.36000000000001</ele>
        <time>2010-02-06T22:02:54Z</time>
      </trkpt>
      <trkpt lat="47.576368041336536" lon="18.967338027432561">
        <ele>327.25400000000002</ele>
        <time>2010-02-06T22:02:57Z</time>
      </trkpt>
      <trkpt lat="47.576349014416337" lon="18.967288993299007">
        <ele>327.04700000000003</ele>
        <time>2010-02-06T22:03:00Z</time>
      </trkpt>
      <trkpt lat="47.57635697722435" lon="18.967237025499344">
        <ele>327.08999999999997</ele>
        <time>2010-02-06T22:03:03Z</time>
      </trkpt>
      <trkpt lat="47.576376004144549" lon="18.967174999415874">
        <ele>326.61500000000001</ele>
        <time>2010-02-06T22:03:07Z</time>
      </trkpt>
      <trkpt lat="47.576459990814328" lon="18.967126971110702">
        <ele>325.93000000000001</ele>
        <time>2010-02-06T22:03:10Z</time>
      </trkpt>
      <trkpt lat="47.576509024947882" lon="18.967119008302689">
        <ele>324.71899999999999</ele>
        <time>2010-02-06T22:03:13Z</time>
      </trkpt>
      <trkpt lat="47.576542971655726" lon="18.967114984989166">
        <ele>322.125</ele>
        <time>2010-02-06T22:03:16Z</time>
      </trkpt>
      <trkpt lat="47.576578008010983" lon="18.967107022181153">
        <ele>320.839</ele>
        <time>2010-02-06T22:03:19Z</time>
      </trkpt>
      <trkpt lat="47.57661203853786" lon="18.967090006917715">
        <ele>319.93799999999999</ele>
        <time>2010-02-06T22:03:22Z</time>
      </trkpt>
      <trkpt lat="47.576658977195621" lon="18.967065028846264">
        <ele>318.161</ele>
        <time>2010-02-06T22:03:27Z</time>
      </trkpt>
      <trkpt lat="47.576702982187271" lon="18.967037033289671">
        <ele>317.79300000000001</ele>
        <time>2010-02-06T22:03:31Z</time>
      </trkpt>
      <trkpt lat="47.57674103602767" lon="18.967009959742427">
        <ele>317.59800000000001</ele>
        <time>2010-02-06T22:03:34Z</time>
      </trkpt>
      <trkpt lat="47.576776994392276" lon="18.966995039954782">
        <ele>317.08199999999999</ele>
        <time>2010-02-06T22:03:37Z</time>
      </trkpt>
      <trkpt lat="47.576825022697449" lon="18.966982970014215">
        <ele>316.077</ele>
        <time>2010-02-06T22:03:41Z</time>
      </trkpt>
      <trkpt lat="47.576842959970236" lon="18.96694902330637">
        <ele>314.80700000000002</ele>
        <time>2010-02-06T22:03:45Z</time>
      </trkpt>
      <trkpt lat="47.576838014647365" lon="18.966891020536423">
        <ele>312.93200000000002</ele>
        <time>2010-02-06T22:03:48Z</time>
      </trkpt>
      <trkpt lat="47.576855029910803" lon="18.966833017766476">
        <ele>311.61200000000002</ele>
        <time>2010-02-06T22:03:51Z</time>
      </trkpt>
      <trkpt lat="47.576876990497112" lon="18.966791024431586">
        <ele>310.59399999999999</ele>
        <time>2010-02-06T22:03:54Z</time>
      </trkpt>
      <trkpt lat="47.576910015195608" lon="18.966708965599537">
        <ele>310.50099999999998</ele>
        <time>2010-02-06T22:04:01Z</time>
      </trkpt>
      <trkpt lat="47.576924012973905" lon="18.966667978093028">
        <ele>310.26799999999997</ele>
        <time>2010-02-06T22:04:04Z</time>
      </trkpt>
      <trkpt lat="47.57698000408709" lon="18.966624978929758">
        <ele>309.34699999999998</ele>
        <time>2010-02-06T22:04:08Z</time>
      </trkpt>
      <trkpt lat="47.577020991593599" lon="18.966570999473333">
        <ele>309.524</ele>
        <time>2010-02-06T22:04:12Z</time>
      </trkpt>
      <trkpt lat="47.577045969665051" lon="18.96652196533978">
        <ele>309.15899999999999</ele>
        <time>2010-02-06T22:04:15Z</time>
      </trkpt>
      <trkpt lat="47.577061979100108" lon="18.966459017246962">
        <ele>307.44299999999998</ele>
        <time>2010-02-06T22:04:19Z</time>
      </trkpt>
      <trkpt lat="47.577078994363546" lon="18.966394979506731">
        <ele>307.49900000000002</ele>
        <time>2010-02-06T22:04:23Z</time>
      </trkpt>
      <trkpt lat="47.577095003798604" lon="18.966323984786868">
        <ele>306.64100000000002</ele>
        <time>2010-02-06T22:04:28Z</time>
      </trkpt>
      <trkpt lat="47.577101960778236" lon="18.966257013380527">
        <ele>305.95499999999998</ele>
        <time>2010-02-06T22:04:32Z</time>
      </trkpt>
      <trkpt lat="47.577113024890423" lon="18.966202028095722">
        <ele>305.512</ele>
        <time>2010-02-06T22:04:36Z</time>
      </trkpt>
      <trkpt lat="47.577121993526816" lon="18.966146958991885">
        <ele>304.99000000000001</ele>
        <time>2010-02-06T22:04:40Z</time>
      </trkpt>
      <trkpt lat="47.57712903432548" lon="18.966090967878699">
        <ele>304.00799999999998</ele>
        <time>2010-02-06T22:04:44Z</time>
      </trkpt>
      <trkpt lat="47.577139008790255" lon="18.966034976765513">
        <ele>303.55099999999999</ele>
        <time>2010-02-06T22:04:48Z</time>
      </trkpt>
      <trkpt lat="47.57717396132648" lon="18.965973034501076">
        <ele>303.81099999999998</ele>
        <time>2010-02-06T22:04:52Z</time>
      </trkpt>
      <trkpt lat="47.577205980196595" lon="18.965924000367522">
        <ele>302.68400000000003</ele>
        <time>2010-02-06T22:04:55Z</time>
      </trkpt>
      <trkpt lat="47.577246967703104" lon="18.965870020911098">
        <ele>301.49599999999998</ele>
        <time>2010-02-06T22:04:59Z</time>
      </trkpt>
      <trkpt lat="47.577282004058361" lon="18.965807994827628">
        <ele>300.82999999999998</ele>
        <time>2010-02-06T22:05:03Z</time>
      </trkpt>
      <trkpt lat="47.577331960201263" lon="18.965744040906429">
        <ele>299.90800000000002</ele>
        <time>2010-02-06T22:05:07Z</time>
      </trkpt>
      <trkpt lat="47.577355010434985" lon="18.965689977630973">
        <ele>298.88499999999999</ele>
        <time>2010-02-06T22:05:10Z</time>
      </trkpt>
      <trkpt lat="47.577349981293082" lon="18.965628035366535">
        <ele>297.95600000000002</ele>
        <time>2010-02-06T22:05:14Z</time>
      </trkpt>
      <trkpt lat="47.577346041798592" lon="18.965571038424969">
        <ele>297.66300000000001</ele>
        <time>2010-02-06T22:05:18Z</time>
      </trkpt>
      <trkpt lat="47.577354004606605" lon="18.965514963492751">
        <ele>296.80900000000003</ele>
        <time>2010-02-06T22:05:22Z</time>
      </trkpt>
      <trkpt lat="47.577348975464702" lon="18.965454027056694">
        <ele>295.24099999999999</ele>
        <time>2010-02-06T22:05:26Z</time>
      </trkpt>
      <trkpt lat="47.577345035970211" lon="18.965389989316463">
        <ele>295.04399999999998</ele>
        <time>2010-02-06T22:05:31Z</time>
      </trkpt>
      <trkpt lat="47.577348975464702" lon="18.965327963232994">
        <ele>294.55599999999998</ele>
        <time>2010-02-06T22:05:36Z</time>
      </trkpt>
      <trkpt lat="47.57734403014183" lon="18.965255962684751">
        <ele>294.44900000000001</ele>
        <time>2010-02-06T22:05:41Z</time>
      </trkpt>
      <trkpt lat="47.577354004606605" lon="18.965197037905455">
        <ele>293.69900000000001</ele>
        <time>2010-02-06T22:05:45Z</time>
      </trkpt>
      <trkpt lat="47.577347969636321" lon="18.965127971023321">
        <ele>293.74299999999999</ele>
        <time>2010-02-06T22:05:49Z</time>
      </trkpt>
      <trkpt lat="47.577364984899759" lon="18.965076003223658">
        <ele>293.49000000000001</ele>
        <time>2010-02-06T22:05:53Z</time>
      </trkpt>
      <trkpt lat="47.57736699655652" lon="18.965013977140188">
        <ele>292.90600000000001</ele>
        <time>2010-02-06T22:05:57Z</time>
      </trkpt>
      <trkpt lat="47.577371019870043" lon="18.96495396271348">
        <ele>292.64800000000002</ele>
        <time>2010-02-06T22:06:01Z</time>
      </trkpt>
      <trkpt lat="47.577376971021295" lon="18.964892020449042">
        <ele>292.23599999999999</ele>
        <time>2010-02-06T22:06:06Z</time>
      </trkpt>
      <trkpt lat="47.577372025698423" lon="18.964823959395289">
        <ele>292.03899999999999</ele>
        <time>2010-02-06T22:06:10Z</time>
      </trkpt>
      <trkpt lat="47.577358027920127" lon="18.964780960232019">
        <ele>292.08600000000001</ele>
        <time>2010-02-06T22:06:13Z</time>
      </trkpt>
      <trkpt lat="47.577345035970211" lon="18.964728992432356">
        <ele>291.49700000000001</ele>
        <time>2010-02-06T22:06:16Z</time>
      </trkpt>
      <trkpt lat="47.577360961586237" lon="18.964662021026015">
        <ele>290.91300000000001</ele>
        <time>2010-02-06T22:06:20Z</time>
      </trkpt>
      <trkpt lat="47.577360039576888" lon="18.964582979679108">
        <ele>290.57999999999998</ele>
        <time>2010-02-06T22:06:24Z</time>
      </trkpt>
      <trkpt lat="47.577337995171547" lon="18.964521959424019">
        <ele>290.19499999999999</ele>
        <time>2010-02-06T22:06:27Z</time>
      </trkpt>
      <trkpt lat="47.577334977686405" lon="18.964459011331201">
        <ele>289.50400000000002</ele>
        <time>2010-02-06T22:06:30Z</time>
      </trkpt>
      <trkpt lat="47.577333971858025" lon="18.964408971369267">
        <ele>288.53699999999998</ele>
        <time>2010-02-06T22:06:33Z</time>
      </trkpt>
      <trkpt lat="47.577342018485069" lon="18.964343005791306">
        <ele>287.73099999999999</ele>
        <time>2010-02-06T22:06:37Z</time>
      </trkpt>
      <trkpt lat="47.57734696380794" lon="18.964279973879457">
        <ele>287.57600000000002</ele>
        <time>2010-02-06T22:06:40Z</time>
      </trkpt>
      <trkpt lat="47.577363979071379" lon="18.964217025786638">
        <ele>287.577</ele>
        <time>2010-02-06T22:06:43Z</time>
      </trkpt>
      <trkpt lat="47.57736599072814" lon="18.964156005531549">
        <ele>286.49400000000003</ele>
        <time>2010-02-06T22:06:47Z</time>
      </trkpt>
      <trkpt lat="47.577354004606605" lon="18.96409397944808">
        <ele>287.125</ele>
        <time>2010-02-06T22:06:51Z</time>
      </trkpt>
      <trkpt lat="47.577346041798592" lon="18.964039999991655">
        <ele>287.858</ele>
        <time>2010-02-06T22:06:56Z</time>
      </trkpt>
      <trkpt lat="47.577361967414618" lon="18.963983003050089">
        <ele>289.37599999999998</ele>
        <time>2010-02-06T22:07:01Z</time>
      </trkpt>
      <trkpt lat="47.577374037355185" lon="18.963894993066788">
        <ele>289.346</ele>
        <time>2010-02-06T22:07:06Z</time>
      </trkpt>
      <trkpt lat="47.577355010434985" lon="18.963802959769964">
        <ele>288.88900000000001</ele>
        <time>2010-02-06T22:07:13Z</time>
      </trkpt>
      <trkpt lat="47.577335983514786" lon="18.96374898031354">
        <ele>288.83699999999999</ele>
        <time>2010-02-06T22:07:17Z</time>
      </trkpt>
      <trkpt lat="47.577328020706773" lon="18.963710004463792">
        <ele>290.15899999999999</ele>
        <time>2010-02-06T22:07:21Z</time>
      </trkpt>
      <trkpt lat="47.577314022928476" lon="18.963648984208703">
        <ele>290.83600000000001</ele>
        <time>2010-02-06T22:07:26Z</time>
      </trkpt>
      <trkpt lat="47.577296001836658" lon="18.963587963953614">
        <ele>290.03300000000002</ele>
        <time>2010-02-06T22:07:31Z</time>
      </trkpt>
      <trkpt lat="47.577288039028645" lon="18.963532978668809">
        <ele>292.13900000000001</ele>
        <time>2010-02-06T22:07:35Z</time>
      </trkpt>
      <trkpt lat="47.577304970473051" lon="18.96347195841372">
        <ele>291.85500000000002</ele>
        <time>2010-02-06T22:07:40Z</time>
      </trkpt>
      <trkpt lat="47.57732299156487" lon="18.963410016149282">
        <ele>292.49700000000001</ele>
        <time>2010-02-06T22:07:45Z</time>
      </trkpt>
      <trkpt lat="47.577374037355185" lon="18.96329996176064">
        <ele>294.34500000000003</ele>
        <time>2010-02-06T22:07:55Z</time>
      </trkpt>
      <trkpt lat="47.57738996297121" lon="18.96325302310288">
        <ele>294.99299999999999</ele>
        <time>2010-02-06T22:07:59Z</time>
      </trkpt>
      <trkpt lat="47.577458024024963" lon="18.963184962049127">
        <ele>294.38799999999998</ele>
        <time>2010-02-06T22:08:03Z</time>
      </trkpt>
      <trkpt lat="47.577471015974879" lon="18.96312695927918">
        <ele>294.79700000000003</ele>
        <time>2010-02-06T22:08:07Z</time>
      </trkpt>
      <trkpt lat="47.577461963519454" lon="18.963049007579684">
        <ele>294.88999999999999</ele>
        <time>2010-02-06T22:08:11Z</time>
      </trkpt>
      <trkpt lat="47.57747596129775" lon="18.962938031181693">
        <ele>295.34899999999999</ele>
        <time>2010-02-06T22:08:18Z</time>
      </trkpt>
      <trkpt lat="47.577464981004596" lon="18.962872987613082">
        <ele>295.19200000000001</ele>
        <time>2010-02-06T22:08:22Z</time>
      </trkpt>
      <trkpt lat="47.577463975176215" lon="18.9628029987216">
        <ele>296.226</ele>
        <time>2010-02-06T22:08:28Z</time>
      </trkpt>
      <trkpt lat="47.577467998489738" lon="18.962747007608414">
        <ele>298.40199999999999</ele>
        <time>2010-02-06T22:08:35Z</time>
      </trkpt>
      <trkpt lat="47.577463975176215" lon="18.962563024833798">
        <ele>299.262</ele>
        <time>2010-02-06T22:08:59Z</time>
      </trkpt>
      <trkpt lat="47.577459029853344" lon="18.962433021515608">
        <ele>300.03199999999998</ele>
        <time>2010-02-06T22:09:06Z</time>
      </trkpt>
      <trkpt lat="47.577465986832976" lon="18.962304024025798">
        <ele>298.96800000000002</ele>
        <time>2010-02-06T22:09:13Z</time>
      </trkpt>
      <trkpt lat="47.577478978782892" lon="18.96224400959909">
        <ele>299.137</ele>
        <time>2010-02-06T22:09:16Z</time>
      </trkpt>
      <trkpt lat="47.577488031238317" lon="18.962173014879227">
        <ele>299.63200000000001</ele>
        <time>2010-02-06T22:09:20Z</time>
      </trkpt>
      <trkpt lat="47.577520972117782" lon="18.962105959653854">
        <ele>300.03800000000001</ele>
        <time>2010-02-06T22:09:24Z</time>
      </trkpt>
      <trkpt lat="47.577509991824627" lon="18.962042005732656">
        <ele>300.14100000000002</ele>
        <time>2010-02-06T22:09:28Z</time>
      </trkpt>
      <trkpt lat="47.57753798738122" lon="18.961976040154696">
        <ele>300.959</ele>
        <time>2010-02-06T22:09:32Z</time>
      </trkpt>
      <trkpt lat="47.577553996816278" lon="18.961895992979407">
        <ele>301.30599999999998</ele>
        <time>2010-02-06T22:09:38Z</time>
      </trkpt>
      <trkpt lat="47.577586015686393" lon="18.961830027401447">
        <ele>301.637</ele>
        <time>2010-02-06T22:09:43Z</time>
      </trkpt>
      <trkpt lat="47.577605964615941" lon="18.961774036288261">
        <ele>302.25799999999998</ele>
        <time>2010-02-06T22:09:47Z</time>
      </trkpt>
      <trkpt lat="47.577643012627959" lon="18.96168502047658">
        <ele>302.60899999999998</ele>
        <time>2010-02-06T22:09:53Z</time>
      </trkpt>
      <trkpt lat="47.577635971829295" lon="18.961603967472911">
        <ele>302.17700000000002</ele>
        <time>2010-02-06T22:09:58Z</time>
      </trkpt>
      <trkpt lat="47.577636977657676" lon="18.96153699606657">
        <ele>303.12</ele>
        <time>2010-02-06T22:10:03Z</time>
      </trkpt>
      <trkpt lat="47.577643012627959" lon="18.961481004953384">
        <ele>303.40100000000001</ele>
        <time>2010-02-06T22:10:07Z</time>
      </trkpt>
      <trkpt lat="47.577646030113101" lon="18.961398024111986">
        <ele>303.28699999999998</ele>
        <time>2010-02-06T22:10:13Z</time>
      </trkpt>
      <trkpt lat="47.577705038711429" lon="18.961224015802145">
        <ele>303.58199999999999</ele>
        <time>2010-02-06T22:10:27Z</time>
      </trkpt>
      <trkpt lat="47.577721970155835" lon="18.961154026910663">
        <ele>304.42200000000003</ele>
        <time>2010-02-06T22:10:33Z</time>
      </trkpt>
      <trkpt lat="47.577737979590893" lon="18.961101975291967">
        <ele>303.911</ele>
        <time>2010-02-06T22:10:37Z</time>
      </trkpt>
      <trkpt lat="47.577747032046318" lon="18.961027963086963">
        <ele>304.548</ele>
        <time>2010-02-06T22:10:42Z</time>
      </trkpt>
      <trkpt lat="47.577736973762512" lon="18.960971971973777">
        <ele>304.91000000000003</ele>
        <time>2010-02-06T22:10:48Z</time>
      </trkpt>
      <trkpt lat="47.577783996239305" lon="18.960882034152746">
        <ele>305.24000000000001</ele>
        <time>2010-02-06T22:10:56Z</time>
      </trkpt>
      <trkpt lat="47.577800005674362" lon="18.96082503721118">
        <ele>304.887</ele>
        <time>2010-02-06T22:11:00Z</time>
      </trkpt>
      <trkpt lat="47.5778170209378" lon="18.960768040269613">
        <ele>305.601</ele>
        <time>2010-02-06T22:11:04Z</time>
      </trkpt>
      <trkpt lat="47.577841999009252" lon="18.960682963952422">
        <ele>305.625</ele>
        <time>2010-02-06T22:11:09Z</time>
      </trkpt>
      <trkpt lat="47.57785901427269" lon="18.960626972839236">
        <ele>305.55399999999997</ele>
        <time>2010-02-06T22:11:13Z</time>
      </trkpt>
      <trkpt lat="47.577875023707747" lon="18.960581962019205">
        <ele>306.22199999999998</ele>
        <time>2010-02-06T22:11:16Z</time>
      </trkpt>
      <trkpt lat="47.577888015657663" lon="18.960522031411529">
        <ele>305.964</ele>
        <time>2010-02-06T22:11:20Z</time>
      </trkpt>
      <trkpt lat="47.577883992344141" lon="18.960455982014537">
        <ele>306.07100000000003</ele>
        <time>2010-02-06T22:11:24Z</time>
      </trkpt>
      <trkpt lat="47.577893966808915" lon="18.960394039750099">
        <ele>305.62</ele>
        <time>2010-02-06T22:11:28Z</time>
      </trkpt>
      <trkpt lat="47.577896984294057" lon="18.960336036980152">
        <ele>305.76400000000001</ele>
        <time>2010-02-06T22:11:32Z</time>
      </trkpt>
      <trkpt lat="47.577897990122437" lon="18.96028901450336">
        <ele>306.36000000000001</ele>
        <time>2010-02-06T22:11:35Z</time>
      </trkpt>
      <trkpt lat="47.577896984294057" lon="18.960245009511709">
        <ele>306.53199999999998</ele>
        <time>2010-02-06T22:11:38Z</time>
      </trkpt>
      <trkpt lat="47.577919028699398" lon="18.960187006741762">
        <ele>305.79300000000001</ele>
        <time>2010-02-06T22:11:42Z</time>
      </trkpt>
      <trkpt lat="47.577919028699398" lon="18.960132021456957">
        <ele>306.06799999999998</ele>
        <time>2010-02-06T22:11:45Z</time>
      </trkpt>
      <trkpt lat="47.577920034527779" lon="18.960081981495023">
        <ele>305.64800000000002</ele>
        <time>2010-02-06T22:11:49Z</time>
      </trkpt>
      <trkpt lat="47.577964961528778" lon="18.960023978725076">
        <ele>305.27800000000002</ele>
        <time>2010-02-06T22:11:52Z</time>
      </trkpt>
      <trkpt lat="47.577982982620597" lon="18.959964970126748">
        <ele>305.161</ele>
        <time>2010-02-06T22:11:56Z</time>
      </trkpt>
      <trkpt lat="47.578003015369177" lon="18.959892969578505">
        <ele>305.46199999999999</ele>
        <time>2010-02-06T22:12:00Z</time>
      </trkpt>
      <trkpt lat="47.578020030632615" lon="18.959832033142447">
        <ele>304.851</ele>
        <time>2010-02-06T22:12:04Z</time>
      </trkpt>
      <trkpt lat="47.578052971512079" lon="18.959781993180513">
        <ele>304.23200000000003</ele>
        <time>2010-02-06T22:12:07Z</time>
      </trkpt>
      <trkpt lat="47.578069986775517" lon="18.959741005674005">
        <ele>304.202</ele>
        <time>2010-02-06T22:12:10Z</time>
      </trkpt>
      <trkpt lat="47.578089013695717" lon="18.959683002904058">
        <ele>303.38400000000001</ele>
        <time>2010-02-06T22:12:14Z</time>
      </trkpt>
      <trkpt lat="47.57811801508069" lon="18.959634974598885">
        <ele>303.23500000000001</ele>
        <time>2010-02-06T22:12:17Z</time>
      </trkpt>
      <trkpt lat="47.578157996758819" lon="18.959588035941124">
        <ele>301.58800000000002</ele>
        <time>2010-02-06T22:12:20Z</time>
      </trkpt>
      <trkpt lat="47.578197978436947" lon="18.959527015686035">
        <ele>301.49200000000002</ele>
        <time>2010-02-06T22:12:24Z</time>
      </trkpt>
      <trkpt lat="47.578199990093708" lon="18.959482004866004">
        <ele>301.45499999999998</ele>
        <time>2010-02-06T22:12:27Z</time>
      </trkpt>
      <trkpt lat="47.578205019235611" lon="18.95943003706634">
        <ele>302.238</ele>
        <time>2010-02-06T22:12:31Z</time>
      </trkpt>
      <trkpt lat="47.578212982043624" lon="18.959374967962503">
        <ele>301.07900000000001</ele>
        <time>2010-02-06T22:12:35Z</time>
      </trkpt>
      <trkpt lat="47.578210970386863" lon="18.959330040961504">
        <ele>300.91000000000003</ele>
        <time>2010-02-06T22:12:38Z</time>
      </trkpt>
      <trkpt lat="47.578220022842288" lon="18.959277989342809">
        <ele>300.863</ele>
        <time>2010-02-06T22:12:42Z</time>
      </trkpt>
      <trkpt lat="47.578280959278345" lon="18.959219986572862">
        <ele>300.916</ele>
        <time>2010-02-06T22:12:46Z</time>
      </trkpt>
      <trkpt lat="47.578335022553802" lon="18.959167012944818">
        <ele>300.839</ele>
        <time>2010-02-06T22:12:50Z</time>
      </trkpt>
      <trkpt lat="47.578360000625253" lon="18.959111021831632">
        <ele>301.17899999999997</ele>
        <time>2010-02-06T22:12:55Z</time>
      </trkpt>
      <trkpt lat="47.578381039202213" lon="18.95906500518322">
        <ele>301.52100000000002</ele>
        <time>2010-02-06T22:12:59Z</time>
      </trkpt>
      <trkpt lat="47.578400988131762" lon="18.959013959392905">
        <ele>300.50999999999999</ele>
        <time>2010-02-06T22:13:03Z</time>
      </trkpt>
      <trkpt lat="47.578436024487019" lon="18.958959979936481">
        <ele>300.01799999999997</ele>
        <time>2010-02-06T22:13:07Z</time>
      </trkpt>
      <trkpt lat="47.57846200838685" lon="18.958907006308436">
        <ele>299.81599999999997</ele>
        <time>2010-02-06T22:13:11Z</time>
      </trkpt>
      <trkpt lat="47.578490003943443" lon="18.958857972174883">
        <ele>299.60199999999998</ele>
        <time>2010-02-06T22:13:14Z</time>
      </trkpt>
      <trkpt lat="47.578515987843275" lon="18.958806004375219">
        <ele>299.416</ele>
        <time>2010-02-06T22:13:18Z</time>
      </trkpt>
      <trkpt lat="47.578535014763474" lon="18.958750013262033">
        <ele>298.71600000000001</ele>
        <time>2010-02-06T22:13:22Z</time>
      </trkpt>
      <trkpt lat="47.578550018370152" lon="18.958703996613622">
        <ele>298.21300000000002</ele>
        <time>2010-02-06T22:13:25Z</time>
      </trkpt>
      <trkpt lat="47.578554963693023" lon="18.958639036864042">
        <ele>298.541</ele>
        <time>2010-02-06T22:13:30Z</time>
      </trkpt>
      <trkpt lat="47.578582037240267" lon="18.95859201438725">
        <ele>298.27699999999999</ele>
        <time>2010-02-06T22:13:34Z</time>
      </trkpt>
      <trkpt lat="47.578600980341434" lon="18.958552032709122">
        <ele>298.04199999999997</ele>
        <time>2010-02-06T22:13:38Z</time>
      </trkpt>
      <trkpt lat="47.578611960634589" lon="18.958495035767555">
        <ele>298.45600000000002</ele>
        <time>2010-02-06T22:13:42Z</time>
      </trkpt>
      <trkpt lat="47.578650014474988" lon="18.958435021340847">
        <ele>298.16300000000001</ele>
        <time>2010-02-06T22:13:46Z</time>
      </trkpt>
      <trkpt lat="47.578686978667974" lon="18.958379030227661">
        <ele>298.15300000000002</ele>
        <time>2010-02-06T22:13:51Z</time>
      </trkpt>
      <trkpt lat="47.578725032508373" lon="18.958296971395612">
        <ele>297.67000000000002</ele>
        <time>2010-02-06T22:13:57Z</time>
      </trkpt>
      <trkpt lat="47.578754033893347" lon="18.958243997767568">
        <ele>297.11399999999998</ele>
        <time>2010-02-06T22:14:01Z</time>
      </trkpt>
      <trkpt lat="47.578781023621559" lon="18.958200998604298">
        <ele>296.911</ele>
        <time>2010-02-06T22:14:05Z</time>
      </trkpt>
      <trkpt lat="47.578821005299687" lon="18.958149030804634">
        <ele>295.84800000000001</ele>
        <time>2010-02-06T22:14:09Z</time>
      </trkpt>
      <trkpt lat="47.578853024169803" lon="18.958102008327842">
        <ele>296.35399999999998</ele>
        <time>2010-02-06T22:14:13Z</time>
      </trkpt>
      <trkpt lat="47.578870039433241" lon="18.958041993901134">
        <ele>294.95400000000001</ele>
        <time>2010-02-06T22:14:17Z</time>
      </trkpt>
      <trkpt lat="47.578901974484324" lon="18.957978039979935">
        <ele>294.61000000000001</ele>
        <time>2010-02-06T22:14:21Z</time>
      </trkpt>
      <trkpt lat="47.578898034989834" lon="18.957928000018001">
        <ele>295.05200000000002</ele>
        <time>2010-02-06T22:14:24Z</time>
      </trkpt>
      <trkpt lat="47.578888982534409" lon="18.957864968106151">
        <ele>294.79000000000002</ele>
        <time>2010-02-06T22:14:28Z</time>
      </trkpt>
      <trkpt lat="47.578881019726396" lon="18.957820041105151">
        <ele>293.923</ele>
        <time>2010-02-06T22:14:31Z</time>
      </trkpt>
      <trkpt lat="47.578889988362789" lon="18.957764972001314">
        <ele>294.05799999999999</ele>
        <time>2010-02-06T22:14:34Z</time>
      </trkpt>
      <trkpt lat="47.578916978091002" lon="18.957702023908496">
        <ele>294.13499999999999</ele>
        <time>2010-02-06T22:14:37Z</time>
      </trkpt>
      <trkpt lat="47.578910021111369" lon="18.957652989774942">
        <ele>293.97300000000001</ele>
        <time>2010-02-06T22:14:40Z</time>
      </trkpt>
      <trkpt lat="47.578915972262621" lon="18.957598004490137">
        <ele>294.23399999999998</ele>
        <time>2010-02-06T22:14:43Z</time>
      </trkpt>
      <trkpt lat="47.578922007232904" lon="18.957548970356584">
        <ele>293.875</ele>
        <time>2010-02-06T22:14:46Z</time>
      </trkpt>
      <trkpt lat="47.578893005847931" lon="18.957495996728539">
        <ele>295.42000000000002</ele>
        <time>2010-02-06T22:14:49Z</time>
      </trkpt>
      <trkpt lat="47.578893005847931" lon="18.957437993958592">
        <ele>294.04500000000002</ele>
        <time>2010-02-06T22:14:52Z</time>
      </trkpt>
      <trkpt lat="47.57889200001955" lon="18.957389965653419">
        <ele>294.70100000000002</ele>
        <time>2010-02-06T22:14:55Z</time>
      </trkpt>
      <trkpt lat="47.578898034989834" lon="18.957328023388982">
        <ele>294.38499999999999</ele>
        <time>2010-02-06T22:14:59Z</time>
      </trkpt>
      <trkpt lat="47.578901974484324" lon="18.957263985648751">
        <ele>294.18599999999998</ele>
        <time>2010-02-06T22:15:03Z</time>
      </trkpt>
      <trkpt lat="47.578899962827563" lon="18.957202965393662">
        <ele>294.315</ele>
        <time>2010-02-06T22:15:07Z</time>
      </trkpt>
      <trkpt lat="47.57891396060586" lon="18.957147980108857">
        <ele>294.42700000000002</ele>
        <time>2010-02-06T22:15:10Z</time>
      </trkpt>
      <trkpt lat="47.578904991969466" lon="18.957081008702517">
        <ele>294.28399999999999</ele>
        <time>2010-02-06T22:15:14Z</time>
      </trkpt>
      <trkpt lat="47.578896023333073" lon="18.957025017589331">
        <ele>294.01499999999999</ele>
        <time>2010-02-06T22:15:18Z</time>
      </trkpt>
      <trkpt lat="47.578876996412873" lon="18.956961985677481">
        <ele>294.18400000000003</ele>
        <time>2010-02-06T22:15:21Z</time>
      </trkpt>
      <trkpt lat="47.578889988362789" lon="18.956902977079153">
        <ele>294.22000000000003</ele>
        <time>2010-02-06T22:15:24Z</time>
      </trkpt>
      <trkpt lat="47.578909015282989" lon="18.956842962652445">
        <ele>293.92000000000002</ele>
        <time>2010-02-06T22:15:27Z</time>
      </trkpt>
      <trkpt lat="47.578921001404524" lon="18.95678797736764">
        <ele>293.81799999999998</ele>
        <time>2010-02-06T22:15:30Z</time>
      </trkpt>
      <trkpt lat="47.578938016667962" lon="18.956737015396357">
        <ele>293.899</ele>
        <time>2010-02-06T22:15:33Z</time>
      </trkpt>
      <trkpt lat="47.578959977254272" lon="18.956686975434422">
        <ele>293.22500000000002</ele>
        <time>2010-02-06T22:15:36Z</time>
      </trkpt>
      <trkpt lat="47.57897699251771" lon="18.956632995977998">
        <ele>292.66000000000003</ele>
        <time>2010-02-06T22:15:39Z</time>
      </trkpt>
      <trkpt lat="47.578969029709697" lon="18.956583961844444">
        <ele>292.60399999999998</ele>
        <time>2010-02-06T22:15:42Z</time>
      </trkpt>
      <trkpt lat="47.578966012224555" lon="18.956535011529922">
        <ele>291.36599999999999</ele>
        <time>2010-02-06T22:15:45Z</time>
      </trkpt>
      <trkpt lat="47.578970035538077" lon="18.956482959911227">
        <ele>291.36799999999999</ele>
        <time>2010-02-06T22:15:48Z</time>
      </trkpt>
      <trkpt lat="47.578973975032568" lon="18.956438032910228">
        <ele>291.36900000000003</ele>
        <time>2010-02-06T22:15:51Z</time>
      </trkpt>
      <trkpt lat="47.578991996124387" lon="18.956388998776674">
        <ele>291.32400000000001</ele>
        <time>2010-02-06T22:15:54Z</time>
      </trkpt>
      <trkpt lat="47.578989984467626" lon="18.956342982128263">
        <ele>290.77499999999998</ele>
        <time>2010-02-06T22:15:57Z</time>
      </trkpt>
      <trkpt lat="47.579001970589161" lon="18.956291014328599">
        <ele>291.00400000000002</ele>
        <time>2010-02-06T22:16:00Z</time>
      </trkpt>
      <trkpt lat="47.579005993902683" lon="18.956238040700555">
        <ele>290.27600000000001</ele>
        <time>2010-02-06T22:16:03Z</time>
      </trkpt>
      <trkpt lat="47.579006999731064" lon="18.956184983253479">
        <ele>290.04500000000002</ele>
        <time>2010-02-06T22:16:06Z</time>
      </trkpt>
      <trkpt lat="47.579016974195838" lon="18.956132009625435">
        <ele>289.66500000000002</ele>
        <time>2010-02-06T22:16:09Z</time>
      </trkpt>
      <trkpt lat="47.579026026651263" lon="18.956085992977023">
        <ele>289.08499999999998</ele>
        <time>2010-02-06T22:16:12Z</time>
      </trkpt>
      <trkpt lat="47.579036001116037" lon="18.956036036834121">
        <ele>288.63999999999999</ele>
        <time>2010-02-06T22:16:15Z</time>
      </trkpt>
      <trkpt lat="47.57904295809567" lon="18.955980967730284">
        <ele>288.50299999999999</ele>
        <time>2010-02-06T22:16:18Z</time>
      </trkpt>
      <trkpt lat="47.579052010551095" lon="18.955934029072523">
        <ele>287.60000000000002</ele>
        <time>2010-02-06T22:16:21Z</time>
      </trkpt>
      <trkpt lat="47.579052010551095" lon="18.95588499493897">
        <ele>287.60199999999998</ele>
        <time>2010-02-06T22:16:24Z</time>
      </trkpt>
      <trkpt lat="47.579049998894334" lon="18.955836966633797">
        <ele>288.02300000000002</ele>
        <time>2010-02-06T22:16:27Z</time>
      </trkpt>
      <trkpt lat="47.579057039692998" lon="18.955786004662514">
        <ele>287.55500000000001</ele>
        <time>2010-02-06T22:16:30Z</time>
      </trkpt>
      <trkpt lat="47.57906399667263" lon="18.955737976357341">
        <ele>286.392</ele>
        <time>2010-02-06T22:16:33Z</time>
      </trkpt>
      <trkpt lat="47.57908402942121" lon="18.955707969143987">
        <ele>285.23500000000001</ele>
        <time>2010-02-06T22:16:37Z</time>
      </trkpt>
      <trkpt lat="47.579114958643913" lon="18.955688020214438">
        <ele>285.709</ele>
        <time>2010-02-06T22:16:40Z</time>
      </trkpt>
      <trkpt lat="47.579129040241241" lon="18.955636974424124">
        <ele>285.03899999999999</ele>
        <time>2010-02-06T22:16:43Z</time>
      </trkpt>
      <trkpt lat="47.57914898917079" lon="18.95558400079608">
        <ele>284.37200000000001</ele>
        <time>2010-02-06T22:16:46Z</time>
      </trkpt>
      <trkpt lat="47.57916902191937" lon="18.955533038824797">
        <ele>283.71300000000002</ele>
        <time>2010-02-06T22:16:49Z</time>
      </trkpt>
      <trkpt lat="47.579182013869286" lon="18.955479981377721">
        <ele>282.84899999999999</ele>
        <time>2010-02-06T22:16:52Z</time>
      </trkpt>
      <trkpt lat="47.57919299416244" lon="18.955428013578057">
        <ele>283.36700000000002</ele>
        <time>2010-02-06T22:16:55Z</time>
      </trkpt>
      <trkpt lat="47.579201962798834" lon="18.955376967787743">
        <ele>283.137</ele>
        <time>2010-02-06T22:16:58Z</time>
      </trkpt>
      <trkpt lat="47.579209003597498" lon="18.95532600581646">
        <ele>282.995</ele>
        <time>2010-02-06T22:17:01Z</time>
      </trkpt>
      <trkpt lat="47.57921302691102" lon="18.955272026360035">
        <ele>283.32400000000001</ele>
        <time>2010-02-06T22:17:04Z</time>
      </trkpt>
      <trkpt lat="47.579221995547414" lon="18.95521704107523">
        <ele>282.637</ele>
        <time>2010-02-06T22:17:07Z</time>
      </trkpt>
      <trkpt lat="47.579230964183807" lon="18.955162977799773">
        <ele>282.18400000000003</ele>
        <time>2010-02-06T22:17:10Z</time>
      </trkpt>
      <trkpt lat="47.579242028295994" lon="18.955104975029826">
        <ele>281.47199999999998</ele>
        <time>2010-02-06T22:17:13Z</time>
      </trkpt>
      <trkpt lat="47.57925502024591" lon="18.955065999180079">
        <ele>280.88900000000001</ele>
        <time>2010-02-06T22:17:15Z</time>
      </trkpt>
      <trkpt lat="47.5792589597404" lon="18.955012019723654">
        <ele>279.78699999999998</ele>
        <time>2010-02-06T22:17:18Z</time>
      </trkpt>
      <trkpt lat="47.579259965568781" lon="18.954950999468565">
        <ele>279.779</ele>
        <time>2010-02-06T22:17:21Z</time>
      </trkpt>
      <trkpt lat="47.5792589597404" lon="18.954890985041857">
        <ele>278.40600000000001</ele>
        <time>2010-02-06T22:17:24Z</time>
      </trkpt>
      <trkpt lat="47.579266000539064" lon="18.954830970615149">
        <ele>277.78800000000001</ele>
        <time>2010-02-06T22:17:27Z</time>
      </trkpt>
      <trkpt lat="47.579269018024206" lon="18.954771040007472">
        <ele>277.64100000000002</ele>
        <time>2010-02-06T22:17:30Z</time>
      </trkpt>
      <trkpt lat="47.5792779866606" lon="18.954715970903635">
        <ele>277.16500000000002</ele>
        <time>2010-02-06T22:17:33Z</time>
      </trkpt>
      <trkpt lat="47.579274969175458" lon="18.954659979790449">
        <ele>276.43200000000002</ele>
        <time>2010-02-06T22:17:36Z</time>
      </trkpt>
      <trkpt lat="47.579275975003839" lon="18.954603988677263">
        <ele>275.89699999999999</ele>
        <time>2010-02-06T22:17:39Z</time>
      </trkpt>
      <trkpt lat="47.579270023852587" lon="18.954547997564077">
        <ele>274.99400000000003</ele>
        <time>2010-02-06T22:17:42Z</time>
      </trkpt>
      <trkpt lat="47.579271029680967" lon="18.954493012279272">
        <ele>273.69</ele>
        <time>2010-02-06T22:17:45Z</time>
      </trkpt>
      <trkpt lat="47.579283015802503" lon="18.954439032822847">
        <ele>273.36700000000002</ele>
        <time>2010-02-06T22:17:48Z</time>
      </trkpt>
      <trkpt lat="47.579288966953754" lon="18.95438002422452">
        <ele>273.05200000000002</ele>
        <time>2010-02-06T22:17:51Z</time>
      </trkpt>
      <trkpt lat="47.579290978610516" lon="18.954323027282953">
        <ele>272.12</ele>
        <time>2010-02-06T22:17:54Z</time>
      </trkpt>
      <trkpt lat="47.579290978610516" lon="18.954269969835877">
        <ele>272.09699999999998</ele>
        <time>2010-02-06T22:17:57Z</time>
      </trkpt>
      <trkpt lat="47.579287039116025" lon="18.954223031178117">
        <ele>271.09699999999998</ele>
        <time>2010-02-06T22:18:00Z</time>
      </trkpt>
      <trkpt lat="47.579295001924038" lon="18.954177014529705">
        <ele>270.654</ele>
        <time>2010-02-06T22:18:03Z</time>
      </trkpt>
      <trkpt lat="47.579308999702334" lon="18.954136027023196">
        <ele>270.23099999999999</ele>
        <time>2010-02-06T22:18:07Z</time>
      </trkpt>
      <trkpt lat="47.579335989430547" lon="18.95412303507328">
        <ele>269.96800000000002</ele>
        <time>2010-02-06T22:18:11Z</time>
      </trkpt>
      <trkpt lat="47.579371025785804" lon="18.954129992052913">
        <ele>269.66500000000002</ele>
        <time>2010-02-06T22:18:14Z</time>
      </trkpt>
      <trkpt lat="47.579405978322029" lon="18.954150024801493">
        <ele>269.79199999999997</ele>
        <time>2010-02-06T22:18:17Z</time>
      </trkpt>
      <trkpt lat="47.579431040212512" lon="18.954169973731041">
        <ele>268.55900000000003</ele>
        <time>2010-02-06T22:18:20Z</time>
      </trkpt>
      <trkpt lat="47.57947102189064" lon="18.954184977337718">
        <ele>268.70699999999999</ele>
        <time>2010-02-06T22:18:24Z</time>
      </trkpt>
      <trkpt lat="47.579507986083627" lon="18.954199980944395">
        <ele>269.47699999999998</ele>
        <time>2010-02-06T22:18:27Z</time>
      </trkpt>
      <trkpt lat="47.579544028267264" lon="18.954210039228201">
        <ele>268.61200000000002</ele>
        <time>2010-02-06T22:18:31Z</time>
      </trkpt>
      <trkpt lat="47.579572023823857" lon="18.954196041449904">
        <ele>268.39299999999997</ele>
        <time>2010-02-06T22:18:34Z</time>
      </trkpt>
      <trkpt lat="47.579602031037211" lon="18.954181037843227">
        <ele>268.572</ele>
        <time>2010-02-06T22:18:36Z</time>
      </trkpt>
      <trkpt lat="47.579636983573437" lon="18.954154970124364">
        <ele>267.41899999999998</ele>
        <time>2010-02-06T22:18:38Z</time>
      </trkpt>
      <trkpt lat="47.579666990786791" lon="18.954117000102997">
        <ele>266.62200000000001</ele>
        <time>2010-02-06T22:18:40Z</time>
      </trkpt>
      <trkpt lat="47.579706972464919" lon="18.954067965969443">
        <ele>266.262</ele>
        <time>2010-02-06T22:18:43Z</time>
      </trkpt>
      <trkpt lat="47.57975198328495" lon="18.954035025089979">
        <ele>266.34500000000003</ele>
        <time>2010-02-06T22:18:46Z</time>
      </trkpt>
      <trkpt lat="47.579786013811827" lon="18.953988002613187">
        <ele>265.74599999999998</ele>
        <time>2010-02-06T22:18:49Z</time>
      </trkpt>
      <trkpt lat="47.579816021025181" lon="18.953962018713355">
        <ele>265.99799999999999</ele>
        <time>2010-02-06T22:18:51Z</time>
      </trkpt>
      <trkpt lat="47.579843010753393" lon="18.953937962651253">
        <ele>265.86900000000003</ele>
        <time>2010-02-06T22:18:53Z</time>
      </trkpt>
      <trkpt lat="47.579881986603141" lon="18.953904015943408">
        <ele>265.815</ele>
        <time>2010-02-06T22:18:56Z</time>
      </trkpt>
      <trkpt lat="47.579907970502973" lon="18.953879959881306">
        <ele>265.69799999999998</ele>
        <time>2010-02-06T22:18:58Z</time>
      </trkpt>
      <trkpt lat="47.579936971887946" lon="18.953839978203177">
        <ele>265.49799999999999</ele>
        <time>2010-02-06T22:19:01Z</time>
      </trkpt>
      <trkpt lat="47.579967984929681" lon="18.953803014010191">
        <ele>265.36599999999999</ele>
        <time>2010-02-06T22:19:04Z</time>
      </trkpt>
      <trkpt lat="47.58000603877008" lon="18.953772000968456">
        <ele>264.96100000000001</ele>
        <time>2010-02-06T22:19:07Z</time>
      </trkpt>
      <trkpt lat="47.58005297742784" lon="18.953733025118709">
        <ele>265.33600000000001</ele>
        <time>2010-02-06T22:19:10Z</time>
      </trkpt>
      <trkpt lat="47.580142999067903" lon="18.95365197211504">
        <ele>265.31400000000002</ele>
        <time>2010-02-06T22:19:17Z</time>
      </trkpt>
      <trkpt lat="47.580192033201456" lon="18.95360997878015">
        <ele>265.39499999999998</ele>
        <time>2010-02-06T22:19:20Z</time>
      </trkpt>
      <trkpt lat="47.580232014879584" lon="18.953569997102022">
        <ele>265.12099999999998</ele>
        <time>2010-02-06T22:19:23Z</time>
      </trkpt>
      <trkpt lat="47.580275014042854" lon="18.953534960746765">
        <ele>264.714</ele>
        <time>2010-02-06T22:19:26Z</time>
      </trkpt>
      <trkpt lat="47.580311978235841" lon="18.953496990725398">
        <ele>264.67399999999998</ele>
        <time>2010-02-06T22:19:29Z</time>
      </trkpt>
      <trkpt lat="47.580357994884253" lon="18.953451979905367">
        <ele>264.22300000000001</ele>
        <time>2010-02-06T22:19:32Z</time>
      </trkpt>
      <trkpt lat="47.580394959077239" lon="18.953410992398858">
        <ele>264.33100000000002</ele>
        <time>2010-02-06T22:19:35Z</time>
      </trkpt>
      <trkpt lat="47.580428989604115" lon="18.953366987407207">
        <ele>263.81799999999998</ele>
        <time>2010-02-06T22:19:38Z</time>
      </trkpt>
      <trkpt lat="47.580463020130992" lon="18.953320970758796">
        <ele>264.52499999999998</ele>
        <time>2010-02-06T22:19:41Z</time>
      </trkpt>
      <trkpt lat="47.580495039001107" lon="18.953280989080667">
        <ele>263.43799999999999</ele>
        <time>2010-02-06T22:19:43Z</time>
      </trkpt>
      <trkpt lat="47.58052496239543" lon="18.953231032937765">
        <ele>262.69499999999999</ele>
        <time>2010-02-06T22:19:45Z</time>
      </trkpt>
      <trkpt lat="47.580542983487248" lon="18.953184010460973">
        <ele>262.97899999999998</ele>
        <time>2010-02-06T22:19:47Z</time>
      </trkpt>
      <trkpt lat="47.580576008185744" lon="18.953134976327419">
        <ele>262.63200000000001</ele>
        <time>2010-02-06T22:19:49Z</time>
      </trkpt>
      <trkpt lat="47.580595035105944" lon="18.953074961900711">
        <ele>263.06299999999999</ele>
        <time>2010-02-06T22:19:51Z</time>
      </trkpt>
      <trkpt lat="47.580618001520634" lon="18.953017964959145">
        <ele>262.95299999999997</ele>
        <time>2010-02-06T22:19:53Z</time>
      </trkpt>
      <trkpt lat="47.58063099347055" lon="18.952953005209565">
        <ele>261.76999999999998</ele>
        <time>2010-02-06T22:19:55Z</time>
      </trkpt>
      <trkpt lat="47.580649014562368" lon="18.952887039631605">
        <ele>260.04199999999997</ele>
        <time>2010-02-06T22:19:57Z</time>
      </trkpt>
      <trkpt lat="47.580676004290581" lon="18.952831970527768">
        <ele>259.81799999999998</ele>
        <time>2010-02-06T22:19:59Z</time>
      </trkpt>
      <trkpt lat="47.580711962655187" lon="18.952788971364498">
        <ele>260.10700000000003</ele>
        <time>2010-02-06T22:20:01Z</time>
      </trkpt>
      <trkpt lat="47.580735012888908" lon="18.95272602327168">
        <ele>258.87700000000001</ele>
        <time>2010-02-06T22:20:03Z</time>
      </trkpt>
      <trkpt lat="47.580763008445501" lon="18.952671959996223">
        <ele>258.31099999999998</ele>
        <time>2010-02-06T22:20:05Z</time>
      </trkpt>
      <trkpt lat="47.580783041194081" lon="18.952615968883038">
        <ele>257.42399999999998</ele>
        <time>2010-02-06T22:20:07Z</time>
      </trkpt>
      <trkpt lat="47.580806007608771" lon="18.95255503244698">
        <ele>257.15300000000002</ele>
        <time>2010-02-06T22:20:09Z</time>
      </trkpt>
      <trkpt lat="47.580834003165364" lon="18.952484959736466">
        <ele>256.726</ele>
        <time>2010-02-06T22:20:11Z</time>
      </trkpt>
      <trkpt lat="47.580861998721957" lon="18.952412037178874">
        <ele>255.917</ele>
        <time>2010-02-06T22:20:13Z</time>
      </trkpt>
      <trkpt lat="47.580903992056847" lon="18.952352022752166">
        <ele>255.90000000000001</ele>
        <time>2010-02-06T22:20:15Z</time>
      </trkpt>
      <trkpt lat="47.580933999270201" lon="18.952288990840316">
        <ele>255.756</ele>
        <time>2010-02-06T22:20:17Z</time>
      </trkpt>
      <trkpt lat="47.5809530261904" lon="18.952220007777214">
        <ele>255.45500000000001</ele>
        <time>2010-02-06T22:20:19Z</time>
      </trkpt>
      <trkpt lat="47.58099501952529" lon="18.952159993350506">
        <ele>254.07400000000001</ele>
        <time>2010-02-06T22:20:21Z</time>
      </trkpt>
      <trkpt lat="47.581029972061515" lon="18.952097967267036">
        <ele>253.17599999999999</ele>
        <time>2010-02-06T22:20:23Z</time>
      </trkpt>
      <trkpt lat="47.581064002588391" lon="18.952045999467373">
        <ele>251.80600000000001</ele>
        <time>2010-02-06T22:20:25Z</time>
      </trkpt>
      <trkpt lat="47.581098033115268" lon="18.9519979711622">
        <ele>251.69900000000001</ele>
        <time>2010-02-06T22:20:27Z</time>
      </trkpt>
      <trkpt lat="47.581140026450157" lon="18.951953966170549">
        <ele>250.58000000000001</ele>
        <time>2010-02-06T22:20:29Z</time>
      </trkpt>
      <trkpt lat="47.581185037270188" lon="18.951908033341169">
        <ele>249.19</ele>
        <time>2010-02-06T22:20:31Z</time>
      </trkpt>
      <trkpt lat="47.581227030605078" lon="18.951860005035996">
        <ele>249.70500000000001</ele>
        <time>2010-02-06T22:20:33Z</time>
      </trkpt>
      <trkpt lat="47.581262988969684" lon="18.951808037236333">
        <ele>248.827</ele>
        <time>2010-02-06T22:20:35Z</time>
      </trkpt>
      <trkpt lat="47.58129701949656" lon="18.95176000893116">
        <ele>248.589</ele>
        <time>2010-02-06T22:20:37Z</time>
      </trkpt>
      <trkpt lat="47.581355022266507" lon="18.951714998111129">
        <ele>248.34399999999999</ele>
        <time>2010-02-06T22:20:39Z</time>
      </trkpt>
      <trkpt lat="47.581407995894551" lon="18.951678033918142">
        <ele>247.53899999999999</ele>
        <time>2010-02-06T22:20:41Z</time>
      </trkpt>
      <trkpt lat="47.581462981179357" lon="18.951660012826324">
        <ele>247.749</ele>
        <time>2010-02-06T22:20:43Z</time>
      </trkpt>
      <trkpt lat="47.581515032798052" lon="18.951624976471066">
        <ele>246.72999999999999</ele>
        <time>2010-02-06T22:20:45Z</time>
      </trkpt>
      <trkpt lat="47.581568006426096" lon="18.951575020328164">
        <ele>245.386</ele>
        <time>2010-02-06T22:20:47Z</time>
      </trkpt>
      <trkpt lat="47.581616034731269" lon="18.951533026993275">
        <ele>244.21299999999999</ele>
        <time>2010-02-06T22:20:49Z</time>
      </trkpt>
      <trkpt lat="47.581669008359313" lon="18.951497990638018">
        <ele>244.53399999999999</ele>
        <time>2010-02-06T22:20:51Z</time>
      </trkpt>
      <trkpt lat="47.581717036664486" lon="18.951460020616651">
        <ele>243.91900000000001</ele>
        <time>2010-02-06T22:20:53Z</time>
      </trkpt>
      <trkpt lat="47.581765986979008" lon="18.951421966776252">
        <ele>243.136</ele>
        <time>2010-02-06T22:20:55Z</time>
      </trkpt>
      <trkpt lat="47.581817032769322" lon="18.951378967612982">
        <ele>242.41499999999999</ele>
        <time>2010-02-06T22:20:57Z</time>
      </trkpt>
      <trkpt lat="47.581842010840774" lon="18.951351977884769">
        <ele>241.73099999999999</ele>
        <time>2010-02-06T22:20:58Z</time>
      </trkpt>
      <trkpt lat="47.581888027489185" lon="18.951308978721499">
        <ele>241.06299999999999</ele>
        <time>2010-02-06T22:21:00Z</time>
      </trkpt>
      <trkpt lat="47.581928009167314" lon="18.951273020356894">
        <ele>240.41800000000001</ele>
        <time>2010-02-06T22:21:02Z</time>
      </trkpt>
      <trkpt lat="47.581970002502203" lon="18.951224992051721">
        <ele>239.45599999999999</ele>
        <time>2010-02-06T22:21:04Z</time>
      </trkpt>
      <trkpt lat="47.582009984180331" lon="18.95118098706007">
        <ele>238.48599999999999</ele>
        <time>2010-02-06T22:21:06Z</time>
      </trkpt>
      <trkpt lat="47.582045020535588" lon="18.951121978461742">
        <ele>237.059</ele>
        <time>2010-02-06T22:21:08Z</time>
      </trkpt>
      <trkpt lat="47.582087013870478" lon="18.951073028147221">
        <ele>237.40199999999999</ele>
        <time>2010-02-06T22:21:10Z</time>
      </trkpt>
      <trkpt lat="47.582131018862128" lon="18.951021982356906">
        <ele>236.65199999999999</ele>
        <time>2010-02-06T22:21:12Z</time>
      </trkpt>
      <trkpt lat="47.582168988883495" lon="18.950962973758578">
        <ele>236.65600000000001</ele>
        <time>2010-02-06T22:21:14Z</time>
      </trkpt>
      <trkpt lat="47.582206036895514" lon="18.950905976817012">
        <ele>236.749</ele>
        <time>2010-02-06T22:21:16Z</time>
      </trkpt>
      <trkpt lat="47.582230009138584" lon="18.950834982097149">
        <ele>236.99000000000001</ele>
        <time>2010-02-06T22:21:18Z</time>
      </trkpt>
      <trkpt lat="47.582264039665461" lon="18.950776979327202">
        <ele>236.733</ele>
        <time>2010-02-06T22:21:20Z</time>
      </trkpt>
      <trkpt lat="47.582292035222054" lon="18.950713025406003">
        <ele>236.05000000000001</ele>
        <time>2010-02-06T22:21:22Z</time>
      </trkpt>
      <trkpt lat="47.582323970273137" lon="18.950648987665772">
        <ele>235.39599999999999</ele>
        <time>2010-02-06T22:21:24Z</time>
      </trkpt>
      <trkpt lat="47.582345008850098" lon="18.950580004602671">
        <ele>235.131</ele>
        <time>2010-02-06T22:21:26Z</time>
      </trkpt>
      <trkpt lat="47.582364035770297" lon="18.950504986569285">
        <ele>234.91399999999999</ele>
        <time>2010-02-06T22:21:28Z</time>
      </trkpt>
      <trkpt lat="47.582374010235071" lon="18.950437009334564">
        <ele>233.14400000000001</ele>
        <time>2010-02-06T22:21:30Z</time>
      </trkpt>
      <trkpt lat="47.582393037155271" lon="18.950370037928224">
        <ele>233.16</ele>
        <time>2010-02-06T22:21:32Z</time>
      </trkpt>
      <trkpt lat="47.582411980256438" lon="18.950311029329896">
        <ele>232.45099999999999</ele>
        <time>2010-02-06T22:21:34Z</time>
      </trkpt>
      <trkpt lat="47.582433018833399" lon="18.950265012681484">
        <ele>231.405</ele>
        <time>2010-02-06T22:21:36Z</time>
      </trkpt>
      <trkpt lat="47.582468977198005" lon="18.950215978547931">
        <ele>230.63900000000001</ele>
        <time>2010-02-06T22:21:38Z</time>
      </trkpt>
      <trkpt lat="47.582508036866784" lon="18.950180020183325">
        <ele>229.167</ele>
        <time>2010-02-06T22:21:40Z</time>
      </trkpt>
      <trkpt lat="47.582556987181306" lon="18.950146995484829">
        <ele>227.95099999999999</ele>
        <time>2010-02-06T22:21:42Z</time>
      </trkpt>
      <trkpt lat="47.582606021314859" lon="18.950126962736249">
        <ele>227.697</ele>
        <time>2010-02-06T22:21:44Z</time>
      </trkpt>
      <trkpt lat="47.582658994942904" lon="18.950118999928236">
        <ele>227.06999999999999</ele>
        <time>2010-02-06T22:21:46Z</time>
      </trkpt>
      <trkpt lat="47.58271599188447" lon="18.950108019635081">
        <ele>225.54300000000001</ele>
        <time>2010-02-06T22:21:48Z</time>
      </trkpt>
      <trkpt lat="47.582769971340895" lon="18.950092010200024">
        <ele>224.06399999999999</ele>
        <time>2010-02-06T22:21:50Z</time>
      </trkpt>
      <trkpt lat="47.582824034616351" lon="18.950080024078488">
        <ele>223.31700000000001</ele>
        <time>2010-02-06T22:21:52Z</time>
      </trkpt>
      <trkpt lat="47.582868961617351" lon="18.950065020471811">
        <ele>222.08699999999999</ele>
        <time>2010-02-06T22:21:54Z</time>
      </trkpt>
      <trkpt lat="47.582928976044059" lon="18.95003903657198">
        <ele>221.63499999999999</ele>
        <time>2010-02-06T22:21:56Z</time>
      </trkpt>
      <trkpt lat="47.582978010177612" lon="18.950007017701864">
        <ele>220.66300000000001</ele>
        <time>2010-02-06T22:21:58Z</time>
      </trkpt>
      <trkpt lat="47.583032995462418" lon="18.949969969689846">
        <ele>219.19999999999999</ele>
        <time>2010-02-06T22:22:00Z</time>
      </trkpt>
      <trkpt lat="47.583071971312165" lon="18.949925964698195">
        <ele>218.87799999999999</ele>
        <time>2010-02-06T22:22:02Z</time>
      </trkpt>
      <trkpt lat="47.58312301710248" lon="18.949879026040435">
        <ele>216.64699999999999</ele>
        <time>2010-02-06T22:22:04Z</time>
      </trkpt>
      <trkpt lat="47.583167022094131" lon="18.949836026877165">
        <ele>215.96000000000001</ele>
        <time>2010-02-06T22:22:06Z</time>
      </trkpt>
      <trkpt lat="47.58320901542902" lon="18.949798978865147">
        <ele>215.84</ele>
        <time>2010-02-06T22:22:08Z</time>
      </trkpt>
      <trkpt lat="47.583256037905812" lon="18.949742987751961">
        <ele>215.054</ele>
        <time>2010-02-06T22:22:10Z</time>
      </trkpt>
      <trkpt lat="47.583299037069082" lon="18.949683979153633">
        <ele>213.83199999999999</ele>
        <time>2010-02-06T22:22:12Z</time>
      </trkpt>
      <trkpt lat="47.58333801291883" lon="18.949621031060815">
        <ele>212.58099999999999</ele>
        <time>2010-02-06T22:22:14Z</time>
      </trkpt>
      <trkpt lat="47.5833810120821" lon="18.949556993320584">
        <ele>211.255</ele>
        <time>2010-02-06T22:22:16Z</time>
      </trkpt>
      <trkpt lat="47.583409007638693" lon="18.949490021914244">
        <ele>210.577</ele>
        <time>2010-02-06T22:22:18Z</time>
      </trkpt>
      <trkpt lat="47.583445971831679" lon="18.949427995830774">
        <ele>208.38499999999999</ele>
        <time>2010-02-06T22:22:20Z</time>
      </trkpt>
      <trkpt lat="47.583495005965233" lon="18.949365969747305">
        <ele>207.33699999999999</ele>
        <time>2010-02-06T22:22:22Z</time>
      </trkpt>
      <trkpt lat="47.583531970158219" lon="18.94931199029088">
        <ele>206.19900000000001</ele>
        <time>2010-02-06T22:22:24Z</time>
      </trkpt>
      <trkpt lat="47.583572035655379" lon="18.949277959764004">
        <ele>205.292</ele>
        <time>2010-02-06T22:22:26Z</time>
      </trkpt>
      <trkpt lat="47.583603970706463" lon="18.949242001399398">
        <ele>203.60400000000001</ele>
        <time>2010-02-06T22:22:28Z</time>
      </trkpt>
      <trkpt lat="47.583642024546862" lon="18.949215011671185">
        <ele>202.53800000000001</ele>
        <time>2010-02-06T22:22:31Z</time>
      </trkpt>
      <trkpt lat="47.583673959597945" lon="18.949185004457831">
        <ele>201.90000000000001</ele>
        <time>2010-02-06T22:22:33Z</time>
      </trkpt>
      <trkpt lat="47.583716036751866" lon="18.949163965880871">
        <ele>199.57300000000001</ele>
        <time>2010-02-06T22:22:35Z</time>
      </trkpt>
      <trkpt lat="47.583760963752866" lon="18.949143011122942">
        <ele>198.74299999999999</ele>
        <time>2010-02-06T22:22:37Z</time>
      </trkpt>
      <trkpt lat="47.583804968744516" lon="18.949132030829787">
        <ele>197.42400000000001</ele>
        <time>2010-02-06T22:22:39Z</time>
      </trkpt>
      <trkpt lat="47.58385500870645" lon="18.949129013344646">
        <ele>197.41999999999999</ele>
        <time>2010-02-06T22:22:41Z</time>
      </trkpt>
      <trkpt lat="47.583893984556198" lon="18.949129013344646">
        <ele>195.80799999999999</ele>
        <time>2010-02-06T22:22:43Z</time>
      </trkpt>
      <trkpt lat="47.583931032568216" lon="18.949140999466181">
        <ele>195.041</ele>
        <time>2010-02-06T22:22:45Z</time>
      </trkpt>
      <trkpt lat="47.583965985104442" lon="18.94916002638638">
        <ele>194.464</ele>
        <time>2010-02-06T22:22:47Z</time>
      </trkpt>
      <trkpt lat="47.584018958732486" lon="18.94918198697269">
        <ele>194.68100000000001</ele>
        <time>2010-02-06T22:22:50Z</time>
      </trkpt>
      <trkpt lat="47.5840700045228" lon="18.949205037206411">
        <ele>193.625</ele>
        <time>2010-02-06T22:22:52Z</time>
      </trkpt>
      <trkpt lat="47.584110992029309" lon="18.94922599196434">
        <ele>191.75899999999999</ele>
        <time>2010-02-06T22:22:54Z</time>
      </trkpt>
      <trkpt lat="47.584147034212947" lon="18.949265973642468">
        <ele>192.321</ele>
        <time>2010-02-06T22:22:56Z</time>
      </trkpt>
      <trkpt lat="47.58417796343565" lon="18.949318025261164">
        <ele>190.56700000000001</ele>
        <time>2010-02-06T22:22:58Z</time>
      </trkpt>
      <trkpt lat="47.584215011447668" lon="18.949368987232447">
        <ele>189.267</ele>
        <time>2010-02-06T22:23:00Z</time>
      </trkpt>
      <trkpt lat="47.5842409953475" lon="18.949408968910575">
        <ele>188.79400000000001</ele>
        <time>2010-02-06T22:23:02Z</time>
      </trkpt>
      <trkpt lat="47.584275025874376" lon="18.949437970295548">
        <ele>188.215</ele>
        <time>2010-02-06T22:23:04Z</time>
      </trkpt>
      <trkpt lat="47.584319030866027" lon="18.949463032186031">
        <ele>186.80199999999999</ele>
        <time>2010-02-06T22:23:06Z</time>
      </trkpt>
      <trkpt lat="47.584376027807593" lon="18.94948298111558">
        <ele>186.429</ele>
        <time>2010-02-06T22:23:08Z</time>
      </trkpt>
      <trkpt lat="47.584417015314102" lon="18.949469989165664">
        <ele>186.28399999999999</ele>
        <time>2010-02-06T22:23:10Z</time>
      </trkpt>
      <trkpt lat="47.584467977285385" lon="18.949476024135947">
        <ele>184.46000000000001</ele>
        <time>2010-02-06T22:23:12Z</time>
      </trkpt>
      <trkpt lat="47.584521034732461" lon="18.949468983337283">
        <ele>183.03</ele>
        <time>2010-02-06T22:23:14Z</time>
      </trkpt>
      <trkpt lat="47.584577025845647" lon="18.949469989165664">
        <ele>181.34399999999999</ele>
        <time>2010-02-06T22:23:16Z</time>
      </trkpt>
      <trkpt lat="47.584624970331788" lon="18.949451968073845">
        <ele>180.465</ele>
        <time>2010-02-06T22:23:18Z</time>
      </trkpt>
      <trkpt lat="47.584641985595226" lon="18.949404023587704">
        <ele>178.959</ele>
        <time>2010-02-06T22:23:20Z</time>
      </trkpt>
      <trkpt lat="47.584677021950483" lon="18.949373010545969">
        <ele>177.49199999999999</ele>
        <time>2010-02-06T22:23:22Z</time>
      </trkpt>
      <trkpt lat="47.584704011678696" lon="18.949335040524602">
        <ele>177.821</ele>
        <time>2010-02-06T22:23:24Z</time>
      </trkpt>
      <trkpt lat="47.584742987528443" lon="18.949302015826106">
        <ele>176.57599999999999</ele>
        <time>2010-02-06T22:23:26Z</time>
      </trkpt>
      <trkpt lat="47.584792021661997" lon="18.94926899112761">
        <ele>175.738</ele>
        <time>2010-02-06T22:23:28Z</time>
      </trkpt>
      <trkpt lat="47.58482102304697" lon="18.949229009449482">
        <ele>175.00200000000001</ele>
        <time>2010-02-06T22:23:30Z</time>
      </trkpt>
      <trkpt lat="47.584851030260324" lon="18.949190033599734">
        <ele>173.893</ele>
        <time>2010-02-06T22:23:32Z</time>
      </trkpt>
      <trkpt lat="47.584882965311408" lon="18.949137981981039">
        <ele>173.36699999999999</ele>
        <time>2010-02-06T22:23:34Z</time>
      </trkpt>
      <trkpt lat="47.584914984181523" lon="18.949085008352995">
        <ele>171.97399999999999</ele>
        <time>2010-02-06T22:23:36Z</time>
      </trkpt>
      <trkpt lat="47.584948008880019" lon="18.949028011411428">
        <ele>171.11600000000001</ele>
        <time>2010-02-06T22:23:38Z</time>
      </trkpt>
      <trkpt lat="47.584958989173174" lon="18.948959028348327">
        <ele>169.92400000000001</ele>
        <time>2010-02-06T22:23:40Z</time>
      </trkpt>
      <trkpt lat="47.584965024143457" lon="18.948895996436477">
        <ele>169.52099999999999</ele>
        <time>2010-02-06T22:23:42Z</time>
      </trkpt>
      <trkpt lat="47.584981033578515" lon="18.948834976181388">
        <ele>168.78100000000001</ele>
        <time>2010-02-06T22:23:44Z</time>
      </trkpt>
      <trkpt lat="47.584995031356812" lon="18.948774039745331">
        <ele>168.23699999999999</ele>
        <time>2010-02-06T22:23:46Z</time>
      </trkpt>
      <trkpt lat="47.585022021085024" lon="18.9487100020051">
        <ele>167.751</ele>
        <time>2010-02-06T22:23:48Z</time>
      </trkpt>
      <trkpt lat="47.585046999156475" lon="18.948668008670211">
        <ele>167.96000000000001</ele>
        <time>2010-02-06T22:23:50Z</time>
      </trkpt>
      <trkpt lat="47.585083963349462" lon="18.94862400367856">
        <ele>165.94800000000001</ele>
        <time>2010-02-06T22:23:52Z</time>
      </trkpt>
      <trkpt lat="47.585110031068325" lon="18.948572035878897">
        <ele>165.209</ele>
        <time>2010-02-06T22:23:54Z</time>
      </trkpt>
      <trkpt lat="47.585149006918073" lon="18.94853699952364">
        <ele>164.482</ele>
        <time>2010-02-06T22:23:56Z</time>
      </trkpt>
      <trkpt lat="47.585191000252962" lon="18.948501041159034">
        <ele>163.53</ele>
        <time>2010-02-06T22:23:58Z</time>
      </trkpt>
      <trkpt lat="47.585221007466316" lon="18.948466004803777">
        <ele>162.239</ele>
        <time>2010-02-06T22:24:00Z</time>
      </trkpt>
      <trkpt lat="47.585274986922741" lon="18.94845200702548">
        <ele>162.227</ele>
        <time>2010-02-06T22:24:02Z</time>
      </trkpt>
      <trkpt lat="47.585317986086011" lon="18.948441026732326">
        <ele>162.08500000000001</ele>
        <time>2010-02-06T22:24:04Z</time>
      </trkpt>
      <trkpt lat="47.585369031876326" lon="18.94842803478241">
        <ele>160.93899999999999</ele>
        <time>2010-02-06T22:24:06Z</time>
      </trkpt>
      <trkpt lat="47.585412031039596" lon="18.948405990377069">
        <ele>160.58099999999999</ele>
        <time>2010-02-06T22:24:09Z</time>
      </trkpt>
      <trkpt lat="47.585467016324401" lon="18.948396015912294">
        <ele>159.96799999999999</ele>
        <time>2010-02-06T22:24:11Z</time>
      </trkpt>
      <trkpt lat="47.58550900965929" lon="18.948379000648856">
        <ele>158.11000000000001</ele>
        <time>2010-02-06T22:24:13Z</time>
      </trkpt>
      <trkpt lat="47.585542034357786" lon="18.948349999263883">
        <ele>157.24700000000001</ele>
        <time>2010-02-06T22:24:15Z</time>
      </trkpt>
      <trkpt lat="47.585596013814211" lon="18.948298031464219">
        <ele>157.30000000000001</ele>
        <time>2010-02-06T22:24:18Z</time>
      </trkpt>
      <trkpt lat="47.585633983835578" lon="18.948256960138679">
        <ele>157.32900000000001</ele>
        <time>2010-02-06T22:24:20Z</time>
      </trkpt>
      <trkpt lat="47.585675977170467" lon="18.948224019259214">
        <ele>157.31899999999999</ele>
        <time>2010-02-06T22:24:23Z</time>
      </trkpt>
      <trkpt lat="47.585695004090667" lon="18.948179008439183">
        <ele>157.47</ele>
        <time>2010-02-06T22:24:26Z</time>
      </trkpt>
      <trkpt lat="47.585699027404189" lon="18.94812997430563">
        <ele>156.55699999999999</ele>
        <time>2010-02-06T22:24:29Z</time>
      </trkpt>
      <trkpt lat="47.585693998262286" lon="18.948069959878922">
        <ele>156.101</ele>
        <time>2010-02-06T22:24:32Z</time>
      </trkpt>
      <trkpt lat="47.585717970505357" lon="18.948012962937355">
        <ele>155.27000000000001</ele>
        <time>2010-02-06T22:24:35Z</time>
      </trkpt>
      <trkpt lat="47.585742026567459" lon="18.947954960167408">
        <ele>155.441</ele>
        <time>2010-02-06T22:24:38Z</time>
      </trkpt>
      <trkpt lat="47.585756024345756" lon="18.947897963225842">
        <ele>155.10599999999999</ele>
        <time>2010-02-06T22:24:41Z</time>
      </trkpt>
      <trkpt lat="47.585791982710361" lon="18.94782998599112">
        <ele>155.126</ele>
        <time>2010-02-06T22:24:44Z</time>
      </trkpt>
      <trkpt lat="47.585803968831897" lon="18.947776006534696">
        <ele>154.80799999999999</ele>
        <time>2010-02-06T22:24:47Z</time>
      </trkpt>
      <trkpt lat="47.585804974660277" lon="18.947724038735032">
        <ele>155.42500000000001</ele>
        <time>2010-02-06T22:24:50Z</time>
      </trkpt>
      <trkpt lat="47.58581000380218" lon="18.947673998773098">
        <ele>154.839</ele>
        <time>2010-02-06T22:24:53Z</time>
      </trkpt>
      <trkpt lat="47.585816960781813" lon="18.947626976296306">
        <ele>155.12799999999999</ele>
        <time>2010-02-06T22:24:56Z</time>
      </trkpt>
      <trkpt lat="47.58591796271503" lon="18.947574002668262">
        <ele>155.238</ele>
        <time>2010-02-06T22:26:19Z</time>
      </trkpt>
      <trkpt lat="47.585869012400508" lon="18.947546007111669">
        <ele>154.91800000000001</ele>
        <time>2010-02-06T22:26:23Z</time>
      </trkpt>
      <trkpt lat="47.585825007408857" lon="18.947496972978115">
        <ele>155.78299999999999</ele>
        <time>2010-02-06T22:26:26Z</time>
      </trkpt>
      <trkpt lat="47.58578703738749" lon="18.947460008785129">
        <ele>155.24100000000001</ele>
        <time>2010-02-06T22:26:28Z</time>
      </trkpt>
      <trkpt lat="47.585747977718711" lon="18.947423966601491">
        <ele>155.67099999999999</ele>
        <time>2010-02-06T22:26:30Z</time>
      </trkpt>
      <trkpt lat="47.58572299964726" lon="18.947392031550407">
        <ele>155.78899999999999</ele>
        <time>2010-02-06T22:26:32Z</time>
      </trkpt>
      <trkpt lat="47.58568000048399" lon="18.94735699519515">
        <ele>156.20500000000001</ele>
        <time>2010-02-06T22:26:34Z</time>
      </trkpt>
      <trkpt lat="47.585635995492339" lon="18.947319025173783">
        <ele>156.58099999999999</ele>
        <time>2010-02-06T22:26:36Z</time>
      </trkpt>
      <trkpt lat="47.58559400215745" lon="18.947276026010513">
        <ele>155.97</ele>
        <time>2010-02-06T22:26:38Z</time>
      </trkpt>
      <trkpt lat="47.585547985509038" lon="18.947237972170115">
        <ele>157.07499999999999</ele>
        <time>2010-02-06T22:26:40Z</time>
      </trkpt>
      <trkpt lat="47.585517978295684" lon="18.947200002148747">
        <ele>157.215</ele>
        <time>2010-02-06T22:26:42Z</time>
      </trkpt>
      <trkpt lat="47.58548797108233" lon="18.94716496579349">
        <ele>157.392</ele>
        <time>2010-02-06T22:26:44Z</time>
      </trkpt>
      <trkpt lat="47.585499035194516" lon="18.94711903296411">
        <ele>157.83699999999999</ele>
        <time>2010-02-06T22:26:47Z</time>
      </trkpt>
      <trkpt lat="47.585468022152781" lon="18.947077039629221">
        <ele>157.62700000000001</ele>
        <time>2010-02-06T22:26:50Z</time>
      </trkpt>
      <trkpt lat="47.58546500466764" lon="18.94703303463757">
        <ele>157.91499999999999</ele>
        <time>2010-02-06T22:26:54Z</time>
      </trkpt>
      <trkpt lat="47.585458969697356" lon="18.946981988847256">
        <ele>157.971</ele>
        <time>2010-02-06T22:26:57Z</time>
      </trkpt>
      <trkpt lat="47.585467016324401" lon="18.946913005784154">
        <ele>157.17400000000001</ele>
        <time>2010-02-06T22:27:00Z</time>
      </trkpt>
      <trkpt lat="47.585473973304033" lon="18.946847040206194">
        <ele>157.26499999999999</ele>
        <time>2010-02-06T22:27:03Z</time>
      </trkpt>
      <trkpt lat="47.585471039637923" lon="18.946786019951105">
        <ele>156.37200000000001</ele>
        <time>2010-02-06T22:27:06Z</time>
      </trkpt>
      <trkpt lat="47.585471039637923" lon="18.946709996089339">
        <ele>157.47300000000001</ele>
        <time>2010-02-06T22:27:10Z</time>
      </trkpt>
      <trkpt lat="47.585456036031246" lon="18.946656016632915">
        <ele>157.316</ele>
        <time>2010-02-06T22:27:13Z</time>
      </trkpt>
      <trkpt lat="47.58544597774744" lon="18.946615029126406">
        <ele>157.19200000000001</ele>
        <time>2010-02-06T22:27:16Z</time>
      </trkpt>
      <trkpt lat="47.585413958877325" lon="18.946577981114388">
        <ele>157.833</ele>
        <time>2010-02-06T22:27:19Z</time>
      </trkpt>
      <trkpt lat="47.585387974977493" lon="18.946551997214556">
        <ele>157.48699999999999</ele>
        <time>2010-02-06T22:27:22Z</time>
      </trkpt>
      <trkpt lat="47.585345981642604" lon="18.946515033021569">
        <ele>158.07900000000001</ele>
        <time>2010-02-06T22:27:25Z</time>
      </trkpt>
      <trkpt lat="47.585302982479334" lon="18.94647597335279">
        <ele>157.91</ele>
        <time>2010-02-06T22:27:27Z</time>
      </trkpt>
      <trkpt lat="47.585279010236263" lon="18.946421993896365">
        <ele>158.16399999999999</ele>
        <time>2010-02-06T22:27:29Z</time>
      </trkpt>
      <trkpt lat="47.585244979709387" lon="18.946382012218237">
        <ele>158.13800000000001</ele>
        <time>2010-02-06T22:27:31Z</time>
      </trkpt>
      <trkpt lat="47.585216984152794" lon="18.946349993348122">
        <ele>158.61199999999999</ele>
        <time>2010-02-06T22:27:33Z</time>
      </trkpt>
      <trkpt lat="47.585169961676002" lon="18.946323003619909">
        <ele>158.55600000000001</ele>
        <time>2010-02-06T22:27:35Z</time>
      </trkpt>
      <trkpt lat="47.585068959742785" lon="18.946243040263653">
        <ele>158.86699999999999</ele>
        <time>2010-02-06T22:27:40Z</time>
      </trkpt>
      <trkpt lat="47.585031995549798" lon="18.946199035272002">
        <ele>159.11199999999999</ele>
        <time>2010-02-06T22:27:43Z</time>
      </trkpt>
      <trkpt lat="47.584980027750134" lon="18.946156958118081">
        <ele>158.96700000000001</ele>
        <time>2010-02-06T22:27:45Z</time>
      </trkpt>
      <trkpt lat="47.584943985566497" lon="18.946113958954811">
        <ele>159.03800000000001</ele>
        <time>2010-02-06T22:27:47Z</time>
      </trkpt>
      <trkpt lat="47.584908027201891" lon="18.946068026125431">
        <ele>159.01300000000001</ele>
        <time>2010-02-06T22:27:49Z</time>
      </trkpt>
      <trkpt lat="47.584865028038621" lon="18.946021003648639">
        <ele>159.29900000000001</ele>
        <time>2010-02-06T22:27:52Z</time>
      </trkpt>
      <trkpt lat="47.584791015833616" lon="18.945975992828608">
        <ele>159.285</ele>
        <time>2010-02-06T22:27:55Z</time>
      </trkpt>
      <trkpt lat="47.584766959771514" lon="18.945958977565169">
        <ele>160.00999999999999</ele>
        <time>2010-02-06T22:27:57Z</time>
      </trkpt>
      <trkpt lat="47.584729995578527" lon="18.945922013372183">
        <ele>160.23599999999999</ele>
        <time>2010-02-06T22:27:59Z</time>
      </trkpt>
      <trkpt lat="47.584693031385541" lon="18.945879014208913">
        <ele>160.976</ele>
        <time>2010-02-06T22:28:02Z</time>
      </trkpt>
      <trkpt lat="47.584616001695395" lon="18.945855963975191">
        <ele>160.06800000000001</ele>
        <time>2010-02-06T22:28:05Z</time>
      </trkpt>
      <trkpt lat="47.584568979218602" lon="18.945825034752488">
        <ele>162.84200000000001</ele>
        <time>2010-02-06T22:28:07Z</time>
      </trkpt>
      <trkpt lat="47.584509970620275" lon="18.945798967033625">
        <ele>161.298</ele>
        <time>2010-02-06T22:28:09Z</time>
      </trkpt>
      <trkpt lat="47.584441993385553" lon="18.945771977305412">
        <ele>161.78899999999999</ele>
        <time>2010-02-06T22:28:11Z</time>
      </trkpt>
      <trkpt lat="47.584395976737142" lon="18.945755967870355">
        <ele>161.80199999999999</ele>
        <time>2010-02-06T22:28:13Z</time>
      </trkpt>
      <trkpt lat="47.584321964532137" lon="18.945736018940806">
        <ele>162.38399999999999</ele>
        <time>2010-02-06T22:28:15Z</time>
      </trkpt>
      <trkpt lat="47.584257004782557" lon="18.945736018940806">
        <ele>163.28999999999999</ele>
        <time>2010-02-06T22:28:17Z</time>
      </trkpt>
      <trkpt lat="47.584194978699088" lon="18.945739958435297">
        <ele>163.191</ele>
        <time>2010-02-06T22:28:19Z</time>
      </trkpt>
      <trkpt lat="47.584139993414283" lon="18.945783963426948">
        <ele>162.80600000000001</ele>
        <time>2010-02-06T22:28:21Z</time>
      </trkpt>
      <trkpt lat="47.584075033664703" lon="18.945797039195895">
        <ele>162.691</ele>
        <time>2010-02-06T22:28:23Z</time>
      </trkpt>
      <trkpt lat="47.584001021459699" lon="18.945797039195895">
        <ele>162.02500000000001</ele>
        <time>2010-02-06T22:28:25Z</time>
      </trkpt>
      <trkpt lat="47.583937989547849" lon="18.945821011438966">
        <ele>162.584</ele>
        <time>2010-02-06T22:28:27Z</time>
      </trkpt>
      <trkpt lat="47.583884010091424" lon="18.945858981460333">
        <ele>162.36000000000001</ele>
        <time>2010-02-06T22:28:29Z</time>
      </trkpt>
      <trkpt lat="47.583821984007955" lon="18.945883037522435">
        <ele>160.74100000000001</ele>
        <time>2010-02-06T22:28:31Z</time>
      </trkpt>
      <trkpt lat="47.583746965974569" lon="18.945908015593886">
        <ele>160.94499999999999</ele>
        <time>2010-02-06T22:28:33Z</time>
      </trkpt>
      <trkpt lat="47.583712013438344" lon="18.945947997272015">
        <ele>161.946</ele>
        <time>2010-02-06T22:28:35Z</time>
      </trkpt>
      <trkpt lat="47.583636995404959" lon="18.945986973121762">
        <ele>161.51400000000001</ele>
        <time>2010-02-06T22:28:37Z</time>
      </trkpt>
      <trkpt lat="47.583590978756547" lon="18.946018991991878">
        <ele>161.749</ele>
        <time>2010-02-06T22:28:39Z</time>
      </trkpt>
      <trkpt lat="47.583564994856715" lon="18.946038018912077">
        <ele>162.90799999999999</ele>
        <time>2010-02-06T22:28:41Z</time>
      </trkpt>
      <trkpt lat="47.583544962108135" lon="18.94608898088336">
        <ele>163.279</ele>
        <time>2010-02-06T22:28:43Z</time>
      </trkpt>
      <trkpt lat="47.583528030663729" lon="18.946138015016913">
        <ele>162.68700000000001</ele>
        <time>2010-02-06T22:28:45Z</time>
      </trkpt>
      <trkpt lat="47.583500035107136" lon="18.946161987259984">
        <ele>162.83199999999999</ele>
        <time>2010-02-06T22:28:47Z</time>
      </trkpt>
      <trkpt lat="47.583492994308472" lon="18.946163998916745">
        <ele>162.21199999999999</ele>
        <time>2010-02-06T22:28:49Z</time>
      </trkpt>
      <trkpt lat="47.583513027057052" lon="18.946188976988196">
        <ele>162.98400000000001</ele>
        <time>2010-02-06T22:28:52Z</time>
      </trkpt>
      <trkpt lat="47.583492994308472" lon="18.946191994473338">
        <ele>163.40100000000001</ele>
        <time>2010-02-06T22:28:55Z</time>
      </trkpt>
      <trkpt lat="47.58346701040864" lon="18.946198029443622">
        <ele>164.089</ele>
        <time>2010-02-06T22:28:57Z</time>
      </trkpt>
      <trkpt lat="47.583423005416989" lon="18.946187971159816">
        <ele>163.821</ele>
        <time>2010-02-06T22:28:59Z</time>
      </trkpt>
      <trkpt lat="47.583374977111816" lon="18.946169028058648">
        <ele>164.072</ele>
        <time>2010-02-06T22:29:01Z</time>
      </trkpt>
      <trkpt lat="47.583312029018998" lon="18.946171039715409">
        <ele>163.91900000000001</ele>
        <time>2010-02-06T22:29:04Z</time>
      </trkpt>
      <trkpt lat="47.583277998492122" lon="18.946179002523422">
        <ele>163.75399999999999</ele>
        <time>2010-02-06T22:29:06Z</time>
      </trkpt>
      <trkpt lat="47.583221001550555" lon="18.9461749792099">
        <ele>163.80699999999999</ele>
        <time>2010-02-06T22:29:08Z</time>
      </trkpt>
      <trkpt lat="47.583174984902143" lon="18.946150001138449">
        <ele>163.72900000000001</ele>
        <time>2010-02-06T22:29:10Z</time>
      </trkpt>
      <trkpt lat="47.583127040416002" lon="18.946118988096714">
        <ele>163.86799999999999</ele>
        <time>2010-02-06T22:29:12Z</time>
      </trkpt>
      <trkpt lat="47.583100972697139" lon="18.94613298587501">
        <ele>163.88399999999999</ele>
        <time>2010-02-06T22:29:14Z</time>
      </trkpt>
      <trkpt lat="47.583066020160913" lon="18.946130974218249">
        <ele>164.35599999999999</ele>
        <time>2010-02-06T22:29:16Z</time>
      </trkpt>
      <trkpt lat="47.583035007119179" lon="18.946108007803559">
        <ele>164.071</ele>
        <time>2010-02-06T22:29:18Z</time>
      </trkpt>
      <trkpt lat="47.583003994077444" lon="18.946086969226599">
        <ele>164.06200000000001</ele>
        <time>2010-02-06T22:29:21Z</time>
      </trkpt>
      <trkpt lat="47.582966024056077" lon="18.946058973670006">
        <ele>164.39099999999999</ele>
        <time>2010-02-06T22:29:23Z</time>
      </trkpt>
      <trkpt lat="47.582901986315846" lon="18.946021003648639">
        <ele>164.72</ele>
        <time>2010-02-06T22:29:25Z</time>
      </trkpt>
      <trkpt lat="47.582854041829705" lon="18.946000970900059">
        <ele>165.024</ele>
        <time>2010-02-06T22:29:27Z</time>
      </trkpt>
      <trkpt lat="47.582776006311178" lon="18.945976998656988">
        <ele>166.88800000000001</ele>
        <time>2010-02-06T22:29:30Z</time>
      </trkpt>
      <trkpt lat="47.582710040733218" lon="18.945975992828608">
        <ele>167.13300000000001</ele>
        <time>2010-02-06T22:29:32Z</time>
      </trkpt>
      <trkpt lat="47.582641979679465" lon="18.945978004485369">
        <ele>167.381</ele>
        <time>2010-02-06T22:29:34Z</time>
      </trkpt>
      <trkpt lat="47.58260702714324" lon="18.946016980335116">
        <ele>167.59899999999999</ele>
        <time>2010-02-06T22:29:36Z</time>
      </trkpt>
      <trkpt lat="47.582560004666448" lon="18.946041036397219">
        <ele>168.25800000000001</ele>
        <time>2010-02-06T22:29:38Z</time>
      </trkpt>
      <trkpt lat="47.58252396248281" lon="18.946072971448302">
        <ele>167.95400000000001</ele>
        <time>2010-02-06T22:29:40Z</time>
      </trkpt>
      <trkpt lat="47.582503007724881" lon="18.946113958954811">
        <ele>167.97200000000001</ele>
        <time>2010-02-06T22:29:42Z</time>
      </trkpt>
      <trkpt lat="47.582466965541244" lon="18.946140026673675">
        <ele>168.44399999999999</ele>
        <time>2010-02-06T22:29:44Z</time>
      </trkpt>
      <trkpt lat="47.582439975813031" lon="18.946157963946462">
        <ele>167.43600000000001</ele>
        <time>2010-02-06T22:29:46Z</time>
      </trkpt>
      <trkpt lat="47.582419021055102" lon="18.946185037493706">
        <ele>167.565</ele>
        <time>2010-02-06T22:29:48Z</time>
      </trkpt>
      <trkpt lat="47.582393037155271" lon="18.946204986423254">
        <ele>168.24199999999999</ele>
        <time>2010-02-06T22:29:51Z</time>
      </trkpt>
      <trkpt lat="47.582360012456775" lon="18.946204986423254">
        <ele>168.22900000000001</ele>
        <time>2010-02-06T22:29:53Z</time>
      </trkpt>
      <trkpt lat="47.582307960838079" lon="18.946201968938112">
        <ele>167.83500000000001</ele>
        <time>2010-02-06T22:29:55Z</time>
      </trkpt>
      <trkpt lat="47.58226596750319" lon="18.946190988644958">
        <ele>168.22900000000001</ele>
        <time>2010-02-06T22:29:57Z</time>
      </trkpt>
      <trkpt lat="47.582240989431739" lon="18.946214038878679">
        <ele>167.845</ele>
        <time>2010-02-06T22:29:59Z</time>
      </trkpt>
      <trkpt lat="47.582218023017049" lon="18.946229964494705">
        <ele>168.041</ele>
        <time>2010-02-06T22:30:01Z</time>
      </trkpt>
      <trkpt lat="47.582197990268469" lon="18.946216972544789">
        <ele>167.965</ele>
        <time>2010-02-06T22:30:04Z</time>
      </trkpt>
      <trkpt lat="47.582166977226734" lon="18.94621898420155">
        <ele>168.31999999999999</ele>
        <time>2010-02-06T22:30:07Z</time>
      </trkpt>
      <trkpt lat="47.582151973620057" lon="18.946194006130099">
        <ele>168.16399999999999</ele>
        <time>2010-02-06T22:30:10Z</time>
      </trkpt>
      <trkpt lat="47.58211400359869" lon="18.946167016401887">
        <ele>168.88300000000001</ele>
        <time>2010-02-06T22:30:13Z</time>
      </trkpt>
      <trkpt lat="47.582076033577323" lon="18.946146983653307">
        <ele>169.273</ele>
        <time>2010-02-06T22:30:16Z</time>
      </trkpt>
      <trkpt lat="47.582016019150615" lon="18.946113958954811">
        <ele>168.81700000000001</ele>
        <time>2010-02-06T22:30:19Z</time>
      </trkpt>
      <trkpt lat="47.581984000280499" lon="18.946081018075347">
        <ele>169.17400000000001</ele>
        <time>2010-02-06T22:30:21Z</time>
      </trkpt>
      <trkpt lat="47.581943012773991" lon="18.946026032790542">
        <ele>168.43600000000001</ele>
        <time>2010-02-06T22:30:23Z</time>
      </trkpt>
      <trkpt lat="47.581903031095862" lon="18.945961995050311">
        <ele>168.476</ele>
        <time>2010-02-06T22:30:25Z</time>
      </trkpt>
      <trkpt lat="47.581857014447451" lon="18.945909021422267">
        <ele>168.976</ele>
        <time>2010-02-06T22:30:27Z</time>
      </trkpt>
      <trkpt lat="47.581812003627419" lon="18.945856969803572">
        <ele>168.84200000000001</ele>
        <time>2010-02-06T22:30:29Z</time>
      </trkpt>
      <trkpt lat="47.581794988363981" lon="18.945807013660669">
        <ele>168.72900000000001</ele>
        <time>2010-02-06T22:30:31Z</time>
      </trkpt>
      <trkpt lat="47.581748971715569" lon="18.945770971477032">
        <ele>168.982</ele>
        <time>2010-02-06T22:30:33Z</time>
      </trkpt>
      <trkpt lat="47.581703038886189" lon="18.945717997848988">
        <ele>169.405</ele>
        <time>2010-02-06T22:30:35Z</time>
      </trkpt>
      <trkpt lat="47.581661967560649" lon="18.945659995079041">
        <ele>169.208</ele>
        <time>2010-02-06T22:30:37Z</time>
      </trkpt>
      <trkpt lat="47.581617962568998" lon="18.945618001744151">
        <ele>169.15000000000001</ele>
        <time>2010-02-06T22:30:39Z</time>
      </trkpt>
      <trkpt lat="47.581579992547631" lon="18.945561004802585">
        <ele>168.691</ele>
        <time>2010-02-06T22:30:41Z</time>
      </trkpt>
      <trkpt lat="47.581549985334277" lon="18.945503002032638">
        <ele>169.279</ele>
        <time>2010-02-06T22:30:43Z</time>
      </trkpt>
      <trkpt lat="47.581513021141291" lon="18.945475006476045">
        <ele>168.971</ele>
        <time>2010-02-06T22:30:45Z</time>
      </trkpt>
      <trkpt lat="47.581505980342627" lon="18.945418009534478">
        <ele>168.78399999999999</ele>
        <time>2010-02-06T22:30:48Z</time>
      </trkpt>
      <trkpt lat="47.581526013091207" lon="18.945345003157854">
        <ele>169.21000000000001</ele>
        <time>2010-02-06T22:30:51Z</time>
      </trkpt>
      <trkpt lat="47.581522995606065" lon="18.945284988731146">
        <ele>169.083</ele>
        <time>2010-02-06T22:30:54Z</time>
      </trkpt>
      <trkpt lat="47.58153397589922" lon="18.945225980132818">
        <ele>169.22</ele>
        <time>2010-02-06T22:30:57Z</time>
      </trkpt>
      <trkpt lat="47.581525007262826" lon="18.945173006504774">
        <ele>170.69900000000001</ele>
        <time>2010-02-06T22:31:00Z</time>
      </trkpt>
      <trkpt lat="47.581532970070839" lon="18.945117015391588">
        <ele>170.74799999999999</ele>
        <time>2010-02-06T22:31:03Z</time>
      </trkpt>
      <trkpt lat="47.581557026132941" lon="18.945049038156867">
        <ele>171.471</ele>
        <time>2010-02-06T22:31:06Z</time>
      </trkpt>
      <trkpt lat="47.581571023911238" lon="18.944981982931495">
        <ele>171.881</ele>
        <time>2010-02-06T22:31:09Z</time>
      </trkpt>
      <trkpt lat="47.581582004204392" lon="18.944921968504786">
        <ele>171.375</ele>
        <time>2010-02-06T22:31:12Z</time>
      </trkpt>
      <trkpt lat="47.581582004204392" lon="18.944854997098446">
        <ele>171.93799999999999</ele>
        <time>2010-02-06T22:31:15Z</time>
      </trkpt>
      <trkpt lat="47.581594996154308" lon="18.944788025692105">
        <ele>172.20699999999999</ele>
        <time>2010-02-06T22:31:18Z</time>
      </trkpt>
      <trkpt lat="47.581631038337946" lon="18.944729017093778">
        <ele>173.06999999999999</ele>
        <time>2010-02-06T22:31:21Z</time>
      </trkpt>
      <trkpt lat="47.581635983660817" lon="18.944650981575251">
        <ele>173.01599999999999</ele>
        <time>2010-02-06T22:31:24Z</time>
      </trkpt>
      <trkpt lat="47.581645958125591" lon="18.944577975198627">
        <ele>174.24100000000001</ele>
        <time>2010-02-06T22:31:27Z</time>
      </trkpt>
      <trkpt lat="47.581630032509565" lon="18.944514021277428">
        <ele>174.59700000000001</ele>
        <time>2010-02-06T22:31:30Z</time>
      </trkpt>
      <trkpt lat="47.581658028066158" lon="18.944450989365578">
        <ele>175.36000000000001</ele>
        <time>2010-02-06T22:31:33Z</time>
      </trkpt>
      <trkpt lat="47.581635983660817" lon="18.944387035444379">
        <ele>175.53899999999999</ele>
        <time>2010-02-06T22:31:36Z</time>
      </trkpt>
      <trkpt lat="47.581622991710901" lon="18.944315034896135">
        <ele>176.30600000000001</ele>
        <time>2010-02-06T22:31:39Z</time>
      </trkpt>
      <trkpt lat="47.581616034731269" lon="18.944244040176272">
        <ele>176.315</ele>
        <time>2010-02-06T22:31:42Z</time>
      </trkpt>
      <trkpt lat="47.581631960347295" lon="18.9441769849509">
        <ele>176.31899999999999</ele>
        <time>2010-02-06T22:31:45Z</time>
      </trkpt>
      <trkpt lat="47.581640006974339" lon="18.944100961089134">
        <ele>176.92699999999999</ele>
        <time>2010-02-06T22:31:48Z</time>
      </trkpt>
      <trkpt lat="47.581661967560649" lon="18.944036001339555">
        <ele>177.292</ele>
        <time>2010-02-06T22:31:51Z</time>
      </trkpt>
      <trkpt lat="47.581668002530932" lon="18.943972969427705">
        <ele>176.917</ele>
        <time>2010-02-06T22:31:54Z</time>
      </trkpt>
      <trkpt lat="47.581648975610733" lon="18.943902980536222">
        <ele>178.197</ele>
        <time>2010-02-06T22:31:57Z</time>
      </trkpt>
      <trkpt lat="47.581591978669167" lon="18.943847995251417">
        <ele>178.947</ele>
        <time>2010-02-06T22:32:00Z</time>
      </trkpt>
      <trkpt lat="47.581575969234109" lon="18.943785969167948">
        <ele>178.946</ele>
        <time>2010-02-06T22:32:03Z</time>
      </trkpt>
      <trkpt lat="47.581550991162658" lon="18.94374598748982">
        <ele>178.602</ele>
        <time>2010-02-06T22:32:05Z</time>
      </trkpt>
      <trkpt lat="47.581541016697884" lon="18.943686978891492">
        <ele>178.65799999999999</ele>
        <time>2010-02-06T22:32:07Z</time>
      </trkpt>
      <trkpt lat="47.581526013091207" lon="18.943625036627054">
        <ele>178.56200000000001</ele>
        <time>2010-02-06T22:32:09Z</time>
      </trkpt>
      <trkpt lat="47.581514026969671" lon="18.943576002493501">
        <ele>178.66300000000001</ele>
        <time>2010-02-06T22:32:11Z</time>
      </trkpt>
      <trkpt lat="47.581511009484529" lon="18.943514982238412">
        <ele>178.905</ele>
        <time>2010-02-06T22:32:13Z</time>
      </trkpt>
      <trkpt lat="47.581503968685865" lon="18.943451028317213">
        <ele>178.48400000000001</ele>
        <time>2010-02-06T22:32:15Z</time>
      </trkpt>
      <trkpt lat="47.581508997827768" lon="18.94338296726346">
        <ele>178.48400000000001</ele>
        <time>2010-02-06T22:32:17Z</time>
      </trkpt>
      <trkpt lat="47.581521989777684" lon="18.9433170016855">
        <ele>178.36699999999999</ele>
        <time>2010-02-06T22:32:19Z</time>
      </trkpt>
      <trkpt lat="47.581525007262826" lon="18.943265033885837">
        <ele>178.86099999999999</ele>
        <time>2010-02-06T22:32:21Z</time>
      </trkpt>
      <trkpt lat="47.581531964242458" lon="18.943218011409044">
        <ele>179.286</ele>
        <time>2010-02-06T22:32:23Z</time>
      </trkpt>
      <trkpt lat="47.581521989777684" lon="18.943161014467478">
        <ele>178.75800000000001</ele>
        <time>2010-02-06T22:32:26Z</time>
      </trkpt>
      <trkpt lat="47.581514026969671" lon="18.943113991990685">
        <ele>179.154</ele>
        <time>2010-02-06T22:32:28Z</time>
      </trkpt>
      <trkpt lat="47.581505980342627" lon="18.943065963685513">
        <ele>178.69300000000001</ele>
        <time>2010-02-06T22:32:30Z</time>
      </trkpt>
      <trkpt lat="47.581510003656149" lon="18.94299496896565">
        <ele>179.18700000000001</ele>
        <time>2010-02-06T22:32:33Z</time>
      </trkpt>
      <trkpt lat="47.581504974514246" lon="18.942946018651128">
        <ele>179.30799999999999</ele>
        <time>2010-02-06T22:32:35Z</time>
      </trkpt>
      <trkpt lat="47.581493994221091" lon="18.942897990345955">
        <ele>180.08500000000001</ele>
        <time>2010-02-06T22:32:37Z</time>
      </trkpt>
      <trkpt lat="47.581481002271175" lon="18.942829007282853">
        <ele>180.91</ele>
        <time>2010-02-06T22:32:40Z</time>
      </trkpt>
      <trkpt lat="47.581452000886202" lon="18.94277703948319">
        <ele>181.20699999999999</ele>
        <time>2010-02-06T22:32:43Z</time>
      </trkpt>
      <trkpt lat="47.581402966752648" lon="18.942721970379353">
        <ele>180.56899999999999</ele>
        <time>2010-02-06T22:32:46Z</time>
      </trkpt>
      <trkpt lat="47.581374971196055" lon="18.942663967609406">
        <ele>180.453</ele>
        <time>2010-02-06T22:32:49Z</time>
      </trkpt>
      <trkpt lat="47.581354016438127" lon="18.942620968446136">
        <ele>181.07400000000001</ele>
        <time>2010-02-06T22:32:51Z</time>
      </trkpt>
      <trkpt lat="47.581330966204405" lon="18.942577969282866">
        <ele>181.30099999999999</ele>
        <time>2010-02-06T22:32:53Z</time>
      </trkpt>
      <trkpt lat="47.581290984526277" lon="18.942512003704906">
        <ele>181.727</ele>
        <time>2010-02-06T22:32:56Z</time>
      </trkpt>
      <trkpt lat="47.581274975091219" lon="18.942464981228113">
        <ele>181.369</ele>
        <time>2010-02-06T22:32:58Z</time>
      </trkpt>
      <trkpt lat="47.581257037818432" lon="18.942427011206746">
        <ele>181.63</ele>
        <time>2010-02-06T22:33:00Z</time>
      </trkpt>
      <trkpt lat="47.581230970099568" lon="18.942382000386715">
        <ele>181.58699999999999</ele>
        <time>2010-02-06T22:33:03Z</time>
      </trkpt>
      <trkpt lat="47.581200040876865" lon="18.942342018708587">
        <ele>181.69300000000001</ele>
        <time>2010-02-06T22:33:05Z</time>
      </trkpt>
      <trkpt lat="47.581175984814763" lon="18.942311005666852">
        <ele>181.547</ele>
        <time>2010-02-06T22:33:07Z</time>
      </trkpt>
      <trkpt lat="47.581175984814763" lon="18.942257026210427">
        <ele>181.517</ele>
        <time>2010-02-06T22:33:10Z</time>
      </trkpt>
      <trkpt lat="47.581172967329621" lon="18.942200029268861">
        <ele>183.10900000000001</ele>
        <time>2010-02-06T22:33:13Z</time>
      </trkpt>
      <trkpt lat="47.581153018400073" lon="18.942144038155675">
        <ele>182.58000000000001</ele>
        <time>2010-02-06T22:33:16Z</time>
      </trkpt>
      <trkpt lat="47.581154024228454" lon="18.942071031779051">
        <ele>183.13</ele>
        <time>2010-02-06T22:33:19Z</time>
      </trkpt>
      <trkpt lat="47.581134997308254" lon="18.942004982382059">
        <ele>182.69499999999999</ele>
        <time>2010-02-06T22:33:22Z</time>
      </trkpt>
      <trkpt lat="47.581098033115268" lon="18.94194102846086">
        <ele>183.37799999999999</ele>
        <time>2010-02-06T22:33:25Z</time>
      </trkpt>
      <trkpt lat="47.581046987324953" lon="18.94189802929759">
        <ele>182.834</ele>
        <time>2010-02-06T22:33:28Z</time>
      </trkpt>
      <trkpt lat="47.581023015081882" lon="18.941838014870882">
        <ele>183.81899999999999</ele>
        <time>2010-02-06T22:33:32Z</time>
      </trkpt>
      <trkpt lat="47.580997031182051" lon="18.941787974908948">
        <ele>184.93199999999999</ele>
        <time>2010-02-06T22:33:35Z</time>
      </trkpt>
      <trkpt lat="47.580957971513271" lon="18.94172896631062">
        <ele>185.80199999999999</ele>
        <time>2010-02-06T22:33:39Z</time>
      </trkpt>
      <trkpt lat="47.580930981785059" lon="18.941684039309621">
        <ele>186.22200000000001</ele>
        <time>2010-02-06T22:33:42Z</time>
      </trkpt>
      <trkpt lat="47.580915978178382" lon="18.941612960770726">
        <ele>186.49600000000001</ele>
        <time>2010-02-06T22:33:47Z</time>
      </trkpt>
      <trkpt lat="47.580881025642157" lon="18.941541966050863">
        <ele>186.04599999999999</ele>
        <time>2010-02-06T22:33:50Z</time>
      </trkpt>
      <trkpt lat="47.580868033692241" lon="18.941497039049864">
        <ele>185.99000000000001</ele>
        <time>2010-02-06T22:33:52Z</time>
      </trkpt>
      <trkpt lat="47.580853030085564" lon="18.941455967724323">
        <ele>186.11199999999999</ele>
        <time>2010-02-06T22:33:54Z</time>
      </trkpt>
      <trkpt lat="47.580816987901926" lon="18.941409029066563">
        <ele>186.72300000000001</ele>
        <time>2010-02-06T22:33:57Z</time>
      </trkpt>
      <trkpt lat="47.580776000395417" lon="18.941366029903293">
        <ele>186.70500000000001</ele>
        <time>2010-02-06T22:33:59Z</time>
      </trkpt>
      <trkpt lat="47.580719003453851" lon="18.941316995769739">
        <ele>186.27500000000001</ele>
        <time>2010-02-06T22:34:02Z</time>
      </trkpt>
      <trkpt lat="47.58069503121078" lon="18.941250024363399">
        <ele>187.227</ele>
        <time>2010-02-06T22:34:06Z</time>
      </trkpt>
      <trkpt lat="47.580633005127311" lon="18.941186992451549">
        <ele>187.02199999999999</ele>
        <time>2010-02-06T22:34:11Z</time>
      </trkpt>
      <trkpt lat="47.580600986257195" lon="18.941152039915323">
        <ele>188.255</ele>
        <time>2010-02-06T22:34:14Z</time>
      </trkpt>
      <trkpt lat="47.580553041771054" lon="18.941111974418163">
        <ele>188.30600000000001</ele>
        <time>2010-02-06T22:34:17Z</time>
      </trkpt>
      <trkpt lat="47.5805230345577" lon="18.941032011061907">
        <ele>189.63300000000001</ele>
        <time>2010-02-06T22:34:21Z</time>
      </trkpt>
      <trkpt lat="47.580497972667217" lon="18.94097501412034">
        <ele>187.535</ele>
        <time>2010-02-06T22:34:23Z</time>
      </trkpt>
      <trkpt lat="47.58047902956605" lon="18.94091097638011">
        <ele>187.49600000000001</ele>
        <time>2010-02-06T22:34:25Z</time>
      </trkpt>
      <trkpt lat="47.580437958240509" lon="18.940849034115672">
        <ele>187.239</ele>
        <time>2010-02-06T22:34:28Z</time>
      </trkpt>
      <trkpt lat="47.580407029017806" lon="18.940805029124022">
        <ele>187.59999999999999</ele>
        <time>2010-02-06T22:34:31Z</time>
      </trkpt>
      <trkpt lat="47.580360006541014" lon="18.940754989162087">
        <ele>188.62100000000001</ele>
        <time>2010-02-06T22:34:34Z</time>
      </trkpt>
      <trkpt lat="47.580312984064221" lon="18.940708972513676">
        <ele>189.53200000000001</ele>
        <time>2010-02-06T22:34:37Z</time>
      </trkpt>
      <trkpt lat="47.580256992951035" lon="18.94067301414907">
        <ele>189.22399999999999</ele>
        <time>2010-02-06T22:34:39Z</time>
      </trkpt>
      <trkpt lat="47.580207036808133" lon="18.94063102081418">
        <ele>189.39500000000001</ele>
        <time>2010-02-06T22:34:42Z</time>
      </trkpt>
      <trkpt lat="47.580163031816483" lon="18.940597996115685">
        <ele>190.416</ele>
        <time>2010-02-06T22:34:45Z</time>
      </trkpt>
      <trkpt lat="47.580120032653213" lon="18.940565977245569">
        <ele>190.232</ele>
        <time>2010-02-06T22:34:48Z</time>
      </trkpt>
      <trkpt lat="47.580079967156053" lon="18.940530018880963">
        <ele>190.27699999999999</ele>
        <time>2010-02-06T22:34:50Z</time>
      </trkpt>
      <trkpt lat="47.580039985477924" lon="18.940496994182467">
        <ele>191.11799999999999</ele>
        <time>2010-02-06T22:34:53Z</time>
      </trkpt>
      <trkpt lat="47.579996986314654" lon="18.940419964492321">
        <ele>190.33699999999999</ele>
        <time>2010-02-06T22:34:58Z</time>
      </trkpt>
      <trkpt lat="47.579960022121668" lon="18.940328015014529">
        <ele>190.87200000000001</ele>
        <time>2010-02-06T22:35:04Z</time>
      </trkpt>
      <trkpt lat="47.57992297410965" lon="18.940280992537737">
        <ele>192.29599999999999</ele>
        <time>2010-02-06T22:35:08Z</time>
      </trkpt>
      <trkpt lat="47.579883998259902" lon="18.940231036394835">
        <ele>192.96299999999999</ele>
        <time>2010-02-06T22:35:13Z</time>
      </trkpt>
      <trkpt lat="47.579825995489955" lon="18.940190970897675">
        <ele>193.95400000000001</ele>
        <time>2010-02-06T22:35:16Z</time>
      </trkpt>
      <trkpt lat="47.579779978841543" lon="18.940170016139746">
        <ele>194.11000000000001</ele>
        <time>2010-02-06T22:35:18Z</time>
      </trkpt>
      <trkpt lat="47.579727005213499" lon="18.940130034461617">
        <ele>193.40199999999999</ele>
        <time>2010-02-06T22:35:21Z</time>
      </trkpt>
      <trkpt lat="47.579650981351733" lon="18.940054010599852">
        <ele>192.166</ele>
        <time>2010-02-06T22:35:25Z</time>
      </trkpt>
      <trkpt lat="47.579630026593804" lon="18.940015034750104">
        <ele>192.31200000000001</ele>
        <time>2010-02-06T22:35:27Z</time>
      </trkpt>
      <trkpt lat="47.579601025208831" lon="18.93996499478817">
        <ele>191.06</ele>
        <time>2010-02-06T22:35:29Z</time>
      </trkpt>
      <trkpt lat="47.579563977196813" lon="18.939906992018223">
        <ele>191.24799999999999</ele>
        <time>2010-02-06T22:35:31Z</time>
      </trkpt>
      <trkpt lat="47.579559031873941" lon="18.939839014783502">
        <ele>189.79900000000001</ele>
        <time>2010-02-06T22:35:34Z</time>
      </trkpt>
      <trkpt lat="47.579512009397149" lon="18.939791992306709">
        <ele>188.71899999999999</ele>
        <time>2010-02-06T22:35:36Z</time>
      </trkpt>
      <trkpt lat="47.57944998331368" lon="18.939742036163807">
        <ele>187.804</ele>
        <time>2010-02-06T22:35:38Z</time>
      </trkpt>
      <trkpt lat="47.579397009685636" lon="18.939694007858634">
        <ele>187.30699999999999</ele>
        <time>2010-02-06T22:35:40Z</time>
      </trkpt>
      <trkpt lat="47.579349987208843" lon="18.939680010080338">
        <ele>186.53200000000001</ele>
        <time>2010-02-06T22:35:42Z</time>
      </trkpt>
      <trkpt lat="47.5792779866606" lon="18.939655032008886">
        <ele>186.83699999999999</ele>
        <time>2010-02-06T22:35:44Z</time>
      </trkpt>
      <trkpt lat="47.579217972233891" lon="18.93964204005897">
        <ele>186.976</ele>
        <time>2010-02-06T22:35:46Z</time>
      </trkpt>
      <trkpt lat="47.579159969463944" lon="18.93964204005897">
        <ele>186.53399999999999</ele>
        <time>2010-02-06T22:35:48Z</time>
      </trkpt>
      <trkpt lat="47.579091992229223" lon="18.93964204005897">
        <ele>186.36799999999999</ele>
        <time>2010-02-06T22:35:51Z</time>
      </trkpt>
      <trkpt lat="47.579022003337741" lon="18.9396439678967">
        <ele>187.17500000000001</ele>
        <time>2010-02-06T22:35:54Z</time>
      </trkpt>
      <trkpt lat="47.578991996124387" lon="18.939648997038603">
        <ele>187.56</ele>
        <time>2010-02-06T22:35:57Z</time>
      </trkpt>
      <trkpt lat="47.57895695976913" lon="18.939648997038603">
        <ele>187.51400000000001</ele>
        <time>2010-02-06T22:35:59Z</time>
      </trkpt>
      <trkpt lat="47.578917983919382" lon="18.939646985381842">
        <ele>188.26900000000001</ele>
        <time>2010-02-06T22:36:02Z</time>
      </trkpt>
      <trkpt lat="47.578858975321054" lon="18.939588982611895">
        <ele>187.63999999999999</ele>
        <time>2010-02-06T22:36:07Z</time>
      </trkpt>
      <trkpt lat="47.578812036663294" lon="18.939526034519076">
        <ele>189.90100000000001</ele>
        <time>2010-02-06T22:36:11Z</time>
      </trkpt>
      <trkpt lat="47.57878303527832" lon="18.939490998163819">
        <ele>190.13800000000001</ele>
        <time>2010-02-06T22:36:14Z</time>
      </trkpt>
      <trkpt lat="47.578755961731076" lon="18.939463002607226">
        <ele>189.93799999999999</ele>
        <time>2010-02-06T22:36:17Z</time>
      </trkpt>
      <trkpt lat="47.578714974224567" lon="18.939412040635943">
        <ele>190.53200000000001</ele>
        <time>2010-02-06T22:36:20Z</time>
      </trkpt>
      <trkpt lat="47.578669041395187" lon="18.939374992623925">
        <ele>190.755</ele>
        <time>2010-02-06T22:36:23Z</time>
      </trkpt>
      <trkpt lat="47.578623024746776" lon="18.939372980967164">
        <ele>191.62200000000001</ele>
        <time>2010-02-06T22:36:26Z</time>
      </trkpt>
      <trkpt lat="47.578597040846944" lon="18.93936401233077">
        <ele>190.96100000000001</ele>
        <time>2010-02-06T22:36:28Z</time>
      </trkpt>
      <trkpt lat="47.578550018370152" lon="18.939339034259319">
        <ele>191.01599999999999</ele>
        <time>2010-02-06T22:36:31Z</time>
      </trkpt>
      <trkpt lat="47.578496960923076" lon="18.939344985410571">
        <ele>190.97</ele>
        <time>2010-02-06T22:36:34Z</time>
      </trkpt>
      <trkpt lat="47.57846200838685" lon="18.939343979582191">
        <ele>191.66999999999999</ele>
        <time>2010-02-06T22:36:36Z</time>
      </trkpt>
      <trkpt lat="47.578426972031593" lon="18.9393400400877">
        <ele>191.821</ele>
        <time>2010-02-06T22:36:38Z</time>
      </trkpt>
      <trkpt lat="47.578390007838607" lon="18.939366023987532">
        <ele>191.91499999999999</ele>
        <time>2010-02-06T22:36:40Z</time>
      </trkpt>
      <trkpt lat="47.578356983140111" lon="18.939386978745461">
        <ele>192.64599999999999</ele>
        <time>2010-02-06T22:36:43Z</time>
      </trkpt>
      <trkpt lat="47.578300992026925" lon="18.939402988180518">
        <ele>193.71000000000001</ele>
        <time>2010-02-06T22:36:46Z</time>
      </trkpt>
      <trkpt lat="47.578280037268996" lon="18.939420003443956">
        <ele>193.37799999999999</ele>
        <time>2010-02-06T22:36:48Z</time>
      </trkpt>
      <trkpt lat="47.578249024227262" lon="18.93942897208035">
        <ele>193.97300000000001</ele>
        <time>2010-02-06T22:36:50Z</time>
      </trkpt>
      <trkpt lat="47.578205019235611" lon="18.939420003443956">
        <ele>194.22800000000001</ele>
        <time>2010-02-06T22:36:53Z</time>
      </trkpt>
      <trkpt lat="47.578143998980522" lon="18.939379015937448">
        <ele>193.36099999999999</ele>
        <time>2010-02-06T22:36:56Z</time>
      </trkpt>
      <trkpt lat="47.57811700925231" lon="18.939328975975513">
        <ele>193.328</ele>
        <time>2010-02-06T22:36:58Z</time>
      </trkpt>
      <trkpt lat="47.578087002038956" lon="18.93927700817585">
        <ele>193.17400000000001</ele>
        <time>2010-02-06T22:37:00Z</time>
      </trkpt>
      <trkpt lat="47.578045008704066" lon="18.939221017062664">
        <ele>193.31200000000001</ele>
        <time>2010-02-06T22:37:03Z</time>
      </trkpt>
      <trkpt lat="47.577963033691049" lon="18.939138958230615">
        <ele>192.822</ele>
        <time>2010-02-06T22:37:09Z</time>
      </trkpt>
      <trkpt lat="47.577890027314425" lon="18.939112974330783">
        <ele>193.00399999999999</ele>
        <time>2010-02-06T22:37:13Z</time>
      </trkpt>
      <trkpt lat="47.577825989574194" lon="18.939126972109079">
        <ele>193.096</ele>
        <time>2010-02-06T22:37:16Z</time>
      </trkpt>
      <trkpt lat="47.577790031209588" lon="18.939144993200898">
        <ele>193.006</ele>
        <time>2010-02-06T22:37:18Z</time>
      </trkpt>
      <trkpt lat="47.577734962105751" lon="18.939129989594221">
        <ele>193.119</ele>
        <time>2010-02-06T22:37:21Z</time>
      </trkpt>
      <trkpt lat="47.577690035104752" lon="18.939099982380867">
        <ele>193.131</ele>
        <time>2010-02-06T22:37:23Z</time>
      </trkpt>
      <trkpt lat="47.577637983486056" lon="18.939090007916093">
        <ele>194.00800000000001</ele>
        <time>2010-02-06T22:37:26Z</time>
      </trkpt>
      <trkpt lat="47.57760202512145" lon="18.939092019572854">
        <ele>194.46100000000001</ele>
        <time>2010-02-06T22:37:28Z</time>
      </trkpt>
      <trkpt lat="47.577566988766193" lon="18.939104005694389">
        <ele>194.208</ele>
        <time>2010-02-06T22:37:31Z</time>
      </trkpt>
      <trkpt lat="47.577510997653008" lon="18.939066035673022">
        <ele>194.36000000000001</ele>
        <time>2010-02-06T22:37:35Z</time>
      </trkpt>
      <trkpt lat="47.57747202180326" lon="18.939049020409584">
        <ele>194.32499999999999</ele>
        <time>2010-02-06T22:37:38Z</time>
      </trkpt>
      <trkpt lat="47.577418964356184" lon="18.938980959355831">
        <ele>194.46199999999999</ele>
        <time>2010-02-06T22:37:44Z</time>
      </trkpt>
      <trkpt lat="47.577318968251348" lon="18.938909964635968">
        <ele>194.453</ele>
        <time>2010-02-06T22:37:51Z</time>
      </trkpt>
      <trkpt lat="47.577261971309781" lon="18.93891298212111">
        <ele>194.892</ele>
        <time>2010-02-06T22:37:57Z</time>
      </trkpt>
      <trkpt lat="47.577208997681737" lon="18.938885992392898">
        <ele>195.39099999999999</ele>
        <time>2010-02-06T22:38:01Z</time>
      </trkpt>
      <trkpt lat="47.577162981033325" lon="18.938882974907756">
        <ele>194.97999999999999</ele>
        <time>2010-02-06T22:38:04Z</time>
      </trkpt>
      <trkpt lat="47.577112019062042" lon="18.938880963250995">
        <ele>196.005</ele>
        <time>2010-02-06T22:38:07Z</time>
      </trkpt>
      <trkpt lat="47.577058039605618" lon="18.938867971301079">
        <ele>196.773</ele>
        <time>2010-02-06T22:38:10Z</time>
      </trkpt>
      <trkpt lat="47.577015962451696" lon="18.938857996836305">
        <ele>196.851</ele>
        <time>2010-02-06T22:38:13Z</time>
      </trkpt>
      <trkpt lat="47.576971035450697" lon="18.938837964087725">
        <ele>197.583</ele>
        <time>2010-02-06T22:38:16Z</time>
      </trkpt>
      <trkpt lat="47.576920995488763" lon="18.938809968531132">
        <ele>198.68299999999999</ele>
        <time>2010-02-06T22:38:19Z</time>
      </trkpt>
      <trkpt lat="47.576873973011971" lon="18.938793037086725">
        <ele>200.648</ele>
        <time>2010-02-06T22:38:23Z</time>
      </trkpt>
      <trkpt lat="47.576828962191939" lon="18.938793959096074">
        <ele>202.131</ele>
        <time>2010-02-06T22:38:26Z</time>
      </trkpt>
      <trkpt lat="47.576798032969236" lon="18.938816003501415">
        <ele>202.09100000000001</ele>
        <time>2010-02-06T22:38:28Z</time>
      </trkpt>
      <trkpt lat="47.576754027977586" lon="18.938805023208261">
        <ele>202.03999999999999</ele>
        <time>2010-02-06T22:38:31Z</time>
      </trkpt>
      <trkpt lat="47.576717985793948" lon="18.938781972974539">
        <ele>203.05600000000001</ele>
        <time>2010-02-06T22:38:34Z</time>
      </trkpt>
      <trkpt lat="47.57667800411582" lon="18.938762024044991">
        <ele>202.86600000000001</ele>
        <time>2010-02-06T22:38:37Z</time>
      </trkpt>
      <trkpt lat="47.576632993295789" lon="18.938733022660017">
        <ele>202.66</ele>
        <time>2010-02-06T22:38:40Z</time>
      </trkpt>
      <trkpt lat="47.57661203853786" lon="18.938696980476379">
        <ele>203.46000000000001</ele>
        <time>2010-02-06T22:38:43Z</time>
      </trkpt>
      <trkpt lat="47.576577002182603" lon="18.938663033768535">
        <ele>203.755</ele>
        <time>2010-02-06T22:38:46Z</time>
      </trkpt>
      <trkpt lat="47.576542971655726" lon="18.938633026555181">
        <ele>203.489</ele>
        <time>2010-02-06T22:38:52Z</time>
      </trkpt>
      <trkpt lat="47.576511036604643" lon="18.938610982149839">
        <ele>203.65700000000001</ele>
        <time>2010-02-06T22:38:55Z</time>
      </trkpt>
      <trkpt lat="47.576468959450722" lon="18.938594972714782">
        <ele>203.53399999999999</ele>
        <time>2010-02-06T22:38:58Z</time>
      </trkpt>
      <trkpt lat="47.57644297555089" lon="18.938591033220291">
        <ele>203.751</ele>
        <time>2010-02-06T22:39:00Z</time>
      </trkpt>
      <trkpt lat="47.576412968337536" lon="18.938596984371543">
        <ele>203.38300000000001</ele>
        <time>2010-02-06T22:39:02Z</time>
      </trkpt>
      <trkpt lat="47.576370975002646" lon="18.938618022948503">
        <ele>203.45500000000001</ele>
        <time>2010-02-06T22:39:05Z</time>
      </trkpt>
      <trkpt lat="47.576329987496138" lon="18.938644006848335">
        <ele>203.70400000000001</ele>
        <time>2010-02-06T22:39:08Z</time>
      </trkpt>
      <trkpt lat="47.576290005818009" lon="18.938659010455012">
        <ele>203.91300000000001</ele>
        <time>2010-02-06T22:39:11Z</time>
      </trkpt>
      <trkpt lat="47.576246000826359" lon="18.938681976869702">
        <ele>203.773</ele>
        <time>2010-02-06T22:39:14Z</time>
      </trkpt>
      <trkpt lat="47.576214987784624" lon="18.938698992133141">
        <ele>203.77199999999999</ele>
        <time>2010-02-06T22:39:16Z</time>
      </trkpt>
      <trkpt lat="47.576185986399651" lon="18.938725981861353">
        <ele>203.316</ele>
        <time>2010-02-06T22:39:19Z</time>
      </trkpt>
      <trkpt lat="47.576151033863425" lon="18.938758000731468">
        <ele>204.21100000000001</ele>
        <time>2010-02-06T22:39:22Z</time>
      </trkpt>
      <trkpt lat="47.576113985851407" lon="18.9387839846313">
        <ele>203.66800000000001</ele>
        <time>2010-02-06T22:39:25Z</time>
      </trkpt>
      <trkpt lat="47.576078027486801" lon="18.938811980187893">
        <ele>204.13999999999999</ele>
        <time>2010-02-06T22:39:28Z</time>
      </trkpt>
      <trkpt lat="47.576046008616686" lon="18.938840981572866">
        <ele>204.11699999999999</ele>
        <time>2010-02-06T22:39:31Z</time>
      </trkpt>
      <trkpt lat="47.57601298391819" lon="18.938863025978208">
        <ele>203.74100000000001</ele>
        <time>2010-02-06T22:39:34Z</time>
      </trkpt>
      <trkpt lat="47.575979959219694" lon="18.938889009878039">
        <ele>203.64400000000001</ele>
        <time>2010-02-06T22:39:37Z</time>
      </trkpt>
      <trkpt lat="47.575944000855088" lon="18.938909964635968">
        <ele>203.739</ele>
        <time>2010-02-06T22:39:40Z</time>
      </trkpt>
      <trkpt lat="47.575913993641734" lon="18.938935026526451">
        <ele>203.46199999999999</ele>
        <time>2010-02-06T22:39:43Z</time>
      </trkpt>
      <trkpt lat="47.575888009741902" lon="18.938963022083044">
        <ele>203.90600000000001</ele>
        <time>2010-02-06T22:39:46Z</time>
      </trkpt>
      <trkpt lat="47.575855990871787" lon="18.938995962962508">
        <ele>203.78399999999999</ele>
        <time>2010-02-06T22:39:49Z</time>
      </trkpt>
      <trkpt lat="47.575822966173291" lon="18.939023036509752">
        <ele>203.803</ele>
        <time>2010-02-06T22:39:52Z</time>
      </trkpt>
      <trkpt lat="47.57579798810184" lon="18.939063018187881">
        <ele>204.09299999999999</ele>
        <time>2010-02-06T22:39:56Z</time>
      </trkpt>
      <trkpt lat="47.575773010030389" lon="18.93908497877419">
        <ele>203.78899999999999</ele>
        <time>2010-02-06T22:39:59Z</time>
      </trkpt>
      <trkpt lat="47.575743002817035" lon="18.939121020957828">
        <ele>203.72999999999999</ele>
        <time>2010-02-06T22:40:03Z</time>
      </trkpt>
      <trkpt lat="47.575712995603681" lon="18.939184974879026">
        <ele>203.512</ele>
        <time>2010-02-06T22:40:15Z</time>
      </trkpt>
      <trkpt lat="47.575687011703849" lon="18.939216993749142">
        <ele>203.63900000000001</ele>
        <time>2010-02-06T22:40:18Z</time>
      </trkpt>
      <trkpt lat="47.575659016147256" lon="18.939240965992212">
        <ele>203.55699999999999</ele>
        <time>2010-02-06T22:40:30Z</time>
      </trkpt>
      <trkpt lat="47.575701009482145" lon="18.939287988469005">
        <ele>204.36500000000001</ele>
        <time>2010-02-06T22:41:16Z</time>
      </trkpt>
      <trkpt lat="47.575654992833734" lon="18.9393210131675">
        <ele>204.328</ele>
        <time>2010-02-06T22:41:22Z</time>
      </trkpt>
      <trkpt lat="47.575611993670464" lon="18.939353032037616">
        <ele>203.577</ele>
        <time>2010-02-06T22:41:26Z</time>
      </trkpt>
      <trkpt lat="47.575572011992335" lon="18.939384967088699">
        <ele>203.78299999999999</ele>
        <time>2010-02-06T22:41:30Z</time>
      </trkpt>
      <trkpt lat="47.575548039749265" lon="18.939431989565492">
        <ele>204.10300000000001</ele>
        <time>2010-02-06T22:41:34Z</time>
      </trkpt>
      <trkpt lat="47.575544016435742" lon="18.939496027305722">
        <ele>204.583</ele>
        <time>2010-02-06T22:41:39Z</time>
      </trkpt>
      <trkpt lat="47.575528007000685" lon="18.939539026468992">
        <ele>203.85300000000001</ele>
        <time>2010-02-06T22:41:43Z</time>
      </trkpt>
      <trkpt lat="47.575499005615711" lon="18.939580013975501">
        <ele>204.26599999999999</ele>
        <time>2010-02-06T22:41:46Z</time>
      </trkpt>
      <trkpt lat="47.575490036979318" lon="18.939618989825249">
        <ele>203.47800000000001</ele>
        <time>2010-02-06T22:41:49Z</time>
      </trkpt>
      <trkpt lat="47.575462963432074" lon="18.93966400064528">
        <ele>203.93799999999999</ele>
        <time>2010-02-06T22:41:53Z</time>
      </trkpt>
      <trkpt lat="47.5754339620471" lon="18.939714962616563">
        <ele>204.149</ele>
        <time>2010-02-06T22:41:57Z</time>
      </trkpt>
      <trkpt lat="47.575442008674145" lon="18.939753016456962">
        <ele>204.78700000000001</ele>
        <time>2010-02-06T22:47:23Z</time>
      </trkpt>
      <trkpt lat="47.575437985360622" lon="18.939800038933754">
        <ele>204.988</ele>
        <time>2010-02-06T22:47:33Z</time>
      </trkpt>
      <trkpt lat="47.575416024774313" lon="18.939833985641599">
        <ele>205.071</ele>
        <time>2010-02-06T22:47:37Z</time>
      </trkpt>
      <trkpt lat="47.575389035046101" lon="18.939867010340095">
        <ele>204.858</ele>
        <time>2010-02-06T22:47:40Z</time>
      </trkpt>
      <trkpt lat="47.575364978983998" lon="18.939901040866971">
        <ele>205.84899999999999</ele>
        <time>2010-02-06T22:47:43Z</time>
      </trkpt>
      <trkpt lat="47.575358022004366" lon="18.93994202837348">
        <ele>205.26900000000001</ele>
        <time>2010-02-06T22:47:47Z</time>
      </trkpt>
      <trkpt lat="47.575360033661127" lon="18.939984021708369">
        <ele>205.041</ele>
        <time>2010-02-06T22:47:51Z</time>
      </trkpt>
      <trkpt lat="47.575319968163967" lon="18.940018974244595">
        <ele>205.04400000000001</ele>
        <time>2010-02-06T22:47:55Z</time>
      </trkpt>
      <trkpt lat="47.575284009799361" lon="18.940062979236245">
        <ele>205.215</ele>
        <time>2010-02-06T22:48:00Z</time>
      </trkpt>
      <trkpt lat="47.575256014242768" lon="18.940097009763122">
        <ele>206.38900000000001</ele>
        <time>2010-02-06T22:48:03Z</time>
      </trkpt>
      <trkpt lat="47.575228018686175" lon="18.940132968127728">
        <ele>206.035</ele>
        <time>2010-02-06T22:48:07Z</time>
      </trkpt>
      <trkpt lat="47.575209997594357" lon="18.940169010311365">
        <ele>206.97999999999999</ele>
        <time>2010-02-06T22:48:11Z</time>
      </trkpt>
      <trkpt lat="47.575188037008047" lon="18.940209997817874">
        <ele>206.59800000000001</ele>
        <time>2010-02-06T22:48:16Z</time>
      </trkpt>
      <trkpt lat="47.575172027572989" lon="18.94024696201086">
        <ele>208.60599999999999</ele>
        <time>2010-02-06T22:48:26Z</time>
      </trkpt>
      <trkpt lat="47.575136991217732" lon="18.940254002809525">
        <ele>209.09</ele>
        <time>2010-02-06T22:48:30Z</time>
      </trkpt>
      <trkpt lat="47.575097009539604" lon="18.940257020294666">
        <ele>209.435</ele>
        <time>2010-02-06T22:48:36Z</time>
      </trkpt>
      <trkpt lat="47.575062979012728" lon="18.94026598893106">
        <ele>209.63900000000001</ele>
        <time>2010-02-06T22:48:41Z</time>
      </trkpt>
      <trkpt lat="47.575031965970993" lon="18.94024302251637">
        <ele>209.51300000000001</ele>
        <time>2010-02-06T22:48:47Z</time>
      </trkpt>
      <trkpt lat="47.574996007606387" lon="18.940205974504352">
        <ele>210.001</ele>
        <time>2010-02-06T22:48:52Z</time>
      </trkpt>
      <trkpt lat="47.574972035363317" lon="18.940174039453268">
        <ele>211.74700000000001</ele>
        <time>2010-02-06T22:48:57Z</time>
      </trkpt>
      <trkpt lat="47.574941022321582" lon="18.940144032239914">
        <ele>212.084</ele>
        <time>2010-02-06T22:49:02Z</time>
      </trkpt>
      <trkpt lat="47.57489500567317" lon="18.940099021419883">
        <ele>213.714</ele>
        <time>2010-02-06T22:49:10Z</time>
      </trkpt>
      <trkpt lat="47.574877990409732" lon="18.940059039741755">
        <ele>214.10900000000001</ele>
        <time>2010-02-06T22:49:14Z</time>
      </trkpt>
      <trkpt lat="47.574861980974674" lon="18.940010005608201">
        <ele>214.02199999999999</ele>
        <time>2010-02-06T22:49:18Z</time>
      </trkpt>
      <trkpt lat="47.574847983196378" lon="18.939961977303028">
        <ele>214.577</ele>
        <time>2010-02-06T22:49:21Z</time>
      </trkpt>
      <trkpt lat="47.574821999296546" lon="18.9399219956249">
        <ele>214.042</ele>
        <time>2010-02-06T22:49:24Z</time>
      </trkpt>
      <trkpt lat="47.574798027053475" lon="18.939883019775152">
        <ele>214.29499999999999</ele>
        <time>2010-02-06T22:49:27Z</time>
      </trkpt>
      <trkpt lat="47.574771037325263" lon="18.939839014783502">
        <ele>214.12100000000001</ele>
        <time>2010-02-06T22:49:30Z</time>
      </trkpt>
      <trkpt lat="47.57474304176867" lon="18.93979299813509">
        <ele>214.261</ele>
        <time>2010-02-06T22:49:33Z</time>
      </trkpt>
      <trkpt lat="47.574726026505232" lon="18.939755028113723">
        <ele>213.69800000000001</ele>
        <time>2010-02-06T22:49:36Z</time>
      </trkpt>
      <trkpt lat="47.574717979878187" lon="18.939688978716731">
        <ele>213.58500000000001</ele>
        <time>2010-02-06T22:49:40Z</time>
      </trkpt>
      <trkpt lat="47.57470297627151" lon="18.939630975946784">
        <ele>213.363</ele>
        <time>2010-02-06T22:49:43Z</time>
      </trkpt>
      <trkpt lat="47.574670035392046" lon="18.939588982611895">
        <ele>212.291</ele>
        <time>2010-02-06T22:49:46Z</time>
      </trkpt>
      <trkpt lat="47.574642961844802" lon="18.939567022025585">
        <ele>212.404</ele>
        <time>2010-02-06T22:49:49Z</time>
      </trkpt>
      <trkpt lat="47.574627036228776" lon="18.939550006762147">
        <ele>210.97399999999999</ele>
        <time>2010-02-06T22:49:53Z</time>
      </trkpt>
      <trkpt lat="47.57461697794497" lon="18.939487980678678">
        <ele>210.959</ele>
        <time>2010-02-06T22:49:56Z</time>
      </trkpt>
      <trkpt lat="47.574604991823435" lon="18.939415980130434">
        <ele>210.06999999999999</ele>
        <time>2010-02-06T22:49:59Z</time>
      </trkpt>
      <trkpt lat="47.574583031237125" lon="18.939368035644293">
        <ele>210.29599999999999</ele>
        <time>2010-02-06T22:50:02Z</time>
      </trkpt>
      <trkpt lat="47.574564004316926" lon="18.939330987632275">
        <ele>211.44499999999999</ele>
        <time>2010-02-06T22:50:06Z</time>
      </trkpt>
      <trkpt lat="47.574539026245475" lon="18.939306009560823">
        <ele>211.23599999999999</ele>
        <time>2010-02-06T22:50:09Z</time>
      </trkpt>
      <trkpt lat="47.574514970183372" lon="18.939283965155482">
        <ele>211.047</ele>
        <time>2010-02-06T22:50:13Z</time>
      </trkpt>
      <trkpt lat="47.574495021253824" lon="18.939255969598889">
        <ele>210.81999999999999</ele>
        <time>2010-02-06T22:50:16Z</time>
      </trkpt>
      <trkpt lat="47.574453027918935" lon="18.93923400901258">
        <ele>211.608</ele>
        <time>2010-02-06T22:50:19Z</time>
      </trkpt>
      <trkpt lat="47.574412962421775" lon="18.939206013455987">
        <ele>211.10400000000001</ele>
        <time>2010-02-06T22:50:23Z</time>
      </trkpt>
      <trkpt lat="47.574383039027452" lon="18.93917097710073">
        <ele>211.517</ele>
        <time>2010-02-06T22:50:28Z</time>
      </trkpt>
      <trkpt lat="47.574345991015434" lon="18.939147004857659">
        <ele>211.404</ele>
        <time>2010-02-06T22:50:32Z</time>
      </trkpt>
      <trkpt lat="47.57431598380208" lon="18.939122026786208">
        <ele>211.48699999999999</ele>
        <time>2010-02-06T22:50:36Z</time>
      </trkpt>
      <trkpt lat="47.57427197881043" lon="18.939096964895725">
        <ele>212.02699999999999</ele>
        <time>2010-02-06T22:50:40Z</time>
      </trkpt>
      <trkpt lat="47.574239959940314" lon="18.939096964895725">
        <ele>212.107</ele>
        <time>2010-02-06T22:50:44Z</time>
      </trkpt>
      <trkpt lat="47.574205007404089" lon="18.939094031229615">
        <ele>212.28100000000001</ele>
        <time>2010-02-06T22:50:48Z</time>
      </trkpt>
      <trkpt lat="47.574179023504257" lon="18.939069975167513">
        <ele>213.17099999999999</ele>
        <time>2010-02-06T22:50:52Z</time>
      </trkpt>
      <trkpt lat="47.574129989370704" lon="18.939049020409584">
        <ele>213.57599999999999</ele>
        <time>2010-02-06T22:50:56Z</time>
      </trkpt>
      <trkpt lat="47.574092019349337" lon="18.93904197961092">
        <ele>213.24799999999999</ele>
        <time>2010-02-06T22:50:59Z</time>
      </trkpt>
      <trkpt lat="47.574058994650841" lon="18.939028987661004">
        <ele>213.18600000000001</ele>
        <time>2010-02-06T22:51:02Z</time>
      </trkpt>
      <trkpt lat="47.574025969952345" lon="18.939013984054327">
        <ele>214.245</ele>
        <time>2010-02-06T22:51:08Z</time>
      </trkpt>
      <trkpt lat="47.573993029072881" lon="18.939004009589553">
        <ele>214.95699999999999</ele>
        <time>2010-02-06T22:51:12Z</time>
      </trkpt>
      <trkpt lat="47.573952041566372" lon="18.939000992104411">
        <ele>215.39599999999999</ele>
        <time>2010-02-06T22:51:15Z</time>
      </trkpt>
      <trkpt lat="47.573915999382734" lon="18.938994035124779">
        <ele>216.25999999999999</ele>
        <time>2010-02-06T22:51:18Z</time>
      </trkpt>
      <trkpt lat="47.573880963027477" lon="18.938984982669353">
        <ele>216.489</ele>
        <time>2010-02-06T22:51:21Z</time>
      </trkpt>
      <trkpt lat="47.573847016319633" lon="18.938989005982876">
        <ele>217.19900000000001</ele>
        <time>2010-02-06T22:51:24Z</time>
      </trkpt>
      <trkpt lat="47.573808962479234" lon="18.938980959355831">
        <ele>218.15799999999999</ele>
        <time>2010-02-06T22:51:27Z</time>
      </trkpt>
      <trkpt lat="47.573775015771389" lon="18.938964027911425">
        <ele>218.63200000000001</ele>
        <time>2010-02-06T22:51:30Z</time>
      </trkpt>
      <trkpt lat="47.573742996901274" lon="18.938954975455999">
        <ele>218.52699999999999</ele>
        <time>2010-02-06T22:51:33Z</time>
      </trkpt>
      <trkpt lat="47.573708966374397" lon="18.938950030133128">
        <ele>219.029</ele>
        <time>2010-02-06T22:51:36Z</time>
      </trkpt>
      <trkpt lat="47.573684994131327" lon="18.938938966020942">
        <ele>218.40600000000001</ele>
        <time>2010-02-06T22:51:39Z</time>
      </trkpt>
      <trkpt lat="47.573659010231495" lon="18.938950030133128">
        <ele>218.94</ele>
        <time>2010-02-06T22:51:43Z</time>
      </trkpt>
      <trkpt lat="47.573615005239844" lon="18.938948018476367">
        <ele>218.69300000000001</ele>
        <time>2010-02-06T22:51:47Z</time>
      </trkpt>
      <trkpt lat="47.573568988591433" lon="18.938854979351163">
        <ele>218.86199999999999</ele>
        <time>2010-02-06T22:51:50Z</time>
      </trkpt>
      <trkpt lat="47.573523977771401" lon="18.938767975196242">
        <ele>219.01499999999999</ele>
        <time>2010-02-06T22:51:54Z</time>
      </trkpt>
      <trkpt lat="47.573491036891937" lon="18.938726987689734">
        <ele>219.292</ele>
        <time>2010-02-06T22:52:00Z</time>
      </trkpt>
      <trkpt lat="47.573449965566397" lon="18.938707038760185">
        <ele>220.23400000000001</ele>
        <time>2010-02-06T22:52:04Z</time>
      </trkpt>
      <trkpt lat="47.573419036343694" lon="18.938673008233309">
        <ele>219.59999999999999</ele>
        <time>2010-02-06T22:52:07Z</time>
      </trkpt>
      <trkpt lat="47.573377965018153" lon="18.938638977706432">
        <ele>219.36699999999999</ele>
        <time>2010-02-06T22:52:10Z</time>
      </trkpt>
      <trkpt lat="47.57334602996707" lon="18.938612993806601">
        <ele>219.857</ele>
        <time>2010-02-06T22:52:13Z</time>
      </trkpt>
      <trkpt lat="47.57330403663218" lon="18.938576029613614">
        <ele>219.767</ele>
        <time>2010-02-06T22:52:17Z</time>
      </trkpt>
      <trkpt lat="47.573276041075587" lon="18.93854602240026">
        <ele>219.53399999999999</ele>
        <time>2010-02-06T22:52:20Z</time>
      </trkpt>
      <trkpt lat="47.573255002498627" lon="18.938507968559861">
        <ele>221.178</ele>
        <time>2010-02-06T22:52:24Z</time>
      </trkpt>
      <trkpt lat="47.573230024427176" lon="18.938485002145171">
        <ele>220.53899999999999</ele>
        <time>2010-02-06T22:52:27Z</time>
      </trkpt>
      <trkpt lat="47.573199011385441" lon="18.938465975224972">
        <ele>221.119</ele>
        <time>2010-02-06T22:52:30Z</time>
      </trkpt>
      <trkpt lat="47.573181996122003" lon="18.938436973839998">
        <ele>221.75800000000001</ele>
        <time>2010-02-06T22:52:34Z</time>
      </trkpt>
      <trkpt lat="47.573146037757397" lon="18.938410989940166">
        <ele>221.06999999999999</ele>
        <time>2010-02-06T22:52:37Z</time>
      </trkpt>
      <trkpt lat="47.573100021108985" lon="18.938386011868715">
        <ele>222.22200000000001</ele>
        <time>2010-02-06T22:52:41Z</time>
      </trkpt>
      <trkpt lat="47.573060961440206" lon="18.938363967463374">
        <ele>222.32300000000001</ele>
        <time>2010-02-06T22:52:45Z</time>
      </trkpt>
      <trkpt lat="47.573014022782445" lon="18.938327003270388">
        <ele>222.339</ele>
        <time>2010-02-06T22:52:49Z</time>
      </trkpt>
      <trkpt lat="47.572965994477272" lon="18.938293978571892">
        <ele>222.69399999999999</ele>
        <time>2010-02-06T22:52:53Z</time>
      </trkpt>
      <trkpt lat="47.572920983657241" lon="18.938278974965215">
        <ele>223.06</ele>
        <time>2010-02-06T22:52:57Z</time>
      </trkpt>
      <trkpt lat="47.572886031121016" lon="18.938263971358538">
        <ele>223.64699999999999</ele>
        <time>2010-02-06T22:53:01Z</time>
      </trkpt>
      <trkpt lat="47.572848983108997" lon="18.938242010772228">
        <ele>223.90899999999999</ele>
        <time>2010-02-06T22:53:05Z</time>
      </trkpt>
      <trkpt lat="47.572817970067263" lon="18.938204040750861">
        <ele>223.33699999999999</ele>
        <time>2010-02-06T22:53:08Z</time>
      </trkpt>
      <trkpt lat="47.57278704084456" lon="18.938171016052365">
        <ele>223.45699999999999</ele>
        <time>2010-02-06T22:53:12Z</time>
      </trkpt>
      <trkpt lat="47.572755021974444" lon="18.938152994960546">
        <ele>224.083</ele>
        <time>2010-02-06T22:53:15Z</time>
      </trkpt>
      <trkpt lat="47.572716968134046" lon="18.938128016889095">
        <ele>224.44800000000001</ele>
        <time>2010-02-06T22:53:19Z</time>
      </trkpt>
      <trkpt lat="47.57268201559782" lon="18.938097003847361">
        <ele>224.38300000000001</ele>
        <time>2010-02-06T22:53:24Z</time>
      </trkpt>
      <trkpt lat="47.572648990899324" lon="18.938051993027329">
        <ele>224.357</ele>
        <time>2010-02-06T22:53:29Z</time>
      </trkpt>
      <trkpt lat="47.572626024484634" lon="18.938017962500453">
        <ele>224.31800000000001</ele>
        <time>2010-02-06T22:53:32Z</time>
      </trkpt>
      <trkpt lat="47.572582019492984" lon="18.937969012185931">
        <ele>223.74000000000001</ele>
        <time>2010-02-06T22:53:36Z</time>
      </trkpt>
      <trkpt lat="47.572563998401165" lon="18.937921989709139">
        <ele>224.63300000000001</ele>
        <time>2010-02-06T22:53:39Z</time>
      </trkpt>
      <trkpt lat="47.57255201227963" lon="18.937875973060727">
        <ele>224.83500000000001</ele>
        <time>2010-02-06T22:53:42Z</time>
      </trkpt>
      <trkpt lat="47.572557041421533" lon="18.937820987775922">
        <ele>224.22800000000001</ele>
        <time>2010-02-06T22:53:46Z</time>
      </trkpt>
      <trkpt lat="47.572573972865939" lon="18.937777988612652">
        <ele>225.56700000000001</ele>
        <time>2010-02-06T22:53:51Z</time>
      </trkpt>
      <trkpt lat="47.572590988129377" lon="18.937735995277762">
        <ele>226.21000000000001</ele>
        <time>2010-02-06T22:53:57Z</time>
      </trkpt>
      <trkpt lat="47.57259601727128" lon="18.937687966972589">
        <ele>227.13</ele>
        <time>2010-02-06T22:54:02Z</time>
      </trkpt>
      <trkpt lat="47.572601968422532" lon="18.937632981687784">
        <ele>227.459</ele>
        <time>2010-02-06T22:54:07Z</time>
      </trkpt>
      <trkpt lat="47.572585958987474" lon="18.937570033594966">
        <ele>228.001</ele>
        <time>2010-02-06T22:54:11Z</time>
      </trkpt>
      <trkpt lat="47.572570033371449" lon="18.937511024996638">
        <ele>228.77000000000001</ele>
        <time>2010-02-06T22:54:16Z</time>
      </trkpt>
      <trkpt lat="47.572585958987474" lon="18.937460985034704">
        <ele>228.506</ele>
        <time>2010-02-06T22:54:20Z</time>
      </trkpt>
      <trkpt lat="47.572608003392816" lon="18.937399964779615">
        <ele>228.85599999999999</ele>
        <time>2010-02-06T22:54:24Z</time>
      </trkpt>
      <trkpt lat="47.572631975635886" lon="18.937353026121855">
        <ele>229.12299999999999</ele>
        <time>2010-02-06T22:54:28Z</time>
      </trkpt>
      <trkpt lat="47.57266198284924" lon="18.937303991988301">
        <ele>229.239</ele>
        <time>2010-02-06T22:54:33Z</time>
      </trkpt>
      <trkpt lat="47.572684027254581" lon="18.937255963683128">
        <ele>229.82599999999999</ele>
        <time>2010-02-06T22:54:38Z</time>
      </trkpt>
      <trkpt lat="47.572700036689639" lon="18.937210030853748">
        <ele>230.67099999999999</ele>
        <time>2010-02-06T22:54:42Z</time>
      </trkpt>
      <trkpt lat="47.572714034467936" lon="18.937151022255421">
        <ele>230.88399999999999</ele>
        <time>2010-02-06T22:54:47Z</time>
      </trkpt>
      <trkpt lat="47.57272501476109" lon="18.937102993950248">
        <ele>230.91499999999999</ele>
        <time>2010-02-06T22:54:51Z</time>
      </trkpt>
      <trkpt lat="47.572744963690639" lon="18.937047002837062">
        <ele>232.41800000000001</ele>
        <time>2010-02-06T22:54:56Z</time>
      </trkpt>
      <trkpt lat="47.57274798117578" lon="18.936970978975296">
        <ele>231.89099999999999</ele>
        <time>2010-02-06T22:55:00Z</time>
      </trkpt>
      <trkpt lat="47.572758961468935" lon="18.936901995912194">
        <ele>234.09100000000001</ele>
        <time>2010-02-06T22:55:04Z</time>
      </trkpt>
      <trkpt lat="47.572735995054245" lon="18.936808034777641">
        <ele>235.31999999999999</ele>
        <time>2010-02-06T22:55:09Z</time>
      </trkpt>
      <trkpt lat="47.572739012539387" lon="18.936735028401017">
        <ele>236.065</ele>
        <time>2010-02-06T22:55:14Z</time>
      </trkpt>
      <trkpt lat="47.57274798117578" lon="18.936679037287831">
        <ele>236.244</ele>
        <time>2010-02-06T22:55:18Z</time>
      </trkpt>
      <trkpt lat="47.572750998660922" lon="18.936621034517884">
        <ele>237.18899999999999</ele>
        <time>2010-02-06T22:55:23Z</time>
      </trkpt>
      <trkpt lat="47.572771031409502" lon="18.93656998872757">
        <ele>238.48699999999999</ele>
        <time>2010-02-06T22:55:28Z</time>
      </trkpt>
      <trkpt lat="47.572817970067263" lon="18.936520032584667">
        <ele>238.60900000000001</ele>
        <time>2010-02-06T22:55:32Z</time>
      </trkpt>
      <trkpt lat="47.572848983108997" lon="18.936475021764636">
        <ele>239.41999999999999</ele>
        <time>2010-02-06T22:55:37Z</time>
      </trkpt>
      <trkpt lat="47.572874967008829" lon="18.936427999287844">
        <ele>238.88999999999999</ele>
        <time>2010-02-06T22:55:42Z</time>
      </trkpt>
      <trkpt lat="47.572887958958745" lon="18.936379970982671">
        <ele>240.44499999999999</ele>
        <time>2010-02-06T22:55:47Z</time>
      </trkpt>
      <trkpt lat="47.572902962565422" lon="18.93633202649653">
        <ele>240.73500000000001</ele>
        <time>2010-02-06T22:55:52Z</time>
      </trkpt>
      <trkpt lat="47.57291603833437" lon="18.936278969049454">
        <ele>242.91</ele>
        <time>2010-02-06T22:55:57Z</time>
      </trkpt>
      <trkpt lat="47.572932969778776" lon="18.936223983764648">
        <ele>243.334</ele>
        <time>2010-02-06T22:56:03Z</time>
      </trkpt>
      <trkpt lat="47.572974963113666" lon="18.936177967116237">
        <ele>244.565</ele>
        <time>2010-02-06T22:56:09Z</time>
      </trkpt>
      <trkpt lat="47.572994995862246" lon="18.936127005144954">
        <ele>244.79300000000001</ele>
        <time>2010-02-06T22:56:13Z</time>
      </trkpt>
      <trkpt lat="47.572989966720343" lon="18.936066990718246">
        <ele>245.28299999999999</ele>
        <time>2010-02-06T22:56:17Z</time>
      </trkpt>
      <trkpt lat="47.57300497032702" lon="18.936020974069834">
        <ele>245.56700000000001</ele>
        <time>2010-02-06T22:56:21Z</time>
      </trkpt>
      <trkpt lat="47.573028020560741" lon="18.935974035412073">
        <ele>245.66200000000001</ele>
        <time>2010-02-06T22:56:25Z</time>
      </trkpt>
      <trkpt lat="47.573054004460573" lon="18.935919972136617">
        <ele>246.46299999999999</ele>
        <time>2010-02-06T22:56:29Z</time>
      </trkpt>
      <trkpt lat="47.573063978925347" lon="18.935864986851811">
        <ele>246.83000000000001</ele>
        <time>2010-02-06T22:56:34Z</time>
      </trkpt>
      <trkpt lat="47.57308904081583" lon="18.935821987688541">
        <ele>248.02799999999999</ele>
        <time>2010-02-06T22:56:38Z</time>
      </trkpt>
      <trkpt lat="47.573114018887281" lon="18.935771025717258">
        <ele>248.63900000000001</ele>
        <time>2010-02-06T22:56:43Z</time>
      </trkpt>
      <trkpt lat="47.573129022493958" lon="18.935727020725608">
        <ele>249.02600000000001</ele>
        <time>2010-02-06T22:56:49Z</time>
      </trkpt>
      <trkpt lat="47.573136985301971" lon="18.935673963278532">
        <ele>250.50800000000001</ele>
        <time>2010-02-06T22:56:54Z</time>
      </trkpt>
      <trkpt lat="47.573173027485609" lon="18.935629958286881">
        <ele>251.059</ele>
        <time>2010-02-06T22:56:58Z</time>
      </trkpt>
      <trkpt lat="47.57317403331399" lon="18.935558963567019">
        <ele>252.63999999999999</ele>
        <time>2010-02-06T22:57:06Z</time>
      </trkpt>
      <trkpt lat="47.573189958930016" lon="18.935498027130961">
        <ele>253.5</ele>
        <time>2010-02-06T22:57:10Z</time>
      </trkpt>
      <trkpt lat="47.573200017213821" lon="18.935437006875873">
        <ele>254.292</ele>
        <time>2010-02-06T22:57:15Z</time>
      </trkpt>
      <trkpt lat="47.573226001113653" lon="18.935387972742319">
        <ele>254.70500000000001</ele>
        <time>2010-02-06T22:57:19Z</time>
      </trkpt>
      <trkpt lat="47.573255002498627" lon="18.935337010771036">
        <ele>255.00999999999999</ele>
        <time>2010-02-06T22:57:23Z</time>
      </trkpt>
      <trkpt lat="47.573273023590446" lon="18.935285964980721">
        <ele>255.971</ele>
        <time>2010-02-06T22:57:27Z</time>
      </trkpt>
      <trkpt lat="47.573291966691613" lon="18.935239026322961">
        <ele>256.66899999999998</ele>
        <time>2010-02-06T22:57:31Z</time>
      </trkpt>
      <trkpt lat="47.573315016925335" lon="18.935192003846169">
        <ele>256.399</ele>
        <time>2010-02-06T22:57:35Z</time>
      </trkpt>
      <trkpt lat="47.573332032188773" lon="18.935138024389744">
        <ele>257.19099999999997</ele>
        <time>2010-02-06T22:57:40Z</time>
      </trkpt>
      <trkpt lat="47.573364973068237" lon="18.935106005519629">
        <ele>257.68900000000002</ele>
        <time>2010-02-06T22:57:43Z</time>
      </trkpt>
      <trkpt lat="47.57339003495872" lon="18.935054037719965">
        <ele>258.02199999999999</ele>
        <time>2010-02-06T22:57:47Z</time>
      </trkpt>
      <trkpt lat="47.573397997766733" lon="18.934994023293257">
        <ele>258.51600000000002</ele>
        <time>2010-02-06T22:57:52Z</time>
      </trkpt>
      <trkpt lat="47.573429010808468" lon="18.934947000816464">
        <ele>259.20499999999998</ele>
        <time>2010-02-06T22:57:56Z</time>
      </trkpt>
      <trkpt lat="47.57343202829361" lon="18.934876006096601">
        <ele>259.96300000000002</ele>
        <time>2010-02-06T22:58:02Z</time>
      </trkpt>
      <trkpt lat="47.573446026071906" lon="18.934828983619809">
        <ele>259.91300000000001</ele>
        <time>2010-02-06T22:58:06Z</time>
      </trkpt>
      <trkpt lat="47.573461029678583" lon="18.934777015820146">
        <ele>260.45600000000002</ele>
        <time>2010-02-06T22:58:10Z</time>
      </trkpt>
      <trkpt lat="47.57347796112299" lon="18.934727981686592">
        <ele>260.411</ele>
        <time>2010-02-06T22:58:14Z</time>
      </trkpt>
      <trkpt lat="47.573494976386428" lon="18.934671990573406">
        <ele>261.14299999999997</ele>
        <time>2010-02-06T22:58:18Z</time>
      </trkpt>
      <trkpt lat="47.573522971943021" lon="18.934627985581756">
        <ele>261.774</ele>
        <time>2010-02-06T22:58:22Z</time>
      </trkpt>
      <trkpt lat="47.573539987206459" lon="18.934583980590105">
        <ele>261.99200000000002</ele>
        <time>2010-02-06T22:58:25Z</time>
      </trkpt>
      <trkpt lat="47.573572006076574" lon="18.934533018618822">
        <ele>263.13400000000001</ele>
        <time>2010-02-06T22:58:28Z</time>
      </trkpt>
      <trkpt lat="47.573593966662884" lon="18.934478033334017">
        <ele>262.66399999999999</ele>
        <time>2010-02-06T22:58:32Z</time>
      </trkpt>
      <trkpt lat="47.573613999411464" lon="18.934435034170747">
        <ele>264.423</ele>
        <time>2010-02-06T22:58:36Z</time>
      </trkpt>
      <trkpt lat="47.573638977482915" lon="18.934405026957393">
        <ele>264.64699999999999</ele>
        <time>2010-02-06T22:58:40Z</time>
      </trkpt>
      <trkpt lat="47.573679964989424" lon="18.934374013915658">
        <ele>264.95800000000003</ele>
        <time>2010-02-06T22:58:45Z</time>
      </trkpt>
      <trkpt lat="47.573699997738004" lon="18.934355992823839">
        <ele>265.22800000000001</ele>
        <time>2010-02-06T22:58:49Z</time>
      </trkpt>
      <trkpt lat="47.573761017993093" lon="18.934331014752388">
        <ele>265.98899999999998</ele>
        <time>2010-02-06T22:58:56Z</time>
      </trkpt>
      <trkpt lat="47.573808040469885" lon="18.934289021417499">
        <ele>266.85899999999998</ele>
        <time>2010-02-06T22:59:04Z</time>
      </trkpt>
      <trkpt lat="47.573851961642504" lon="18.93424803391099">
        <ele>267.23000000000002</ele>
        <time>2010-02-06T22:59:10Z</time>
      </trkpt>
      <trkpt lat="47.573892027139664" lon="18.934202017262578">
        <ele>267.41699999999997</ele>
        <time>2010-02-06T22:59:15Z</time>
      </trkpt>
      <trkpt lat="47.573933014646173" lon="18.934172010049224">
        <ele>268.33600000000001</ele>
        <time>2010-02-06T22:59:21Z</time>
      </trkpt>
      <trkpt lat="47.573974002152681" lon="18.934150971472263">
        <ele>269.197</ele>
        <time>2010-02-06T22:59:27Z</time>
      </trkpt>
      <trkpt lat="47.574009960517287" lon="18.934101015329361">
        <ele>269.60899999999998</ele>
        <time>2010-02-06T22:59:33Z</time>
      </trkpt>
      <trkpt lat="47.574076009914279" lon="18.934047035872936">
        <ele>272.31099999999998</ele>
        <time>2010-02-06T22:59:46Z</time>
      </trkpt>
      <trkpt lat="47.574122026562691" lon="18.934027003124356">
        <ele>273.084</ele>
        <time>2010-02-06T22:59:53Z</time>
      </trkpt>
      <trkpt lat="47.574193021282554" lon="18.933974029496312">
        <ele>274.75700000000001</ele>
        <time>2010-02-06T23:00:00Z</time>
      </trkpt>
      <trkpt lat="47.574239037930965" lon="18.933892976492643">
        <ele>277.01100000000002</ele>
        <time>2010-02-06T23:00:11Z</time>
      </trkpt>
      <trkpt lat="47.574301986023784" lon="18.93382198177278">
        <ele>278.48500000000001</ele>
        <time>2010-02-06T23:00:21Z</time>
      </trkpt>
      <trkpt lat="47.574332999065518" lon="18.933775965124369">
        <ele>278.69299999999998</ele>
        <time>2010-02-06T23:00:26Z</time>
      </trkpt>
      <trkpt lat="47.574349008500576" lon="18.933717040345073">
        <ele>279.80500000000001</ele>
        <time>2010-02-06T23:00:31Z</time>
      </trkpt>
      <trkpt lat="47.574385972693563" lon="18.933674963191152">
        <ele>279.59899999999999</ele>
        <time>2010-02-06T23:00:35Z</time>
      </trkpt>
      <trkpt lat="47.574415979906917" lon="18.933641016483307">
        <ele>280.84399999999999</ele>
        <time>2010-02-06T23:00:39Z</time>
      </trkpt>
      <trkpt lat="47.574441963806748" lon="18.933587959036231">
        <ele>282.291</ele>
        <time>2010-02-06T23:00:44Z</time>
      </trkpt>
      <trkpt lat="47.57448798045516" lon="18.933543032035232">
        <ele>282.99599999999998</ele>
        <time>2010-02-06T23:00:49Z</time>
      </trkpt>
      <trkpt lat="47.574521005153656" lon="18.933501960709691">
        <ele>283.03100000000001</ele>
        <time>2010-02-06T23:00:53Z</time>
      </trkpt>
      <trkpt lat="47.574538020417094" lon="18.933453010395169">
        <ele>283.49099999999999</ele>
        <time>2010-02-06T23:00:58Z</time>
      </trkpt>
      <trkpt lat="47.574578002095222" lon="18.933423003181815">
        <ele>283.35000000000002</ele>
        <time>2010-02-06T23:01:02Z</time>
      </trkpt>
      <trkpt lat="47.574604991823435" lon="18.933397019281983">
        <ele>283.584</ele>
        <time>2010-02-06T23:01:06Z</time>
      </trkpt>
      <trkpt lat="47.57463600486517" lon="18.933370029553771">
        <ele>283.65800000000002</ele>
        <time>2010-02-06T23:01:10Z</time>
      </trkpt>
      <trkpt lat="47.574682021513581" lon="18.933335999026895">
        <ele>284.61900000000003</ele>
        <time>2010-02-06T23:01:14Z</time>
      </trkpt>
      <trkpt lat="47.574714962393045" lon="18.933300040662289">
        <ele>285.00599999999997</ele>
        <time>2010-02-06T23:01:18Z</time>
      </trkpt>
      <trkpt lat="47.574737006798387" lon="18.933244971558452">
        <ele>285.00799999999998</ele>
        <time>2010-02-06T23:01:22Z</time>
      </trkpt>
      <trkpt lat="47.574779000133276" lon="18.933201972395182">
        <ele>285.75299999999999</ele>
        <time>2010-02-06T23:01:26Z</time>
      </trkpt>
      <trkpt lat="47.57478796876967" lon="18.933152016252279">
        <ele>285.76400000000001</ele>
        <time>2010-02-06T23:01:30Z</time>
      </trkpt>
      <trkpt lat="47.574815964326262" lon="18.933104993775487">
        <ele>285.245</ele>
        <time>2010-02-06T23:01:35Z</time>
      </trkpt>
      <trkpt lat="47.574849994853139" lon="18.93306702375412">
        <ele>286.52999999999997</ele>
        <time>2010-02-06T23:01:40Z</time>
      </trkpt>
      <trkpt lat="47.574882013723254" lon="18.933012038469315">
        <ele>286.27199999999999</ele>
        <time>2010-02-06T23:01:44Z</time>
      </trkpt>
      <trkpt lat="47.574919983744621" lon="18.932965015992522">
        <ele>286.84800000000001</ele>
        <time>2010-02-06T23:01:48Z</time>
      </trkpt>
      <trkpt lat="47.574931969866157" lon="18.932906007394195">
        <ele>286.87900000000002</ele>
        <time>2010-02-06T23:01:54Z</time>
      </trkpt>
      <trkpt lat="47.574962982907891" lon="18.932856973260641">
        <ele>287.16899999999998</ele>
        <time>2010-02-06T23:01:58Z</time>
      </trkpt>
      <trkpt lat="47.575011011213064" lon="18.932807017117739">
        <ele>287.63200000000001</ele>
        <time>2010-02-06T23:02:03Z</time>
      </trkpt>
      <trkpt lat="47.575035989284515" lon="18.932757982984185">
        <ele>287.33800000000002</ele>
        <time>2010-02-06T23:02:07Z</time>
      </trkpt>
      <trkpt lat="47.575040012598038" lon="18.932696962729096">
        <ele>287.59399999999999</ele>
        <time>2010-02-06T23:02:11Z</time>
      </trkpt>
      <trkpt lat="47.575070019811392" lon="18.932630997151136">
        <ele>288.37400000000002</ele>
        <time>2010-02-06T23:02:15Z</time>
      </trkpt>
      <trkpt lat="47.575078988447785" lon="18.932566959410906">
        <ele>289.23399999999998</ele>
        <time>2010-02-06T23:02:19Z</time>
      </trkpt>
      <trkpt lat="47.575073959305882" lon="18.932507028803229">
        <ele>289.58499999999998</ele>
        <time>2010-02-06T23:02:23Z</time>
      </trkpt>
      <trkpt lat="47.575059039518237" lon="18.932440979406238">
        <ele>289.01600000000002</ele>
        <time>2010-02-06T23:02:27Z</time>
      </trkpt>
      <trkpt lat="47.575058033689857" lon="18.932376019656658">
        <ele>290.14100000000002</ele>
        <time>2010-02-06T23:02:31Z</time>
      </trkpt>
      <trkpt lat="47.575050992891192" lon="18.932317011058331">
        <ele>290.38299999999998</ele>
        <time>2010-02-06T23:02:35Z</time>
      </trkpt>
      <trkpt lat="47.575032971799374" lon="18.932240987196565">
        <ele>290.642</ele>
        <time>2010-02-06T23:02:40Z</time>
      </trkpt>
      <trkpt lat="47.575033977627754" lon="18.932169992476702">
        <ele>291.41000000000003</ele>
        <time>2010-02-06T23:02:45Z</time>
      </trkpt>
      <trkpt lat="47.575048981234431" lon="18.932103021070361">
        <ele>291.42399999999998</ele>
        <time>2010-02-06T23:02:50Z</time>
      </trkpt>
      <trkpt lat="47.575062979012728" lon="18.932042000815272">
        <ele>291.48000000000002</ele>
        <time>2010-02-06T23:02:54Z</time>
      </trkpt>
      <trkpt lat="47.575079994276166" lon="18.931980980560184">
        <ele>291.88299999999998</ele>
        <time>2010-02-06T23:02:59Z</time>
      </trkpt>
      <trkpt lat="47.575093992054462" lon="18.93192901276052">
        <ele>292.11799999999999</ele>
        <time>2010-02-06T23:03:04Z</time>
      </trkpt>
      <trkpt lat="47.575094997882843" lon="18.931868998333812">
        <ele>293.351</ele>
        <time>2010-02-06T23:03:09Z</time>
      </trkpt>
      <trkpt lat="47.575111007317901" lon="18.931830022484064">
        <ele>293.76799999999997</ele>
        <time>2010-02-06T23:03:14Z</time>
      </trkpt>
      <trkpt lat="47.575118970125914" lon="18.931751986965537">
        <ele>295.13400000000001</ele>
        <time>2010-02-06T23:03:20Z</time>
      </trkpt>
      <trkpt lat="47.575116958469152" lon="18.931683003902435">
        <ele>295.56299999999999</ele>
        <time>2010-02-06T23:03:25Z</time>
      </trkpt>
      <trkpt lat="47.575160041451454" lon="18.931627012789249">
        <ele>296.54199999999997</ele>
        <time>2010-02-06T23:03:30Z</time>
      </trkpt>
      <trkpt lat="47.575201028957963" lon="18.931578984484076">
        <ele>298.31400000000002</ele>
        <time>2010-02-06T23:03:35Z</time>
      </trkpt>
      <trkpt lat="47.575215026736259" lon="18.931530034169555">
        <ele>298.072</ele>
        <time>2010-02-06T23:03:40Z</time>
      </trkpt>
      <trkpt lat="47.575246039777994" lon="18.931489968672395">
        <ele>298.84399999999999</ele>
        <time>2010-02-06T23:03:44Z</time>
      </trkpt>
      <trkpt lat="47.575263977050781" lon="18.931451998651028">
        <ele>299.32299999999998</ele>
        <time>2010-02-06T23:03:48Z</time>
      </trkpt>
      <trkpt lat="47.575310999527574" lon="18.931408999487758">
        <ele>299.80099999999999</ele>
        <time>2010-02-06T23:03:53Z</time>
      </trkpt>
      <trkpt lat="47.575320973992348" lon="18.931347979232669">
        <ele>300.59800000000001</ele>
        <time>2010-02-06T23:03:58Z</time>
      </trkpt>
      <trkpt lat="47.575346035882831" lon="18.931296011433005">
        <ele>301.42500000000001</ele>
        <time>2010-02-06T23:04:03Z</time>
      </trkpt>
      <trkpt lat="47.575390040874481" lon="18.931240020319819">
        <ele>301.58199999999999</ele>
        <time>2010-02-06T23:04:09Z</time>
      </trkpt>
      <trkpt lat="47.575418958440423" lon="18.931189980357885">
        <ele>301.76600000000002</ele>
        <time>2010-02-06T23:04:13Z</time>
      </trkpt>
      <trkpt lat="47.57543102838099" lon="18.931148992851377">
        <ele>301.858</ele>
        <time>2010-02-06T23:04:18Z</time>
      </trkpt>
      <trkpt lat="47.575467992573977" lon="18.93109199590981">
        <ele>301.78399999999999</ele>
        <time>2010-02-06T23:04:23Z</time>
      </trkpt>
      <trkpt lat="47.575490036979318" lon="18.931031981483102">
        <ele>302.14100000000002</ele>
        <time>2010-02-06T23:04:28Z</time>
      </trkpt>
      <trkpt lat="47.575493976473808" lon="18.930969033390284">
        <ele>302.053</ele>
        <time>2010-02-06T23:04:32Z</time>
      </trkpt>
      <trkpt lat="47.575503028929234" lon="18.930906001478434">
        <ele>302.78300000000002</ele>
        <time>2010-02-06T23:04:36Z</time>
      </trkpt>
      <trkpt lat="47.575511997565627" lon="18.930855039507151">
        <ele>303.19400000000002</ele>
        <time>2010-02-06T23:04:41Z</time>
      </trkpt>
      <trkpt lat="47.575505962595344" lon="18.930786978453398">
        <ele>304.41899999999998</ele>
        <time>2010-02-06T23:04:46Z</time>
      </trkpt>
      <trkpt lat="47.575511997565627" lon="18.930717995390296">
        <ele>305.25</ele>
        <time>2010-02-06T23:04:51Z</time>
      </trkpt>
      <trkpt lat="47.575510991737247" lon="18.930648006498814">
        <ele>305.26299999999998</ele>
        <time>2010-02-06T23:04:55Z</time>
      </trkpt>
      <trkpt lat="47.575504034757614" lon="18.930594027042389">
        <ele>305.51400000000001</ele>
        <time>2010-02-06T23:05:00Z</time>
      </trkpt>
      <trkpt lat="47.575511997565627" lon="18.930539041757584">
        <ele>305.96899999999999</ele>
        <time>2010-02-06T23:05:05Z</time>
      </trkpt>
      <trkpt lat="47.57551996037364" lon="18.930479027330875">
        <ele>305.83999999999997</ele>
        <time>2010-02-06T23:05:10Z</time>
      </trkpt>
      <trkpt lat="47.575548039749265" lon="18.930424964055419">
        <ele>306.459</ele>
        <time>2010-02-06T23:05:14Z</time>
      </trkpt>
      <trkpt lat="47.575577041134238" lon="18.93038297072053">
        <ele>305.89100000000002</ele>
        <time>2010-02-06T23:05:18Z</time>
      </trkpt>
      <trkpt lat="47.575612999498844" lon="18.930355980992317">
        <ele>306.56900000000002</ele>
        <time>2010-02-06T23:05:21Z</time>
      </trkpt>
      <trkpt lat="47.575620040297508" lon="18.930298984050751">
        <ele>307.07400000000001</ele>
        <time>2010-02-06T23:05:25Z</time>
      </trkpt>
      <trkpt lat="47.575639989227057" lon="18.930248022079468">
        <ele>306.83800000000002</ele>
        <time>2010-02-06T23:05:30Z</time>
      </trkpt>
      <trkpt lat="47.575673013925552" lon="18.930199993774295">
        <ele>307.334</ele>
        <time>2010-02-06T23:05:35Z</time>
      </trkpt>
      <trkpt lat="47.57568902336061" lon="18.93014500848949">
        <ele>308.99099999999999</ele>
        <time>2010-02-06T23:05:40Z</time>
      </trkpt>
      <trkpt lat="47.5757119897753" lon="18.930091029033065">
        <ele>309.48000000000002</ele>
        <time>2010-02-06T23:05:45Z</time>
      </trkpt>
      <trkpt lat="47.575743002817035" lon="18.930040989071131">
        <ele>310.69600000000003</ele>
        <time>2010-02-06T23:05:50Z</time>
      </trkpt>
      <trkpt lat="47.575764041393995" lon="18.929997989907861">
        <ele>310.185</ele>
        <time>2010-02-06T23:05:54Z</time>
      </trkpt>
      <trkpt lat="47.575792958959937" lon="18.929961025714874">
        <ele>310.745</ele>
        <time>2010-02-06T23:05:58Z</time>
      </trkpt>
      <trkpt lat="47.575817015022039" lon="18.929916014894843">
        <ele>311.01400000000001</ele>
        <time>2010-02-06T23:06:02Z</time>
      </trkpt>
      <trkpt lat="47.575852973386645" lon="18.929860023781657">
        <ele>311.18799999999999</ele>
        <time>2010-02-06T23:06:06Z</time>
      </trkpt>
      <trkpt lat="47.575878035277128" lon="18.929804032668471">
        <ele>311.21199999999999</ele>
        <time>2010-02-06T23:06:10Z</time>
      </trkpt>
      <trkpt lat="47.575899995863438" lon="18.929756004363298">
        <ele>311.69</ele>
        <time>2010-02-06T23:06:14Z</time>
      </trkpt>
      <trkpt lat="47.575911981984973" lon="18.929685009643435">
        <ele>312.166</ele>
        <time>2010-02-06T23:06:19Z</time>
      </trkpt>
      <trkpt lat="47.57592698559165" lon="18.929634969681501">
        <ele>312.57600000000002</ele>
        <time>2010-02-06T23:06:23Z</time>
      </trkpt>
      <trkpt lat="47.575927991420031" lon="18.929574033245444">
        <ele>312.83600000000001</ele>
        <time>2010-02-06T23:06:28Z</time>
      </trkpt>
      <trkpt lat="47.575946012511849" lon="18.92950102686882">
        <ele>313.94499999999999</ele>
        <time>2010-02-06T23:06:34Z</time>
      </trkpt>
      <trkpt lat="47.575946012511849" lon="18.929446041584015">
        <ele>313.935</ele>
        <time>2010-02-06T23:06:38Z</time>
      </trkpt>
      <trkpt lat="47.575968978926539" lon="18.929403964430094">
        <ele>314.45299999999997</ele>
        <time>2010-02-06T23:06:42Z</time>
      </trkpt>
      <trkpt lat="47.575985994189978" lon="18.929337998852134">
        <ele>314.82499999999999</ele>
        <time>2010-02-06T23:06:47Z</time>
      </trkpt>
      <trkpt lat="47.576008960604668" lon="18.929276978597045">
        <ele>315.38299999999998</ele>
        <time>2010-02-06T23:06:52Z</time>
      </trkpt>
      <trkpt lat="47.576022958382964" lon="18.929201038554311">
        <ele>316.09699999999998</ele>
        <time>2010-02-06T23:06:57Z</time>
      </trkpt>
      <trkpt lat="47.576029999181628" lon="18.929130965843797">
        <ele>316.221</ele>
        <time>2010-02-06T23:07:02Z</time>
      </trkpt>
      <trkpt lat="47.57603301666677" lon="18.929069023579359">
        <ele>316.23000000000002</ele>
        <time>2010-02-06T23:07:06Z</time>
      </trkpt>
      <trkpt lat="47.576024970039725" lon="18.929001968353987">
        <ele>317.053</ele>
        <time>2010-02-06T23:07:10Z</time>
      </trkpt>
      <trkpt lat="47.576036034151912" lon="18.92894103191793">
        <ele>317.12400000000002</ele>
        <time>2010-02-06T23:07:14Z</time>
      </trkpt>
      <trkpt lat="47.576039973646402" lon="18.928884034976363">
        <ele>317.52300000000002</ele>
        <time>2010-02-06T23:07:18Z</time>
      </trkpt>
      <trkpt lat="47.576074004173279" lon="18.928816979750991">
        <ele>317.55399999999997</ele>
        <time>2010-02-06T23:07:24Z</time>
      </trkpt>
      <trkpt lat="47.576103005558252" lon="18.928760988637805">
        <ele>318.01600000000002</ele>
        <time>2010-02-06T23:07:28Z</time>
      </trkpt>
      <trkpt lat="47.576126977801323" lon="18.928706003353">
        <ele>318.50400000000002</ele>
        <time>2010-02-06T23:07:32Z</time>
      </trkpt>
      <trkpt lat="47.576137036085129" lon="18.928646994754672">
        <ele>318.76299999999998</ele>
        <time>2010-02-06T23:07:36Z</time>
      </trkpt>
      <trkpt lat="47.57616201415658" lon="18.928582035005093">
        <ele>318.83800000000002</ele>
        <time>2010-02-06T23:07:41Z</time>
      </trkpt>
      <trkpt lat="47.576185986399651" lon="18.928519003093243">
        <ele>318.608</ele>
        <time>2010-02-06T23:07:46Z</time>
      </trkpt>
      <trkpt lat="47.576232003048062" lon="18.928482038900256">
        <ele>318.75099999999998</ele>
        <time>2010-02-06T23:07:50Z</time>
      </trkpt>
      <trkpt lat="47.576265027746558" lon="18.928436022251844">
        <ele>318.67000000000002</ele>
        <time>2010-02-06T23:07:54Z</time>
      </trkpt>
      <trkpt lat="47.576306015253067" lon="18.928394028916955">
        <ele>318.65699999999998</ele>
        <time>2010-02-06T23:07:59Z</time>
      </trkpt>
      <trkpt lat="47.576351026073098" lon="18.928361004218459">
        <ele>319.125</ele>
        <time>2010-02-06T23:08:03Z</time>
      </trkpt>
      <trkpt lat="47.576384972780943" lon="18.928321022540331">
        <ele>318.98200000000003</ele>
        <time>2010-02-06T23:08:07Z</time>
      </trkpt>
      <trkpt lat="47.576422020792961" lon="18.928274000063539">
        <ele>319.51400000000001</ele>
        <time>2010-02-06T23:08:12Z</time>
      </trkpt>
      <trkpt lat="47.576438030228019" lon="18.928225971758366">
        <ele>318.93400000000003</ele>
        <time>2010-02-06T23:08:16Z</time>
      </trkpt>
      <trkpt lat="47.576448004692793" lon="18.928164029493928">
        <ele>319.72500000000002</ele>
        <time>2010-02-06T23:08:20Z</time>
      </trkpt>
      <trkpt lat="47.576446998864412" lon="18.928095968440175">
        <ele>320.54700000000003</ele>
        <time>2010-02-06T23:08:23Z</time>
      </trkpt>
      <trkpt lat="47.576450016349554" lon="18.928037965670228">
        <ele>320.37299999999999</ele>
        <time>2010-02-06T23:08:26Z</time>
      </trkpt>
      <trkpt lat="47.576441969722509" lon="18.927964959293604">
        <ele>320.875</ele>
        <time>2010-02-06T23:08:30Z</time>
      </trkpt>
      <trkpt lat="47.576458984985948" lon="18.927893964573741">
        <ele>319.97000000000003</ele>
        <time>2010-02-06T23:08:34Z</time>
      </trkpt>
      <trkpt lat="47.576471976935863" lon="18.927837973460555">
        <ele>321.166</ele>
        <time>2010-02-06T23:08:37Z</time>
      </trkpt>
      <trkpt lat="47.576500978320837" lon="18.927791034802794">
        <ele>321.88999999999999</ele>
        <time>2010-02-06T23:08:40Z</time>
      </trkpt>
      <trkpt lat="47.576518999412656" lon="18.927745018154383">
        <ele>322.23399999999998</ele>
        <time>2010-02-06T23:08:43Z</time>
      </trkpt>
      <trkpt lat="47.576548000797629" lon="18.927673017606139">
        <ele>321.89499999999998</ele>
        <time>2010-02-06T23:08:47Z</time>
      </trkpt>
      <trkpt lat="47.576545989140868" lon="18.927621971815825">
        <ele>322.58600000000001</ele>
        <time>2010-02-06T23:08:51Z</time>
      </trkpt>
      <trkpt lat="47.576566021889448" lon="18.927560029551387">
        <ele>322.60599999999999</ele>
        <time>2010-02-06T23:08:55Z</time>
      </trkpt>
      <trkpt lat="47.576589994132519" lon="18.92750202678144">
        <ele>322.47000000000003</ele>
        <time>2010-02-06T23:08:59Z</time>
      </trkpt>
      <trkpt lat="47.576586976647377" lon="18.927445029839873">
        <ele>322.87700000000001</ele>
        <time>2010-02-06T23:09:03Z</time>
      </trkpt>
      <trkpt lat="47.576586976647377" lon="18.927384009584785">
        <ele>322.81700000000001</ele>
        <time>2010-02-06T23:09:07Z</time>
      </trkpt>
      <trkpt lat="47.576588988304138" lon="18.927305974066257">
        <ele>323.05000000000001</ele>
        <time>2010-02-06T23:09:11Z</time>
      </trkpt>
      <trkpt lat="47.576598040759563" lon="18.927243025973439">
        <ele>323.12900000000002</ele>
        <time>2010-02-06T23:09:15Z</time>
      </trkpt>
      <trkpt lat="47.576617989689112" lon="18.927174964919686">
        <ele>323.49000000000001</ele>
        <time>2010-02-06T23:09:20Z</time>
      </trkpt>
      <trkpt lat="47.576644979417324" lon="18.927120985463262">
        <ele>323.30399999999997</ele>
        <time>2010-02-06T23:09:24Z</time>
      </trkpt>
      <trkpt lat="47.576665012165904" lon="18.927050996571779">
        <ele>323.79700000000003</ele>
        <time>2010-02-06T23:09:28Z</time>
      </trkpt>
      <trkpt lat="47.576668029651046" lon="18.926992993801832">
        <ele>323.88799999999998</ele>
        <time>2010-02-06T23:09:31Z</time>
      </trkpt>
      <trkpt lat="47.576674986630678" lon="18.926929039880633">
        <ele>324.03199999999998</ele>
        <time>2010-02-06T23:09:34Z</time>
      </trkpt>
      <trkpt lat="47.576687978580594" lon="18.926875982433558">
        <ele>324.65899999999999</ele>
        <time>2010-02-06T23:09:37Z</time>
      </trkpt>
      <trkpt lat="47.576702982187271" lon="18.926824014633894">
        <ele>325.10599999999999</ele>
        <time>2010-02-06T23:09:40Z</time>
      </trkpt>
      <trkpt lat="47.576725026592612" lon="18.92677498050034">
        <ele>324.89400000000001</ele>
        <time>2010-02-06T23:09:43Z</time>
      </trkpt>
      <trkpt lat="47.576756039634347" lon="18.926739022135735">
        <ele>325.65199999999999</ele>
        <time>2010-02-06T23:09:46Z</time>
      </trkpt>
      <trkpt lat="47.57678403519094" lon="18.926679007709026">
        <ele>326.07799999999997</ele>
        <time>2010-02-06T23:09:50Z</time>
      </trkpt>
      <trkpt lat="47.576799960806966" lon="18.926633996888995">
        <ele>326.07400000000001</ele>
        <time>2010-02-06T23:09:53Z</time>
      </trkpt>
      <trkpt lat="47.576846983283758" lon="18.926595021039248">
        <ele>327.048</ele>
        <time>2010-02-06T23:09:58Z</time>
      </trkpt>
      <trkpt lat="47.576885037124157" lon="18.926549004390836">
        <ele>327.17700000000002</ele>
        <time>2010-02-06T23:10:02Z</time>
      </trkpt>
      <trkpt lat="47.576912026852369" lon="18.926512040197849">
        <ele>326.48399999999998</ele>
        <time>2010-02-06T23:10:06Z</time>
      </trkpt>
      <trkpt lat="47.576947985216975" lon="18.926480021327734">
        <ele>327.11099999999999</ele>
        <time>2010-02-06T23:10:10Z</time>
      </trkpt>
      <trkpt lat="47.576975980773568" lon="18.926439033821225">
        <ele>327.02499999999998</ele>
        <time>2010-02-06T23:10:14Z</time>
      </trkpt>
      <trkpt lat="47.577007999643683" lon="18.926396034657955">
        <ele>327.43000000000001</ele>
        <time>2010-02-06T23:10:18Z</time>
      </trkpt>
      <trkpt lat="47.577057033777237" lon="18.926342977210879">
        <ele>327.69299999999998</ele>
        <time>2010-02-06T23:10:22Z</time>
      </trkpt>
      <trkpt lat="47.577087040990591" lon="18.926313975825906">
        <ele>327.45400000000001</ele>
        <time>2010-02-06T23:10:25Z</time>
      </trkpt>
      <trkpt lat="47.577122999355197" lon="18.926282962784171">
        <ele>327.86799999999999</ele>
        <time>2010-02-06T23:10:29Z</time>
      </trkpt>
      <trkpt lat="47.577185025438666" lon="18.926218003034592">
        <ele>327.34699999999998</ele>
        <time>2010-02-06T23:10:35Z</time>
      </trkpt>
      <trkpt lat="47.577227018773556" lon="18.926181960850954">
        <ele>327.70299999999997</ele>
        <time>2010-02-06T23:10:39Z</time>
      </trkpt>
      <trkpt lat="47.577247973531485" lon="18.92615002579987">
        <ele>327.44299999999998</ele>
        <time>2010-02-06T23:10:42Z</time>
      </trkpt>
      <trkpt lat="47.577285021543503" lon="18.926115995272994">
        <ele>327.73399999999998</ele>
        <time>2010-02-06T23:10:45Z</time>
      </trkpt>
      <trkpt lat="47.577296001836658" lon="18.926054975017905">
        <ele>327.97199999999998</ele>
        <time>2010-02-06T23:10:49Z</time>
      </trkpt>
      <trkpt lat="47.577314022928476" lon="18.926017004996538">
        <ele>328.11000000000001</ele>
        <time>2010-02-06T23:10:52Z</time>
      </trkpt>
      <trkpt lat="47.577334977686405" lon="18.925974005833268">
        <ele>327.82100000000003</ele>
        <time>2010-02-06T23:10:55Z</time>
      </trkpt>
      <trkpt lat="47.577378982678056" lon="18.925939975306392">
        <ele>328.214</ele>
        <time>2010-02-06T23:10:58Z</time>
      </trkpt>
      <trkpt lat="47.577413013204932" lon="18.925903011113405">
        <ele>328.07799999999997</ele>
        <time>2010-02-06T23:11:02Z</time>
      </trkpt>
      <trkpt lat="47.577446959912777" lon="18.925854982808232">
        <ele>328.45600000000002</ele>
        <time>2010-02-06T23:11:06Z</time>
      </trkpt>
      <trkpt lat="47.577489037066698" lon="18.925821036100388">
        <ele>328.94200000000001</ele>
        <time>2010-02-06T23:11:09Z</time>
      </trkpt>
      <trkpt lat="47.57749498821795" lon="18.925755992531776">
        <ele>328.92599999999999</ele>
        <time>2010-02-06T23:11:13Z</time>
      </trkpt>
      <trkpt lat="47.577523989602923" lon="18.925721039995551">
        <ele>328.791</ele>
        <time>2010-02-06T23:11:16Z</time>
      </trkpt>
      <trkpt lat="47.577550979331136" lon="18.925680974498391">
        <ele>329.053</ele>
        <time>2010-02-06T23:11:19Z</time>
      </trkpt>
      <trkpt lat="47.577576963230968" lon="18.925635041669011">
        <ele>329.262</ele>
        <time>2010-02-06T23:11:23Z</time>
      </trkpt>
      <trkpt lat="47.577605964615941" lon="18.925596987828612">
        <ele>329.09399999999999</ele>
        <time>2010-02-06T23:11:27Z</time>
      </trkpt>
      <trkpt lat="47.57764502428472" lon="18.925562035292387">
        <ele>329.57299999999998</ele>
        <time>2010-02-06T23:11:31Z</time>
      </trkpt>
      <trkpt lat="47.57766698487103" lon="18.925525993108749">
        <ele>329.88099999999997</ele>
        <time>2010-02-06T23:11:35Z</time>
      </trkpt>
      <trkpt lat="47.577695986256003" lon="18.925491962581873">
        <ele>329.80599999999998</ele>
        <time>2010-02-06T23:11:39Z</time>
      </trkpt>
      <trkpt lat="47.57773102261126" lon="18.925453992560506">
        <ele>330.346</ele>
        <time>2010-02-06T23:11:43Z</time>
      </trkpt>
      <trkpt lat="47.577750971540809" lon="18.925385009497404">
        <ele>330.15699999999998</ele>
        <time>2010-02-06T23:11:48Z</time>
      </trkpt>
      <trkpt lat="47.577723981812596" lon="18.925304040312767">
        <ele>330.46199999999999</ele>
        <time>2010-02-06T23:11:53Z</time>
      </trkpt>
      <trkpt lat="47.577764969319105" lon="18.925252994522452">
        <ele>330.83699999999999</ele>
        <time>2010-02-06T23:11:58Z</time>
      </trkpt>
      <trkpt lat="47.577788019552827" lon="18.925212007015944">
        <ele>331.60500000000002</ele>
        <time>2010-02-06T23:12:02Z</time>
      </trkpt>
      <trkpt lat="47.577841999009252" lon="18.925185017287731">
        <ele>331.39299999999997</ele>
        <time>2010-02-06T23:12:06Z</time>
      </trkpt>
      <trkpt lat="47.577900001779199" lon="18.92516003921628">
        <ele>330.88799999999998</ele>
        <time>2010-02-06T23:12:10Z</time>
      </trkpt>
      <trkpt lat="47.577920034527779" lon="18.925118967890739">
        <ele>331.334</ele>
        <time>2010-02-06T23:12:15Z</time>
      </trkpt>
      <trkpt lat="47.577939983457327" lon="18.925071023404598">
        <ele>333.48599999999999</ele>
        <time>2010-02-06T23:12:21Z</time>
      </trkpt>
      <trkpt lat="47.577949035912752" lon="18.925020983442664">
        <ele>332.95100000000002</ele>
        <time>2010-02-06T23:12:25Z</time>
      </trkpt>
      <trkpt lat="47.577953981235623" lon="18.924954012036324">
        <ele>332.57600000000002</ele>
        <time>2010-02-06T23:12:30Z</time>
      </trkpt>
      <trkpt lat="47.577992035076022" lon="18.924892991781235">
        <ele>333.20600000000002</ele>
        <time>2010-02-06T23:12:35Z</time>
      </trkpt>
      <trkpt lat="47.578007038682699" lon="18.924820991232991">
        <ele>333.95699999999999</ele>
        <time>2010-02-06T23:12:39Z</time>
      </trkpt>
      <trkpt lat="47.578024975955486" lon="18.924773968756199">
        <ele>333.40300000000002</ele>
        <time>2010-02-06T23:12:42Z</time>
      </trkpt>
      <trkpt lat="47.578049032017589" lon="18.924720995128155">
        <ele>333.88499999999999</ele>
        <time>2010-02-06T23:12:46Z</time>
      </trkpt>
      <trkpt lat="47.578078033402562" lon="18.924681013450027">
        <ele>333.93299999999999</ele>
        <time>2010-02-06T23:12:49Z</time>
      </trkpt>
      <trkpt lat="47.57811801508069" lon="18.924632985144854">
        <ele>334.10300000000001</ele>
        <time>2010-02-06T23:12:53Z</time>
      </trkpt>
      <trkpt lat="47.578143998980522" lon="18.924595015123487">
        <ele>334.33300000000003</ele>
        <time>2010-02-06T23:12:56Z</time>
      </trkpt>
      <trkpt lat="47.578145004808903" lon="18.924546986818314">
        <ele>334.87299999999999</ele>
        <time>2010-02-06T23:13:00Z</time>
      </trkpt>
      <trkpt lat="47.578171994537115" lon="18.924489989876747">
        <ele>334.892</ele>
        <time>2010-02-06T23:13:04Z</time>
      </trkpt>
      <trkpt lat="47.578214993700385" lon="18.924445984885097">
        <ele>335.68599999999998</ele>
        <time>2010-02-06T23:13:07Z</time>
      </trkpt>
      <trkpt lat="47.578252963721752" lon="18.924406003206968">
        <ele>336.09800000000001</ele>
        <time>2010-02-06T23:13:10Z</time>
      </trkpt>
      <trkpt lat="47.578270984813571" lon="18.924364009872079">
        <ele>336.09100000000001</ele>
        <time>2010-02-06T23:13:13Z</time>
      </trkpt>
      <trkpt lat="47.578306021168828" lon="18.924297038465738">
        <ele>335.50299999999999</ele>
        <time>2010-02-06T23:13:17Z</time>
      </trkpt>
      <trkpt lat="47.578315995633602" lon="18.924234006553888">
        <ele>335.392</ele>
        <time>2010-02-06T23:13:21Z</time>
      </trkpt>
      <trkpt lat="47.578334016725421" lon="18.924180027097464">
        <ele>336.029</ele>
        <time>2010-02-06T23:13:25Z</time>
      </trkpt>
      <trkpt lat="47.578338962048292" lon="18.924127975478768">
        <ele>336.47000000000003</ele>
        <time>2010-02-06T23:13:28Z</time>
      </trkpt>
      <trkpt lat="47.578352959826589" lon="18.924075001850724">
        <ele>337.05200000000002</ele>
        <time>2010-02-06T23:13:32Z</time>
      </trkpt>
      <trkpt lat="47.57837500423193" lon="18.924028985202312">
        <ele>337.47199999999998</ele>
        <time>2010-02-06T23:13:36Z</time>
      </trkpt>
      <trkpt lat="47.578378021717072" lon="18.923968970775604">
        <ele>338.34500000000003</ele>
        <time>2010-02-06T23:13:41Z</time>
      </trkpt>
      <trkpt lat="47.578404005616903" lon="18.923912979662418">
        <ele>338.95400000000001</ele>
        <time>2010-02-06T23:13:45Z</time>
      </trkpt>
      <trkpt lat="47.578429989516735" lon="18.923866963014007">
        <ele>339.57499999999999</ele>
        <time>2010-02-06T23:13:49Z</time>
      </trkpt>
      <trkpt lat="47.578447004780173" lon="18.923804014921188">
        <ele>339.80200000000002</ele>
        <time>2010-02-06T23:13:53Z</time>
      </trkpt>
      <trkpt lat="47.578476006165147" lon="18.923751041293144">
        <ele>340.80000000000001</ele>
        <time>2010-02-06T23:13:57Z</time>
      </trkpt>
      <trkpt lat="47.578513976186514" lon="18.923697983846068">
        <ele>341.07100000000003</ele>
        <time>2010-02-06T23:14:01Z</time>
      </trkpt>
      <trkpt lat="47.578539960086346" lon="18.923645010218024">
        <ele>341.92099999999999</ele>
        <time>2010-02-06T23:14:06Z</time>
      </trkpt>
      <trkpt lat="47.578565021976829" lon="18.923592958599329">
        <ele>341.40600000000001</ele>
        <time>2010-02-06T23:14:10Z</time>
      </trkpt>
      <trkpt lat="47.578583965077996" lon="18.923532022163272">
        <ele>342.31700000000001</ele>
        <time>2010-02-06T23:14:14Z</time>
      </trkpt>
      <trkpt lat="47.57861103862524" lon="18.923481982201338">
        <ele>341.87799999999999</ele>
        <time>2010-02-06T23:14:18Z</time>
      </trkpt>
      <trkpt lat="47.57865596562624" lon="18.92344300635159">
        <ele>342.87799999999999</ele>
        <time>2010-02-06T23:14:21Z</time>
      </trkpt>
      <trkpt lat="47.578685972839594" lon="18.923382991924882">
        <ele>343.48899999999998</ele>
        <time>2010-02-06T23:14:25Z</time>
      </trkpt>
      <trkpt lat="47.578688990324736" lon="18.923309985548258">
        <ele>343.18700000000001</ele>
        <time>2010-02-06T23:14:29Z</time>
      </trkpt>
      <trkpt lat="47.578709023073316" lon="18.923242008313537">
        <ele>344.56900000000002</ele>
        <time>2010-02-06T23:14:33Z</time>
      </trkpt>
      <trkpt lat="47.578723020851612" lon="18.923179982230067">
        <ele>344.66300000000001</ele>
        <time>2010-02-06T23:14:37Z</time>
      </trkpt>
      <trkpt lat="47.57874003611505" lon="18.923137988895178">
        <ele>344.98500000000001</ele>
        <time>2010-02-06T23:14:40Z</time>
      </trkpt>
      <trkpt lat="47.578756967559457" lon="18.923074034973979">
        <ele>345.61399999999998</ele>
        <time>2010-02-06T23:14:45Z</time>
      </trkpt>
      <trkpt lat="47.578797033056617" lon="18.923018965870142">
        <ele>346.00400000000002</ele>
        <time>2010-02-06T23:14:49Z</time>
      </trkpt>
      <trkpt lat="47.578816981986165" lon="18.922947971150279">
        <ele>346.108</ele>
        <time>2010-02-06T23:14:53Z</time>
      </trkpt>
      <trkpt lat="47.5788289681077" lon="18.922892985865474">
        <ele>346.01400000000001</ele>
        <time>2010-02-06T23:14:58Z</time>
      </trkpt>
      <trkpt lat="47.578850006684661" lon="18.922830959782004">
        <ele>346.81799999999998</ele>
        <time>2010-02-06T23:15:03Z</time>
      </trkpt>
      <trkpt lat="47.57887196727097" lon="18.922770023345947">
        <ele>346.54000000000002</ele>
        <time>2010-02-06T23:15:07Z</time>
      </trkpt>
      <trkpt lat="47.578896023333073" lon="18.922710008919239">
        <ele>347.19099999999997</ele>
        <time>2010-02-06T23:15:11Z</time>
      </trkpt>
      <trkpt lat="47.57893499918282" lon="18.922666003927588">
        <ele>346.822</ele>
        <time>2010-02-06T23:15:15Z</time>
      </trkpt>
      <trkpt lat="47.578946985304356" lon="18.92260598950088">
        <ele>347.64400000000001</ele>
        <time>2010-02-06T23:15:19Z</time>
      </trkpt>
      <trkpt lat="47.578965006396174" lon="18.922543963417411">
        <ele>347.47399999999999</ele>
        <time>2010-02-06T23:15:23Z</time>
      </trkpt>
      <trkpt lat="47.578993001952767" lon="18.922479003667831">
        <ele>348.24700000000001</ele>
        <time>2010-02-06T23:15:28Z</time>
      </trkpt>
      <trkpt lat="47.57902099750936" lon="18.922415971755981">
        <ele>348.74799999999999</ele>
        <time>2010-02-06T23:15:33Z</time>
      </trkpt>
      <trkpt lat="47.57904103025794" lon="18.922385964542627">
        <ele>349.41699999999997</ele>
        <time>2010-02-06T23:15:37Z</time>
      </trkpt>
      <trkpt lat="47.579045975580812" lon="18.922318993136287">
        <ele>349.34199999999998</ele>
        <time>2010-02-06T23:15:42Z</time>
      </trkpt>
      <trkpt lat="47.579049998894334" lon="18.922276999801397">
        <ele>350.048</ele>
        <time>2010-02-06T23:15:46Z</time>
      </trkpt>
      <trkpt lat="47.579098027199507" lon="18.922254033386707">
        <ele>350.33499999999998</ele>
        <time>2010-02-06T23:15:51Z</time>
      </trkpt>
      <trkpt lat="47.579128034412861" lon="18.922201981768012">
        <ele>351.12</ele>
        <time>2010-02-06T23:15:56Z</time>
      </trkpt>
      <trkpt lat="47.57914999499917" lon="18.922165017575026">
        <ele>351.08100000000002</ele>
        <time>2010-02-06T23:16:02Z</time>
      </trkpt>
      <trkpt lat="47.579200034961104" lon="18.922105003148317">
        <ele>351.46899999999999</ele>
        <time>2010-02-06T23:16:07Z</time>
      </trkpt>
      <trkpt lat="47.579225013032556" lon="18.922057980671525">
        <ele>352.41000000000003</ele>
        <time>2010-02-06T23:16:13Z</time>
      </trkpt>
      <trkpt lat="47.579250996932387" lon="18.921997966244817">
        <ele>352.541</ele>
        <time>2010-02-06T23:16:17Z</time>
      </trkpt>
      <trkpt lat="47.579287039116025" lon="18.921963013708591">
        <ele>352.31999999999999</ele>
        <time>2010-02-06T23:16:20Z</time>
      </trkpt>
      <trkpt lat="47.579307993873954" lon="18.921902999281883">
        <ele>353.404</ele>
        <time>2010-02-06T23:16:25Z</time>
      </trkpt>
      <trkpt lat="47.57932199165225" lon="18.921846002340317">
        <ele>354.68400000000003</ele>
        <time>2010-02-06T23:16:29Z</time>
      </trkpt>
      <trkpt lat="47.579326014965773" lon="18.921783976256847">
        <ele>354.56700000000001</ele>
        <time>2010-02-06T23:16:33Z</time>
      </trkpt>
      <trkpt lat="47.579343030229211" lon="18.921732008457184">
        <ele>354.98500000000001</ele>
        <time>2010-02-06T23:16:37Z</time>
      </trkpt>
      <trkpt lat="47.579353004693985" lon="18.921663025394082">
        <ele>355.62799999999999</ele>
        <time>2010-02-06T23:16:41Z</time>
      </trkpt>
      <trkpt lat="47.579360967501998" lon="18.9215930365026">
        <ele>356.07100000000003</ele>
        <time>2010-02-06T23:16:46Z</time>
      </trkpt>
      <trkpt lat="47.579401032999158" lon="18.921508966013789">
        <ele>358.26600000000002</ele>
        <time>2010-02-06T23:16:56Z</time>
      </trkpt>
      <trkpt lat="47.579415030777454" lon="18.921455992385745">
        <ele>358.31999999999999</ele>
        <time>2010-02-06T23:17:01Z</time>
      </trkpt>
      <trkpt lat="47.579441014677286" lon="18.921404024586082">
        <ele>358.50700000000001</ele>
        <time>2010-02-06T23:17:07Z</time>
      </trkpt>
      <trkpt lat="47.57947001606226" lon="18.921331018209457">
        <ele>359.47199999999998</ele>
        <time>2010-02-06T23:17:17Z</time>
      </trkpt>
      <trkpt lat="47.579504968598485" lon="18.92127301543951">
        <ele>360.21899999999999</ele>
        <time>2010-02-06T23:17:22Z</time>
      </trkpt>
      <trkpt lat="47.579525001347065" lon="18.921214006841183">
        <ele>360.125</ele>
        <time>2010-02-06T23:17:31Z</time>
      </trkpt>
      <trkpt lat="47.579594990238547" lon="18.921077968552709">
        <ele>362.59800000000001</ele>
        <time>2010-02-06T23:17:42Z</time>
      </trkpt>
      <trkpt lat="47.57962298579514" lon="18.921016026288271">
        <ele>362.73099999999999</ele>
        <time>2010-02-06T23:17:46Z</time>
      </trkpt>
      <trkpt lat="47.579648969694972" lon="18.920933967456222">
        <ele>363.24700000000001</ele>
        <time>2010-02-06T23:17:51Z</time>
      </trkpt>
      <trkpt lat="47.57970898412168" lon="18.920894991606474">
        <ele>363.39499999999998</ele>
        <time>2010-02-06T23:17:56Z</time>
      </trkpt>
      <trkpt lat="47.579693980515003" lon="18.920805975794792">
        <ele>365.25700000000001</ele>
        <time>2010-02-06T23:18:07Z</time>
      </trkpt>
      <trkpt lat="47.579675037413836" lon="18.920715032145381">
        <ele>365.90300000000002</ele>
        <time>2010-02-06T23:18:13Z</time>
      </trkpt>
      <trkpt lat="47.579647041857243" lon="18.920643031597137">
        <ele>367.04500000000002</ele>
        <time>2010-02-06T23:18:18Z</time>
      </trkpt>
      <trkpt lat="47.579615022987127" lon="18.920552004128695">
        <ele>367.19400000000002</ele>
        <time>2010-02-06T23:18:23Z</time>
      </trkpt>
      <trkpt lat="47.579587027430534" lon="18.920463994145393">
        <ele>367.85199999999998</ele>
        <time>2010-02-06T23:18:28Z</time>
      </trkpt>
      <trkpt lat="47.579572023823857" lon="18.92039199359715">
        <ele>368.14100000000002</ele>
        <time>2010-02-06T23:18:33Z</time>
      </trkpt>
      <trkpt lat="47.5795560143888" lon="18.92030599527061">
        <ele>368.88600000000002</ele>
        <time>2010-02-06T23:18:41Z</time>
      </trkpt>
      <trkpt lat="47.579584009945393" lon="18.920235000550747">
        <ele>369.27499999999998</ele>
        <time>2010-02-06T23:18:46Z</time>
      </trkpt>
      <trkpt lat="47.57957898080349" lon="18.920159982517362">
        <ele>370.07900000000001</ele>
        <time>2010-02-06T23:18:51Z</time>
      </trkpt>
      <trkpt lat="47.579555008560419" lon="18.920116983354092">
        <ele>370.18599999999998</ele>
        <time>2010-02-06T23:18:55Z</time>
      </trkpt>
      <trkpt lat="47.579523995518684" lon="18.92006803303957">
        <ele>370.59199999999998</ele>
        <time>2010-02-06T23:18:59Z</time>
      </trkpt>
      <trkpt lat="47.579494994133711" lon="18.920002989470959">
        <ele>371.529</ele>
        <time>2010-02-06T23:19:03Z</time>
      </trkpt>
      <trkpt lat="47.579473033547401" lon="18.919957978650928">
        <ele>371.54599999999999</ele>
        <time>2010-02-06T23:19:06Z</time>
      </trkpt>
      <trkpt lat="47.579468004405499" lon="18.919901987537742">
        <ele>372.35000000000002</ele>
        <time>2010-02-06T23:19:10Z</time>
      </trkpt>
      <trkpt lat="47.579445037990808" lon="18.919850019738078">
        <ele>372.863</ele>
        <time>2010-02-06T23:19:14Z</time>
      </trkpt>
      <trkpt lat="47.579436991363764" lon="18.919787993654609">
        <ele>373.10199999999998</ele>
        <time>2010-02-06T23:19:18Z</time>
      </trkpt>
      <trkpt lat="47.579439003020525" lon="18.919727979227901">
        <ele>373.25400000000002</ele>
        <time>2010-02-06T23:19:22Z</time>
      </trkpt>
      <trkpt lat="47.579455012455583" lon="18.919657990336418">
        <ele>373.733</ele>
        <time>2010-02-06T23:19:26Z</time>
      </trkpt>
      <trkpt lat="47.579426011070609" lon="18.919607028365135">
        <ele>374.59699999999998</ele>
        <time>2010-02-06T23:19:30Z</time>
      </trkpt>
      <trkpt lat="47.579415030777454" lon="18.919549025595188">
        <ele>374.10700000000003</ele>
        <time>2010-02-06T23:19:34Z</time>
      </trkpt>
      <trkpt lat="47.579397009685636" lon="18.919496973976493">
        <ele>374.57100000000003</ele>
        <time>2010-02-06T23:19:39Z</time>
      </trkpt>
      <trkpt lat="47.579382006078959" lon="18.919422039762139">
        <ele>375.51400000000001</ele>
        <time>2010-02-06T23:19:43Z</time>
      </trkpt>
      <trkpt lat="47.579359039664268" lon="18.919349033385515">
        <ele>375.47199999999998</ele>
        <time>2010-02-06T23:19:47Z</time>
      </trkpt>
      <trkpt lat="47.579369014129043" lon="18.919286001473665">
        <ele>376.19600000000003</ele>
        <time>2010-02-06T23:19:50Z</time>
      </trkpt>
      <trkpt lat="47.579360967501998" lon="18.919222969561815">
        <ele>376.50900000000001</ele>
        <time>2010-02-06T23:19:54Z</time>
      </trkpt>
      <trkpt lat="47.579339006915689" lon="18.919163960963488">
        <ele>376.22800000000001</ele>
        <time>2010-02-06T23:19:58Z</time>
      </trkpt>
      <trkpt lat="47.579326014965773" lon="18.919103024527431">
        <ele>377.22699999999998</ele>
        <time>2010-02-06T23:20:02Z</time>
      </trkpt>
      <trkpt lat="47.57932199165225" lon="18.919033035635948">
        <ele>377.02699999999999</ele>
        <time>2010-02-06T23:20:06Z</time>
      </trkpt>
      <trkpt lat="47.579308999702334" lon="18.918968997895718">
        <ele>377.37700000000001</ele>
        <time>2010-02-06T23:20:10Z</time>
      </trkpt>
      <trkpt lat="47.579287961125374" lon="18.918918035924435">
        <ele>377.92099999999999</ele>
        <time>2010-02-06T23:20:14Z</time>
      </trkpt>
      <trkpt lat="47.579254014417529" lon="18.91886699013412">
        <ele>378.66199999999998</ele>
        <time>2010-02-06T23:20:18Z</time>
      </trkpt>
      <trkpt lat="47.579224007204175" lon="18.918807981535792">
        <ele>378.18400000000003</ele>
        <time>2010-02-06T23:20:22Z</time>
      </trkpt>
      <trkpt lat="47.57921596057713" lon="18.918742015957832">
        <ele>378.49099999999999</ele>
        <time>2010-02-06T23:20:26Z</time>
      </trkpt>
      <trkpt lat="47.579209003597498" lon="18.918680995702744">
        <ele>379.08199999999999</ele>
        <time>2010-02-06T23:20:30Z</time>
      </trkpt>
      <trkpt lat="47.579228030517697" lon="18.918633973225951">
        <ele>379.14600000000002</ele>
        <time>2010-02-06T23:20:33Z</time>
      </trkpt>
      <trkpt lat="47.579223001375794" lon="18.918578987941146">
        <ele>379.90300000000002</ele>
        <time>2010-02-06T23:20:37Z</time>
      </trkpt>
      <trkpt lat="47.579226018860936" lon="18.918519979342818">
        <ele>380.47800000000001</ele>
        <time>2010-02-06T23:20:41Z</time>
      </trkpt>
      <trkpt lat="47.579236999154091" lon="18.918458037078381">
        <ele>381.41000000000003</ele>
        <time>2010-02-06T23:20:45Z</time>
      </trkpt>
      <trkpt lat="47.579230964183807" lon="18.918407997116446">
        <ele>381.13099999999997</ele>
        <time>2010-02-06T23:20:49Z</time>
      </trkpt>
      <trkpt lat="47.579232975840569" lon="18.918358962982893">
        <ele>381.64400000000001</ele>
        <time>2010-02-06T23:20:53Z</time>
      </trkpt>
      <trkpt lat="47.579252002760768" lon="18.918313030153513">
        <ele>382.56700000000001</ele>
        <time>2010-02-06T23:20:57Z</time>
      </trkpt>
      <trkpt lat="47.579233981668949" lon="18.918246980756521">
        <ele>382.46600000000001</ele>
        <time>2010-02-06T23:21:02Z</time>
      </trkpt>
      <trkpt lat="47.579223001375794" lon="18.918190989643335">
        <ele>383.14600000000002</ele>
        <time>2010-02-06T23:21:06Z</time>
      </trkpt>
      <trkpt lat="47.579220989719033" lon="18.918128041550517">
        <ele>383.71100000000001</ele>
        <time>2010-02-06T23:21:10Z</time>
      </trkpt>
      <trkpt lat="47.579247979447246" lon="18.918066015467048">
        <ele>385.214</ele>
        <time>2010-02-06T23:21:15Z</time>
      </trkpt>
      <trkpt lat="47.5792589597404" lon="18.918012036010623">
        <ele>386.10399999999998</ele>
        <time>2010-02-06T23:21:19Z</time>
      </trkpt>
      <trkpt lat="47.579260971397161" lon="18.917958978563547">
        <ele>387.19299999999998</ele>
        <time>2010-02-06T23:21:23Z</time>
      </trkpt>
      <trkpt lat="47.579242028295994" lon="18.917889995500445">
        <ele>387.42000000000002</ele>
        <time>2010-02-06T23:21:27Z</time>
      </trkpt>
      <trkpt lat="47.579232975840569" lon="18.917839033529162">
        <ele>387.78899999999999</ele>
        <time>2010-02-06T23:21:31Z</time>
      </trkpt>
      <trkpt lat="47.579216966405511" lon="18.917782958596945">
        <ele>388.41300000000001</ele>
        <time>2010-02-06T23:21:35Z</time>
      </trkpt>
      <trkpt lat="47.579197017475963" lon="18.917722022160888">
        <ele>389.53300000000002</ele>
        <time>2010-02-06T23:21:39Z</time>
      </trkpt>
      <trkpt lat="47.579180002212524" lon="18.917653039097786">
        <ele>389.44900000000001</ele>
        <time>2010-02-06T23:21:43Z</time>
      </trkpt>
      <trkpt lat="47.579166004434228" lon="18.917587995529175">
        <ele>389.49700000000001</ele>
        <time>2010-02-06T23:21:47Z</time>
      </trkpt>
      <trkpt lat="47.579151000827551" lon="18.917525969445705">
        <ele>389.78899999999999</ele>
        <time>2010-02-06T23:21:51Z</time>
      </trkpt>
      <trkpt lat="47.579140020534396" lon="18.917462015524507">
        <ele>390.46499999999997</ele>
        <time>2010-02-06T23:21:55Z</time>
      </trkpt>
      <trkpt lat="47.579145971685648" lon="18.917399989441037">
        <ele>390.19299999999998</ele>
        <time>2010-02-06T23:22:00Z</time>
      </trkpt>
      <trkpt lat="47.579158963635564" lon="18.917351961135864">
        <ele>390.88799999999998</ele>
        <time>2010-02-06T23:22:04Z</time>
      </trkpt>
      <trkpt lat="47.57917002774775" lon="18.917293036356568">
        <ele>390.459</ele>
        <time>2010-02-06T23:22:08Z</time>
      </trkpt>
      <trkpt lat="47.57919198833406" lon="18.917222963646054">
        <ele>391.51400000000001</ele>
        <time>2010-02-06T23:22:13Z</time>
      </trkpt>
      <trkpt lat="47.579211015254259" lon="18.917155992239714">
        <ele>391.68099999999998</ele>
        <time>2010-02-06T23:22:18Z</time>
      </trkpt>
      <trkpt lat="47.579243034124374" lon="18.917111987248063">
        <ele>392.62599999999998</ele>
        <time>2010-02-06T23:22:22Z</time>
      </trkpt>
      <trkpt lat="47.579281004145741" lon="18.917078962549567">
        <ele>393.63200000000001</ele>
        <time>2010-02-06T23:22:25Z</time>
      </trkpt>
      <trkpt lat="47.579308999702334" lon="18.917032023891807">
        <ele>393.678</ele>
        <time>2010-02-06T23:22:29Z</time>
      </trkpt>
      <trkpt lat="47.57934101857245" lon="18.916983995586634">
        <ele>394.399</ele>
        <time>2010-02-06T23:22:33Z</time>
      </trkpt>
      <trkpt lat="47.57936398498714" lon="18.916942002251744">
        <ele>395.375</ele>
        <time>2010-02-06T23:22:37Z</time>
      </trkpt>
      <trkpt lat="47.579376976937056" lon="18.916866984218359">
        <ele>395.99599999999998</ele>
        <time>2010-02-06T23:22:41Z</time>
      </trkpt>
      <trkpt lat="47.579392986372113" lon="18.916801018640399">
        <ele>395.79399999999998</ele>
        <time>2010-02-06T23:22:45Z</time>
      </trkpt>
      <trkpt lat="47.579402960836887" lon="18.916747961193323">
        <ele>395.71600000000001</ele>
        <time>2010-02-06T23:22:48Z</time>
      </trkpt>
      <trkpt lat="47.579416958615184" lon="18.91669699922204">
        <ele>396.33100000000002</ele>
        <time>2010-02-06T23:22:51Z</time>
      </trkpt>
      <trkpt lat="47.57942802272737" lon="18.916655005887151">
        <ele>396.45100000000002</ele>
        <time>2010-02-06T23:22:54Z</time>
      </trkpt>
      <trkpt lat="47.579445037990808" lon="18.916608989238739">
        <ele>396.63099999999997</ele>
        <time>2010-02-06T23:22:58Z</time>
      </trkpt>
      <trkpt lat="47.57947001606226" lon="18.916577976197004">
        <ele>396.54700000000003</ele>
        <time>2010-02-06T23:23:01Z</time>
      </trkpt>
      <trkpt lat="47.579495999962091" lon="18.916540006175637">
        <ele>396.767</ele>
        <time>2010-02-06T23:23:05Z</time>
      </trkpt>
      <trkpt lat="47.579670008271933" lon="18.916515028104186">
        <ele>396.93599999999998</ele>
        <time>2010-02-06T23:24:30Z</time>
      </trkpt>
      <trkpt lat="47.579718036577106" lon="18.916500024497509">
        <ele>397.25099999999998</ele>
        <time>2010-02-06T23:24:34Z</time>
      </trkpt>
      <trkpt lat="47.579760029911995" lon="18.91648099757731">
        <ele>397.84199999999998</ele>
        <time>2010-02-06T23:24:38Z</time>
      </trkpt>
      <trkpt lat="47.579801017418504" lon="18.916464988142252">
        <ele>398.63999999999999</ele>
        <time>2010-02-06T23:24:42Z</time>
      </trkpt>
      <trkpt lat="47.579842004925013" lon="18.916451996192336">
        <ele>399.03100000000001</ele>
        <time>2010-02-06T23:24:46Z</time>
      </trkpt>
      <trkpt lat="47.579876035451889" lon="18.916449984535575">
        <ele>399.67599999999999</ele>
        <time>2010-02-06T23:24:49Z</time>
      </trkpt>
      <trkpt lat="47.579918028786778" lon="18.916453002020717">
        <ele>400.245</ele>
        <time>2010-02-06T23:24:56Z</time>
      </trkpt>
      <trkpt lat="47.57996597327292" lon="18.91643799841404">
        <ele>399.83100000000002</ele>
        <time>2010-02-06T23:25:01Z</time>
      </trkpt>
      <trkpt lat="47.579998997971416" lon="18.91637303866446">
        <ele>399.78100000000001</ele>
        <time>2010-02-06T23:25:05Z</time>
      </trkpt>
      <trkpt lat="47.580019030719995" lon="18.916330961510539">
        <ele>400.589</ele>
        <time>2010-02-06T23:25:08Z</time>
      </trkpt>
      <trkpt lat="47.58004903793335" lon="18.916274970397353">
        <ele>400.92500000000001</ele>
        <time>2010-02-06T23:25:12Z</time>
      </trkpt>
      <trkpt lat="47.580078961327672" lon="18.916231971234083">
        <ele>400.98200000000003</ele>
        <time>2010-02-06T23:25:15Z</time>
      </trkpt>
      <trkpt lat="47.580107040703297" lon="18.91618000343442">
        <ele>401.32999999999998</ele>
        <time>2010-02-06T23:25:18Z</time>
      </trkpt>
      <trkpt lat="47.580132018774748" lon="18.916135998442769">
        <ele>401.404</ele>
        <time>2010-02-06T23:25:21Z</time>
      </trkpt>
      <trkpt lat="47.580162025988102" lon="18.916083024814725">
        <ele>401.99099999999999</ele>
        <time>2010-02-06T23:25:25Z</time>
      </trkpt>
      <trkpt lat="47.580192033201456" lon="18.91603097319603">
        <ele>401.61900000000003</ele>
        <time>2010-02-06T23:25:28Z</time>
      </trkpt>
      <trkpt lat="47.580199996009469" lon="18.915986968204379">
        <ele>401.75999999999999</ele>
        <time>2010-02-06T23:25:31Z</time>
      </trkpt>
      <trkpt lat="47.580235032364726" lon="18.915950004011393">
        <ele>401.36900000000003</ele>
        <time>2010-02-06T23:25:34Z</time>
      </trkpt>
      <trkpt lat="47.580260010436177" lon="18.915909016504884">
        <ele>401.51600000000002</ele>
        <time>2010-02-06T23:25:37Z</time>
      </trkpt>
      <trkpt lat="47.5802640337497" lon="18.915853025391698">
        <ele>401.56599999999997</ele>
        <time>2010-02-06T23:25:42Z</time>
      </trkpt>
      <trkpt lat="47.580282976850867" lon="18.91579301096499">
        <ele>402.20100000000002</ele>
        <time>2010-02-06T23:25:46Z</time>
      </trkpt>
      <trkpt lat="47.580289011821151" lon="18.915718998759985">
        <ele>401.56200000000001</ele>
        <time>2010-02-06T23:25:50Z</time>
      </trkpt>
      <trkpt lat="47.580278031527996" lon="18.915646998211741">
        <ele>401.13799999999998</ele>
        <time>2010-02-06T23:25:54Z</time>
      </trkpt>
      <trkpt lat="47.580261016264558" lon="18.915574997663498">
        <ele>401.23599999999999</ele>
        <time>2010-02-06T23:25:58Z</time>
      </trkpt>
      <trkpt lat="47.580282976850867" lon="18.915506014600396">
        <ele>401.29700000000003</ele>
        <time>2010-02-06T23:26:02Z</time>
      </trkpt>
      <trkpt lat="47.580319019034505" lon="18.915442982688546">
        <ele>401.404</ele>
        <time>2010-02-06T23:26:06Z</time>
      </trkpt>
      <trkpt lat="47.58035003207624" lon="18.915397971868515">
        <ele>401.63299999999998</ele>
        <time>2010-02-06T23:26:09Z</time>
      </trkpt>
      <trkpt lat="47.580391019582748" lon="18.915352039039135">
        <ele>402.26600000000002</ele>
        <time>2010-02-06T23:26:13Z</time>
      </trkpt>
      <trkpt lat="47.580427983775735" lon="18.915313985198736">
        <ele>402.25700000000001</ele>
        <time>2010-02-06T23:26:18Z</time>
      </trkpt>
      <trkpt lat="47.580457990989089" lon="18.915264029055834">
        <ele>402.39499999999998</ele>
        <time>2010-02-06T23:26:23Z</time>
      </trkpt>
      <trkpt lat="47.58048003539443" lon="18.915202002972364">
        <ele>402.173</ele>
        <time>2010-02-06T23:26:27Z</time>
      </trkpt>
      <trkpt lat="47.580492021515965" lon="18.915136037394404">
        <ele>402.35899999999998</ele>
        <time>2010-02-06T23:26:31Z</time>
      </trkpt>
      <trkpt lat="47.580514987930655" lon="18.915071999654174">
        <ele>402.988</ele>
        <time>2010-02-06T23:26:35Z</time>
      </trkpt>
      <trkpt lat="47.580552035942674" lon="18.915026988834143">
        <ele>402.495</ele>
        <time>2010-02-06T23:26:38Z</time>
      </trkpt>
      <trkpt lat="47.580579025670886" lon="18.914981978014112">
        <ele>403.18900000000002</ele>
        <time>2010-02-06T23:26:41Z</time>
      </trkpt>
      <trkpt lat="47.580595035105944" lon="18.914911989122629">
        <ele>402.483</ele>
        <time>2010-02-06T23:26:44Z</time>
      </trkpt>
      <trkpt lat="47.580607021227479" lon="18.914858009666204">
        <ele>402.49299999999999</ele>
        <time>2010-02-06T23:26:47Z</time>
      </trkpt>
      <trkpt lat="47.58060802705586" lon="18.914803024381399">
        <ele>402.62700000000001</ele>
        <time>2010-02-06T23:26:50Z</time>
      </trkpt>
      <trkpt lat="47.58061096072197" lon="18.914748961105943">
        <ele>403.346</ele>
        <time>2010-02-06T23:26:53Z</time>
      </trkpt>
      <trkpt lat="47.580610038712621" lon="18.914691964164376">
        <ele>402.73399999999998</ele>
        <time>2010-02-06T23:26:56Z</time>
      </trkpt>
      <trkpt lat="47.580620013177395" lon="18.914644019678235">
        <ele>402.392</ele>
        <time>2010-02-06T23:26:59Z</time>
      </trkpt>
      <trkpt lat="47.580635016784072" lon="18.914596997201443">
        <ele>402.26299999999998</ele>
        <time>2010-02-06T23:27:02Z</time>
      </trkpt>
      <trkpt lat="47.580648008733988" lon="18.914551986381412">
        <ele>403.20100000000002</ele>
        <time>2010-02-06T23:27:05Z</time>
      </trkpt>
      <trkpt lat="47.580680027604103" lon="18.914514016360044">
        <ele>402.96499999999997</ele>
        <time>2010-02-06T23:27:08Z</time>
      </trkpt>
      <trkpt lat="47.580699976533651" lon="18.914467999711633">
        <ele>402.642</ele>
        <time>2010-02-06T23:27:11Z</time>
      </trkpt>
      <trkpt lat="47.58071699179709" lon="18.914423994719982">
        <ele>402.97399999999999</ele>
        <time>2010-02-06T23:27:15Z</time>
      </trkpt>
      <trkpt lat="47.580750016495585" lon="18.914387030526996">
        <ele>402.89699999999999</ele>
        <time>2010-02-06T23:27:20Z</time>
      </trkpt>
      <trkpt lat="47.580784969031811" lon="18.914365991950035">
        <ele>402.983</ele>
        <time>2010-02-06T23:27:24Z</time>
      </trkpt>
      <trkpt lat="47.580839032307267" lon="18.914322992786765">
        <ele>403.79300000000001</ele>
        <time>2010-02-06T23:27:30Z</time>
      </trkpt>
      <trkpt lat="47.580880019813776" lon="18.914302038028836">
        <ele>403.70800000000003</ele>
        <time>2010-02-06T23:27:33Z</time>
      </trkpt>
      <trkpt lat="47.580913966521621" lon="18.914259960874915">
        <ele>402.84699999999998</ele>
        <time>2010-02-06T23:27:37Z</time>
      </trkpt>
      <trkpt lat="47.580946991220117" lon="18.914210004732013">
        <ele>402.65199999999999</ele>
        <time>2010-02-06T23:27:41Z</time>
      </trkpt>
      <trkpt lat="47.580970963463187" lon="18.91416197642684">
        <ele>402.55599999999998</ele>
        <time>2010-02-06T23:27:45Z</time>
      </trkpt>
      <trkpt lat="47.581001976504922" lon="18.91411897726357">
        <ele>402.47500000000002</ele>
        <time>2010-02-06T23:27:48Z</time>
      </trkpt>
      <trkpt lat="47.581037012860179" lon="18.914072960615158">
        <ele>402.41899999999998</ele>
        <time>2010-02-06T23:27:52Z</time>
      </trkpt>
      <trkpt lat="47.581055033951998" lon="18.914005989208817">
        <ele>402.55700000000002</ele>
        <time>2010-02-06T23:27:56Z</time>
      </trkpt>
      <trkpt lat="47.581067020073533" lon="18.913943963125348">
        <ele>402.113</ele>
        <time>2010-02-06T23:28:00Z</time>
      </trkpt>
      <trkpt lat="47.581070959568024" lon="18.913869028910995">
        <ele>401.80700000000002</ele>
        <time>2010-02-06T23:28:03Z</time>
      </trkpt>
      <trkpt lat="47.581075988709927" lon="18.913816977292299">
        <ele>402.274</ele>
        <time>2010-02-06T23:28:06Z</time>
      </trkpt>
      <trkpt lat="47.581105995923281" lon="18.913759980350733">
        <ele>402.08499999999998</ele>
        <time>2010-02-06T23:28:10Z</time>
      </trkpt>
      <trkpt lat="47.581131979823112" lon="18.913703989237547">
        <ele>400.94299999999998</ele>
        <time>2010-02-06T23:28:14Z</time>
      </trkpt>
      <trkpt lat="47.581171961501241" lon="18.91366601921618">
        <ele>401.16500000000002</ele>
        <time>2010-02-06T23:28:20Z</time>
      </trkpt>
      <trkpt lat="47.581214038655162" lon="18.913608016446233">
        <ele>402.238</ele>
        <time>2010-02-06T23:28:24Z</time>
      </trkpt>
      <trkpt lat="47.581252008676529" lon="18.91353802755475">
        <ele>401.459</ele>
        <time>2010-02-06T23:28:29Z</time>
      </trkpt>
      <trkpt lat="47.581316968426108" lon="18.91349502839148">
        <ele>401.32299999999998</ele>
        <time>2010-02-06T23:28:33Z</time>
      </trkpt>
      <trkpt lat="47.581345969811082" lon="18.913459992036223">
        <ele>400.88600000000002</ele>
        <time>2010-02-06T23:28:36Z</time>
      </trkpt>
      <trkpt lat="47.58138201199472" lon="18.913434008136392">
        <ele>401.39299999999997</ele>
        <time>2010-02-06T23:28:39Z</time>
      </trkpt>
      <trkpt lat="47.581409001722932" lon="18.913392014801502">
        <ele>401.11700000000002</ele>
        <time>2010-02-06T23:28:42Z</time>
      </trkpt>
      <trkpt lat="47.581436997279525" lon="18.913352033123374">
        <ele>401.13799999999998</ele>
        <time>2010-02-06T23:28:45Z</time>
      </trkpt>
      <trkpt lat="47.581452000886202" lon="18.913291012868285">
        <ele>401.30799999999999</ele>
        <time>2010-02-06T23:28:49Z</time>
      </trkpt>
      <trkpt lat="47.581473039463162" lon="18.913232004269958">
        <ele>401.00799999999998</ele>
        <time>2010-02-06T23:28:54Z</time>
      </trkpt>
      <trkpt lat="47.581473039463162" lon="18.91315002925694">
        <ele>400.89999999999998</ele>
        <time>2010-02-06T23:28:59Z</time>
      </trkpt>
      <trkpt lat="47.58149097673595" lon="18.913092026486993">
        <ele>401.06999999999999</ele>
        <time>2010-02-06T23:29:03Z</time>
      </trkpt>
      <trkpt lat="47.581527018919587" lon="18.913063025102019">
        <ele>401.19600000000003</ele>
        <time>2010-02-06T23:29:06Z</time>
      </trkpt>
      <trkpt lat="47.581568006426096" lon="18.913012985140085">
        <ele>401.58699999999999</ele>
        <time>2010-02-06T23:29:10Z</time>
      </trkpt>
      <trkpt lat="47.58159801363945" lon="18.912971997633576">
        <ele>401.99900000000002</ele>
        <time>2010-02-06T23:29:13Z</time>
      </trkpt>
      <trkpt lat="47.581644030287862" lon="18.912939978763461">
        <ele>401.67700000000002</ele>
        <time>2010-02-06T23:29:16Z</time>
      </trkpt>
      <trkpt lat="47.581677976995707" lon="18.912905026227236">
        <ele>401.67500000000001</ele>
        <time>2010-02-06T23:29:19Z</time>
      </trkpt>
      <trkpt lat="47.581713013350964" lon="18.912864960730076">
        <ele>401.31299999999999</ele>
        <time>2010-02-06T23:29:22Z</time>
      </trkpt>
      <trkpt lat="47.581724999472499" lon="18.912819027900696">
        <ele>401.82999999999998</ele>
        <time>2010-02-06T23:29:28Z</time>
      </trkpt>
      <trkpt lat="47.581762969493866" lon="18.912779968231916">
        <ele>401.67200000000003</ele>
        <time>2010-02-06T23:29:33Z</time>
      </trkpt>
      <trkpt lat="47.581806974485517" lon="18.91274300403893">
        <ele>401.49599999999998</ele>
        <time>2010-02-06T23:29:37Z</time>
      </trkpt>
      <trkpt lat="47.581861037760973" lon="18.912696987390518">
        <ele>401.48200000000003</ele>
        <time>2010-02-06T23:29:41Z</time>
      </trkpt>
      <trkpt lat="47.581877969205379" lon="18.912639990448952">
        <ele>401.79700000000003</ele>
        <time>2010-02-06T23:29:45Z</time>
      </trkpt>
      <trkpt lat="47.581908982247114" lon="18.912588022649288">
        <ele>401.64299999999997</ele>
        <time>2010-02-06T23:29:49Z</time>
      </trkpt>
      <trkpt lat="47.581957010552287" lon="18.912547035142779">
        <ele>401.65199999999999</ele>
        <time>2010-02-06T23:29:53Z</time>
      </trkpt>
      <trkpt lat="47.581997998058796" lon="18.91248500905931">
        <ele>401.90499999999997</ele>
        <time>2010-02-06T23:29:57Z</time>
      </trkpt>
      <trkpt lat="47.582014007493854" lon="18.912434969097376">
        <ele>402.11200000000002</ele>
        <time>2010-02-06T23:30:00Z</time>
      </trkpt>
      <trkpt lat="47.582040997222066" lon="18.912389958277345">
        <ele>402.38799999999998</ele>
        <time>2010-02-06T23:30:03Z</time>
      </trkpt>
      <trkpt lat="47.582063041627407" lon="18.912346959114075">
        <ele>402.37799999999999</ele>
        <time>2010-02-06T23:30:06Z</time>
      </trkpt>
      <trkpt lat="47.582124983891845" lon="18.912305971607566">
        <ele>402.03300000000002</ele>
        <time>2010-02-06T23:30:09Z</time>
      </trkpt>
      <trkpt lat="47.582174018025398" lon="18.912275964394212">
        <ele>402.601</ele>
        <time>2010-02-06T23:30:11Z</time>
      </trkpt>
      <trkpt lat="47.582192039117217" lon="18.912223996594548">
        <ele>401.84300000000002</ele>
        <time>2010-02-06T23:30:14Z</time>
      </trkpt>
      <trkpt lat="47.582205031067133" lon="18.912169011309743">
        <ele>401.38099999999997</ele>
        <time>2010-02-06T23:30:17Z</time>
      </trkpt>
      <trkpt lat="47.582217017188668" lon="18.912116959691048">
        <ele>401.43900000000002</ele>
        <time>2010-02-06T23:30:20Z</time>
      </trkpt>
      <trkpt lat="47.582234032452106" lon="18.912056023254991">
        <ele>401.584</ele>
        <time>2010-02-06T23:30:23Z</time>
      </trkpt>
      <trkpt lat="47.582250963896513" lon="18.912001959979534">
        <ele>401.57600000000002</ele>
        <time>2010-02-06T23:30:26Z</time>
      </trkpt>
      <trkpt lat="47.582269990816712" lon="18.911949992179871">
        <ele>401.23399999999998</ele>
        <time>2010-02-06T23:30:29Z</time>
      </trkpt>
      <trkpt lat="47.582290023565292" lon="18.911897018551826">
        <ele>401.279</ele>
        <time>2010-02-06T23:30:32Z</time>
      </trkpt>
      <trkpt lat="47.582339979708195" lon="18.911844966933131">
        <ele>401.315</ele>
        <time>2010-02-06T23:30:36Z</time>
      </trkpt>
      <trkpt lat="47.582369986921549" lon="18.91179702244699">
        <ele>401.61200000000002</ele>
        <time>2010-02-06T23:30:39Z</time>
      </trkpt>
      <trkpt lat="47.582393037155271" lon="18.911747988313437">
        <ele>400.76900000000001</ele>
        <time>2010-02-06T23:30:42Z</time>
      </trkpt>
      <trkpt lat="47.582425978034735" lon="18.911703983321786">
        <ele>400.38400000000001</ele>
        <time>2010-02-06T23:30:45Z</time>
      </trkpt>
      <trkpt lat="47.582471994683146" lon="18.911652015522122">
        <ele>400.95800000000003</ele>
        <time>2010-02-06T23:30:48Z</time>
      </trkpt>
      <trkpt lat="47.582488004118204" lon="18.911594012752175">
        <ele>400.80000000000001</ele>
        <time>2010-02-06T23:30:51Z</time>
      </trkpt>
      <trkpt lat="47.582538966089487" lon="18.911543972790241">
        <ele>400.78399999999999</ele>
        <time>2010-02-06T23:30:54Z</time>
      </trkpt>
      <trkpt lat="47.582630999386311" lon="18.911479013040662">
        <ele>399.89400000000001</ele>
        <time>2010-02-06T23:30:58Z</time>
      </trkpt>
      <trkpt lat="47.582665029913187" lon="18.911423021927476">
        <ele>400.017</ele>
        <time>2010-02-06T23:31:01Z</time>
      </trkpt>
      <trkpt lat="47.582687996327877" lon="18.91136895865202">
        <ele>400.46699999999998</ele>
        <time>2010-02-06T23:31:04Z</time>
      </trkpt>
      <trkpt lat="47.582721021026373" lon="18.911313973367214">
        <ele>400.18400000000003</ele>
        <time>2010-02-06T23:31:08Z</time>
      </trkpt>
      <trkpt lat="47.582756979390979" lon="18.911270974203944">
        <ele>400.37599999999998</ele>
        <time>2010-02-06T23:31:11Z</time>
      </trkpt>
      <trkpt lat="47.582784974947572" lon="18.911230992525816">
        <ele>399.92200000000003</ele>
        <time>2010-02-06T23:31:14Z</time>
      </trkpt>
      <trkpt lat="47.582815987989306" lon="18.911179024726152">
        <ele>400.40300000000002</ele>
        <time>2010-02-06T23:31:17Z</time>
      </trkpt>
      <trkpt lat="47.582841971889138" lon="18.911124039441347">
        <ele>399.74400000000003</ele>
        <time>2010-02-06T23:31:20Z</time>
      </trkpt>
      <trkpt lat="47.582863010466099" lon="18.911063019186258">
        <ele>399.78399999999999</ele>
        <time>2010-02-06T23:31:23Z</time>
      </trkpt>
      <trkpt lat="47.582882037386298" lon="18.911011973395944">
        <ele>399.12400000000002</ele>
        <time>2010-02-06T23:31:26Z</time>
      </trkpt>
      <trkpt lat="47.582897963002324" lon="18.910953970625997">
        <ele>400.22899999999998</ele>
        <time>2010-02-06T23:31:29Z</time>
      </trkpt>
      <trkpt lat="47.582920007407665" lon="18.910899991169572">
        <ele>399.77600000000001</ele>
        <time>2010-02-06T23:31:32Z</time>
      </trkpt>
      <trkpt lat="47.582954959943891" lon="18.910863026976585">
        <ele>399.43099999999998</ele>
        <time>2010-02-06T23:31:35Z</time>
      </trkpt>
      <trkpt lat="47.582992007955909" lon="18.910828996449709">
        <ele>399.68599999999998</ele>
        <time>2010-02-06T23:31:38Z</time>
      </trkpt>
      <trkpt lat="47.583022015169263" lon="18.9107880089432">
        <ele>399.83600000000001</ele>
        <time>2010-02-06T23:31:41Z</time>
      </trkpt>
      <trkpt lat="47.583052022382617" lon="18.91074400395155">
        <ele>399.45100000000002</ele>
        <time>2010-02-06T23:31:44Z</time>
      </trkpt>
      <trkpt lat="47.583096027374268" lon="18.910690024495125">
        <ele>399.505</ele>
        <time>2010-02-06T23:31:48Z</time>
      </trkpt>
      <trkpt lat="47.583157969638705" lon="18.91063503921032">
        <ele>399.34199999999998</ele>
        <time>2010-02-06T23:31:53Z</time>
      </trkpt>
      <trkpt lat="47.583219995722175" lon="18.910597991198301">
        <ele>400.64999999999998</ele>
        <time>2010-02-06T23:31:56Z</time>
      </trkpt>
      <trkpt lat="47.583255032077432" lon="18.91057200729847">
        <ele>399.529</ele>
        <time>2010-02-06T23:31:59Z</time>
      </trkpt>
      <trkpt lat="47.583285039290786" lon="18.910536970943213">
        <ele>399.55000000000001</ele>
        <time>2010-02-06T23:32:02Z</time>
      </trkpt>
      <trkpt lat="47.583323009312153" lon="18.910494977608323">
        <ele>400.34300000000002</ele>
        <time>2010-02-06T23:32:05Z</time>
      </trkpt>
      <trkpt lat="47.583344969898462" lon="18.910440998151898">
        <ele>399.81</ele>
        <time>2010-02-06T23:32:08Z</time>
      </trkpt>
      <trkpt lat="47.583347987383604" lon="18.910378972068429">
        <ele>399.78800000000001</ele>
        <time>2010-02-06T23:32:11Z</time>
      </trkpt>
      <trkpt lat="47.583357961848378" lon="18.910313006490469">
        <ele>399.56999999999999</ele>
        <time>2010-02-06T23:32:14Z</time>
      </trkpt>
      <trkpt lat="47.583369025960565" lon="18.910252992063761">
        <ele>400.31900000000002</ele>
        <time>2010-02-06T23:32:17Z</time>
      </trkpt>
      <trkpt lat="47.583389980718493" lon="18.910195995122194">
        <ele>400.38</ele>
        <time>2010-02-06T23:32:20Z</time>
      </trkpt>
      <trkpt lat="47.583406995981932" lon="18.910137992352247">
        <ele>399.77100000000002</ele>
        <time>2010-02-06T23:32:23Z</time>
      </trkpt>
      <trkpt lat="47.583432979881763" lon="18.910087030380964">
        <ele>400.43299999999999</ele>
        <time>2010-02-06T23:32:26Z</time>
      </trkpt>
      <trkpt lat="47.583475979045033" lon="18.910040007904172">
        <ele>399.57999999999998</ele>
        <time>2010-02-06T23:32:29Z</time>
      </trkpt>
      <trkpt lat="47.58351000957191" lon="18.909988040104508">
        <ele>399.65499999999997</ele>
        <time>2010-02-06T23:32:32Z</time>
      </trkpt>
      <trkpt lat="47.583539010956883" lon="18.90992701984942">
        <ele>400.51999999999998</ele>
        <time>2010-02-06T23:32:35Z</time>
      </trkpt>
      <trkpt lat="47.583568012341857" lon="18.909873040392995">
        <ele>399.70800000000003</ele>
        <time>2010-02-06T23:32:38Z</time>
      </trkpt>
      <trkpt lat="47.583600031211972" lon="18.9098209887743">
        <ele>400.11200000000002</ele>
        <time>2010-02-06T23:32:41Z</time>
      </trkpt>
      <trkpt lat="47.583636995404959" lon="18.909761980175972">
        <ele>400.11700000000002</ele>
        <time>2010-02-06T23:32:44Z</time>
      </trkpt>
      <trkpt lat="47.58366197347641" lon="18.909700037911534">
        <ele>399.91399999999999</ele>
        <time>2010-02-06T23:32:47Z</time>
      </trkpt>
      <trkpt lat="47.58366297930479" lon="18.909637005999684">
        <ele>399.92399999999998</ele>
        <time>2010-02-06T23:32:50Z</time>
      </trkpt>
      <trkpt lat="47.583685023710132" lon="18.909572968259454">
        <ele>399.69499999999999</ele>
        <time>2010-02-06T23:32:53Z</time>
      </trkpt>
      <trkpt lat="47.583684017881751" lon="18.909507002681494">
        <ele>400.20299999999997</ele>
        <time>2010-02-06T23:32:56Z</time>
      </trkpt>
      <trkpt lat="47.583696004003286" lon="18.909436007961631">
        <ele>399.86000000000001</ele>
        <time>2010-02-06T23:32:59Z</time>
      </trkpt>
      <trkpt lat="47.583715030923486" lon="18.9093909971416">
        <ele>400.642</ele>
        <time>2010-02-06T23:33:01Z</time>
      </trkpt>
      <trkpt lat="47.58374503813684" lon="18.909331988543272">
        <ele>399.887</ele>
        <time>2010-02-06T23:33:04Z</time>
      </trkpt>
      <trkpt lat="47.583774961531162" lon="18.909280020743608">
        <ele>400.892</ele>
        <time>2010-02-06T23:33:07Z</time>
      </trkpt>
      <trkpt lat="47.583815027028322" lon="18.909240961074829">
        <ele>399.69</ele>
        <time>2010-02-06T23:33:09Z</time>
      </trkpt>
      <trkpt lat="47.583845034241676" lon="18.909208020195365">
        <ele>400.88099999999997</ele>
        <time>2010-02-06T23:33:11Z</time>
      </trkpt>
      <trkpt lat="47.583883004263043" lon="18.909179018810391">
        <ele>400.36000000000001</ele>
        <time>2010-02-06T23:33:13Z</time>
      </trkpt>
      <trkpt lat="47.583912005648017" lon="18.909141970798373">
        <ele>400.35000000000002</ele>
        <time>2010-02-06T23:33:15Z</time>
      </trkpt>
      <trkpt lat="47.583932038396597" lon="18.909101989120245">
        <ele>400.56</ele>
        <time>2010-02-06T23:33:17Z</time>
      </trkpt>
      <trkpt lat="47.583952993154526" lon="18.909053960815072">
        <ele>400.55700000000002</ele>
        <time>2010-02-06T23:33:20Z</time>
      </trkpt>
      <trkpt lat="47.583976965397596" lon="18.909002998843789">
        <ele>400.17200000000003</ele>
        <time>2010-02-06T23:33:23Z</time>
      </trkpt>
      <trkpt lat="47.583990963175893" lon="18.908965028822422">
        <ele>401.32499999999999</ele>
        <time>2010-02-06T23:33:25Z</time>
      </trkpt>
      <trkpt lat="47.583996998146176" lon="18.908899985253811">
        <ele>400.392</ele>
        <time>2010-02-06T23:33:28Z</time>
      </trkpt>
      <trkpt lat="47.584015019237995" lon="18.908836031332612">
        <ele>400.21300000000002</ele>
        <time>2010-02-06T23:33:31Z</time>
      </trkpt>
      <trkpt lat="47.584047960117459" lon="18.908780040219426">
        <ele>401.07299999999998</ele>
        <time>2010-02-06T23:33:34Z</time>
      </trkpt>
      <trkpt lat="47.584058018401265" lon="18.908718014135957">
        <ele>400.76900000000001</ele>
        <time>2010-02-06T23:33:37Z</time>
      </trkpt>
      <trkpt lat="47.584058018401265" lon="18.908652970567346">
        <ele>400.76400000000001</ele>
        <time>2010-02-06T23:33:40Z</time>
      </trkpt>
      <trkpt lat="47.584064975380898" lon="18.908589016646147">
        <ele>400.512</ele>
        <time>2010-02-06T23:33:43Z</time>
      </trkpt>
      <trkpt lat="47.584088025614619" lon="18.908522967249155">
        <ele>401.32600000000002</ele>
        <time>2010-02-06T23:33:46Z</time>
      </trkpt>
      <trkpt lat="47.584100011736155" lon="18.908459013327956">
        <ele>401.476</ele>
        <time>2010-02-06T23:33:49Z</time>
      </trkpt>
      <trkpt lat="47.584116021171212" lon="18.908407967537642">
        <ele>400.73899999999998</ele>
        <time>2010-02-06T23:33:52Z</time>
      </trkpt>
      <trkpt lat="47.584131024777889" lon="18.908358011394739">
        <ele>400.83800000000002</ele>
        <time>2010-02-06T23:33:55Z</time>
      </trkpt>
      <trkpt lat="47.584148040041327" lon="18.908305037766695">
        <ele>401.35300000000001</ele>
        <time>2010-02-06T23:33:58Z</time>
      </trkpt>
      <trkpt lat="47.584163965657353" lon="18.908243011683226">
        <ele>401.524</ele>
        <time>2010-02-06T23:34:01Z</time>
      </trkpt>
      <trkpt lat="47.584187015891075" lon="18.908207975327969">
        <ele>401.35300000000001</ele>
        <time>2010-02-06T23:34:03Z</time>
      </trkpt>
      <trkpt lat="47.584215011447668" lon="18.908149972558022">
        <ele>403.01299999999998</ele>
        <time>2010-02-06T23:34:06Z</time>
      </trkpt>
      <trkpt lat="47.584244012832642" lon="18.908118959516287">
        <ele>402.09500000000003</ele>
        <time>2010-02-06T23:34:08Z</time>
      </trkpt>
      <trkpt lat="47.584271002560854" lon="18.908072020858526">
        <ele>402.85599999999999</ele>
        <time>2010-02-06T23:34:11Z</time>
      </trkpt>
      <trkpt lat="47.584292963147163" lon="18.908021980896592">
        <ele>403.15899999999999</ele>
        <time>2010-02-06T23:34:14Z</time>
      </trkpt>
      <trkpt lat="47.584322970360518" lon="18.907991973683238">
        <ele>402.92899999999997</ele>
        <time>2010-02-06T23:34:16Z</time>
      </trkpt>
      <trkpt lat="47.584349038079381" lon="18.907934976741672">
        <ele>403.41899999999998</ele>
        <time>2010-02-06T23:34:19Z</time>
      </trkpt>
      <trkpt lat="47.584366975352168" lon="18.907874040305614">
        <ele>403.80200000000002</ele>
        <time>2010-02-06T23:34:22Z</time>
      </trkpt>
      <trkpt lat="47.584389019757509" lon="18.907827017828822">
        <ele>403.98500000000001</ele>
        <time>2010-02-06T23:34:25Z</time>
      </trkpt>
      <trkpt lat="47.584416009485722" lon="18.907777983695269">
        <ele>403.94900000000001</ele>
        <time>2010-02-06T23:34:28Z</time>
      </trkpt>
      <trkpt lat="47.584445010870695" lon="18.907745964825153">
        <ele>404.28399999999999</ele>
        <time>2010-02-06T23:34:30Z</time>
      </trkpt>
      <trkpt lat="47.584495972841978" lon="18.907702965661883">
        <ele>403.75299999999999</ele>
        <time>2010-02-06T23:34:32Z</time>
      </trkpt>
      <trkpt lat="47.584507036954165" lon="18.907647980377078">
        <ele>403.875</ele>
        <time>2010-02-06T23:34:35Z</time>
      </trkpt>
      <trkpt lat="47.584510976448655" lon="18.90758897177875">
        <ele>404.73000000000002</ele>
        <time>2010-02-06T23:34:38Z</time>
      </trkpt>
      <trkpt lat="47.584509970620275" lon="18.9075449667871">
        <ele>404.714</ele>
        <time>2010-02-06T23:34:40Z</time>
      </trkpt>
      <trkpt lat="47.584521034732461" lon="18.907474977895617">
        <ele>404.68000000000001</ele>
        <time>2010-02-06T23:34:43Z</time>
      </trkpt>
      <trkpt lat="47.5845190230757" lon="18.907412029802799">
        <ele>404.41199999999998</ele>
        <time>2010-02-06T23:34:46Z</time>
      </trkpt>
      <trkpt lat="47.584514999762177" lon="18.907362995669246">
        <ele>404.90899999999999</ele>
        <time>2010-02-06T23:34:49Z</time>
      </trkpt>
      <trkpt lat="47.584536960348487" lon="18.907346986234188">
        <ele>404.916</ele>
        <time>2010-02-06T23:34:52Z</time>
      </trkpt>
      <trkpt lat="47.584580965340137" lon="18.907324019819498">
        <ele>404.86500000000001</ele>
        <time>2010-02-06T23:34:55Z</time>
      </trkpt>
      <trkpt lat="47.584621030837297" lon="18.907298035919666">
        <ele>405.14299999999997</ele>
        <time>2010-02-06T23:34:58Z</time>
      </trkpt>
      <trkpt lat="47.584667969495058" lon="18.907253025099635">
        <ele>404.71499999999997</ele>
        <time>2010-02-06T23:35:01Z</time>
      </trkpt>
      <trkpt lat="47.58469495922327" lon="18.90720197930932">
        <ele>404.601</ele>
        <time>2010-02-06T23:35:04Z</time>
      </trkpt>
      <trkpt lat="47.584705017507076" lon="18.907154034823179">
        <ele>404.77499999999998</ele>
        <time>2010-02-06T23:35:06Z</time>
      </trkpt>
      <trkpt lat="47.58471499197185" lon="18.907103994861245">
        <ele>405.11599999999999</ele>
        <time>2010-02-06T23:35:08Z</time>
      </trkpt>
      <trkpt lat="47.584711974486709" lon="18.907052027061582">
        <ele>404.58499999999998</ele>
        <time>2010-02-06T23:35:10Z</time>
      </trkpt>
      <trkpt lat="47.584723038598895" lon="18.907005004584789">
        <ele>404.64100000000002</ele>
        <time>2010-02-06T23:35:12Z</time>
      </trkpt>
      <trkpt lat="47.584741981700063" lon="18.906947001814842">
        <ele>405.06400000000002</ele>
        <time>2010-02-06T23:35:15Z</time>
      </trkpt>
      <trkpt lat="47.584762014448643" lon="18.906908025965095">
        <ele>404.62799999999999</ele>
        <time>2010-02-06T23:35:18Z</time>
      </trkpt>
      <trkpt lat="47.584813982248306" lon="18.906895034015179">
        <ele>404.54199999999997</ele>
        <time>2010-02-06T23:35:22Z</time>
      </trkpt>
      <trkpt lat="47.584848012775183" lon="18.906863015145063">
        <ele>405.36799999999999</ele>
        <time>2010-02-06T23:35:25Z</time>
      </trkpt>
      <trkpt lat="47.584884976968169" lon="18.906828984618187">
        <ele>405.41300000000001</ele>
        <time>2010-02-06T23:35:28Z</time>
      </trkpt>
      <trkpt lat="47.584914984181523" lon="18.906804006546736">
        <ele>405.56299999999999</ele>
        <time>2010-02-06T23:35:30Z</time>
      </trkpt>
      <trkpt lat="47.584939040243626" lon="18.90674902126193">
        <ele>405.62400000000002</ele>
        <time>2010-02-06T23:35:33Z</time>
      </trkpt>
      <trkpt lat="47.584961000829935" lon="18.906694035977125">
        <ele>405.71800000000002</ele>
        <time>2010-02-06T23:35:36Z</time>
      </trkpt>
      <trkpt lat="47.584995031356812" lon="18.906636033207178">
        <ele>405.19600000000003</ele>
        <time>2010-02-06T23:35:39Z</time>
      </trkpt>
      <trkpt lat="47.585021015256643" lon="18.906595967710018">
        <ele>405.67099999999999</ele>
        <time>2010-02-06T23:35:41Z</time>
      </trkpt>
      <trkpt lat="47.585040964186192" lon="18.906552968546748">
        <ele>405.31200000000001</ele>
        <time>2010-02-06T23:35:43Z</time>
      </trkpt>
      <trkpt lat="47.585052028298378" lon="18.906507035717368">
        <ele>405.654</ele>
        <time>2010-02-06T23:35:45Z</time>
      </trkpt>
      <trkpt lat="47.585086980834603" lon="18.906449032947421">
        <ele>405.49599999999998</ele>
        <time>2010-02-06T23:35:48Z</time>
      </trkpt>
      <trkpt lat="47.585115982219577" lon="18.906412990763783">
        <ele>405.53199999999998</ele>
        <time>2010-02-06T23:35:50Z</time>
      </trkpt>
      <trkpt lat="47.585138026624918" lon="18.906374014914036">
        <ele>405.77999999999997</ele>
        <time>2010-02-06T23:35:52Z</time>
      </trkpt>
      <trkpt lat="47.585153030231595" lon="18.906337972730398">
        <ele>406.262</ele>
        <time>2010-02-06T23:35:55Z</time>
      </trkpt>
      <trkpt lat="47.585180019959807" lon="18.906282987445593">
        <ele>406.423</ele>
        <time>2010-02-06T23:35:58Z</time>
      </trkpt>
      <trkpt lat="47.585213966667652" lon="18.90623495914042">
        <ele>406.80399999999997</ele>
        <time>2010-02-06T23:36:01Z</time>
      </trkpt>
      <trkpt lat="47.585226958617568" lon="18.906172011047602">
        <ele>406.69200000000001</ele>
        <time>2010-02-06T23:36:04Z</time>
      </trkpt>
      <trkpt lat="47.585239028558135" lon="18.906105039641261">
        <ele>405.738</ele>
        <time>2010-02-06T23:36:07Z</time>
      </trkpt>
      <trkpt lat="47.585254032164812" lon="18.906048964709044">
        <ele>405.89299999999997</ele>
        <time>2010-02-06T23:36:09Z</time>
      </trkpt>
      <trkpt lat="47.585264006629586" lon="18.905993979424238">
        <ele>405.69</ele>
        <time>2010-02-06T23:36:11Z</time>
      </trkpt>
      <trkpt lat="47.585261994972825" lon="18.905930025503039">
        <ele>405.67000000000002</ele>
        <time>2010-02-06T23:36:13Z</time>
      </trkpt>
      <trkpt lat="47.585266018286347" lon="18.905865987762809">
        <ele>404.952</ele>
        <time>2010-02-06T23:36:15Z</time>
      </trkpt>
      <trkpt lat="47.585252020508051" lon="18.905803039669991">
        <ele>404.99299999999999</ele>
        <time>2010-02-06T23:36:17Z</time>
      </trkpt>
      <trkpt lat="47.585244979709387" lon="18.905742019414902">
        <ele>404.90699999999998</ele>
        <time>2010-02-06T23:36:19Z</time>
      </trkpt>
      <trkpt lat="47.585233999416232" lon="18.905686028301716">
        <ele>405.24000000000001</ele>
        <time>2010-02-06T23:36:21Z</time>
      </trkpt>
      <trkpt lat="47.585237016901374" lon="18.905607992783189">
        <ele>405.11000000000001</ele>
        <time>2010-02-06T23:36:24Z</time>
      </trkpt>
      <trkpt lat="47.585243973881006" lon="18.905540015548468">
        <ele>404.74200000000002</ele>
        <time>2010-02-06T23:36:27Z</time>
      </trkpt>
      <trkpt lat="47.585266018286347" lon="18.905486036092043">
        <ele>404.72000000000003</ele>
        <time>2010-02-06T23:36:30Z</time>
      </trkpt>
      <trkpt lat="47.585303988307714" lon="18.905448988080025">
        <ele>404.99099999999999</ele>
        <time>2010-02-06T23:36:33Z</time>
      </trkpt>
      <trkpt lat="47.58533600717783" lon="18.905401965603232">
        <ele>404.387</ele>
        <time>2010-02-06T23:36:37Z</time>
      </trkpt>
      <trkpt lat="47.585381017997861" lon="18.905371036380529">
        <ele>403.75900000000001</ele>
        <time>2010-02-06T23:36:40Z</time>
      </trkpt>
      <trkpt lat="47.585450001060963" lon="18.905341029167175">
        <ele>403.548</ele>
        <time>2010-02-06T23:36:43Z</time>
      </trkpt>
      <trkpt lat="47.58548797108233" lon="18.905285038053989">
        <ele>403.346</ele>
        <time>2010-02-06T23:36:46Z</time>
      </trkpt>
      <trkpt lat="47.585540022701025" lon="18.905213959515095">
        <ele>403.738</ele>
        <time>2010-02-06T23:36:49Z</time>
      </trkpt>
      <trkpt lat="47.585578998550773" lon="18.905165009200573">
        <ele>403.57900000000001</ele>
        <time>2010-02-06T23:36:52Z</time>
      </trkpt>
      <trkpt lat="47.585609005764127" lon="18.905125027522445">
        <ele>403.31200000000001</ele>
        <time>2010-02-06T23:36:55Z</time>
      </trkpt>
      <trkpt lat="47.58565996773541" lon="18.905092002823949">
        <ele>403.26400000000001</ele>
        <time>2010-02-06T23:36:59Z</time>
      </trkpt>
      <trkpt lat="47.58570296689868" lon="18.905057972297072">
        <ele>403.30900000000003</ele>
        <time>2010-02-06T23:37:02Z</time>
      </trkpt>
      <trkpt lat="47.585750995203853" lon="18.905042968690395">
        <ele>403.851</ele>
        <time>2010-02-06T23:37:05Z</time>
      </trkpt>
      <trkpt lat="47.585820984095335" lon="18.905016984790564">
        <ele>403.49099999999999</ele>
        <time>2010-02-06T23:37:09Z</time>
      </trkpt>
      <trkpt lat="47.585856020450592" lon="18.904997035861015">
        <ele>402.67899999999997</ele>
        <time>2010-02-06T23:37:12Z</time>
      </trkpt>
      <trkpt lat="47.585890972986817" lon="18.904972979798913">
        <ele>403.83100000000002</ele>
        <time>2010-02-06T23:37:15Z</time>
      </trkpt>
      <trkpt lat="47.585933972150087" lon="18.904942972585559">
        <ele>403.03300000000002</ele>
        <time>2010-02-06T23:37:18Z</time>
      </trkpt>
      <trkpt lat="47.585984012112021" lon="18.904899973422289">
        <ele>404.02499999999998</ele>
        <time>2010-02-06T23:37:22Z</time>
      </trkpt>
      <trkpt lat="47.586031034588814" lon="18.90485898591578">
        <ele>404.52699999999999</ele>
        <time>2010-02-06T23:37:25Z</time>
      </trkpt>
      <trkpt lat="47.586079984903336" lon="18.904811041429639">
        <ele>404.49000000000001</ele>
        <time>2010-02-06T23:37:28Z</time>
      </trkpt>
      <trkpt lat="47.586129019036889" lon="18.904757983982563">
        <ele>404.06099999999998</ele>
        <time>2010-02-06T23:37:31Z</time>
      </trkpt>
      <trkpt lat="47.586169000715017" lon="18.90470702201128">
        <ele>404.14299999999997</ele>
        <time>2010-02-06T23:37:34Z</time>
      </trkpt>
      <trkpt lat="47.586194984614849" lon="18.90466402284801">
        <ele>403.86000000000001</ele>
        <time>2010-02-06T23:37:36Z</time>
      </trkpt>
      <trkpt lat="47.58621602319181" lon="18.904610965400934">
        <ele>405.33300000000003</ele>
        <time>2010-02-06T23:37:39Z</time>
      </trkpt>
      <trkpt lat="47.586235972121358" lon="18.904566038399935">
        <ele>403.93700000000001</ele>
        <time>2010-02-06T23:37:42Z</time>
      </trkpt>
      <trkpt lat="47.586258016526699" lon="18.9045350253582">
        <ele>405.63799999999998</ele>
        <time>2010-02-06T23:37:46Z</time>
      </trkpt>
      <trkpt lat="47.586294980719686" lon="18.904498983174562">
        <ele>405.089</ele>
        <time>2010-02-06T23:37:49Z</time>
      </trkpt>
      <trkpt lat="47.58634502068162" lon="18.904467970132828">
        <ele>404.67500000000001</ele>
        <time>2010-02-06T23:37:51Z</time>
      </trkpt>
      <trkpt lat="47.586382990702987" lon="18.904436035081744">
        <ele>405.55599999999998</ele>
        <time>2010-02-06T23:37:53Z</time>
      </trkpt>
      <trkpt lat="47.586415009573102" lon="18.904413990676403">
        <ele>405.38499999999999</ele>
        <time>2010-02-06T23:37:55Z</time>
      </trkpt>
      <trkpt lat="47.586437975987792" lon="18.904375014826655">
        <ele>405.54500000000002</ele>
        <time>2010-02-06T23:37:58Z</time>
      </trkpt>
      <trkpt lat="47.586478963494301" lon="18.904339978471398">
        <ele>405.25299999999999</ele>
        <time>2010-02-06T23:38:01Z</time>
      </trkpt>
      <trkpt lat="47.586510982364416" lon="18.904326986521482">
        <ele>405.57799999999997</ele>
        <time>2010-02-06T23:38:04Z</time>
      </trkpt>
      <trkpt lat="47.58654098957777" lon="18.904308965429664">
        <ele>405.27699999999999</ele>
        <time>2010-02-06T23:38:07Z</time>
      </trkpt>
      <trkpt lat="47.586574014276266" lon="18.904296979308128">
        <ele>405.49099999999999</ele>
        <time>2010-02-06T23:38:10Z</time>
      </trkpt>
      <trkpt lat="47.586610978469253" lon="18.904267977923155">
        <ele>404.92000000000002</ele>
        <time>2010-02-06T23:38:13Z</time>
      </trkpt>
      <trkpt lat="47.586659006774426" lon="18.904241994023323">
        <ele>405.02800000000002</ele>
        <time>2010-02-06T23:38:16Z</time>
      </trkpt>
      <trkpt lat="47.586695970967412" lon="18.904226990416646">
        <ele>405.06099999999998</ele>
        <time>2010-02-06T23:38:19Z</time>
      </trkpt>
      <trkpt lat="47.586734024807811" lon="18.904209975153208">
        <ele>405.83600000000001</ele>
        <time>2010-02-06T23:38:22Z</time>
      </trkpt>
      <trkpt lat="47.586783980950713" lon="18.904175022616982">
        <ele>406.166</ele>
        <time>2010-02-06T23:38:25Z</time>
      </trkpt>
      <trkpt lat="47.586838966235518" lon="18.904143003746867">
        <ele>405.48399999999998</ele>
        <time>2010-02-06T23:38:28Z</time>
      </trkpt>
      <trkpt lat="47.586878025904298" lon="18.904114002361894">
        <ele>405.52100000000002</ele>
        <time>2010-02-06T23:38:31Z</time>
      </trkpt>
      <trkpt lat="47.586920019239187" lon="18.904080977663398">
        <ele>405.76299999999998</ele>
        <time>2010-02-06T23:38:34Z</time>
      </trkpt>
      <trkpt lat="47.586967963725328" lon="18.90404200181365">
        <ele>404.44299999999998</ele>
        <time>2010-02-06T23:38:37Z</time>
      </trkpt>
      <trkpt lat="47.587009035050869" lon="18.904011994600296">
        <ele>405.66500000000002</ele>
        <time>2010-02-06T23:38:41Z</time>
      </trkpt>
      <trkpt lat="47.58705304004252" lon="18.903972012922168">
        <ele>405.12400000000002</ele>
        <time>2010-02-06T23:38:45Z</time>
      </trkpt>
      <trkpt lat="47.587112970650196" lon="18.903915015980601">
        <ele>405.35399999999998</ele>
        <time>2010-02-06T23:38:48Z</time>
      </trkpt>
      <trkpt lat="47.587150018662214" lon="18.90387000516057">
        <ele>405.44799999999998</ele>
        <time>2010-02-06T23:38:50Z</time>
      </trkpt>
      <trkpt lat="47.587178014218807" lon="18.903823988512158">
        <ele>405.30500000000001</ele>
        <time>2010-02-06T23:38:52Z</time>
      </trkpt>
      <trkpt lat="47.587202992290258" lon="18.903776966035366">
        <ele>405.03300000000002</ele>
        <time>2010-02-06T23:38:54Z</time>
      </trkpt>
      <trkpt lat="47.587241968140006" lon="18.903746036812663">
        <ele>405.14299999999997</ele>
        <time>2010-02-06T23:38:57Z</time>
      </trkpt>
      <trkpt lat="47.587285973131657" lon="18.903714017942548">
        <ele>405.685</ele>
        <time>2010-02-06T23:39:01Z</time>
      </trkpt>
      <trkpt lat="47.58731103502214" lon="18.903681999072433">
        <ele>405.74599999999998</ele>
        <time>2010-02-06T23:39:04Z</time>
      </trkpt>
      <trkpt lat="47.587347999215126" lon="18.903664983808994">
        <ele>405.37200000000001</ele>
        <time>2010-02-06T23:39:07Z</time>
      </trkpt>
      <trkpt lat="47.587402984499931" lon="18.903644029051065">
        <ele>404.83100000000002</ele>
        <time>2010-02-06T23:39:10Z</time>
      </trkpt>
      <trkpt lat="47.587451012805104" lon="18.903620978817344">
        <ele>404.54300000000001</ele>
        <time>2010-02-06T23:39:12Z</time>
      </trkpt>
      <trkpt lat="47.587476996704936" lon="18.903572028502822">
        <ele>404.14699999999999</ele>
        <time>2010-02-06T23:39:15Z</time>
      </trkpt>
      <trkpt lat="47.587519995868206" lon="18.903527017682791">
        <ele>404.04000000000002</ele>
        <time>2010-02-06T23:39:18Z</time>
      </trkpt>
      <trkpt lat="47.587564000859857" lon="18.903486030176282">
        <ele>404.02100000000002</ele>
        <time>2010-02-06T23:39:20Z</time>
      </trkpt>
      <trkpt lat="47.58761596865952" lon="18.903435990214348">
        <ele>402.80200000000002</ele>
        <time>2010-02-06T23:39:22Z</time>
      </trkpt>
      <trkpt lat="47.5876550283283" lon="18.903383016586304">
        <ele>401.702</ele>
        <time>2010-02-06T23:39:24Z</time>
      </trkpt>
      <trkpt lat="47.58778503164649" lon="18.903272962197661">
        <ele>400.11399999999998</ele>
        <time>2010-02-06T23:39:30Z</time>
      </trkpt>
      <trkpt lat="47.587825013324618" lon="18.903266005218029">
        <ele>398.76999999999998</ele>
        <time>2010-02-06T23:39:32Z</time>
      </trkpt>
      <trkpt lat="47.587900031358004" lon="18.903252007439733">
        <ele>398.46899999999999</ele>
        <time>2010-02-06T23:39:35Z</time>
      </trkpt>
      <trkpt lat="47.587945964187384" lon="18.903214959427714">
        <ele>398.47699999999998</ele>
        <time>2010-02-06T23:39:37Z</time>
      </trkpt>
      <trkpt lat="47.587975971400738" lon="18.903173971921206">
        <ele>397.51799999999997</ele>
        <time>2010-02-06T23:39:39Z</time>
      </trkpt>
      <trkpt lat="47.588018970564008" lon="18.903103983029723">
        <ele>398.25299999999999</ele>
        <time>2010-02-06T23:39:42Z</time>
      </trkpt>
      <trkpt lat="47.588051995262504" lon="18.90303198248148">
        <ele>397.96199999999999</ele>
        <time>2010-02-06T23:39:45Z</time>
      </trkpt>
      <trkpt lat="47.588087031617761" lon="18.902976997196674">
        <ele>397.55599999999998</ele>
        <time>2010-02-06T23:39:47Z</time>
      </trkpt>
      <trkpt lat="47.588119972497225" lon="18.902926035225391">
        <ele>397.58199999999999</ele>
        <time>2010-02-06T23:39:49Z</time>
      </trkpt>
      <trkpt lat="47.58813195861876" lon="18.902872977778316">
        <ele>397.72500000000002</ele>
        <time>2010-02-06T23:39:51Z</time>
      </trkpt>
      <trkpt lat="47.588143022730947" lon="18.902810029685497">
        <ele>398.34500000000003</ele>
        <time>2010-02-06T23:39:53Z</time>
      </trkpt>
      <trkpt lat="47.588159032166004" lon="18.902743980288506">
        <ele>398.15100000000001</ele>
        <time>2010-02-06T23:39:56Z</time>
      </trkpt>
      <trkpt lat="47.588180992752314" lon="18.902677008882165">
        <ele>398.59300000000002</ele>
        <time>2010-02-06T23:39:59Z</time>
      </trkpt>
      <trkpt lat="47.588201025500894" lon="18.902608025819063">
        <ele>398.26999999999998</ele>
        <time>2010-02-06T23:40:02Z</time>
      </trkpt>
      <trkpt lat="47.588212005794048" lon="18.902534013614058">
        <ele>399.35300000000001</ele>
        <time>2010-02-06T23:40:05Z</time>
      </trkpt>
      <trkpt lat="47.588222986087203" lon="18.902470981702209">
        <ele>399.22000000000003</ele>
        <time>2010-02-06T23:40:08Z</time>
      </trkpt>
      <trkpt lat="47.588240001350641" lon="18.902422031387687">
        <ele>399.61000000000001</ele>
        <time>2010-02-06T23:40:11Z</time>
      </trkpt>
      <trkpt lat="47.588246958330274" lon="18.902351958677173">
        <ele>400.45600000000002</ele>
        <time>2010-02-06T23:40:15Z</time>
      </trkpt>
      <trkpt lat="47.588261961936951" lon="18.902293033897877">
        <ele>400.87700000000001</ele>
        <time>2010-02-06T23:40:18Z</time>
      </trkpt>
      <trkpt lat="47.588310996070504" lon="18.902226984500885">
        <ele>402.72300000000001</ele>
        <time>2010-02-06T23:40:21Z</time>
      </trkpt>
      <trkpt lat="47.588322982192039" lon="18.902161018922925">
        <ele>401.99000000000001</ele>
        <time>2010-02-06T23:40:24Z</time>
      </trkpt>
      <trkpt lat="47.588345026597381" lon="18.902103016152978">
        <ele>403.61799999999999</ele>
        <time>2010-02-06T23:40:27Z</time>
      </trkpt>
      <trkpt lat="47.588374027982354" lon="18.902058005332947">
        <ele>404.83600000000001</ele>
        <time>2010-02-06T23:40:33Z</time>
      </trkpt>
      <trkpt lat="47.58840998634696" lon="18.902027998119593">
        <ele>405.86900000000003</ele>
        <time>2010-02-06T23:40:36Z</time>
      </trkpt>
      <trkpt lat="47.588451979681849" lon="18.901993967592716">
        <ele>405.46899999999999</ele>
        <time>2010-02-06T23:40:39Z</time>
      </trkpt>
      <trkpt lat="47.588492967188358" lon="18.901947028934956">
        <ele>406.41000000000003</ele>
        <time>2010-02-06T23:40:43Z</time>
      </trkpt>
      <trkpt lat="47.588524986058474" lon="18.901918027549982">
        <ele>406.66000000000003</ele>
        <time>2010-02-06T23:40:46Z</time>
      </trkpt>
      <trkpt lat="47.588563039898872" lon="18.901885002851486">
        <ele>406.399</ele>
        <time>2010-02-06T23:40:49Z</time>
      </trkpt>
      <trkpt lat="47.588593969121575" lon="18.901845021173358">
        <ele>406.892</ele>
        <time>2010-02-06T23:40:52Z</time>
      </trkpt>
      <trkpt lat="47.588631017133594" lon="18.901803027838469">
        <ele>407.22500000000002</ele>
        <time>2010-02-06T23:40:55Z</time>
      </trkpt>
      <trkpt lat="47.588661024346948" lon="18.901758017018437">
        <ele>407.31799999999998</ele>
        <time>2010-02-06T23:40:59Z</time>
      </trkpt>
      <trkpt lat="47.588684996590018" lon="18.901736978441477">
        <ele>407.221</ele>
        <time>2010-02-06T23:41:03Z</time>
      </trkpt>
      <trkpt lat="47.588712992146611" lon="18.901694985106587">
        <ele>407.86799999999999</ele>
        <time>2010-02-06T23:41:06Z</time>
      </trkpt>
      <trkpt lat="47.588750040158629" lon="18.901659026741982">
        <ele>407.488</ele>
        <time>2010-02-06T23:41:09Z</time>
      </trkpt>
      <trkpt lat="47.588791027665138" lon="18.901619967073202">
        <ele>407.65600000000001</ele>
        <time>2010-02-06T23:41:12Z</time>
      </trkpt>
      <trkpt lat="47.588816005736589" lon="18.901575040072203">
        <ele>406.84199999999998</ele>
        <time>2010-02-06T23:41:15Z</time>
      </trkpt>
      <trkpt lat="47.588875014334917" lon="18.901541009545326">
        <ele>407.13200000000001</ele>
        <time>2010-02-06T23:41:18Z</time>
      </trkpt>
      <trkpt lat="47.588934022933245" lon="18.901503039523959">
        <ele>406.83100000000002</ele>
        <time>2010-02-06T23:41:20Z</time>
      </trkpt>
      <trkpt lat="47.588983979076147" lon="18.90146397985518">
        <ele>406.30200000000002</ele>
        <time>2010-02-06T23:41:22Z</time>
      </trkpt>
      <trkpt lat="47.589023038744926" lon="18.901412012055516">
        <ele>405.96100000000001</ele>
        <time>2010-02-06T23:41:24Z</time>
      </trkpt>
      <trkpt lat="47.589064026251435" lon="18.90135501511395">
        <ele>404.858</ele>
        <time>2010-02-06T23:41:26Z</time>
      </trkpt>
      <trkpt lat="47.589085986837745" lon="18.901322996243834">
        <ele>403.55200000000002</ele>
        <time>2010-02-06T23:41:27Z</time>
      </trkpt>
      <trkpt lat="47.589115994051099" lon="18.901258958503604">
        <ele>402.11399999999998</ele>
        <time>2010-02-06T23:41:29Z</time>
      </trkpt>
      <trkpt lat="47.589152036234736" lon="18.901210008189082">
        <ele>401.86599999999999</ele>
        <time>2010-02-06T23:41:31Z</time>
      </trkpt>
      <trkpt lat="47.589194029569626" lon="18.90118402428925">
        <ele>401.23399999999998</ele>
        <time>2010-02-06T23:41:33Z</time>
      </trkpt>
      <trkpt lat="47.589234011247754" lon="18.901168014854193">
        <ele>401.00599999999997</ele>
        <time>2010-02-06T23:41:35Z</time>
      </trkpt>
      <trkpt lat="47.589295031502843" lon="18.901129961013794">
        <ele>401.404</ele>
        <time>2010-02-06T23:41:38Z</time>
      </trkpt>
      <trkpt lat="47.589321015402675" lon="18.901084028184414">
        <ele>401.84100000000001</ele>
        <time>2010-02-06T23:41:41Z</time>
      </trkpt>
      <trkpt lat="47.5893559679389" lon="18.901037005707622">
        <ele>402.49900000000002</ele>
        <time>2010-02-06T23:41:44Z</time>
      </trkpt>
      <trkpt lat="47.589381029829383" lon="18.900997024029493">
        <ele>403.512</ele>
        <time>2010-02-06T23:41:47Z</time>
      </trkpt>
      <trkpt lat="47.589397039264441" lon="18.90094798989594">
        <ele>404.43299999999999</ele>
        <time>2010-02-06T23:41:50Z</time>
      </trkpt>
      <trkpt lat="47.589400978758931" lon="18.90088202431798">
        <ele>404.31400000000002</ele>
        <time>2010-02-06T23:41:54Z</time>
      </trkpt>
      <trkpt lat="47.589411037042737" lon="18.900829972699285">
        <ele>405.44</ele>
        <time>2010-02-06T23:41:57Z</time>
      </trkpt>
      <trkpt lat="47.589435009285808" lon="18.900780016556382">
        <ele>406.15199999999999</ele>
        <time>2010-02-06T23:42:01Z</time>
      </trkpt>
      <trkpt lat="47.589469961822033" lon="18.900727964937687">
        <ele>407.76799999999997</ele>
        <time>2010-02-06T23:42:05Z</time>
      </trkpt>
      <trkpt lat="47.589507009834051" lon="18.900675997138023">
        <ele>407.72399999999999</ele>
        <time>2010-02-06T23:42:09Z</time>
      </trkpt>
      <trkpt lat="47.589526958763599" lon="18.90062796883285">
        <ele>407.98899999999998</ele>
        <time>2010-02-06T23:42:14Z</time>
      </trkpt>
      <trkpt lat="47.58957096375525" lon="18.900557979941368">
        <ele>408.47699999999998</ele>
        <time>2010-02-06T23:42:31Z</time>
      </trkpt>
      <trkpt lat="47.589612035080791" lon="18.900548005476594">
        <ele>408.52300000000002</ele>
        <time>2010-02-06T23:42:35Z</time>
      </trkpt>
      <trkpt lat="47.589652016758919" lon="18.900533001869917">
        <ele>410.488</ele>
        <time>2010-02-06T23:42:39Z</time>
      </trkpt>
      <trkpt lat="47.589690992608666" lon="18.90053803101182">
        <ele>410.26900000000001</ele>
        <time>2010-02-06T23:42:44Z</time>
      </trkpt>
      <trkpt lat="47.589733991771936" lon="18.900539958849549">
        <ele>410.88200000000001</ele>
        <time>2010-02-06T23:42:49Z</time>
      </trkpt>
      <trkpt lat="47.58978302590549" lon="18.90051900409162">
        <ele>411.11500000000001</ele>
        <time>2010-02-06T23:42:54Z</time>
      </trkpt>
      <trkpt lat="47.589825019240379" lon="18.900509029626846">
        <ele>411.73700000000002</ele>
        <time>2010-02-06T23:42:58Z</time>
      </trkpt>
      <trkpt lat="47.589862989261746" lon="18.900512969121337">
        <ele>412.78399999999999</ele>
        <time>2010-02-06T23:43:02Z</time>
      </trkpt>
      <trkpt lat="47.589889978989959" lon="18.900527972728014">
        <ele>412.84500000000003</ele>
        <time>2010-02-06T23:43:06Z</time>
      </trkpt>
      <trkpt lat="47.589905988425016" lon="18.900572983548045">
        <ele>413.14800000000002</ele>
        <time>2010-02-06T23:43:09Z</time>
      </trkpt>
      <trkpt lat="47.589920992031693" lon="18.900617994368076">
        <ele>413.04199999999997</ele>
        <time>2010-02-06T23:43:12Z</time>
      </trkpt>
      <trkpt lat="47.589996010065079" lon="18.900589998811483">
        <ele>411.55200000000002</ele>
        <time>2010-02-06T23:50:49Z</time>
      </trkpt>
      <trkpt lat="47.590000033378601" lon="18.9005390368402">
        <ele>411.13</ele>
        <time>2010-02-06T23:50:53Z</time>
      </trkpt>
      <trkpt lat="47.590024005621672" lon="18.900509029626846">
        <ele>411.43700000000001</ele>
        <time>2010-02-06T23:50:57Z</time>
      </trkpt>
      <trkpt lat="47.590053007006645" lon="18.900467958301306">
        <ele>411.21199999999999</ele>
        <time>2010-02-06T23:51:01Z</time>
      </trkpt>
      <trkpt lat="47.590089971199632" lon="18.90043300576508">
        <ele>411.80200000000002</ele>
        <time>2010-02-06T23:51:05Z</time>
      </trkpt>
      <trkpt lat="47.590124001726508" lon="18.90040903352201">
        <ele>412.19999999999999</ele>
        <time>2010-02-06T23:51:08Z</time>
      </trkpt>
      <trkpt lat="47.590151997283101" lon="18.90036896802485">
        <ele>412.07499999999999</ele>
        <time>2010-02-06T23:51:11Z</time>
      </trkpt>
      <trkpt lat="47.590174963697791" lon="18.900327980518341">
        <ele>412.63</ele>
        <time>2010-02-06T23:51:14Z</time>
      </trkpt>
      <trkpt lat="47.59019399061799" lon="18.900290010496974">
        <ele>412.16000000000003</ele>
        <time>2010-02-06T23:51:17Z</time>
      </trkpt>
      <trkpt lat="47.590204970911145" lon="18.900238964706659">
        <ele>411.89499999999998</ele>
        <time>2010-02-06T23:51:20Z</time>
      </trkpt>
      <trkpt lat="47.590233972296119" lon="18.900180039927363">
        <ele>411.85899999999998</ele>
        <time>2010-02-06T23:51:24Z</time>
      </trkpt>
      <trkpt lat="47.59023598395288" lon="18.900125976651907">
        <ele>412.50099999999998</ele>
        <time>2010-02-06T23:51:27Z</time>
      </trkpt>
      <trkpt lat="47.590216035023332" lon="18.900074008852243">
        <ele>412.363</ele>
        <time>2010-02-06T23:51:30Z</time>
      </trkpt>
      <trkpt lat="47.590188039466739" lon="18.899995973333716">
        <ele>411.709</ele>
        <time>2010-02-06T23:51:34Z</time>
      </trkpt>
      <trkpt lat="47.59017001837492" lon="18.899925984442234">
        <ele>412.13299999999998</ele>
        <time>2010-02-06T23:51:37Z</time>
      </trkpt>
      <trkpt lat="47.590146968141198" lon="18.899870999157429">
        <ele>412.17000000000002</ele>
        <time>2010-02-06T23:51:40Z</time>
      </trkpt>
      <trkpt lat="47.590125007554889" lon="18.899804027751088">
        <ele>412.14800000000002</ele>
        <time>2010-02-06T23:51:43Z</time>
      </trkpt>
      <trkpt lat="47.590113021433353" lon="18.899752981960773">
        <ele>412.02699999999999</ele>
        <time>2010-02-06T23:51:46Z</time>
      </trkpt>
      <trkpt lat="47.590102041140199" lon="18.899695985019207">
        <ele>411.93200000000002</ele>
        <time>2010-02-06T23:51:49Z</time>
      </trkpt>
      <trkpt lat="47.590100029483438" lon="18.899640999734402">
        <ele>412.14100000000002</ele>
        <time>2010-02-06T23:51:52Z</time>
      </trkpt>
      <trkpt lat="47.590111009776592" lon="18.899575034156442">
        <ele>412.03300000000002</ele>
        <time>2010-02-06T23:51:55Z</time>
      </trkpt>
      <trkpt lat="47.590113021433353" lon="18.899514013901353">
        <ele>412.39800000000002</ele>
        <time>2010-02-06T23:51:58Z</time>
      </trkpt>
      <trkpt lat="47.590130958706141" lon="18.899449976161122">
        <ele>412.72300000000001</ele>
        <time>2010-02-06T23:52:01Z</time>
      </trkpt>
      <trkpt lat="47.590129030868411" lon="18.899377975612879">
        <ele>412.53800000000001</ele>
        <time>2010-02-06T23:52:04Z</time>
      </trkpt>
      <trkpt lat="47.590120984241366" lon="18.899308992549777">
        <ele>412.78800000000001</ele>
        <time>2010-02-06T23:52:07Z</time>
      </trkpt>
      <trkpt lat="47.590120984241366" lon="18.899242021143436">
        <ele>411.96100000000001</ele>
        <time>2010-02-06T23:52:10Z</time>
      </trkpt>
      <trkpt lat="47.590122995898128" lon="18.899161973968148">
        <ele>412.85500000000002</ele>
        <time>2010-02-06T23:52:13Z</time>
      </trkpt>
      <trkpt lat="47.590126013383269" lon="18.899114029482007">
        <ele>412.75299999999999</ele>
        <time>2010-02-06T23:52:15Z</time>
      </trkpt>
      <trkpt lat="47.590126013383269" lon="18.899052003398538">
        <ele>413.83100000000002</ele>
        <time>2010-02-06T23:52:18Z</time>
      </trkpt>
      <trkpt lat="47.590124001726508" lon="18.899002969264984">
        <ele>413.39400000000001</ele>
        <time>2010-02-06T23:52:20Z</time>
      </trkpt>
      <trkpt lat="47.590118972584605" lon="18.898938009515405">
        <ele>413.99599999999998</ele>
        <time>2010-02-06T23:52:23Z</time>
      </trkpt>
      <trkpt lat="47.590103968977928" lon="18.898881012573838">
        <ele>413.69499999999999</ele>
        <time>2010-02-06T23:52:26Z</time>
      </trkpt>
      <trkpt lat="47.590090977028012" lon="18.898818986490369">
        <ele>413.32900000000001</ele>
        <time>2010-02-06T23:52:29Z</time>
      </trkpt>
      <trkpt lat="47.590071028098464" lon="18.898748997598886">
        <ele>413.20800000000003</ele>
        <time>2010-02-06T23:52:32Z</time>
      </trkpt>
      <trkpt lat="47.590044038370252" lon="18.898695018142462">
        <ele>413.33100000000002</ele>
        <time>2010-02-06T23:52:35Z</time>
      </trkpt>
      <trkpt lat="47.590002967044711" lon="18.898622011765838">
        <ele>412.84500000000003</ele>
        <time>2010-02-06T23:52:39Z</time>
      </trkpt>
      <trkpt lat="47.589970026165247" lon="18.898558979853988">
        <ele>412.87799999999999</ele>
        <time>2010-02-06T23:52:43Z</time>
      </trkpt>
      <trkpt lat="47.589948987588286" lon="18.898513969033957">
        <ele>413.01499999999999</ele>
        <time>2010-02-06T23:52:46Z</time>
      </trkpt>
      <trkpt lat="47.589920992031693" lon="18.898457977920771">
        <ele>413.06299999999999</ele>
        <time>2010-02-06T23:52:50Z</time>
      </trkpt>
      <trkpt lat="47.589904982596636" lon="18.898399975150824">
        <ele>412.78100000000001</ele>
        <time>2010-02-06T23:52:54Z</time>
      </trkpt>
      <trkpt lat="47.589894002303481" lon="18.898350019007921">
        <ele>412.91800000000001</ele>
        <time>2010-02-06T23:52:57Z</time>
      </trkpt>
      <trkpt lat="47.589866006746888" lon="18.898302996531129">
        <ele>412.83199999999999</ele>
        <time>2010-02-06T23:53:01Z</time>
      </trkpt>
      <trkpt lat="47.589811021462083" lon="18.898180034011602">
        <ele>413.13999999999999</ele>
        <time>2010-02-06T23:53:07Z</time>
      </trkpt>
      <trkpt lat="47.58980599232018" lon="18.898115996271372">
        <ele>412.99700000000001</ele>
        <time>2010-02-06T23:53:09Z</time>
      </trkpt>
      <trkpt lat="47.589796017855406" lon="18.898061010986567">
        <ele>412.88600000000002</ele>
        <time>2010-02-06T23:53:11Z</time>
      </trkpt>
      <trkpt lat="47.589786965399981" lon="18.898008037358522">
        <ele>414.149</ele>
        <time>2010-02-06T23:53:13Z</time>
      </trkpt>
      <trkpt lat="47.589780008420348" lon="18.89791801571846">
        <ele>413.89800000000002</ele>
        <time>2010-02-06T23:53:16Z</time>
      </trkpt>
      <trkpt lat="47.589776990935206" lon="18.897863030433655">
        <ele>413.92200000000003</ele>
        <time>2010-02-06T23:53:18Z</time>
      </trkpt>
      <trkpt lat="47.589771039783955" lon="18.897809972986579">
        <ele>414.18900000000002</ele>
        <time>2010-02-06T23:53:20Z</time>
      </trkpt>
      <trkpt lat="47.589761987328529" lon="18.897761022672057">
        <ele>414.80399999999997</ele>
        <time>2010-02-06T23:53:22Z</time>
      </trkpt>
      <trkpt lat="47.589756958186626" lon="18.897692039608955">
        <ele>414.90800000000002</ele>
        <time>2010-02-06T23:53:25Z</time>
      </trkpt>
      <trkpt lat="47.589759975671768" lon="18.897620039060712">
        <ele>415.80900000000003</ele>
        <time>2010-02-06T23:53:29Z</time>
      </trkpt>
      <trkpt lat="47.589760981500149" lon="18.897560024634004">
        <ele>416.50400000000002</ele>
        <time>2010-02-06T23:53:32Z</time>
      </trkpt>
      <trkpt lat="47.589767016470432" lon="18.897501016035676">
        <ele>417.71499999999997</ele>
        <time>2010-02-06T23:53:35Z</time>
      </trkpt>
      <trkpt lat="47.589771039783955" lon="18.897439995780587">
        <ele>418.404</ele>
        <time>2010-02-06T23:53:38Z</time>
      </trkpt>
      <trkpt lat="47.58976299315691" lon="18.89738098718226">
        <ele>419.08699999999999</ele>
        <time>2010-02-06T23:53:41Z</time>
      </trkpt>
      <trkpt lat="47.589751007035375" lon="18.897327007725835">
        <ele>419.79899999999998</ele>
        <time>2010-02-06T23:53:44Z</time>
      </trkpt>
      <trkpt lat="47.589742038398981" lon="18.897269004955888">
        <ele>420.375</ele>
        <time>2010-02-06T23:53:47Z</time>
      </trkpt>
      <trkpt lat="47.589728962630033" lon="18.897212008014321">
        <ele>420.47899999999998</ele>
        <time>2010-02-06T23:53:50Z</time>
      </trkpt>
      <trkpt lat="47.589723011478782" lon="18.897158028557897">
        <ele>420.92399999999998</ele>
        <time>2010-02-06T23:53:53Z</time>
      </trkpt>
      <trkpt lat="47.589715970680118" lon="18.897104971110821">
        <ele>421.77100000000002</ele>
        <time>2010-02-06T23:53:56Z</time>
      </trkpt>
      <trkpt lat="47.589702978730202" lon="18.897053003311157">
        <ele>421.68200000000002</ele>
        <time>2010-02-06T23:53:59Z</time>
      </trkpt>
      <trkpt lat="47.589684035629034" lon="18.896986031904817">
        <ele>422.10300000000001</ele>
        <time>2010-02-06T23:54:02Z</time>
      </trkpt>
      <trkpt lat="47.589660985395312" lon="18.896930040791631">
        <ele>422.447</ele>
        <time>2010-02-06T23:54:05Z</time>
      </trkpt>
      <trkpt lat="47.589645981788635" lon="18.896874971687794">
        <ele>423.49400000000003</ele>
        <time>2010-02-06T23:54:08Z</time>
      </trkpt>
      <trkpt lat="47.589630978181958" lon="18.896817974746227">
        <ele>423.55200000000002</ele>
        <time>2010-02-06T23:54:11Z</time>
      </trkpt>
      <trkpt lat="47.589617986232042" lon="18.896760977804661">
        <ele>423.86399999999998</ele>
        <time>2010-02-06T23:54:14Z</time>
      </trkpt>
      <trkpt lat="47.589595019817352" lon="18.89669400639832">
        <ele>423.70699999999999</ele>
        <time>2010-02-06T23:54:17Z</time>
      </trkpt>
      <trkpt lat="47.589573981240392" lon="18.89662996865809">
        <ele>423.09100000000001</ele>
        <time>2010-02-06T23:54:20Z</time>
      </trkpt>
      <trkpt lat="47.589551014825702" lon="18.8965879753232">
        <ele>423.476</ele>
        <time>2010-02-06T23:54:22Z</time>
      </trkpt>
      <trkpt lat="47.589530982077122" lon="18.896541958674788">
        <ele>423.37799999999999</ele>
        <time>2010-02-06T23:54:24Z</time>
      </trkpt>
      <trkpt lat="47.589512038975954" lon="18.896487979218364">
        <ele>422.95800000000003</ele>
        <time>2010-02-06T23:54:26Z</time>
      </trkpt>
      <trkpt lat="47.589501980692148" lon="18.896425031125546">
        <ele>422.55099999999999</ele>
        <time>2010-02-06T23:54:28Z</time>
      </trkpt>
      <trkpt lat="47.589483959600329" lon="18.896359987556934">
        <ele>422.05700000000002</ele>
        <time>2010-02-06T23:54:30Z</time>
      </trkpt>
      <trkpt lat="47.589470967650414" lon="18.896305002272129">
        <ele>422.79899999999998</ele>
        <time>2010-02-06T23:54:32Z</time>
      </trkpt>
      <trkpt lat="47.589465016499162" lon="18.896252028644085">
        <ele>422.85899999999998</ele>
        <time>2010-02-06T23:54:34Z</time>
      </trkpt>
      <trkpt lat="47.589458981528878" lon="18.896182039752603">
        <ele>422.58499999999998</ele>
        <time>2010-02-06T23:54:37Z</time>
      </trkpt>
      <trkpt lat="47.589451018720865" lon="18.896123031154275">
        <ele>422.93000000000001</ele>
        <time>2010-02-06T23:54:39Z</time>
      </trkpt>
      <trkpt lat="47.589437020942569" lon="18.896081037819386">
        <ele>423.29199999999997</ele>
        <time>2010-02-06T23:54:41Z</time>
      </trkpt>
      <trkpt lat="47.589422017335892" lon="18.896030997857451">
        <ele>422.86000000000001</ele>
        <time>2010-02-06T23:54:43Z</time>
      </trkpt>
      <trkpt lat="47.589409025385976" lon="18.895980035886168">
        <ele>423.36900000000003</ele>
        <time>2010-02-06T23:54:45Z</time>
      </trkpt>
      <trkpt lat="47.589389998465776" lon="18.895912980660796">
        <ele>423.54700000000003</ele>
        <time>2010-02-06T23:54:48Z</time>
      </trkpt>
      <trkpt lat="47.589377006515861" lon="18.895864030346274">
        <ele>423.21800000000002</ele>
        <time>2010-02-06T23:54:50Z</time>
      </trkpt>
      <trkpt lat="47.5893559679389" lon="18.895800998434424">
        <ele>423.73399999999998</ele>
        <time>2010-02-06T23:54:53Z</time>
      </trkpt>
      <trkpt lat="47.589341970160604" lon="18.895738972350955">
        <ele>424.11900000000003</ele>
        <time>2010-02-06T23:54:56Z</time>
      </trkpt>
      <trkpt lat="47.589331995695829" lon="18.89566202647984">
        <ele>424.69400000000002</ele>
        <time>2010-02-06T23:54:59Z</time>
      </trkpt>
      <trkpt lat="47.589321015402675" lon="18.895607041195035">
        <ele>425.209</ele>
        <time>2010-02-06T23:55:01Z</time>
      </trkpt>
      <trkpt lat="47.589298970997334" lon="18.895531017333269">
        <ele>425.18099999999998</ele>
        <time>2010-02-06T23:55:04Z</time>
      </trkpt>
      <trkpt lat="47.589292014017701" lon="18.895477959886193">
        <ele>425.89299999999997</ele>
        <time>2010-02-06T23:55:06Z</time>
      </trkpt>
      <trkpt lat="47.589280027896166" lon="18.895428003743291">
        <ele>426.101</ele>
        <time>2010-02-06T23:55:08Z</time>
      </trkpt>
      <trkpt lat="47.589257983490825" lon="18.895376035943627">
        <ele>426.33300000000003</ele>
        <time>2010-02-06T23:55:10Z</time>
      </trkpt>
      <trkpt lat="47.589224958792329" lon="18.895319039002061">
        <ele>426.31299999999999</ele>
        <time>2010-02-06T23:55:12Z</time>
      </trkpt>
      <trkpt lat="47.589194029569626" lon="18.895267993211746">
        <ele>426.07299999999998</ele>
        <time>2010-02-06T23:55:14Z</time>
      </trkpt>
      <trkpt lat="47.589163016527891" lon="18.895209990441799">
        <ele>425.82600000000002</ele>
        <time>2010-02-06T23:55:16Z</time>
      </trkpt>
      <trkpt lat="47.589124040678144" lon="18.895161040127277">
        <ele>425.77800000000002</ele>
        <time>2010-02-06T23:55:18Z</time>
      </trkpt>
      <trkpt lat="47.589085986837745" lon="18.895114017650485">
        <ele>424.89400000000001</ele>
        <time>2010-02-06T23:55:20Z</time>
      </trkpt>
      <trkpt lat="47.589040976017714" lon="18.895066995173693">
        <ele>424.81</ele>
        <time>2010-02-06T23:55:22Z</time>
      </trkpt>
      <trkpt lat="47.588995965197682" lon="18.8950199726969">
        <ele>424.58300000000003</ele>
        <time>2010-02-06T23:55:24Z</time>
      </trkpt>
      <trkpt lat="47.588955983519554" lon="18.89497596770525">
        <ele>423.654</ele>
        <time>2010-02-06T23:55:26Z</time>
      </trkpt>
      <trkpt lat="47.588913990184665" lon="18.894936991855502">
        <ele>422.64699999999999</ele>
        <time>2010-02-06T23:55:28Z</time>
      </trkpt>
      <trkpt lat="47.588883982971311" lon="18.894903967157006">
        <ele>422.20299999999997</ele>
        <time>2010-02-06T23:55:30Z</time>
      </trkpt>
      <trkpt lat="47.588850958272815" lon="18.894879994913936">
        <ele>421.62599999999998</ele>
        <time>2010-02-06T23:55:32Z</time>
      </trkpt>
      <trkpt lat="47.588798990473151" lon="18.894851999357343">
        <ele>420.43099999999998</ele>
        <time>2010-02-06T23:55:34Z</time>
      </trkpt>
      <trkpt lat="47.588772000744939" lon="18.894831966608763">
        <ele>420.27600000000001</ele>
        <time>2010-02-06T23:55:35Z</time>
      </trkpt>
      <trkpt lat="47.588726989924908" lon="18.894798019900918">
        <ele>418.87900000000002</ele>
        <time>2010-02-06T23:55:37Z</time>
      </trkpt>
      <trkpt lat="47.588682984933257" lon="18.894770024344325">
        <ele>418.81</ele>
        <time>2010-02-06T23:55:39Z</time>
      </trkpt>
      <trkpt lat="47.588638979941607" lon="18.894757032394409">
        <ele>418.06900000000002</ele>
        <time>2010-02-06T23:55:41Z</time>
      </trkpt>
      <trkpt lat="47.588586006313562" lon="18.89473800547421">
        <ele>417.02600000000001</ele>
        <time>2010-02-06T23:55:43Z</time>
      </trkpt>
      <trkpt lat="47.588540995493531" lon="18.894712021574378">
        <ele>416.85300000000001</ele>
        <time>2010-02-06T23:55:45Z</time>
      </trkpt>
      <trkpt lat="47.588499002158642" lon="18.89467203989625">
        <ele>416.74400000000003</ele>
        <time>2010-02-06T23:55:47Z</time>
      </trkpt>
      <trkpt lat="47.588456002995372" lon="18.89462904073298">
        <ele>416.42399999999998</ele>
        <time>2010-02-06T23:55:49Z</time>
      </trkpt>
      <trkpt lat="47.588414009660482" lon="18.894602973014116">
        <ele>415.15199999999999</ele>
        <time>2010-02-06T23:55:51Z</time>
      </trkpt>
      <trkpt lat="47.588371010497212" lon="18.894572965800762">
        <ele>414.834</ele>
        <time>2010-02-06T23:55:53Z</time>
      </trkpt>
      <trkpt lat="47.588329017162323" lon="18.894543964415789">
        <ele>414.55099999999999</ele>
        <time>2010-02-06T23:55:55Z</time>
      </trkpt>
      <trkpt lat="47.588279983028769" lon="18.894509011879563">
        <ele>414.29599999999999</ele>
        <time>2010-02-06T23:55:57Z</time>
      </trkpt>
      <trkpt lat="47.588245030492544" lon="18.894476993009448">
        <ele>414.00999999999999</ele>
        <time>2010-02-06T23:55:59Z</time>
      </trkpt>
      <trkpt lat="47.588205970823765" lon="18.894433993846178">
        <ele>414.161</ele>
        <time>2010-02-06T23:56:01Z</time>
      </trkpt>
      <trkpt lat="47.588163977488875" lon="18.894393006339669">
        <ele>413.38600000000002</ele>
        <time>2010-02-06T23:56:03Z</time>
      </trkpt>
      <trkpt lat="47.588126007467508" lon="18.894343972206116">
        <ele>413.20499999999998</ele>
        <time>2010-02-06T23:56:05Z</time>
      </trkpt>
      <trkpt lat="47.58808602578938" lon="18.894298961386085">
        <ele>412.99799999999999</ele>
        <time>2010-02-06T23:56:07Z</time>
      </trkpt>
      <trkpt lat="47.588053001090884" lon="18.894257973879576">
        <ele>412.99299999999999</ele>
        <time>2010-02-06T23:56:09Z</time>
      </trkpt>
      <trkpt lat="47.588030034676194" lon="18.894199971109629">
        <ele>412.51299999999998</ele>
        <time>2010-02-06T23:56:11Z</time>
      </trkpt>
      <trkpt lat="47.588004972785711" lon="18.894142974168062">
        <ele>412.75599999999997</ele>
        <time>2010-02-06T23:56:13Z</time>
      </trkpt>
      <trkpt lat="47.587988041341305" lon="18.894079020246863">
        <ele>411.065</ele>
        <time>2010-02-06T23:56:15Z</time>
      </trkpt>
      <trkpt lat="47.587965996935964" lon="18.894025962799788">
        <ele>410.99599999999998</ele>
        <time>2010-02-06T23:56:17Z</time>
      </trkpt>
      <trkpt lat="47.58793598972261" lon="18.89396796002984">
        <ele>411.02499999999998</ele>
        <time>2010-02-06T23:56:19Z</time>
      </trkpt>
      <trkpt lat="47.5879140291363" lon="18.893907023593783">
        <ele>410.81900000000002</ele>
        <time>2010-02-06T23:56:21Z</time>
      </trkpt>
      <trkpt lat="47.58789299055934" lon="18.893844997510314">
        <ele>410.82499999999999</ele>
        <time>2010-02-06T23:56:23Z</time>
      </trkpt>
      <trkpt lat="47.587878992781043" lon="18.893781965598464">
        <ele>409.69999999999999</ele>
        <time>2010-02-06T23:56:25Z</time>
      </trkpt>
      <trkpt lat="47.58787002414465" lon="18.893713988363743">
        <ele>409.55099999999999</ele>
        <time>2010-02-06T23:56:27Z</time>
      </trkpt>
      <trkpt lat="47.587852003052831" lon="18.893650034442544">
        <ele>409.09800000000001</ele>
        <time>2010-02-06T23:56:29Z</time>
      </trkpt>
      <trkpt lat="47.587844962254167" lon="18.893582979217172">
        <ele>409.08100000000002</ele>
        <time>2010-02-06T23:56:31Z</time>
      </trkpt>
      <trkpt lat="47.587831970304251" lon="18.893520031124353">
        <ele>408.60700000000003</ele>
        <time>2010-02-06T23:56:33Z</time>
      </trkpt>
      <trkpt lat="47.587817972525954" lon="18.893462028354406">
        <ele>408.56799999999998</ele>
        <time>2010-02-06T23:56:35Z</time>
      </trkpt>
      <trkpt lat="47.587800035253167" lon="18.893392961472273">
        <ele>407.75700000000001</ele>
        <time>2010-02-06T23:56:37Z</time>
      </trkpt>
      <trkpt lat="47.587780002504587" lon="18.893333030864596">
        <ele>407.60399999999998</ele>
        <time>2010-02-06T23:56:39Z</time>
      </trkpt>
      <trkpt lat="47.58776499889791" lon="18.893272010609508">
        <ele>407.79300000000001</ele>
        <time>2010-02-06T23:56:41Z</time>
      </trkpt>
      <trkpt lat="47.587753012776375" lon="18.893214007839561">
        <ele>407.73099999999999</ele>
        <time>2010-02-06T23:56:43Z</time>
      </trkpt>
      <trkpt lat="47.587727028876543" lon="18.893146030604839">
        <ele>407.99299999999999</ele>
        <time>2010-02-06T23:56:45Z</time>
      </trkpt>
      <trkpt lat="47.587690986692905" lon="18.893086016178131">
        <ele>407.5</ele>
        <time>2010-02-06T23:56:47Z</time>
      </trkpt>
      <trkpt lat="47.587661985307932" lon="18.893027007579803">
        <ele>408.26400000000001</ele>
        <time>2010-02-06T23:56:49Z</time>
      </trkpt>
      <trkpt lat="47.587632983922958" lon="18.892973028123379">
        <ele>407.01299999999998</ele>
        <time>2010-02-06T23:56:51Z</time>
      </trkpt>
      <trkpt lat="47.587609011679888" lon="18.892904967069626">
        <ele>407.048</ele>
        <time>2010-02-06T23:56:53Z</time>
      </trkpt>
      <trkpt lat="47.587579004466534" lon="18.892849981784821">
        <ele>407.154</ele>
        <time>2010-02-06T23:56:55Z</time>
      </trkpt>
      <trkpt lat="47.587547991424799" lon="18.892791979014874">
        <ele>406.85500000000002</ele>
        <time>2010-02-06T23:56:57Z</time>
      </trkpt>
      <trkpt lat="47.587515972554684" lon="18.892733976244926">
        <ele>406.803</ele>
        <time>2010-02-06T23:56:59Z</time>
      </trkpt>
      <trkpt lat="47.587476996704936" lon="18.892682008445263">
        <ele>406.41199999999998</ele>
        <time>2010-02-06T23:57:01Z</time>
      </trkpt>
      <trkpt lat="47.587445983663201" lon="18.892629034817219">
        <ele>406.67700000000002</ele>
        <time>2010-02-06T23:57:03Z</time>
      </trkpt>
      <trkpt lat="47.58742100559175" lon="18.892575977370143">
        <ele>406.07299999999998</ele>
        <time>2010-02-06T23:57:05Z</time>
      </trkpt>
      <trkpt lat="47.587379012256861" lon="18.892533984035254">
        <ele>406.62200000000001</ele>
        <time>2010-02-06T23:57:07Z</time>
      </trkpt>
      <trkpt lat="47.587338024750352" lon="18.892492996528745">
        <ele>406.20699999999999</ele>
        <time>2010-02-06T23:57:09Z</time>
      </trkpt>
      <trkpt lat="47.587300976738334" lon="18.892455026507378">
        <ele>406.10399999999998</ele>
        <time>2010-02-06T23:57:11Z</time>
      </trkpt>
      <trkpt lat="47.587293013930321" lon="18.892412027344108">
        <ele>405.71300000000002</ele>
        <time>2010-02-06T23:57:13Z</time>
      </trkpt>
      <trkpt lat="47.587310029193759" lon="18.892360981553793">
        <ele>406.529</ele>
        <time>2010-02-06T23:57:17Z</time>
      </trkpt>
      <trkpt lat="47.587339030578732" lon="18.892319994047284">
        <ele>407.16000000000003</ele>
        <time>2010-02-06T23:57:20Z</time>
      </trkpt>
      <trkpt lat="47.587359985336661" lon="18.892262997105718">
        <ele>406.94999999999999</ele>
        <time>2010-02-06T23:57:23Z</time>
      </trkpt>
      <trkpt lat="47.587351016700268" lon="18.892204994335771">
        <ele>407.20800000000003</ele>
        <time>2010-02-06T23:57:28Z</time>
      </trkpt>
      <trkpt lat="47.587374988943338" lon="18.892173981294036">
        <ele>407.19400000000002</ele>
        <time>2010-02-06T23:57:50Z</time>
      </trkpt>
      <trkpt lat="47.587410025298595" lon="18.89213802292943">
        <ele>407.012</ele>
        <time>2010-02-06T23:57:53Z</time>
      </trkpt>
      <trkpt lat="47.58744296617806" lon="18.892078008502722">
        <ele>406.78100000000001</ele>
        <time>2010-02-06T23:57:56Z</time>
      </trkpt>
      <trkpt lat="47.587467022240162" lon="18.892018999904394">
        <ele>407.50900000000001</ele>
        <time>2010-02-06T23:57:59Z</time>
      </trkpt>
      <trkpt lat="47.587510021403432" lon="18.891959991306067">
        <ele>407.84100000000001</ele>
        <time>2010-02-06T23:58:02Z</time>
      </trkpt>
      <trkpt lat="47.587542962282896" lon="18.891914980486035">
        <ele>407.01900000000001</ele>
        <time>2010-02-06T23:58:05Z</time>
      </trkpt>
      <trkpt lat="47.587579004466534" lon="18.891871981322765">
        <ele>407.822</ele>
        <time>2010-02-06T23:58:08Z</time>
      </trkpt>
      <trkpt lat="47.58761496283114" lon="18.891849014908075">
        <ele>407.64999999999998</ele>
        <time>2010-02-06T23:58:11Z</time>
      </trkpt>
      <trkpt lat="47.587646981701255" lon="18.891813978552818">
        <ele>407.58199999999999</ele>
        <time>2010-02-06T23:58:14Z</time>
      </trkpt>
      <trkpt lat="47.587686963379383" lon="18.891785982996225">
        <ele>408.00700000000001</ele>
        <time>2010-02-06T23:58:16Z</time>
      </trkpt>
      <trkpt lat="47.587714958935976" lon="18.891744995489717">
        <ele>408.05500000000001</ele>
        <time>2010-02-06T23:58:18Z</time>
      </trkpt>
      <trkpt lat="47.58774102665484" lon="18.891704007983208">
        <ele>407.60599999999999</ele>
        <time>2010-02-06T23:58:20Z</time>
      </trkpt>
      <trkpt lat="47.587769022211432" lon="18.891664026305079">
        <ele>408.61799999999999</ele>
        <time>2010-02-06T23:58:22Z</time>
      </trkpt>
      <trkpt lat="47.587809003889561" lon="18.891611974686384">
        <ele>407.25099999999998</ele>
        <time>2010-02-06T23:58:25Z</time>
      </trkpt>
      <trkpt lat="47.587844962254167" lon="18.891566041857004">
        <ele>407.88499999999999</ele>
        <time>2010-02-06T23:58:28Z</time>
      </trkpt>
      <trkpt lat="47.587883016094565" lon="18.891534022986889">
        <ele>407.84399999999999</ele>
        <time>2010-02-06T23:58:31Z</time>
      </trkpt>
      <trkpt lat="47.58791696280241" lon="18.891508961096406">
        <ele>408.44900000000001</ele>
        <time>2010-02-06T23:58:34Z</time>
      </trkpt>
      <trkpt lat="47.587955016642809" lon="18.891465039923787">
        <ele>408.51100000000002</ele>
        <time>2010-02-06T23:58:37Z</time>
      </trkpt>
      <trkpt lat="47.587977983057499" lon="18.891441989690065">
        <ele>408.471</ele>
        <time>2010-02-06T23:58:39Z</time>
      </trkpt>
      <trkpt lat="47.58802198804915" lon="18.891401002183557">
        <ele>408.43700000000001</ele>
        <time>2010-02-06T23:58:42Z</time>
      </trkpt>
      <trkpt lat="47.588060963898897" lon="18.891363032162189">
        <ele>408.98099999999999</ele>
        <time>2010-02-06T23:58:45Z</time>
      </trkpt>
      <trkpt lat="47.588102035224438" lon="18.89134400524199">
        <ele>408.64499999999998</ele>
        <time>2010-02-06T23:58:48Z</time>
      </trkpt>
      <trkpt lat="47.588138999417424" lon="18.891334030777216">
        <ele>409.35000000000002</ele>
        <time>2010-02-06T23:58:51Z</time>
      </trkpt>
      <trkpt lat="47.588177975267172" lon="18.891307963058352">
        <ele>409.55599999999998</ele>
        <time>2010-02-06T23:58:54Z</time>
      </trkpt>
      <trkpt lat="47.588222986087203" lon="18.891268987208605">
        <ele>410.178</ele>
        <time>2010-02-06T23:58:57Z</time>
      </trkpt>
      <trkpt lat="47.588273026049137" lon="18.891227999702096">
        <ele>410.69299999999998</ele>
        <time>2010-02-06T23:59:01Z</time>
      </trkpt>
      <trkpt lat="47.588300015777349" lon="18.891179971396923">
        <ele>410.61599999999999</ele>
        <time>2010-02-06T23:59:06Z</time>
      </trkpt>
      <trkpt lat="47.588319964706898" lon="18.891106965020299">
        <ele>411.83100000000002</ele>
        <time>2010-02-06T23:59:10Z</time>
      </trkpt>
      <trkpt lat="47.588325999677181" lon="18.891027001664042">
        <ele>413.01299999999998</ele>
        <time>2010-02-06T23:59:14Z</time>
      </trkpt>
      <trkpt lat="47.588346032425761" lon="18.890959024429321">
        <ele>413.851</ele>
        <time>2010-02-06T23:59:17Z</time>
      </trkpt>
      <trkpt lat="47.58836698718369" lon="18.890894986689091">
        <ele>413.60500000000002</ele>
        <time>2010-02-06T23:59:21Z</time>
      </trkpt>
      <trkpt lat="47.588382996618748" lon="18.890826003625989">
        <ele>414.02199999999999</ele>
        <time>2010-02-06T23:59:25Z</time>
      </trkpt>
      <trkpt lat="47.588410992175341" lon="18.890766995027661">
        <ele>414.85399999999998</ele>
        <time>2010-02-06T23:59:28Z</time>
      </trkpt>
      <trkpt lat="47.588429013267159" lon="18.890692982822657">
        <ele>414.87799999999999</ele>
        <time>2010-02-06T23:59:31Z</time>
      </trkpt>
      <trkpt lat="47.588427001610398" lon="18.890621988102794">
        <ele>414.55399999999997</ele>
        <time>2010-02-06T23:59:34Z</time>
      </trkpt>
      <trkpt lat="47.588427001610398" lon="18.890564991161227">
        <ele>414.25999999999999</ele>
        <time>2010-02-06T23:59:36Z</time>
      </trkpt>
      <trkpt lat="47.588437981903553" lon="18.890490978956223">
        <ele>414.91199999999998</ele>
        <time>2010-02-06T23:59:39Z</time>
      </trkpt>
      <trkpt lat="47.588448040187359" lon="18.890432976186275">
        <ele>414.68599999999998</ele>
        <time>2010-02-06T23:59:42Z</time>
      </trkpt>
      <trkpt lat="47.588464971631765" lon="18.890359969809651">
        <ele>414.81900000000002</ele>
        <time>2010-02-06T23:59:45Z</time>
      </trkpt>
      <trkpt lat="47.588480981066823" lon="18.890302972868085">
        <ele>414.93200000000002</ele>
        <time>2010-02-06T23:59:48Z</time>
      </trkpt>
      <trkpt lat="47.588493973016739" lon="18.890233989804983">
        <ele>416.26799999999997</ele>
        <time>2010-02-06T23:59:52Z</time>
      </trkpt>
      <trkpt lat="47.588511994108558" lon="18.890179004520178">
        <ele>416.43799999999999</ele>
        <time>2010-02-06T23:59:55Z</time>
      </trkpt>
      <trkpt lat="47.588531021028757" lon="18.890115972608328">
        <ele>416.82799999999997</ele>
        <time>2010-02-06T23:59:58Z</time>
      </trkpt>
      <trkpt lat="47.588530015200377" lon="18.890067022293806">
        <ele>417.62</ele>
        <time>2010-02-07T00:00:00Z</time>
      </trkpt>
      <trkpt lat="47.588532026857138" lon="18.889992004260421">
        <ele>417.85000000000002</ele>
        <time>2010-02-07T00:00:03Z</time>
      </trkpt>
      <trkpt lat="47.588546024635434" lon="18.88992503285408">
        <ele>417.88</ele>
        <time>2010-02-07T00:00:06Z</time>
      </trkpt>
      <trkpt lat="47.588553987443447" lon="18.889877004548907">
        <ele>418.76499999999999</ele>
        <time>2010-02-07T00:00:09Z</time>
      </trkpt>
      <trkpt lat="47.588563039898872" lon="18.889811960980296">
        <ele>419.20499999999998</ele>
        <time>2010-02-07T00:00:12Z</time>
      </trkpt>
      <trkpt lat="47.588563961908221" lon="18.889753958210349">
        <ele>418.68799999999999</ele>
        <time>2010-02-07T00:00:15Z</time>
      </trkpt>
      <trkpt lat="47.588571002706885" lon="18.889697967097163">
        <ele>418.988</ele>
        <time>2010-02-07T00:00:17Z</time>
      </trkpt>
      <trkpt lat="47.588577037677169" lon="18.889649016782641">
        <ele>419.08199999999999</ele>
        <time>2010-02-07T00:00:19Z</time>
      </trkpt>
      <trkpt lat="47.588573014363647" lon="18.889568969607353">
        <ele>419.19799999999998</ele>
        <time>2010-02-07T00:00:22Z</time>
      </trkpt>
      <trkpt lat="47.588576031848788" lon="18.889501998201013">
        <ele>419.58999999999997</ele>
        <time>2010-02-07T00:00:25Z</time>
      </trkpt>
      <trkpt lat="47.588580977171659" lon="18.889443995431066">
        <ele>419.63200000000001</ele>
        <time>2010-02-07T00:00:27Z</time>
      </trkpt>
      <trkpt lat="47.58858198300004" lon="18.889394039288163">
        <ele>419.21899999999999</ele>
        <time>2010-02-07T00:00:29Z</time>
      </trkpt>
      <trkpt lat="47.588582988828421" lon="18.889343999326229">
        <ele>419.26400000000001</ele>
        <time>2010-02-07T00:00:31Z</time>
      </trkpt>
      <trkpt lat="47.588573014363647" lon="18.889293959364295">
        <ele>419.60300000000001</ele>
        <time>2010-02-07T00:00:33Z</time>
      </trkpt>
      <trkpt lat="47.588560022413731" lon="18.88923897407949">
        <ele>419.529</ele>
        <time>2010-02-07T00:00:35Z</time>
      </trkpt>
      <trkpt lat="47.588536972180009" lon="18.889178959652781">
        <ele>419.351</ele>
        <time>2010-02-07T00:00:37Z</time>
      </trkpt>
      <trkpt lat="47.588514005765319" lon="18.889118023216724">
        <ele>419.60000000000002</ele>
        <time>2010-02-07T00:00:39Z</time>
      </trkpt>
      <trkpt lat="47.588509982451797" lon="18.889047028496861">
        <ele>419.21899999999999</ele>
        <time>2010-02-07T00:00:41Z</time>
      </trkpt>
      <trkpt lat="47.588505037128925" lon="18.888985002413392">
        <ele>418.678</ele>
        <time>2010-02-07T00:00:43Z</time>
      </trkpt>
      <trkpt lat="47.588500007987022" lon="18.888918031007051">
        <ele>418.82600000000002</ele>
        <time>2010-02-07T00:00:45Z</time>
      </trkpt>
      <trkpt lat="47.588511994108558" lon="18.888848964124918">
        <ele>418.94400000000002</ele>
        <time>2010-02-07T00:00:47Z</time>
      </trkpt>
      <trkpt lat="47.588518029078841" lon="18.888780986890197">
        <ele>418.541</ele>
        <time>2010-02-07T00:00:49Z</time>
      </trkpt>
      <trkpt lat="47.588523980230093" lon="18.888698006048799">
        <ele>418.26299999999998</ele>
        <time>2010-02-07T00:00:51Z</time>
      </trkpt>
      <trkpt lat="47.588502019643784" lon="18.888634974136949">
        <ele>418.65499999999997</ele>
        <time>2010-02-07T00:00:53Z</time>
      </trkpt>
      <trkpt lat="47.588464971631765" lon="18.88857202604413">
        <ele>418.79000000000002</ele>
        <time>2010-02-07T00:00:55Z</time>
      </trkpt>
      <trkpt lat="47.588439993560314" lon="18.888515029102564">
        <ele>417.78800000000001</ele>
        <time>2010-02-07T00:00:57Z</time>
      </trkpt>
      <trkpt lat="47.588419960811734" lon="18.888462977483869">
        <ele>418.26600000000002</ele>
        <time>2010-02-07T00:00:59Z</time>
      </trkpt>
      <trkpt lat="47.588395988568664" lon="18.888420984148979">
        <ele>418.52199999999999</ele>
        <time>2010-02-07T00:01:01Z</time>
      </trkpt>
      <trkpt lat="47.588376039639115" lon="18.888376979157329">
        <ele>418.238</ele>
        <time>2010-02-07T00:01:03Z</time>
      </trkpt>
      <trkpt lat="47.588361036032438" lon="18.888331968337297">
        <ele>418.12200000000001</ele>
        <time>2010-02-07T00:01:05Z</time>
      </trkpt>
      <trkpt lat="47.588350977748632" lon="18.888286035507917">
        <ele>418.39299999999997</ele>
        <time>2010-02-07T00:01:07Z</time>
      </trkpt>
      <trkpt lat="47.588335974141955" lon="18.888239013031125">
        <ele>417.67700000000002</ele>
        <time>2010-02-07T00:01:09Z</time>
      </trkpt>
      <trkpt lat="47.588319964706898" lon="18.888198025524616">
        <ele>418.66399999999999</ele>
        <time>2010-02-07T00:01:11Z</time>
      </trkpt>
      <trkpt lat="47.588288029655814" lon="18.888139016926289">
        <ele>419.30900000000003</ele>
        <time>2010-02-07T00:01:14Z</time>
      </trkpt>
      <trkpt lat="47.588269002735615" lon="18.888088976964355">
        <ele>419.10500000000002</ele>
        <time>2010-02-07T00:01:16Z</time>
      </trkpt>
      <trkpt lat="47.588262967765331" lon="18.888042960315943">
        <ele>419.42399999999998</ele>
        <time>2010-02-07T00:01:18Z</time>
      </trkpt>
      <trkpt lat="47.58825802244246" lon="18.887988980859518">
        <ele>419.44099999999997</ele>
        <time>2010-02-07T00:01:21Z</time>
      </trkpt>
      <trkpt lat="47.588266991078854" lon="18.887927960604429">
        <ele>420.02499999999998</ele>
        <time>2010-02-07T00:01:24Z</time>
      </trkpt>
      <trkpt lat="47.58828098885715" lon="18.887855038046837">
        <ele>419.87</ele>
        <time>2010-02-07T00:01:27Z</time>
      </trkpt>
      <trkpt lat="47.588281994685531" lon="18.887793011963367">
        <ele>419.40699999999998</ele>
        <time>2010-02-07T00:01:29Z</time>
      </trkpt>
      <trkpt lat="47.588284006342292" lon="18.887726962566376">
        <ele>419.40100000000001</ele>
        <time>2010-02-07T00:01:31Z</time>
      </trkpt>
      <trkpt lat="47.588302027434111" lon="18.887580027803779">
        <ele>419.46699999999998</ele>
        <time>2010-02-07T00:01:36Z</time>
      </trkpt>
      <trkpt lat="47.588312001898885" lon="18.887522025033832">
        <ele>419.54899999999998</ele>
        <time>2010-02-07T00:01:38Z</time>
      </trkpt>
      <trkpt lat="47.588317031040788" lon="18.887469973415136">
        <ele>419.755</ele>
        <time>2010-02-07T00:01:40Z</time>
      </trkpt>
      <trkpt lat="47.588322982192039" lon="18.887404007837176">
        <ele>419.96100000000001</ele>
        <time>2010-02-07T00:01:43Z</time>
      </trkpt>
      <trkpt lat="47.588331028819084" lon="18.887342987582088">
        <ele>419.68900000000002</ele>
        <time>2010-02-07T00:01:46Z</time>
      </trkpt>
      <trkpt lat="47.588333040475845" lon="18.887282973155379">
        <ele>420.75200000000001</ele>
        <time>2010-02-07T00:01:49Z</time>
      </trkpt>
      <trkpt lat="47.588337985798717" lon="18.887222958728671">
        <ele>421.35899999999998</ele>
        <time>2010-02-07T00:01:52Z</time>
      </trkpt>
      <trkpt lat="47.588346032425761" lon="18.887165961787105">
        <ele>421.96300000000002</ele>
        <time>2010-02-07T00:01:55Z</time>
      </trkpt>
      <trkpt lat="47.588352989405394" lon="18.88711198233068">
        <ele>422.01600000000002</ele>
        <time>2010-02-07T00:01:58Z</time>
      </trkpt>
      <trkpt lat="47.588359024375677" lon="18.887058002874255">
        <ele>422.48700000000002</ele>
        <time>2010-02-07T00:02:01Z</time>
      </trkpt>
      <trkpt lat="47.58836698718369" lon="18.887010980397463">
        <ele>423.202</ele>
        <time>2010-02-07T00:02:04Z</time>
      </trkpt>
      <trkpt lat="47.588378973305225" lon="18.886964963749051">
        <ele>423.74900000000002</ele>
        <time>2010-02-07T00:02:07Z</time>
      </trkpt>
      <trkpt lat="47.588376961648464" lon="18.88691802509129">
        <ele>424.04199999999997</ele>
        <time>2010-02-07T00:02:10Z</time>
      </trkpt>
      <trkpt lat="47.588376961648464" lon="18.886866979300976">
        <ele>424.91800000000001</ele>
        <time>2010-02-07T00:02:13Z</time>
      </trkpt>
      <trkpt lat="47.588374027982354" lon="18.886811994016171">
        <ele>424.78500000000003</ele>
        <time>2010-02-07T00:02:16Z</time>
      </trkpt>
      <trkpt lat="47.588373022153974" lon="18.886756002902985">
        <ele>425.08300000000003</ele>
        <time>2010-02-07T00:02:19Z</time>
      </trkpt>
      <trkpt lat="47.588364975526929" lon="18.886705962941051">
        <ele>424.58300000000003</ele>
        <time>2010-02-07T00:02:21Z</time>
      </trkpt>
      <trkpt lat="47.588350977748632" lon="18.886651983484626">
        <ele>424.00099999999998</ele>
        <time>2010-02-07T00:02:23Z</time>
      </trkpt>
      <trkpt lat="47.588343014940619" lon="18.886587023735046">
        <ele>423.36700000000002</ele>
        <time>2010-02-07T00:02:25Z</time>
      </trkpt>
      <trkpt lat="47.588334968313575" lon="18.886521980166435">
        <ele>423.12</ele>
        <time>2010-02-07T00:02:27Z</time>
      </trkpt>
      <trkpt lat="47.588328011333942" lon="18.886457020416856">
        <ele>423.08800000000002</ele>
        <time>2010-02-07T00:02:29Z</time>
      </trkpt>
      <trkpt lat="47.588332034647465" lon="18.886392982676625">
        <ele>423.01100000000002</ele>
        <time>2010-02-07T00:02:31Z</time>
      </trkpt>
      <trkpt lat="47.588336979970336" lon="18.886333974078298">
        <ele>422.91899999999998</ele>
        <time>2010-02-07T00:02:33Z</time>
      </trkpt>
      <trkpt lat="47.588345026597381" lon="18.886273959651589">
        <ele>422.90699999999998</ele>
        <time>2010-02-07T00:02:35Z</time>
      </trkpt>
      <trkpt lat="47.588360030204058" lon="18.886219980195165">
        <ele>422.92599999999999</ele>
        <time>2010-02-07T00:02:37Z</time>
      </trkpt>
      <trkpt lat="47.588371010497212" lon="18.886172035709023">
        <ele>422.69299999999998</ele>
        <time>2010-02-07T00:02:39Z</time>
      </trkpt>
      <trkpt lat="47.588382996618748" lon="18.886126019060612">
        <ele>423.28899999999999</ele>
        <time>2010-02-07T00:02:41Z</time>
      </trkpt>
      <trkpt lat="47.588391965255141" lon="18.886082014068961">
        <ele>423.46199999999999</ele>
        <time>2010-02-07T00:02:43Z</time>
      </trkpt>
      <trkpt lat="47.588401017710567" lon="18.886018982157111">
        <ele>423.48200000000003</ele>
        <time>2010-02-07T00:02:46Z</time>
      </trkpt>
      <trkpt lat="47.588401017710567" lon="18.885960979387164">
        <ele>423.709</ele>
        <time>2010-02-07T00:02:49Z</time>
      </trkpt>
      <trkpt lat="47.588411998003721" lon="18.885901970788836">
        <ele>424.32900000000001</ele>
        <time>2010-02-07T00:02:52Z</time>
      </trkpt>
      <trkpt lat="47.588417027145624" lon="18.885846985504031">
        <ele>424.83100000000002</ele>
        <time>2010-02-07T00:02:55Z</time>
      </trkpt>
      <trkpt lat="47.588402023538947" lon="18.885786971077323">
        <ele>424.76400000000001</ele>
        <time>2010-02-07T00:02:59Z</time>
      </trkpt>
      <trkpt lat="47.588401017710567" lon="18.885718993842602">
        <ele>425.08699999999999</ele>
        <time>2010-02-07T00:03:03Z</time>
      </trkpt>
      <trkpt lat="47.588388025760651" lon="18.885664008557796">
        <ele>425.32900000000001</ele>
        <time>2010-02-07T00:03:06Z</time>
      </trkpt>
      <trkpt lat="47.588384002447128" lon="18.885606005787849">
        <ele>424.76600000000002</ele>
        <time>2010-02-07T00:03:09Z</time>
      </trkpt>
      <trkpt lat="47.588379979133606" lon="18.885550014674664">
        <ele>425.30900000000003</ele>
        <time>2010-02-07T00:03:12Z</time>
      </trkpt>
      <trkpt lat="47.588370004668832" lon="18.885488994419575">
        <ele>425.37900000000002</ele>
        <time>2010-02-07T00:03:15Z</time>
      </trkpt>
      <trkpt lat="47.588357012718916" lon="18.885411964729428">
        <ele>425.63999999999999</ele>
        <time>2010-02-07T00:03:19Z</time>
      </trkpt>
      <trkpt lat="47.588346032425761" lon="18.885347004979849">
        <ele>426.51999999999998</ele>
        <time>2010-02-07T00:03:22Z</time>
      </trkpt>
      <trkpt lat="47.588347960263491" lon="18.885289002209902">
        <ele>426.38499999999999</ele>
        <time>2010-02-07T00:03:25Z</time>
      </trkpt>
      <trkpt lat="47.588347038254142" lon="18.885209960862994">
        <ele>426.291</ele>
        <time>2010-02-07T00:03:29Z</time>
      </trkpt>
      <trkpt lat="47.588348966091871" lon="18.885154975578189">
        <ele>427.05900000000003</ele>
        <time>2010-02-07T00:03:32Z</time>
      </trkpt>
      <trkpt lat="47.588342009112239" lon="18.885106025263667">
        <ele>427.27199999999999</ele>
        <time>2010-02-07T00:03:35Z</time>
      </trkpt>
      <trkpt lat="47.588347960263491" lon="18.885059002786875">
        <ele>427.47399999999999</ele>
        <time>2010-02-07T00:03:38Z</time>
      </trkpt>
      <trkpt lat="47.588355001062155" lon="18.885001000016928">
        <ele>428.23599999999999</ele>
        <time>2010-02-07T00:03:41Z</time>
      </trkpt>
      <trkpt lat="47.588348966091871" lon="18.884923970326781">
        <ele>428.92099999999999</ele>
        <time>2010-02-07T00:03:45Z</time>
      </trkpt>
      <trkpt lat="47.588346032425761" lon="18.884868985041976">
        <ele>429.67599999999999</ele>
        <time>2010-02-07T00:03:48Z</time>
      </trkpt>
      <trkpt lat="47.588337985798717" lon="18.884808970615268">
        <ele>429.517</ele>
        <time>2010-02-07T00:03:51Z</time>
      </trkpt>
      <trkpt lat="47.588333040475845" lon="18.88474702835083">
        <ele>429.911</ele>
        <time>2010-02-07T00:03:54Z</time>
      </trkpt>
      <trkpt lat="47.588329017162323" lon="18.88468399643898">
        <ele>429.96699999999998</ele>
        <time>2010-02-07T00:03:57Z</time>
      </trkpt>
      <trkpt lat="47.588312001898885" lon="18.884624987840652">
        <ele>430.27199999999999</ele>
        <time>2010-02-07T00:04:00Z</time>
      </trkpt>
      <trkpt lat="47.588303033262491" lon="18.884551981464028">
        <ele>429.471</ele>
        <time>2010-02-07T00:04:03Z</time>
      </trkpt>
      <trkpt lat="47.588286017999053" lon="18.884494984522462">
        <ele>430.08100000000002</ele>
        <time>2010-02-07T00:04:06Z</time>
      </trkpt>
      <trkpt lat="47.588267996907234" lon="18.884438993409276">
        <ele>431.09199999999998</ele>
        <time>2010-02-07T00:04:09Z</time>
      </trkpt>
      <trkpt lat="47.588263973593712" lon="18.884384008124471">
        <ele>431.24700000000001</ele>
        <time>2010-02-07T00:04:12Z</time>
      </trkpt>
      <trkpt lat="47.588262967765331" lon="18.884328017011285">
        <ele>431.447</ele>
        <time>2010-02-07T00:04:15Z</time>
      </trkpt>
      <trkpt lat="47.588243018835783" lon="18.884287029504776">
        <ele>432.01600000000002</ele>
        <time>2010-02-07T00:04:18Z</time>
      </trkpt>
      <trkpt lat="47.588230026885867" lon="18.884237995371222">
        <ele>431.84300000000002</ele>
        <time>2010-02-07T00:04:21Z</time>
      </trkpt>
      <trkpt lat="47.588235978037119" lon="18.88418803922832">
        <ele>432.80399999999997</ele>
        <time>2010-02-07T00:04:24Z</time>
      </trkpt>
      <trkpt lat="47.588243018835783" lon="18.884137999266386">
        <ele>433.065</ele>
        <time>2010-02-07T00:04:27Z</time>
      </trkpt>
      <trkpt lat="47.588263973593712" lon="18.884083013981581">
        <ele>433.14100000000002</ele>
        <time>2010-02-07T00:04:30Z</time>
      </trkpt>
      <trkpt lat="47.588261039927602" lon="18.884022999554873">
        <ele>433.86200000000002</ele>
        <time>2010-02-07T00:04:34Z</time>
      </trkpt>
      <trkpt lat="47.588274031877518" lon="18.883962985128164">
        <ele>434.40199999999999</ele>
        <time>2010-02-07T00:04:38Z</time>
      </trkpt>
      <trkpt lat="47.588303033262491" lon="18.883899031206965">
        <ele>434.25</ele>
        <time>2010-02-07T00:04:42Z</time>
      </trkpt>
      <trkpt lat="47.588306972756982" lon="18.883853014558554">
        <ele>435.49400000000003</ele>
        <time>2010-02-07T00:04:45Z</time>
      </trkpt>
      <trkpt lat="47.588309990242124" lon="18.883787970989943">
        <ele>436.25400000000002</ele>
        <time>2010-02-07T00:04:49Z</time>
      </trkpt>
      <trkpt lat="47.588318958878517" lon="18.883736003190279">
        <ele>437.03399999999999</ele>
        <time>2010-02-07T00:04:53Z</time>
      </trkpt>
      <trkpt lat="47.588308984413743" lon="18.88367397710681">
        <ele>437.95699999999999</ele>
        <time>2010-02-07T00:04:57Z</time>
      </trkpt>
      <trkpt lat="47.588294986635447" lon="18.883612034842372">
        <ele>439.64499999999998</ele>
        <time>2010-02-07T00:05:01Z</time>
      </trkpt>
      <trkpt lat="47.588277971372008" lon="18.883559983223677">
        <ele>440.029</ele>
        <time>2010-02-07T00:05:06Z</time>
      </trkpt>
      <trkpt lat="47.588264979422092" lon="18.883497035130858">
        <ele>440.17700000000002</ele>
        <time>2010-02-07T00:05:10Z</time>
      </trkpt>
      <trkpt lat="47.588261039927602" lon="18.883444983512163">
        <ele>441.36399999999998</ele>
        <time>2010-02-07T00:05:15Z</time>
      </trkpt>
      <trkpt lat="47.588270008563995" lon="18.883386980742216">
        <ele>442.572</ele>
        <time>2010-02-07T00:05:19Z</time>
      </trkpt>
      <trkpt lat="47.588287023827434" lon="18.883315986022353">
        <ele>443.15600000000001</ele>
        <time>2010-02-07T00:05:24Z</time>
      </trkpt>
      <trkpt lat="47.588287023827434" lon="18.883257983252406">
        <ele>444.42599999999999</ele>
        <time>2010-02-07T00:05:28Z</time>
      </trkpt>
      <trkpt lat="47.588288029655814" lon="18.883204003795981">
        <ele>444.98899999999998</ele>
        <time>2010-02-07T00:05:32Z</time>
      </trkpt>
      <trkpt lat="47.588284006342292" lon="18.883161004632711">
        <ele>446.24799999999999</ele>
        <time>2010-02-07T00:05:36Z</time>
      </trkpt>
      <trkpt lat="47.588294986635447" lon="18.883103001862764">
        <ele>448.46300000000002</ele>
        <time>2010-02-07T00:05:41Z</time>
      </trkpt>
      <trkpt lat="47.588308984413743" lon="18.88305296190083">
        <ele>449.38099999999997</ele>
        <time>2010-02-07T00:05:45Z</time>
      </trkpt>
      <trkpt lat="47.588320970535278" lon="18.883001999929547">
        <ele>449.28100000000001</ele>
        <time>2010-02-07T00:05:48Z</time>
      </trkpt>
      <trkpt lat="47.588334968313575" lon="18.88294299133122">
        <ele>449.834</ele>
        <time>2010-02-07T00:05:52Z</time>
      </trkpt>
      <trkpt lat="47.588346032425761" lon="18.882884988561273">
        <ele>450.41500000000002</ele>
        <time>2010-02-07T00:05:56Z</time>
      </trkpt>
      <trkpt lat="47.588359024375677" lon="18.882836038246751">
        <ele>450.83199999999999</ele>
        <time>2010-02-07T00:06:00Z</time>
      </trkpt>
      <trkpt lat="47.588370004668832" lon="18.882785998284817">
        <ele>452.09800000000001</ele>
        <time>2010-02-07T00:06:04Z</time>
      </trkpt>
      <trkpt lat="47.588376961648464" lon="18.882742999121547">
        <ele>453.411</ele>
        <time>2010-02-07T00:06:07Z</time>
      </trkpt>
      <trkpt lat="47.588386014103889" lon="18.882699999958277">
        <ele>453.25900000000001</ele>
        <time>2010-02-07T00:06:10Z</time>
      </trkpt>
      <trkpt lat="47.588390037417412" lon="18.882655994966626">
        <ele>453.56099999999998</ele>
        <time>2010-02-07T00:06:13Z</time>
      </trkpt>
      <trkpt lat="47.588400011882186" lon="18.882678961381316">
        <ele>453.096</ele>
        <time>2010-02-07T00:06:19Z</time>
      </trkpt>
      <trkpt lat="47.588414009660482" lon="18.882647026330233">
        <ele>454.25099999999998</ele>
        <time>2010-02-07T00:06:23Z</time>
      </trkpt>
      <trkpt lat="47.588419960811734" lon="18.88259899802506">
        <ele>454.75900000000001</ele>
        <time>2010-02-07T00:06:28Z</time>
      </trkpt>
      <trkpt lat="47.588427001610398" lon="18.882544012740254">
        <ele>456.16800000000001</ele>
        <time>2010-02-07T00:06:32Z</time>
      </trkpt>
      <trkpt lat="47.588433958590031" lon="18.882488021627069">
        <ele>456.23399999999998</ele>
        <time>2010-02-07T00:06:36Z</time>
      </trkpt>
      <trkpt lat="47.588447034358978" lon="18.882433036342263">
        <ele>457.17200000000003</ele>
        <time>2010-02-07T00:06:40Z</time>
      </trkpt>
      <trkpt lat="47.588449968025088" lon="18.882379978895187">
        <ele>457.47800000000001</ele>
        <time>2010-02-07T00:06:44Z</time>
      </trkpt>
      <trkpt lat="47.588462959975004" lon="18.882334968075156">
        <ele>457.149</ele>
        <time>2010-02-07T00:06:48Z</time>
      </trkpt>
      <trkpt lat="47.588486010208726" lon="18.882286017760634">
        <ele>459.63400000000001</ele>
        <time>2010-02-07T00:06:54Z</time>
      </trkpt>
      <trkpt lat="47.588491039350629" lon="18.8822359777987">
        <ele>459.03899999999999</ele>
        <time>2010-02-07T00:06:59Z</time>
      </trkpt>
      <trkpt lat="47.588496990501881" lon="18.882199013605714">
        <ele>460.55000000000001</ele>
        <time>2010-02-07T00:07:04Z</time>
      </trkpt>
      <trkpt lat="47.588518029078841" lon="18.882158026099205">
        <ele>462.27499999999998</ele>
        <time>2010-02-07T00:07:09Z</time>
      </trkpt>
      <trkpt lat="47.588554993271828" lon="18.882112009450793">
        <ele>464.32299999999998</ele>
        <time>2010-02-07T00:07:15Z</time>
      </trkpt>
      <trkpt lat="47.588575026020408" lon="18.882069010287523">
        <ele>464.32600000000002</ele>
        <time>2010-02-07T00:07:19Z</time>
      </trkpt>
      <trkpt lat="47.588606039062142" lon="18.882028022781014">
        <ele>464.85399999999998</ele>
        <time>2010-02-07T00:07:24Z</time>
      </trkpt>
      <trkpt lat="47.588626993820071" lon="18.881973959505558">
        <ele>465.892</ele>
        <time>2010-02-07T00:07:29Z</time>
      </trkpt>
      <trkpt lat="47.588644009083509" lon="18.881927020847797">
        <ele>466.33600000000001</ele>
        <time>2010-02-07T00:07:33Z</time>
      </trkpt>
      <trkpt lat="47.588662030175328" lon="18.881884021684527">
        <ele>466.52600000000001</ele>
        <time>2010-02-07T00:07:38Z</time>
      </trkpt>
      <trkpt lat="47.588691031560302" lon="18.881846973672509">
        <ele>468.03699999999998</ele>
        <time>2010-02-07T00:07:43Z</time>
      </trkpt>
      <trkpt lat="47.588718021288514" lon="18.881824007257819">
        <ele>469.15800000000002</ele>
        <time>2010-02-07T00:07:47Z</time>
      </trkpt>
      <trkpt lat="47.588747022673488" lon="18.881813026964664">
        <ele>469.803</ele>
        <time>2010-02-07T00:07:51Z</time>
      </trkpt>
      <trkpt lat="47.5887740124017" lon="18.881800035014749">
        <ele>471.46199999999999</ele>
        <time>2010-02-07T00:07:55Z</time>
      </trkpt>
      <trkpt lat="47.588807959109545" lon="18.881787965074182">
        <ele>471.29700000000003</ele>
        <time>2010-02-07T00:07:59Z</time>
      </trkpt>
      <trkpt lat="47.588840983808041" lon="18.881774973124266">
        <ele>472.09800000000001</ele>
        <time>2010-02-07T00:08:03Z</time>
      </trkpt>
      <trkpt lat="47.588877025991678" lon="18.881743960082531">
        <ele>473.29599999999999</ele>
        <time>2010-02-07T00:08:07Z</time>
      </trkpt>
      <trkpt lat="47.588908039033413" lon="18.881714036688209">
        <ele>474.22699999999998</ele>
        <time>2010-02-07T00:08:10Z</time>
      </trkpt>
      <trkpt lat="47.588935028761625" lon="18.88167698867619">
        <ele>474.54700000000003</ele>
        <time>2010-02-07T00:08:13Z</time>
      </trkpt>
      <trkpt lat="47.588970987126231" lon="18.881647987291217">
        <ele>474.26299999999998</ele>
        <time>2010-02-07T00:08:17Z</time>
      </trkpt>
      <trkpt lat="47.589003005996346" lon="18.881620997563004">
        <ele>474.20299999999997</ele>
        <time>2010-02-07T00:08:21Z</time>
      </trkpt>
      <trkpt lat="47.589031001552939" lon="18.881599958986044">
        <ele>474.16500000000002</ele>
        <time>2010-02-07T00:08:24Z</time>
      </trkpt>
      <trkpt lat="47.589055979624391" lon="18.881570035591722">
        <ele>474.60599999999999</ele>
        <time>2010-02-07T00:08:27Z</time>
      </trkpt>
      <trkpt lat="47.589081963524222" lon="18.881530975922942">
        <ele>476.00299999999999</ele>
        <time>2010-02-07T00:08:31Z</time>
      </trkpt>
      <trkpt lat="47.589111970737576" lon="18.881507003679872">
        <ele>477.31</ele>
        <time>2010-02-07T00:08:35Z</time>
      </trkpt>
      <trkpt lat="47.589147007092834" lon="18.88148202560842">
        <ele>477.92899999999997</ele>
        <time>2010-02-07T00:08:39Z</time>
      </trkpt>
      <trkpt lat="47.589173996821046" lon="18.881458975374699">
        <ele>477.88499999999999</ele>
        <time>2010-02-07T00:08:43Z</time>
      </trkpt>
      <trkpt lat="47.589209033176303" lon="18.881412958726287">
        <ele>478.25599999999997</ele>
        <time>2010-02-07T00:08:47Z</time>
      </trkpt>
      <trkpt lat="47.589235017076135" lon="18.881383035331964">
        <ele>478.63600000000002</ele>
        <time>2010-02-07T00:08:50Z</time>
      </trkpt>
      <trkpt lat="47.58926703594625" lon="18.881350010633469">
        <ele>479.02499999999998</ele>
        <time>2010-02-07T00:08:54Z</time>
      </trkpt>
      <trkpt lat="47.58929000236094" lon="18.881342969834805">
        <ele>481.16399999999999</ele>
        <time>2010-02-07T00:09:00Z</time>
      </trkpt>
      <trkpt lat="47.589326966553926" lon="18.881341964006424">
        <ele>482.63499999999999</ele>
        <time>2010-02-07T00:09:05Z</time>
      </trkpt>
      <trkpt lat="47.589362002909184" lon="18.881312040612102">
        <ele>483.904</ele>
        <time>2010-02-07T00:09:09Z</time>
      </trkpt>
      <trkpt lat="47.589397039264441" lon="18.881273986771703">
        <ele>484.24299999999999</ele>
        <time>2010-02-07T00:09:13Z</time>
      </trkpt>
      <trkpt lat="47.589422017335892" lon="18.881236016750336">
        <ele>485.911</ele>
        <time>2010-02-07T00:09:17Z</time>
      </trkpt>
      <trkpt lat="47.589450012892485" lon="18.881188994273543">
        <ele>486.38600000000002</ele>
        <time>2010-02-07T00:09:21Z</time>
      </trkpt>
      <trkpt lat="47.589455964043736" lon="18.881135014817119">
        <ele>486.77600000000001</ele>
        <time>2010-02-07T00:09:24Z</time>
      </trkpt>
      <trkpt lat="47.589460993185639" lon="18.881078017875552">
        <ele>486.84300000000002</ele>
        <time>2010-02-07T00:09:27Z</time>
      </trkpt>
      <trkpt lat="47.589470967650414" lon="18.881024038419127">
        <ele>486.71300000000002</ele>
        <time>2010-02-07T00:09:30Z</time>
      </trkpt>
      <trkpt lat="47.589483959600329" lon="18.880977015942335">
        <ele>486.65699999999998</ele>
        <time>2010-02-07T00:09:33Z</time>
      </trkpt>
      <trkpt lat="47.58950499817729" lon="18.880934016779065">
        <ele>487.28500000000003</ele>
        <time>2010-02-07T00:09:36Z</time>
      </trkpt>
      <trkpt lat="47.589526036754251" lon="18.880884982645512">
        <ele>487.47699999999998</ele>
        <time>2010-02-07T00:09:40Z</time>
      </trkpt>
      <trkpt lat="47.589544979855418" lon="18.880834020674229">
        <ele>488.06099999999998</ele>
        <time>2010-02-07T00:09:44Z</time>
      </trkpt>
      <trkpt lat="47.589554032310843" lon="18.880791021510959">
        <ele>488.06900000000002</ele>
        <time>2010-02-07T00:09:47Z</time>
      </trkpt>
      <trkpt lat="47.589564006775618" lon="18.880740981549025">
        <ele>489.00299999999999</ele>
        <time>2010-02-07T00:09:50Z</time>
      </trkpt>
      <trkpt lat="47.589579010382295" lon="18.880700999870896">
        <ele>489.80599999999998</ele>
        <time>2010-02-07T00:09:53Z</time>
      </trkpt>
      <trkpt lat="47.589598037302494" lon="18.880662024021149">
        <ele>490.13600000000002</ele>
        <time>2010-02-07T00:09:57Z</time>
      </trkpt>
      <trkpt lat="47.589617986232042" lon="18.880617013201118">
        <ele>490.76799999999997</ele>
        <time>2010-02-07T00:10:01Z</time>
      </trkpt>
      <trkpt lat="47.589648999273777" lon="18.880564961582422">
        <ele>492.57799999999997</ele>
        <time>2010-02-07T00:10:05Z</time>
      </trkpt>
      <trkpt lat="47.589669032022357" lon="18.880523974075913">
        <ele>492.67899999999997</ele>
        <time>2010-02-07T00:10:08Z</time>
      </trkpt>
      <trkpt lat="47.589685963466763" lon="18.88049203902483">
        <ele>493.21100000000001</ele>
        <time>2010-02-07T00:10:11Z</time>
      </trkpt>
      <trkpt lat="47.589709013700485" lon="18.880446022376418">
        <ele>493.57299999999998</ele>
        <time>2010-02-07T00:10:15Z</time>
      </trkpt>
      <trkpt lat="47.589732985943556" lon="18.880390031263232">
        <ele>493.97699999999998</ele>
        <time>2010-02-07T00:10:19Z</time>
      </trkpt>
      <trkpt lat="47.589753018692136" lon="18.880351977422833">
        <ele>493.99400000000003</ele>
        <time>2010-02-07T00:10:22Z</time>
      </trkpt>
      <trkpt lat="47.589768022298813" lon="18.880309984087944">
        <ele>494.86399999999998</ele>
        <time>2010-02-07T00:10:25Z</time>
      </trkpt>
      <trkpt lat="47.589785037562251" lon="18.880265979096293">
        <ele>495.476</ele>
        <time>2010-02-07T00:10:28Z</time>
      </trkpt>
      <trkpt lat="47.589802974835038" lon="18.880223985761404">
        <ele>495.77800000000002</ele>
        <time>2010-02-07T00:10:31Z</time>
      </trkpt>
      <trkpt lat="47.589823007583618" lon="18.880176963284612">
        <ele>495.839</ele>
        <time>2010-02-07T00:10:34Z</time>
      </trkpt>
      <trkpt lat="47.589833987876773" lon="18.880118960514665">
        <ele>496.79500000000002</ele>
        <time>2010-02-07T00:10:38Z</time>
      </trkpt>
      <trkpt lat="47.589862989261746" lon="18.880078978836536">
        <ele>496.99700000000001</ele>
        <time>2010-02-07T00:10:41Z</time>
      </trkpt>
      <trkpt lat="47.589887967333198" lon="18.880028016865253">
        <ele>497.29899999999998</ele>
        <time>2010-02-07T00:10:45Z</time>
      </trkpt>
      <trkpt lat="47.589915962889791" lon="18.879989963024855">
        <ele>497.14699999999999</ele>
        <time>2010-02-07T00:10:48Z</time>
      </trkpt>
      <trkpt lat="47.589952005073428" lon="18.879954004660249">
        <ele>497.01900000000001</ele>
        <time>2010-02-07T00:10:51Z</time>
      </trkpt>
      <trkpt lat="47.589989975094795" lon="18.879897007718682">
        <ele>498.86000000000001</ele>
        <time>2010-02-07T00:10:55Z</time>
      </trkpt>
      <trkpt lat="47.590014031156898" lon="18.879842022433877">
        <ele>498.20600000000002</ele>
        <time>2010-02-07T00:10:59Z</time>
      </trkpt>
      <trkpt lat="47.590018976479769" lon="18.879788964986801">
        <ele>499.36799999999999</ele>
        <time>2010-02-07T00:11:02Z</time>
      </trkpt>
      <trkpt lat="47.590039009228349" lon="18.879747977480292">
        <ele>500.27499999999998</ele>
        <time>2010-02-07T00:11:05Z</time>
      </trkpt>
      <trkpt lat="47.590055018663406" lon="18.879703972488642">
        <ele>500.86399999999998</ele>
        <time>2010-02-07T00:11:08Z</time>
      </trkpt>
      <trkpt lat="47.590073961764574" lon="18.879656028002501">
        <ele>501.351</ele>
        <time>2010-02-07T00:11:11Z</time>
      </trkpt>
      <trkpt lat="47.590095000341535" lon="18.879607999697328">
        <ele>501.64400000000001</ele>
        <time>2010-02-07T00:11:15Z</time>
      </trkpt>
      <trkpt lat="47.590119978412986" lon="18.879562988877296">
        <ele>502.17500000000001</ele>
        <time>2010-02-07T00:11:19Z</time>
      </trkpt>
      <trkpt lat="47.590142022818327" lon="18.879525018855929">
        <ele>503.12700000000001</ele>
        <time>2010-02-07T00:11:23Z</time>
      </trkpt>
      <trkpt lat="47.590161971747875" lon="18.879496017470956">
        <ele>503.48399999999998</ele>
        <time>2010-02-07T00:11:27Z</time>
      </trkpt>
      <trkpt lat="47.590186027809978" lon="18.879467016085982">
        <ele>503.84699999999998</ele>
        <time>2010-02-07T00:11:31Z</time>
      </trkpt>
      <trkpt lat="47.59021301753819" lon="18.879430973902345">
        <ele>504.97300000000001</ele>
        <time>2010-02-07T00:11:35Z</time>
      </trkpt>
      <trkpt lat="47.590244030579925" lon="18.879394009709358">
        <ele>505.59399999999999</ele>
        <time>2010-02-07T00:11:39Z</time>
      </trkpt>
      <trkpt lat="47.590272026136518" lon="18.879358973354101">
        <ele>506.23399999999998</ele>
        <time>2010-02-07T00:11:43Z</time>
      </trkpt>
      <trkpt lat="47.590297004207969" lon="18.879329971969128">
        <ele>506.92200000000003</ele>
        <time>2010-02-07T00:11:46Z</time>
      </trkpt>
      <trkpt lat="47.590327011421323" lon="18.879273980855942">
        <ele>507.12700000000001</ele>
        <time>2010-02-07T00:11:50Z</time>
      </trkpt>
      <trkpt lat="47.590366993099451" lon="18.879228970035911">
        <ele>507.04599999999999</ele>
        <time>2010-02-07T00:11:53Z</time>
      </trkpt>
      <trkpt lat="47.590395994484425" lon="18.879195023328066">
        <ele>507.03800000000001</ele>
        <time>2010-02-07T00:11:55Z</time>
      </trkpt>
      <trkpt lat="47.59042801335454" lon="18.879163004457951">
        <ele>506.24299999999999</ele>
        <time>2010-02-07T00:11:57Z</time>
      </trkpt>
      <trkpt lat="47.590464977547526" lon="18.879117993637919">
        <ele>507.02300000000002</ele>
        <time>2010-02-07T00:12:00Z</time>
      </trkpt>
      <trkpt lat="47.590496996417642" lon="18.879071976989508">
        <ele>507.04000000000002</ele>
        <time>2010-02-07T00:12:03Z</time>
      </trkpt>
      <trkpt lat="47.590523986145854" lon="18.879020009189844">
        <ele>507.59300000000002</ele>
        <time>2010-02-07T00:12:06Z</time>
      </trkpt>
      <trkpt lat="47.59055801667273" lon="18.878979021683335">
        <ele>507.78100000000001</ele>
        <time>2010-02-07T00:12:09Z</time>
      </trkpt>
      <trkpt lat="47.590588023886085" lon="18.878928981721401">
        <ele>508.16199999999998</ele>
        <time>2010-02-07T00:12:12Z</time>
      </trkpt>
      <trkpt lat="47.590616019442677" lon="18.878879025578499">
        <ele>508.11700000000002</ele>
        <time>2010-02-07T00:12:15Z</time>
      </trkpt>
      <trkpt lat="47.590647032484412" lon="18.878825968131423">
        <ele>508.25999999999999</ele>
        <time>2010-02-07T00:12:18Z</time>
      </trkpt>
      <trkpt lat="47.590678967535496" lon="18.878777017816901">
        <ele>508.81999999999999</ele>
        <time>2010-02-07T00:12:21Z</time>
      </trkpt>
      <trkpt lat="47.590705035254359" lon="18.878729995340109">
        <ele>508.66399999999999</ele>
        <time>2010-02-07T00:12:24Z</time>
      </trkpt>
      <trkpt lat="47.590726995840669" lon="18.878681967034936">
        <ele>508.68599999999998</ele>
        <time>2010-02-07T00:12:27Z</time>
      </trkpt>
      <trkpt lat="47.59075197391212" lon="18.878632010892034">
        <ele>508.685</ele>
        <time>2010-02-07T00:12:30Z</time>
      </trkpt>
      <trkpt lat="47.590778963640332" lon="18.878585994243622">
        <ele>508.38200000000001</ele>
        <time>2010-02-07T00:12:33Z</time>
      </trkpt>
      <trkpt lat="47.590806959196925" lon="18.878535032272339">
        <ele>509.072</ele>
        <time>2010-02-07T00:12:36Z</time>
      </trkpt>
      <trkpt lat="47.590833026915789" lon="18.878487003967166">
        <ele>509.12799999999999</ele>
        <time>2010-02-07T00:12:39Z</time>
      </trkpt>
      <trkpt lat="47.590856999158859" lon="18.878439981490374">
        <ele>508.649</ele>
        <time>2010-02-07T00:12:42Z</time>
      </trkpt>
      <trkpt lat="47.590878959745169" lon="18.878390025347471">
        <ele>508.41199999999998</ele>
        <time>2010-02-07T00:12:45Z</time>
      </trkpt>
      <trkpt lat="47.59090100415051" lon="18.878343002870679">
        <ele>508.73500000000001</ele>
        <time>2010-02-07T00:12:48Z</time>
      </trkpt>
      <trkpt lat="47.590925982221961" lon="18.878292040899396">
        <ele>508.68200000000002</ele>
        <time>2010-02-07T00:12:51Z</time>
      </trkpt>
      <trkpt lat="47.590950960293412" lon="18.878255998715758">
        <ele>509.38200000000001</ele>
        <time>2010-02-07T00:12:53Z</time>
      </trkpt>
      <trkpt lat="47.590980967506766" lon="18.878209982067347">
        <ele>508.87900000000002</ele>
        <time>2010-02-07T00:12:56Z</time>
      </trkpt>
      <trkpt lat="47.591008963063359" lon="18.878162959590554">
        <ele>509.27699999999999</ele>
        <time>2010-02-07T00:12:59Z</time>
      </trkpt>
      <trkpt lat="47.591035030782223" lon="18.878114009276032">
        <ele>509.34899999999999</ele>
        <time>2010-02-07T00:13:02Z</time>
      </trkpt>
      <trkpt lat="47.59105296805501" lon="18.878062041476369">
        <ele>510.14800000000002</ele>
        <time>2010-02-07T00:13:05Z</time>
      </trkpt>
      <trkpt lat="47.59107300080359" lon="18.878016024827957">
        <ele>509.89600000000002</ele>
        <time>2010-02-07T00:13:08Z</time>
      </trkpt>
      <trkpt lat="47.591097978875041" lon="18.877976965159178">
        <ele>509.536</ele>
        <time>2010-02-07T00:13:10Z</time>
      </trkpt>
      <trkpt lat="47.591119017452002" lon="18.877934971824288">
        <ele>510.34899999999999</ele>
        <time>2010-02-07T00:13:12Z</time>
      </trkpt>
      <trkpt lat="47.59113896638155" lon="18.877897001802921">
        <ele>510.779</ele>
        <time>2010-02-07T00:13:14Z</time>
      </trkpt>
      <trkpt lat="47.591161010786891" lon="18.877854002639651">
        <ele>511.20999999999998</ele>
        <time>2010-02-07T00:13:16Z</time>
      </trkpt>
      <trkpt lat="47.591188000515103" lon="18.877809997648001">
        <ele>511.00200000000001</ele>
        <time>2010-02-07T00:13:18Z</time>
      </trkpt>
      <trkpt lat="47.591210966929793" lon="18.877771021798253">
        <ele>511.69799999999998</ele>
        <time>2010-02-07T00:13:20Z</time>
      </trkpt>
      <trkpt lat="47.591241979971528" lon="18.877734979614615">
        <ele>511.73099999999999</ele>
        <time>2010-02-07T00:13:22Z</time>
      </trkpt>
      <trkpt lat="47.59126503020525" lon="18.877694997936487">
        <ele>511.50999999999999</ele>
        <time>2010-02-07T00:13:24Z</time>
      </trkpt>
      <trkpt lat="47.59128900244832" lon="18.877658033743501">
        <ele>512.33000000000004</ele>
        <time>2010-02-07T00:13:27Z</time>
      </trkpt>
      <trkpt lat="47.591327978298068" lon="18.877627020701766">
        <ele>512.40700000000004</ele>
        <time>2010-02-07T00:13:30Z</time>
      </trkpt>
      <trkpt lat="47.591359997168183" lon="18.877604976296425">
        <ele>512.05200000000002</ele>
        <time>2010-02-07T00:13:33Z</time>
      </trkpt>
      <trkpt lat="47.591388998553157" lon="18.877582009881735">
        <ele>512.72000000000003</ele>
        <time>2010-02-07T00:13:36Z</time>
      </trkpt>
      <trkpt lat="47.591419005766511" lon="18.877569017931819">
        <ele>512.48400000000004</ele>
        <time>2010-02-07T00:13:39Z</time>
      </trkpt>
      <trkpt lat="47.591456975787878" lon="18.877552002668381">
        <ele>512.78499999999997</ele>
        <time>2010-02-07T00:13:43Z</time>
      </trkpt>
      <trkpt lat="47.591487988829613" lon="18.877529036253691">
        <ele>512.61900000000003</ele>
        <time>2010-02-07T00:13:46Z</time>
      </trkpt>
      <trkpt lat="47.59152302518487" lon="18.877501962706447">
        <ele>512.91300000000001</ele>
        <time>2010-02-07T00:13:49Z</time>
      </trkpt>
      <trkpt lat="47.591558983549476" lon="18.877475978806615">
        <ele>512.83399999999995</ele>
        <time>2010-02-07T00:13:52Z</time>
      </trkpt>
      <trkpt lat="47.591593014076352" lon="18.877445971593261">
        <ele>512.93200000000002</ele>
        <time>2010-02-07T00:13:55Z</time>
      </trkpt>
      <trkpt lat="47.591625032946467" lon="18.877413030713797">
        <ele>513.19200000000001</ele>
        <time>2010-02-07T00:13:58Z</time>
      </trkpt>
      <trkpt lat="47.591651016846299" lon="18.877380006015301">
        <ele>513.42200000000003</ele>
        <time>2010-02-07T00:14:01Z</time>
      </trkpt>
      <trkpt lat="47.591684041544795" lon="18.877345975488424">
        <ele>513.33199999999999</ele>
        <time>2010-02-07T00:14:04Z</time>
      </trkpt>
      <trkpt lat="47.591714970767498" lon="18.87731303460896">
        <ele>513.75300000000004</ele>
        <time>2010-02-07T00:14:07Z</time>
      </trkpt>
      <trkpt lat="47.591744977980852" lon="18.877273974940181">
        <ele>513.83100000000002</ele>
        <time>2010-02-07T00:14:10Z</time>
      </trkpt>
      <trkpt lat="47.591773979365826" lon="18.87722896412015">
        <ele>514.75400000000002</ele>
        <time>2010-02-07T00:14:13Z</time>
      </trkpt>
      <trkpt lat="47.591799041256309" lon="18.877184959128499">
        <ele>515.54100000000005</ele>
        <time>2010-02-07T00:14:16Z</time>
      </trkpt>
      <trkpt lat="47.591818990185857" lon="18.8771400321275">
        <ele>515.13</ele>
        <time>2010-02-07T00:14:19Z</time>
      </trkpt>
      <trkpt lat="47.591839022934437" lon="18.877095021307468">
        <ele>516.08799999999997</ele>
        <time>2010-02-07T00:14:22Z</time>
      </trkpt>
      <trkpt lat="47.591858971863985" lon="18.877050010487437">
        <ele>515.88599999999997</ele>
        <time>2010-02-07T00:14:25Z</time>
      </trkpt>
      <trkpt lat="47.591873975470662" lon="18.877000976353884">
        <ele>516.42899999999997</ele>
        <time>2010-02-07T00:14:28Z</time>
      </trkpt>
      <trkpt lat="47.591885961592197" lon="18.876952026039362">
        <ele>515.66999999999996</ele>
        <time>2010-02-07T00:14:31Z</time>
      </trkpt>
      <trkpt lat="47.591902976855636" lon="18.876896034926176">
        <ele>516.36699999999996</ele>
        <time>2010-02-07T00:14:34Z</time>
      </trkpt>
      <trkpt lat="47.59191102348268" lon="18.876843983307481">
        <ele>517.18100000000004</ele>
        <time>2010-02-07T00:14:37Z</time>
      </trkpt>
      <trkpt lat="47.591928960755467" lon="18.876793021336198">
        <ele>516.71100000000001</ele>
        <time>2010-02-07T00:14:40Z</time>
      </trkpt>
      <trkpt lat="47.591946981847286" lon="18.876741975545883">
        <ele>517.19000000000005</ele>
        <time>2010-02-07T00:14:43Z</time>
      </trkpt>
      <trkpt lat="47.591971037909389" lon="18.876694031059742">
        <ele>517.73800000000006</ele>
        <time>2010-02-07T00:14:46Z</time>
      </trkpt>
      <trkpt lat="47.59199702180922" lon="18.87664801441133">
        <ele>517.21699999999998</ele>
        <time>2010-02-07T00:14:49Z</time>
      </trkpt>
      <trkpt lat="47.592023005709052" lon="18.876597974449396">
        <ele>517.47900000000004</ele>
        <time>2010-02-07T00:14:52Z</time>
      </trkpt>
      <trkpt lat="47.592044966295362" lon="18.876547012478113">
        <ele>517.46900000000005</ele>
        <time>2010-02-07T00:14:55Z</time>
      </trkpt>
      <trkpt lat="47.592071034014225" lon="18.876496972516179">
        <ele>517.69799999999998</ele>
        <time>2010-02-07T00:14:58Z</time>
      </trkpt>
      <trkpt lat="47.592100035399199" lon="18.876447016373277">
        <ele>517.58600000000001</ele>
        <time>2010-02-07T00:15:01Z</time>
      </trkpt>
      <trkpt lat="47.592121995985508" lon="18.876394964754581">
        <ele>517.44200000000001</ele>
        <time>2010-02-07T00:15:04Z</time>
      </trkpt>
      <trkpt lat="47.592138005420566" lon="18.876354983076453">
        <ele>517.13199999999995</ele>
        <time>2010-02-07T00:15:06Z</time>
      </trkpt>
      <trkpt lat="47.592157032340765" lon="18.876313995569944">
        <ele>518.12599999999998</ele>
        <time>2010-02-07T00:15:08Z</time>
      </trkpt>
      <trkpt lat="47.592184022068977" lon="18.876267978921533">
        <ele>517.87199999999996</ele>
        <time>2010-02-07T00:15:10Z</time>
      </trkpt>
      <trkpt lat="47.592204976826906" lon="18.876221962273121">
        <ele>517.827</ele>
        <time>2010-02-07T00:15:12Z</time>
      </trkpt>
      <trkpt lat="47.592221992090344" lon="18.87617401778698">
        <ele>517.75900000000001</ele>
        <time>2010-02-07T00:15:14Z</time>
      </trkpt>
      <trkpt lat="47.59223498404026" lon="18.87613202445209">
        <ele>517.25699999999995</ele>
        <time>2010-02-07T00:15:16Z</time>
      </trkpt>
      <trkpt lat="47.592251999303699" lon="18.876083996146917">
        <ele>517.90800000000002</ele>
        <time>2010-02-07T00:15:18Z</time>
      </trkpt>
      <trkpt lat="47.592270020395517" lon="18.876037979498506">
        <ele>517.95000000000005</ele>
        <time>2010-02-07T00:15:20Z</time>
      </trkpt>
      <trkpt lat="47.592286029830575" lon="18.875990035012364">
        <ele>517.21100000000001</ele>
        <time>2010-02-07T00:15:22Z</time>
      </trkpt>
      <trkpt lat="47.592301033437252" lon="18.875937983393669">
        <ele>518.23000000000002</ele>
        <time>2010-02-07T00:15:24Z</time>
      </trkpt>
      <trkpt lat="47.592313019558787" lon="18.875890038907528">
        <ele>518.21000000000004</ele>
        <time>2010-02-07T00:15:26Z</time>
      </trkpt>
      <trkpt lat="47.592323999851942" lon="18.875834969803691">
        <ele>518.00300000000004</ele>
        <time>2010-02-07T00:15:29Z</time>
      </trkpt>
      <trkpt lat="47.592337997630239" lon="18.87578803114593">
        <ele>518.072</ele>
        <time>2010-02-07T00:15:32Z</time>
      </trkpt>
      <trkpt lat="47.592348977923393" lon="18.875740002840757">
        <ele>518.13800000000003</ele>
        <time>2010-02-07T00:15:35Z</time>
      </trkpt>
      <trkpt lat="47.592360964044929" lon="18.875689040869474">
        <ele>518.50999999999999</ele>
        <time>2010-02-07T00:15:38Z</time>
      </trkpt>
      <trkpt lat="47.592368004843593" lon="18.875643024221063">
        <ele>518.28200000000004</ele>
        <time>2010-02-07T00:15:41Z</time>
      </trkpt>
      <trkpt lat="47.592378985136747" lon="18.875589966773987">
        <ele>518.05700000000002</ele>
        <time>2010-02-07T00:15:44Z</time>
      </trkpt>
      <trkpt lat="47.592388959601521" lon="18.875534981489182">
        <ele>518.34699999999998</ele>
        <time>2010-02-07T00:15:48Z</time>
      </trkpt>
      <trkpt lat="47.592397006228566" lon="18.875477984547615">
        <ele>517.92100000000005</ele>
        <time>2010-02-07T00:15:52Z</time>
      </trkpt>
      <trkpt lat="47.592408992350101" lon="18.875425010919571">
        <ele>518.75900000000001</ele>
        <time>2010-02-07T00:15:55Z</time>
      </trkpt>
      <trkpt lat="47.592418966814876" lon="18.875372959300876">
        <ele>517.971</ele>
        <time>2010-02-07T00:15:58Z</time>
      </trkpt>
      <trkpt lat="47.592423995956779" lon="18.875318979844451">
        <ele>518.42200000000003</ele>
        <time>2010-02-07T00:16:01Z</time>
      </trkpt>
      <trkpt lat="47.592431958764791" lon="18.875258965417743">
        <ele>519.01800000000003</ele>
        <time>2010-02-07T00:16:04Z</time>
      </trkpt>
      <trkpt lat="47.592441011220217" lon="18.875190988183022">
        <ele>518.79100000000005</ele>
        <time>2010-02-07T00:16:07Z</time>
      </trkpt>
      <trkpt lat="47.592436987906694" lon="18.875132985413074">
        <ele>518.63300000000004</ele>
        <time>2010-02-07T00:16:10Z</time>
      </trkpt>
      <trkpt lat="47.592436987906694" lon="18.875065008178353">
        <ele>518.57299999999998</ele>
        <time>2010-02-07T00:16:13Z</time>
      </trkpt>
      <trkpt lat="47.592440005391836" lon="18.874999964609742">
        <ele>518.53800000000001</ele>
        <time>2010-02-07T00:16:16Z</time>
      </trkpt>
      <trkpt lat="47.59244604036212" lon="18.874936010688543">
        <ele>518.46400000000006</ele>
        <time>2010-02-07T00:16:19Z</time>
      </trkpt>
      <trkpt lat="47.592447968199849" lon="18.874871972948313">
        <ele>518.93899999999996</ele>
        <time>2010-02-07T00:16:22Z</time>
      </trkpt>
      <trkpt lat="47.592446962371469" lon="18.874812964349985">
        <ele>518.49699999999996</ele>
        <time>2010-02-07T00:16:25Z</time>
      </trkpt>
      <trkpt lat="47.592444028705359" lon="18.874763008207083">
        <ele>519.005</ele>
        <time>2010-02-07T00:16:28Z</time>
      </trkpt>
      <trkpt lat="47.59244997985661" lon="18.874701987951994">
        <ele>518.52599999999995</ele>
        <time>2010-02-07T00:16:31Z</time>
      </trkpt>
      <trkpt lat="47.592480992898345" lon="18.874637028202415">
        <ele>518.61300000000006</ele>
        <time>2010-02-07T00:16:34Z</time>
      </trkpt>
      <trkpt lat="47.592500019818544" lon="18.874581037089229">
        <ele>518.61900000000003</ele>
        <time>2010-02-07T00:16:37Z</time>
      </trkpt>
      <trkpt lat="47.592524997889996" lon="18.87452102266252">
        <ele>518.81700000000001</ele>
        <time>2010-02-07T00:16:40Z</time>
      </trkpt>
      <trkpt lat="47.592558022588491" lon="18.87445799075067">
        <ele>518.15300000000002</ele>
        <time>2010-02-07T00:16:43Z</time>
      </trkpt>
      <trkpt lat="47.59257503785193" lon="18.874412979930639">
        <ele>518.68299999999999</ele>
        <time>2010-02-07T00:16:45Z</time>
      </trkpt>
      <trkpt lat="47.592604039236903" lon="18.874353971332312">
        <ele>518.57000000000005</ele>
        <time>2010-02-07T00:16:48Z</time>
      </trkpt>
      <trkpt lat="47.592618959024549" lon="18.874294040724635">
        <ele>518.84500000000003</ele>
        <time>2010-02-07T00:16:51Z</time>
      </trkpt>
      <trkpt lat="47.592635974287987" lon="18.874225979670882">
        <ele>518.23099999999999</ele>
        <time>2010-02-07T00:16:54Z</time>
      </trkpt>
      <trkpt lat="47.592647038400173" lon="18.874165965244174">
        <ele>518.56500000000005</ele>
        <time>2010-02-07T00:16:57Z</time>
      </trkpt>
      <trkpt lat="47.592652989551425" lon="18.874108968302608">
        <ele>517.97799999999995</ele>
        <time>2010-02-07T00:17:00Z</time>
      </trkpt>
      <trkpt lat="47.592653995379806" lon="18.874061023816466">
        <ele>518.62099999999998</ele>
        <time>2010-02-07T00:17:02Z</time>
      </trkpt>
      <trkpt lat="47.592665981501341" lon="18.874017018824816">
        <ele>518.14300000000003</ele>
        <time>2010-02-07T00:17:04Z</time>
      </trkpt>
      <trkpt lat="47.592682996764779" lon="18.873960021883249">
        <ele>517.99400000000003</ele>
        <time>2010-02-07T00:17:07Z</time>
      </trkpt>
      <trkpt lat="47.592695988714695" lon="18.873902019113302">
        <ele>518.13499999999999</ele>
        <time>2010-02-07T00:17:09Z</time>
      </trkpt>
      <trkpt lat="47.592700012028217" lon="18.873853990808129">
        <ele>518.17999999999995</ele>
        <time>2010-02-07T00:17:11Z</time>
      </trkpt>
      <trkpt lat="47.592709986492991" lon="18.873806968331337">
        <ele>517.25900000000001</ele>
        <time>2010-02-07T00:17:13Z</time>
      </trkpt>
      <trkpt lat="47.592718033120036" lon="18.873757012188435">
        <ele>517.96000000000004</ele>
        <time>2010-02-07T00:17:15Z</time>
      </trkpt>
      <trkpt lat="47.59272700175643" lon="18.87368400581181">
        <ele>518.02999999999997</ele>
        <time>2010-02-07T00:17:18Z</time>
      </trkpt>
      <trkpt lat="47.592737982049584" lon="18.873623991385102">
        <ele>517.36800000000005</ele>
        <time>2010-02-07T00:17:20Z</time>
      </trkpt>
      <trkpt lat="47.592746028676629" lon="18.873563976958394">
        <ele>517.44799999999998</ele>
        <time>2010-02-07T00:17:22Z</time>
      </trkpt>
      <trkpt lat="47.592754997313023" lon="18.873494993895292">
        <ele>516.69500000000005</ele>
        <time>2010-02-07T00:17:25Z</time>
      </trkpt>
      <trkpt lat="47.592759020626545" lon="18.873423999175429">
        <ele>517.48199999999997</ele>
        <time>2010-02-07T00:17:28Z</time>
      </trkpt>
      <trkpt lat="47.5927509739995" lon="18.873363984748721">
        <ele>516.13699999999994</ele>
        <time>2010-02-07T00:17:31Z</time>
      </trkpt>
      <trkpt lat="47.59272700175643" lon="18.873305981978774">
        <ele>516.06799999999998</ele>
        <time>2010-02-07T00:17:34Z</time>
      </trkpt>
      <trkpt lat="47.592701017856598" lon="18.873273963108659">
        <ele>516.50599999999997</ele>
        <time>2010-02-07T00:17:36Z</time>
      </trkpt>
      <trkpt lat="47.592666987329721" lon="18.873258959501982">
        <ele>515.34000000000003</ele>
        <time>2010-02-07T00:17:39Z</time>
      </trkpt>
      <trkpt lat="47.592643015086651" lon="18.873244039714336">
        <ele>515.68200000000002</ele>
        <time>2010-02-07T00:17:41Z</time>
      </trkpt>
      <trkpt lat="47.592612002044916" lon="18.873215960338712">
        <ele>515.61699999999996</ele>
        <time>2010-02-07T00:17:43Z</time>
      </trkpt>
      <trkpt lat="47.592572020366788" lon="18.873206991702318">
        <ele>515.44600000000003</ele>
        <time>2010-02-07T00:17:45Z</time>
      </trkpt>
      <trkpt lat="47.59253203868866" lon="18.873196011409163">
        <ele>514.94000000000005</ele>
        <time>2010-02-07T00:17:48Z</time>
      </trkpt>
      <trkpt lat="47.592498008161783" lon="18.873203974217176">
        <ele>514.61900000000003</ele>
        <time>2010-02-07T00:17:50Z</time>
      </trkpt>
      <trkpt lat="47.592463977634907" lon="18.873216966167092">
        <ele>514.94600000000003</ele>
        <time>2010-02-07T00:17:52Z</time>
      </trkpt>
      <trkpt lat="47.592430030927062" lon="18.873221995308995">
        <ele>514.39300000000003</ele>
        <time>2010-02-07T00:17:54Z</time>
      </trkpt>
      <trkpt lat="47.592399017885327" lon="18.873246973380446">
        <ele>514.16399999999999</ele>
        <time>2010-02-07T00:17:56Z</time>
      </trkpt>
      <trkpt lat="47.592369010671973" lon="18.87327597476542">
        <ele>514.77700000000004</ele>
        <time>2010-02-07T00:17:58Z</time>
      </trkpt>
      <trkpt lat="47.59234101511538" lon="18.873304976150393">
        <ele>515.00199999999995</ele>
        <time>2010-02-07T00:18:00Z</time>
      </trkpt>
      <trkpt lat="47.592313019558787" lon="18.873344035819173">
        <ele>514.64999999999998</ele>
        <time>2010-02-07T00:18:02Z</time>
      </trkpt>
      <trkpt lat="47.592284018173814" lon="18.873377982527018">
        <ele>514.55499999999995</ele>
        <time>2010-02-07T00:18:04Z</time>
      </trkpt>
      <trkpt lat="47.592258034273982" lon="18.873413018882275">
        <ele>514.61800000000005</ele>
        <time>2010-02-07T00:18:06Z</time>
      </trkpt>
      <trkpt lat="47.592232972383499" lon="18.87344503775239">
        <ele>514.53899999999999</ele>
        <time>2010-02-07T00:18:08Z</time>
      </trkpt>
      <trkpt lat="47.592203970998526" lon="18.873495999723673">
        <ele>514.62199999999996</ele>
        <time>2010-02-07T00:18:11Z</time>
      </trkpt>
      <trkpt lat="47.592177987098694" lon="18.873529024422169">
        <ele>514.04100000000005</ele>
        <time>2010-02-07T00:18:13Z</time>
      </trkpt>
      <trkpt lat="47.59214797988534" lon="18.873557019978762">
        <ele>514.31200000000001</ele>
        <time>2010-02-07T00:18:15Z</time>
      </trkpt>
      <trkpt lat="47.592124007642269" lon="18.873600019142032">
        <ele>514.19799999999998</ele>
        <time>2010-02-07T00:18:18Z</time>
      </trkpt>
      <trkpt lat="47.592075979337096" lon="18.873634971678257">
        <ele>514.66700000000003</ele>
        <time>2010-02-07T00:18:21Z</time>
      </trkpt>
      <trkpt lat="47.59203901514411" lon="18.873655004426837">
        <ele>513.57000000000005</ele>
        <time>2010-02-07T00:18:23Z</time>
      </trkpt>
      <trkpt lat="47.592012025415897" lon="18.873648969456553">
        <ele>514.34699999999998</ele>
        <time>2010-02-07T00:18:26Z</time>
      </trkpt>
      <trkpt lat="47.591969026252627" lon="18.873636983335018">
        <ele>515.03099999999995</ele>
        <time>2010-02-07T00:18:29Z</time>
      </trkpt>
      <trkpt lat="47.591925021260977" lon="18.873628014698625">
        <ele>514.649</ele>
        <time>2010-02-07T00:18:33Z</time>
      </trkpt>
      <trkpt lat="47.591891996562481" lon="18.873614016920328">
        <ele>515.36800000000005</ele>
        <time>2010-02-07T00:18:36Z</time>
      </trkpt>
      <trkpt lat="47.591859977692366" lon="18.873593984171748">
        <ele>515.39999999999998</ele>
        <time>2010-02-07T00:18:39Z</time>
      </trkpt>
      <trkpt lat="47.591819996014237" lon="18.873563976958394">
        <ele>515.06399999999996</ele>
        <time>2010-02-07T00:18:43Z</time>
      </trkpt>
      <trkpt lat="47.591773979365826" lon="18.873581998050213">
        <ele>515.96299999999997</ele>
        <time>2010-02-07T00:18:47Z</time>
      </trkpt>
      <trkpt lat="47.591737015172839" lon="18.873622985556722">
        <ele>516.66399999999999</ele>
        <time>2010-02-07T00:18:52Z</time>
      </trkpt>
      <trkpt lat="47.591712037101388" lon="18.873673025518656">
        <ele>519.59799999999996</ele>
        <time>2010-02-07T00:19:04Z</time>
      </trkpt>
      <trkpt lat="47.591626038774848" lon="18.873731028288603">
        <ele>521.31700000000001</ele>
        <time>2010-02-07T00:19:14Z</time>
      </trkpt>
      <trkpt lat="47.59156703017652" lon="18.873751983046532">
        <ele>521.89499999999998</ele>
        <time>2010-02-07T00:19:29Z</time>
      </trkpt>
      <trkpt lat="47.591529982164502" lon="18.873721975833178">
        <ele>520.77800000000002</ele>
        <time>2010-02-07T00:19:34Z</time>
      </trkpt>
      <trkpt lat="47.591458987444639" lon="18.873713007196784">
        <ele>522.68200000000002</ele>
        <time>2010-02-07T00:19:43Z</time>
      </trkpt>
      <trkpt lat="47.591387992724776" lon="18.873706972226501">
        <ele>524.36800000000005</ele>
        <time>2010-02-07T00:19:52Z</time>
      </trkpt>
      <trkpt lat="47.591306017711759" lon="18.87370403856039">
        <ele>526.91899999999998</ele>
        <time>2010-02-07T00:20:05Z</time>
      </trkpt>
      <trkpt lat="47.591263018548489" lon="18.873706972226501">
        <ele>530.15599999999995</ele>
        <time>2010-02-07T00:20:13Z</time>
      </trkpt>
      <trkpt lat="47.591223958879709" lon="18.873704960569739">
        <ele>531.75999999999999</ele>
        <time>2010-02-07T00:20:19Z</time>
      </trkpt>
      <trkpt lat="47.591137960553169" lon="18.87370596639812">
        <ele>531.87099999999998</ele>
        <time>2010-02-07T00:20:30Z</time>
      </trkpt>
      <trkpt lat="47.591088004410267" lon="18.873728010803461">
        <ele>532.86699999999996</ele>
        <time>2010-02-07T00:20:37Z</time>
      </trkpt>
      <trkpt lat="47.591034024953842" lon="18.873733039945364">
        <ele>532.07899999999995</ele>
        <time>2010-02-07T00:20:50Z</time>
      </trkpt>
      <trkpt lat="47.590992031618953" lon="18.873722981661558">
        <ele>535.58100000000002</ele>
        <time>2010-02-07T00:20:59Z</time>
      </trkpt>
      <trkpt lat="47.59094400331378" lon="18.873713007196784">
        <ele>538.57500000000005</ele>
        <time>2010-02-07T00:21:06Z</time>
      </trkpt>
      <trkpt lat="47.590913996100426" lon="18.873687023296952">
        <ele>539.78800000000001</ele>
        <time>2010-02-07T00:21:12Z</time>
      </trkpt>
      <trkpt lat="47.590889018028975" lon="18.873652992770076">
        <ele>539.68200000000002</ele>
        <time>2010-02-07T00:21:17Z</time>
      </trkpt>
      <trkpt lat="47.590853981673717" lon="18.87364000082016">
        <ele>540.30600000000004</ele>
        <time>2010-02-07T00:21:21Z</time>
      </trkpt>
      <trkpt lat="47.590813999995589" lon="18.873644024133682">
        <ele>541.20699999999999</ele>
        <time>2010-02-07T00:21:26Z</time>
      </trkpt>
      <trkpt lat="47.590784998610616" lon="18.873661961406469">
        <ele>541.899</ele>
        <time>2010-02-07T00:21:30Z</time>
      </trkpt>
      <trkpt lat="47.59075197391212" lon="18.873686017468572">
        <ele>543.35299999999995</ele>
        <time>2010-02-07T00:21:35Z</time>
      </trkpt>
      <trkpt lat="47.590720038861036" lon="18.873708983883262">
        <ele>543.61099999999999</ele>
        <time>2010-02-07T00:21:39Z</time>
      </trkpt>
      <trkpt lat="47.590681985020638" lon="18.873707978054881">
        <ele>543.59799999999996</ele>
        <time>2010-02-07T00:21:43Z</time>
      </trkpt>
      <trkpt lat="47.590634040534496" lon="18.873693980276585">
        <ele>544.05200000000002</ele>
        <time>2010-02-07T00:21:47Z</time>
      </trkpt>
      <trkpt lat="47.590603027492762" lon="18.873696997761726">
        <ele>545.23699999999997</ele>
        <time>2010-02-07T00:21:51Z</time>
      </trkpt>
      <trkpt lat="47.590568996965885" lon="18.87370596639812">
        <ele>545.58500000000004</ele>
        <time>2010-02-07T00:21:55Z</time>
      </trkpt>
      <trkpt lat="47.59053798392415" lon="18.873709989711642">
        <ele>546.88900000000001</ele>
        <time>2010-02-07T00:21:59Z</time>
      </trkpt>
      <trkpt lat="47.590512000024319" lon="18.873713007196784">
        <ele>547.15099999999995</ele>
        <time>2010-02-07T00:22:03Z</time>
      </trkpt>
      <trkpt lat="47.590491967275739" lon="18.873716024681926">
        <ele>547.55600000000004</ele>
        <time>2010-02-07T00:22:07Z</time>
      </trkpt>
      <trkpt lat="47.590461960062385" lon="18.873707978054881">
        <ele>548.09500000000003</ele>
        <time>2010-02-07T00:22:11Z</time>
      </trkpt>
      <trkpt lat="47.590438993647695" lon="18.873664978891611">
        <ele>549.846</ele>
        <time>2010-02-07T00:22:15Z</time>
      </trkpt>
      <trkpt lat="47.59040798060596" lon="18.873624997213483">
        <ele>549.62699999999995</ele>
        <time>2010-02-07T00:22:19Z</time>
      </trkpt>
      <trkpt lat="47.590389959514141" lon="18.873594990000129">
        <ele>549.38400000000001</ele>
        <time>2010-02-07T00:22:22Z</time>
      </trkpt>
      <trkpt lat="47.590375039726496" lon="18.873547967523336">
        <ele>548.34000000000003</ele>
        <time>2010-02-07T00:22:25Z</time>
      </trkpt>
      <trkpt lat="47.59036598727107" lon="18.873492982238531">
        <ele>547.37099999999998</ele>
        <time>2010-02-07T00:22:28Z</time>
      </trkpt>
      <trkpt lat="47.590358024463058" lon="18.873435985296965">
        <ele>547.15200000000004</ele>
        <time>2010-02-07T00:22:31Z</time>
      </trkpt>
      <trkpt lat="47.590356012806296" lon="18.873376976698637">
        <ele>546.41999999999996</ele>
        <time>2010-02-07T00:22:34Z</time>
      </trkpt>
      <trkpt lat="47.590354001149535" lon="18.873316962271929">
        <ele>546.55600000000004</ele>
        <time>2010-02-07T00:22:37Z</time>
      </trkpt>
      <trkpt lat="47.590354001149535" lon="18.873272035270929">
        <ele>545.86000000000001</ele>
        <time>2010-02-07T00:22:39Z</time>
      </trkpt>
      <trkpt lat="47.590355006977916" lon="18.87321000918746">
        <ele>545.37699999999995</ele>
        <time>2010-02-07T00:22:42Z</time>
      </trkpt>
      <trkpt lat="47.590362969785929" lon="18.873147983103991">
        <ele>544.58299999999997</ele>
        <time>2010-02-07T00:22:45Z</time>
      </trkpt>
      <trkpt lat="47.590367998927832" lon="18.873088974505663">
        <ele>544.798</ele>
        <time>2010-02-07T00:22:48Z</time>
      </trkpt>
      <trkpt lat="47.590371016412973" lon="18.873040024191141">
        <ele>544.71799999999996</ele>
        <time>2010-02-07T00:22:51Z</time>
      </trkpt>
      <trkpt lat="47.590378979220986" lon="18.872993001714349">
        <ele>544.84400000000005</ele>
        <time>2010-02-07T00:22:54Z</time>
      </trkpt>
      <trkpt lat="47.59038602001965" lon="18.872933993116021">
        <ele>545.22699999999998</ele>
        <time>2010-02-07T00:22:58Z</time>
      </trkpt>
      <trkpt lat="47.590388031676412" lon="18.872882025316358">
        <ele>546.16999999999996</ele>
        <time>2010-02-07T00:23:01Z</time>
      </trkpt>
      <trkpt lat="47.59038501419127" lon="18.872833997011185">
        <ele>546.37900000000002</ele>
        <time>2010-02-07T00:23:04Z</time>
      </trkpt>
      <trkpt lat="47.59038501419127" lon="18.872781023383141">
        <ele>545.65300000000002</ele>
        <time>2010-02-07T00:23:07Z</time>
      </trkpt>
      <trkpt lat="47.590384008362889" lon="18.872726960107684">
        <ele>545.35599999999999</ele>
        <time>2010-02-07T00:23:10Z</time>
      </trkpt>
      <trkpt lat="47.590381996706128" lon="18.872683960944414">
        <ele>545.86500000000001</ele>
        <time>2010-02-07T00:23:12Z</time>
      </trkpt>
      <trkpt lat="47.590377973392606" lon="18.872623024508357">
        <ele>545.36599999999999</ele>
        <time>2010-02-07T00:23:15Z</time>
      </trkpt>
      <trkpt lat="47.590374033898115" lon="18.872562004253268">
        <ele>545.45000000000005</ele>
        <time>2010-02-07T00:23:18Z</time>
      </trkpt>
      <trkpt lat="47.59038602001965" lon="18.872497966513038">
        <ele>545.49199999999996</ele>
        <time>2010-02-07T00:23:21Z</time>
      </trkpt>
      <trkpt lat="47.590393982827663" lon="18.872449016198516">
        <ele>545.23199999999997</ele>
        <time>2010-02-07T00:23:23Z</time>
      </trkpt>
      <trkpt lat="47.590406974777579" lon="18.872397970408201">
        <ele>545.22699999999998</ele>
        <time>2010-02-07T00:23:26Z</time>
      </trkpt>
      <trkpt lat="47.590410998091102" lon="18.872346002608538">
        <ele>545.12699999999995</ele>
        <time>2010-02-07T00:23:29Z</time>
      </trkpt>
      <trkpt lat="47.590422984212637" lon="18.872305015102029">
        <ele>545.86099999999999</ele>
        <time>2010-02-07T00:23:32Z</time>
      </trkpt>
      <trkpt lat="47.590431030839682" lon="18.872254975140095">
        <ele>545.47000000000003</ele>
        <time>2010-02-07T00:23:36Z</time>
      </trkpt>
      <trkpt lat="47.590441005304456" lon="18.872207030653954">
        <ele>546.74099999999999</ele>
        <time>2010-02-07T00:23:40Z</time>
      </trkpt>
      <trkpt lat="47.590443016961217" lon="18.872161014005542">
        <ele>547.67899999999997</ele>
        <time>2010-02-07T00:23:44Z</time>
      </trkpt>
      <trkpt lat="47.59045097976923" lon="18.87211499735713">
        <ele>549.23299999999995</ele>
        <time>2010-02-07T00:23:48Z</time>
      </trkpt>
      <trkpt lat="47.590461038053036" lon="18.872075015679002">
        <ele>550.62099999999998</ele>
        <time>2010-02-07T00:23:52Z</time>
      </trkpt>
      <trkpt lat="47.590475035831332" lon="18.872036039829254">
        <ele>550.95600000000002</ele>
        <time>2010-02-07T00:23:56Z</time>
      </trkpt>
      <trkpt lat="47.590487021952868" lon="18.871989017352462">
        <ele>552.25800000000004</ele>
        <time>2010-02-07T00:24:01Z</time>
      </trkpt>
      <trkpt lat="47.590499008074403" lon="18.871950963512063">
        <ele>553.32399999999996</ele>
        <time>2010-02-07T00:24:05Z</time>
      </trkpt>
      <trkpt lat="47.590517029166222" lon="18.871906036511064">
        <ele>553.91099999999994</ele>
        <time>2010-02-07T00:24:10Z</time>
      </trkpt>
      <trkpt lat="47.590533960610628" lon="18.871871000155807">
        <ele>555.16700000000003</ele>
        <time>2010-02-07T00:24:14Z</time>
      </trkpt>
      <trkpt lat="47.590543013066053" lon="18.871828000992537">
        <ele>555.65200000000004</ele>
        <time>2010-02-07T00:24:18Z</time>
      </trkpt>
      <trkpt lat="47.590560028329492" lon="18.871790030971169">
        <ele>556.346</ele>
        <time>2010-02-07T00:24:22Z</time>
      </trkpt>
      <trkpt lat="47.590576037764549" lon="18.871748959645629">
        <ele>556.99900000000002</ele>
        <time>2010-02-07T00:24:26Z</time>
      </trkpt>
      <trkpt lat="47.590578971430659" lon="18.87170503847301">
        <ele>556.54499999999996</ele>
        <time>2010-02-07T00:24:30Z</time>
      </trkpt>
      <trkpt lat="47.590562961995602" lon="18.871661033481359">
        <ele>556.86400000000003</ele>
        <time>2010-02-07T00:24:33Z</time>
      </trkpt>
      <trkpt lat="47.59053798392415" lon="18.8716209679842">
        <ele>557.24800000000005</ele>
        <time>2010-02-07T00:24:36Z</time>
      </trkpt>
      <trkpt lat="47.590504037216306" lon="18.871587021276355">
        <ele>556.197</ele>
        <time>2010-02-07T00:24:39Z</time>
      </trkpt>
      <trkpt lat="47.590482998639345" lon="18.871560031548142">
        <ele>555.41300000000001</ele>
        <time>2010-02-07T00:24:41Z</time>
      </trkpt>
      <trkpt lat="47.590456008911133" lon="18.871529018506408">
        <ele>555.12400000000002</ele>
        <time>2010-02-07T00:24:43Z</time>
      </trkpt>
      <trkpt lat="47.590424995869398" lon="18.871496999636292">
        <ele>552.70000000000005</ele>
        <time>2010-02-07T00:24:45Z</time>
      </trkpt>
      <trkpt lat="47.590397000312805" lon="18.8714690040797">
        <ele>552.36500000000001</ele>
        <time>2010-02-07T00:24:47Z</time>
      </trkpt>
      <trkpt lat="47.590371016412973" lon="18.871437991037965">
        <ele>552.81700000000001</ele>
        <time>2010-02-07T00:24:49Z</time>
      </trkpt>
      <trkpt lat="47.590348972007632" lon="18.871397003531456">
        <ele>551.62800000000004</ele>
        <time>2010-02-07T00:24:51Z</time>
      </trkpt>
      <trkpt lat="47.590331034734845" lon="18.871349981054664">
        <ele>550.55499999999995</ele>
        <time>2010-02-07T00:24:53Z</time>
      </trkpt>
      <trkpt lat="47.590317036956549" lon="18.871303964406252">
        <ele>550.49400000000003</ele>
        <time>2010-02-07T00:24:55Z</time>
      </trkpt>
      <trkpt lat="47.590295998379588" lon="18.871260965242982">
        <ele>549.93600000000004</ele>
        <time>2010-02-07T00:24:57Z</time>
      </trkpt>
      <trkpt lat="47.590266996994615" lon="18.871224001049995">
        <ele>548.86500000000001</ele>
        <time>2010-02-07T00:24:59Z</time>
      </trkpt>
      <trkpt lat="47.590232966467738" lon="18.871188964694738">
        <ele>548.00800000000004</ele>
        <time>2010-02-07T00:25:01Z</time>
      </trkpt>
      <trkpt lat="47.590199019759893" lon="18.87114898301661">
        <ele>546.62699999999995</ele>
        <time>2010-02-07T00:25:03Z</time>
      </trkpt>
      <trkpt lat="47.590169012546539" lon="18.871112018823624">
        <ele>546.92700000000002</ele>
        <time>2010-02-07T00:25:05Z</time>
      </trkpt>
      <trkpt lat="47.590136993676424" lon="18.871079999953508">
        <ele>546.49300000000005</ele>
        <time>2010-02-07T00:25:07Z</time>
      </trkpt>
      <trkpt lat="47.590111009776592" lon="18.871044041588902">
        <ele>546.904</ele>
        <time>2010-02-07T00:25:09Z</time>
      </trkpt>
      <trkpt lat="47.590083014219999" lon="18.871005987748504">
        <ele>546.90099999999995</ele>
        <time>2010-02-07T00:25:11Z</time>
      </trkpt>
      <trkpt lat="47.590053007006645" lon="18.870969023555517">
        <ele>547.04999999999995</ele>
        <time>2010-02-07T00:25:13Z</time>
      </trkpt>
      <trkpt lat="47.590024005621672" lon="18.870928036049008">
        <ele>545.16499999999996</ele>
        <time>2010-02-07T00:25:15Z</time>
      </trkpt>
      <trkpt lat="47.589991986751556" lon="18.870886964723468">
        <ele>545.43499999999995</ele>
        <time>2010-02-07T00:25:17Z</time>
      </trkpt>
      <trkpt lat="47.589959967881441" lon="18.87084798887372">
        <ele>544.37599999999998</ele>
        <time>2010-02-07T00:25:19Z</time>
      </trkpt>
      <trkpt lat="47.589925015345216" lon="18.870818987488747">
        <ele>543.48699999999997</ele>
        <time>2010-02-07T00:25:21Z</time>
      </trkpt>
      <trkpt lat="47.589897019788623" lon="18.870793003588915">
        <ele>543.54999999999995</ele>
        <time>2010-02-07T00:25:24Z</time>
      </trkpt>
      <trkpt lat="47.589872963726521" lon="18.870787974447012">
        <ele>544.06500000000005</ele>
        <time>2010-02-07T00:25:37Z</time>
      </trkpt>
      <trkpt lat="47.589842034503818" lon="18.87078202329576">
        <ele>542.81399999999996</ele>
        <time>2010-02-07T00:25:41Z</time>
      </trkpt>
      <trkpt lat="47.58980599232018" lon="18.87078101746738">
        <ele>543.077</ele>
        <time>2010-02-07T00:25:45Z</time>
      </trkpt>
      <trkpt lat="47.58978302590549" lon="18.870795015245676">
        <ele>541.75599999999997</ele>
        <time>2010-02-07T00:25:52Z</time>
      </trkpt>
      <trkpt lat="47.589761987328529" lon="18.870771965011954">
        <ele>541.31500000000005</ele>
        <time>2010-02-07T00:26:00Z</time>
      </trkpt>
      <trkpt lat="47.589728040620685" lon="18.870770959183574">
        <ele>541.18100000000004</ele>
        <time>2010-02-07T00:26:03Z</time>
      </trkpt>
      <trkpt lat="47.589690992608666" lon="18.870756039395928">
        <ele>540.23099999999999</ele>
        <time>2010-02-07T00:26:05Z</time>
      </trkpt>
      <trkpt lat="47.589659979566932" lon="18.870742963626981">
        <ele>539.65899999999999</ele>
        <time>2010-02-07T00:26:07Z</time>
      </trkpt>
      <trkpt lat="47.589627960696816" lon="18.870721003040671">
        <ele>540.51999999999998</ele>
        <time>2010-02-07T00:26:09Z</time>
      </trkpt>
      <trkpt lat="47.589588984847069" lon="18.87069895863533">
        <ele>538.58000000000004</ele>
        <time>2010-02-07T00:26:11Z</time>
      </trkpt>
      <trkpt lat="47.589552020654082" lon="18.870678003877401">
        <ele>540.08199999999999</ele>
        <time>2010-02-07T00:26:13Z</time>
      </trkpt>
      <trkpt lat="47.589512960985303" lon="18.87065302580595">
        <ele>539.47500000000002</ele>
        <time>2010-02-07T00:26:15Z</time>
      </trkpt>
      <trkpt lat="47.589469961822033" lon="18.870616983622313">
        <ele>538.38400000000001</ele>
        <time>2010-02-07T00:26:17Z</time>
      </trkpt>
      <trkpt lat="47.589426962658763" lon="18.8705899938941">
        <ele>536.755</ele>
        <time>2010-02-07T00:26:19Z</time>
      </trkpt>
      <trkpt lat="47.589387986809015" lon="18.870565015822649">
        <ele>534.66499999999996</ele>
        <time>2010-02-07T00:26:21Z</time>
      </trkpt>
      <trkpt lat="47.589345993474126" lon="18.870540959760547">
        <ele>534.04899999999998</ele>
        <time>2010-02-07T00:26:23Z</time>
      </trkpt>
      <trkpt lat="47.589302994310856" lon="18.870515981689095">
        <ele>533.97000000000003</ele>
        <time>2010-02-07T00:26:25Z</time>
      </trkpt>
      <trkpt lat="47.589268963783979" lon="18.870492009446025">
        <ele>534.12</ele>
        <time>2010-02-07T00:26:27Z</time>
      </trkpt>
      <trkpt lat="47.589239040389657" lon="18.870467031374574">
        <ele>533.88599999999997</ele>
        <time>2010-02-07T00:26:29Z</time>
      </trkpt>
      <trkpt lat="47.589202998206019" lon="18.870428977534175">
        <ele>533.86000000000001</ele>
        <time>2010-02-07T00:26:32Z</time>
      </trkpt>
      <trkpt lat="47.589165028184652" lon="18.870403999462724">
        <ele>533.45100000000002</ele>
        <time>2010-02-07T00:26:35Z</time>
      </trkpt>
      <trkpt lat="47.589136026799679" lon="18.87039796449244">
        <ele>533.44899999999996</ele>
        <time>2010-02-07T00:26:37Z</time>
      </trkpt>
      <trkpt lat="47.589098978787661" lon="18.870387990027666">
        <ele>533.32000000000005</ele>
        <time>2010-02-07T00:26:39Z</time>
      </trkpt>
      <trkpt lat="47.589058997109532" lon="18.870370974764228">
        <ele>531.56399999999996</ele>
        <time>2010-02-07T00:26:41Z</time>
      </trkpt>
      <trkpt lat="47.589025972411036" lon="18.870356976985931">
        <ele>530.74400000000003</ele>
        <time>2010-02-07T00:26:43Z</time>
      </trkpt>
      <trkpt lat="47.588993031531572" lon="18.870329987257719">
        <ele>528.07299999999998</ele>
        <time>2010-02-07T00:26:45Z</time>
      </trkpt>
      <trkpt lat="47.58896604180336" lon="18.870296040549874">
        <ele>527.42399999999998</ele>
        <time>2010-02-07T00:26:47Z</time>
      </trkpt>
      <trkpt lat="47.588951038196683" lon="18.870256980881095">
        <ele>525.84000000000003</ele>
        <time>2010-02-07T00:26:49Z</time>
      </trkpt>
      <trkpt lat="47.588935028761625" lon="18.870214987546206">
        <ele>524.61500000000001</ele>
        <time>2010-02-07T00:26:51Z</time>
      </trkpt>
      <trkpt lat="47.588911978527904" lon="18.870185986161232">
        <ele>524.28599999999994</ele>
        <time>2010-02-07T00:26:53Z</time>
      </trkpt>
      <trkpt lat="47.58888297714293" lon="18.870157990604639">
        <ele>522.34799999999996</ele>
        <time>2010-02-07T00:26:55Z</time>
      </trkpt>
      <trkpt lat="47.588853975757957" lon="18.870123038068414">
        <ele>520.40499999999997</ele>
        <time>2010-02-07T00:26:58Z</time>
      </trkpt>
      <trkpt lat="47.588863028213382" lon="18.870064029470086">
        <ele>519.73000000000002</ele>
        <time>2010-02-07T00:27:01Z</time>
      </trkpt>
      <trkpt lat="47.588885994628072" lon="18.870022036135197">
        <ele>519.20899999999995</ele>
        <time>2010-02-07T00:27:03Z</time>
      </trkpt>
      <trkpt lat="47.588911978527904" lon="18.869977025315166">
        <ele>518.58100000000002</ele>
        <time>2010-02-07T00:27:05Z</time>
      </trkpt>
      <trkpt lat="47.588934022933245" lon="18.869928997009993">
        <ele>517.95299999999997</ele>
        <time>2010-02-07T00:27:07Z</time>
      </trkpt>
      <trkpt lat="47.588955983519554" lon="18.86988096870482">
        <ele>516.721</ele>
        <time>2010-02-07T00:27:09Z</time>
      </trkpt>
      <trkpt lat="47.588992025703192" lon="18.869832018390298">
        <ele>515.64700000000005</ele>
        <time>2010-02-07T00:27:11Z</time>
      </trkpt>
      <trkpt lat="47.589026978239417" lon="18.869782984256744">
        <ele>514.82299999999998</ele>
        <time>2010-02-07T00:27:13Z</time>
      </trkpt>
      <trkpt lat="47.589066037908196" lon="18.869748031720519">
        <ele>512.24199999999996</ele>
        <time>2010-02-07T00:27:15Z</time>
      </trkpt>
      <trkpt lat="47.589103002101183" lon="18.869722969830036">
        <ele>513.05600000000004</ele>
        <time>2010-02-07T00:27:17Z</time>
      </trkpt>
      <trkpt lat="47.589142983779311" lon="18.869693968445063">
        <ele>513.41499999999996</ele>
        <time>2010-02-07T00:27:19Z</time>
      </trkpt>
      <trkpt lat="47.589175002649426" lon="18.869674019515514">
        <ele>512.91099999999994</ele>
        <time>2010-02-07T00:27:21Z</time>
      </trkpt>
      <trkpt lat="47.5892040040344" lon="18.869649963453412">
        <ele>513.755</ele>
        <time>2010-02-07T00:27:23Z</time>
      </trkpt>
      <trkpt lat="47.589234011247754" lon="18.869629008695483">
        <ele>513.15999999999997</ele>
        <time>2010-02-07T00:27:25Z</time>
      </trkpt>
      <trkpt lat="47.589256977662444" lon="18.869603024795651">
        <ele>513.16700000000003</ele>
        <time>2010-02-07T00:27:27Z</time>
      </trkpt>
      <trkpt lat="47.589293019846082" lon="18.869582992047071">
        <ele>512.71900000000005</ele>
        <time>2010-02-07T00:27:30Z</time>
      </trkpt>
      <trkpt lat="47.589325038716197" lon="18.869578968733549">
        <ele>512.78599999999994</ele>
        <time>2010-02-07T00:27:33Z</time>
      </trkpt>
      <trkpt lat="47.589365020394325" lon="18.869547033682466">
        <ele>512.77599999999995</ele>
        <time>2010-02-07T00:27:37Z</time>
      </trkpt>
      <trkpt lat="47.589401984587312" lon="18.869508979842067">
        <ele>512.61199999999997</ele>
        <time>2010-02-07T00:27:40Z</time>
      </trkpt>
      <trkpt lat="47.589427968487144" lon="18.869455000385642">
        <ele>512.66300000000001</ele>
        <time>2010-02-07T00:27:43Z</time>
      </trkpt>
      <trkpt lat="47.589446995407343" lon="18.869381994009018">
        <ele>512.43600000000004</ele>
        <time>2010-02-07T00:27:46Z</time>
      </trkpt>
      <trkpt lat="47.589464010670781" lon="18.86932298541069">
        <ele>512.07399999999996</ele>
        <time>2010-02-07T00:27:49Z</time>
      </trkpt>
      <trkpt lat="47.589471973478794" lon="18.869265988469124">
        <ele>512.476</ele>
        <time>2010-02-07T00:27:52Z</time>
      </trkpt>
      <trkpt lat="47.589473985135555" lon="18.869217038154602">
        <ele>512.60199999999998</ele>
        <time>2010-02-07T00:27:54Z</time>
      </trkpt>
      <trkpt lat="47.589483037590981" lon="18.869160963222384">
        <ele>512.46000000000004</ele>
        <time>2010-02-07T00:27:56Z</time>
      </trkpt>
      <trkpt lat="47.589491000398993" lon="18.869090974330902">
        <ele>512.38199999999995</ele>
        <time>2010-02-07T00:27:59Z</time>
      </trkpt>
      <trkpt lat="47.589493012055755" lon="18.869017967954278">
        <ele>512.32000000000005</ele>
        <time>2010-02-07T00:28:02Z</time>
      </trkpt>
      <trkpt lat="47.589487982913852" lon="18.86895501986146">
        <ele>511.74700000000001</ele>
        <time>2010-02-07T00:28:05Z</time>
      </trkpt>
      <trkpt lat="47.589483037590981" lon="18.868876984342933">
        <ele>513.01700000000005</ele>
        <time>2010-02-07T00:28:09Z</time>
      </trkpt>
      <trkpt lat="47.589478008449078" lon="18.868814036250114">
        <ele>512.57500000000005</ele>
        <time>2010-02-07T00:28:12Z</time>
      </trkpt>
      <trkpt lat="47.589473985135555" lon="18.868746981024742">
        <ele>513.12699999999995</ele>
        <time>2010-02-07T00:28:16Z</time>
      </trkpt>
      <trkpt lat="47.589492006227374" lon="18.868688978254795">
        <ele>513.67700000000002</ele>
        <time>2010-02-07T00:28:19Z</time>
      </trkpt>
      <trkpt lat="47.589486977085471" lon="18.86861496604979">
        <ele>513.78200000000004</ele>
        <time>2010-02-07T00:28:23Z</time>
      </trkpt>
      <trkpt lat="47.589487982913852" lon="18.868556963279843">
        <ele>514.05799999999999</ele>
        <time>2010-02-07T00:28:26Z</time>
      </trkpt>
      <trkpt lat="47.589487982913852" lon="18.868498038500547">
        <ele>513.42399999999998</ele>
        <time>2010-02-07T00:28:29Z</time>
      </trkpt>
      <trkpt lat="47.589499969035387" lon="18.868446992710233">
        <ele>514.07899999999995</ele>
        <time>2010-02-07T00:28:32Z</time>
      </trkpt>
      <trkpt lat="47.58950499817729" lon="18.868395024910569">
        <ele>514.09699999999998</ele>
        <time>2010-02-07T00:28:35Z</time>
      </trkpt>
      <trkpt lat="47.589512038975954" lon="18.868337022140622">
        <ele>515.01800000000003</ele>
        <time>2010-02-07T00:28:39Z</time>
      </trkpt>
      <trkpt lat="47.589517990127206" lon="18.868285976350307">
        <ele>514.69100000000003</ele>
        <time>2010-02-07T00:28:42Z</time>
      </trkpt>
      <trkpt lat="47.589520001783967" lon="18.868237026035786">
        <ele>514.62199999999996</ele>
        <time>2010-02-07T00:28:45Z</time>
      </trkpt>
      <trkpt lat="47.589521007612348" lon="18.868186986073852">
        <ele>515.14499999999998</ele>
        <time>2010-02-07T00:28:48Z</time>
      </trkpt>
      <trkpt lat="47.589518995955586" lon="18.868135018274188">
        <ele>515.52599999999995</ele>
        <time>2010-02-07T00:28:51Z</time>
      </trkpt>
      <trkpt lat="47.589516984298825" lon="18.868081960827112">
        <ele>515.77300000000002</ele>
        <time>2010-02-07T00:28:54Z</time>
      </trkpt>
      <trkpt lat="47.589516984298825" lon="18.868026975542307">
        <ele>515.89999999999998</ele>
        <time>2010-02-07T00:28:57Z</time>
      </trkpt>
      <trkpt lat="47.589509021490812" lon="18.867965033277869">
        <ele>515.46199999999999</ele>
        <time>2010-02-07T00:29:00Z</time>
      </trkpt>
      <trkpt lat="47.589503992348909" lon="18.867920022457838">
        <ele>515.46799999999996</ele>
        <time>2010-02-07T00:29:02Z</time>
      </trkpt>
      <trkpt lat="47.589499969035387" lon="18.867870988324285">
        <ele>514.91600000000005</ele>
        <time>2010-02-07T00:29:04Z</time>
      </trkpt>
      <trkpt lat="47.589496029540896" lon="18.867824971675873">
        <ele>515.28999999999996</ele>
        <time>2010-02-07T00:29:06Z</time>
      </trkpt>
      <trkpt lat="47.589489994570613" lon="18.867762023583055">
        <ele>514.55600000000004</ele>
        <time>2010-02-07T00:29:09Z</time>
      </trkpt>
      <trkpt lat="47.58948496542871" lon="18.867699997499585">
        <ele>514.19899999999996</ele>
        <time>2010-02-07T00:29:12Z</time>
      </trkpt>
      <trkpt lat="47.589481025934219" lon="18.867636965587735">
        <ele>514.09799999999996</ele>
        <time>2010-02-07T00:29:15Z</time>
      </trkpt>
      <trkpt lat="47.589483037590981" lon="18.867592038586736">
        <ele>514.27099999999996</ele>
        <time>2010-02-07T00:29:17Z</time>
      </trkpt>
      <trkpt lat="47.5894820317626" lon="18.867545016109943">
        <ele>514.91700000000003</ele>
        <time>2010-02-07T00:29:19Z</time>
      </trkpt>
      <trkpt lat="47.589477002620697" lon="18.867478966712952">
        <ele>514.44899999999996</ele>
        <time>2010-02-07T00:29:22Z</time>
      </trkpt>
      <trkpt lat="47.589474990963936" lon="18.867432028055191">
        <ele>514.072</ele>
        <time>2010-02-07T00:29:24Z</time>
      </trkpt>
      <trkpt lat="47.589471973478794" lon="18.86738701723516">
        <ele>513.47900000000004</ele>
        <time>2010-02-07T00:29:26Z</time>
      </trkpt>
      <trkpt lat="47.589469039812684" lon="18.867338988929987">
        <ele>513.79700000000003</ele>
        <time>2010-02-07T00:29:28Z</time>
      </trkpt>
      <trkpt lat="47.589466022327542" lon="18.867291966453195">
        <ele>513.46100000000001</ele>
        <time>2010-02-07T00:29:30Z</time>
      </trkpt>
      <trkpt lat="47.589466022327542" lon="18.867242010310292">
        <ele>513.803</ele>
        <time>2010-02-07T00:29:32Z</time>
      </trkpt>
      <trkpt lat="47.589469039812684" lon="18.867189958691597">
        <ele>513.80100000000004</ele>
        <time>2010-02-07T00:29:34Z</time>
      </trkpt>
      <trkpt lat="47.589473985135555" lon="18.867140002548695">
        <ele>513.28099999999995</ele>
        <time>2010-02-07T00:29:36Z</time>
      </trkpt>
      <trkpt lat="47.589479014277458" lon="18.867093985900283">
        <ele>513.19200000000001</ele>
        <time>2010-02-07T00:29:38Z</time>
      </trkpt>
      <trkpt lat="47.589486977085471" lon="18.867051992565393">
        <ele>512.89400000000001</ele>
        <time>2010-02-07T00:29:40Z</time>
      </trkpt>
      <trkpt lat="47.589497035369277" lon="18.867009999230504">
        <ele>512.54899999999998</ele>
        <time>2010-02-07T00:29:42Z</time>
      </trkpt>
      <trkpt lat="47.589508015662432" lon="18.866967000067234">
        <ele>512.149</ele>
        <time>2010-02-07T00:29:44Z</time>
      </trkpt>
      <trkpt lat="47.589524025097489" lon="18.866911008954048">
        <ele>512.29399999999998</ele>
        <time>2010-02-07T00:29:47Z</time>
      </trkpt>
      <trkpt lat="47.589542968198657" lon="18.866853006184101">
        <ele>512.04999999999995</ele>
        <time>2010-02-07T00:29:50Z</time>
      </trkpt>
      <trkpt lat="47.589558977633715" lon="18.866797015070915">
        <ele>512.22000000000003</ele>
        <time>2010-02-07T00:29:53Z</time>
      </trkpt>
      <trkpt lat="47.589573981240392" lon="18.866743035614491">
        <ele>511.07499999999999</ele>
        <time>2010-02-07T00:29:56Z</time>
      </trkpt>
      <trkpt lat="47.589584961533546" lon="18.866692995652556">
        <ele>511.154</ele>
        <time>2010-02-07T00:29:59Z</time>
      </trkpt>
      <trkpt lat="47.589599965140224" lon="18.866641027852893">
        <ele>510.39400000000001</ele>
        <time>2010-02-07T00:30:02Z</time>
      </trkpt>
      <trkpt lat="47.589614968746901" lon="18.866586964577436">
        <ele>510.04899999999998</ele>
        <time>2010-02-07T00:30:05Z</time>
      </trkpt>
      <trkpt lat="47.589627038687468" lon="18.86652996763587">
        <ele>509.36900000000003</ele>
        <time>2010-02-07T00:30:08Z</time>
      </trkpt>
      <trkpt lat="47.589631984010339" lon="18.8664869684726">
        <ele>508.98099999999999</ele>
        <time>2010-02-07T00:30:10Z</time>
      </trkpt>
      <trkpt lat="47.589639024809003" lon="18.866442041471601">
        <ele>509.26299999999998</ele>
        <time>2010-02-07T00:30:12Z</time>
      </trkpt>
      <trkpt lat="47.589643970131874" lon="18.86639803647995">
        <ele>508.92200000000003</ele>
        <time>2010-02-07T00:30:14Z</time>
      </trkpt>
      <trkpt lat="47.589647993445396" lon="18.86635503731668">
        <ele>508.97199999999998</ele>
        <time>2010-02-07T00:30:16Z</time>
      </trkpt>
      <trkpt lat="47.589655034244061" lon="18.866307009011507">
        <ele>508.42500000000001</ele>
        <time>2010-02-07T00:30:18Z</time>
      </trkpt>
      <trkpt lat="47.589656040072441" lon="18.866259986534715">
        <ele>508.70800000000003</ele>
        <time>2010-02-07T00:30:20Z</time>
      </trkpt>
      <trkpt lat="47.589657967910171" lon="18.866197038441896">
        <ele>508.33999999999997</ele>
        <time>2010-02-07T00:30:23Z</time>
      </trkpt>
      <trkpt lat="47.589661991223693" lon="18.86614004150033">
        <ele>507.935</ele>
        <time>2010-02-07T00:30:26Z</time>
      </trkpt>
      <trkpt lat="47.589664002880454" lon="18.866082960739732">
        <ele>508.565</ele>
        <time>2010-02-07T00:30:29Z</time>
      </trkpt>
      <trkpt lat="47.589669032022357" lon="18.866023030132055">
        <ele>508.05000000000001</ele>
        <time>2010-02-07T00:30:32Z</time>
      </trkpt>
      <trkpt lat="47.589671965688467" lon="18.865969972684979">
        <ele>508.55599999999998</ele>
        <time>2010-02-07T00:30:35Z</time>
      </trkpt>
      <trkpt lat="47.589672971516848" lon="18.865915993228555">
        <ele>508.44799999999998</ele>
        <time>2010-02-07T00:30:38Z</time>
      </trkpt>
      <trkpt lat="47.589671965688467" lon="18.865866959095001">
        <ele>508.25799999999998</ele>
        <time>2010-02-07T00:30:41Z</time>
      </trkpt>
      <trkpt lat="47.589671965688467" lon="18.865815997123718">
        <ele>507.983</ele>
        <time>2010-02-07T00:30:44Z</time>
      </trkpt>
      <trkpt lat="47.589672971516848" lon="18.865764029324055">
        <ele>508.32100000000003</ele>
        <time>2010-02-07T00:30:47Z</time>
      </trkpt>
      <trkpt lat="47.589674983173609" lon="18.865711977705359">
        <ele>508.95100000000002</ele>
        <time>2010-02-07T00:30:50Z</time>
      </trkpt>
      <trkpt lat="47.589674983173609" lon="18.865659004077315">
        <ele>508.20999999999998</ele>
        <time>2010-02-07T00:30:53Z</time>
      </trkpt>
      <trkpt lat="47.589678000658751" lon="18.865607958287001">
        <ele>508.75900000000001</ele>
        <time>2010-02-07T00:30:56Z</time>
      </trkpt>
      <trkpt lat="47.589686969295144" lon="18.865560013800859">
        <ele>508.97399999999999</ele>
        <time>2010-02-07T00:30:59Z</time>
      </trkpt>
      <trkpt lat="47.589698033407331" lon="18.865507962182164">
        <ele>508.73899999999998</ele>
        <time>2010-02-07T00:31:02Z</time>
      </trkpt>
      <trkpt lat="47.589710019528866" lon="18.86545498855412">
        <ele>509.017</ele>
        <time>2010-02-07T00:31:05Z</time>
      </trkpt>
      <trkpt lat="47.589725023135543" lon="18.865407966077328">
        <ele>508.97500000000002</ele>
        <time>2010-02-07T00:31:08Z</time>
      </trkpt>
      <trkpt lat="47.589739020913839" lon="18.865362033247948">
        <ele>508.53199999999998</ele>
        <time>2010-02-07T00:31:11Z</time>
      </trkpt>
      <trkpt lat="47.589748995378613" lon="18.865316016599536">
        <ele>508.637</ele>
        <time>2010-02-07T00:31:14Z</time>
      </trkpt>
      <trkpt lat="47.589760981500149" lon="18.865273017436266">
        <ele>508.39600000000002</ele>
        <time>2010-02-07T00:31:17Z</time>
      </trkpt>
      <trkpt lat="47.589775985106826" lon="18.865230018272996">
        <ele>508.012</ele>
        <time>2010-02-07T00:31:20Z</time>
      </trkpt>
      <trkpt lat="47.589784031733871" lon="18.865180984139442">
        <ele>508.13400000000001</ele>
        <time>2010-02-07T00:31:23Z</time>
      </trkpt>
      <trkpt lat="47.589789982885122" lon="18.865129016339779">
        <ele>508.24700000000001</ele>
        <time>2010-02-07T00:31:26Z</time>
      </trkpt>
      <trkpt lat="47.589798029512167" lon="18.865071013569832">
        <ele>507.577</ele>
        <time>2010-02-07T00:31:29Z</time>
      </trkpt>
      <trkpt lat="47.589808003976941" lon="18.865028014406562">
        <ele>507.66800000000001</ele>
        <time>2010-02-07T00:31:31Z</time>
      </trkpt>
      <trkpt lat="47.589816972613335" lon="18.864983003586531">
        <ele>508.20800000000003</ele>
        <time>2010-02-07T00:31:33Z</time>
      </trkpt>
      <trkpt lat="47.589825019240379" lon="18.864922989159822">
        <ele>508.024</ele>
        <time>2010-02-07T00:31:36Z</time>
      </trkpt>
      <trkpt lat="47.589829964563251" lon="18.864861968904734">
        <ele>507.26100000000002</ele>
        <time>2010-02-07T00:31:39Z</time>
      </trkpt>
      <trkpt lat="47.589834993705153" lon="18.864802960306406">
        <ele>507.58600000000001</ele>
        <time>2010-02-07T00:31:42Z</time>
      </trkpt>
      <trkpt lat="47.589838011190295" lon="18.864758033305407">
        <ele>506.983</ele>
        <time>2010-02-07T00:31:44Z</time>
      </trkpt>
      <trkpt lat="47.589840022847056" lon="18.864711010828614">
        <ele>506.55500000000001</ele>
        <time>2010-02-07T00:31:46Z</time>
      </trkpt>
      <trkpt lat="47.589842034503818" lon="18.864652002230287">
        <ele>505.79000000000002</ele>
        <time>2010-02-07T00:31:48Z</time>
      </trkpt>
      <trkpt lat="47.589841028675437" lon="18.864590981975198">
        <ele>505.75200000000001</ele>
        <time>2010-02-07T00:31:50Z</time>
      </trkpt>
      <trkpt lat="47.589842034503818" lon="18.86452903971076">
        <ele>505.30000000000001</ele>
        <time>2010-02-07T00:31:52Z</time>
      </trkpt>
      <trkpt lat="47.589839017018676" lon="18.864476988092065">
        <ele>504.80799999999999</ele>
        <time>2010-02-07T00:31:54Z</time>
      </trkpt>
      <trkpt lat="47.589837005361915" lon="18.864428959786892">
        <ele>504.56200000000001</ele>
        <time>2010-02-07T00:31:56Z</time>
      </trkpt>
      <trkpt lat="47.589841028675437" lon="18.864385038614273">
        <ele>504.75799999999998</ele>
        <time>2010-02-07T00:31:58Z</time>
      </trkpt>
      <trkpt lat="47.589844968169928" lon="18.864340027794242">
        <ele>504.76999999999998</ele>
        <time>2010-02-07T00:32:00Z</time>
      </trkpt>
      <trkpt lat="47.58984899148345" lon="18.864290993660688">
        <ele>504.327</ele>
        <time>2010-02-07T00:32:02Z</time>
      </trkpt>
      <trkpt lat="47.58984899148345" lon="18.864237014204264">
        <ele>504.96600000000001</ele>
        <time>2010-02-07T00:32:05Z</time>
      </trkpt>
      <trkpt lat="47.589851003140211" lon="18.864185968413949">
        <ele>504.48700000000002</ele>
        <time>2010-02-07T00:32:09Z</time>
      </trkpt>
      <trkpt lat="47.589852008968592" lon="18.864141963422298">
        <ele>505.75700000000001</ele>
        <time>2010-02-07T00:32:12Z</time>
      </trkpt>
      <trkpt lat="47.589852008968592" lon="18.864098964259028">
        <ele>505.09699999999998</ele>
        <time>2010-02-07T00:32:15Z</time>
      </trkpt>
      <trkpt lat="47.589856032282114" lon="18.864054037258029">
        <ele>504.76999999999998</ele>
        <time>2010-02-07T00:32:18Z</time>
      </trkpt>
      <trkpt lat="47.589863995090127" lon="18.864005003124475">
        <ele>503.92399999999998</ele>
        <time>2010-02-07T00:32:21Z</time>
      </trkpt>
      <trkpt lat="47.58991302922368" lon="18.863970972597599">
        <ele>504.87700000000001</ele>
        <time>2010-02-07T00:33:33Z</time>
      </trkpt>
      <trkpt lat="47.589929038658738" lon="18.863922022283077">
        <ele>504.202</ele>
        <time>2010-02-07T00:33:38Z</time>
      </trkpt>
      <trkpt lat="47.589948987588286" lon="18.863872988149524">
        <ele>504.48200000000003</ele>
        <time>2010-02-07T00:33:41Z</time>
      </trkpt>
      <trkpt lat="47.589973965659738" lon="18.863826971501112">
        <ele>503.79199999999997</ele>
        <time>2010-02-07T00:33:44Z</time>
      </trkpt>
      <trkpt lat="47.589997015893459" lon="18.863795036450028">
        <ele>503.81700000000001</ele>
        <time>2010-02-07T00:33:46Z</time>
      </trkpt>
      <trkpt lat="47.590026017278433" lon="18.863754970952868">
        <ele>503.87400000000002</ele>
        <time>2010-02-07T00:33:49Z</time>
      </trkpt>
      <trkpt lat="47.590058036148548" lon="18.863719012588263">
        <ele>504.36000000000001</ele>
        <time>2010-02-07T00:33:52Z</time>
      </trkpt>
      <trkpt lat="47.590088965371251" lon="18.863680036738515">
        <ele>503.98899999999998</ele>
        <time>2010-02-07T00:33:55Z</time>
      </trkpt>
      <trkpt lat="47.590115033090115" lon="18.863636031746864">
        <ele>503.97000000000003</ele>
        <time>2010-02-07T00:33:58Z</time>
      </trkpt>
      <trkpt lat="47.590133976191282" lon="18.863600995391607">
        <ele>504.38999999999999</ele>
        <time>2010-02-07T00:34:00Z</time>
      </trkpt>
      <trkpt lat="47.590157026425004" lon="18.863555984571576">
        <ele>505.16199999999998</ele>
        <time>2010-02-07T00:34:03Z</time>
      </trkpt>
      <trkpt lat="47.590175969526172" lon="18.863509967923164">
        <ele>505.15800000000002</ele>
        <time>2010-02-07T00:34:06Z</time>
      </trkpt>
      <trkpt lat="47.59019298478961" lon="18.863458000123501">
        <ele>505.77999999999997</ele>
        <time>2010-02-07T00:34:09Z</time>
      </trkpt>
      <trkpt lat="47.590206982567906" lon="18.863402009010315">
        <ele>505.154</ele>
        <time>2010-02-07T00:34:12Z</time>
      </trkpt>
      <trkpt lat="47.590222992002964" lon="18.863345012068748">
        <ele>504.971</ele>
        <time>2010-02-07T00:34:15Z</time>
      </trkpt>
      <trkpt lat="47.59023598395288" lon="18.863288015127182">
        <ele>505.25599999999997</ele>
        <time>2010-02-07T00:34:18Z</time>
      </trkpt>
      <trkpt lat="47.590252999216318" lon="18.863233029842377">
        <ele>504.81799999999998</ele>
        <time>2010-02-07T00:34:21Z</time>
      </trkpt>
      <trkpt lat="47.590272026136518" lon="18.863172009587288">
        <ele>505.39499999999998</ele>
        <time>2010-02-07T00:34:24Z</time>
      </trkpt>
      <trkpt lat="47.590286023914814" lon="18.863125992938876">
        <ele>505.53800000000001</ele>
        <time>2010-02-07T00:34:26Z</time>
      </trkpt>
      <trkpt lat="47.590294992551208" lon="18.863078970462084">
        <ele>505.82499999999999</ele>
        <time>2010-02-07T00:34:28Z</time>
      </trkpt>
      <trkpt lat="47.590303961187601" lon="18.863035971298814">
        <ele>505.73500000000001</ele>
        <time>2010-02-07T00:34:30Z</time>
      </trkpt>
      <trkpt lat="47.590313013643026" lon="18.862989032641053">
        <ele>505.80700000000002</ele>
        <time>2010-02-07T00:34:32Z</time>
      </trkpt>
      <trkpt lat="47.590318964794278" lon="18.862943015992641">
        <ele>505.44499999999999</ele>
        <time>2010-02-07T00:34:34Z</time>
      </trkpt>
      <trkpt lat="47.590328017249703" lon="18.862900016829371">
        <ele>505.81799999999998</ele>
        <time>2010-02-07T00:34:36Z</time>
      </trkpt>
      <trkpt lat="47.590340003371239" lon="18.862837990745902">
        <ele>505.93099999999998</ele>
        <time>2010-02-07T00:34:39Z</time>
      </trkpt>
      <trkpt lat="47.590355006977916" lon="18.862778982147574">
        <ele>506.47399999999999</ele>
        <time>2010-02-07T00:34:42Z</time>
      </trkpt>
      <trkpt lat="47.590375039726496" lon="18.862720979377627">
        <ele>506.76400000000001</ele>
        <time>2010-02-07T00:34:45Z</time>
      </trkpt>
      <trkpt lat="47.590380990877748" lon="18.862677980214357">
        <ele>507.79700000000003</ele>
        <time>2010-02-07T00:34:47Z</time>
      </trkpt>
      <trkpt lat="47.590392976999283" lon="18.862615032121539">
        <ele>507.30599999999998</ele>
        <time>2010-02-07T00:34:50Z</time>
      </trkpt>
      <trkpt lat="47.590393982827663" lon="18.862568009644747">
        <ele>507.52100000000002</ele>
        <time>2010-02-07T00:34:52Z</time>
      </trkpt>
      <trkpt lat="47.590397000312805" lon="18.862521992996335">
        <ele>507.46300000000002</ele>
        <time>2010-02-07T00:34:54Z</time>
      </trkpt>
      <trkpt lat="47.590397000312805" lon="18.862472958862782">
        <ele>507.62799999999999</ele>
        <time>2010-02-07T00:34:56Z</time>
      </trkpt>
      <trkpt lat="47.590391971170902" lon="18.86240397579968">
        <ele>507.37099999999998</ele>
        <time>2010-02-07T00:34:59Z</time>
      </trkpt>
      <trkpt lat="47.590403035283089" lon="18.862352008000016">
        <ele>507.68599999999998</ele>
        <time>2010-02-07T00:35:01Z</time>
      </trkpt>
      <trkpt lat="47.590402029454708" lon="18.862292999401689">
        <ele>507.91399999999999</ele>
        <time>2010-02-07T00:35:03Z</time>
      </trkpt>
      <trkpt lat="47.590402029454708" lon="18.862243965268135">
        <ele>507.82999999999998</ele>
        <time>2010-02-07T00:35:05Z</time>
      </trkpt>
      <trkpt lat="47.590393982827663" lon="18.862183028832078">
        <ele>507.69400000000002</ele>
        <time>2010-02-07T00:35:08Z</time>
      </trkpt>
      <trkpt lat="47.590390965342522" lon="18.862118991091847">
        <ele>507.92200000000003</ele>
        <time>2010-02-07T00:35:11Z</time>
      </trkpt>
      <trkpt lat="47.590389037504792" lon="18.862055037170649">
        <ele>508.09100000000001</ele>
        <time>2010-02-07T00:35:14Z</time>
      </trkpt>
      <trkpt lat="47.590375039726496" lon="18.862011032178998">
        <ele>508.58199999999999</ele>
        <time>2010-02-07T00:35:16Z</time>
      </trkpt>
      <trkpt lat="47.590380990877748" lon="18.861964009702206">
        <ele>508.60599999999999</ele>
        <time>2010-02-07T00:35:19Z</time>
      </trkpt>
      <trkpt lat="47.590400017797947" lon="18.861905001103878">
        <ele>509.34899999999999</ele>
        <time>2010-02-07T00:35:23Z</time>
      </trkpt>
      <trkpt lat="47.590404963120818" lon="18.861840041354299">
        <ele>509.59300000000002</ele>
        <time>2010-02-07T00:35:26Z</time>
      </trkpt>
      <trkpt lat="47.590393982827663" lon="18.861778015270829">
        <ele>509.815</ele>
        <time>2010-02-07T00:35:29Z</time>
      </trkpt>
      <trkpt lat="47.590393982827663" lon="18.861721018329263">
        <ele>509.69999999999999</ele>
        <time>2010-02-07T00:35:32Z</time>
      </trkpt>
      <trkpt lat="47.590384008362889" lon="18.861662009730935">
        <ele>509.81299999999999</ele>
        <time>2010-02-07T00:35:35Z</time>
      </trkpt>
      <trkpt lat="47.59036498144269" lon="18.861606018617749">
        <ele>510.084</ele>
        <time>2010-02-07T00:35:38Z</time>
      </trkpt>
      <trkpt lat="47.590351989492774" lon="18.861536029726267">
        <ele>510.62099999999998</ele>
        <time>2010-02-07T00:35:41Z</time>
      </trkpt>
      <trkpt lat="47.590341009199619" lon="18.861470986157656">
        <ele>511.13299999999998</ele>
        <time>2010-02-07T00:35:44Z</time>
      </trkpt>
      <trkpt lat="47.590324999764562" lon="18.861405020579696">
        <ele>510.85500000000002</ele>
        <time>2010-02-07T00:35:47Z</time>
      </trkpt>
      <trkpt lat="47.590313013643026" lon="18.861344000324607">
        <ele>511.44999999999999</ele>
        <time>2010-02-07T00:35:50Z</time>
      </trkpt>
      <trkpt lat="47.590301027521491" lon="18.861277028918266">
        <ele>512.66399999999999</ele>
        <time>2010-02-07T00:35:53Z</time>
      </trkpt>
      <trkpt lat="47.590285018086433" lon="18.86122296564281">
        <ele>512.21100000000001</ele>
        <time>2010-02-07T00:35:56Z</time>
      </trkpt>
      <trkpt lat="47.590268002822995" lon="18.861169992014766">
        <ele>511.97699999999998</ele>
        <time>2010-02-07T00:35:59Z</time>
      </trkpt>
      <trkpt lat="47.590239001438022" lon="18.861116012558341">
        <ele>511.56700000000001</ele>
        <time>2010-02-07T00:36:02Z</time>
      </trkpt>
      <trkpt lat="47.590215029194951" lon="18.861077958717942">
        <ele>511.56</ele>
        <time>2010-02-07T00:36:04Z</time>
      </trkpt>
      <trkpt lat="47.590190973132849" lon="18.861031020060182">
        <ele>510.31700000000001</ele>
        <time>2010-02-07T00:36:06Z</time>
      </trkpt>
      <trkpt lat="47.590172030031681" lon="18.860975028946996">
        <ele>510.67000000000002</ele>
        <time>2010-02-07T00:36:08Z</time>
      </trkpt>
      <trkpt lat="47.59014998562634" lon="18.86092197149992">
        <ele>509.93799999999999</ele>
        <time>2010-02-07T00:36:10Z</time>
      </trkpt>
      <trkpt lat="47.590136993676424" lon="18.860863968729973">
        <ele>509.51799999999997</ele>
        <time>2010-02-07T00:36:12Z</time>
      </trkpt>
      <trkpt lat="47.590120984241366" lon="18.860806971788406">
        <ele>509.17000000000002</ele>
        <time>2010-02-07T00:36:14Z</time>
      </trkpt>
      <trkpt lat="47.590107992291451" lon="18.860753998160362">
        <ele>508.55399999999997</ele>
        <time>2010-02-07T00:36:16Z</time>
      </trkpt>
      <trkpt lat="47.590093994513154" lon="18.86070798151195">
        <ele>508.96699999999998</ele>
        <time>2010-02-07T00:36:18Z</time>
      </trkpt>
      <trkpt lat="47.590082008391619" lon="18.860662970691919">
        <ele>508.51900000000001</ele>
        <time>2010-02-07T00:36:20Z</time>
      </trkpt>
      <trkpt lat="47.590073039755225" lon="18.860616032034159">
        <ele>508.82999999999998</ele>
        <time>2010-02-07T00:36:22Z</time>
      </trkpt>
      <trkpt lat="47.590062981471419" lon="18.860573032870889">
        <ele>509.16300000000001</ele>
        <time>2010-02-07T00:36:24Z</time>
      </trkpt>
      <trkpt lat="47.590049989521503" lon="18.860507989302278">
        <ele>509.63400000000001</ele>
        <time>2010-02-07T00:36:27Z</time>
      </trkpt>
      <trkpt lat="47.590043032541871" lon="18.860460966825485">
        <ele>508.70100000000002</ele>
        <time>2010-02-07T00:36:29Z</time>
      </trkpt>
      <trkpt lat="47.590035991743207" lon="18.860416039824486">
        <ele>509.24599999999998</ele>
        <time>2010-02-07T00:36:31Z</time>
      </trkpt>
      <trkpt lat="47.590024005621672" lon="18.860354013741016">
        <ele>509.084</ele>
        <time>2010-02-07T00:36:34Z</time>
      </trkpt>
      <trkpt lat="47.590012019500136" lon="18.860296010971069">
        <ele>509.755</ele>
        <time>2010-02-07T00:36:37Z</time>
      </trkpt>
      <trkpt lat="47.589997015893459" lon="18.860238008201122">
        <ele>509.13200000000001</ele>
        <time>2010-02-07T00:36:40Z</time>
      </trkpt>
      <trkpt lat="47.589974971488118" lon="18.860187968239188">
        <ele>509.125</ele>
        <time>2010-02-07T00:36:43Z</time>
      </trkpt>
      <trkpt lat="47.58995502255857" lon="18.860136000439525">
        <ele>509.51799999999997</ele>
        <time>2010-02-07T00:36:46Z</time>
      </trkpt>
      <trkpt lat="47.589929960668087" lon="18.860088977962732">
        <ele>509.61500000000001</ele>
        <time>2010-02-07T00:36:49Z</time>
      </trkpt>
      <trkpt lat="47.589902970939875" lon="18.860043967142701">
        <ele>509.88299999999998</ele>
        <time>2010-02-07T00:36:52Z</time>
      </trkpt>
      <trkpt lat="47.589876987040043" lon="18.85999602265656">
        <ele>509.55099999999999</ele>
        <time>2010-02-07T00:36:55Z</time>
      </trkpt>
      <trkpt lat="47.589858965948224" lon="18.859956962987781">
        <ele>510.12099999999998</ele>
        <time>2010-02-07T00:36:58Z</time>
      </trkpt>
      <trkpt lat="47.589842034503818" lon="18.859896026551723">
        <ele>510.28899999999999</ele>
        <time>2010-02-07T00:37:02Z</time>
      </trkpt>
      <trkpt lat="47.589823007583618" lon="18.85984699241817">
        <ele>510.42399999999998</ele>
        <time>2010-02-07T00:37:05Z</time>
      </trkpt>
      <trkpt lat="47.589802974835038" lon="18.859804999083281">
        <ele>510.79300000000001</ele>
        <time>2010-02-07T00:37:08Z</time>
      </trkpt>
      <trkpt lat="47.589784031733871" lon="18.859770968556404">
        <ele>510.78899999999999</ele>
        <time>2010-02-07T00:37:11Z</time>
      </trkpt>
      <trkpt lat="47.589760981500149" lon="18.859737021848559">
        <ele>512.70000000000005</ele>
        <time>2010-02-07T00:37:14Z</time>
      </trkpt>
      <trkpt lat="47.589739020913839" lon="18.859697040170431">
        <ele>512.74900000000002</ele>
        <time>2010-02-07T00:37:17Z</time>
      </trkpt>
      <trkpt lat="47.589713959023356" lon="18.859654041007161">
        <ele>513.34199999999998</ele>
        <time>2010-02-07T00:37:20Z</time>
      </trkpt>
      <trkpt lat="47.589694010093808" lon="18.859625039622188">
        <ele>513.79600000000005</ele>
        <time>2010-02-07T00:37:23Z</time>
      </trkpt>
      <trkpt lat="47.589682023972273" lon="18.859585979953408">
        <ele>514.36500000000001</ele>
        <time>2010-02-07T00:37:27Z</time>
      </trkpt>
      <trkpt lat="47.589671965688467" lon="18.859519008547068">
        <ele>514.82000000000005</ele>
        <time>2010-02-07T00:37:31Z</time>
      </trkpt>
      <trkpt lat="47.589653022587299" lon="18.859458994120359">
        <ele>514.22699999999998</ele>
        <time>2010-02-07T00:37:35Z</time>
      </trkpt>
      <trkpt lat="47.589637013152242" lon="18.859400991350412">
        <ele>514.71199999999999</ele>
        <time>2010-02-07T00:37:39Z</time>
      </trkpt>
      <trkpt lat="47.589607005938888" lon="18.859352963045239">
        <ele>515.274</ele>
        <time>2010-02-07T00:37:43Z</time>
      </trkpt>
      <trkpt lat="47.589573981240392" lon="18.859322033822536">
        <ele>514.947</ele>
        <time>2010-02-07T00:37:48Z</time>
      </trkpt>
      <trkpt lat="47.589520001783967" lon="18.859256990253925">
        <ele>516.31600000000003</ele>
        <time>2010-02-07T00:37:54Z</time>
      </trkpt>
      <trkpt lat="47.589469961822033" lon="18.859218014404178">
        <ele>516.67499999999995</ele>
        <time>2010-02-07T00:38:00Z</time>
      </trkpt>
      <trkpt lat="47.589417994022369" lon="18.859168980270624">
        <ele>516.61500000000001</ele>
        <time>2010-02-07T00:38:05Z</time>
      </trkpt>
      <trkpt lat="47.589382035657763" lon="18.859117012470961">
        <ele>516.79499999999996</ele>
        <time>2010-02-07T00:38:10Z</time>
      </trkpt>
      <trkpt lat="47.589358985424042" lon="18.859085999429226">
        <ele>517.54399999999998</ele>
        <time>2010-02-07T00:38:14Z</time>
      </trkpt>
      <trkpt lat="47.589336019009352" lon="18.859038976952434">
        <ele>517.14099999999996</ele>
        <time>2010-02-07T00:38:18Z</time>
      </trkpt>
      <trkpt lat="47.589315986260772" lon="18.858977034687996">
        <ele>518.12900000000002</ele>
        <time>2010-02-07T00:38:22Z</time>
      </trkpt>
      <trkpt lat="47.589316992089152" lon="18.85892397724092">
        <ele>518.06600000000003</ele>
        <time>2010-02-07T00:38:26Z</time>
      </trkpt>
      <trkpt lat="47.589325038716197" lon="18.858865974470973">
        <ele>518.42600000000004</ele>
        <time>2010-02-07T00:38:30Z</time>
      </trkpt>
      <trkpt lat="47.589322021231055" lon="18.858819035813212">
        <ele>519.60199999999998</ele>
        <time>2010-02-07T00:38:33Z</time>
      </trkpt>
      <trkpt lat="47.589317997917533" lon="18.858759021386504">
        <ele>519.202</ele>
        <time>2010-02-07T00:38:37Z</time>
      </trkpt>
      <trkpt lat="47.589314980432391" lon="18.858713004738092">
        <ele>519.97299999999996</ele>
        <time>2010-02-07T00:38:40Z</time>
      </trkpt>
      <trkpt lat="47.58931296877563" lon="18.858653996139765">
        <ele>520.57299999999998</ele>
        <time>2010-02-07T00:38:44Z</time>
      </trkpt>
      <trkpt lat="47.58931296877563" lon="18.858602028340101">
        <ele>521.33699999999999</ele>
        <time>2010-02-07T00:38:47Z</time>
      </trkpt>
      <trkpt lat="47.589306011795998" lon="18.858551988378167">
        <ele>521.32799999999997</ele>
        <time>2010-02-07T00:38:50Z</time>
      </trkpt>
      <trkpt lat="47.589297965168953" lon="18.858489040285349">
        <ele>522.45299999999997</ele>
        <time>2010-02-07T00:38:54Z</time>
      </trkpt>
      <trkpt lat="47.589304000139236" lon="18.858440006151795">
        <ele>521.822</ele>
        <time>2010-02-07T00:38:57Z</time>
      </trkpt>
      <trkpt lat="47.589325038716197" lon="18.858380997553468">
        <ele>522.53499999999997</ele>
        <time>2010-02-07T00:39:00Z</time>
      </trkpt>
      <trkpt lat="47.589325960725546" lon="18.858318971469998">
        <ele>522.50999999999999</ele>
        <time>2010-02-07T00:39:03Z</time>
      </trkpt>
      <trkpt lat="47.589328978210688" lon="18.858250994235277">
        <ele>522.55700000000002</ele>
        <time>2010-02-07T00:39:06Z</time>
      </trkpt>
      <trkpt lat="47.589324032887816" lon="18.858186034485698">
        <ele>522.47799999999995</ele>
        <time>2010-02-07T00:39:09Z</time>
      </trkpt>
      <trkpt lat="47.589313974604011" lon="18.858118979260325">
        <ele>523.12300000000005</ele>
        <time>2010-02-07T00:39:12Z</time>
      </trkpt>
      <trkpt lat="47.58931296877563" lon="18.858054019510746">
        <ele>522.77999999999997</ele>
        <time>2010-02-07T00:39:15Z</time>
      </trkpt>
      <trkpt lat="47.589314980432391" lon="18.85799702256918">
        <ele>522.34199999999998</ele>
        <time>2010-02-07T00:39:18Z</time>
      </trkpt>
      <trkpt lat="47.589321015402675" lon="18.85793499648571">
        <ele>522.98599999999999</ele>
        <time>2010-02-07T00:39:21Z</time>
      </trkpt>
      <trkpt lat="47.589324032887816" lon="18.857873976230621">
        <ele>523.02999999999997</ele>
        <time>2010-02-07T00:39:24Z</time>
      </trkpt>
      <trkpt lat="47.589321015402675" lon="18.857821002602577">
        <ele>523.673</ele>
        <time>2010-02-07T00:39:27Z</time>
      </trkpt>
      <trkpt lat="47.589320009574294" lon="18.857744978740811">
        <ele>524.98299999999995</ele>
        <time>2010-02-07T00:39:31Z</time>
      </trkpt>
      <trkpt lat="47.589319003745914" lon="18.857686975970864">
        <ele>524.63999999999999</ele>
        <time>2010-02-07T00:39:34Z</time>
      </trkpt>
      <trkpt lat="47.589320009574294" lon="18.857629979029298">
        <ele>524.82899999999995</ele>
        <time>2010-02-07T00:39:37Z</time>
      </trkpt>
      <trkpt lat="47.589325038716197" lon="18.857563007622957">
        <ele>526.68899999999996</ele>
        <time>2010-02-07T00:39:42Z</time>
      </trkpt>
      <trkpt lat="47.589326966553926" lon="18.857502993196249">
        <ele>524.99800000000005</ele>
        <time>2010-02-07T00:39:46Z</time>
      </trkpt>
      <trkpt lat="47.589348005130887" lon="18.857443984597921">
        <ele>526.30799999999999</ele>
        <time>2010-02-07T00:39:50Z</time>
      </trkpt>
      <trkpt lat="47.589354962110519" lon="18.857399979606271">
        <ele>526.82799999999997</ele>
        <time>2010-02-07T00:39:54Z</time>
      </trkpt>
      <trkpt lat="47.589354040101171" lon="18.857336025685072">
        <ele>528.18100000000004</ele>
        <time>2010-02-07T00:39:58Z</time>
      </trkpt>
      <trkpt lat="47.58935303427279" lon="18.85726997628808">
        <ele>528.43299999999999</ele>
        <time>2010-02-07T00:40:02Z</time>
      </trkpt>
      <trkpt lat="47.589348005130887" lon="18.857207028195262">
        <ele>530.26499999999999</ele>
        <time>2010-02-07T00:40:06Z</time>
      </trkpt>
      <trkpt lat="47.589343981817365" lon="18.857145002111793">
        <ele>529.89200000000005</ele>
        <time>2010-02-07T00:40:10Z</time>
      </trkpt>
      <trkpt lat="47.589342975988984" lon="18.857086999341846">
        <ele>530.66700000000003</ele>
        <time>2010-02-07T00:40:14Z</time>
      </trkpt>
      <trkpt lat="47.58933300152421" lon="18.857033019885421">
        <ele>530.66099999999994</ele>
        <time>2010-02-07T00:40:18Z</time>
      </trkpt>
      <trkpt lat="47.589335013180971" lon="18.856966970488429">
        <ele>530.53800000000001</ele>
        <time>2010-02-07T00:40:22Z</time>
      </trkpt>
      <trkpt lat="47.589335013180971" lon="18.856907961890101">
        <ele>531.33100000000002</ele>
        <time>2010-02-07T00:40:26Z</time>
      </trkpt>
      <trkpt lat="47.589335013180971" lon="18.856855994090438">
        <ele>531.13099999999997</ele>
        <time>2010-02-07T00:40:29Z</time>
      </trkpt>
      <trkpt lat="47.589338030666113" lon="18.856805032119155">
        <ele>531.24400000000003</ele>
        <time>2010-02-07T00:40:32Z</time>
      </trkpt>
      <trkpt lat="47.589338030666113" lon="18.856750968843699">
        <ele>531.44200000000001</ele>
        <time>2010-02-07T00:40:35Z</time>
      </trkpt>
      <trkpt lat="47.589343981817365" lon="18.856704030185938">
        <ele>531.947</ele>
        <time>2010-02-07T00:40:38Z</time>
      </trkpt>
      <trkpt lat="47.589349010959268" lon="18.856643009930849">
        <ele>532.52800000000002</ele>
        <time>2010-02-07T00:40:42Z</time>
      </trkpt>
      <trkpt lat="47.589356973767281" lon="18.856577966362238">
        <ele>533.35000000000002</ele>
        <time>2010-02-07T00:40:46Z</time>
      </trkpt>
      <trkpt lat="47.589360997080803" lon="18.856518035754561">
        <ele>533.34000000000003</ele>
        <time>2010-02-07T00:40:49Z</time>
      </trkpt>
      <trkpt lat="47.589369965717196" lon="18.856449974700809">
        <ele>533.71699999999998</ele>
        <time>2010-02-07T00:40:53Z</time>
      </trkpt>
      <trkpt lat="47.589372983202338" lon="18.856393983587623">
        <ele>533.58000000000004</ele>
        <time>2010-02-07T00:40:57Z</time>
      </trkpt>
      <trkpt lat="47.589369965717196" lon="18.856335980817676">
        <ele>534.22500000000002</ele>
        <time>2010-02-07T00:41:01Z</time>
      </trkpt>
      <trkpt lat="47.589369965717196" lon="18.85627998970449">
        <ele>535.49800000000005</ele>
        <time>2010-02-07T00:41:05Z</time>
      </trkpt>
      <trkpt lat="47.589368959888816" lon="18.856227016076446">
        <ele>535.56700000000001</ele>
        <time>2010-02-07T00:41:09Z</time>
      </trkpt>
      <trkpt lat="47.589371977373958" lon="18.856175970286131">
        <ele>537.96600000000001</ele>
        <time>2010-02-07T00:41:13Z</time>
      </trkpt>
      <trkpt lat="47.589369965717196" lon="18.856126014143229">
        <ele>537.98900000000003</ele>
        <time>2010-02-07T00:41:16Z</time>
      </trkpt>
      <trkpt lat="47.589360997080803" lon="18.856073040515184">
        <ele>537.63699999999994</ele>
        <time>2010-02-07T00:41:20Z</time>
      </trkpt>
      <trkpt lat="47.589354962110519" lon="18.856014031916857">
        <ele>537.73800000000006</ele>
        <time>2010-02-07T00:41:24Z</time>
      </trkpt>
      <trkpt lat="47.589351022616029" lon="18.85595896281302">
        <ele>537.40200000000004</ele>
        <time>2010-02-07T00:41:28Z</time>
      </trkpt>
      <trkpt lat="47.589346999302506" lon="18.855889979749918">
        <ele>537.61800000000005</ele>
        <time>2010-02-07T00:41:32Z</time>
      </trkpt>
      <trkpt lat="47.589342975988984" lon="18.855844968929887">
        <ele>537.55899999999997</ele>
        <time>2010-02-07T00:41:35Z</time>
      </trkpt>
      <trkpt lat="47.589343981817365" lon="18.85578696615994">
        <ele>537.61699999999996</ele>
        <time>2010-02-07T00:41:39Z</time>
      </trkpt>
      <trkpt lat="47.589344987645745" lon="18.855732986703515">
        <ele>537.85699999999997</ele>
        <time>2010-02-07T00:41:43Z</time>
      </trkpt>
      <trkpt lat="47.589340964332223" lon="18.855685964226723">
        <ele>537.45299999999997</ele>
        <time>2010-02-07T00:41:46Z</time>
      </trkpt>
      <trkpt lat="47.589336019009352" lon="18.855629973113537">
        <ele>537.53800000000001</ele>
        <time>2010-02-07T00:41:49Z</time>
      </trkpt>
      <trkpt lat="47.589331995695829" lon="18.855574987828732">
        <ele>537.81299999999999</ele>
        <time>2010-02-07T00:41:53Z</time>
      </trkpt>
      <trkpt lat="47.589348005130887" lon="18.855508016422391">
        <ele>538.64700000000005</ele>
        <time>2010-02-07T00:41:57Z</time>
      </trkpt>
      <trkpt lat="47.589354962110519" lon="18.855446996167302">
        <ele>539.20600000000002</ele>
        <time>2010-02-07T00:42:02Z</time>
      </trkpt>
      <trkpt lat="47.589374994859099" lon="18.855395028367639">
        <ele>541.029</ele>
        <time>2010-02-07T00:42:05Z</time>
      </trkpt>
      <trkpt lat="47.589373989030719" lon="18.855328978970647">
        <ele>541.30700000000002</ele>
        <time>2010-02-07T00:42:09Z</time>
      </trkpt>
      <trkpt lat="47.589368037879467" lon="18.855263013392687">
        <ele>541.33500000000004</ele>
        <time>2010-02-07T00:42:13Z</time>
      </trkpt>
      <trkpt lat="47.589366026222706" lon="18.855201993137598">
        <ele>542.15999999999997</ele>
        <time>2010-02-07T00:42:16Z</time>
      </trkpt>
      <trkpt lat="47.589369965717196" lon="18.855149019509554">
        <ele>541.76900000000001</ele>
        <time>2010-02-07T00:42:19Z</time>
      </trkpt>
      <trkpt lat="47.58937600068748" lon="18.855092022567987">
        <ele>541.94399999999996</ele>
        <time>2010-02-07T00:42:22Z</time>
      </trkpt>
      <trkpt lat="47.589378012344241" lon="18.855038965120912">
        <ele>544.51499999999999</ele>
        <time>2010-02-07T00:42:25Z</time>
      </trkpt>
      <trkpt lat="47.589377006515861" lon="18.854971993714571">
        <ele>543.33799999999997</ele>
        <time>2010-02-07T00:42:29Z</time>
      </trkpt>
      <trkpt lat="47.589383963495493" lon="18.85490401647985">
        <ele>543.76700000000005</ele>
        <time>2010-02-07T00:42:33Z</time>
      </trkpt>
      <trkpt lat="47.589382035657763" lon="18.854849031195045">
        <ele>544.71699999999998</ele>
        <time>2010-02-07T00:42:36Z</time>
      </trkpt>
      <trkpt lat="47.589377006515861" lon="18.854790022596717">
        <ele>545.16899999999998</ele>
        <time>2010-02-07T00:42:39Z</time>
      </trkpt>
      <trkpt lat="47.589371977373958" lon="18.854726990684867">
        <ele>545.53899999999999</ele>
        <time>2010-02-07T00:42:42Z</time>
      </trkpt>
      <trkpt lat="47.589363008737564" lon="18.854659013450146">
        <ele>545.87800000000004</ele>
        <time>2010-02-07T00:42:45Z</time>
      </trkpt>
      <trkpt lat="47.589357979595661" lon="18.854602016508579">
        <ele>546.71699999999998</ele>
        <time>2010-02-07T00:42:48Z</time>
      </trkpt>
      <trkpt lat="47.589354040101171" lon="18.854543007910252">
        <ele>545.904</ele>
        <time>2010-02-07T00:42:51Z</time>
      </trkpt>
      <trkpt lat="47.589352028444409" lon="18.854488022625446">
        <ele>546.50999999999999</ele>
        <time>2010-02-07T00:42:54Z</time>
      </trkpt>
      <trkpt lat="47.589350016787648" lon="18.854436976835132">
        <ele>546.33399999999995</ele>
        <time>2010-02-07T00:42:57Z</time>
      </trkpt>
      <trkpt lat="47.589348005130887" lon="18.854376040399075">
        <ele>546.02999999999997</ele>
        <time>2010-02-07T00:43:00Z</time>
      </trkpt>
      <trkpt lat="47.589354040101171" lon="18.854315020143986">
        <ele>546.17600000000004</ele>
        <time>2010-02-07T00:43:03Z</time>
      </trkpt>
      <trkpt lat="47.589356973767281" lon="18.854235978797078">
        <ele>546.31899999999996</ele>
        <time>2010-02-07T00:43:07Z</time>
      </trkpt>
      <trkpt lat="47.589360997080803" lon="18.85417403653264">
        <ele>546.34299999999996</ele>
        <time>2010-02-07T00:43:10Z</time>
      </trkpt>
      <trkpt lat="47.589357979595661" lon="18.854108992964029">
        <ele>546.35000000000002</ele>
        <time>2010-02-07T00:43:13Z</time>
      </trkpt>
      <trkpt lat="47.589360997080803" lon="18.854048978537321">
        <ele>546.01099999999997</ele>
        <time>2010-02-07T00:43:16Z</time>
      </trkpt>
      <trkpt lat="47.589368959888816" lon="18.853978989645839">
        <ele>546.07100000000003</ele>
        <time>2010-02-07T00:43:19Z</time>
      </trkpt>
      <trkpt lat="47.589382035657763" lon="18.853909000754356">
        <ele>546.29399999999998</ele>
        <time>2010-02-07T00:43:22Z</time>
      </trkpt>
      <trkpt lat="47.589381029829383" lon="18.853838006034493">
        <ele>546.25999999999999</ele>
        <time>2010-02-07T00:43:25Z</time>
      </trkpt>
      <trkpt lat="47.58939603343606" lon="18.853781009092927">
        <ele>546.64499999999998</ele>
        <time>2010-02-07T00:43:28Z</time>
      </trkpt>
      <trkpt lat="47.589415982365608" lon="18.853726023808122">
        <ele>547.94100000000003</ele>
        <time>2010-02-07T00:43:31Z</time>
      </trkpt>
      <trkpt lat="47.589450012892485" lon="18.853669026866555">
        <ele>547.47400000000005</ele>
        <time>2010-02-07T00:43:34Z</time>
      </trkpt>
      <trkpt lat="47.589478008449078" lon="18.853605994954705">
        <ele>548.04999999999995</ele>
        <time>2010-02-07T00:43:37Z</time>
      </trkpt>
      <trkpt lat="47.589487982913852" lon="18.853545980527997">
        <ele>548.51300000000003</ele>
        <time>2010-02-07T00:43:40Z</time>
      </trkpt>
      <trkpt lat="47.589481025934219" lon="18.853499963879585">
        <ele>548.43200000000002</ele>
        <time>2010-02-07T00:43:42Z</time>
      </trkpt>
      <trkpt lat="47.589478008449078" lon="18.853441961109638">
        <ele>549.16399999999999</ele>
        <time>2010-02-07T00:43:45Z</time>
      </trkpt>
      <trkpt lat="47.589487982913852" lon="18.853385969996452">
        <ele>548.15700000000004</ele>
        <time>2010-02-07T00:43:48Z</time>
      </trkpt>
      <trkpt lat="47.589507009834051" lon="18.853331990540028">
        <ele>548.79200000000003</ele>
        <time>2010-02-07T00:43:51Z</time>
      </trkpt>
      <trkpt lat="47.589533999562263" lon="18.853289997205138">
        <ele>549.47199999999998</ele>
        <time>2010-02-07T00:43:53Z</time>
      </trkpt>
      <trkpt lat="47.58954799734056" lon="18.853242974728346">
        <ele>548.66999999999996</ele>
        <time>2010-02-07T00:43:55Z</time>
      </trkpt>
      <trkpt lat="47.589546991512179" lon="18.853172985836864">
        <ele>548.37900000000002</ele>
        <time>2010-02-07T00:43:58Z</time>
      </trkpt>
      <trkpt lat="47.589563000947237" lon="18.853114983066916">
        <ele>549.48699999999997</ele>
        <time>2010-02-07T00:44:01Z</time>
      </trkpt>
      <trkpt lat="47.589586973190308" lon="18.853048011660576">
        <ele>549.26199999999994</ele>
        <time>2010-02-07T00:44:04Z</time>
      </trkpt>
      <trkpt lat="47.589614968746901" lon="18.852983973920345">
        <ele>549.43399999999997</ele>
        <time>2010-02-07T00:44:07Z</time>
      </trkpt>
      <trkpt lat="47.589656040072441" lon="18.852924965322018">
        <ele>548.83100000000002</ele>
        <time>2010-02-07T00:44:10Z</time>
      </trkpt>
      <trkpt lat="47.589689986780286" lon="18.852878026664257">
        <ele>549.04600000000005</ele>
        <time>2010-02-07T00:44:13Z</time>
      </trkpt>
      <trkpt lat="47.589724017307162" lon="18.852831004187465">
        <ele>548.95699999999999</ele>
        <time>2010-02-07T00:44:16Z</time>
      </trkpt>
      <trkpt lat="47.589752012863755" lon="18.852786999195814">
        <ele>549.38800000000003</ele>
        <time>2010-02-07T00:44:19Z</time>
      </trkpt>
      <trkpt lat="47.589789982885122" lon="18.852744000032544">
        <ele>548.08900000000006</ele>
        <time>2010-02-07T00:44:22Z</time>
      </trkpt>
      <trkpt lat="47.589819990098476" lon="18.852689014747739">
        <ele>548.07500000000005</ele>
        <time>2010-02-07T00:44:25Z</time>
      </trkpt>
      <trkpt lat="47.589858965948224" lon="18.852646015584469">
        <ele>548.12599999999998</ele>
        <time>2010-02-07T00:44:28Z</time>
      </trkpt>
      <trkpt lat="47.589897019788623" lon="18.85260796174407">
        <ele>548.14099999999996</ele>
        <time>2010-02-07T00:44:31Z</time>
      </trkpt>
      <trkpt lat="47.589916968718171" lon="18.852570997551084">
        <ele>548.56299999999999</ele>
        <time>2010-02-07T00:44:33Z</time>
      </trkpt>
      <trkpt lat="47.589941024780273" lon="18.852512994781137">
        <ele>547.97000000000003</ele>
        <time>2010-02-07T00:44:36Z</time>
      </trkpt>
      <trkpt lat="47.589961979538202" lon="18.852452980354428">
        <ele>548.01900000000001</ele>
        <time>2010-02-07T00:44:39Z</time>
      </trkpt>
      <trkpt lat="47.589972037822008" lon="18.852391038089991">
        <ele>548.19600000000003</ele>
        <time>2010-02-07T00:44:42Z</time>
      </trkpt>
      <trkpt lat="47.589974971488118" lon="18.85232700034976">
        <ele>548.57000000000005</ele>
        <time>2010-02-07T00:44:45Z</time>
      </trkpt>
      <trkpt lat="47.589973965659738" lon="18.85226396843791">
        <ele>548.21500000000003</ele>
        <time>2010-02-07T00:44:48Z</time>
      </trkpt>
      <trkpt lat="47.589971031993628" lon="18.852199008688331">
        <ele>549.25999999999999</ele>
        <time>2010-02-07T00:44:51Z</time>
      </trkpt>
      <trkpt lat="47.58999802172184" lon="18.852135976776481">
        <ele>550.755</ele>
        <time>2010-02-07T00:44:55Z</time>
      </trkpt>
      <trkpt lat="47.590012019500136" lon="18.852085014805198">
        <ele>549.97299999999996</ele>
        <time>2010-02-07T00:44:58Z</time>
      </trkpt>
      <trkpt lat="47.590015958994627" lon="18.852028017863631">
        <ele>550.62900000000002</ele>
        <time>2010-02-07T00:45:01Z</time>
      </trkpt>
      <trkpt lat="47.590033980086446" lon="18.851970015093684">
        <ele>550.05200000000002</ele>
        <time>2010-02-07T00:45:04Z</time>
      </trkpt>
      <trkpt lat="47.590045966207981" lon="18.851906983181834">
        <ele>550.70100000000002</ele>
        <time>2010-02-07T00:45:07Z</time>
      </trkpt>
      <trkpt lat="47.590065998956561" lon="18.85185300372541">
        <ele>550.62</ele>
        <time>2010-02-07T00:45:10Z</time>
      </trkpt>
      <trkpt lat="47.590081002563238" lon="18.851782009005547">
        <ele>550.38999999999999</ele>
        <time>2010-02-07T00:45:14Z</time>
      </trkpt>
      <trkpt lat="47.590098017826676" lon="18.851729035377502">
        <ele>550.46199999999999</ele>
        <time>2010-02-07T00:45:17Z</time>
      </trkpt>
      <trkpt lat="47.590111009776592" lon="18.851663991808891">
        <ele>550.46600000000001</ele>
        <time>2010-02-07T00:45:20Z</time>
      </trkpt>
      <trkpt lat="47.590114027261734" lon="18.851597020402551">
        <ele>550.83500000000004</ele>
        <time>2010-02-07T00:45:23Z</time>
      </trkpt>
      <trkpt lat="47.590115033090115" lon="18.851534994319081">
        <ele>551.16999999999996</ele>
        <time>2010-02-07T00:45:26Z</time>
      </trkpt>
      <trkpt lat="47.590112015604973" lon="18.851485038176179">
        <ele>550.57799999999997</ele>
        <time>2010-02-07T00:45:29Z</time>
      </trkpt>
      <trkpt lat="47.59012802504003" lon="18.85142301209271">
        <ele>551.39599999999996</ele>
        <time>2010-02-07T00:45:32Z</time>
      </trkpt>
      <trkpt lat="47.590136993676424" lon="18.851357968524098">
        <ele>550.44600000000003</ele>
        <time>2010-02-07T00:45:35Z</time>
      </trkpt>
      <trkpt lat="47.590143028646708" lon="18.851296026259661">
        <ele>551.59500000000003</ele>
        <time>2010-02-07T00:45:38Z</time>
      </trkpt>
      <trkpt lat="47.590148979797959" lon="18.851223019883037">
        <ele>550.61000000000001</ele>
        <time>2010-02-07T00:45:41Z</time>
      </trkpt>
      <trkpt lat="47.590165995061398" lon="18.851150013506413">
        <ele>551.26700000000005</ele>
        <time>2010-02-07T00:45:44Z</time>
      </trkpt>
      <trkpt lat="47.590173035860062" lon="18.851083964109421">
        <ele>550.00800000000004</ele>
        <time>2010-02-07T00:45:47Z</time>
      </trkpt>
      <trkpt lat="47.590188039466739" lon="18.851010035723448">
        <ele>550.65599999999995</ele>
        <time>2010-02-07T00:45:50Z</time>
      </trkpt>
      <trkpt lat="47.59021301753819" lon="18.850947003811598">
        <ele>550.41200000000003</ele>
        <time>2010-02-07T00:45:53Z</time>
      </trkpt>
      <trkpt lat="47.590232966467738" lon="18.850876009091735">
        <ele>549.78599999999994</ele>
        <time>2010-02-07T00:45:56Z</time>
      </trkpt>
      <trkpt lat="47.590248975902796" lon="18.850809037685394">
        <ele>550.01199999999994</ele>
        <time>2010-02-07T00:45:59Z</time>
      </trkpt>
      <trkpt lat="47.590268002822995" lon="18.85075899772346">
        <ele>549.18499999999995</ele>
        <time>2010-02-07T00:46:01Z</time>
      </trkpt>
      <trkpt lat="47.590275965631008" lon="18.850705018267035">
        <ele>549.88900000000001</ele>
        <time>2010-02-07T00:46:03Z</time>
      </trkpt>
      <trkpt lat="47.590295998379588" lon="18.850653972476721">
        <ele>549.53499999999997</ele>
        <time>2010-02-07T00:46:05Z</time>
      </trkpt>
      <trkpt lat="47.590314019471407" lon="18.850600998848677">
        <ele>549.22299999999996</ele>
        <time>2010-02-07T00:46:07Z</time>
      </trkpt>
      <trkpt lat="47.59032198227942" lon="18.850535033270717">
        <ele>548.60000000000002</ele>
        <time>2010-02-07T00:46:09Z</time>
      </trkpt>
      <trkpt lat="47.590323993936181" lon="18.850472001358867">
        <ele>547.39700000000005</ele>
        <time>2010-02-07T00:46:11Z</time>
      </trkpt>
      <trkpt lat="47.590324999764562" lon="18.850410981103778">
        <ele>546.84500000000003</ele>
        <time>2010-02-07T00:46:13Z</time>
      </trkpt>
      <trkpt lat="47.590319970622659" lon="18.850344009697437">
        <ele>546.851</ele>
        <time>2010-02-07T00:46:15Z</time>
      </trkpt>
      <trkpt lat="47.590316031128168" lon="18.850275026634336">
        <ele>547.18499999999995</ele>
        <time>2010-02-07T00:46:17Z</time>
      </trkpt>
      <trkpt lat="47.590313013643026" lon="18.850201014429331">
        <ele>545.97400000000005</ele>
        <time>2010-02-07T00:46:19Z</time>
      </trkpt>
      <trkpt lat="47.590320976451039" lon="18.850131025537848">
        <ele>546.529</ele>
        <time>2010-02-07T00:46:21Z</time>
      </trkpt>
      <trkpt lat="47.590316031128168" lon="18.850073022767901">
        <ele>546.39099999999996</ele>
        <time>2010-02-07T00:46:23Z</time>
      </trkpt>
      <trkpt lat="47.59032198227942" lon="18.850012002512813">
        <ele>545.77599999999995</ele>
        <time>2010-02-07T00:46:25Z</time>
      </trkpt>
      <trkpt lat="47.590326005592942" lon="18.849950982257724">
        <ele>545.33600000000001</ele>
        <time>2010-02-07T00:46:27Z</time>
      </trkpt>
      <trkpt lat="47.590318964794278" lon="18.849901026114821">
        <ele>545.15899999999999</ele>
        <time>2010-02-07T00:46:29Z</time>
      </trkpt>
      <trkpt lat="47.590316031128168" lon="18.849827013909817">
        <ele>545.77099999999996</ele>
        <time>2010-02-07T00:46:32Z</time>
      </trkpt>
      <trkpt lat="47.590330028906465" lon="18.849760964512825">
        <ele>546.596</ele>
        <time>2010-02-07T00:46:35Z</time>
      </trkpt>
      <trkpt lat="47.590332962572575" lon="18.849713020026684">
        <ele>545.61599999999999</ele>
        <time>2010-02-07T00:46:37Z</time>
      </trkpt>
      <trkpt lat="47.590320976451039" lon="18.849646970629692">
        <ele>545.42999999999995</ele>
        <time>2010-02-07T00:46:40Z</time>
      </trkpt>
      <trkpt lat="47.590295998379588" lon="18.84959701448679">
        <ele>545.70000000000005</ele>
        <time>2010-02-07T00:46:43Z</time>
      </trkpt>
      <trkpt lat="47.590274037793279" lon="18.849541023373604">
        <ele>545.72199999999998</ele>
        <time>2010-02-07T00:46:46Z</time>
      </trkpt>
      <trkpt lat="47.590255010873079" lon="18.849480003118515">
        <ele>545.59100000000001</ele>
        <time>2010-02-07T00:46:49Z</time>
      </trkpt>
      <trkpt lat="47.590245036408305" lon="18.849400961771607">
        <ele>545.32500000000005</ele>
        <time>2010-02-07T00:46:52Z</time>
      </trkpt>
      <trkpt lat="47.590233972296119" lon="18.849341031163931">
        <ele>544.65599999999995</ele>
        <time>2010-02-07T00:46:54Z</time>
      </trkpt>
      <trkpt lat="47.590231960639358" lon="18.84927598759532">
        <ele>544.36900000000003</ele>
        <time>2010-02-07T00:46:56Z</time>
      </trkpt>
      <trkpt lat="47.590232966467738" lon="18.849217984825373">
        <ele>544.18600000000004</ele>
        <time>2010-02-07T00:46:58Z</time>
      </trkpt>
      <trkpt lat="47.590242018923163" lon="18.849157970398664">
        <ele>543.87599999999998</ele>
        <time>2010-02-07T00:47:00Z</time>
      </trkpt>
      <trkpt lat="47.590260962024331" lon="18.849096028134227">
        <ele>542.72500000000002</ele>
        <time>2010-02-07T00:47:02Z</time>
      </trkpt>
      <trkpt lat="47.590277977287769" lon="18.849030984565616">
        <ele>542.91399999999999</ele>
        <time>2010-02-07T00:47:04Z</time>
      </trkpt>
      <trkpt lat="47.59029901586473" lon="18.84895496070385">
        <ele>541.60500000000002</ele>
        <time>2010-02-07T00:47:06Z</time>
      </trkpt>
      <trkpt lat="47.590324999764562" lon="18.848891006782651">
        <ele>541</ele>
        <time>2010-02-07T00:47:08Z</time>
      </trkpt>
      <trkpt lat="47.590348972007632" lon="18.848835015669465">
        <ele>540.18700000000001</ele>
        <time>2010-02-07T00:47:10Z</time>
      </trkpt>
      <trkpt lat="47.590373028069735" lon="18.848767960444093">
        <ele>539.46400000000006</ele>
        <time>2010-02-07T00:47:12Z</time>
      </trkpt>
      <trkpt lat="47.590399011969566" lon="18.848707024008036">
        <ele>538.97799999999995</ele>
        <time>2010-02-07T00:47:14Z</time>
      </trkpt>
      <trkpt lat="47.590419966727495" lon="18.848643992096186">
        <ele>538.149</ele>
        <time>2010-02-07T00:47:16Z</time>
      </trkpt>
      <trkpt lat="47.590447040274739" lon="18.848577020689845">
        <ele>536.03700000000003</ele>
        <time>2010-02-07T00:47:18Z</time>
      </trkpt>
      <trkpt lat="47.590473024174571" lon="18.848529998213053">
        <ele>536.54399999999998</ele>
        <time>2010-02-07T00:47:20Z</time>
      </trkpt>
      <trkpt lat="47.59049498476088" lon="18.848474007099867">
        <ele>534.37199999999996</ele>
        <time>2010-02-07T00:47:23Z</time>
      </trkpt>
      <trkpt lat="47.590510994195938" lon="18.848427990451455">
        <ele>533.22400000000005</ele>
        <time>2010-02-07T00:47:27Z</time>
      </trkpt>
      <trkpt lat="47.590542007237673" lon="18.848381973803043">
        <ele>533.08600000000001</ele>
        <time>2010-02-07T00:47:32Z</time>
      </trkpt>
      <trkpt lat="47.590570002794266" lon="18.848342997953296">
        <ele>533.51400000000001</ele>
        <time>2010-02-07T00:47:37Z</time>
      </trkpt>
      <trkpt lat="47.590590035542846" lon="18.848278960213065">
        <ele>532.82799999999997</ele>
        <time>2010-02-07T00:47:41Z</time>
      </trkpt>
      <trkpt lat="47.590605039149523" lon="18.848230009898543">
        <ele>532.94500000000005</ele>
        <time>2010-02-07T00:47:44Z</time>
      </trkpt>
      <trkpt lat="47.590624988079071" lon="18.848192039877176">
        <ele>532.77499999999998</ele>
        <time>2010-02-07T00:47:47Z</time>
      </trkpt>
      <trkpt lat="47.590637980028987" lon="18.848143005743623">
        <ele>532.39099999999996</ele>
        <time>2010-02-07T00:47:50Z</time>
      </trkpt>
      <trkpt lat="47.59064401499927" lon="18.848081985488534">
        <ele>531.75300000000004</ele>
        <time>2010-02-07T00:47:53Z</time>
      </trkpt>
      <trkpt lat="47.590652983635664" lon="18.848014008253813">
        <ele>530.827</ele>
        <time>2010-02-07T00:47:56Z</time>
      </trkpt>
      <trkpt lat="47.590662036091089" lon="18.84796698577702">
        <ele>530.01900000000001</ele>
        <time>2010-02-07T00:47:58Z</time>
      </trkpt>
      <trkpt lat="47.590669998899102" lon="18.847913006320596">
        <ele>528.82899999999995</ele>
        <time>2010-02-07T00:48:00Z</time>
      </trkpt>
      <trkpt lat="47.590685002505779" lon="18.847859026864171">
        <ele>528.43399999999997</ele>
        <time>2010-02-07T00:48:02Z</time>
      </trkpt>
      <trkpt lat="47.59070897474885" lon="18.847797000780702">
        <ele>527.02099999999996</ele>
        <time>2010-02-07T00:48:05Z</time>
      </trkpt>
      <trkpt lat="47.590722972527146" lon="18.847749978303909">
        <ele>526.83900000000006</ele>
        <time>2010-02-07T00:48:08Z</time>
      </trkpt>
      <trkpt lat="47.590744011104107" lon="18.847693987190723">
        <ele>526.71400000000006</ele>
        <time>2010-02-07T00:48:12Z</time>
      </trkpt>
      <trkpt lat="47.590763038024306" lon="18.847654005512595">
        <ele>525.65099999999995</ele>
        <time>2010-02-07T00:48:15Z</time>
      </trkpt>
      <trkpt lat="47.590791033580899" lon="18.847612012177706">
        <ele>524.86300000000006</ele>
        <time>2010-02-07T00:48:18Z</time>
      </trkpt>
      <trkpt lat="47.590817017480731" lon="18.847576975822449">
        <ele>523.81200000000001</ele>
        <time>2010-02-07T00:48:21Z</time>
      </trkpt>
      <trkpt lat="47.590844007208943" lon="18.847533976659179">
        <ele>523.34199999999998</ele>
        <time>2010-02-07T00:48:24Z</time>
      </trkpt>
      <trkpt lat="47.590870996937156" lon="18.847490977495909">
        <ele>523.17899999999997</ele>
        <time>2010-02-07T00:48:27Z</time>
      </trkpt>
      <trkpt lat="47.590896980836987" lon="18.847436998039484">
        <ele>521.81500000000005</ele>
        <time>2010-02-07T00:48:30Z</time>
      </trkpt>
      <trkpt lat="47.590926988050342" lon="18.847378995269537">
        <ele>520.52499999999998</ele>
        <time>2010-02-07T00:48:33Z</time>
      </trkpt>
      <trkpt lat="47.59094400331378" lon="18.84734102524817">
        <ele>519.97400000000005</ele>
        <time>2010-02-07T00:48:35Z</time>
      </trkpt>
      <trkpt lat="47.590958001092076" lon="18.847288973629475">
        <ele>519.428</ele>
        <time>2010-02-07T00:48:37Z</time>
      </trkpt>
      <trkpt lat="47.590965963900089" lon="18.847222002223134">
        <ele>519.55399999999997</ele>
        <time>2010-02-07T00:48:39Z</time>
      </trkpt>
      <trkpt lat="47.590979039669037" lon="18.847159976139665">
        <ele>518.37800000000004</ele>
        <time>2010-02-07T00:48:41Z</time>
      </trkpt>
      <trkpt lat="47.590995971113443" lon="18.847115971148014">
        <ele>516.86699999999996</ele>
        <time>2010-02-07T00:48:43Z</time>
      </trkpt>
      <trkpt lat="47.591017009690404" lon="18.847071966156363">
        <ele>515.98500000000001</ele>
        <time>2010-02-07T00:48:45Z</time>
      </trkpt>
      <trkpt lat="47.59103000164032" lon="18.847025027498603">
        <ele>514.86500000000001</ele>
        <time>2010-02-07T00:48:47Z</time>
      </trkpt>
      <trkpt lat="47.591048022732139" lon="18.846972975879908">
        <ele>514.02499999999998</ele>
        <time>2010-02-07T00:48:49Z</time>
      </trkpt>
      <trkpt lat="47.591064032167196" lon="18.846910027787089">
        <ele>514.02099999999996</ele>
        <time>2010-02-07T00:48:51Z</time>
      </trkpt>
      <trkpt lat="47.591081969439983" lon="18.846855964511633">
        <ele>513.31899999999996</ele>
        <time>2010-02-07T00:48:53Z</time>
      </trkpt>
      <trkpt lat="47.591104013845325" lon="18.846814977005124">
        <ele>511.37299999999999</ele>
        <time>2010-02-07T00:48:55Z</time>
      </trkpt>
      <trkpt lat="47.591121029108763" lon="18.846764015033841">
        <ele>510.983</ele>
        <time>2010-02-07T00:48:57Z</time>
      </trkpt>
      <trkpt lat="47.591134021058679" lon="18.846708023920655">
        <ele>510.24099999999999</ele>
        <time>2010-02-07T00:48:59Z</time>
      </trkpt>
      <trkpt lat="47.591140978038311" lon="18.846639962866902">
        <ele>509.22699999999998</ele>
        <time>2010-02-07T00:49:01Z</time>
      </trkpt>
      <trkpt lat="47.591140978038311" lon="18.846575003117323">
        <ele>508.06999999999999</ele>
        <time>2010-02-07T00:49:03Z</time>
      </trkpt>
      <trkpt lat="47.591134021058679" lon="18.846518006175756">
        <ele>507.976</ele>
        <time>2010-02-07T00:49:05Z</time>
      </trkpt>
      <trkpt lat="47.591131003573537" lon="18.846464026719332">
        <ele>506.83600000000001</ele>
        <time>2010-02-07T00:49:07Z</time>
      </trkpt>
      <trkpt lat="47.591124968603253" lon="18.846407029777765">
        <ele>506.31999999999999</ele>
        <time>2010-02-07T00:49:09Z</time>
      </trkpt>
      <trkpt lat="47.591113988310099" lon="18.846356989815831">
        <ele>504.42099999999999</ele>
        <time>2010-02-07T00:49:11Z</time>
      </trkpt>
      <trkpt lat="47.591100996360183" lon="18.846306027844548">
        <ele>504.51400000000001</ele>
        <time>2010-02-07T00:49:13Z</time>
      </trkpt>
      <trkpt lat="47.591084986925125" lon="18.846259005367756">
        <ele>504.06999999999999</ele>
        <time>2010-02-07T00:49:15Z</time>
      </trkpt>
      <trkpt lat="47.591069983318448" lon="18.846213994547725">
        <ele>504.31099999999998</ele>
        <time>2010-02-07T00:49:17Z</time>
      </trkpt>
      <trkpt lat="47.591054979711771" lon="18.846158003434539">
        <ele>501.36200000000002</ele>
        <time>2010-02-07T00:49:20Z</time>
      </trkpt>
      <trkpt lat="47.591045005246997" lon="18.846101006492972">
        <ele>499.79599999999999</ele>
        <time>2010-02-07T00:49:23Z</time>
      </trkpt>
      <trkpt lat="47.591025978326797" lon="18.84605398401618">
        <ele>499.14600000000002</ele>
        <time>2010-02-07T00:49:26Z</time>
      </trkpt>
      <trkpt lat="47.59100804105401" lon="18.845994975417852">
        <ele>498.70499999999998</ele>
        <time>2010-02-07T00:49:29Z</time>
      </trkpt>
      <trkpt lat="47.590994965285063" lon="18.845923980697989">
        <ele>497.29300000000001</ele>
        <time>2010-02-07T00:49:32Z</time>
      </trkpt>
      <trkpt lat="47.590984990820289" lon="18.845878969877958">
        <ele>496.54500000000002</ele>
        <time>2010-02-07T00:49:34Z</time>
      </trkpt>
      <trkpt lat="47.590963030233979" lon="18.845819039270282">
        <ele>496.36200000000002</ele>
        <time>2010-02-07T00:49:37Z</time>
      </trkpt>
      <trkpt lat="47.590950960293412" lon="18.845751984044909">
        <ele>495.58999999999997</ele>
        <time>2010-02-07T00:49:40Z</time>
      </trkpt>
      <trkpt lat="47.590941991657019" lon="18.845690963789821">
        <ele>494.072</ele>
        <time>2010-02-07T00:49:43Z</time>
      </trkpt>
      <trkpt lat="47.590931011363864" lon="18.845632961019874">
        <ele>493.584</ele>
        <time>2010-02-07T00:49:46Z</time>
      </trkpt>
      <trkpt lat="47.590921958908439" lon="18.845585016533732">
        <ele>492.00999999999999</ele>
        <time>2010-02-07T00:49:48Z</time>
      </trkpt>
      <trkpt lat="47.590915001928806" lon="18.845540005713701">
        <ele>491.53800000000001</ele>
        <time>2010-02-07T00:49:50Z</time>
      </trkpt>
      <trkpt lat="47.590911984443665" lon="18.845477979630232">
        <ele>490.94799999999998</ele>
        <time>2010-02-07T00:49:52Z</time>
      </trkpt>
      <trkpt lat="47.590918019413948" lon="18.845394998788834">
        <ele>489.29500000000002</ele>
        <time>2010-02-07T00:49:55Z</time>
      </trkpt>
      <trkpt lat="47.590918019413948" lon="18.845334984362125">
        <ele>488.99299999999999</ele>
        <time>2010-02-07T00:49:57Z</time>
      </trkpt>
      <trkpt lat="47.590903015807271" lon="18.84527999907732">
        <ele>488.798</ele>
        <time>2010-02-07T00:49:59Z</time>
      </trkpt>
      <trkpt lat="47.590893041342497" lon="18.845229037106037">
        <ele>488.00900000000001</ele>
        <time>2010-02-07T00:50:01Z</time>
      </trkpt>
      <trkpt lat="47.59087803773582" lon="18.84517103433609">
        <ele>488.10199999999998</ele>
        <time>2010-02-07T00:50:03Z</time>
      </trkpt>
      <trkpt lat="47.590870996937156" lon="18.845105990767479">
        <ele>488.03100000000001</ele>
        <time>2010-02-07T00:50:05Z</time>
      </trkpt>
      <trkpt lat="47.590864039957523" lon="18.8450220040977">
        <ele>487.755</ele>
        <time>2010-02-07T00:50:08Z</time>
      </trkpt>
      <trkpt lat="47.590866973623633" lon="18.844956960529089">
        <ele>487.22899999999998</ele>
        <time>2010-02-07T00:50:10Z</time>
      </trkpt>
      <trkpt lat="47.590870996937156" lon="18.844899963587523">
        <ele>486.91199999999998</ele>
        <time>2010-02-07T00:50:12Z</time>
      </trkpt>
      <trkpt lat="47.590876026079059" lon="18.844841038808227">
        <ele>486.85500000000002</ele>
        <time>2010-02-07T00:50:14Z</time>
      </trkpt>
      <trkpt lat="47.59088097140193" lon="18.84478596970439">
        <ele>486.15800000000002</ele>
        <time>2010-02-07T00:50:16Z</time>
      </trkpt>
      <trkpt lat="47.59087803773582" lon="18.844715980812907">
        <ele>485.18700000000001</ele>
        <time>2010-02-07T00:50:18Z</time>
      </trkpt>
      <trkpt lat="47.590868985280395" lon="18.844645991921425">
        <ele>484.97500000000002</ele>
        <time>2010-02-07T00:50:20Z</time>
      </trkpt>
      <trkpt lat="47.590853981673717" lon="18.844586983323097">
        <ele>483.57999999999998</ele>
        <time>2010-02-07T00:50:22Z</time>
      </trkpt>
      <trkpt lat="47.590823974460363" lon="18.844540966674685">
        <ele>484.41300000000001</ele>
        <time>2010-02-07T00:50:24Z</time>
      </trkpt>
      <trkpt lat="47.590781981125474" lon="18.844512971118093">
        <ele>483.34699999999998</ele>
        <time>2010-02-07T00:50:26Z</time>
      </trkpt>
      <trkpt lat="47.590738981962204" lon="18.844487993046641">
        <ele>483.298</ele>
        <time>2010-02-07T00:50:28Z</time>
      </trkpt>
      <trkpt lat="47.590701011940837" lon="18.844491010531783">
        <ele>482.59300000000002</ele>
        <time>2010-02-07T00:50:30Z</time>
      </trkpt>
      <trkpt lat="47.590659018605947" lon="18.844496039673686">
        <ele>481.71699999999998</ele>
        <time>2010-02-07T00:50:32Z</time>
      </trkpt>
      <trkpt lat="47.590615013614297" lon="18.84450601413846">
        <ele>481.26999999999998</ele>
        <time>2010-02-07T00:50:35Z</time>
      </trkpt>
      <trkpt lat="47.590564973652363" lon="18.844512971118093">
        <ele>481.19900000000001</ele>
        <time>2010-02-07T00:50:38Z</time>
      </trkpt>
      <trkpt lat="47.590512000024319" lon="18.844520011916757">
        <ele>479.48200000000003</ele>
        <time>2010-02-07T00:50:41Z</time>
      </trkpt>
      <trkpt lat="47.590461038053036" lon="18.844521017745137">
        <ele>478.80399999999997</ele>
        <time>2010-02-07T00:50:44Z</time>
      </trkpt>
      <trkpt lat="47.590417033061385" lon="18.844525963068008">
        <ele>478.23500000000001</ele>
        <time>2010-02-07T00:50:46Z</time>
      </trkpt>
      <trkpt lat="47.590369004756212" lon="18.844529986381531">
        <ele>478.58199999999999</ele>
        <time>2010-02-07T00:50:48Z</time>
      </trkpt>
      <trkpt lat="47.5903229881078" lon="18.844538033008575">
        <ele>478.07900000000001</ele>
        <time>2010-02-07T00:50:50Z</time>
      </trkpt>
      <trkpt lat="47.590274037793279" lon="18.844552030786872">
        <ele>477.87200000000001</ele>
        <time>2010-02-07T00:50:52Z</time>
      </trkpt>
      <trkpt lat="47.59023598395288" lon="18.84457197971642">
        <ele>478.38099999999997</ele>
        <time>2010-02-07T00:50:54Z</time>
      </trkpt>
      <trkpt lat="47.590199019759893" lon="18.844585977494717">
        <ele>478.036</ele>
        <time>2010-02-07T00:50:56Z</time>
      </trkpt>
      <trkpt lat="47.590157026425004" lon="18.844606010243297">
        <ele>477.91500000000002</ele>
        <time>2010-02-07T00:50:58Z</time>
      </trkpt>
      <trkpt lat="47.590110003948212" lon="18.844631994143128">
        <ele>477.04500000000002</ele>
        <time>2010-02-07T00:51:00Z</time>
      </trkpt>
      <trkpt lat="47.590056024491787" lon="18.844649009406567">
        <ele>476.33999999999997</ele>
        <time>2010-02-07T00:51:03Z</time>
      </trkpt>
      <trkpt lat="47.590006990358233" lon="18.844649009406567">
        <ele>475.041</ele>
        <time>2010-02-07T00:51:06Z</time>
      </trkpt>
      <trkpt lat="47.589963991194963" lon="18.84463501162827">
        <ele>474.065</ele>
        <time>2010-02-07T00:51:08Z</time>
      </trkpt>
      <trkpt lat="47.589902970939875" lon="18.844632999971509">
        <ele>473.49400000000003</ele>
        <time>2010-02-07T00:51:10Z</time>
      </trkpt>
      <trkpt lat="47.589859971776605" lon="18.844622019678354">
        <ele>473.81400000000002</ele>
        <time>2010-02-07T00:51:12Z</time>
      </trkpt>
      <trkpt lat="47.589798029512167" lon="18.844617996364832">
        <ele>473.584</ele>
        <time>2010-02-07T00:51:15Z</time>
      </trkpt>
      <trkpt lat="47.589753018692136" lon="18.844597041606903">
        <ele>472.51999999999998</ele>
        <time>2010-02-07T00:51:17Z</time>
      </trkpt>
      <trkpt lat="47.589704990386963" lon="18.844578014686704">
        <ele>472.01900000000001</ele>
        <time>2010-02-07T00:51:19Z</time>
      </trkpt>
      <trkpt lat="47.589666014537215" lon="18.84456804022193">
        <ele>472.17099999999999</ele>
        <time>2010-02-07T00:51:21Z</time>
      </trkpt>
      <trkpt lat="47.589627038687468" lon="18.844545995816588">
        <ele>470.726</ele>
        <time>2010-02-07T00:51:23Z</time>
      </trkpt>
      <trkpt lat="47.589588984847069" lon="18.844513976946473">
        <ele>469.94900000000001</ele>
        <time>2010-02-07T00:51:25Z</time>
      </trkpt>
      <trkpt lat="47.589541962370276" lon="18.8444849755615">
        <ele>470.37900000000002</ele>
        <time>2010-02-07T00:51:27Z</time>
      </trkpt>
      <trkpt lat="47.589492006227374" lon="18.84446301497519">
        <ele>469.88099999999997</ele>
        <time>2010-02-07T00:51:29Z</time>
      </trkpt>
      <trkpt lat="47.589453030377626" lon="18.844452034682035">
        <ele>468.911</ele>
        <time>2010-02-07T00:51:31Z</time>
      </trkpt>
      <trkpt lat="47.589350016787648" lon="18.844409035518765">
        <ele>469.22300000000001</ele>
        <time>2010-02-07T00:51:35Z</time>
      </trkpt>
      <trkpt lat="47.589282961562276" lon="18.844382967799902">
        <ele>469.81299999999999</ele>
        <time>2010-02-07T00:51:38Z</time>
      </trkpt>
      <trkpt lat="47.589240968227386" lon="18.844361007213593">
        <ele>469.03399999999999</ele>
        <time>2010-02-07T00:51:40Z</time>
      </trkpt>
      <trkpt lat="47.589202998206019" lon="18.844332005828619">
        <ele>469.18200000000002</ele>
        <time>2010-02-07T00:51:42Z</time>
      </trkpt>
      <trkpt lat="47.589164022356272" lon="18.8443139847368">
        <ele>468.80000000000001</ele>
        <time>2010-02-07T00:51:44Z</time>
      </trkpt>
      <trkpt lat="47.589123034849763" lon="18.844299986958504">
        <ele>469.60899999999998</ele>
        <time>2010-02-07T00:51:46Z</time>
      </trkpt>
      <trkpt lat="47.589076012372971" lon="18.844292024150491">
        <ele>468.69299999999998</ele>
        <time>2010-02-07T00:51:48Z</time>
      </trkpt>
      <trkpt lat="47.589037036523223" lon="18.844267968088388">
        <ele>467.97199999999998</ele>
        <time>2010-02-07T00:51:50Z</time>
      </trkpt>
      <trkpt lat="47.588994037359953" lon="18.844250030815601">
        <ele>467.601</ele>
        <time>2010-02-07T00:51:53Z</time>
      </trkpt>
      <trkpt lat="47.588938968256116" lon="18.844213988631964">
        <ele>468.79700000000003</ele>
        <time>2010-02-07T00:51:56Z</time>
      </trkpt>
      <trkpt lat="47.588891023769975" lon="18.844188004732132">
        <ele>468.94299999999998</ele>
        <time>2010-02-07T00:51:58Z</time>
      </trkpt>
      <trkpt lat="47.588850958272815" lon="18.844159003347158">
        <ele>468.815</ele>
        <time>2010-02-07T00:52:00Z</time>
      </trkpt>
      <trkpt lat="47.588816005736589" lon="18.844122961163521">
        <ele>468.41899999999998</ele>
        <time>2010-02-07T00:52:02Z</time>
      </trkpt>
      <trkpt lat="47.588785998523235" lon="18.844067975878716">
        <ele>468.101</ele>
        <time>2010-02-07T00:52:04Z</time>
      </trkpt>
      <trkpt lat="47.588766971603036" lon="18.844015002250671">
        <ele>467.84500000000003</ele>
        <time>2010-02-07T00:52:06Z</time>
      </trkpt>
      <trkpt lat="47.588750040158629" lon="18.843962028622627">
        <ele>467.63999999999999</ele>
        <time>2010-02-07T00:52:08Z</time>
      </trkpt>
      <trkpt lat="47.588721960783005" lon="18.843905031681061">
        <ele>468.07100000000003</ele>
        <time>2010-02-07T00:52:10Z</time>
      </trkpt>
      <trkpt lat="47.588693965226412" lon="18.843843005597591">
        <ele>468</ele>
        <time>2010-02-07T00:52:12Z</time>
      </trkpt>
      <trkpt lat="47.58866798132658" lon="18.843790031969547">
        <ele>467.86200000000002</ele>
        <time>2010-02-07T00:52:14Z</time>
      </trkpt>
      <trkpt lat="47.588648032397032" lon="18.843752983957529">
        <ele>468.45800000000003</ele>
        <time>2010-02-07T00:52:16Z</time>
      </trkpt>
      <trkpt lat="47.588631017133594" lon="18.843720965087414">
        <ele>468.84500000000003</ele>
        <time>2010-02-07T00:52:18Z</time>
      </trkpt>
      <trkpt lat="47.588612996041775" lon="18.843684000894427">
        <ele>468.92200000000003</ele>
        <time>2010-02-07T00:52:20Z</time>
      </trkpt>
      <trkpt lat="47.588595980778337" lon="18.843642007559538">
        <ele>469.00599999999997</ele>
        <time>2010-02-07T00:52:22Z</time>
      </trkpt>
      <trkpt lat="47.588579971343279" lon="18.843587022274733">
        <ele>469.30000000000001</ele>
        <time>2010-02-07T00:52:24Z</time>
      </trkpt>
      <trkpt lat="47.588571002706885" lon="18.843532036989927">
        <ele>468.89800000000002</ele>
        <time>2010-02-07T00:52:26Z</time>
      </trkpt>
      <trkpt lat="47.588563961908221" lon="18.843475040048361">
        <ele>468.62599999999998</ele>
        <time>2010-02-07T00:52:28Z</time>
      </trkpt>
      <trkpt lat="47.588558010756969" lon="18.843412008136511">
        <ele>467.61399999999998</ele>
        <time>2010-02-07T00:52:30Z</time>
      </trkpt>
      <trkpt lat="47.588549964129925" lon="18.843348976224661">
        <ele>467.66000000000003</ele>
        <time>2010-02-07T00:52:32Z</time>
      </trkpt>
      <trkpt lat="47.588544012978673" lon="18.843284016475081">
        <ele>468.02199999999999</ele>
        <time>2010-02-07T00:52:34Z</time>
      </trkpt>
      <trkpt lat="47.588537978008389" lon="18.84321897290647">
        <ele>467.464</ele>
        <time>2010-02-07T00:52:36Z</time>
      </trkpt>
      <trkpt lat="47.588537978008389" lon="18.84315300732851">
        <ele>467.47800000000001</ele>
        <time>2010-02-07T00:52:38Z</time>
      </trkpt>
      <trkpt lat="47.588537978008389" lon="18.84308997541666">
        <ele>467.38099999999997</ele>
        <time>2010-02-07T00:52:40Z</time>
      </trkpt>
      <trkpt lat="47.588534038513899" lon="18.8430240098387">
        <ele>467.68000000000001</ele>
        <time>2010-02-07T00:52:42Z</time>
      </trkpt>
      <trkpt lat="47.588531021028757" lon="18.842963995411992">
        <ele>467.39299999999997</ele>
        <time>2010-02-07T00:52:44Z</time>
      </trkpt>
      <trkpt lat="47.588530015200377" lon="18.842904986813664">
        <ele>467.58800000000002</ele>
        <time>2010-02-07T00:52:46Z</time>
      </trkpt>
      <trkpt lat="47.588532026857138" lon="18.842843966558576">
        <ele>467.87799999999999</ele>
        <time>2010-02-07T00:52:48Z</time>
      </trkpt>
      <trkpt lat="47.588536972180009" lon="18.84278797544539">
        <ele>467.50900000000001</ele>
        <time>2010-02-07T00:52:50Z</time>
      </trkpt>
      <trkpt lat="47.588543007150292" lon="18.842729972675443">
        <ele>467.38600000000002</ele>
        <time>2010-02-07T00:52:52Z</time>
      </trkpt>
      <trkpt lat="47.588546024635434" lon="18.842667024582624">
        <ele>467.29500000000002</ele>
        <time>2010-02-07T00:52:54Z</time>
      </trkpt>
      <trkpt lat="47.588549964129925" lon="18.842606004327536">
        <ele>467.05000000000001</ele>
        <time>2010-02-07T00:52:56Z</time>
      </trkpt>
      <trkpt lat="47.588548958301544" lon="18.842548001557589">
        <ele>466.93599999999998</ele>
        <time>2010-02-07T00:52:58Z</time>
      </trkpt>
      <trkpt lat="47.588536972180009" lon="18.842488992959261">
        <ele>467.221</ele>
        <time>2010-02-07T00:53:00Z</time>
      </trkpt>
      <trkpt lat="47.588520962744951" lon="18.842436019331217">
        <ele>466.91300000000001</ele>
        <time>2010-02-07T00:53:02Z</time>
      </trkpt>
      <trkpt lat="47.588506964966655" lon="18.842384973540902">
        <ele>466.608</ele>
        <time>2010-02-07T00:53:04Z</time>
      </trkpt>
      <trkpt lat="47.588480981066823" lon="18.842323031276464">
        <ele>467.495</ele>
        <time>2010-02-07T00:53:06Z</time>
      </trkpt>
      <trkpt lat="47.588459020480514" lon="18.842270979657769">
        <ele>466.90899999999999</ele>
        <time>2010-02-07T00:53:08Z</time>
      </trkpt>
      <trkpt lat="47.588449968025088" lon="18.842224041000009">
        <ele>466.64999999999998</ele>
        <time>2010-02-07T00:53:10Z</time>
      </trkpt>
      <trkpt lat="47.588445022702217" lon="18.842160003259778">
        <ele>467.61500000000001</ele>
        <time>2010-02-07T00:53:13Z</time>
      </trkpt>
      <trkpt lat="47.588431024923921" lon="18.842119015753269">
        <ele>467.29599999999999</ele>
        <time>2010-02-07T00:53:16Z</time>
      </trkpt>
      <trkpt lat="47.588407974690199" lon="18.842071993276477">
        <ele>467.608</ele>
        <time>2010-02-07T00:53:19Z</time>
      </trkpt>
      <trkpt lat="47.588390037417412" lon="18.842023964971304">
        <ele>467.45800000000003</ele>
        <time>2010-02-07T00:53:22Z</time>
      </trkpt>
      <trkpt lat="47.588362041860819" lon="18.841974008828402">
        <ele>467.17000000000002</ele>
        <time>2010-02-07T00:53:25Z</time>
      </trkpt>
      <trkpt lat="47.588347960263491" lon="18.841922041028738">
        <ele>468.05200000000002</ele>
        <time>2010-02-07T00:53:28Z</time>
      </trkpt>
      <trkpt lat="47.588329017162323" lon="18.84186496026814">
        <ele>467.47899999999998</ele>
        <time>2010-02-07T00:53:32Z</time>
      </trkpt>
      <trkpt lat="47.588295992463827" lon="18.84181902743876">
        <ele>467.69900000000001</ele>
        <time>2010-02-07T00:53:36Z</time>
      </trkpt>
      <trkpt lat="47.588276965543628" lon="18.841769993305206">
        <ele>467.55500000000001</ele>
        <time>2010-02-07T00:53:44Z</time>
      </trkpt>
      <trkpt lat="47.588214017450809" lon="18.841708973050117">
        <ele>466.86399999999998</ele>
        <time>2010-02-07T00:54:04Z</time>
      </trkpt>
      <trkpt lat="47.588146962225437" lon="18.841616017743945">
        <ele>466.88</ele>
        <time>2010-02-07T00:55:19Z</time>
      </trkpt>
      <trkpt lat="47.588156014680862" lon="18.841576036065817">
        <ele>467.56400000000002</ele>
        <time>2010-02-07T00:55:24Z</time>
      </trkpt>
      <trkpt lat="47.588149979710579" lon="18.841532031074166">
        <ele>467.45600000000002</ele>
        <time>2010-02-07T00:55:27Z</time>
      </trkpt>
      <trkpt lat="47.588141011074185" lon="18.841479979455471">
        <ele>468.137</ele>
        <time>2010-02-07T00:55:31Z</time>
      </trkpt>
      <trkpt lat="47.588132964447141" lon="18.841423988342285">
        <ele>467.88099999999997</ele>
        <time>2010-02-07T00:55:35Z</time>
      </trkpt>
      <trkpt lat="47.588128019124269" lon="18.841377971693873">
        <ele>468.447</ele>
        <time>2010-02-07T00:55:38Z</time>
      </trkpt>
      <trkpt lat="47.588117960840464" lon="18.841331033036113">
        <ele>468.93299999999999</ele>
        <time>2010-02-07T00:55:41Z</time>
      </trkpt>
      <trkpt lat="47.588109998032451" lon="18.841286022216082">
        <ele>469.08499999999998</ele>
        <time>2010-02-07T00:55:44Z</time>
      </trkpt>
      <trkpt lat="47.588093988597393" lon="18.84124000556767">
        <ele>469.61200000000002</ele>
        <time>2010-02-07T00:55:47Z</time>
      </trkpt>
      <trkpt lat="47.588080996647477" lon="18.8411970064044">
        <ele>469.72699999999998</ele>
        <time>2010-02-07T00:55:50Z</time>
      </trkpt>
      <trkpt lat="47.588058030232787" lon="18.84115501306951">
        <ele>470.15100000000001</ele>
        <time>2010-02-07T00:55:53Z</time>
      </trkpt>
      <trkpt lat="47.588034979999065" lon="18.841115031391382">
        <ele>470.43400000000003</ele>
        <time>2010-02-07T00:55:56Z</time>
      </trkpt>
      <trkpt lat="47.588010001927614" lon="18.841075971722603">
        <ele>470.79199999999997</ele>
        <time>2010-02-07T00:55:59Z</time>
      </trkpt>
      <trkpt lat="47.587977983057499" lon="18.841021992266178">
        <ele>470.298</ele>
        <time>2010-02-07T00:56:02Z</time>
      </trkpt>
      <trkpt lat="47.587946970015764" lon="18.840973963961005">
        <ele>470.62099999999998</ele>
        <time>2010-02-07T00:56:05Z</time>
      </trkpt>
      <trkpt lat="47.587917968630791" lon="18.84094001725316">
        <ele>470.50900000000001</ele>
        <time>2010-02-07T00:56:08Z</time>
      </trkpt>
      <trkpt lat="47.587890978902578" lon="18.84089601226151">
        <ele>470.57999999999998</ele>
        <time>2010-02-07T00:56:11Z</time>
      </trkpt>
      <trkpt lat="47.58787002414465" lon="18.840852007269859">
        <ele>470.46699999999998</ele>
        <time>2010-02-07T00:56:14Z</time>
      </trkpt>
      <trkpt lat="47.587843034416437" lon="18.840805990621448">
        <ele>470.48200000000003</ele>
        <time>2010-02-07T00:56:17Z</time>
      </trkpt>
      <trkpt lat="47.587819984182715" lon="18.840756034478545">
        <ele>470.03699999999998</ele>
        <time>2010-02-07T00:56:20Z</time>
      </trkpt>
      <trkpt lat="47.587805986404419" lon="18.840707000344992">
        <ele>470.113</ele>
        <time>2010-02-07T00:56:22Z</time>
      </trkpt>
      <trkpt lat="47.587797017768025" lon="18.840646985918283">
        <ele>470.02999999999997</ele>
        <time>2010-02-07T00:56:24Z</time>
      </trkpt>
      <trkpt lat="47.587786037474871" lon="18.840599041432142">
        <ele>469.57600000000002</ele>
        <time>2010-02-07T00:56:26Z</time>
      </trkpt>
      <trkpt lat="47.587770028039813" lon="18.840542966499925">
        <ele>468.90600000000001</ele>
        <time>2010-02-07T00:56:28Z</time>
      </trkpt>
      <trkpt lat="47.587756030261517" lon="18.840472977608442">
        <ele>468.93700000000001</ele>
        <time>2010-02-07T00:56:30Z</time>
      </trkpt>
      <trkpt lat="47.587743038311601" lon="18.840405000373721">
        <ele>468.41899999999998</ele>
        <time>2010-02-07T00:56:32Z</time>
      </trkpt>
      <trkpt lat="47.587734991684556" lon="18.840342974290252">
        <ele>469.16800000000001</ele>
        <time>2010-02-07T00:56:34Z</time>
      </trkpt>
      <trkpt lat="47.587718982249498" lon="18.840276002883911">
        <ele>468.65199999999999</ele>
        <time>2010-02-07T00:56:36Z</time>
      </trkpt>
      <trkpt lat="47.587709007784724" lon="18.840210037305951">
        <ele>468.35599999999999</ele>
        <time>2010-02-07T00:56:38Z</time>
      </trkpt>
      <trkpt lat="47.587705990299582" lon="18.840138036757708">
        <ele>468.49099999999999</ele>
        <time>2010-02-07T00:56:40Z</time>
      </trkpt>
      <trkpt lat="47.587700039148331" lon="18.840065030381083">
        <ele>468.51600000000002</ele>
        <time>2010-02-07T00:56:42Z</time>
      </trkpt>
      <trkpt lat="47.587690986692905" lon="18.840005015954375">
        <ele>467.13</ele>
        <time>2010-02-07T00:56:44Z</time>
      </trkpt>
      <trkpt lat="47.587672965601087" lon="18.839941984042525">
        <ele>467.38499999999999</ele>
        <time>2010-02-07T00:56:46Z</time>
      </trkpt>
      <trkpt lat="47.587668020278215" lon="18.839871995151043">
        <ele>467.27800000000002</ele>
        <time>2010-02-07T00:56:48Z</time>
      </trkpt>
      <trkpt lat="47.587662991136312" lon="18.83980100043118">
        <ele>466.06099999999998</ele>
        <time>2010-02-07T00:56:50Z</time>
      </trkpt>
      <trkpt lat="47.58765603415668" lon="18.839726988226175">
        <ele>466.447</ele>
        <time>2010-02-07T00:56:52Z</time>
      </trkpt>
      <trkpt lat="47.587653016671538" lon="18.839654987677932">
        <ele>465.87299999999999</ele>
        <time>2010-02-07T00:56:54Z</time>
      </trkpt>
      <trkpt lat="47.587643964216113" lon="18.839581981301308">
        <ele>466.04399999999998</ele>
        <time>2010-02-07T00:56:56Z</time>
      </trkpt>
      <trkpt lat="47.587631978094578" lon="18.83952003903687">
        <ele>465.99900000000002</ele>
        <time>2010-02-07T00:56:58Z</time>
      </trkpt>
      <trkpt lat="47.587624015286565" lon="18.839453989639878">
        <ele>466.44799999999998</ele>
        <time>2010-02-07T00:57:00Z</time>
      </trkpt>
      <trkpt lat="47.587629966437817" lon="18.839391963556409">
        <ele>465.923</ele>
        <time>2010-02-07T00:57:02Z</time>
      </trkpt>
      <trkpt lat="47.587629966437817" lon="18.839329015463591">
        <ele>465.69299999999998</ele>
        <time>2010-02-07T00:57:04Z</time>
      </trkpt>
      <trkpt lat="47.587646981701255" lon="18.839272018522024">
        <ele>466.14499999999998</ele>
        <time>2010-02-07T00:57:06Z</time>
      </trkpt>
      <trkpt lat="47.587671037763357" lon="18.839219966903329">
        <ele>465.89800000000002</ele>
        <time>2010-02-07T00:57:08Z</time>
      </trkpt>
      <trkpt lat="47.587686041370034" lon="18.839167999103665">
        <ele>465.94400000000002</ele>
        <time>2010-02-07T00:57:10Z</time>
      </trkpt>
      <trkpt lat="47.587713031098247" lon="18.839103961363435">
        <ele>465.82999999999998</ele>
        <time>2010-02-07T00:57:12Z</time>
      </trkpt>
      <trkpt lat="47.587733985856175" lon="18.83904998190701">
        <ele>466.08800000000002</ele>
        <time>2010-02-07T00:57:14Z</time>
      </trkpt>
      <trkpt lat="47.587754018604755" lon="18.838997008278966">
        <ele>465.98200000000003</ele>
        <time>2010-02-07T00:57:16Z</time>
      </trkpt>
      <trkpt lat="47.587768016383052" lon="18.838950991630554">
        <ele>465.82799999999997</ele>
        <time>2010-02-07T00:57:18Z</time>
      </trkpt>
      <trkpt lat="47.58778503164649" lon="18.838903969153762">
        <ele>465.334</ele>
        <time>2010-02-07T00:57:20Z</time>
      </trkpt>
      <trkpt lat="47.587802968919277" lon="18.838852001354098">
        <ele>465.89299999999997</ele>
        <time>2010-02-07T00:57:22Z</time>
      </trkpt>
      <trkpt lat="47.587816966697574" lon="18.838809002190828">
        <ele>465.17099999999999</ele>
        <time>2010-02-07T00:57:24Z</time>
      </trkpt>
      <trkpt lat="47.587843034416437" lon="18.838742030784488">
        <ele>465.82900000000001</ele>
        <time>2010-02-07T00:57:27Z</time>
      </trkpt>
      <trkpt lat="47.587864995002747" lon="18.838672963902354">
        <ele>466.447</ele>
        <time>2010-02-07T00:57:30Z</time>
      </trkpt>
      <trkpt lat="47.58787102997303" lon="18.838611021637917">
        <ele>466.28399999999999</ele>
        <time>2010-02-07T00:57:33Z</time>
      </trkpt>
      <trkpt lat="47.587885027751327" lon="18.838542038574815">
        <ele>466.63499999999999</ele>
        <time>2010-02-07T00:57:36Z</time>
      </trkpt>
      <trkpt lat="47.587901959195733" lon="18.838474983349442">
        <ele>467.28899999999999</ele>
        <time>2010-02-07T00:57:39Z</time>
      </trkpt>
      <trkpt lat="47.587925009429455" lon="18.838431984186172">
        <ele>467.21899999999999</ele>
        <time>2010-02-07T00:57:41Z</time>
      </trkpt>
      <trkpt lat="47.587944958359003" lon="18.838385967537761">
        <ele>467.27699999999999</ele>
        <time>2010-02-07T00:57:43Z</time>
      </trkpt>
      <trkpt lat="47.587963985279202" lon="18.838342968374491">
        <ele>467.22899999999998</ele>
        <time>2010-02-07T00:57:45Z</time>
      </trkpt>
      <trkpt lat="47.587983012199402" lon="18.838303992524743">
        <ele>467.58499999999998</ele>
        <time>2010-02-07T00:57:47Z</time>
      </trkpt>
      <trkpt lat="47.588001033291221" lon="18.838263005018234">
        <ele>467.25400000000002</ele>
        <time>2010-02-07T00:57:49Z</time>
      </trkpt>
      <trkpt lat="47.588018970564008" lon="18.838223023340106">
        <ele>467.75400000000002</ele>
        <time>2010-02-07T00:57:51Z</time>
      </trkpt>
      <trkpt lat="47.588035985827446" lon="18.838184969499707">
        <ele>467.35199999999998</ele>
        <time>2010-02-07T00:57:53Z</time>
      </trkpt>
      <trkpt lat="47.588053001090884" lon="18.83814699947834">
        <ele>467.52699999999999</ele>
        <time>2010-02-07T00:57:55Z</time>
      </trkpt>
      <trkpt lat="47.588076973333955" lon="18.838091008365154">
        <ele>468.09199999999998</ele>
        <time>2010-02-07T00:57:58Z</time>
      </trkpt>
      <trkpt lat="47.588097006082535" lon="18.838033005595207">
        <ele>468.596</ele>
        <time>2010-02-07T00:58:01Z</time>
      </trkpt>
      <trkpt lat="47.588119972497225" lon="18.837981959804893">
        <ele>469.59300000000002</ele>
        <time>2010-02-07T00:58:04Z</time>
      </trkpt>
      <trkpt lat="47.588145034387708" lon="18.837928986176848">
        <ele>469.81099999999998</ele>
        <time>2010-02-07T00:58:07Z</time>
      </trkpt>
      <trkpt lat="47.588166994974017" lon="18.837874000892043">
        <ele>470.29399999999998</ele>
        <time>2010-02-07T00:58:10Z</time>
      </trkpt>
      <trkpt lat="47.588185016065836" lon="18.837836030870676">
        <ele>470.58100000000002</ele>
        <time>2010-02-07T00:58:12Z</time>
      </trkpt>
      <trkpt lat="47.588203037157655" lon="18.837795965373516">
        <ele>470.34399999999999</ele>
        <time>2010-02-07T00:58:14Z</time>
      </trkpt>
      <trkpt lat="47.588222986087203" lon="18.837757995352149">
        <ele>470.56799999999998</ele>
        <time>2010-02-07T00:58:16Z</time>
      </trkpt>
      <trkpt lat="47.588240001350641" lon="18.837719019502401">
        <ele>471.03800000000001</ele>
        <time>2010-02-07T00:58:18Z</time>
      </trkpt>
      <trkpt lat="47.588261039927602" lon="18.837681971490383">
        <ele>471.49599999999998</ele>
        <time>2010-02-07T00:58:20Z</time>
      </trkpt>
      <trkpt lat="47.58828098885715" lon="18.837646013125777">
        <ele>471.58600000000001</ele>
        <time>2010-02-07T00:58:22Z</time>
      </trkpt>
      <trkpt lat="47.588304961100221" lon="18.83761097677052">
        <ele>471.36799999999999</ele>
        <time>2010-02-07T00:58:24Z</time>
      </trkpt>
      <trkpt lat="47.588332034647465" lon="18.837575018405914">
        <ele>471.73700000000002</ele>
        <time>2010-02-07T00:58:26Z</time>
      </trkpt>
      <trkpt lat="47.58836698718369" lon="18.837536964565516">
        <ele>471.32100000000003</ele>
        <time>2010-02-07T00:58:28Z</time>
      </trkpt>
      <trkpt lat="47.588402023538947" lon="18.837500000372529">
        <ele>470.904</ele>
        <time>2010-02-07T00:58:30Z</time>
      </trkpt>
      <trkpt lat="47.588435970246792" lon="18.837466975674033">
        <ele>470.83600000000001</ele>
        <time>2010-02-07T00:58:32Z</time>
      </trkpt>
      <trkpt lat="47.588471006602049" lon="18.837429005652666">
        <ele>470.60199999999998</ele>
        <time>2010-02-07T00:58:34Z</time>
      </trkpt>
      <trkpt lat="47.588501013815403" lon="18.837385000661016">
        <ele>471.20800000000003</ele>
        <time>2010-02-07T00:58:36Z</time>
      </trkpt>
      <trkpt lat="47.588529009371996" lon="18.83733001537621">
        <ele>469.72899999999998</ele>
        <time>2010-02-07T00:58:38Z</time>
      </trkpt>
      <trkpt lat="47.588551975786686" lon="18.837271006777883">
        <ele>469.40100000000001</ele>
        <time>2010-02-07T00:58:40Z</time>
      </trkpt>
      <trkpt lat="47.588577959686518" lon="18.837210992351174">
        <ele>469.44799999999998</ele>
        <time>2010-02-07T00:58:42Z</time>
      </trkpt>
      <trkpt lat="47.588594974949956" lon="18.837146032601595">
        <ele>468.83199999999999</ele>
        <time>2010-02-07T00:58:44Z</time>
      </trkpt>
      <trkpt lat="47.588607966899872" lon="18.837076965719461">
        <ele>468.87799999999999</ele>
        <time>2010-02-07T00:58:46Z</time>
      </trkpt>
      <trkpt lat="47.588618025183678" lon="18.837013011798263">
        <ele>468.55200000000002</ele>
        <time>2010-02-07T00:58:48Z</time>
      </trkpt>
      <trkpt lat="47.588620036840439" lon="18.836950985714793">
        <ele>468.92200000000003</ele>
        <time>2010-02-07T00:58:50Z</time>
      </trkpt>
      <trkpt lat="47.588616013526917" lon="18.836888037621975">
        <ele>468.57799999999997</ele>
        <time>2010-02-07T00:58:52Z</time>
      </trkpt>
      <trkpt lat="47.588621964678168" lon="18.836826011538506">
        <ele>468.55500000000001</ele>
        <time>2010-02-07T00:58:54Z</time>
      </trkpt>
      <trkpt lat="47.588633028790355" lon="18.83677395991981">
        <ele>467.86000000000001</ele>
        <time>2010-02-07T00:58:56Z</time>
      </trkpt>
      <trkpt lat="47.588637974113226" lon="18.836724003776908">
        <ele>467.94900000000001</ele>
        <time>2010-02-07T00:58:58Z</time>
      </trkpt>
      <trkpt lat="47.588649960234761" lon="18.836674969643354">
        <ele>467.09800000000001</ele>
        <time>2010-02-07T00:59:00Z</time>
      </trkpt>
      <trkpt lat="47.588658006861806" lon="18.836623001843691">
        <ele>467.08999999999997</ele>
        <time>2010-02-07T00:59:02Z</time>
      </trkpt>
      <trkpt lat="47.588666975498199" lon="18.836573967710137">
        <ele>467.94900000000001</ele>
        <time>2010-02-07T00:59:04Z</time>
      </trkpt>
      <trkpt lat="47.588678961619735" lon="18.836529040709138">
        <ele>467.56099999999998</ele>
        <time>2010-02-07T00:59:06Z</time>
      </trkpt>
      <trkpt lat="47.588690025731921" lon="18.836487969383597">
        <ele>468.298</ele>
        <time>2010-02-07T00:59:08Z</time>
      </trkpt>
      <trkpt lat="47.588706035166979" lon="18.836443964391947">
        <ele>468.07600000000002</ele>
        <time>2010-02-07T00:59:10Z</time>
      </trkpt>
      <trkpt lat="47.588721038773656" lon="18.836401971057057">
        <ele>469.16500000000002</ele>
        <time>2010-02-07T00:59:12Z</time>
      </trkpt>
      <trkpt lat="47.588738976046443" lon="18.836360983550549">
        <ele>467.83100000000002</ele>
        <time>2010-02-07T00:59:14Z</time>
      </trkpt>
      <trkpt lat="47.588760014623404" lon="18.836325025185943">
        <ele>467.80099999999999</ele>
        <time>2010-02-07T00:59:16Z</time>
      </trkpt>
      <trkpt lat="47.588780969381332" lon="18.836288983002305">
        <ele>468.15100000000001</ele>
        <time>2010-02-07T00:59:18Z</time>
      </trkpt>
      <trkpt lat="47.588801002129912" lon="18.836252018809319">
        <ele>468.23200000000003</ele>
        <time>2010-02-07T00:59:20Z</time>
      </trkpt>
      <trkpt lat="47.588822962716222" lon="18.836215976625681">
        <ele>468.45600000000002</ele>
        <time>2010-02-07T00:59:22Z</time>
      </trkpt>
      <trkpt lat="47.588845007121563" lon="18.836181024089456">
        <ele>468.60399999999998</ele>
        <time>2010-02-07T00:59:24Z</time>
      </trkpt>
      <trkpt lat="47.588866967707872" lon="18.836145987734199">
        <ele>469.16899999999998</ele>
        <time>2010-02-07T00:59:26Z</time>
      </trkpt>
      <trkpt lat="47.58888297714293" lon="18.836103994399309">
        <ele>469.57999999999998</ele>
        <time>2010-02-07T00:59:28Z</time>
      </trkpt>
      <trkpt lat="47.588898986577988" lon="18.836064012721181">
        <ele>469.09800000000001</ele>
        <time>2010-02-07T00:59:30Z</time>
      </trkpt>
      <trkpt lat="47.588917007669806" lon="18.836022019386292">
        <ele>469.11200000000002</ele>
        <time>2010-02-07T00:59:32Z</time>
      </trkpt>
      <trkpt lat="47.588933017104864" lon="18.83597700856626">
        <ele>469.74799999999999</ele>
        <time>2010-02-07T00:59:34Z</time>
      </trkpt>
      <trkpt lat="47.588942991569638" lon="18.835929986089468">
        <ele>469.07100000000003</ele>
        <time>2010-02-07T00:59:36Z</time>
      </trkpt>
      <trkpt lat="47.588952966034412" lon="18.835885981097817">
        <ele>469.45299999999997</ele>
        <time>2010-02-07T00:59:38Z</time>
      </trkpt>
      <trkpt lat="47.588967969641089" lon="18.835841976106167">
        <ele>470.25999999999999</ele>
        <time>2010-02-07T00:59:40Z</time>
      </trkpt>
      <trkpt lat="47.588980961591005" lon="18.835796965286136">
        <ele>470.33999999999997</ele>
        <time>2010-02-07T00:59:42Z</time>
      </trkpt>
      <trkpt lat="47.588997976854444" lon="18.835725970566273">
        <ele>470.06700000000001</ele>
        <time>2010-02-07T00:59:45Z</time>
      </trkpt>
      <trkpt lat="47.589026978239417" lon="18.835678026080132">
        <ele>469.55599999999998</ele>
        <time>2010-02-07T00:59:47Z</time>
      </trkpt>
      <trkpt lat="47.589052962139249" lon="18.835627986118197">
        <ele>470.06799999999998</ele>
        <time>2010-02-07T00:59:49Z</time>
      </trkpt>
      <trkpt lat="47.589078024029732" lon="18.835574006661773">
        <ele>470.29500000000002</ele>
        <time>2010-02-07T00:59:51Z</time>
      </trkpt>
      <trkpt lat="47.589107025414705" lon="18.835524972528219">
        <ele>469.81700000000001</ele>
        <time>2010-02-07T00:59:53Z</time>
      </trkpt>
      <trkpt lat="47.58913803845644" lon="18.835479039698839">
        <ele>469.29599999999999</ele>
        <time>2010-02-07T00:59:55Z</time>
      </trkpt>
      <trkpt lat="47.589170979335904" lon="18.835433023050427">
        <ele>468.68299999999999</ele>
        <time>2010-02-07T00:59:57Z</time>
      </trkpt>
      <trkpt lat="47.589216995984316" lon="18.835403015837073">
        <ele>467.42200000000003</ele>
        <time>2010-02-07T00:59:59Z</time>
      </trkpt>
      <trkpt lat="47.589254966005683" lon="18.835370996966958">
        <ele>466.38400000000001</ele>
        <time>2010-02-07T01:00:01Z</time>
      </trkpt>
      <trkpt lat="47.589299976825714" lon="18.835341995581985">
        <ele>466.75999999999999</ele>
        <time>2010-02-07T01:00:03Z</time>
      </trkpt>
      <trkpt lat="47.589339036494493" lon="18.835312994197011">
        <ele>465.94499999999999</ele>
        <time>2010-02-07T01:00:05Z</time>
      </trkpt>
      <trkpt lat="47.589374994859099" lon="18.835273012518883">
        <ele>466.14600000000002</ele>
        <time>2010-02-07T01:00:07Z</time>
      </trkpt>
      <trkpt lat="47.589411959052086" lon="18.835235964506865">
        <ele>465.29700000000003</ele>
        <time>2010-02-07T01:00:09Z</time>
      </trkpt>
      <trkpt lat="47.589455964043736" lon="18.835199000313878">
        <ele>465.87299999999999</ele>
        <time>2010-02-07T01:00:11Z</time>
      </trkpt>
      <trkpt lat="47.589498041197658" lon="18.835156001150608">
        <ele>466.13600000000002</ele>
        <time>2010-02-07T01:00:13Z</time>
      </trkpt>
      <trkpt lat="47.589535005390644" lon="18.835118031129241">
        <ele>465.42200000000003</ele>
        <time>2010-02-07T01:00:15Z</time>
      </trkpt>
      <trkpt lat="47.589572975412011" lon="18.83507402613759">
        <ele>465.68000000000001</ele>
        <time>2010-02-07T01:00:17Z</time>
      </trkpt>
      <trkpt lat="47.589616980403662" lon="18.835038989782333">
        <ele>465.61700000000002</ele>
        <time>2010-02-07T01:00:19Z</time>
      </trkpt>
      <trkpt lat="47.589664002880454" lon="18.835003031417727">
        <ele>464.67200000000003</ele>
        <time>2010-02-07T01:00:21Z</time>
      </trkpt>
      <trkpt lat="47.589710019528866" lon="18.834973024204373">
        <ele>463.53399999999999</ele>
        <time>2010-02-07T01:00:23Z</time>
      </trkpt>
      <trkpt lat="47.589751007035375" lon="18.834943016991019">
        <ele>463.80799999999999</ele>
        <time>2010-02-07T01:00:25Z</time>
      </trkpt>
      <trkpt lat="47.589775985106826" lon="18.834904041141272">
        <ele>462.99799999999999</ele>
        <time>2010-02-07T01:00:27Z</time>
      </trkpt>
      <trkpt lat="47.58980599232018" lon="18.834864981472492">
        <ele>462.25799999999998</ele>
        <time>2010-02-07T01:00:29Z</time>
      </trkpt>
      <trkpt lat="47.589838011190295" lon="18.834832040593028">
        <ele>462.20100000000002</ele>
        <time>2010-02-07T01:00:31Z</time>
      </trkpt>
      <trkpt lat="47.589875981211662" lon="18.834793986752629">
        <ele>461.01499999999999</ele>
        <time>2010-02-07T01:00:33Z</time>
      </trkpt>
      <trkpt lat="47.589919986203313" lon="18.83477202616632">
        <ele>458.93200000000002</ele>
        <time>2010-02-07T01:00:35Z</time>
      </trkpt>
      <trkpt lat="47.589963991194963" lon="18.834755010902882">
        <ele>458.27499999999998</ele>
        <time>2010-02-07T01:00:37Z</time>
      </trkpt>
      <trkpt lat="47.590015958994627" lon="18.834740007296205">
        <ele>457.64499999999998</ele>
        <time>2010-02-07T01:00:39Z</time>
      </trkpt>
      <trkpt lat="47.590049989521503" lon="18.834716035053134">
        <ele>456.01400000000001</ele>
        <time>2010-02-07T01:00:41Z</time>
      </trkpt>
      <trkpt lat="47.590087959542871" lon="18.834685022011399">
        <ele>455.00299999999999</ele>
        <time>2010-02-07T01:00:43Z</time>
      </trkpt>
      <trkpt lat="47.590119978412986" lon="18.834648979827762">
        <ele>454.99200000000002</ele>
        <time>2010-02-07T01:00:45Z</time>
      </trkpt>
      <trkpt lat="47.590153003111482" lon="18.834616038948298">
        <ele>454.19499999999999</ele>
        <time>2010-02-07T01:00:47Z</time>
      </trkpt>
      <trkpt lat="47.590191978961229" lon="18.834593994542956">
        <ele>454.197</ele>
        <time>2010-02-07T01:00:49Z</time>
      </trkpt>
      <trkpt lat="47.590241013094783" lon="18.834567004814744">
        <ele>452.65699999999998</ele>
        <time>2010-02-07T01:00:51Z</time>
      </trkpt>
      <trkpt lat="47.590282000601292" lon="18.834550995379686">
        <ele>451.13799999999998</ele>
        <time>2010-02-07T01:00:53Z</time>
      </trkpt>
      <trkpt lat="47.590337991714478" lon="18.834546972066164">
        <ele>451.34800000000001</ele>
        <time>2010-02-07T01:00:55Z</time>
      </trkpt>
      <trkpt lat="47.590422984212637" lon="18.834525011479855">
        <ele>451.13099999999997</ele>
        <time>2010-02-07T01:00:59Z</time>
      </trkpt>
      <trkpt lat="47.590467995032668" lon="18.834505984559655">
        <ele>449.87299999999999</ele>
        <time>2010-02-07T01:01:01Z</time>
      </trkpt>
      <trkpt lat="47.590518034994602" lon="18.834484023973346">
        <ele>448.82299999999998</ele>
        <time>2010-02-07T01:01:03Z</time>
      </trkpt>
      <trkpt lat="47.590560028329492" lon="18.83447396568954">
        <ele>447.5</ele>
        <time>2010-02-07T01:01:05Z</time>
      </trkpt>
      <trkpt lat="47.590608978644013" lon="18.834444964304566">
        <ele>446.94900000000001</ele>
        <time>2010-02-07T01:01:07Z</time>
      </trkpt>
      <trkpt lat="47.590659018605947" lon="18.834411017596722">
        <ele>446.392</ele>
        <time>2010-02-07T01:01:09Z</time>
      </trkpt>
      <trkpt lat="47.59070998057723" lon="18.834390984848142">
        <ele>445.41300000000001</ele>
        <time>2010-02-07T01:01:11Z</time>
      </trkpt>
      <trkpt lat="47.590762032195926" lon="18.834361983463168">
        <ele>445.62299999999999</ele>
        <time>2010-02-07T01:01:13Z</time>
      </trkpt>
      <trkpt lat="47.590808970853686" lon="18.834318984299898">
        <ele>446.43400000000003</ele>
        <time>2010-02-07T01:01:15Z</time>
      </trkpt>
      <trkpt lat="47.590849036350846" lon="18.834277996793389">
        <ele>445.98500000000001</ele>
        <time>2010-02-07T01:01:17Z</time>
      </trkpt>
      <trkpt lat="47.590888012200594" lon="18.834219994023442">
        <ele>444.40699999999998</ele>
        <time>2010-02-07T01:01:19Z</time>
      </trkpt>
      <trkpt lat="47.590922964736819" lon="18.834146987646818">
        <ele>444.35500000000002</ele>
        <time>2010-02-07T01:01:21Z</time>
      </trkpt>
      <trkpt lat="47.590948026627302" lon="18.834081022068858">
        <ele>444.39699999999999</ele>
        <time>2010-02-07T01:01:23Z</time>
      </trkpt>
      <trkpt lat="47.590970993041992" lon="18.83402100764215">
        <ele>444.76600000000002</ele>
        <time>2010-02-07T01:01:25Z</time>
      </trkpt>
      <trkpt lat="47.590990019962192" lon="18.833959987387061">
        <ele>444.464</ele>
        <time>2010-02-07T01:01:27Z</time>
      </trkpt>
      <trkpt lat="47.591022038832307" lon="18.833897961303592">
        <ele>443.399</ele>
        <time>2010-02-07T01:01:29Z</time>
      </trkpt>
      <trkpt lat="47.59105296805501" lon="18.833839036524296">
        <ele>444.17599999999999</ele>
        <time>2010-02-07T01:01:31Z</time>
      </trkpt>
      <trkpt lat="47.591085992753506" lon="18.833781033754349">
        <ele>442.96600000000001</ele>
        <time>2010-02-07T01:01:33Z</time>
      </trkpt>
      <trkpt lat="47.59111700579524" lon="18.833726970478892">
        <ele>443.07400000000001</ele>
        <time>2010-02-07T01:01:35Z</time>
      </trkpt>
      <trkpt lat="47.591143995523453" lon="18.833675002679229">
        <ele>443.03300000000002</ele>
        <time>2010-02-07T01:01:37Z</time>
      </trkpt>
      <trkpt lat="47.591177020221949" lon="18.833621023222804">
        <ele>442.84899999999999</ele>
        <time>2010-02-07T01:01:39Z</time>
      </trkpt>
      <trkpt lat="47.591209961101413" lon="18.833575006574392">
        <ele>442.15699999999998</ele>
        <time>2010-02-07T01:01:41Z</time>
      </trkpt>
      <trkpt lat="47.59124600328505" lon="18.833524966612458">
        <ele>443.233</ele>
        <time>2010-02-07T01:01:43Z</time>
      </trkpt>
      <trkpt lat="47.591277016326785" lon="18.833475010469556">
        <ele>442.00200000000001</ele>
        <time>2010-02-07T01:01:45Z</time>
      </trkpt>
      <trkpt lat="47.59130802936852" lon="18.833425976336002">
        <ele>442.10300000000001</ele>
        <time>2010-02-07T01:01:47Z</time>
      </trkpt>
      <trkpt lat="47.591339964419603" lon="18.833380965515971">
        <ele>441.90300000000002</ele>
        <time>2010-02-07T01:01:49Z</time>
      </trkpt>
      <trkpt lat="47.59137500077486" lon="18.833335032686591">
        <ele>441.99700000000001</ele>
        <time>2010-02-07T01:01:51Z</time>
      </trkpt>
      <trkpt lat="47.591407019644976" lon="18.833292033523321">
        <ele>441.39400000000001</ele>
        <time>2010-02-07T01:01:53Z</time>
      </trkpt>
      <trkpt lat="47.59144096635282" lon="18.833251968026161">
        <ele>441.54300000000001</ele>
        <time>2010-02-07T01:01:55Z</time>
      </trkpt>
      <trkpt lat="47.591474996879697" lon="18.833201006054878">
        <ele>440.86900000000003</ele>
        <time>2010-02-07T01:01:57Z</time>
      </trkpt>
      <trkpt lat="47.591507015749812" lon="18.833163036033511">
        <ele>440.96499999999997</ele>
        <time>2010-02-07T01:01:59Z</time>
      </trkpt>
      <trkpt lat="47.591540962457657" lon="18.833117019385099">
        <ele>440.68799999999999</ele>
        <time>2010-02-07T01:02:01Z</time>
      </trkpt>
      <trkpt lat="47.591572981327772" lon="18.833068991079926">
        <ele>440.529</ele>
        <time>2010-02-07T01:02:03Z</time>
      </trkpt>
      <trkpt lat="47.591606006026268" lon="18.833022974431515">
        <ele>440.649</ele>
        <time>2010-02-07T01:02:05Z</time>
      </trkpt>
      <trkpt lat="47.591636013239622" lon="18.832975029945374">
        <ele>440.53100000000001</ele>
        <time>2010-02-07T01:02:07Z</time>
      </trkpt>
      <trkpt lat="47.591661997139454" lon="18.832928007468581">
        <ele>440.613</ele>
        <time>2010-02-07T01:02:09Z</time>
      </trkpt>
      <trkpt lat="47.591685969382524" lon="18.832877967506647">
        <ele>440.31400000000002</ele>
        <time>2010-02-07T01:02:11Z</time>
      </trkpt>
      <trkpt lat="47.591712037101388" lon="18.832822982221842">
        <ele>440.54000000000002</ele>
        <time>2010-02-07T01:02:13Z</time>
      </trkpt>
      <trkpt lat="47.591735003516078" lon="18.832772020250559">
        <ele>440.25</ele>
        <time>2010-02-07T01:02:15Z</time>
      </trkpt>
      <trkpt lat="47.591766016557813" lon="18.832724997773767">
        <ele>440.39600000000002</ele>
        <time>2010-02-07T01:02:17Z</time>
      </trkpt>
      <trkpt lat="47.591802980750799" lon="18.832691973075271">
        <ele>440.50299999999999</ele>
        <time>2010-02-07T01:02:19Z</time>
      </trkpt>
      <trkpt lat="47.59184799157083" lon="18.832661965861917">
        <ele>438.85899999999998</ele>
        <time>2010-02-07T01:02:21Z</time>
      </trkpt>
      <trkpt lat="47.5918909907341" lon="18.832638999447227">
        <ele>438.27699999999999</ele>
        <time>2010-02-07T01:02:23Z</time>
      </trkpt>
      <trkpt lat="47.591928038746119" lon="18.832621984183788">
        <ele>437.61599999999999</ele>
        <time>2010-02-07T01:02:25Z</time>
      </trkpt>
      <trkpt lat="47.591967014595866" lon="18.832599017769098">
        <ele>436.90100000000001</ele>
        <time>2010-02-07T01:02:27Z</time>
      </trkpt>
      <trkpt lat="47.592009007930756" lon="18.832580996677279">
        <ele>435.964</ele>
        <time>2010-02-07T01:02:29Z</time>
      </trkpt>
      <trkpt lat="47.592048989608884" lon="18.832546966150403">
        <ele>435.053</ele>
        <time>2010-02-07T01:02:31Z</time>
      </trkpt>
      <trkpt lat="47.592092994600534" lon="18.832528023049235">
        <ele>434.21800000000002</ele>
        <time>2010-02-07T01:02:33Z</time>
      </trkpt>
      <trkpt lat="47.592123001813889" lon="18.832502961158752">
        <ele>433.17599999999999</ele>
        <time>2010-02-07T01:02:35Z</time>
      </trkpt>
      <trkpt lat="47.592156026512384" lon="18.832467002794147">
        <ele>432.66500000000002</ele>
        <time>2010-02-07T01:02:37Z</time>
      </trkpt>
      <trkpt lat="47.592187039554119" lon="18.832427021116018">
        <ele>432.678</ele>
        <time>2010-02-07T01:02:39Z</time>
      </trkpt>
      <trkpt lat="47.592216040939093" lon="18.832378992810845">
        <ele>431.91199999999998</ele>
        <time>2010-02-07T01:02:41Z</time>
      </trkpt>
      <trkpt lat="47.592244036495686" lon="18.832333981990814">
        <ele>431.548</ele>
        <time>2010-02-07T01:02:43Z</time>
      </trkpt>
      <trkpt lat="47.592274965718389" lon="18.832290982827544">
        <ele>431.18400000000003</ele>
        <time>2010-02-07T01:02:45Z</time>
      </trkpt>
      <trkpt lat="47.592303967103362" lon="18.832233985885978">
        <ele>430.54399999999998</ele>
        <time>2010-02-07T01:02:47Z</time>
      </trkpt>
      <trkpt lat="47.592330034822226" lon="18.832181012257934">
        <ele>430.27300000000002</ele>
        <time>2010-02-07T01:02:49Z</time>
      </trkpt>
      <trkpt lat="47.592347972095013" lon="18.832129966467619">
        <ele>430.238</ele>
        <time>2010-02-07T01:02:51Z</time>
      </trkpt>
      <trkpt lat="47.592371022328734" lon="18.832075987011194">
        <ele>429.78199999999998</ele>
        <time>2010-02-07T01:02:53Z</time>
      </trkpt>
      <trkpt lat="47.592401029542089" lon="18.832019995898008">
        <ele>429.07900000000001</ele>
        <time>2010-02-07T01:02:55Z</time>
      </trkpt>
      <trkpt lat="47.592422990128398" lon="18.831967022269964">
        <ele>428.851</ele>
        <time>2010-02-07T01:02:57Z</time>
      </trkpt>
      <trkpt lat="47.592456014826894" lon="18.831922011449933">
        <ele>429.06599999999997</ele>
        <time>2010-02-07T01:02:59Z</time>
      </trkpt>
      <trkpt lat="47.592487027868629" lon="18.83187398314476">
        <ele>428.88499999999999</ele>
        <time>2010-02-07T01:03:01Z</time>
      </trkpt>
      <trkpt lat="47.592517035081983" lon="18.831826960667968">
        <ele>428.99700000000001</ele>
        <time>2010-02-07T01:03:03Z</time>
      </trkpt>
      <trkpt lat="47.592538995668292" lon="18.831789996474981">
        <ele>428.56400000000002</ele>
        <time>2010-02-07T01:03:05Z</time>
      </trkpt>
      <trkpt lat="47.592558022588491" lon="18.831749008968472">
        <ele>428.15600000000001</ele>
        <time>2010-02-07T01:03:07Z</time>
      </trkpt>
      <trkpt lat="47.592580989003181" lon="18.831705003976822">
        <ele>428.41399999999999</ele>
        <time>2010-02-07T01:03:09Z</time>
      </trkpt>
      <trkpt lat="47.592608984559774" lon="18.831666028127074">
        <ele>427.97399999999999</ele>
        <time>2010-02-07T01:03:11Z</time>
      </trkpt>
      <trkpt lat="47.592631028965116" lon="18.831623028963804">
        <ele>427.84800000000001</ele>
        <time>2010-02-07T01:03:13Z</time>
      </trkpt>
      <trkpt lat="47.592655001208186" lon="18.831559997051954">
        <ele>427.92399999999998</ele>
        <time>2010-02-07T01:03:16Z</time>
      </trkpt>
      <trkpt lat="47.592676961794496" lon="18.831514986231923">
        <ele>427.05700000000002</ele>
        <time>2010-02-07T01:03:18Z</time>
      </trkpt>
      <trkpt lat="47.592709986492991" lon="18.831460000947118">
        <ele>427.82400000000001</ele>
        <time>2010-02-07T01:03:21Z</time>
      </trkpt>
      <trkpt lat="47.592739993706346" lon="18.831423036754131">
        <ele>427.56400000000002</ele>
        <time>2010-02-07T01:03:23Z</time>
      </trkpt>
      <trkpt lat="47.5927700009197" lon="18.831386994570494">
        <ele>427.37200000000001</ele>
        <time>2010-02-07T01:03:25Z</time>
      </trkpt>
      <trkpt lat="47.592797996476293" lon="18.831328991800547">
        <ele>427.505</ele>
        <time>2010-02-07T01:03:28Z</time>
      </trkpt>
      <trkpt lat="47.592816017568111" lon="18.831290015950799">
        <ele>427.28100000000001</ele>
        <time>2010-02-07T01:03:30Z</time>
      </trkpt>
      <trkpt lat="47.59283303283155" lon="18.831246010959148">
        <ele>428.11500000000001</ele>
        <time>2010-02-07T01:03:32Z</time>
      </trkpt>
      <trkpt lat="47.592863962054253" lon="18.831195970997214">
        <ele>427.89499999999998</ele>
        <time>2010-02-07T01:03:35Z</time>
      </trkpt>
      <trkpt lat="47.592889023944736" lon="18.831165041774511">
        <ele>427.428</ele>
        <time>2010-02-07T01:03:37Z</time>
      </trkpt>
      <trkpt lat="47.592909978702664" lon="18.831127993762493">
        <ele>427.99400000000003</ele>
        <time>2010-02-07T01:03:39Z</time>
      </trkpt>
      <trkpt lat="47.592929005622864" lon="18.831087006255984">
        <ele>427.73200000000003</ele>
        <time>2010-02-07T01:03:41Z</time>
      </trkpt>
      <trkpt lat="47.592946020886302" lon="18.831043001264334">
        <ele>427.95499999999998</ele>
        <time>2010-02-07T01:03:43Z</time>
      </trkpt>
      <trkpt lat="47.592966975644231" lon="18.831004025414586">
        <ele>428.24900000000002</ele>
        <time>2010-02-07T01:03:45Z</time>
      </trkpt>
      <trkpt lat="47.592990025877953" lon="18.830937976017594">
        <ele>428.33800000000002</ele>
        <time>2010-02-07T01:03:48Z</time>
      </trkpt>
      <trkpt lat="47.593015003949404" lon="18.830876033753157">
        <ele>428.54000000000002</ele>
        <time>2010-02-07T01:03:51Z</time>
      </trkpt>
      <trkpt lat="47.593035958707333" lon="18.830830017104745">
        <ele>427.995</ele>
        <time>2010-02-07T01:03:53Z</time>
      </trkpt>
      <trkpt lat="47.593053979799151" lon="18.830780982971191">
        <ele>428.21300000000002</ele>
        <time>2010-02-07T01:03:55Z</time>
      </trkpt>
      <trkpt lat="47.59307099506259" lon="18.830736977979541">
        <ele>427.83600000000001</ele>
        <time>2010-02-07T01:03:57Z</time>
      </trkpt>
      <trkpt lat="47.59309203363955" lon="18.830694984644651">
        <ele>428.27699999999999</ele>
        <time>2010-02-07T01:03:59Z</time>
      </trkpt>
      <trkpt lat="47.59311399422586" lon="18.830647962167859">
        <ele>428.267</ele>
        <time>2010-02-07T01:04:01Z</time>
      </trkpt>
      <trkpt lat="47.593136038631201" lon="18.830607980489731">
        <ele>427.68900000000002</ele>
        <time>2010-02-07T01:04:03Z</time>
      </trkpt>
      <trkpt lat="47.593150958418846" lon="18.830559030175209">
        <ele>427.21300000000002</ele>
        <time>2010-02-07T01:04:05Z</time>
      </trkpt>
      <trkpt lat="47.593165040016174" lon="18.830516031011939">
        <ele>428.178</ele>
        <time>2010-02-07T01:04:07Z</time>
      </trkpt>
      <trkpt lat="47.593181971460581" lon="18.83047797717154">
        <ele>427.77699999999999</ele>
        <time>2010-02-07T01:04:09Z</time>
      </trkpt>
      <trkpt lat="47.593194963410497" lon="18.830432966351509">
        <ele>427.62</ele>
        <time>2010-02-07T01:04:11Z</time>
      </trkpt>
      <trkpt lat="47.593208961188793" lon="18.830387033522129">
        <ele>427.11500000000001</ele>
        <time>2010-02-07T01:04:13Z</time>
      </trkpt>
      <trkpt lat="47.593222036957741" lon="18.830344034358859">
        <ele>427.66399999999999</ele>
        <time>2010-02-07T01:04:15Z</time>
      </trkpt>
      <trkpt lat="47.593236034736037" lon="18.830301035195589">
        <ele>427.67500000000001</ele>
        <time>2010-02-07T01:04:17Z</time>
      </trkpt>
      <trkpt lat="47.593251038342714" lon="18.830257030203938">
        <ele>427.63499999999999</ele>
        <time>2010-02-07T01:04:19Z</time>
      </trkpt>
      <trkpt lat="47.593267969787121" lon="18.830214031040668">
        <ele>427.52199999999999</ele>
        <time>2010-02-07T01:04:21Z</time>
      </trkpt>
      <trkpt lat="47.593282973393798" lon="18.830173965543509">
        <ele>427.94400000000002</ele>
        <time>2010-02-07T01:04:23Z</time>
      </trkpt>
      <trkpt lat="47.593297977000475" lon="18.830135995522141">
        <ele>428.31200000000001</ele>
        <time>2010-02-07T01:04:25Z</time>
      </trkpt>
      <trkpt lat="47.593314992263913" lon="18.830098025500774">
        <ele>427.96100000000001</ele>
        <time>2010-02-07T01:04:27Z</time>
      </trkpt>
      <trkpt lat="47.593336030840874" lon="18.830058965831995">
        <ele>427.78500000000003</ele>
        <time>2010-02-07T01:04:29Z</time>
      </trkpt>
      <trkpt lat="47.593354973942041" lon="18.830020995810628">
        <ele>427.54899999999998</ele>
        <time>2010-02-07T01:04:31Z</time>
      </trkpt>
      <trkpt lat="47.593376012519002" lon="18.829985037446022">
        <ele>428.22000000000003</ele>
        <time>2010-02-07T01:04:33Z</time>
      </trkpt>
      <trkpt lat="47.593395039439201" lon="18.829951006919146">
        <ele>428.37400000000002</ele>
        <time>2010-02-07T01:04:35Z</time>
      </trkpt>
      <trkpt lat="47.59341599419713" lon="18.829914964735508">
        <ele>428.404</ele>
        <time>2010-02-07T01:04:37Z</time>
      </trkpt>
      <trkpt lat="47.593442983925343" lon="18.829881018027663">
        <ele>428.339</ele>
        <time>2010-02-07T01:04:39Z</time>
      </trkpt>
      <trkpt lat="47.593462010845542" lon="18.829844975844026">
        <ele>428.18400000000003</ele>
        <time>2010-02-07T01:04:41Z</time>
      </trkpt>
      <trkpt lat="47.593497969210148" lon="18.829812034964561">
        <ele>429.149</ele>
        <time>2010-02-07T01:04:44Z</time>
      </trkpt>
      <trkpt lat="47.593525964766741" lon="18.829768029972911">
        <ele>429.14600000000002</ele>
        <time>2010-02-07T01:04:47Z</time>
      </trkpt>
      <trkpt lat="47.59356401860714" lon="18.829732993617654">
        <ele>429.59300000000002</ele>
        <time>2010-02-07T01:04:50Z</time>
      </trkpt>
      <trkpt lat="47.593604000285268" lon="18.829679014161229">
        <ele>429.80099999999999</ele>
        <time>2010-02-07T01:04:53Z</time>
      </trkpt>
      <trkpt lat="47.593639958649874" lon="18.829634003341198">
        <ele>429.97199999999998</ele>
        <time>2010-02-07T01:04:56Z</time>
      </trkpt>
      <trkpt lat="47.593663008883595" lon="18.829576000571251">
        <ele>429.61599999999999</ele>
        <time>2010-02-07T01:04:59Z</time>
      </trkpt>
      <trkpt lat="47.593688992783427" lon="18.829539958387613">
        <ele>429.815</ele>
        <time>2010-02-07T01:05:01Z</time>
      </trkpt>
      <trkpt lat="47.593724029138684" lon="18.829490002244711">
        <ele>430.14499999999998</ele>
        <time>2010-02-07T01:05:04Z</time>
      </trkpt>
      <trkpt lat="47.593754958361387" lon="18.829437028616667">
        <ele>430.25</ele>
        <time>2010-02-07T01:05:07Z</time>
      </trkpt>
      <trkpt lat="47.593794018030167" lon="18.8293800316751">
        <ele>429.70400000000001</ele>
        <time>2010-02-07T01:05:10Z</time>
      </trkpt>
      <trkpt lat="47.59382201358676" lon="18.829324040561914">
        <ele>429.81400000000002</ele>
        <time>2010-02-07T01:05:13Z</time>
      </trkpt>
      <trkpt lat="47.593855960294604" lon="18.829263020306826">
        <ele>429.92899999999997</ele>
        <time>2010-02-07T01:05:16Z</time>
      </trkpt>
      <trkpt lat="47.593885967507958" lon="18.829217003658414">
        <ele>430.44799999999998</ele>
        <time>2010-02-07T01:05:19Z</time>
      </trkpt>
      <trkpt lat="47.593919998034835" lon="18.829169981181622">
        <ele>430.298</ele>
        <time>2010-02-07T01:05:22Z</time>
      </trkpt>
      <trkpt lat="47.593954028561711" lon="18.82912497036159">
        <ele>430.19</ele>
        <time>2010-02-07T01:05:25Z</time>
      </trkpt>
      <trkpt lat="47.593983029946685" lon="18.829070990905166">
        <ele>430.38600000000002</ele>
        <time>2010-02-07T01:05:28Z</time>
      </trkpt>
      <trkpt lat="47.594013037160039" lon="18.829027991741896">
        <ele>430.46199999999999</ele>
        <time>2010-02-07T01:05:31Z</time>
      </trkpt>
      <trkpt lat="47.594058969989419" lon="18.82899303920567">
        <ele>430.37799999999999</ele>
        <time>2010-02-07T01:05:34Z</time>
      </trkpt>
      <trkpt lat="47.594090988859534" lon="18.828963031992316">
        <ele>430.51799999999997</ele>
        <time>2010-02-07T01:05:36Z</time>
      </trkpt>
      <trkpt lat="47.59412401355803" lon="18.828936964273453">
        <ele>431.012</ele>
        <time>2010-02-07T01:05:38Z</time>
      </trkpt>
      <trkpt lat="47.594165001064539" lon="18.828889019787312">
        <ele>430.71499999999997</ele>
        <time>2010-02-07T01:05:41Z</time>
      </trkpt>
      <trkpt lat="47.594203976914287" lon="18.828836968168616">
        <ele>430.59899999999999</ele>
        <time>2010-02-07T01:05:44Z</time>
      </trkpt>
      <trkpt lat="47.594241024926305" lon="18.828791035339236">
        <ele>430.74299999999999</ele>
        <time>2010-02-07T01:05:47Z</time>
      </trkpt>
      <trkpt lat="47.594264997169375" lon="18.828761028125882">
        <ele>430.28100000000001</ele>
        <time>2010-02-07T01:05:49Z</time>
      </trkpt>
      <trkpt lat="47.594287041574717" lon="18.828710988163948">
        <ele>430.41500000000002</ele>
        <time>2010-02-07T01:05:52Z</time>
      </trkpt>
      <trkpt lat="47.594321994110942" lon="18.828664971515536">
        <ele>430.93099999999998</ele>
        <time>2010-02-07T01:05:55Z</time>
      </trkpt>
      <trkpt lat="47.594350995495915" lon="18.828615015372634">
        <ele>431.76499999999999</ele>
        <time>2010-02-07T01:05:58Z</time>
      </trkpt>
      <trkpt lat="47.594387037679553" lon="18.828568998724222">
        <ele>431.48899999999998</ele>
        <time>2010-02-07T01:06:01Z</time>
      </trkpt>
      <trkpt lat="47.594411009922624" lon="18.82852298207581">
        <ele>431.84100000000001</ele>
        <time>2010-02-07T01:06:04Z</time>
      </trkpt>
      <trkpt lat="47.594427019357681" lon="18.828477971255779">
        <ele>431.88600000000002</ele>
        <time>2010-02-07T01:06:06Z</time>
      </trkpt>
      <trkpt lat="47.594456020742655" lon="18.828432038426399">
        <ele>432.42700000000002</ele>
        <time>2010-02-07T01:06:09Z</time>
      </trkpt>
      <trkpt lat="47.594497008249164" lon="18.828390967100859">
        <ele>432.66699999999997</ele>
        <time>2010-02-07T01:06:12Z</time>
      </trkpt>
      <trkpt lat="47.59453296661377" lon="18.828347967937589">
        <ele>433.32999999999998</ele>
        <time>2010-02-07T01:06:15Z</time>
      </trkpt>
      <trkpt lat="47.594572026282549" lon="18.828303040936589">
        <ele>433.51799999999997</ele>
        <time>2010-02-07T01:06:18Z</time>
      </trkpt>
      <trkpt lat="47.594603961333632" lon="18.828243026509881">
        <ele>434.17099999999999</ele>
        <time>2010-02-07T01:06:21Z</time>
      </trkpt>
      <trkpt lat="47.594644026830792" lon="18.828186029568315">
        <ele>434.12900000000002</ele>
        <time>2010-02-07T01:06:24Z</time>
      </trkpt>
      <trkpt lat="47.59466296993196" lon="18.828144036233425">
        <ele>434.20800000000003</ele>
        <time>2010-02-07T01:06:26Z</time>
      </trkpt>
      <trkpt lat="47.594700017943978" lon="18.82809198461473">
        <ele>434.18000000000001</ele>
        <time>2010-02-07T01:06:29Z</time>
      </trkpt>
      <trkpt lat="47.594730025157332" lon="18.828044040128589">
        <ele>433.78100000000001</ele>
        <time>2010-02-07T01:06:31Z</time>
      </trkpt>
      <trkpt lat="47.594756009057164" lon="18.827995005995035">
        <ele>433.42899999999997</ele>
        <time>2010-02-07T01:06:33Z</time>
      </trkpt>
      <trkpt lat="47.594782998785377" lon="18.827934991568327">
        <ele>433.07799999999997</ele>
        <time>2010-02-07T01:06:35Z</time>
      </trkpt>
      <trkpt lat="47.594807976856828" lon="18.827871037647128">
        <ele>432.63200000000001</ele>
        <time>2010-02-07T01:06:37Z</time>
      </trkpt>
      <trkpt lat="47.594829015433788" lon="18.8278120290488">
        <ele>432.779</ele>
        <time>2010-02-07T01:06:39Z</time>
      </trkpt>
      <trkpt lat="47.594849970191717" lon="18.827754026278853">
        <ele>432.863</ele>
        <time>2010-02-07T01:06:41Z</time>
      </trkpt>
      <trkpt lat="47.594873020425439" lon="18.827694011852145">
        <ele>432.38299999999998</ele>
        <time>2010-02-07T01:06:43Z</time>
      </trkpt>
      <trkpt lat="47.594900010153651" lon="18.827636009082198">
        <ele>431.63299999999998</ele>
        <time>2010-02-07T01:06:45Z</time>
      </trkpt>
      <trkpt lat="47.594923982396722" lon="18.827571971341968">
        <ele>431.565</ele>
        <time>2010-02-07T01:06:47Z</time>
      </trkpt>
      <trkpt lat="47.594942003488541" lon="18.82751103490591">
        <ele>430.50799999999998</ele>
        <time>2010-02-07T01:06:49Z</time>
      </trkpt>
      <trkpt lat="47.594967987388372" lon="18.827444985508919">
        <ele>430.61900000000003</ele>
        <time>2010-02-07T01:06:51Z</time>
      </trkpt>
      <trkpt lat="47.594991959631443" lon="18.82738396525383">
        <ele>430.03800000000001</ele>
        <time>2010-02-07T01:06:53Z</time>
      </trkpt>
      <trkpt lat="47.595011992380023" lon="18.827316993847489">
        <ele>429.52600000000001</ele>
        <time>2010-02-07T01:06:55Z</time>
      </trkpt>
      <trkpt lat="47.595032025128603" lon="18.827244993299246">
        <ele>429.34800000000001</ele>
        <time>2010-02-07T01:06:57Z</time>
      </trkpt>
      <trkpt lat="47.595049040392041" lon="18.827178021892905">
        <ele>428.28300000000002</ele>
        <time>2010-02-07T01:06:59Z</time>
      </trkpt>
      <trkpt lat="47.595064966008067" lon="18.827114989981055">
        <ele>427.03100000000001</ele>
        <time>2010-02-07T01:07:01Z</time>
      </trkpt>
      <trkpt lat="47.595079969614744" lon="18.827052041888237">
        <ele>427.03699999999998</ele>
        <time>2010-02-07T01:07:03Z</time>
      </trkpt>
      <trkpt lat="47.595084998756647" lon="18.826988004148006">
        <ele>426.67899999999997</ele>
        <time>2010-02-07T01:07:05Z</time>
      </trkpt>
      <trkpt lat="47.595087010413408" lon="18.826922038570046">
        <ele>426.02800000000002</ele>
        <time>2010-02-07T01:07:07Z</time>
      </trkpt>
      <trkpt lat="47.595086004585028" lon="18.826861018314958">
        <ele>425.52199999999999</ele>
        <time>2010-02-07T01:07:09Z</time>
      </trkpt>
      <trkpt lat="47.595081981271505" lon="18.826803015545011">
        <ele>425.197</ele>
        <time>2010-02-07T01:07:11Z</time>
      </trkpt>
      <trkpt lat="47.595076030120254" lon="18.826734032481909">
        <ele>424.68299999999999</ele>
        <time>2010-02-07T01:07:13Z</time>
      </trkpt>
      <trkpt lat="47.595068989321589" lon="18.826663037762046">
        <ele>424.17099999999999</ele>
        <time>2010-02-07T01:07:15Z</time>
      </trkpt>
      <trkpt lat="47.595067983493209" lon="18.826588019728661">
        <ele>423.70800000000003</ele>
        <time>2010-02-07T01:07:17Z</time>
      </trkpt>
      <trkpt lat="47.595068989321589" lon="18.826516019180417">
        <ele>423.19600000000003</ele>
        <time>2010-02-07T01:07:19Z</time>
      </trkpt>
      <trkpt lat="47.595079969614744" lon="18.826451981440187">
        <ele>423.04700000000003</ele>
        <time>2010-02-07T01:07:21Z</time>
      </trkpt>
      <trkpt lat="47.595087010413408" lon="18.826380986720324">
        <ele>421.22199999999998</ele>
        <time>2010-02-07T01:07:23Z</time>
      </trkpt>
      <trkpt lat="47.595095979049802" lon="18.826306974515319">
        <ele>421.64600000000002</ele>
        <time>2010-02-07T01:07:25Z</time>
      </trkpt>
      <trkpt lat="47.595100002363324" lon="18.826234973967075">
        <ele>420.928</ele>
        <time>2010-02-07T01:07:27Z</time>
      </trkpt>
      <trkpt lat="47.595101008191705" lon="18.826158028095961">
        <ele>420.47500000000002</ele>
        <time>2010-02-07T01:07:29Z</time>
      </trkpt>
      <trkpt lat="47.595096984878182" lon="18.826085021719337">
        <ele>419.18900000000002</ele>
        <time>2010-02-07T01:07:31Z</time>
      </trkpt>
      <trkpt lat="47.595093967393041" lon="18.826017966493964">
        <ele>418.27499999999998</ele>
        <time>2010-02-07T01:07:33Z</time>
      </trkpt>
      <trkpt lat="47.59509296156466" lon="18.825947977602482">
        <ele>418.28899999999999</ele>
        <time>2010-02-07T01:07:35Z</time>
      </trkpt>
      <trkpt lat="47.595093967393041" lon="18.825877988710999">
        <ele>416.834</ele>
        <time>2010-02-07T01:07:37Z</time>
      </trkpt>
      <trkpt lat="47.595096984878182" lon="18.825809005647898">
        <ele>416.64999999999998</ele>
        <time>2010-02-07T01:07:39Z</time>
      </trkpt>
      <trkpt lat="47.595102014020085" lon="18.825742034241557">
        <ele>415.66800000000001</ele>
        <time>2010-02-07T01:07:41Z</time>
      </trkpt>
      <trkpt lat="47.59509296156466" lon="18.825670033693314">
        <ele>415.94200000000001</ele>
        <time>2010-02-07T01:07:43Z</time>
      </trkpt>
      <trkpt lat="47.59509296156466" lon="18.825610019266605">
        <ele>414.755</ele>
        <time>2010-02-07T01:07:45Z</time>
      </trkpt>
      <trkpt lat="47.595086004585028" lon="18.825544975697994">
        <ele>415.36500000000001</ele>
        <time>2010-02-07T01:07:47Z</time>
      </trkpt>
      <trkpt lat="47.595079969614744" lon="18.825480015948415">
        <ele>414.63200000000001</ele>
        <time>2010-02-07T01:07:49Z</time>
      </trkpt>
      <trkpt lat="47.595078963786364" lon="18.825412960723042">
        <ele>414.14800000000002</ele>
        <time>2010-02-07T01:07:51Z</time>
      </trkpt>
      <trkpt lat="47.595078041777015" lon="18.82534196600318">
        <ele>413.09300000000002</ele>
        <time>2010-02-07T01:07:53Z</time>
      </trkpt>
      <trkpt lat="47.595080975443125" lon="18.8252770062536">
        <ele>413.16899999999998</ele>
        <time>2010-02-07T01:07:55Z</time>
      </trkpt>
      <trkpt lat="47.595080975443125" lon="18.825194025412202">
        <ele>412.92099999999999</ele>
        <time>2010-02-07T01:07:58Z</time>
      </trkpt>
      <trkpt lat="47.595075024291873" lon="18.825139040127397">
        <ele>413.72300000000001</ele>
        <time>2010-02-07T01:08:00Z</time>
      </trkpt>
      <trkpt lat="47.595071000978351" lon="18.825073996558785">
        <ele>412.72199999999998</ele>
        <time>2010-02-07T01:08:02Z</time>
      </trkpt>
      <trkpt lat="47.595063038170338" lon="18.8250180054456">
        <ele>412.822</ele>
        <time>2010-02-07T01:08:04Z</time>
      </trkpt>
      <trkpt lat="47.595063038170338" lon="18.824963020160794">
        <ele>412.31400000000002</ele>
        <time>2010-02-07T01:08:06Z</time>
      </trkpt>
      <trkpt lat="47.595067983493209" lon="18.824908034875989">
        <ele>412.23099999999999</ele>
        <time>2010-02-07T01:08:08Z</time>
      </trkpt>
      <trkpt lat="47.595074018463492" lon="18.824857994914055">
        <ele>412.60500000000002</ele>
        <time>2010-02-07T01:08:10Z</time>
      </trkpt>
      <trkpt lat="47.595082987099886" lon="18.824799992144108">
        <ele>412.82999999999998</ele>
        <time>2010-02-07T01:08:12Z</time>
      </trkpt>
      <trkpt lat="47.59509296156466" lon="18.824747018516064">
        <ele>411.94799999999998</ele>
        <time>2010-02-07T01:08:14Z</time>
      </trkpt>
      <trkpt lat="47.595106037333608" lon="18.82469697855413">
        <ele>412.25999999999999</ele>
        <time>2010-02-07T01:08:16Z</time>
      </trkpt>
      <trkpt lat="47.595118023455143" lon="18.824649034067988">
        <ele>412.03300000000002</ele>
        <time>2010-02-07T01:08:18Z</time>
      </trkpt>
      <trkpt lat="47.595129003748298" lon="18.824597988277674">
        <ele>412.565</ele>
        <time>2010-02-07T01:08:20Z</time>
      </trkpt>
      <trkpt lat="47.595141995698214" lon="18.824547026306391">
        <ele>412.46100000000001</ele>
        <time>2010-02-07T01:08:22Z</time>
      </trkpt>
      <trkpt lat="47.59515599347651" lon="18.82450302131474">
        <ele>412.72399999999999</ele>
        <time>2010-02-07T01:08:24Z</time>
      </trkpt>
      <trkpt lat="47.595168985426426" lon="18.824454993009567">
        <ele>411.77300000000002</ele>
        <time>2010-02-07T01:08:26Z</time>
      </trkpt>
      <trkpt lat="47.595182983204722" lon="18.824410988017917">
        <ele>412.38999999999999</ele>
        <time>2010-02-07T01:08:28Z</time>
      </trkpt>
      <trkpt lat="47.595195975154638" lon="18.824365977197886">
        <ele>412.23000000000002</ele>
        <time>2010-02-07T01:08:30Z</time>
      </trkpt>
      <trkpt lat="47.595209972932935" lon="18.824319038540125">
        <ele>411.649</ele>
        <time>2010-02-07T01:08:32Z</time>
      </trkpt>
      <trkpt lat="47.595225982367992" lon="18.824276039376855">
        <ele>412.17899999999997</ele>
        <time>2010-02-07T01:08:34Z</time>
      </trkpt>
      <trkpt lat="47.595234028995037" lon="18.824233040213585">
        <ele>411.63900000000001</ele>
        <time>2010-02-07T01:08:36Z</time>
      </trkpt>
      <trkpt lat="47.595247020944953" lon="18.824189035221934">
        <ele>412.03399999999999</ele>
        <time>2010-02-07T01:08:38Z</time>
      </trkpt>
      <trkpt lat="47.595258001238108" lon="18.824144024401903">
        <ele>411.24299999999999</ele>
        <time>2010-02-07T01:08:40Z</time>
      </trkpt>
      <trkpt lat="47.595267975702882" lon="18.824101025238633">
        <ele>412.26100000000002</ele>
        <time>2010-02-07T01:08:42Z</time>
      </trkpt>
      <trkpt lat="47.595281973481178" lon="18.824055008590221">
        <ele>411.94900000000001</ele>
        <time>2010-02-07T01:08:44Z</time>
      </trkpt>
      <trkpt lat="47.595295971259475" lon="18.824016032740474">
        <ele>411.88200000000001</ele>
        <time>2010-02-07T01:08:46Z</time>
      </trkpt>
      <trkpt lat="47.595308963209391" lon="18.823963981121778">
        <ele>411.73200000000003</ele>
        <time>2010-02-07T01:08:49Z</time>
      </trkpt>
      <trkpt lat="47.595330001786351" lon="18.823913019150496">
        <ele>411.71100000000001</ele>
        <time>2010-02-07T01:08:52Z</time>
      </trkpt>
      <trkpt lat="47.595351962372661" lon="18.823873037472367">
        <ele>412.03199999999998</ele>
        <time>2010-02-07T01:08:54Z</time>
      </trkpt>
      <trkpt lat="47.595374006778002" lon="18.82381796836853">
        <ele>411.58999999999997</ele>
        <time>2010-02-07T01:08:57Z</time>
      </trkpt>
      <trkpt lat="47.595405019819736" lon="18.823767006397247">
        <ele>411.37599999999998</ele>
        <time>2010-02-07T01:09:00Z</time>
      </trkpt>
      <trkpt lat="47.595435027033091" lon="18.823715038597584">
        <ele>411.65100000000001</ele>
        <time>2010-02-07T01:09:03Z</time>
      </trkpt>
      <trkpt lat="47.595454975962639" lon="18.823683019727468">
        <ele>411.86200000000002</ele>
        <time>2010-02-07T01:09:05Z</time>
      </trkpt>
      <trkpt lat="47.595500992611051" lon="18.823609007522464">
        <ele>411.54199999999997</ele>
        <time>2010-02-07T01:09:09Z</time>
      </trkpt>
      <trkpt lat="47.595525970682502" lon="18.823555028066039">
        <ele>412.11200000000002</ele>
        <time>2010-02-07T01:09:12Z</time>
      </trkpt>
      <trkpt lat="47.595543991774321" lon="18.82351697422564">
        <ele>412.15199999999999</ele>
        <time>2010-02-07T01:09:14Z</time>
      </trkpt>
      <trkpt lat="47.595572993159294" lon="18.823459977284074">
        <ele>412.16800000000001</ele>
        <time>2010-02-07T01:09:17Z</time>
      </trkpt>
      <trkpt lat="47.595595037564635" lon="18.823417983949184">
        <ele>412.548</ele>
        <time>2010-02-07T01:09:19Z</time>
      </trkpt>
      <trkpt lat="47.595612974837422" lon="18.823375990614295">
        <ele>412.10399999999998</ele>
        <time>2010-02-07T01:09:21Z</time>
      </trkpt>
      <trkpt lat="47.595636025071144" lon="18.823318993672729">
        <ele>412.12599999999998</ele>
        <time>2010-02-07T01:09:24Z</time>
      </trkpt>
      <trkpt lat="47.595651028677821" lon="18.823277000337839">
        <ele>411.88</ele>
        <time>2010-02-07T01:09:26Z</time>
      </trkpt>
      <trkpt lat="47.595668965950608" lon="18.823234001174569">
        <ele>411.50900000000001</ele>
        <time>2010-02-07T01:09:28Z</time>
      </trkpt>
      <trkpt lat="47.59569201618433" lon="18.823196031153202">
        <ele>412.06799999999998</ele>
        <time>2010-02-07T01:09:30Z</time>
      </trkpt>
      <trkpt lat="47.595712970942259" lon="18.823164012283087">
        <ele>411.68099999999998</ele>
        <time>2010-02-07T01:09:32Z</time>
      </trkpt>
      <trkpt lat="47.595747001469135" lon="18.823120007291436">
        <ele>412.43799999999999</ele>
        <time>2010-02-07T01:09:35Z</time>
      </trkpt>
      <trkpt lat="47.595783965662122" lon="18.823078013956547">
        <ele>412.14400000000001</ele>
        <time>2010-02-07T01:09:38Z</time>
      </trkpt>
      <trkpt lat="47.595822019502521" lon="18.823030991479754">
        <ele>412.37400000000002</ele>
        <time>2010-02-07T01:09:41Z</time>
      </trkpt>
      <trkpt lat="47.595845991745591" lon="18.822995033115149">
        <ele>412.40600000000001</ele>
        <time>2010-02-07T01:09:43Z</time>
      </trkpt>
      <trkpt lat="47.595868036150932" lon="18.822963014245033">
        <ele>412.20800000000003</ele>
        <time>2010-02-07T01:09:45Z</time>
      </trkpt>
      <trkpt lat="47.595892008394003" lon="18.822930995374918">
        <ele>412.423</ele>
        <time>2010-02-07T01:09:47Z</time>
      </trkpt>
      <trkpt lat="47.595918998122215" lon="18.822897970676422">
        <ele>411.95600000000002</ele>
        <time>2010-02-07T01:09:49Z</time>
      </trkpt>
      <trkpt lat="47.595940036699176" lon="18.822860000655055">
        <ele>412.05900000000003</ele>
        <time>2010-02-07T01:09:51Z</time>
      </trkpt>
      <trkpt lat="47.595955040305853" lon="18.822820018976927">
        <ele>412.36099999999999</ele>
        <time>2010-02-07T01:09:53Z</time>
      </trkpt>
      <trkpt lat="47.595979012548923" lon="18.822780037298799">
        <ele>411.71100000000001</ele>
        <time>2010-02-07T01:09:55Z</time>
      </trkpt>
      <trkpt lat="47.596002984791994" lon="18.822731003165245">
        <ele>412.11700000000002</ele>
        <time>2010-02-07T01:09:57Z</time>
      </trkpt>
      <trkpt lat="47.596024023368955" lon="18.822678029537201">
        <ele>412.50700000000001</ele>
        <time>2010-02-07T01:09:59Z</time>
      </trkpt>
      <trkpt lat="47.596047995612025" lon="18.822622960433364">
        <ele>412.02600000000001</ele>
        <time>2010-02-07T01:10:01Z</time>
      </trkpt>
      <trkpt lat="47.596070962026715" lon="18.822565963491797">
        <ele>411.846</ele>
        <time>2010-02-07T01:10:03Z</time>
      </trkpt>
      <trkpt lat="47.596097029745579" lon="18.82250796072185">
        <ele>412.59399999999999</ele>
        <time>2010-02-07T01:10:05Z</time>
      </trkpt>
      <trkpt lat="47.596123013645411" lon="18.822450963780284">
        <ele>412.07499999999999</ele>
        <time>2010-02-07T01:10:07Z</time>
      </trkpt>
      <trkpt lat="47.59614497423172" lon="18.822392039000988">
        <ele>411.322</ele>
        <time>2010-02-07T01:10:09Z</time>
      </trkpt>
      <trkpt lat="47.5961650069803" lon="18.822326995432377">
        <ele>410.58300000000003</ele>
        <time>2010-02-07T01:10:11Z</time>
      </trkpt>
      <trkpt lat="47.596182022243738" lon="18.822262035682797">
        <ele>409.80200000000002</ele>
        <time>2010-02-07T01:10:13Z</time>
      </trkpt>
      <trkpt lat="47.596198031678796" lon="18.822201015427709">
        <ele>410.76600000000002</ele>
        <time>2010-02-07T01:10:15Z</time>
      </trkpt>
      <trkpt lat="47.596217980608344" lon="18.822137983515859">
        <ele>410.56700000000001</ele>
        <time>2010-02-07T01:10:17Z</time>
      </trkpt>
      <trkpt lat="47.596232984215021" lon="18.822072017937899">
        <ele>409.35700000000003</ele>
        <time>2010-02-07T01:10:19Z</time>
      </trkpt>
      <trkpt lat="47.596255028620362" lon="18.822018038481474">
        <ele>409.08699999999999</ele>
        <time>2010-02-07T01:10:21Z</time>
      </trkpt>
      <trkpt lat="47.596276989206672" lon="18.821972021833062">
        <ele>408.375</ele>
        <time>2010-02-07T01:10:23Z</time>
      </trkpt>
      <trkpt lat="47.596303978934884" lon="18.821929022669792">
        <ele>407.262</ele>
        <time>2010-02-07T01:10:25Z</time>
      </trkpt>
      <trkpt lat="47.596332980319858" lon="18.821889963001013">
        <ele>406.78800000000001</ele>
        <time>2010-02-07T01:10:27Z</time>
      </trkpt>
      <trkpt lat="47.596361981704831" lon="18.821852998808026">
        <ele>405.53500000000003</ele>
        <time>2010-02-07T01:10:29Z</time>
      </trkpt>
      <trkpt lat="47.596396012231708" lon="18.821820979937911">
        <ele>404.50900000000001</ele>
        <time>2010-02-07T01:10:31Z</time>
      </trkpt>
      <trkpt lat="47.596429036930203" lon="18.821794996038079">
        <ele>403.601</ele>
        <time>2010-02-07T01:10:33Z</time>
      </trkpt>
      <trkpt lat="47.596471030265093" lon="18.821783009916544">
        <ele>402.77199999999999</ele>
        <time>2010-02-07T01:10:35Z</time>
      </trkpt>
      <trkpt lat="47.596510006114841" lon="18.821767000481486">
        <ele>402.61599999999999</ele>
        <time>2010-02-07T01:10:37Z</time>
      </trkpt>
      <trkpt lat="47.596547976136208" lon="18.821745039895177">
        <ele>402.12400000000002</ele>
        <time>2010-02-07T01:10:39Z</time>
      </trkpt>
      <trkpt lat="47.596592986956239" lon="18.821719978004694">
        <ele>400.923</ele>
        <time>2010-02-07T01:10:41Z</time>
      </trkpt>
      <trkpt lat="47.596636991947889" lon="18.82169097661972">
        <ele>400.613</ele>
        <time>2010-02-07T01:10:43Z</time>
      </trkpt>
      <trkpt lat="47.59668099693954" lon="18.821665998548269">
        <ele>399.10899999999998</ele>
        <time>2010-02-07T01:10:45Z</time>
      </trkpt>
      <trkpt lat="47.596719972789288" lon="18.821645965799689">
        <ele>398.161</ele>
        <time>2010-02-07T01:10:47Z</time>
      </trkpt>
      <trkpt lat="47.596760960295796" lon="18.82162501104176">
        <ele>396.012</ele>
        <time>2010-02-07T01:10:49Z</time>
      </trkpt>
      <trkpt lat="47.596795996651053" lon="18.821602966636419">
        <ele>395.22800000000001</ele>
        <time>2010-02-07T01:10:51Z</time>
      </trkpt>
      <trkpt lat="47.596838995814323" lon="18.821572959423065">
        <ele>393.94</ele>
        <time>2010-02-07T01:10:53Z</time>
      </trkpt>
      <trkpt lat="47.596883000805974" lon="18.821544963866472">
        <ele>394.37900000000002</ele>
        <time>2010-02-07T01:10:55Z</time>
      </trkpt>
      <trkpt lat="47.596927005797625" lon="18.82151897996664">
        <ele>393.351</ele>
        <time>2010-02-07T01:10:57Z</time>
      </trkpt>
      <trkpt lat="47.596970004960895" lon="18.821488972753286">
        <ele>393.11799999999999</ele>
        <time>2010-02-07T01:10:59Z</time>
      </trkpt>
      <trkpt lat="47.597014009952545" lon="18.821466006338596">
        <ele>392.37400000000002</ele>
        <time>2010-02-07T01:11:01Z</time>
      </trkpt>
      <trkpt lat="47.597060026600957" lon="18.821449996903539">
        <ele>391.78500000000003</ele>
        <time>2010-02-07T01:11:03Z</time>
      </trkpt>
      <trkpt lat="47.597109982743859" lon="18.821444967761636">
        <ele>390.68200000000002</ele>
        <time>2010-02-07T01:11:05Z</time>
      </trkpt>
      <trkpt lat="47.597157005220652" lon="18.821439016610384">
        <ele>389.49099999999999</ele>
        <time>2010-02-07T01:11:07Z</time>
      </trkpt>
      <trkpt lat="47.597207967191935" lon="18.821428036317229">
        <ele>389.35000000000002</ele>
        <time>2010-02-07T01:11:09Z</time>
      </trkpt>
      <trkpt lat="47.597251972183585" lon="18.821374978870153">
        <ele>387.649</ele>
        <time>2010-02-07T01:11:11Z</time>
      </trkpt>
      <trkpt lat="47.597277034074068" lon="18.821305995807052">
        <ele>386.84899999999999</ele>
        <time>2010-02-07T01:11:13Z</time>
      </trkpt>
      <trkpt lat="47.5973030179739" lon="18.821230977773666">
        <ele>385.30599999999998</ele>
        <time>2010-02-07T01:11:15Z</time>
      </trkpt>
      <trkpt lat="47.597323972731829" lon="18.821155037730932">
        <ele>384.00700000000001</ele>
        <time>2010-02-07T01:11:17Z</time>
      </trkpt>
      <trkpt lat="47.597342999652028" lon="18.821082031354308">
        <ele>384.01900000000001</ele>
        <time>2010-02-07T01:11:19Z</time>
      </trkpt>
      <trkpt lat="47.597355991601944" lon="18.821009024977684">
        <ele>381.35899999999998</ele>
        <time>2010-02-07T01:11:21Z</time>
      </trkpt>
      <trkpt lat="47.59736998938024" lon="18.820919003337622">
        <ele>381.27699999999999</ele>
        <time>2010-02-07T01:11:23Z</time>
      </trkpt>
      <trkpt lat="47.597387004643679" lon="18.820841973647475">
        <ele>380.72899999999998</ele>
        <time>2010-02-07T01:11:25Z</time>
      </trkpt>
      <trkpt lat="47.597401002421975" lon="18.820762010291219">
        <ele>379.63900000000001</ele>
        <time>2010-02-07T01:11:27Z</time>
      </trkpt>
      <trkpt lat="47.597415000200272" lon="18.820693027228117">
        <ele>379.35000000000002</ele>
        <time>2010-02-07T01:11:29Z</time>
      </trkpt>
      <trkpt lat="47.597437966614962" lon="18.820621026679873">
        <ele>379.42099999999999</ele>
        <time>2010-02-07T01:11:31Z</time>
      </trkpt>
      <trkpt lat="47.597462022677064" lon="18.820543996989727">
        <ele>379.09199999999998</ele>
        <time>2010-02-07T01:11:33Z</time>
      </trkpt>
      <trkpt lat="47.597477026283741" lon="18.820466967299581">
        <ele>378.46499999999997</ele>
        <time>2010-02-07T01:11:35Z</time>
      </trkpt>
      <trkpt lat="47.597481971606612" lon="18.820398990064859">
        <ele>378.73399999999998</ele>
        <time>2010-02-07T01:11:37Z</time>
      </trkpt>
      <trkpt lat="47.597479959949851" lon="18.820335958153009">
        <ele>379.137</ele>
        <time>2010-02-07T01:11:39Z</time>
      </trkpt>
      <trkpt lat="47.597478032112122" lon="18.820264963433146">
        <ele>377.49599999999998</ele>
        <time>2010-02-07T01:11:41Z</time>
      </trkpt>
      <trkpt lat="47.597487000748515" lon="18.820203021168709">
        <ele>377.17000000000002</ele>
        <time>2010-02-07T01:11:43Z</time>
      </trkpt>
      <trkpt lat="47.597496975213289" lon="18.820125991478562">
        <ele>376.22199999999998</ele>
        <time>2010-02-07T01:11:45Z</time>
      </trkpt>
      <trkpt lat="47.597500998526812" lon="18.820054996758699">
        <ele>375.75700000000001</ele>
        <time>2010-02-07T01:11:47Z</time>
      </trkpt>
      <trkpt lat="47.597520025447011" lon="18.81999003700912">
        <ele>375.452</ele>
        <time>2010-02-07T01:11:49Z</time>
      </trkpt>
      <trkpt lat="47.597537040710449" lon="18.819921975955367">
        <ele>375.113</ele>
        <time>2010-02-07T01:11:51Z</time>
      </trkpt>
      <trkpt lat="47.597551038488746" lon="18.819855004549026">
        <ele>374.61200000000002</ele>
        <time>2010-02-07T01:11:53Z</time>
      </trkpt>
      <trkpt lat="47.597565958276391" lon="18.819800019264221">
        <ele>374.589</ele>
        <time>2010-02-07T01:11:55Z</time>
      </trkpt>
      <trkpt lat="47.597576016560197" lon="18.819735981523991">
        <ele>374.17899999999997</ele>
        <time>2010-02-07T01:11:57Z</time>
      </trkpt>
      <trkpt lat="47.597600994631648" lon="18.819677978754044">
        <ele>374.05900000000003</ele>
        <time>2010-02-07T01:11:59Z</time>
      </trkpt>
      <trkpt lat="47.59762697853148" lon="18.819618970155716">
        <ele>374.24000000000001</ele>
        <time>2010-02-07T01:12:01Z</time>
      </trkpt>
      <trkpt lat="47.597650028765202" lon="18.819561973214149">
        <ele>373.80500000000001</ele>
        <time>2010-02-07T01:12:03Z</time>
      </trkpt>
      <trkpt lat="47.597679030150175" lon="18.819500030949712">
        <ele>373.52499999999998</ele>
        <time>2010-02-07T01:12:05Z</time>
      </trkpt>
      <trkpt lat="47.597699984908104" lon="18.819444961845875">
        <ele>373.88600000000002</ele>
        <time>2010-02-07T01:12:07Z</time>
      </trkpt>
      <trkpt lat="47.597729992121458" lon="18.819391988217831">
        <ele>372.98899999999998</ele>
        <time>2010-02-07T01:12:09Z</time>
      </trkpt>
      <trkpt lat="47.597747007384896" lon="18.819345971569419">
        <ele>372.17700000000002</ele>
        <time>2010-02-07T01:12:11Z</time>
      </trkpt>
      <trkpt lat="47.597785983234644" lon="18.819299032911658">
        <ele>372.20699999999999</ele>
        <time>2010-02-07T01:12:13Z</time>
      </trkpt>
      <trkpt lat="47.597811967134476" lon="18.819253016263247">
        <ele>372.54300000000001</ele>
        <time>2010-02-07T01:12:15Z</time>
      </trkpt>
      <trkpt lat="47.597836023196578" lon="18.819205993786454">
        <ele>372.09699999999998</ele>
        <time>2010-02-07T01:12:17Z</time>
      </trkpt>
      <trkpt lat="47.597864018753171" lon="18.819161988794804">
        <ele>371.959</ele>
        <time>2010-02-07T01:12:19Z</time>
      </trkpt>
      <trkpt lat="47.597901988774538" lon="18.819119995459914">
        <ele>372.202</ele>
        <time>2010-02-07T01:12:21Z</time>
      </trkpt>
      <trkpt lat="47.597939958795905" lon="18.819070039317012">
        <ele>371.86900000000003</ele>
        <time>2010-02-07T01:12:23Z</time>
      </trkpt>
      <trkpt lat="47.597977006807923" lon="18.819017987698317">
        <ele>371.61900000000003</ele>
        <time>2010-02-07T01:12:25Z</time>
      </trkpt>
      <trkpt lat="47.598007014021277" lon="18.818978006020188">
        <ele>370.75099999999998</ele>
        <time>2010-02-07T01:12:27Z</time>
      </trkpt>
      <trkpt lat="47.598042972385883" lon="18.818934001028538">
        <ele>370.50200000000001</ele>
        <time>2010-02-07T01:12:29Z</time>
      </trkpt>
      <trkpt lat="47.598072979599237" lon="18.818898964673281">
        <ele>370.899</ele>
        <time>2010-02-07T01:12:31Z</time>
      </trkpt>
      <trkpt lat="47.598112039268017" lon="18.818864012137055">
        <ele>370.29000000000002</ele>
        <time>2010-02-07T01:12:33Z</time>
      </trkpt>
      <trkpt lat="47.598155038431287" lon="18.818816989660263">
        <ele>369.87700000000001</ele>
        <time>2010-02-07T01:12:35Z</time>
      </trkpt>
      <trkpt lat="47.598190996795893" lon="18.818781031295657">
        <ele>370.28300000000002</ele>
        <time>2010-02-07T01:12:37Z</time>
      </trkpt>
      <trkpt lat="47.59822896681726" lon="18.818743983283639">
        <ele>369.702</ele>
        <time>2010-02-07T01:12:39Z</time>
      </trkpt>
      <trkpt lat="47.598260985687375" lon="18.818708024919033">
        <ele>369.61700000000002</ele>
        <time>2010-02-07T01:12:41Z</time>
      </trkpt>
      <trkpt lat="47.598301973193884" lon="18.818667959421873">
        <ele>368.85500000000002</ele>
        <time>2010-02-07T01:12:43Z</time>
      </trkpt>
      <trkpt lat="47.598337009549141" lon="18.818633006885648">
        <ele>369.16699999999997</ele>
        <time>2010-02-07T01:12:45Z</time>
      </trkpt>
      <trkpt lat="47.598371040076017" lon="18.8185940310359">
        <ele>367.93900000000002</ele>
        <time>2010-02-07T01:12:47Z</time>
      </trkpt>
      <trkpt lat="47.598412027582526" lon="18.81855103187263">
        <ele>368.34300000000002</ele>
        <time>2010-02-07T01:12:49Z</time>
      </trkpt>
      <trkpt lat="47.598452009260654" lon="18.818509038537741">
        <ele>367.52600000000001</ele>
        <time>2010-02-07T01:12:51Z</time>
      </trkpt>
      <trkpt lat="47.598491990938783" lon="18.818472996354103">
        <ele>367.738</ele>
        <time>2010-02-07T01:12:53Z</time>
      </trkpt>
      <trkpt lat="47.598526021465659" lon="18.818437959998846">
        <ele>366.96100000000001</ele>
        <time>2010-02-07T01:12:55Z</time>
      </trkpt>
      <trkpt lat="47.598558962345123" lon="18.81840099580586">
        <ele>367.10599999999999</ele>
        <time>2010-02-07T01:12:57Z</time>
      </trkpt>
      <trkpt lat="47.598595004528761" lon="18.818364031612873">
        <ele>366.935</ele>
        <time>2010-02-07T01:12:59Z</time>
      </trkpt>
      <trkpt lat="47.598630040884018" lon="18.818321032449603">
        <ele>366.50299999999999</ele>
        <time>2010-02-07T01:13:01Z</time>
      </trkpt>
      <trkpt lat="47.598662981763482" lon="18.818277027457952">
        <ele>366.495</ele>
        <time>2010-02-07T01:13:03Z</time>
      </trkpt>
      <trkpt lat="47.598696006461978" lon="18.818234028294683">
        <ele>366.81599999999997</ele>
        <time>2010-02-07T01:13:05Z</time>
      </trkpt>
      <trkpt lat="47.598727019503713" lon="18.818181976675987">
        <ele>366.22500000000002</ele>
        <time>2010-02-07T01:13:07Z</time>
      </trkpt>
      <trkpt lat="47.598763983696699" lon="18.818130008876324">
        <ele>365.88099999999997</ele>
        <time>2010-02-07T01:13:09Z</time>
      </trkpt>
      <trkpt lat="47.598792985081673" lon="18.818078963086009">
        <ele>365.25</ele>
        <time>2010-02-07T01:13:11Z</time>
      </trkpt>
      <trkpt lat="47.598820980638266" lon="18.818028001114726">
        <ele>364.54000000000002</ele>
        <time>2010-02-07T01:13:13Z</time>
      </trkpt>
      <trkpt lat="47.598847970366478" lon="18.81797201000154">
        <ele>364.43599999999998</ele>
        <time>2010-02-07T01:13:15Z</time>
      </trkpt>
      <trkpt lat="47.598877977579832" lon="18.817919958382845">
        <ele>362.25099999999998</ele>
        <time>2010-02-07T01:13:17Z</time>
      </trkpt>
      <trkpt lat="47.598911002278328" lon="18.817861033603549">
        <ele>361.613</ele>
        <time>2010-02-07T01:13:19Z</time>
      </trkpt>
      <trkpt lat="47.598938997834921" lon="18.817804036661983">
        <ele>361.54500000000002</ele>
        <time>2010-02-07T01:13:21Z</time>
      </trkpt>
      <trkpt lat="47.598975040018559" lon="18.817752990871668">
        <ele>360.80700000000002</ele>
        <time>2010-02-07T01:13:23Z</time>
      </trkpt>
      <trkpt lat="47.599007980898023" lon="18.817698005586863">
        <ele>360.27699999999999</ele>
        <time>2010-02-07T01:13:25Z</time>
      </trkpt>
      <trkpt lat="47.599041005596519" lon="18.817643020302057">
        <ele>359.77600000000001</ele>
        <time>2010-02-07T01:13:27Z</time>
      </trkpt>
      <trkpt lat="47.59906598366797" lon="18.817588035017252">
        <ele>359.44299999999998</ele>
        <time>2010-02-07T01:13:29Z</time>
      </trkpt>
      <trkpt lat="47.599094985052943" lon="18.817529026418924">
        <ele>359.03100000000001</ele>
        <time>2010-02-07T01:13:31Z</time>
      </trkpt>
      <trkpt lat="47.599125998094678" lon="18.817471023648977">
        <ele>358.49400000000003</ele>
        <time>2010-02-07T01:13:33Z</time>
      </trkpt>
      <trkpt lat="47.599159022793174" lon="18.817419977858663">
        <ele>358.15899999999999</ele>
        <time>2010-02-07T01:13:35Z</time>
      </trkpt>
      <trkpt lat="47.599192969501019" lon="18.817364992573857">
        <ele>357.59899999999999</ele>
        <time>2010-02-07T01:13:37Z</time>
      </trkpt>
      <trkpt lat="47.599227000027895" lon="18.817313024774194">
        <ele>355.803</ele>
        <time>2010-02-07T01:13:39Z</time>
      </trkpt>
      <trkpt lat="47.59925901889801" lon="18.81726399064064">
        <ele>355.00900000000001</ele>
        <time>2010-02-07T01:13:41Z</time>
      </trkpt>
      <trkpt lat="47.599283996969461" lon="18.817212022840977">
        <ele>354.21300000000002</ele>
        <time>2010-02-07T01:13:43Z</time>
      </trkpt>
      <trkpt lat="47.599316015839577" lon="18.817168017849326">
        <ele>353.65600000000001</ele>
        <time>2010-02-07T01:13:45Z</time>
      </trkpt>
      <trkpt lat="47.599350968375802" lon="18.817122001200914">
        <ele>352.47899999999998</ele>
        <time>2010-02-07T01:13:47Z</time>
      </trkpt>
      <trkpt lat="47.599380975589156" lon="18.817071039229631">
        <ele>352.32900000000001</ele>
        <time>2010-02-07T01:13:49Z</time>
      </trkpt>
      <trkpt lat="47.599412994459271" lon="18.817020999267697">
        <ele>350.93400000000003</ele>
        <time>2010-02-07T01:13:51Z</time>
      </trkpt>
      <trkpt lat="47.599438978359103" lon="18.816967019811273">
        <ele>350.45600000000002</ele>
        <time>2010-02-07T01:13:53Z</time>
      </trkpt>
      <trkpt lat="47.599465968087316" lon="18.816908011212945">
        <ele>349.76100000000002</ele>
        <time>2010-02-07T01:13:55Z</time>
      </trkpt>
      <trkpt lat="47.599494969472289" lon="18.816842967644334">
        <ele>349.55099999999999</ele>
        <time>2010-02-07T01:13:57Z</time>
      </trkpt>
      <trkpt lat="47.599520031362772" lon="18.816779013723135">
        <ele>348.60399999999998</ele>
        <time>2010-02-07T01:13:59Z</time>
      </trkpt>
      <trkpt lat="47.599544003605843" lon="18.816718999296427">
        <ele>347.584</ele>
        <time>2010-02-07T01:14:01Z</time>
      </trkpt>
      <trkpt lat="47.599565964192152" lon="18.816652027890086">
        <ele>346.05500000000001</ele>
        <time>2010-02-07T01:14:03Z</time>
      </trkpt>
      <trkpt lat="47.599590020254254" lon="18.81659503094852">
        <ele>345.024</ele>
        <time>2010-02-07T01:14:05Z</time>
      </trkpt>
      <trkpt lat="47.599612986668944" lon="18.816525964066386">
        <ele>344.63099999999997</ele>
        <time>2010-02-07T01:14:07Z</time>
      </trkpt>
      <trkpt lat="47.599628996104002" lon="18.816453041508794">
        <ele>343.12799999999999</ele>
        <time>2010-02-07T01:14:09Z</time>
      </trkpt>
      <trkpt lat="47.599656991660595" lon="18.816386992111802">
        <ele>342.529</ele>
        <time>2010-02-07T01:14:11Z</time>
      </trkpt>
      <trkpt lat="47.599690016359091" lon="18.816331000998616">
        <ele>342.13600000000002</ele>
        <time>2010-02-07T01:14:13Z</time>
      </trkpt>
      <trkpt lat="47.5997119769454" lon="18.816272998228669">
        <ele>342.29000000000002</ele>
        <time>2010-02-07T01:14:15Z</time>
      </trkpt>
      <trkpt lat="47.59973200969398" lon="18.816213989630342">
        <ele>342.26900000000001</ele>
        <time>2010-02-07T01:14:17Z</time>
      </trkpt>
      <trkpt lat="47.599750030785799" lon="18.816156992688775">
        <ele>341.09899999999999</ele>
        <time>2010-02-07T01:14:19Z</time>
      </trkpt>
      <trkpt lat="47.599772997200489" lon="18.816092032939196">
        <ele>339.29500000000002</ele>
        <time>2010-02-07T01:14:21Z</time>
      </trkpt>
      <trkpt lat="47.599783977493644" lon="18.816023971885443">
        <ele>339.17099999999999</ele>
        <time>2010-02-07T01:14:23Z</time>
      </trkpt>
      <trkpt lat="47.599812978878617" lon="18.815966974943876">
        <ele>338.959</ele>
        <time>2010-02-07T01:14:25Z</time>
      </trkpt>
      <trkpt lat="47.599835023283958" lon="18.815908972173929">
        <ele>338.55599999999998</ele>
        <time>2010-02-07T01:14:27Z</time>
      </trkpt>
      <trkpt lat="47.599856983870268" lon="18.81584401242435">
        <ele>337.94999999999999</ele>
        <time>2010-02-07T01:14:29Z</time>
      </trkpt>
      <trkpt lat="47.599891014397144" lon="18.815776035189629">
        <ele>337.48599999999999</ele>
        <time>2010-02-07T01:14:31Z</time>
      </trkpt>
      <trkpt lat="47.59992403909564" lon="18.815713003277779">
        <ele>337.56299999999999</ele>
        <time>2010-02-07T01:14:33Z</time>
      </trkpt>
      <trkpt lat="47.599939964711666" lon="18.815639996901155">
        <ele>337.05000000000001</ele>
        <time>2010-02-07T01:14:35Z</time>
      </trkpt>
      <trkpt lat="47.599956979975104" lon="18.815578976646066">
        <ele>336.99799999999999</ele>
        <time>2010-02-07T01:14:37Z</time>
      </trkpt>
      <trkpt lat="47.599977012723684" lon="18.815518040210009">
        <ele>336.15199999999999</ele>
        <time>2010-02-07T01:14:39Z</time>
      </trkpt>
      <trkpt lat="47.59998899884522" lon="18.815456014126539">
        <ele>335.87099999999998</ele>
        <time>2010-02-07T01:14:41Z</time>
      </trkpt>
      <trkpt lat="47.600006014108658" lon="18.815388036891818">
        <ele>335.72699999999998</ele>
        <time>2010-02-07T01:14:43Z</time>
      </trkpt>
      <trkpt lat="47.600023029372096" lon="18.81532802246511">
        <ele>335.35700000000003</ele>
        <time>2010-02-07T01:14:45Z</time>
      </trkpt>
      <trkpt lat="47.60005203075707" lon="18.81526599638164">
        <ele>334.56299999999999</ele>
        <time>2010-02-07T01:14:47Z</time>
      </trkpt>
      <trkpt lat="47.600073991343379" lon="18.815201036632061">
        <ele>334.53699999999998</ele>
        <time>2010-02-07T01:14:49Z</time>
      </trkpt>
      <trkpt lat="47.600087989121675" lon="18.81513699889183">
        <ele>334.31700000000001</ele>
        <time>2010-02-07T01:14:51Z</time>
      </trkpt>
      <trkpt lat="47.600103998556733" lon="18.815075978636742">
        <ele>333.99400000000003</ele>
        <time>2010-02-07T01:14:53Z</time>
      </trkpt>
      <trkpt lat="47.600126964971423" lon="18.815014958381653">
        <ele>333.37099999999998</ele>
        <time>2010-02-07T01:14:55Z</time>
      </trkpt>
      <trkpt lat="47.600140040740371" lon="18.814961984753609">
        <ele>333.50999999999999</ele>
        <time>2010-02-07T01:14:57Z</time>
      </trkpt>
      <trkpt lat="47.600144986063242" lon="18.814903981983662">
        <ele>332.50200000000001</ele>
        <time>2010-02-07T01:14:59Z</time>
      </trkpt>
      <trkpt lat="47.600149009376764" lon="18.814848996698856">
        <ele>331.49599999999998</ele>
        <time>2010-02-07T01:15:01Z</time>
      </trkpt>
      <trkpt lat="47.600157978013158" lon="18.814785964787006">
        <ele>331.11700000000002</ele>
        <time>2010-02-07T01:15:03Z</time>
      </trkpt>
      <trkpt lat="47.600159989669919" lon="18.814709018915892">
        <ele>330.661</ele>
        <time>2010-02-07T01:15:05Z</time>
      </trkpt>
      <trkpt lat="47.600178010761738" lon="18.814635006710887">
        <ele>330.137</ele>
        <time>2010-02-07T01:15:07Z</time>
      </trkpt>
      <trkpt lat="47.600191002711654" lon="18.814567029476166">
        <ele>329.06</ele>
        <time>2010-02-07T01:15:09Z</time>
      </trkpt>
      <trkpt lat="47.600201983004808" lon="18.81451397202909">
        <ele>328.64999999999998</ele>
        <time>2010-02-07T01:15:11Z</time>
      </trkpt>
      <trkpt lat="47.600217992439866" lon="18.81444901227951">
        <ele>328.53500000000003</ele>
        <time>2010-02-07T01:15:13Z</time>
      </trkpt>
      <trkpt lat="47.600228972733021" lon="18.814387992024422">
        <ele>328.34100000000001</ele>
        <time>2010-02-07T01:15:15Z</time>
      </trkpt>
      <trkpt lat="47.600238025188446" lon="18.814320014789701">
        <ele>327.416</ele>
        <time>2010-02-07T01:15:17Z</time>
      </trkpt>
      <trkpt lat="47.600237019360065" lon="18.814248014241457">
        <ele>326.00400000000002</ele>
        <time>2010-02-07T01:15:19Z</time>
      </trkpt>
      <trkpt lat="47.600244982168078" lon="18.81419001147151">
        <ele>325.01600000000002</ele>
        <time>2010-02-07T01:15:21Z</time>
      </trkpt>
      <trkpt lat="47.600259985774755" lon="18.814136032015085">
        <ele>324.52300000000002</ele>
        <time>2010-02-07T01:15:23Z</time>
      </trkpt>
      <trkpt lat="47.600281024351716" lon="18.814068976789713">
        <ele>324.58999999999997</ele>
        <time>2010-02-07T01:15:25Z</time>
      </trkpt>
      <trkpt lat="47.600292004644871" lon="18.814007034525275">
        <ele>323.05700000000002</ele>
        <time>2010-02-07T01:15:27Z</time>
      </trkpt>
      <trkpt lat="47.600298961624503" lon="18.813936961814761">
        <ele>322.30599999999998</ele>
        <time>2010-02-07T01:15:29Z</time>
      </trkpt>
      <trkpt lat="47.60031103156507" lon="18.813869990408421">
        <ele>321.17399999999998</ele>
        <time>2010-02-07T01:15:31Z</time>
      </trkpt>
      <trkpt lat="47.600324023514986" lon="18.813801007345319">
        <ele>321.82799999999997</ele>
        <time>2010-02-07T01:15:33Z</time>
      </trkpt>
      <trkpt lat="47.600341960787773" lon="18.813753984868526">
        <ele>320.976</ele>
        <time>2010-02-07T01:15:35Z</time>
      </trkpt>
      <trkpt lat="47.600344978272915" lon="18.813682990148664">
        <ele>320.74400000000003</ele>
        <time>2010-02-07T01:15:37Z</time>
      </trkpt>
      <trkpt lat="47.600351013243198" lon="18.813621969893575">
        <ele>319.77199999999999</ele>
        <time>2010-02-07T01:15:39Z</time>
      </trkpt>
      <trkpt lat="47.60035696439445" lon="18.813562039285898">
        <ele>318.447</ele>
        <time>2010-02-07T01:15:41Z</time>
      </trkpt>
      <trkpt lat="47.600379008799791" lon="18.813507976010442">
        <ele>317.726</ele>
        <time>2010-02-07T01:15:43Z</time>
      </trkpt>
      <trkpt lat="47.60039602406323" lon="18.813447039574385">
        <ele>316.56</ele>
        <time>2010-02-07T01:15:45Z</time>
      </trkpt>
      <trkpt lat="47.600403986871243" lon="18.813390964642167">
        <ele>315.72000000000003</ele>
        <time>2010-02-07T01:15:47Z</time>
      </trkpt>
      <trkpt lat="47.600413039326668" lon="18.813329022377729">
        <ele>314.99400000000003</ele>
        <time>2010-02-07T01:15:49Z</time>
      </trkpt>
      <trkpt lat="47.600428964942694" lon="18.813274959102273">
        <ele>314.947</ele>
        <time>2010-02-07T01:15:51Z</time>
      </trkpt>
      <trkpt lat="47.600451009348035" lon="18.813219973817468">
        <ele>314.077</ele>
        <time>2010-02-07T01:15:53Z</time>
      </trkpt>
      <trkpt lat="47.600464001297951" lon="18.813162976875901">
        <ele>314.00700000000001</ele>
        <time>2010-02-07T01:15:55Z</time>
      </trkpt>
      <trkpt lat="47.600476993247867" lon="18.813102962449193">
        <ele>313.113</ele>
        <time>2010-02-07T01:15:57Z</time>
      </trkpt>
      <trkpt lat="47.600472969934344" lon="18.813026016578078">
        <ele>312.86000000000001</ele>
        <time>2010-02-07T01:15:59Z</time>
      </trkpt>
      <trkpt lat="47.600484034046531" lon="18.812969019636512">
        <ele>312.82799999999997</ele>
        <time>2010-02-07T01:16:01Z</time>
      </trkpt>
      <trkpt lat="47.600489985197783" lon="18.812903976067901">
        <ele>312.33699999999999</ele>
        <time>2010-02-07T01:16:03Z</time>
      </trkpt>
      <trkpt lat="47.600493002682924" lon="18.812830969691277">
        <ele>310.91899999999998</ele>
        <time>2010-02-07T01:16:05Z</time>
      </trkpt>
      <trkpt lat="47.600500965490937" lon="18.812756035476923">
        <ele>310.52199999999999</ele>
        <time>2010-02-07T01:16:07Z</time>
      </trkpt>
      <trkpt lat="47.600507000461221" lon="18.812685962766409">
        <ele>310.31200000000001</ele>
        <time>2010-02-07T01:16:09Z</time>
      </trkpt>
      <trkpt lat="47.600524015724659" lon="18.812623014673591">
        <ele>308.81200000000001</ele>
        <time>2010-02-07T01:16:11Z</time>
      </trkpt>
      <trkpt lat="47.600536001846194" lon="18.81255797110498">
        <ele>307.77300000000002</ele>
        <time>2010-02-07T01:16:13Z</time>
      </trkpt>
      <trkpt lat="47.60054899379611" lon="18.812488988041878">
        <ele>307.70499999999998</ele>
        <time>2010-02-07T01:16:15Z</time>
      </trkpt>
      <trkpt lat="47.600570032373071" lon="18.812425034120679">
        <ele>307.685</ele>
        <time>2010-02-07T01:16:17Z</time>
      </trkpt>
      <trkpt lat="47.600586041808128" lon="18.812358984723687">
        <ele>307.31299999999999</ele>
        <time>2010-02-07T01:16:19Z</time>
      </trkpt>
      <trkpt lat="47.600606996566057" lon="18.812286984175444">
        <ele>306.60599999999999</ele>
        <time>2010-02-07T01:16:21Z</time>
      </trkpt>
      <trkpt lat="47.600619988515973" lon="18.8122149836272">
        <ele>306.31200000000001</ele>
        <time>2010-02-07T01:16:23Z</time>
      </trkpt>
      <trkpt lat="47.600629962980747" lon="18.81214801222086">
        <ele>306.39999999999998</ele>
        <time>2010-02-07T01:16:25Z</time>
      </trkpt>
      <trkpt lat="47.600637003779411" lon="18.812083974480629">
        <ele>305.69299999999998</ele>
        <time>2010-02-07T01:16:27Z</time>
      </trkpt>
      <trkpt lat="47.600653013214469" lon="18.812017003074288">
        <ele>305.584</ele>
        <time>2010-02-07T01:16:29Z</time>
      </trkpt>
      <trkpt lat="47.600672040134668" lon="18.8119559828192">
        <ele>304.68400000000003</ele>
        <time>2010-02-07T01:16:31Z</time>
      </trkpt>
      <trkpt lat="47.600684026256204" lon="18.811898985877633">
        <ele>304.72699999999998</ele>
        <time>2010-02-07T01:16:33Z</time>
      </trkpt>
      <trkpt lat="47.600704981014132" lon="18.811840983107686">
        <ele>303.69499999999999</ele>
        <time>2010-02-07T01:16:35Z</time>
      </trkpt>
      <trkpt lat="47.600714033469558" lon="18.811782980337739">
        <ele>302.88900000000001</ele>
        <time>2010-02-07T01:16:37Z</time>
      </trkpt>
      <trkpt lat="47.600771030411124" lon="18.811620958149433">
        <ele>302.56</ele>
        <time>2010-02-07T01:16:42Z</time>
      </trkpt>
      <trkpt lat="47.600797014310956" lon="18.811531020328403">
        <ele>301.67700000000002</ele>
        <time>2010-02-07T01:16:45Z</time>
      </trkpt>
      <trkpt lat="47.600811012089252" lon="18.811450973153114">
        <ele>301.07400000000001</ele>
        <time>2010-02-07T01:16:47Z</time>
      </trkpt>
      <trkpt lat="47.60082601569593" lon="18.811389030888677">
        <ele>300.79399999999998</ele>
        <time>2010-02-07T01:16:49Z</time>
      </trkpt>
      <trkpt lat="47.600833978503942" lon="18.811321975663304">
        <ele>300.73599999999999</ele>
        <time>2010-02-07T01:16:51Z</time>
      </trkpt>
      <trkpt lat="47.600842025130987" lon="18.811259027570486">
        <ele>299.95400000000001</ele>
        <time>2010-02-07T01:16:53Z</time>
      </trkpt>
      <trkpt lat="47.600845964625478" lon="18.811194989830256">
        <ele>299.36000000000001</ele>
        <time>2010-02-07T01:16:55Z</time>
      </trkpt>
      <trkpt lat="47.600853005424142" lon="18.811130030080676">
        <ele>299.613</ele>
        <time>2010-02-07T01:16:57Z</time>
      </trkpt>
      <trkpt lat="47.600864991545677" lon="18.811074960976839">
        <ele>297.79300000000001</ele>
        <time>2010-02-07T01:16:59Z</time>
      </trkpt>
      <trkpt lat="47.600873960182071" lon="18.811007989570498">
        <ele>298.67700000000002</ele>
        <time>2010-02-07T01:17:02Z</time>
      </trkpt>
      <trkpt lat="47.600886030122638" lon="18.810949986800551">
        <ele>298.572</ele>
        <time>2010-02-07T01:17:04Z</time>
      </trkpt>
      <trkpt lat="47.600886030122638" lon="18.810879997909069">
        <ele>298.40199999999999</ele>
        <time>2010-02-07T01:17:06Z</time>
      </trkpt>
      <trkpt lat="47.60089298710227" lon="18.810819983482361">
        <ele>297.43200000000002</ele>
        <time>2010-02-07T01:17:08Z</time>
      </trkpt>
      <trkpt lat="47.600904973223805" lon="18.810758963227272">
        <ele>297.26499999999999</ele>
        <time>2010-02-07T01:17:10Z</time>
      </trkpt>
      <trkpt lat="47.60091201402247" lon="18.810698026791215">
        <ele>296.964</ele>
        <time>2010-02-07T01:17:12Z</time>
      </trkpt>
      <trkpt lat="47.600926011800766" lon="18.81064304150641">
        <ele>296.322</ele>
        <time>2010-02-07T01:17:14Z</time>
      </trkpt>
      <trkpt lat="47.600945038720965" lon="18.810584032908082">
        <ele>296.90699999999998</ele>
        <time>2010-02-07T01:17:16Z</time>
      </trkpt>
      <trkpt lat="47.600959958508611" lon="18.810529969632626">
        <ele>296.64600000000002</ele>
        <time>2010-02-07T01:17:18Z</time>
      </trkpt>
      <trkpt lat="47.600983008742332" lon="18.810468027368188">
        <ele>296.32499999999999</ele>
        <time>2010-02-07T01:17:20Z</time>
      </trkpt>
      <trkpt lat="47.601000024005771" lon="18.810404995456338">
        <ele>296.63999999999999</ele>
        <time>2010-02-07T01:17:22Z</time>
      </trkpt>
      <trkpt lat="47.601007986813784" lon="18.810341041535139">
        <ele>296.42700000000002</ele>
        <time>2010-02-07T01:17:24Z</time>
      </trkpt>
      <trkpt lat="47.601008992642164" lon="18.810282032936811">
        <ele>296.05599999999998</ele>
        <time>2010-02-07T01:17:26Z</time>
      </trkpt>
      <trkpt lat="47.601015027612448" lon="18.81023702211678">
        <ele>296.41199999999998</ele>
        <time>2010-02-07T01:17:28Z</time>
      </trkpt>
      <trkpt lat="47.601022990420461" lon="18.810182958841324">
        <ele>295.94799999999998</ele>
        <time>2010-02-07T01:17:30Z</time>
      </trkpt>
      <trkpt lat="47.601028019562364" lon="18.810123028233647">
        <ele>296.19200000000001</ele>
        <time>2010-02-07T01:17:32Z</time>
      </trkpt>
      <trkpt lat="47.601037994027138" lon="18.81006401963532">
        <ele>294.89600000000002</ele>
        <time>2010-02-07T01:17:34Z</time>
      </trkpt>
      <trkpt lat="47.601043023169041" lon="18.81000199355185">
        <ele>295.298</ele>
        <time>2010-02-07T01:17:36Z</time>
      </trkpt>
      <trkpt lat="47.601045034825802" lon="18.809937033802271">
        <ele>295.43900000000002</ele>
        <time>2010-02-07T01:17:38Z</time>
      </trkpt>
      <trkpt lat="47.601044028997421" lon="18.80987299606204">
        <ele>295.20699999999999</ele>
        <time>2010-02-07T01:17:40Z</time>
      </trkpt>
      <trkpt lat="47.601030031219125" lon="18.809817004948854">
        <ele>294.67099999999999</ele>
        <time>2010-02-07T01:17:42Z</time>
      </trkpt>
      <trkpt lat="47.601015027612448" lon="18.809765037149191">
        <ele>294.37</ele>
        <time>2010-02-07T01:17:44Z</time>
      </trkpt>
      <trkpt lat="47.601001029834151" lon="18.809710973873734">
        <ele>295.24700000000001</ele>
        <time>2010-02-07T01:17:46Z</time>
      </trkpt>
      <trkpt lat="47.600987032055855" lon="18.809655988588929">
        <ele>294.71800000000002</ele>
        <time>2010-02-07T01:17:48Z</time>
      </trkpt>
      <trkpt lat="47.60097797960043" lon="18.809602009132504">
        <ele>294.06999999999999</ele>
        <time>2010-02-07T01:17:50Z</time>
      </trkpt>
      <trkpt lat="47.600962975993752" lon="18.809541994705796">
        <ele>294.37200000000001</ele>
        <time>2010-02-07T01:17:52Z</time>
      </trkpt>
      <trkpt lat="47.600949984043837" lon="18.809483991935849">
        <ele>293.68900000000002</ele>
        <time>2010-02-07T01:17:54Z</time>
      </trkpt>
      <trkpt lat="47.600936992093921" lon="18.809420960023999">
        <ele>293.49000000000001</ele>
        <time>2010-02-07T01:17:56Z</time>
      </trkpt>
      <trkpt lat="47.600914025679231" lon="18.809350971132517">
        <ele>293.35500000000002</ele>
        <time>2010-02-07T01:17:58Z</time>
      </trkpt>
      <trkpt lat="47.60089298710227" lon="18.809283999726176">
        <ele>293.16500000000002</ele>
        <time>2010-02-07T01:18:00Z</time>
      </trkpt>
      <trkpt lat="47.600873960182071" lon="18.80922700278461">
        <ele>293.33499999999998</ele>
        <time>2010-02-07T01:18:02Z</time>
      </trkpt>
      <trkpt lat="47.600864991545677" lon="18.809174029156566">
        <ele>292.85000000000002</ele>
        <time>2010-02-07T01:18:04Z</time>
      </trkpt>
      <trkpt lat="47.600854011252522" lon="18.809117032214999">
        <ele>293.09300000000002</ele>
        <time>2010-02-07T01:18:06Z</time>
      </trkpt>
      <trkpt lat="47.600842025130987" lon="18.809059029445052">
        <ele>292.79599999999999</ele>
        <time>2010-02-07T01:18:08Z</time>
      </trkpt>
      <trkpt lat="47.600832972675562" lon="18.809002032503486">
        <ele>292.51299999999998</ele>
        <time>2010-02-07T01:18:10Z</time>
      </trkpt>
      <trkpt lat="47.600822998210788" lon="18.808945035561919">
        <ele>292.67599999999999</ele>
        <time>2010-02-07T01:18:12Z</time>
      </trkpt>
      <trkpt lat="47.600811012089252" lon="18.808889966458082">
        <ele>292.72199999999998</ele>
        <time>2010-02-07T01:18:14Z</time>
      </trkpt>
      <trkpt lat="47.600799025967717" lon="18.808844033628702">
        <ele>292.67599999999999</ele>
        <time>2010-02-07T01:18:16Z</time>
      </trkpt>
      <trkpt lat="47.600787961855531" lon="18.808799022808671">
        <ele>292.75200000000001</ele>
        <time>2010-02-07T01:18:18Z</time>
      </trkpt>
      <trkpt lat="47.600777987390757" lon="18.808757029473782">
        <ele>292.30000000000001</ele>
        <time>2010-02-07T01:18:20Z</time>
      </trkpt>
      <trkpt lat="47.600760972127318" lon="18.80869098007679">
        <ele>292.23200000000003</ele>
        <time>2010-02-07T01:18:23Z</time>
      </trkpt>
      <trkpt lat="47.600747980177402" lon="18.808620991185308">
        <ele>292.45600000000002</ele>
        <time>2010-02-07T01:18:26Z</time>
      </trkpt>
      <trkpt lat="47.600738005712628" lon="18.808546978980303">
        <ele>292.18000000000001</ele>
        <time>2010-02-07T01:18:29Z</time>
      </trkpt>
      <trkpt lat="47.600723002105951" lon="18.808501968160272">
        <ele>292.40499999999997</ele>
        <time>2010-02-07T01:18:31Z</time>
      </trkpt>
      <trkpt lat="47.600713027641177" lon="18.808448994532228">
        <ele>292.00400000000002</ele>
        <time>2010-02-07T01:18:33Z</time>
      </trkpt>
      <trkpt lat="47.600696012377739" lon="18.808384034782648">
        <ele>292.31700000000001</ele>
        <time>2010-02-07T01:18:35Z</time>
      </trkpt>
      <trkpt lat="47.600680002942681" lon="18.808329971507192">
        <ele>291.55000000000001</ele>
        <time>2010-02-07T01:18:37Z</time>
      </trkpt>
      <trkpt lat="47.600652007386088" lon="18.808285966515541">
        <ele>291.19799999999998</ele>
        <time>2010-02-07T01:18:39Z</time>
      </trkpt>
      <trkpt lat="47.600610014051199" lon="18.808254031464458">
        <ele>291.33100000000002</ele>
        <time>2010-02-07T01:18:41Z</time>
      </trkpt>
      <trkpt lat="47.600574977695942" lon="18.8082189951092">
        <ele>291.06299999999999</ele>
        <time>2010-02-07T01:18:43Z</time>
      </trkpt>
      <trkpt lat="47.600527033209801" lon="18.808189993724227">
        <ele>290.28800000000001</ele>
        <time>2010-02-07T01:18:45Z</time>
      </trkpt>
      <trkpt lat="47.600480010733008" lon="18.808154035359621">
        <ele>290.19499999999999</ele>
        <time>2010-02-07T01:18:47Z</time>
      </trkpt>
      <trkpt lat="47.600433994084597" lon="18.808113969862461">
        <ele>289.49200000000002</ele>
        <time>2010-02-07T01:18:49Z</time>
      </trkpt>
      <trkpt lat="47.600386971607804" lon="18.808078011497855">
        <ele>288.30700000000002</ele>
        <time>2010-02-07T01:18:51Z</time>
      </trkpt>
      <trkpt lat="47.600345984101295" lon="18.808041969314218">
        <ele>287.45800000000003</ele>
        <time>2010-02-07T01:18:53Z</time>
      </trkpt>
      <trkpt lat="47.600297033786774" lon="18.808009028434753">
        <ele>287.38299999999998</ele>
        <time>2010-02-07T01:18:55Z</time>
      </trkpt>
      <trkpt lat="47.600259985774755" lon="18.807971980422735">
        <ele>286.96199999999999</ele>
        <time>2010-02-07T01:18:57Z</time>
      </trkpt>
      <trkpt lat="47.600221009925008" lon="18.80793702788651">
        <ele>285.97300000000001</ele>
        <time>2010-02-07T01:18:59Z</time>
      </trkpt>
      <trkpt lat="47.60018396191299" lon="18.807893022894859">
        <ele>285.63999999999999</ele>
        <time>2010-02-07T01:19:01Z</time>
      </trkpt>
      <trkpt lat="47.600146997720003" lon="18.807841977104545">
        <ele>285.12599999999998</ele>
        <time>2010-02-07T01:19:03Z</time>
      </trkpt>
      <trkpt lat="47.600122019648552" lon="18.807795960456133">
        <ele>284.94900000000001</ele>
        <time>2010-02-07T01:19:05Z</time>
      </trkpt>
      <trkpt lat="47.600099975243211" lon="18.807742986828089">
        <ele>284.47399999999999</ele>
        <time>2010-02-07T01:19:07Z</time>
      </trkpt>
      <trkpt lat="47.600057981908321" lon="18.807685989886522">
        <ele>283.55200000000002</ele>
        <time>2010-02-07T01:19:09Z</time>
      </trkpt>
      <trkpt lat="47.600016994401813" lon="18.807654976844788">
        <ele>282.93799999999999</ele>
        <time>2010-02-07T01:19:11Z</time>
      </trkpt>
      <trkpt lat="47.599978018552065" lon="18.807626981288195">
        <ele>282.78399999999999</ele>
        <time>2010-02-07T01:19:13Z</time>
      </trkpt>
      <trkpt lat="47.599940970540047" lon="18.807588005438447">
        <ele>282.29300000000001</ele>
        <time>2010-02-07T01:19:15Z</time>
      </trkpt>
      <trkpt lat="47.599893026053905" lon="18.807544000446796">
        <ele>281.99799999999999</ele>
        <time>2010-02-07T01:19:17Z</time>
      </trkpt>
      <trkpt lat="47.599848015233874" lon="18.807521034032106">
        <ele>281.69600000000003</ele>
        <time>2010-02-07T01:19:19Z</time>
      </trkpt>
      <trkpt lat="47.599813984706998" lon="18.80748700350523">
        <ele>281.471</ele>
        <time>2010-02-07T01:19:21Z</time>
      </trkpt>
      <trkpt lat="47.599769979715347" lon="18.807468982413411">
        <ele>281.65100000000001</ele>
        <time>2010-02-07T01:19:23Z</time>
      </trkpt>
      <trkpt lat="47.599727986380458" lon="18.807446015998721">
        <ele>281.44799999999998</ele>
        <time>2010-02-07T01:19:25Z</time>
      </trkpt>
      <trkpt lat="47.599681969732046" lon="18.807417014613748">
        <ele>280.75</ele>
        <time>2010-02-07T01:19:27Z</time>
      </trkpt>
      <trkpt lat="47.599636958912015" lon="18.807388013228774">
        <ele>279.49799999999999</ele>
        <time>2010-02-07T01:19:29Z</time>
      </trkpt>
      <trkpt lat="47.599593037739396" lon="18.807370997965336">
        <ele>279.59100000000001</ele>
        <time>2010-02-07T01:19:31Z</time>
      </trkpt>
      <trkpt lat="47.599551966413856" lon="18.807355994358659">
        <ele>278.47699999999998</ele>
        <time>2010-02-07T01:19:33Z</time>
      </trkpt>
      <trkpt lat="47.599510978907347" lon="18.807333027943969">
        <ele>278.5</ele>
        <time>2010-02-07T01:19:35Z</time>
      </trkpt>
      <trkpt lat="47.599465968087316" lon="18.807306038215756">
        <ele>278.06900000000002</ele>
        <time>2010-02-07T01:19:37Z</time>
      </trkpt>
      <trkpt lat="47.599429003894329" lon="18.807261027395725">
        <ele>277.64800000000002</ele>
        <time>2010-02-07T01:19:39Z</time>
      </trkpt>
      <trkpt lat="47.599392961710691" lon="18.807226996868849">
        <ele>277.75400000000002</ele>
        <time>2010-02-07T01:19:41Z</time>
      </trkpt>
      <trkpt lat="47.599352980032563" lon="18.807171005755663">
        <ele>277.45400000000001</ele>
        <time>2010-02-07T01:19:43Z</time>
      </trkpt>
      <trkpt lat="47.599312998354435" lon="18.807127000764012">
        <ele>277.15699999999998</ele>
        <time>2010-02-07T01:19:45Z</time>
      </trkpt>
      <trkpt lat="47.599287014454603" lon="18.807081989943981">
        <ele>276.40300000000002</ele>
        <time>2010-02-07T01:19:47Z</time>
      </trkpt>
      <trkpt lat="47.599251978099346" lon="18.807022981345654">
        <ele>275.54300000000001</ele>
        <time>2010-02-07T01:19:50Z</time>
      </trkpt>
      <trkpt lat="47.599220965057611" lon="18.806976964697242">
        <ele>274.95499999999998</ele>
        <time>2010-02-07T01:19:52Z</time>
      </trkpt>
      <trkpt lat="47.599190035834908" lon="18.806938994675875">
        <ele>274.69099999999997</ele>
        <time>2010-02-07T01:19:54Z</time>
      </trkpt>
      <trkpt lat="47.599147958680987" lon="18.806897001340985">
        <ele>273.41300000000001</ele>
        <time>2010-02-07T01:19:56Z</time>
      </trkpt>
      <trkpt lat="47.599102025851607" lon="18.806861964985728">
        <ele>272.887</ele>
        <time>2010-02-07T01:19:58Z</time>
      </trkpt>
      <trkpt lat="47.599061038345098" lon="18.806828018277884">
        <ele>270.69099999999997</ele>
        <time>2010-02-07T01:20:00Z</time>
      </trkpt>
      <trkpt lat="47.599018039181828" lon="18.806800022721291">
        <ele>270.36500000000001</ele>
        <time>2010-02-07T01:20:02Z</time>
      </trkpt>
      <trkpt lat="47.598984008654952" lon="18.806759035214782">
        <ele>270.25599999999997</ele>
        <time>2010-02-07T01:20:04Z</time>
      </trkpt>
      <trkpt lat="47.598948972299695" lon="18.806714024394751">
        <ele>269.96800000000002</ele>
        <time>2010-02-07T01:20:06Z</time>
      </trkpt>
      <trkpt lat="47.598922988399863" lon="18.806669013574719">
        <ele>269.64299999999997</ele>
        <time>2010-02-07T01:20:08Z</time>
      </trkpt>
      <trkpt lat="47.598895998671651" lon="18.806625008583069">
        <ele>269.28899999999999</ele>
        <time>2010-02-07T01:20:10Z</time>
      </trkpt>
      <trkpt lat="47.598868003115058" lon="18.80658402107656">
        <ele>268.98000000000002</ele>
        <time>2010-02-07T01:20:12Z</time>
      </trkpt>
      <trkpt lat="47.59883196093142" lon="18.80654102191329">
        <ele>269.16000000000003</ele>
        <time>2010-02-07T01:20:14Z</time>
      </trkpt>
      <trkpt lat="47.598801031708717" lon="18.806496011093259">
        <ele>268.82400000000001</ele>
        <time>2010-02-07T01:20:16Z</time>
      </trkpt>
      <trkpt lat="47.598745040595531" lon="18.80643499083817">
        <ele>268.13400000000001</ele>
        <time>2010-02-07T01:20:18Z</time>
      </trkpt>
      <trkpt lat="47.598695000633597" lon="18.806385034695268">
        <ele>266.81900000000002</ele>
        <time>2010-02-07T01:20:20Z</time>
      </trkpt>
      <trkpt lat="47.598653007298708" lon="18.806356033310294">
        <ele>267.19</ele>
        <time>2010-02-07T01:20:22Z</time>
      </trkpt>
      <trkpt lat="47.598604978993535" lon="18.806322002783418">
        <ele>266.66300000000001</ele>
        <time>2010-02-07T01:20:24Z</time>
      </trkpt>
      <trkpt lat="47.598558962345123" lon="18.80628596059978">
        <ele>266.06900000000002</ele>
        <time>2010-02-07T01:20:26Z</time>
      </trkpt>
      <trkpt lat="47.598518980666995" lon="18.806255031377077">
        <ele>266.16000000000003</ele>
        <time>2010-02-07T01:20:28Z</time>
      </trkpt>
      <trkpt lat="47.59846500121057" lon="18.806237010285258">
        <ele>265.94299999999998</ele>
        <time>2010-02-07T01:20:30Z</time>
      </trkpt>
      <trkpt lat="47.5984220020473" lon="18.806218989193439">
        <ele>265.09899999999999</ele>
        <time>2010-02-07T01:20:32Z</time>
      </trkpt>
      <trkpt lat="47.598385037854314" lon="18.806191999465227">
        <ele>264.524</ele>
        <time>2010-02-07T01:20:34Z</time>
      </trkpt>
      <trkpt lat="47.598346984013915" lon="18.806159980595112">
        <ele>264.18000000000001</ele>
        <time>2010-02-07T01:20:36Z</time>
      </trkpt>
      <trkpt lat="47.598304990679026" lon="18.806128967553377">
        <ele>263.26799999999997</ele>
        <time>2010-02-07T01:20:38Z</time>
      </trkpt>
      <trkpt lat="47.598265009000897" lon="18.806096026673913">
        <ele>262.93400000000003</ele>
        <time>2010-02-07T01:20:40Z</time>
      </trkpt>
      <trkpt lat="47.59822603315115" lon="18.806065013632178">
        <ele>262.40800000000002</ele>
        <time>2010-02-07T01:20:42Z</time>
      </trkpt>
      <trkpt lat="47.598179010674357" lon="18.806032994762063">
        <ele>262.26499999999999</ele>
        <time>2010-02-07T01:20:44Z</time>
      </trkpt>
      <trkpt lat="47.598126037046313" lon="18.806001981720328">
        <ele>261.45499999999998</ele>
        <time>2010-02-07T01:20:46Z</time>
      </trkpt>
      <trkpt lat="47.59807800874114" lon="18.805974991992116">
        <ele>261.46300000000002</ele>
        <time>2010-02-07T01:20:48Z</time>
      </trkpt>
      <trkpt lat="47.598038027063012" lon="18.805935010313988">
        <ele>260.74799999999999</ele>
        <time>2010-02-07T01:20:50Z</time>
      </trkpt>
      <trkpt lat="47.597989998757839" lon="18.805906008929014">
        <ele>260.63900000000001</ele>
        <time>2010-02-07T01:20:52Z</time>
      </trkpt>
      <trkpt lat="47.597942976281047" lon="18.805880025029182">
        <ele>260.875</ele>
        <time>2010-02-07T01:20:54Z</time>
      </trkpt>
      <trkpt lat="47.597901988774538" lon="18.80585303530097">
        <ele>260.80599999999998</ele>
        <time>2010-02-07T01:20:56Z</time>
      </trkpt>
      <trkpt lat="47.597865024581552" lon="18.805824033915997">
        <ele>259.68599999999998</ele>
        <time>2010-02-07T01:20:58Z</time>
      </trkpt>
      <trkpt lat="47.59782001376152" lon="18.805791009217501">
        <ele>259.40600000000001</ele>
        <time>2010-02-07T01:21:00Z</time>
      </trkpt>
      <trkpt lat="47.59777701459825" lon="18.805766031146049">
        <ele>259.77100000000002</ele>
        <time>2010-02-07T01:21:02Z</time>
      </trkpt>
      <trkpt lat="47.597736027091742" lon="18.805738035589457">
        <ele>258.90100000000001</ele>
        <time>2010-02-07T01:21:04Z</time>
      </trkpt>
      <trkpt lat="47.597694033756852" lon="18.805705010890961">
        <ele>257.57499999999999</ele>
        <time>2010-02-07T01:21:06Z</time>
      </trkpt>
      <trkpt lat="47.59764701128006" lon="18.805671986192465">
        <ele>257.20999999999998</ele>
        <time>2010-02-07T01:21:08Z</time>
      </trkpt>
      <trkpt lat="47.597607029601932" lon="18.805644996464252">
        <ele>256.49400000000003</ele>
        <time>2010-02-07T01:21:10Z</time>
      </trkpt>
      <trkpt lat="47.597567969933152" lon="18.805612977594137">
        <ele>255.304</ele>
        <time>2010-02-07T01:21:12Z</time>
      </trkpt>
      <trkpt lat="47.597527988255024" lon="18.805580036714673">
        <ele>254.36500000000001</ele>
        <time>2010-02-07T01:21:14Z</time>
      </trkpt>
      <trkpt lat="47.597488006576896" lon="18.805550029501319">
        <ele>254.63900000000001</ele>
        <time>2010-02-07T01:21:16Z</time>
      </trkpt>
      <trkpt lat="47.597449030727148" lon="18.805520022287965">
        <ele>253.69900000000001</ele>
        <time>2010-02-07T01:21:18Z</time>
      </trkpt>
      <trkpt lat="47.597405025735497" lon="18.805497977882624">
        <ele>253.39500000000001</ele>
        <time>2010-02-07T01:21:20Z</time>
      </trkpt>
      <trkpt lat="47.59736998938024" lon="18.805471993982792">
        <ele>252.292</ele>
        <time>2010-02-07T01:21:22Z</time>
      </trkpt>
      <trkpt lat="47.597334031015635" lon="18.805447015911341">
        <ele>251.26499999999999</ele>
        <time>2010-02-07T01:21:24Z</time>
      </trkpt>
      <trkpt lat="47.597295977175236" lon="18.805405022576451">
        <ele>251.298</ele>
        <time>2010-02-07T01:21:26Z</time>
      </trkpt>
      <trkpt lat="47.597249960526824" lon="18.805363029241562">
        <ele>250.34299999999999</ele>
        <time>2010-02-07T01:21:28Z</time>
      </trkpt>
      <trkpt lat="47.597206961363554" lon="18.805323969572783">
        <ele>250.602</ele>
        <time>2010-02-07T01:21:30Z</time>
      </trkpt>
      <trkpt lat="47.597166979685426" lon="18.805283987894654">
        <ele>250.892</ele>
        <time>2010-02-07T01:21:32Z</time>
      </trkpt>
      <trkpt lat="47.597123980522156" lon="18.805246017873287">
        <ele>249.96100000000001</ele>
        <time>2010-02-07T01:21:34Z</time>
      </trkpt>
      <trkpt lat="47.597086010500789" lon="18.805215004831553">
        <ele>248.983</ele>
        <time>2010-02-07T01:21:36Z</time>
      </trkpt>
      <trkpt lat="47.597048040479422" lon="18.805180974304676">
        <ele>248.62799999999999</ele>
        <time>2010-02-07T01:21:38Z</time>
      </trkpt>
      <trkpt lat="47.597001018002629" lon="18.805147027596831">
        <ele>247.09999999999999</ele>
        <time>2010-02-07T01:21:40Z</time>
      </trkpt>
      <trkpt lat="47.596956007182598" lon="18.805115008726716">
        <ele>247.30799999999999</ele>
        <time>2010-02-07T01:21:42Z</time>
      </trkpt>
      <trkpt lat="47.596913008019328" lon="18.805087013170123">
        <ele>246.55600000000001</ele>
        <time>2010-02-07T01:21:44Z</time>
      </trkpt>
      <trkpt lat="47.596864979714155" lon="18.805050970986485">
        <ele>245.13300000000001</ele>
        <time>2010-02-07T01:21:46Z</time>
      </trkpt>
      <trkpt lat="47.596818963065743" lon="18.805023981258273">
        <ele>244.47499999999999</ele>
        <time>2010-02-07T01:21:48Z</time>
      </trkpt>
      <trkpt lat="47.596775041893125" lon="18.804990034550428">
        <ele>244.411</ele>
        <time>2010-02-07T01:21:50Z</time>
      </trkpt>
      <trkpt lat="47.596732964739203" lon="18.804957009851933">
        <ele>243.20699999999999</ele>
        <time>2010-02-07T01:21:52Z</time>
      </trkpt>
      <trkpt lat="47.596688959747553" lon="18.804932031780481">
        <ele>242.75999999999999</ele>
        <time>2010-02-07T01:21:54Z</time>
      </trkpt>
      <trkpt lat="47.596645038574934" lon="18.804900012910366">
        <ele>241.501</ele>
        <time>2010-02-07T01:21:56Z</time>
      </trkpt>
      <trkpt lat="47.596602039411664" lon="18.804863970726728">
        <ele>241.14599999999999</ele>
        <time>2010-02-07T01:21:58Z</time>
      </trkpt>
      <trkpt lat="47.596565997228026" lon="18.804834969341755">
        <ele>240.30000000000001</ele>
        <time>2010-02-07T01:22:00Z</time>
      </trkpt>
      <trkpt lat="47.596518974751234" lon="18.804802028462291">
        <ele>239.898</ele>
        <time>2010-02-07T01:22:02Z</time>
      </trkpt>
      <trkpt lat="47.596469018608332" lon="18.804770009592175">
        <ele>238.86699999999999</ele>
        <time>2010-02-07T01:22:04Z</time>
      </trkpt>
      <trkpt lat="47.596421996131539" lon="18.804732961580157">
        <ele>238.30500000000001</ele>
        <time>2010-02-07T01:22:06Z</time>
      </trkpt>
      <trkpt lat="47.596381008625031" lon="18.804702032357454">
        <ele>237.07300000000001</ele>
        <time>2010-02-07T01:22:08Z</time>
      </trkpt>
      <trkpt lat="47.596339015290141" lon="18.80467101931572">
        <ele>236.51900000000001</ele>
        <time>2010-02-07T01:22:10Z</time>
      </trkpt>
      <trkpt lat="47.596291992813349" lon="18.80465098656714">
        <ele>235.983</ele>
        <time>2010-02-07T01:22:12Z</time>
      </trkpt>
      <trkpt lat="47.596253016963601" lon="18.80462802015245">
        <ele>236.66900000000001</ele>
        <time>2010-02-07T01:22:14Z</time>
      </trkpt>
      <trkpt lat="47.596213035285473" lon="18.804604969918728">
        <ele>236.03299999999999</ele>
        <time>2010-02-07T01:22:16Z</time>
      </trkpt>
      <trkpt lat="47.596164001151919" lon="18.804578986018896">
        <ele>236.733</ele>
        <time>2010-02-07T01:22:18Z</time>
      </trkpt>
      <trkpt lat="47.596116978675127" lon="18.804545039311051">
        <ele>235.279</ele>
        <time>2010-02-07T01:22:20Z</time>
      </trkpt>
      <trkpt lat="47.596080014482141" lon="18.804524000734091">
        <ele>236.21100000000001</ele>
        <time>2010-02-07T01:22:22Z</time>
      </trkpt>
      <trkpt lat="47.59603600949049" lon="18.804497011005878">
        <ele>235.33099999999999</ele>
        <time>2010-02-07T01:22:25Z</time>
      </trkpt>
      <trkpt lat="47.596002984791994" lon="18.804481001570821">
        <ele>235.54900000000001</ele>
        <time>2010-02-07T01:22:27Z</time>
      </trkpt>
      <trkpt lat="47.595973983407021" lon="18.804458035156131">
        <ele>234.85300000000001</ele>
        <time>2010-02-07T01:22:29Z</time>
      </trkpt>
      <trkpt lat="47.595943976193666" lon="18.80443599075079">
        <ele>235.291</ele>
        <time>2010-02-07T01:22:31Z</time>
      </trkpt>
      <trkpt lat="47.595912041142583" lon="18.80441403016448">
        <ele>235.03299999999999</ele>
        <time>2010-02-07T01:22:33Z</time>
      </trkpt>
      <trkpt lat="47.595879016444087" lon="18.804387962445617">
        <ele>235.61699999999999</ele>
        <time>2010-02-07T01:22:35Z</time>
      </trkpt>
      <trkpt lat="47.595853032544255" lon="18.804361978545785">
        <ele>235.48599999999999</ele>
        <time>2010-02-07T01:22:37Z</time>
      </trkpt>
      <trkpt lat="47.595817996188998" lon="18.804333982989192">
        <ele>235.55000000000001</ele>
        <time>2010-02-07T01:22:39Z</time>
      </trkpt>
      <trkpt lat="47.595783965662122" lon="18.804311016574502">
        <ele>234.73500000000001</ele>
        <time>2010-02-07T01:22:41Z</time>
      </trkpt>
      <trkpt lat="47.595750018954277" lon="18.80428796634078">
        <ele>235.577</ele>
        <time>2010-02-07T01:22:43Z</time>
      </trkpt>
      <trkpt lat="47.595719005912542" lon="18.804271034896374">
        <ele>235.874</ele>
        <time>2010-02-07T01:22:45Z</time>
      </trkpt>
      <trkpt lat="47.595686987042427" lon="18.804246978834271">
        <ele>234.32599999999999</ele>
        <time>2010-02-07T01:22:47Z</time>
      </trkpt>
      <trkpt lat="47.595657985657454" lon="18.804229041561484">
        <ele>235.191</ele>
        <time>2010-02-07T01:22:49Z</time>
      </trkpt>
      <trkpt lat="47.59562898427248" lon="18.804204985499382">
        <ele>234.721</ele>
        <time>2010-02-07T01:22:51Z</time>
      </trkpt>
      <trkpt lat="47.595594031736255" lon="18.804180007427931">
        <ele>233.976</ele>
        <time>2010-02-07T01:22:53Z</time>
      </trkpt>
      <trkpt lat="47.595566036179662" lon="18.804160980507731">
        <ele>233.74000000000001</ele>
        <time>2010-02-07T01:22:55Z</time>
      </trkpt>
      <trkpt lat="47.595539968460798" lon="18.8041349966079">
        <ele>234.80199999999999</ele>
        <time>2010-02-07T01:22:57Z</time>
      </trkpt>
      <trkpt lat="47.595513984560966" lon="18.804109012708068">
        <ele>234.86000000000001</ele>
        <time>2010-02-07T01:22:59Z</time>
      </trkpt>
      <trkpt lat="47.595488000661135" lon="18.804085040464997">
        <ele>233.90600000000001</ele>
        <time>2010-02-07T01:23:01Z</time>
      </trkpt>
      <trkpt lat="47.595454975962639" lon="18.804061990231276">
        <ele>233.375</ele>
        <time>2010-02-07T01:23:03Z</time>
      </trkpt>
      <trkpt lat="47.595426980406046" lon="18.804039023816586">
        <ele>234.26300000000001</ele>
        <time>2010-02-07T01:23:05Z</time>
      </trkpt>
      <trkpt lat="47.595398984849453" lon="18.804015973582864">
        <ele>233.62700000000001</ele>
        <time>2010-02-07T01:23:07Z</time>
      </trkpt>
      <trkpt lat="47.595373000949621" lon="18.803995018824935">
        <ele>233.09899999999999</ele>
        <time>2010-02-07T01:23:09Z</time>
      </trkpt>
      <trkpt lat="47.595346011221409" lon="18.803971968591213">
        <ele>233.35599999999999</ele>
        <time>2010-02-07T01:23:11Z</time>
      </trkpt>
      <trkpt lat="47.595311980694532" lon="18.803952019661665">
        <ele>233.35499999999999</ele>
        <time>2010-02-07T01:23:13Z</time>
      </trkpt>
      <trkpt lat="47.595274010673165" lon="18.803916983306408">
        <ele>232.90199999999999</ele>
        <time>2010-02-07T01:23:16Z</time>
      </trkpt>
      <trkpt lat="47.595235034823418" lon="18.803893011063337">
        <ele>232.297</ele>
        <time>2010-02-07T01:23:19Z</time>
      </trkpt>
      <trkpt lat="47.595197986811399" lon="18.803866021335125">
        <ele>232.535</ele>
        <time>2010-02-07T01:23:22Z</time>
      </trkpt>
      <trkpt lat="47.595153981819749" lon="18.803839031606913">
        <ele>232.06700000000001</ele>
        <time>2010-02-07T01:23:25Z</time>
      </trkpt>
      <trkpt lat="47.595118023455143" lon="18.803816987201571">
        <ele>231.59100000000001</ele>
        <time>2010-02-07T01:23:27Z</time>
      </trkpt>
      <trkpt lat="47.595082987099886" lon="18.803794020786881">
        <ele>231.47399999999999</ele>
        <time>2010-02-07T01:23:29Z</time>
      </trkpt>
      <trkpt lat="47.595050968229771" lon="18.80377097055316">
        <ele>231.53700000000001</ele>
        <time>2010-02-07T01:23:31Z</time>
      </trkpt>
      <trkpt lat="47.595017021521926" lon="18.803750015795231">
        <ele>231.691</ele>
        <time>2010-02-07T01:23:33Z</time>
      </trkpt>
      <trkpt lat="47.594981985166669" lon="18.803730988875031">
        <ele>231.74000000000001</ele>
        <time>2010-02-07T01:23:35Z</time>
      </trkpt>
      <trkpt lat="47.594948960468173" lon="18.803714979439974">
        <ele>230.48400000000001</ele>
        <time>2010-02-07T01:23:37Z</time>
      </trkpt>
      <trkpt lat="47.594915013760328" lon="18.803691007196903">
        <ele>230.96799999999999</ele>
        <time>2010-02-07T01:23:39Z</time>
      </trkpt>
      <trkpt lat="47.594881989061832" lon="18.803668962791562">
        <ele>231.72800000000001</ele>
        <time>2010-02-07T01:23:41Z</time>
      </trkpt>
      <trkpt lat="47.594852987676859" lon="18.803652031347156">
        <ele>231.15700000000001</ele>
        <time>2010-02-07T01:23:43Z</time>
      </trkpt>
      <trkpt lat="47.594819962978363" lon="18.803631998598576">
        <ele>229.70400000000001</ele>
        <time>2010-02-07T01:23:45Z</time>
      </trkpt>
      <trkpt lat="47.59478903375566" lon="18.803610038012266">
        <ele>230.70500000000001</ele>
        <time>2010-02-07T01:23:47Z</time>
      </trkpt>
      <trkpt lat="47.594765983521938" lon="18.80359604023397">
        <ele>230.45599999999999</ele>
        <time>2010-02-07T01:23:49Z</time>
      </trkpt>
      <trkpt lat="47.594735976308584" lon="18.803572990000248">
        <ele>232.44900000000001</ele>
        <time>2010-02-07T01:23:51Z</time>
      </trkpt>
      <trkpt lat="47.594690965488553" lon="18.8035530410707">
        <ele>230.83600000000001</ele>
        <time>2010-02-07T01:23:54Z</time>
      </trkpt>
      <trkpt lat="47.594659030437469" lon="18.803537031635642">
        <ele>231.26900000000001</ele>
        <time>2010-02-07T01:23:56Z</time>
      </trkpt>
      <trkpt lat="47.594629023224115" lon="18.803519010543823">
        <ele>231.298</ele>
        <time>2010-02-07T01:23:58Z</time>
      </trkpt>
      <trkpt lat="47.594603039324284" lon="18.803493026643991">
        <ele>230.24600000000001</ele>
        <time>2010-02-07T01:24:00Z</time>
      </trkpt>
      <trkpt lat="47.59457596577704" lon="18.803464025259018">
        <ele>229.91800000000001</ele>
        <time>2010-02-07T01:24:02Z</time>
      </trkpt>
      <trkpt lat="47.594549981877208" lon="18.803434018045664">
        <ele>230.61699999999999</ele>
        <time>2010-02-07T01:24:04Z</time>
      </trkpt>
      <trkpt lat="47.594518968835473" lon="18.803394958376884">
        <ele>230.428</ele>
        <time>2010-02-07T01:24:06Z</time>
      </trkpt>
      <trkpt lat="47.594494996592402" lon="18.803363023325801">
        <ele>230.77500000000001</ele>
        <time>2010-02-07T01:24:08Z</time>
      </trkpt>
      <trkpt lat="47.594470018520951" lon="18.803317006677389">
        <ele>231.49100000000001</ele>
        <time>2010-02-07T01:24:11Z</time>
      </trkpt>
      <trkpt lat="47.594449985772371" lon="18.803267972543836">
        <ele>233.15799999999999</ele>
        <time>2010-02-07T01:24:14Z</time>
      </trkpt>
      <trkpt lat="47.594431964680552" lon="18.80321198143065">
        <ele>232.928</ele>
        <time>2010-02-07T01:24:17Z</time>
      </trkpt>
      <trkpt lat="47.594436993822455" lon="18.803149033337831">
        <ele>233.86199999999999</ele>
        <time>2010-02-07T01:24:20Z</time>
      </trkpt>
      <trkpt lat="47.594440011307597" lon="18.803088013082743">
        <ele>233.81399999999999</ele>
        <time>2010-02-07T01:24:23Z</time>
      </trkpt>
      <trkpt lat="47.594444034621119" lon="18.803025986999273">
        <ele>234.34100000000001</ele>
        <time>2010-02-07T01:24:26Z</time>
      </trkpt>
      <trkpt lat="47.594448979943991" lon="18.802981982007623">
        <ele>233.86199999999999</ele>
        <time>2010-02-07T01:24:28Z</time>
      </trkpt>
      <trkpt lat="47.59446800686419" lon="18.802926996722817">
        <ele>234.64699999999999</ele>
        <time>2010-02-07T01:24:31Z</time>
      </trkpt>
      <trkpt lat="47.594487033784389" lon="18.802851978689432">
        <ele>234.64400000000001</ele>
        <time>2010-02-07T01:24:35Z</time>
      </trkpt>
      <trkpt lat="47.594502959400415" lon="18.802791964262724">
        <ele>234.88200000000001</ele>
        <time>2010-02-07T01:24:38Z</time>
      </trkpt>
      <trkpt lat="47.594519974663854" lon="18.802730021998286">
        <ele>234.87200000000001</ele>
        <time>2010-02-07T01:24:41Z</time>
      </trkpt>
      <trkpt lat="47.594540007412434" lon="18.80267302505672">
        <ele>234.81</ele>
        <time>2010-02-07T01:24:44Z</time>
      </trkpt>
      <trkpt lat="47.594559034332633" lon="18.802616028115153">
        <ele>235</ele>
        <time>2010-02-07T01:24:47Z</time>
      </trkpt>
      <trkpt lat="47.59457403793931" lon="18.802561964839697">
        <ele>234.809</ele>
        <time>2010-02-07T01:24:50Z</time>
      </trkpt>
      <trkpt lat="47.594599016010761" lon="18.80250396206975">
        <ele>234.81800000000001</ele>
        <time>2010-02-07T01:24:53Z</time>
      </trkpt>
      <trkpt lat="47.594613013789058" lon="18.802445959299803">
        <ele>235.221</ele>
        <time>2010-02-07T01:24:56Z</time>
      </trkpt>
      <trkpt lat="47.594636986032128" lon="18.802390974014997">
        <ele>235.59200000000001</ele>
        <time>2010-02-07T01:24:59Z</time>
      </trkpt>
      <trkpt lat="47.594666993245482" lon="18.802340012043715">
        <ele>236.10300000000001</ele>
        <time>2010-02-07T01:25:02Z</time>
      </trkpt>
      <trkpt lat="47.594690965488553" lon="18.802290977910161">
        <ele>236.18000000000001</ele>
        <time>2010-02-07T01:25:05Z</time>
      </trkpt>
      <trkpt lat="47.594715021550655" lon="18.802248984575272">
        <ele>236.792</ele>
        <time>2010-02-07T01:25:08Z</time>
      </trkpt>
      <trkpt lat="47.594737987965345" lon="18.802193999290466">
        <ele>237.06200000000001</ele>
        <time>2010-02-07T01:25:11Z</time>
      </trkpt>
      <trkpt lat="47.594758020713925" lon="18.802140019834042">
        <ele>236.43100000000001</ele>
        <time>2010-02-07T01:25:14Z</time>
      </trkpt>
      <trkpt lat="47.594770006835461" lon="18.802084028720856">
        <ele>237.30799999999999</ele>
        <time>2010-02-07T01:25:17Z</time>
      </trkpt>
      <trkpt lat="47.594776963815093" lon="18.802026025950909">
        <ele>236.92500000000001</ele>
        <time>2010-02-07T01:25:20Z</time>
      </trkpt>
      <trkpt lat="47.594795990735292" lon="18.801970034837723">
        <ele>237.542</ele>
        <time>2010-02-07T01:25:23Z</time>
      </trkpt>
      <trkpt lat="47.594815017655492" lon="18.801914965733886">
        <ele>237.68000000000001</ele>
        <time>2010-02-07T01:25:26Z</time>
      </trkpt>
      <trkpt lat="47.59483496658504" lon="18.80185998044908">
        <ele>237.989</ele>
        <time>2010-02-07T01:25:29Z</time>
      </trkpt>
      <trkpt lat="47.59485499933362" lon="18.801801977679133">
        <ele>238.10400000000001</ele>
        <time>2010-02-07T01:25:32Z</time>
      </trkpt>
      <trkpt lat="47.594874026253819" lon="18.801744980737567">
        <ele>238.078</ele>
        <time>2010-02-07T01:25:35Z</time>
      </trkpt>
      <trkpt lat="47.594900010153651" lon="18.801687983796">
        <ele>239.048</ele>
        <time>2010-02-07T01:25:38Z</time>
      </trkpt>
      <trkpt lat="47.594915013760328" lon="18.801646996289492">
        <ele>238.64400000000001</ele>
        <time>2010-02-07T01:25:40Z</time>
      </trkpt>
      <trkpt lat="47.594936974346638" lon="18.801592011004686">
        <ele>239.94</ele>
        <time>2010-02-07T01:25:43Z</time>
      </trkpt>
      <trkpt lat="47.594951977953315" lon="18.801533002406359">
        <ele>239.441</ele>
        <time>2010-02-07T01:25:46Z</time>
      </trkpt>
      <trkpt lat="47.594965975731611" lon="18.801494026556611">
        <ele>239.46799999999999</ele>
        <time>2010-02-07T01:25:48Z</time>
      </trkpt>
      <trkpt lat="47.594978967681527" lon="18.801454966887832">
        <ele>239.43899999999999</ele>
        <time>2010-02-07T01:25:50Z</time>
      </trkpt>
      <trkpt lat="47.594993971288204" lon="18.801396964117885">
        <ele>240.26499999999999</ele>
        <time>2010-02-07T01:25:53Z</time>
      </trkpt>
      <trkpt lat="47.595011992380023" lon="18.801339967176318">
        <ele>240.10599999999999</ele>
        <time>2010-02-07T01:25:56Z</time>
      </trkpt>
      <trkpt lat="47.5950269959867" lon="18.801279030740261">
        <ele>240.25800000000001</ele>
        <time>2010-02-07T01:25:59Z</time>
      </trkpt>
      <trkpt lat="47.595043005421758" lon="18.801224967464805">
        <ele>240.22399999999999</ele>
        <time>2010-02-07T01:26:02Z</time>
      </trkpt>
      <trkpt lat="47.595063960179687" lon="18.801164031028748">
        <ele>241.58199999999999</ele>
        <time>2010-02-07T01:26:05Z</time>
      </trkpt>
      <trkpt lat="47.595078963786364" lon="18.801109967753291">
        <ele>241.50700000000001</ele>
        <time>2010-02-07T01:26:08Z</time>
      </trkpt>
      <trkpt lat="47.595102014020085" lon="18.801051964983344">
        <ele>241.392</ele>
        <time>2010-02-07T01:26:11Z</time>
      </trkpt>
      <trkpt lat="47.595119029283524" lon="18.800996979698539">
        <ele>242.107</ele>
        <time>2010-02-07T01:26:14Z</time>
      </trkpt>
      <trkpt lat="47.595139984041452" lon="18.80093595944345">
        <ele>242.13999999999999</ele>
        <time>2010-02-07T01:26:17Z</time>
      </trkpt>
      <trkpt lat="47.595162028446794" lon="18.800876028835773">
        <ele>242.339</ele>
        <time>2010-02-07T01:26:20Z</time>
      </trkpt>
      <trkpt lat="47.595180971547961" lon="18.800818026065826">
        <ele>243.38399999999999</ele>
        <time>2010-02-07T01:26:23Z</time>
      </trkpt>
      <trkpt lat="47.595195975154638" lon="18.80076102912426">
        <ele>244.18199999999999</ele>
        <time>2010-02-07T01:26:26Z</time>
      </trkpt>
      <trkpt lat="47.595208967104554" lon="18.800719035789371">
        <ele>243.113</ele>
        <time>2010-02-07T01:26:28Z</time>
      </trkpt>
      <trkpt lat="47.595223970711231" lon="18.800656003877521">
        <ele>244.30500000000001</ele>
        <time>2010-02-07T01:26:31Z</time>
      </trkpt>
      <trkpt lat="47.595236040651798" lon="18.800615016371012">
        <ele>244.643</ele>
        <time>2010-02-07T01:26:33Z</time>
      </trkpt>
      <trkpt lat="47.595258001238108" lon="18.800561036914587">
        <ele>244.92500000000001</ele>
        <time>2010-02-07T01:26:36Z</time>
      </trkpt>
      <trkpt lat="47.595288008451462" lon="18.800504039973021">
        <ele>245.45099999999999</ele>
        <time>2010-02-07T01:26:39Z</time>
      </trkpt>
      <trkpt lat="47.595309969037771" lon="18.800443019717932">
        <ele>244.93199999999999</ele>
        <time>2010-02-07T01:26:42Z</time>
      </trkpt>
      <trkpt lat="47.595346011221409" lon="18.800373030826449">
        <ele>245.95699999999999</ele>
        <time>2010-02-07T01:26:45Z</time>
      </trkpt>
      <trkpt lat="47.59537098929286" lon="18.800317961722612">
        <ele>245.67500000000001</ele>
        <time>2010-02-07T01:26:48Z</time>
      </trkpt>
      <trkpt lat="47.595380041748285" lon="18.800253001973033">
        <ele>246.595</ele>
        <time>2010-02-07T01:26:51Z</time>
      </trkpt>
      <trkpt lat="47.595378030091524" lon="18.800184018909931">
        <ele>246.78999999999999</ele>
        <time>2010-02-07T01:26:54Z</time>
      </trkpt>
      <trkpt lat="47.595380041748285" lon="18.800120986998081">
        <ele>246.97399999999999</ele>
        <time>2010-02-07T01:26:57Z</time>
      </trkpt>
      <trkpt lat="47.595378030091524" lon="18.800070025026798">
        <ele>246.89099999999999</ele>
        <time>2010-02-07T01:26:59Z</time>
      </trkpt>
      <trkpt lat="47.595380963757634" lon="18.800023002550006">
        <ele>247.15000000000001</ele>
        <time>2010-02-07T01:27:01Z</time>
      </trkpt>
      <trkpt lat="47.595381969586015" lon="18.799978997558355">
        <ele>247.26900000000001</ele>
        <time>2010-02-07T01:27:03Z</time>
      </trkpt>
      <trkpt lat="47.595381969586015" lon="18.799932980909944">
        <ele>246.827</ele>
        <time>2010-02-07T01:27:05Z</time>
      </trkpt>
      <trkpt lat="47.595380963757634" lon="18.799890987575054">
        <ele>246.785</ele>
        <time>2010-02-07T01:27:07Z</time>
      </trkpt>
      <trkpt lat="47.595377024263144" lon="18.799826027825475">
        <ele>247.25</ele>
        <time>2010-02-07T01:27:10Z</time>
      </trkpt>
      <trkpt lat="47.595367971807718" lon="18.799759978428483">
        <ele>247.37299999999999</ele>
        <time>2010-02-07T01:27:13Z</time>
      </trkpt>
      <trkpt lat="47.595351040363312" lon="18.799694012850523">
        <ele>247.035</ele>
        <time>2010-02-07T01:27:16Z</time>
      </trkpt>
      <trkpt lat="47.595334025099874" lon="18.799649002030492">
        <ele>247.00800000000001</ele>
        <time>2010-02-07T01:27:18Z</time>
      </trkpt>
      <trkpt lat="47.595312986522913" lon="18.799611032009125">
        <ele>247.601</ele>
        <time>2010-02-07T01:27:20Z</time>
      </trkpt>
      <trkpt lat="47.595291025936604" lon="18.799582030624151">
        <ele>246.417</ele>
        <time>2010-02-07T01:27:22Z</time>
      </trkpt>
      <trkpt lat="47.595265964046121" lon="18.799536013975739">
        <ele>246.934</ele>
        <time>2010-02-07T01:27:25Z</time>
      </trkpt>
      <trkpt lat="47.595249032601714" lon="18.799489997327328">
        <ele>246.59700000000001</ele>
        <time>2010-02-07T01:27:28Z</time>
      </trkpt>
      <trkpt lat="47.595249032601714" lon="18.799440963193774">
        <ele>246.72399999999999</ele>
        <time>2010-02-07T01:27:31Z</time>
      </trkpt>
      <trkpt lat="47.595249032601714" lon="18.79938698373735">
        <ele>246.21899999999999</ele>
        <time>2010-02-07T01:27:35Z</time>
      </trkpt>
      <trkpt lat="47.595248026773334" lon="18.799339039251208">
        <ele>246.48699999999999</ele>
        <time>2010-02-07T01:27:40Z</time>
      </trkpt>
      <trkpt lat="47.595237968489528" lon="18.799282964318991">
        <ele>246.03399999999999</ele>
        <time>2010-02-07T01:27:43Z</time>
      </trkpt>
      <trkpt lat="47.595232017338276" lon="18.799222027882934">
        <ele>245.95099999999999</ele>
        <time>2010-02-07T01:27:46Z</time>
      </trkpt>
      <trkpt lat="47.595234028995037" lon="18.799160001799464">
        <ele>246.22800000000001</ele>
        <time>2010-02-07T01:27:49Z</time>
      </trkpt>
      <trkpt lat="47.595233023166656" lon="18.799113985151052">
        <ele>245.77199999999999</ele>
        <time>2010-02-07T01:27:51Z</time>
      </trkpt>
      <trkpt lat="47.595232017338276" lon="18.799051959067583">
        <ele>246.48699999999999</ele>
        <time>2010-02-07T01:27:54Z</time>
      </trkpt>
      <trkpt lat="47.595230005681515" lon="18.799008959904313">
        <ele>245.864</ele>
        <time>2010-02-07T01:27:56Z</time>
      </trkpt>
      <trkpt lat="47.595226988196373" lon="18.798946011811495">
        <ele>245.93299999999999</ele>
        <time>2010-02-07T01:27:59Z</time>
      </trkpt>
      <trkpt lat="47.595221037045121" lon="18.798880968242884">
        <ele>245.89099999999999</ele>
        <time>2010-02-07T01:28:02Z</time>
      </trkpt>
      <trkpt lat="47.595217013731599" lon="18.798835035413504">
        <ele>245.69900000000001</ele>
        <time>2010-02-07T01:28:04Z</time>
      </trkpt>
      <trkpt lat="47.595211984589696" lon="18.798790024593472">
        <ele>246.05600000000001</ele>
        <time>2010-02-07T01:28:06Z</time>
      </trkpt>
      <trkpt lat="47.595206033438444" lon="18.7987419962883">
        <ele>245.41200000000001</ele>
        <time>2010-02-07T01:28:08Z</time>
      </trkpt>
      <trkpt lat="47.595196980983019" lon="18.79867703653872">
        <ele>245.37100000000001</ele>
        <time>2010-02-07T01:28:11Z</time>
      </trkpt>
      <trkpt lat="47.595191029831767" lon="18.798631019890308">
        <ele>245.31200000000001</ele>
        <time>2010-02-07T01:28:13Z</time>
      </trkpt>
      <trkpt lat="47.595188012346625" lon="18.798586009070277">
        <ele>245.71700000000001</ele>
        <time>2010-02-07T01:28:15Z</time>
      </trkpt>
      <trkpt lat="47.595182983204722" lon="18.798544015735388">
        <ele>245.40700000000001</ele>
        <time>2010-02-07T01:28:17Z</time>
      </trkpt>
      <trkpt lat="47.595177032053471" lon="18.798487018793821">
        <ele>245.78800000000001</ele>
        <time>2010-02-07T01:28:20Z</time>
      </trkpt>
      <trkpt lat="47.595177032053471" lon="18.798449970781803">
        <ele>245.32900000000001</ele>
        <time>2010-02-07T01:28:22Z</time>
      </trkpt>
      <trkpt lat="47.595178037881851" lon="18.798395991325378">
        <ele>244.68899999999999</ele>
        <time>2010-02-07T01:28:25Z</time>
      </trkpt>
      <trkpt lat="47.595179965719581" lon="18.798357015475631">
        <ele>245.00899999999999</ele>
        <time>2010-02-07T01:28:27Z</time>
      </trkpt>
      <trkpt lat="47.595182983204722" lon="18.798299012705684">
        <ele>244.97399999999999</ele>
        <time>2010-02-07T01:28:30Z</time>
      </trkpt>
      <trkpt lat="47.595184994861484" lon="18.798235980793834">
        <ele>243.68899999999999</ele>
        <time>2010-02-07T01:28:33Z</time>
      </trkpt>
      <trkpt lat="47.595184994861484" lon="18.798190969973803">
        <ele>243.922</ele>
        <time>2010-02-07T01:28:35Z</time>
      </trkpt>
      <trkpt lat="47.595181977376342" lon="18.798142019659281">
        <ele>244.351</ele>
        <time>2010-02-07T01:28:37Z</time>
      </trkpt>
      <trkpt lat="47.5951789598912" lon="18.798100026324391">
        <ele>243.714</ele>
        <time>2010-02-07T01:28:39Z</time>
      </trkpt>
      <trkpt lat="47.595174014568329" lon="18.798056021332741">
        <ele>243.215</ele>
        <time>2010-02-07T01:28:41Z</time>
      </trkpt>
      <trkpt lat="47.595167979598045" lon="18.798014027997851">
        <ele>245.036</ele>
        <time>2010-02-07T01:28:43Z</time>
      </trkpt>
      <trkpt lat="47.595162028446794" lon="18.797971028834581">
        <ele>244.34200000000001</ele>
        <time>2010-02-07T01:28:45Z</time>
      </trkpt>
      <trkpt lat="47.595159010961652" lon="18.797932974994183">
        <ele>244.209</ele>
        <time>2010-02-07T01:28:47Z</time>
      </trkpt>
      <trkpt lat="47.595158005133271" lon="18.797889975830913">
        <ele>243.84299999999999</ele>
        <time>2010-02-07T01:28:49Z</time>
      </trkpt>
      <trkpt lat="47.595156999304891" lon="18.797829961404204">
        <ele>243.75800000000001</ele>
        <time>2010-02-07T01:28:52Z</time>
      </trkpt>
      <trkpt lat="47.595160016790032" lon="18.797787968069315">
        <ele>242.96299999999999</ele>
        <time>2010-02-07T01:28:54Z</time>
      </trkpt>
      <trkpt lat="47.595158005133271" lon="18.797736000269651">
        <ele>242.804</ele>
        <time>2010-02-07T01:28:56Z</time>
      </trkpt>
      <trkpt lat="47.595149958506227" lon="18.79768998362124">
        <ele>242.80799999999999</ele>
        <time>2010-02-07T01:28:58Z</time>
      </trkpt>
      <trkpt lat="47.595152975991368" lon="18.797642961144447">
        <ele>242.07599999999999</ele>
        <time>2010-02-07T01:29:01Z</time>
      </trkpt>
      <trkpt lat="47.595159010961652" lon="18.7976039852947">
        <ele>241.62299999999999</ele>
        <time>2010-02-07T01:29:03Z</time>
      </trkpt>
      <trkpt lat="47.595153981819749" lon="18.797556040808558">
        <ele>241.33799999999999</ele>
        <time>2010-02-07T01:29:05Z</time>
      </trkpt>
      <trkpt lat="47.595156999304891" lon="18.797516981139779">
        <ele>241.364</ele>
        <time>2010-02-07T01:29:08Z</time>
      </trkpt>
      <trkpt lat="47.59515599347651" lon="18.797471970319748">
        <ele>241.82599999999999</ele>
        <time>2010-02-07T01:29:11Z</time>
      </trkpt>
      <trkpt lat="47.595152975991368" lon="18.797425031661987">
        <ele>241.446</ele>
        <time>2010-02-07T01:29:14Z</time>
      </trkpt>
      <trkpt lat="47.595146019011736" lon="18.797371974214911">
        <ele>240.976</ele>
        <time>2010-02-07T01:29:17Z</time>
      </trkpt>
      <trkpt lat="47.595137972384691" lon="18.797331992536783">
        <ele>240.876</ele>
        <time>2010-02-07T01:29:19Z</time>
      </trkpt>
      <trkpt lat="47.595129003748298" lon="18.797292010858655">
        <ele>241.024</ele>
        <time>2010-02-07T01:29:21Z</time>
      </trkpt>
      <trkpt lat="47.595119029283524" lon="18.79723702557385">
        <ele>241.02600000000001</ele>
        <time>2010-02-07T01:29:24Z</time>
      </trkpt>
      <trkpt lat="47.595110982656479" lon="18.797186985611916">
        <ele>240.91</ele>
        <time>2010-02-07T01:29:27Z</time>
      </trkpt>
      <trkpt lat="47.595104025676847" lon="18.797136023640633">
        <ele>240.511</ele>
        <time>2010-02-07T01:29:29Z</time>
      </trkpt>
      <trkpt lat="47.595096984878182" lon="18.797070980072021">
        <ele>240.297</ele>
        <time>2010-02-07T01:29:31Z</time>
      </trkpt>
      <trkpt lat="47.595094973221421" lon="18.797020018100739">
        <ele>240.19499999999999</ele>
        <time>2010-02-07T01:29:33Z</time>
      </trkpt>
      <trkpt lat="47.595082987099886" lon="18.796971989795566">
        <ele>240.36199999999999</ele>
        <time>2010-02-07T01:29:35Z</time>
      </trkpt>
      <trkpt lat="47.595068989321589" lon="18.796906024217606">
        <ele>240.19999999999999</ele>
        <time>2010-02-07T01:29:37Z</time>
      </trkpt>
      <trkpt lat="47.595058009028435" lon="18.796838968992233">
        <ele>239.095</ele>
        <time>2010-02-07T01:29:39Z</time>
      </trkpt>
      <trkpt lat="47.595046022906899" lon="18.796779960393906">
        <ele>238.733</ele>
        <time>2010-02-07T01:29:41Z</time>
      </trkpt>
      <trkpt lat="47.595028001815081" lon="18.796693040058017">
        <ele>239.08600000000001</ele>
        <time>2010-02-07T01:29:44Z</time>
      </trkpt>
      <trkpt lat="47.595020039007068" lon="18.79663897678256">
        <ele>238.72999999999999</ele>
        <time>2010-02-07T01:29:46Z</time>
      </trkpt>
      <trkpt lat="47.595014004036784" lon="18.796579968184233">
        <ele>238.428</ele>
        <time>2010-02-07T01:29:48Z</time>
      </trkpt>
      <trkpt lat="47.595006041228771" lon="18.796525988727808">
        <ele>237.46700000000001</ele>
        <time>2010-02-07T01:29:50Z</time>
      </trkpt>
      <trkpt lat="47.594995982944965" lon="18.796469997614622">
        <ele>237.47999999999999</ele>
        <time>2010-02-07T01:29:52Z</time>
      </trkpt>
      <trkpt lat="47.59498399682343" lon="18.796397997066379">
        <ele>237.238</ele>
        <time>2010-02-07T01:29:54Z</time>
      </trkpt>
      <trkpt lat="47.594973016530275" lon="18.796327002346516">
        <ele>236.87299999999999</ele>
        <time>2010-02-07T01:29:56Z</time>
      </trkpt>
      <trkpt lat="47.594958012923598" lon="18.796255001798272">
        <ele>236.476</ele>
        <time>2010-02-07T01:29:58Z</time>
      </trkpt>
      <trkpt lat="47.59494099766016" lon="18.796187024563551">
        <ele>234.839</ele>
        <time>2010-02-07T01:30:00Z</time>
      </trkpt>
      <trkpt lat="47.594930017367005" lon="18.796124998480082">
        <ele>235.36199999999999</ele>
        <time>2010-02-07T01:30:02Z</time>
      </trkpt>
      <trkpt lat="47.594919037073851" lon="18.796061966568232">
        <ele>234.524</ele>
        <time>2010-02-07T01:30:04Z</time>
      </trkpt>
      <trkpt lat="47.594905961304903" lon="18.79599298350513">
        <ele>234.482</ele>
        <time>2010-02-07T01:30:06Z</time>
      </trkpt>
      <trkpt lat="47.594891041517258" lon="18.795924000442028">
        <ele>233.70099999999999</ele>
        <time>2010-02-07T01:30:08Z</time>
      </trkpt>
      <trkpt lat="47.594874026253819" lon="18.7958649918437">
        <ele>232.86799999999999</ele>
        <time>2010-02-07T01:30:10Z</time>
      </trkpt>
      <trkpt lat="47.594863967970014" lon="18.79579902626574">
        <ele>232.46100000000001</ele>
        <time>2010-02-07T01:30:12Z</time>
      </trkpt>
      <trkpt lat="47.594852987676859" lon="18.79573498852551">
        <ele>231.21799999999999</ele>
        <time>2010-02-07T01:30:14Z</time>
      </trkpt>
      <trkpt lat="47.594841001555324" lon="18.795672040432692">
        <ele>230.69800000000001</ele>
        <time>2010-02-07T01:30:16Z</time>
      </trkpt>
      <trkpt lat="47.594830021262169" lon="18.795609008520842">
        <ele>229.988</ele>
        <time>2010-02-07T01:30:18Z</time>
      </trkpt>
      <trkpt lat="47.594818035140634" lon="18.795549999922514">
        <ele>228.91300000000001</ele>
        <time>2010-02-07T01:30:20Z</time>
      </trkpt>
      <trkpt lat="47.594808982685208" lon="18.795485962182283">
        <ele>229.44499999999999</ele>
        <time>2010-02-07T01:30:22Z</time>
      </trkpt>
      <trkpt lat="47.594798002392054" lon="18.795426031574607">
        <ele>228.97999999999999</ele>
        <time>2010-02-07T01:30:24Z</time>
      </trkpt>
      <trkpt lat="47.59478903375566" lon="18.795366017147899">
        <ele>228.63499999999999</ele>
        <time>2010-02-07T01:30:26Z</time>
      </trkpt>
      <trkpt lat="47.594778975471854" lon="18.795303991064429">
        <ele>228.08699999999999</ele>
        <time>2010-02-07T01:30:28Z</time>
      </trkpt>
      <trkpt lat="47.594771012663841" lon="18.79523903131485">
        <ele>228.51599999999999</ele>
        <time>2010-02-07T01:30:30Z</time>
      </trkpt>
      <trkpt lat="47.594770006835461" lon="18.795178011059761">
        <ele>228.18700000000001</ele>
        <time>2010-02-07T01:30:32Z</time>
      </trkpt>
      <trkpt lat="47.594777969643474" lon="18.795119002461433">
        <ele>227.92500000000001</ele>
        <time>2010-02-07T01:30:34Z</time>
      </trkpt>
      <trkpt lat="47.594777969643474" lon="18.795056976377964">
        <ele>227.66</ele>
        <time>2010-02-07T01:30:36Z</time>
      </trkpt>
      <trkpt lat="47.59476900100708" lon="18.794996961951256">
        <ele>226.86600000000001</ele>
        <time>2010-02-07T01:30:38Z</time>
      </trkpt>
      <trkpt lat="47.594758020713925" lon="18.794934013858438">
        <ele>225.011</ele>
        <time>2010-02-07T01:30:40Z</time>
      </trkpt>
      <trkpt lat="47.594747040420771" lon="18.79487601108849">
        <ele>223.69499999999999</ele>
        <time>2010-02-07T01:30:42Z</time>
      </trkpt>
      <trkpt lat="47.594734970480204" lon="18.794820019975305">
        <ele>222.89599999999999</ele>
        <time>2010-02-07T01:30:44Z</time>
      </trkpt>
      <trkpt lat="47.594721978530288" lon="18.794764028862119">
        <ele>221.755</ele>
        <time>2010-02-07T01:30:46Z</time>
      </trkpt>
      <trkpt lat="47.594714015722275" lon="18.794705020263791">
        <ele>221.00800000000001</ele>
        <time>2010-02-07T01:30:48Z</time>
      </trkpt>
      <trkpt lat="47.594706974923611" lon="18.794634025543928">
        <ele>220.642</ele>
        <time>2010-02-07T01:30:50Z</time>
      </trkpt>
      <trkpt lat="47.594693982973695" lon="18.794564958661795">
        <ele>220.43199999999999</ele>
        <time>2010-02-07T01:30:52Z</time>
      </trkpt>
      <trkpt lat="47.594680991023779" lon="18.794505028054118">
        <ele>219.011</ele>
        <time>2010-02-07T01:30:54Z</time>
      </trkpt>
      <trkpt lat="47.594664981588721" lon="18.794437972828746">
        <ele>218.833</ele>
        <time>2010-02-07T01:30:56Z</time>
      </trkpt>
      <trkpt lat="47.594649977982044" lon="18.794375024735928">
        <ele>218.49799999999999</ele>
        <time>2010-02-07T01:30:58Z</time>
      </trkpt>
      <trkpt lat="47.594632040709257" lon="18.794312998652458">
        <ele>218.27699999999999</ele>
        <time>2010-02-07T01:31:00Z</time>
      </trkpt>
      <trkpt lat="47.594617959111929" lon="18.794254995882511">
        <ele>217.58600000000001</ele>
        <time>2010-02-07T01:31:02Z</time>
      </trkpt>
      <trkpt lat="47.594607984647155" lon="18.794193975627422">
        <ele>216.60900000000001</ele>
        <time>2010-02-07T01:31:04Z</time>
      </trkpt>
      <trkpt lat="47.594602033495903" lon="18.794132033362985">
        <ele>215.554</ele>
        <time>2010-02-07T01:31:06Z</time>
      </trkpt>
      <trkpt lat="47.594591975212097" lon="18.794070007279515">
        <ele>214.315</ele>
        <time>2010-02-07T01:31:08Z</time>
      </trkpt>
      <trkpt lat="47.594580994918942" lon="18.794004041701555">
        <ele>213.828</ele>
        <time>2010-02-07T01:31:10Z</time>
      </trkpt>
      <trkpt lat="47.594565991312265" lon="18.793938998132944">
        <ele>213.637</ele>
        <time>2010-02-07T01:31:12Z</time>
      </trkpt>
      <trkpt lat="47.59455299936235" lon="18.793873032554984">
        <ele>212.958</ele>
        <time>2010-02-07T01:31:14Z</time>
      </trkpt>
      <trkpt lat="47.594539001584053" lon="18.793811006471515">
        <ele>211.619</ele>
        <time>2010-02-07T01:31:16Z</time>
      </trkpt>
      <trkpt lat="47.594525003805757" lon="18.793741017580032">
        <ele>211.56999999999999</ele>
        <time>2010-02-07T01:31:18Z</time>
      </trkpt>
      <trkpt lat="47.59451100602746" lon="18.793683014810085">
        <ele>211.02600000000001</ele>
        <time>2010-02-07T01:31:20Z</time>
      </trkpt>
      <trkpt lat="47.594496002420783" lon="18.793627023696899">
        <ele>210.75299999999999</ele>
        <time>2010-02-07T01:31:22Z</time>
      </trkpt>
      <trkpt lat="47.594486027956009" lon="18.793570026755333">
        <ele>209.553</ele>
        <time>2010-02-07T01:31:24Z</time>
      </trkpt>
      <trkpt lat="47.594471024349332" lon="18.793514035642147">
        <ele>208.49299999999999</ele>
        <time>2010-02-07T01:31:26Z</time>
      </trkpt>
      <trkpt lat="47.594459038227797" lon="18.79345896653831">
        <ele>207.81299999999999</ele>
        <time>2010-02-07T01:31:28Z</time>
      </trkpt>
      <trkpt lat="47.59444797411561" lon="18.793408004567027">
        <ele>207.64099999999999</ele>
        <time>2010-02-07T01:31:30Z</time>
      </trkpt>
      <trkpt lat="47.594440011307597" lon="18.793356958776712">
        <ele>207.464</ele>
        <time>2010-02-07T01:31:32Z</time>
      </trkpt>
      <trkpt lat="47.594430958852172" lon="18.793311025947332">
        <ele>207.61000000000001</ele>
        <time>2010-02-07T01:31:34Z</time>
      </trkpt>
      <trkpt lat="47.594419978559017" lon="18.793269032612443">
        <ele>207.37700000000001</ele>
        <time>2010-02-07T01:31:36Z</time>
      </trkpt>
      <trkpt lat="47.594411009922624" lon="18.793227039277554">
        <ele>207.59100000000001</ele>
        <time>2010-02-07T01:31:38Z</time>
      </trkpt>
      <trkpt lat="47.59440204128623" lon="18.793184040114284">
        <ele>206.43299999999999</ele>
        <time>2010-02-07T01:31:40Z</time>
      </trkpt>
      <trkpt lat="47.594396006315947" lon="18.793144980445504">
        <ele>206.56200000000001</ele>
        <time>2010-02-07T01:31:42Z</time>
      </trkpt>
      <trkpt lat="47.594388965517282" lon="18.793106004595757">
        <ele>205.70699999999999</ele>
        <time>2010-02-07T01:31:44Z</time>
      </trkpt>
      <trkpt lat="47.594383014366031" lon="18.793061999604106">
        <ele>206.608</ele>
        <time>2010-02-07T01:31:46Z</time>
      </trkpt>
      <trkpt lat="47.594374967738986" lon="18.793022017925978">
        <ele>206.25999999999999</ele>
        <time>2010-02-07T01:31:48Z</time>
      </trkpt>
      <trkpt lat="47.594378991052508" lon="18.792981030419469">
        <ele>205.858</ele>
        <time>2010-02-07T01:31:50Z</time>
      </trkpt>
      <trkpt lat="47.594393994659185" lon="18.792931996285915">
        <ele>205.05099999999999</ele>
        <time>2010-02-07T01:31:52Z</time>
      </trkpt>
      <trkpt lat="47.59440204128623" lon="18.792881034314632">
        <ele>204.822</ele>
        <time>2010-02-07T01:31:54Z</time>
      </trkpt>
      <trkpt lat="47.59440204128623" lon="18.792833006009459">
        <ele>205.352</ele>
        <time>2010-02-07T01:31:56Z</time>
      </trkpt>
      <trkpt lat="47.594399023801088" lon="18.792786989361048">
        <ele>204.196</ele>
        <time>2010-02-07T01:31:58Z</time>
      </trkpt>
      <trkpt lat="47.594393994659185" lon="18.79274700768292">
        <ele>203.869</ele>
        <time>2010-02-07T01:32:00Z</time>
      </trkpt>
      <trkpt lat="47.594398017972708" lon="18.792701996862888">
        <ele>203.917</ele>
        <time>2010-02-07T01:32:03Z</time>
      </trkpt>
      <trkpt lat="47.594396006315947" lon="18.792667966336012">
        <ele>203.298</ele>
        <time>2010-02-07T01:32:05Z</time>
      </trkpt>
      <trkpt lat="47.594395000487566" lon="18.792632007971406">
        <ele>203.803</ele>
        <time>2010-02-07T01:32:07Z</time>
      </trkpt>
      <trkpt lat="47.59438200853765" lon="18.792567970231175">
        <ele>203.499</ele>
        <time>2010-02-07T01:32:10Z</time>
      </trkpt>
      <trkpt lat="47.594370022416115" lon="18.792516002431512">
        <ele>203.494</ele>
        <time>2010-02-07T01:32:13Z</time>
      </trkpt>
      <trkpt lat="47.594359964132309" lon="18.792465040460229">
        <ele>203.22300000000001</ele>
        <time>2010-02-07T01:32:16Z</time>
      </trkpt>
      <trkpt lat="47.594353007152677" lon="18.792427992448211">
        <ele>202.69300000000001</ele>
        <time>2010-02-07T01:32:18Z</time>
      </trkpt>
      <trkpt lat="47.594343032687902" lon="18.792378036305308">
        <ele>202.708</ele>
        <time>2010-02-07T01:32:21Z</time>
      </trkpt>
      <trkpt lat="47.594330040737987" lon="18.792330008000135">
        <ele>203.81899999999999</ele>
        <time>2010-02-07T01:32:24Z</time>
      </trkpt>
      <trkpt lat="47.594314031302929" lon="18.792278040200472">
        <ele>202.81800000000001</ele>
        <time>2010-02-07T01:32:27Z</time>
      </trkpt>
      <trkpt lat="47.594301039353013" lon="18.792224982753396">
        <ele>202.43199999999999</ele>
        <time>2010-02-07T01:32:30Z</time>
      </trkpt>
      <trkpt lat="47.594278994947672" lon="18.792176032438874">
        <ele>202.47800000000001</ele>
        <time>2010-02-07T01:32:33Z</time>
      </trkpt>
      <trkpt lat="47.594254016876221" lon="18.792132027447224">
        <ele>202.697</ele>
        <time>2010-02-07T01:32:36Z</time>
      </trkpt>
      <trkpt lat="47.594228032976389" lon="18.792093973606825">
        <ele>201.45099999999999</ele>
        <time>2010-02-07T01:32:39Z</time>
      </trkpt>
      <trkpt lat="47.594201965257525" lon="18.79206002689898">
        <ele>203.38999999999999</ele>
        <time>2010-02-07T01:32:43Z</time>
      </trkpt>
      <trkpt lat="47.594180004671216" lon="18.792028008028865">
        <ele>203.30500000000001</ele>
        <time>2010-02-07T01:32:47Z</time>
      </trkpt>
      <trkpt lat="47.594168018549681" lon="18.791985008865595">
        <ele>204.13900000000001</ele>
        <time>2010-02-07T01:32:50Z</time>
      </trkpt>
      <trkpt lat="47.594157960265875" lon="18.791941003873944">
        <ele>204.006</ele>
        <time>2010-02-07T01:32:53Z</time>
      </trkpt>
      <trkpt lat="47.594160977751017" lon="18.791885012760758">
        <ele>204.88499999999999</ele>
        <time>2010-02-07T01:32:56Z</time>
      </trkpt>
      <trkpt lat="47.594162989407778" lon="18.791832039132714">
        <ele>205.322</ele>
        <time>2010-02-07T01:32:59Z</time>
      </trkpt>
      <trkpt lat="47.594157960265875" lon="18.791774958372116">
        <ele>205.61099999999999</ele>
        <time>2010-02-07T01:33:02Z</time>
      </trkpt>
      <trkpt lat="47.594156032428145" lon="18.79171796143055">
        <ele>206.19499999999999</ele>
        <time>2010-02-07T01:33:05Z</time>
      </trkpt>
      <trkpt lat="47.594143962487578" lon="18.791665993630886">
        <ele>206.19800000000001</ele>
        <time>2010-02-07T01:33:08Z</time>
      </trkpt>
      <trkpt lat="47.59412401355803" lon="18.791603967547417">
        <ele>207.25299999999999</ele>
        <time>2010-02-07T01:33:11Z</time>
      </trkpt>
      <trkpt lat="47.594101969152689" lon="18.791548982262611">
        <ele>206.98500000000001</ele>
        <time>2010-02-07T01:33:14Z</time>
      </trkpt>
      <trkpt lat="47.594076991081238" lon="18.791472958400846">
        <ele>208.13200000000001</ele>
        <time>2010-02-07T01:33:17Z</time>
      </trkpt>
      <trkpt lat="47.594042038545012" lon="18.79139500670135">
        <ele>206.946</ele>
        <time>2010-02-07T01:33:20Z</time>
      </trkpt>
      <trkpt lat="47.594013959169388" lon="18.791320994496346">
        <ele>207.33000000000001</ele>
        <time>2010-02-07T01:33:23Z</time>
      </trkpt>
      <trkpt lat="47.593990992754698" lon="18.791255028918386">
        <ele>207.667</ele>
        <time>2010-02-07T01:33:26Z</time>
      </trkpt>
      <trkpt lat="47.59397397749126" lon="18.791193002834916">
        <ele>208.03200000000001</ele>
        <time>2010-02-07T01:33:29Z</time>
      </trkpt>
      <trkpt lat="47.593969032168388" lon="18.791135000064969">
        <ele>207.56399999999999</ele>
        <time>2010-02-07T01:33:32Z</time>
      </trkpt>
      <trkpt lat="47.593964003026485" lon="18.791082026436925">
        <ele>207.91200000000001</ele>
        <time>2010-02-07T01:33:35Z</time>
      </trkpt>
      <trkpt lat="47.593961991369724" lon="18.791026035323739">
        <ele>208.255</ele>
        <time>2010-02-07T01:33:38Z</time>
      </trkpt>
      <trkpt lat="47.593948999419808" lon="18.790974989533424">
        <ele>207.78700000000001</ele>
        <time>2010-02-07T01:33:41Z</time>
      </trkpt>
      <trkpt lat="47.593939024955034" lon="18.790921010077">
        <ele>207.78299999999999</ele>
        <time>2010-02-07T01:33:44Z</time>
      </trkpt>
      <trkpt lat="47.593926033005118" lon="18.790865018963814">
        <ele>207.749</ele>
        <time>2010-02-07T01:33:47Z</time>
      </trkpt>
      <trkpt lat="47.593913041055202" lon="18.790812967345119">
        <ele>206.78100000000001</ele>
        <time>2010-02-07T01:33:50Z</time>
      </trkpt>
      <trkpt lat="47.593900971114635" lon="18.790762005373836">
        <ele>207.113</ele>
        <time>2010-02-07T01:33:53Z</time>
      </trkpt>
      <trkpt lat="47.593886973336339" lon="18.790708025917411">
        <ele>207.50999999999999</ele>
        <time>2010-02-07T01:33:56Z</time>
      </trkpt>
      <trkpt lat="47.593874987214804" lon="18.790653962641954">
        <ele>207.47800000000001</ele>
        <time>2010-02-07T01:33:59Z</time>
      </trkpt>
      <trkpt lat="47.593861995264888" lon="18.790601994842291">
        <ele>207.619</ele>
        <time>2010-02-07T01:34:02Z</time>
      </trkpt>
      <trkpt lat="47.59384498000145" lon="18.790550027042627">
        <ele>207.119</ele>
        <time>2010-02-07T01:34:05Z</time>
      </trkpt>
      <trkpt lat="47.593835005536675" lon="18.790500992909074">
        <ele>207.084</ele>
        <time>2010-02-07T01:34:08Z</time>
      </trkpt>
      <trkpt lat="47.59382301941514" lon="18.790453970432281">
        <ele>206.423</ele>
        <time>2010-02-07T01:34:11Z</time>
      </trkpt>
      <trkpt lat="47.593808015808463" lon="18.790404014289379">
        <ele>205.81</ele>
        <time>2010-02-07T01:34:14Z</time>
      </trkpt>
      <trkpt lat="47.593786977231503" lon="18.790333019569516">
        <ele>205.26599999999999</ele>
        <time>2010-02-07T01:34:18Z</time>
      </trkpt>
      <trkpt lat="47.593777002766728" lon="18.79027702845633">
        <ele>205.608</ele>
        <time>2010-02-07T01:34:21Z</time>
      </trkpt>
      <trkpt lat="47.593763004988432" lon="18.790221037343144">
        <ele>204.88300000000001</ele>
        <time>2010-02-07T01:34:24Z</time>
      </trkpt>
      <trkpt lat="47.593751018866897" lon="18.790166974067688">
        <ele>205.12</ele>
        <time>2010-02-07T01:34:27Z</time>
      </trkpt>
      <trkpt lat="47.593740960583091" lon="18.790114000439644">
        <ele>205.274</ele>
        <time>2010-02-07T01:34:30Z</time>
      </trkpt>
      <trkpt lat="47.593726962804794" lon="18.790054991841316">
        <ele>204.47399999999999</ele>
        <time>2010-02-07T01:34:33Z</time>
      </trkpt>
      <trkpt lat="47.593713970854878" lon="18.78999900072813">
        <ele>204.52099999999999</ele>
        <time>2010-02-07T01:34:36Z</time>
      </trkpt>
      <trkpt lat="47.593699973076582" lon="18.789947032928467">
        <ele>204.23400000000001</ele>
        <time>2010-02-07T01:34:39Z</time>
      </trkpt>
      <trkpt lat="47.593686981126666" lon="18.789891041815281">
        <ele>204.63900000000001</ele>
        <time>2010-02-07T01:34:42Z</time>
      </trkpt>
      <trkpt lat="47.593676000833511" lon="18.78984896466136">
        <ele>204.691</ele>
        <time>2010-02-07T01:34:44Z</time>
      </trkpt>
      <trkpt lat="47.593662003055215" lon="18.789789034053683">
        <ele>204.18700000000001</ele>
        <time>2010-02-07T01:34:47Z</time>
      </trkpt>
      <trkpt lat="47.593643981963396" lon="18.789726002141833">
        <ele>203.84399999999999</ele>
        <time>2010-02-07T01:34:50Z</time>
      </trkpt>
      <trkpt lat="47.593627972528338" lon="18.789669005200267">
        <ele>203</ele>
        <time>2010-02-07T01:34:53Z</time>
      </trkpt>
      <trkpt lat="47.593610035255551" lon="18.7896120082587">
        <ele>202.69200000000001</ele>
        <time>2010-02-07T01:34:56Z</time>
      </trkpt>
      <trkpt lat="47.593593019992113" lon="18.789556017145514">
        <ele>201.56200000000001</ele>
        <time>2010-02-07T01:34:59Z</time>
      </trkpt>
      <trkpt lat="47.593572987243533" lon="18.789502959698439">
        <ele>201.73599999999999</ele>
        <time>2010-02-07T01:35:02Z</time>
      </trkpt>
      <trkpt lat="47.593553960323334" lon="18.789453003555536">
        <ele>201.887</ele>
        <time>2010-02-07T01:35:05Z</time>
      </trkpt>
      <trkpt lat="47.593538034707308" lon="18.789413021877408">
        <ele>201.47300000000001</ele>
        <time>2010-02-07T01:35:07Z</time>
      </trkpt>
      <trkpt lat="47.59352202527225" lon="18.789356024935842">
        <ele>201.52500000000001</ele>
        <time>2010-02-07T01:35:10Z</time>
      </trkpt>
      <trkpt lat="47.593507021665573" lon="18.789297016337514">
        <ele>201.38900000000001</ele>
        <time>2010-02-07T01:35:13Z</time>
      </trkpt>
      <trkpt lat="47.593494029715657" lon="18.789244964718819">
        <ele>201.107</ele>
        <time>2010-02-07T01:35:16Z</time>
      </trkpt>
      <trkpt lat="47.593487994745374" lon="18.789206994697452">
        <ele>200.66</ele>
        <time>2010-02-07T01:35:19Z</time>
      </trkpt>
      <trkpt lat="47.593473996967077" lon="18.789165001362562">
        <ele>200.73500000000001</ele>
        <time>2010-02-07T01:35:22Z</time>
      </trkpt>
      <trkpt lat="47.59345798753202" lon="18.789114039391279">
        <ele>199.608</ele>
        <time>2010-02-07T01:35:25Z</time>
      </trkpt>
      <trkpt lat="47.593447007238865" lon="18.789069028571248">
        <ele>198.87</ele>
        <time>2010-02-07T01:35:28Z</time>
      </trkpt>
      <trkpt lat="47.59343502111733" lon="18.789015971124172">
        <ele>199.70599999999999</ele>
        <time>2010-02-07T01:35:31Z</time>
      </trkpt>
      <trkpt lat="47.593424962833524" lon="18.78896702080965">
        <ele>198.04499999999999</ele>
        <time>2010-02-07T01:35:34Z</time>
      </trkpt>
      <trkpt lat="47.593409037217498" lon="18.788915975019336">
        <ele>198.41900000000001</ele>
        <time>2010-02-07T01:35:37Z</time>
      </trkpt>
      <trkpt lat="47.593394033610821" lon="18.788876999169588">
        <ele>197.56399999999999</ele>
        <time>2010-02-07T01:35:39Z</time>
      </trkpt>
      <trkpt lat="47.593390010297298" lon="18.78883701749146">
        <ele>197.15100000000001</ele>
        <time>2010-02-07T01:35:42Z</time>
      </trkpt>
      <trkpt lat="47.593381041660905" lon="18.788797035813332">
        <ele>197.24799999999999</ele>
        <time>2010-02-07T01:35:45Z</time>
      </trkpt>
      <trkpt lat="47.593366960063577" lon="18.788755964487791">
        <ele>197.05600000000001</ele>
        <time>2010-02-07T01:35:48Z</time>
      </trkpt>
      <trkpt lat="47.59335296228528" lon="18.788710031658411">
        <ele>196.72200000000001</ele>
        <time>2010-02-07T01:35:51Z</time>
      </trkpt>
      <trkpt lat="47.593335025012493" lon="18.78866502083838">
        <ele>196.73400000000001</ele>
        <time>2010-02-07T01:35:54Z</time>
      </trkpt>
      <trkpt lat="47.593314992263913" lon="18.788617998361588">
        <ele>196.511</ele>
        <time>2010-02-07T01:35:57Z</time>
      </trkpt>
      <trkpt lat="47.593298982828856" lon="18.788557983934879">
        <ele>196.70400000000001</ele>
        <time>2010-02-07T01:36:00Z</time>
      </trkpt>
      <trkpt lat="47.593288002535701" lon="18.788522025570273">
        <ele>196.41499999999999</ele>
        <time>2010-02-07T01:36:02Z</time>
      </trkpt>
      <trkpt lat="47.593269981443882" lon="18.788475003093481">
        <ele>195.464</ele>
        <time>2010-02-07T01:36:05Z</time>
      </trkpt>
      <trkpt lat="47.593252966180444" lon="18.788425968959928">
        <ele>195.125</ele>
        <time>2010-02-07T01:36:08Z</time>
      </trkpt>
      <trkpt lat="47.593236034736037" lon="18.788378024473786">
        <ele>194.81</ele>
        <time>2010-02-07T01:36:11Z</time>
      </trkpt>
      <trkpt lat="47.593212984502316" lon="18.788328990340233">
        <ele>194.929</ele>
        <time>2010-02-07T01:36:14Z</time>
      </trkpt>
      <trkpt lat="47.593194963410497" lon="18.788280040025711">
        <ele>194.08600000000001</ele>
        <time>2010-02-07T01:36:17Z</time>
      </trkpt>
      <trkpt lat="47.593176020309329" lon="18.788228994235396">
        <ele>194.792</ele>
        <time>2010-02-07T01:36:20Z</time>
      </trkpt>
      <trkpt lat="47.593154981732368" lon="18.788176020607352">
        <ele>194.804</ele>
        <time>2010-02-07T01:36:23Z</time>
      </trkpt>
      <trkpt lat="47.593132015317678" lon="18.788122963160276">
        <ele>193.82400000000001</ele>
        <time>2010-02-07T01:36:26Z</time>
      </trkpt>
      <trkpt lat="47.593118017539382" lon="18.788087004795671">
        <ele>193.98400000000001</ele>
        <time>2010-02-07T01:36:28Z</time>
      </trkpt>
      <trkpt lat="47.593096978962421" lon="18.788035036996007">
        <ele>193.35400000000001</ele>
        <time>2010-02-07T01:36:31Z</time>
      </trkpt>
      <trkpt lat="47.593079041689634" lon="18.787987008690834">
        <ele>193.904</ele>
        <time>2010-02-07T01:36:34Z</time>
      </trkpt>
      <trkpt lat="47.593056997284293" lon="18.787938980385661">
        <ele>193.81100000000001</ele>
        <time>2010-02-07T01:36:37Z</time>
      </trkpt>
      <trkpt lat="47.593035036697984" lon="18.787886006757617">
        <ele>193.97900000000001</ele>
        <time>2010-02-07T01:36:40Z</time>
      </trkpt>
      <trkpt lat="47.593025984242558" lon="18.787820963189006">
        <ele>193.05099999999999</ele>
        <time>2010-02-07T01:36:43Z</time>
      </trkpt>
      <trkpt lat="47.593007041141391" lon="18.787773018702865">
        <ele>192.815</ele>
        <time>2010-02-07T01:36:46Z</time>
      </trkpt>
      <trkpt lat="47.592983990907669" lon="18.787724990397692">
        <ele>193.47900000000001</ele>
        <time>2010-02-07T01:36:49Z</time>
      </trkpt>
      <trkpt lat="47.59296203032136" lon="18.78767604008317">
        <ele>193.45500000000001</ele>
        <time>2010-02-07T01:36:52Z</time>
      </trkpt>
      <trkpt lat="47.592939985916018" lon="18.787630023434758">
        <ele>193.172</ele>
        <time>2010-02-07T01:36:55Z</time>
      </trkpt>
      <trkpt lat="47.592925988137722" lon="18.787584006786346">
        <ele>192.441</ele>
        <time>2010-02-07T01:36:58Z</time>
      </trkpt>
      <trkpt lat="47.5929219648242" lon="18.78752700984478">
        <ele>192.64400000000001</ele>
        <time>2010-02-07T01:37:01Z</time>
      </trkpt>
      <trkpt lat="47.5929219648242" lon="18.787478981539607">
        <ele>192.62700000000001</ele>
        <time>2010-02-07T01:37:04Z</time>
      </trkpt>
      <trkpt lat="47.592926993966103" lon="18.787430031225085">
        <ele>193.06200000000001</ele>
        <time>2010-02-07T01:37:07Z</time>
      </trkpt>
      <trkpt lat="47.592927999794483" lon="18.787383008748293">
        <ele>192.548</ele>
        <time>2010-02-07T01:37:10Z</time>
      </trkpt>
      <trkpt lat="47.592912996187806" lon="18.787331040948629">
        <ele>192.89400000000001</ele>
        <time>2010-02-07T01:37:13Z</time>
      </trkpt>
      <trkpt lat="47.592892963439226" lon="18.787281000986695">
        <ele>192.37299999999999</ele>
        <time>2010-02-07T01:37:16Z</time>
      </trkpt>
      <trkpt lat="47.592874020338058" lon="18.787227021530271">
        <ele>192.61799999999999</ele>
        <time>2010-02-07T01:37:19Z</time>
      </trkpt>
      <trkpt lat="47.59285599924624" lon="18.787176981568336">
        <ele>192.64099999999999</ele>
        <time>2010-02-07T01:37:22Z</time>
      </trkpt>
      <trkpt lat="47.592845018953085" lon="18.787129959091544">
        <ele>191.84999999999999</ele>
        <time>2010-02-07T01:37:25Z</time>
      </trkpt>
      <trkpt lat="47.592830015346408" lon="18.787086959928274">
        <ele>191.69499999999999</ele>
        <time>2010-02-07T01:37:28Z</time>
      </trkpt>
      <trkpt lat="47.592808976769447" lon="18.787040021270514">
        <ele>192.24299999999999</ele>
        <time>2010-02-07T01:37:32Z</time>
      </trkpt>
      <trkpt lat="47.592786010354757" lon="18.786991992965341">
        <ele>191.815</ele>
        <time>2010-02-07T01:37:36Z</time>
      </trkpt>
      <trkpt lat="47.592865973711014" lon="18.786855032667518">
        <ele>190.619</ele>
        <time>2010-02-07T01:38:18Z</time>
      </trkpt>
      <trkpt lat="47.59283697232604" lon="18.786829970777035">
        <ele>191.374</ele>
        <time>2010-02-07T01:38:29Z</time>
      </trkpt>
      <trkpt lat="47.592820040881634" lon="18.786781020462513">
        <ele>191.364</ele>
        <time>2010-02-07T01:38:32Z</time>
      </trkpt>
      <trkpt lat="47.592799002304673" lon="18.786730980500579">
        <ele>191.732</ele>
        <time>2010-02-07T01:38:35Z</time>
      </trkpt>
      <trkpt lat="47.592777963727713" lon="18.786681024357677">
        <ele>191.82300000000001</ele>
        <time>2010-02-07T01:38:38Z</time>
      </trkpt>
      <trkpt lat="47.59274804033339" lon="18.786610029637814">
        <ele>191.773</ele>
        <time>2010-02-07T01:38:41Z</time>
      </trkpt>
      <trkpt lat="47.592722978442907" lon="18.786524031311274">
        <ele>190.964</ele>
        <time>2010-02-07T01:38:44Z</time>
      </trkpt>
      <trkpt lat="47.592698000371456" lon="18.786468040198088">
        <ele>191.126</ele>
        <time>2010-02-07T01:38:46Z</time>
      </trkpt>
      <trkpt lat="47.592682996764779" lon="18.786425963044167">
        <ele>190.333</ele>
        <time>2010-02-07T01:38:48Z</time>
      </trkpt>
      <trkpt lat="47.592671010643244" lon="18.786380030214787">
        <ele>190.74600000000001</ele>
        <time>2010-02-07T01:38:51Z</time>
      </trkpt>
      <trkpt lat="47.592659024521708" lon="18.786336025223136">
        <ele>190.577</ele>
        <time>2010-02-07T01:38:54Z</time>
      </trkpt>
      <trkpt lat="47.592639997601509" lon="18.786290008574724">
        <ele>190.559</ele>
        <time>2010-02-07T01:38:57Z</time>
      </trkpt>
      <trkpt lat="47.592625999823213" lon="18.786247009411454">
        <ele>190.453</ele>
        <time>2010-02-07T01:39:00Z</time>
      </trkpt>
      <trkpt lat="47.592616025358438" lon="18.78619696944952">
        <ele>190.286</ele>
        <time>2010-02-07T01:39:03Z</time>
      </trkpt>
      <trkpt lat="47.592606972903013" lon="18.786143995821476">
        <ele>190.63399999999999</ele>
        <time>2010-02-07T01:39:06Z</time>
      </trkpt>
      <trkpt lat="47.592601021751761" lon="18.78608699887991">
        <ele>189.56700000000001</ele>
        <time>2010-02-07T01:39:09Z</time>
      </trkpt>
      <trkpt lat="47.592594986781478" lon="18.786037964746356">
        <ele>189.96100000000001</ele>
        <time>2010-02-07T01:39:12Z</time>
      </trkpt>
      <trkpt lat="47.592590041458607" lon="18.785990020260215">
        <ele>190.113</ele>
        <time>2010-02-07T01:39:15Z</time>
      </trkpt>
      <trkpt lat="47.592583000659943" lon="18.785952972248197">
        <ele>189.636</ele>
        <time>2010-02-07T01:39:17Z</time>
      </trkpt>
      <trkpt lat="47.592569002881646" lon="18.785902010276914">
        <ele>189.52799999999999</ele>
        <time>2010-02-07T01:39:20Z</time>
      </trkpt>
      <trkpt lat="47.592550981789827" lon="18.785836966708302">
        <ele>190.05199999999999</ele>
        <time>2010-02-07T01:39:23Z</time>
      </trkpt>
      <trkpt lat="47.59253597818315" lon="18.785793967545033">
        <ele>189.85499999999999</ele>
        <time>2010-02-07T01:39:25Z</time>
      </trkpt>
      <trkpt lat="47.592509994283319" lon="18.785746023058891">
        <ele>188.857</ele>
        <time>2010-02-07T01:39:28Z</time>
      </trkpt>
      <trkpt lat="47.59249297901988" lon="18.785709980875254">
        <ele>188.41200000000001</ele>
        <time>2010-02-07T01:39:30Z</time>
      </trkpt>
      <trkpt lat="47.592475963756442" lon="18.785662958398461">
        <ele>189.83000000000001</ele>
        <time>2010-02-07T01:39:32Z</time>
      </trkpt>
      <trkpt lat="47.592460038140416" lon="18.785604033619165">
        <ele>189.971</ele>
        <time>2010-02-07T01:39:35Z</time>
      </trkpt>
      <trkpt lat="47.592445034533739" lon="18.785565979778767">
        <ele>189.185</ele>
        <time>2010-02-07T01:39:37Z</time>
      </trkpt>
      <trkpt lat="47.592423995956779" lon="18.785519963130355">
        <ele>189.72800000000001</ele>
        <time>2010-02-07T01:39:40Z</time>
      </trkpt>
      <trkpt lat="47.592409998178482" lon="18.785471012815833">
        <ele>189.00700000000001</ele>
        <time>2010-02-07T01:39:43Z</time>
      </trkpt>
      <trkpt lat="47.592407986521721" lon="18.78540001809597">
        <ele>189.55099999999999</ele>
        <time>2010-02-07T01:39:46Z</time>
      </trkpt>
      <trkpt lat="47.592401029542089" lon="18.78533698618412">
        <ele>189.613</ele>
        <time>2010-02-07T01:39:49Z</time>
      </trkpt>
      <trkpt lat="47.592396000400186" lon="18.785289041697979">
        <ele>189.012</ele>
        <time>2010-02-07T01:39:52Z</time>
      </trkpt>
      <trkpt lat="47.592402035370469" lon="18.785219974815845">
        <ele>188.71199999999999</ele>
        <time>2010-02-07T01:39:54Z</time>
      </trkpt>
      <trkpt lat="47.592403963208199" lon="18.785159038379788">
        <ele>187.08199999999999</ele>
        <time>2010-02-07T01:39:56Z</time>
      </trkpt>
      <trkpt lat="47.592401029542089" lon="18.785104975104332">
        <ele>188.91</ele>
        <time>2010-02-07T01:39:59Z</time>
      </trkpt>
      <trkpt lat="47.592385020107031" lon="18.785059964284301">
        <ele>188.54599999999999</ele>
        <time>2010-02-07T01:40:02Z</time>
      </trkpt>
      <trkpt lat="47.592355012893677" lon="18.785030962899327">
        <ele>188.739</ele>
        <time>2010-02-07T01:40:05Z</time>
      </trkpt>
      <trkpt lat="47.592316959053278" lon="18.785006990656257">
        <ele>188.93799999999999</ele>
        <time>2010-02-07T01:40:09Z</time>
      </trkpt>
      <trkpt lat="47.592281000688672" lon="18.784940019249916">
        <ele>188.56100000000001</ele>
        <time>2010-02-07T01:40:13Z</time>
      </trkpt>
      <trkpt lat="47.592258034273982" lon="18.78488402813673">
        <ele>188.39500000000001</ele>
        <time>2010-02-07T01:40:17Z</time>
      </trkpt>
      <trkpt lat="47.592239007353783" lon="18.784824013710022">
        <ele>189.09899999999999</ele>
        <time>2010-02-07T01:40:20Z</time>
      </trkpt>
      <trkpt lat="47.592228027060628" lon="18.784766010940075">
        <ele>188.78800000000001</ele>
        <time>2010-02-07T01:40:23Z</time>
      </trkpt>
      <trkpt lat="47.59219198487699" lon="18.784710019826889">
        <ele>188.642</ele>
        <time>2010-02-07T01:40:55Z</time>
      </trkpt>
      <trkpt lat="47.592182010412216" lon="18.784651011228561">
        <ele>189.358</ele>
        <time>2010-02-07T01:40:59Z</time>
      </trkpt>
      <trkpt lat="47.592173963785172" lon="18.784598037600517">
        <ele>189.095</ele>
        <time>2010-02-07T01:41:02Z</time>
      </trkpt>
      <trkpt lat="47.592164995148778" lon="18.784527964890003">
        <ele>189.226</ele>
        <time>2010-02-07T01:41:05Z</time>
      </trkpt>
      <trkpt lat="47.592158038169146" lon="18.784463005140424">
        <ele>189.91999999999999</ele>
        <time>2010-02-07T01:41:08Z</time>
      </trkpt>
      <trkpt lat="47.592150997370481" lon="18.784416988492012">
        <ele>188.91499999999999</ele>
        <time>2010-02-07T01:41:11Z</time>
      </trkpt>
      <trkpt lat="47.592144040390849" lon="18.784377006813884">
        <ele>189.58600000000001</ele>
        <time>2010-02-07T01:41:14Z</time>
      </trkpt>
      <trkpt lat="47.592133982107043" lon="18.784341970458627">
        <ele>189.47999999999999</ele>
        <time>2010-02-07T01:41:17Z</time>
      </trkpt>
      <trkpt lat="47.592124007642269" lon="18.784302994608879">
        <ele>189.68100000000001</ele>
        <time>2010-02-07T01:41:20Z</time>
      </trkpt>
      <trkpt lat="47.592121995985508" lon="18.784272987395525">
        <ele>189.39500000000001</ele>
        <time>2010-02-07T01:41:24Z</time>
      </trkpt>
      <trkpt lat="47.592115039005876" lon="18.784247003495693">
        <ele>189.60499999999999</ele>
        <time>2010-02-07T01:41:27Z</time>
      </trkpt>
      <trkpt lat="47.592106992378831" lon="18.784210039302707">
        <ele>189.119</ele>
        <time>2010-02-07T01:41:30Z</time>
      </trkpt>
      <trkpt lat="47.592100035399199" lon="18.784170979633927">
        <ele>189.536</ele>
        <time>2010-02-07T01:41:33Z</time>
      </trkpt>
      <trkpt lat="47.592091988772154" lon="18.784135021269321">
        <ele>189.61099999999999</ele>
        <time>2010-02-07T01:41:36Z</time>
      </trkpt>
      <trkpt lat="47.592087965458632" lon="18.784097973257303">
        <ele>189.52500000000001</ele>
        <time>2010-02-07T01:41:39Z</time>
      </trkpt>
      <trkpt lat="47.592080002650619" lon="18.784053968265653">
        <ele>190.32499999999999</ele>
        <time>2010-02-07T01:41:42Z</time>
      </trkpt>
      <trkpt lat="47.592073967680335" lon="18.784011974930763">
        <ele>189.53399999999999</ele>
        <time>2010-02-07T01:41:45Z</time>
      </trkpt>
      <trkpt lat="47.592063993215561" lon="18.783972999081016">
        <ele>189.601</ele>
        <time>2010-02-07T01:41:48Z</time>
      </trkpt>
      <trkpt lat="47.592053012922406" lon="18.783933017402887">
        <ele>188.77099999999999</ele>
        <time>2010-02-07T01:41:51Z</time>
      </trkpt>
      <trkpt lat="47.592044966295362" lon="18.783892029896379">
        <ele>189.751</ele>
        <time>2010-02-07T01:41:54Z</time>
      </trkpt>
      <trkpt lat="47.59204002097249" lon="18.783850036561489">
        <ele>189.50700000000001</ele>
        <time>2010-02-07T01:41:57Z</time>
      </trkpt>
      <trkpt lat="47.59203901514411" lon="18.783804019913077">
        <ele>190.06</ele>
        <time>2010-02-07T01:42:00Z</time>
      </trkpt>
      <trkpt lat="47.59203901514411" lon="18.783742999657989">
        <ele>189.27000000000001</ele>
        <time>2010-02-07T01:42:04Z</time>
      </trkpt>
      <trkpt lat="47.592032980173826" lon="18.783696983009577">
        <ele>190.08000000000001</ele>
        <time>2010-02-07T01:42:07Z</time>
      </trkpt>
      <trkpt lat="47.592023005709052" lon="18.783654989674687">
        <ele>189.52799999999999</ele>
        <time>2010-02-07T01:42:10Z</time>
      </trkpt>
      <trkpt lat="47.59201898239553" lon="18.783609978854656">
        <ele>190.30799999999999</ele>
        <time>2010-02-07T01:42:13Z</time>
      </trkpt>
      <trkpt lat="47.592010013759136" lon="18.783565973863006">
        <ele>190.42699999999999</ele>
        <time>2010-02-07T01:42:16Z</time>
      </trkpt>
      <trkpt lat="47.592006996273994" lon="18.783520963042974">
        <ele>190.22999999999999</ele>
        <time>2010-02-07T01:42:19Z</time>
      </trkpt>
      <trkpt lat="47.592005990445614" lon="18.783475030213594">
        <ele>189.649</ele>
        <time>2010-02-07T01:42:22Z</time>
      </trkpt>
      <trkpt lat="47.592004984617233" lon="18.783433036878705">
        <ele>190.31800000000001</ele>
        <time>2010-02-07T01:42:25Z</time>
      </trkpt>
      <trkpt lat="47.592029962688684" lon="18.783357013016939">
        <ele>190.553</ele>
        <time>2010-02-07T01:42:29Z</time>
      </trkpt>
      <trkpt lat="47.592066004872322" lon="18.783318037167192">
        <ele>190.10900000000001</ele>
        <time>2010-02-07T01:42:32Z</time>
      </trkpt>
      <trkpt lat="47.592114033177495" lon="18.783276965841651">
        <ele>190.416</ele>
        <time>2010-02-07T01:42:37Z</time>
      </trkpt>
      <trkpt lat="47.592119984328747" lon="18.783226003870368">
        <ele>189.65000000000001</ele>
        <time>2010-02-07T01:42:41Z</time>
      </trkpt>
      <trkpt lat="47.592101963236928" lon="18.783180993050337">
        <ele>190.32400000000001</ele>
        <time>2010-02-07T01:42:44Z</time>
      </trkpt>
      <trkpt lat="47.59208302013576" lon="18.783125001937151">
        <ele>190.607</ele>
        <time>2010-02-07T01:42:48Z</time>
      </trkpt>
      <trkpt lat="47.592072039842606" lon="18.783082002773881">
        <ele>190.59899999999999</ele>
        <time>2010-02-07T01:42:51Z</time>
      </trkpt>
      <trkpt lat="47.592058964073658" lon="18.783039003610611">
        <ele>191.054</ele>
        <time>2010-02-07T01:42:54Z</time>
      </trkpt>
      <trkpt lat="47.59203901514411" lon="18.782998016104102">
        <ele>190.96899999999999</ele>
        <time>2010-02-07T01:42:57Z</time>
      </trkpt>
      <trkpt lat="47.592024011537433" lon="18.782955016940832">
        <ele>191.31</ele>
        <time>2010-02-07T01:43:00Z</time>
      </trkpt>
      <trkpt lat="47.592013031244278" lon="18.782912017777562">
        <ele>191.054</ele>
        <time>2010-02-07T01:43:03Z</time>
      </trkpt>
      <trkpt lat="47.592004984617233" lon="18.782868012785912">
        <ele>191.55799999999999</ele>
        <time>2010-02-07T01:43:06Z</time>
      </trkpt>
      <trkpt lat="47.591992998495698" lon="18.782826019451022">
        <ele>189.934</ele>
        <time>2010-02-07T01:43:09Z</time>
      </trkpt>
      <trkpt lat="47.591983024030924" lon="18.782786037772894">
        <ele>190.44</ele>
        <time>2010-02-07T01:43:12Z</time>
      </trkpt>
      <trkpt lat="47.591970032081008" lon="18.782744966447353">
        <ele>191.53399999999999</ele>
        <time>2010-02-07T01:43:15Z</time>
      </trkpt>
      <trkpt lat="47.591959973797202" lon="18.782700961455703">
        <ele>191.75899999999999</ele>
        <time>2010-02-07T01:43:18Z</time>
      </trkpt>
      <trkpt lat="47.591952010989189" lon="18.782656034454703">
        <ele>192.351</ele>
        <time>2010-02-07T01:43:21Z</time>
      </trkpt>
      <trkpt lat="47.591942036524415" lon="18.782604988664389">
        <ele>191.995</ele>
        <time>2010-02-07T01:43:24Z</time>
      </trkpt>
      <trkpt lat="47.591929966583848" lon="18.782546985894442">
        <ele>192.59800000000001</ele>
        <time>2010-02-07T01:43:27Z</time>
      </trkpt>
      <trkpt lat="47.591923009604216" lon="18.782470040023327">
        <ele>192.53</ele>
        <time>2010-02-07T01:43:30Z</time>
      </trkpt>
      <trkpt lat="47.591916974633932" lon="18.782412959262729">
        <ele>192.97999999999999</ele>
        <time>2010-02-07T01:43:33Z</time>
      </trkpt>
      <trkpt lat="47.5919100176543" lon="18.782370965927839">
        <ele>192.916</ele>
        <time>2010-02-07T01:43:36Z</time>
      </trkpt>
      <trkpt lat="47.591902976855636" lon="18.78232897259295">
        <ele>193.03</ele>
        <time>2010-02-07T01:43:39Z</time>
      </trkpt>
      <trkpt lat="47.591895014047623" lon="18.782283961772919">
        <ele>193.20400000000001</ele>
        <time>2010-02-07T01:43:42Z</time>
      </trkpt>
      <trkpt lat="47.591886967420578" lon="18.782222019508481">
        <ele>193.363</ele>
        <time>2010-02-07T01:43:45Z</time>
      </trkpt>
      <trkpt lat="47.591880010440946" lon="18.782159993425012">
        <ele>194.29499999999999</ele>
        <time>2010-02-07T01:43:47Z</time>
      </trkpt>
      <trkpt lat="47.591869030147791" lon="18.782105008140206">
        <ele>194.149</ele>
        <time>2010-02-07T01:43:49Z</time>
      </trkpt>
      <trkpt lat="47.591859977692366" lon="18.782050022855401">
        <ele>194.261</ele>
        <time>2010-02-07T01:43:51Z</time>
      </trkpt>
      <trkpt lat="47.591852014884353" lon="18.781996965408325">
        <ele>193.43100000000001</ele>
        <time>2010-02-07T01:43:53Z</time>
      </trkpt>
      <trkpt lat="47.591841034591198" lon="18.781923037022352">
        <ele>193.51400000000001</ele>
        <time>2010-02-07T01:43:56Z</time>
      </trkpt>
      <trkpt lat="47.591826030984521" lon="18.781853970140219">
        <ele>194.28</ele>
        <time>2010-02-07T01:43:59Z</time>
      </trkpt>
      <trkpt lat="47.591813039034605" lon="18.781784987077117">
        <ele>194.57599999999999</ele>
        <time>2010-02-07T01:44:02Z</time>
      </trkpt>
      <trkpt lat="47.591799963265657" lon="18.781716004014015">
        <ele>194.67400000000001</ele>
        <time>2010-02-07T01:44:05Z</time>
      </trkpt>
      <trkpt lat="47.591790994629264" lon="18.781668981537223">
        <ele>194.58600000000001</ele>
        <time>2010-02-07T01:44:07Z</time>
      </trkpt>
      <trkpt lat="47.591778002679348" lon="18.781604021787643">
        <ele>194.65799999999999</ele>
        <time>2010-02-07T01:44:10Z</time>
      </trkpt>
      <trkpt lat="47.591762999072671" lon="18.781539984047413">
        <ele>194.31200000000001</ele>
        <time>2010-02-07T01:44:13Z</time>
      </trkpt>
      <trkpt lat="47.591745983809233" lon="18.781481981277466">
        <ele>194.911</ele>
        <time>2010-02-07T01:44:16Z</time>
      </trkpt>
      <trkpt lat="47.591731986030936" lon="18.781421966850758">
        <ele>195.221</ele>
        <time>2010-02-07T01:44:19Z</time>
      </trkpt>
      <trkpt lat="47.591724023222923" lon="18.781359018757939">
        <ele>194.94900000000001</ele>
        <time>2010-02-07T01:44:22Z</time>
      </trkpt>
      <trkpt lat="47.591711031273007" lon="18.781297998502851">
        <ele>195.315</ele>
        <time>2010-02-07T01:44:25Z</time>
      </trkpt>
      <trkpt lat="47.591698039323092" lon="18.781237984076142">
        <ele>195.55799999999999</ele>
        <time>2010-02-07T01:44:28Z</time>
      </trkpt>
      <trkpt lat="47.591685969382524" lon="18.781176963821054">
        <ele>195.56200000000001</ele>
        <time>2010-02-07T01:44:31Z</time>
      </trkpt>
      <trkpt lat="47.591681024059653" lon="18.781121978536248">
        <ele>196.08600000000001</ele>
        <time>2010-02-07T01:44:34Z</time>
      </trkpt>
      <trkpt lat="47.591678006574512" lon="18.781063975766301">
        <ele>196.02699999999999</ele>
        <time>2010-02-07T01:44:37Z</time>
      </trkpt>
      <trkpt lat="47.591669959947467" lon="18.781002033501863">
        <ele>195.887</ele>
        <time>2010-02-07T01:44:40Z</time>
      </trkpt>
      <trkpt lat="47.591661997139454" lon="18.780951993539929">
        <ele>195.87700000000001</ele>
        <time>2010-02-07T01:44:43Z</time>
      </trkpt>
      <trkpt lat="47.591657973825932" lon="18.780896002426744">
        <ele>195.93899999999999</ele>
        <time>2010-02-07T01:44:46Z</time>
      </trkpt>
      <trkpt lat="47.591647999361157" lon="18.780840011313558">
        <ele>197.09700000000001</ele>
        <time>2010-02-07T01:44:49Z</time>
      </trkpt>
      <trkpt lat="47.591640036553144" lon="18.780789971351624">
        <ele>196.416</ele>
        <time>2010-02-07T01:44:52Z</time>
      </trkpt>
      <trkpt lat="47.591626960784197" lon="18.780740015208721">
        <ele>196.17500000000001</ele>
        <time>2010-02-07T01:44:55Z</time>
      </trkpt>
      <trkpt lat="47.591622015461326" lon="18.780685029923916">
        <ele>196.005</ele>
        <time>2010-02-07T01:44:58Z</time>
      </trkpt>
      <trkpt lat="47.591615980491042" lon="18.78063197247684">
        <ele>196.20599999999999</ele>
        <time>2010-02-07T01:45:01Z</time>
      </trkpt>
      <trkpt lat="47.591607011854649" lon="18.780581010505557">
        <ele>196.386</ele>
        <time>2010-02-07T01:45:04Z</time>
      </trkpt>
      <trkpt lat="47.591597959399223" lon="18.780533988028765">
        <ele>196.62899999999999</ele>
        <time>2010-02-07T01:45:07Z</time>
      </trkpt>
      <trkpt lat="47.591587984934449" lon="18.780486965551972">
        <ele>196.548</ele>
        <time>2010-02-07T01:45:10Z</time>
      </trkpt>
      <trkpt lat="47.591581027954817" lon="18.780442960560322">
        <ele>196.953</ele>
        <time>2010-02-07T01:45:13Z</time>
      </trkpt>
      <trkpt lat="47.591570969671011" lon="18.780393004417419">
        <ele>197.005</ele>
        <time>2010-02-07T01:45:16Z</time>
      </trkpt>
      <trkpt lat="47.591559989377856" lon="18.780336007475853">
        <ele>196.786</ele>
        <time>2010-02-07T01:45:19Z</time>
      </trkpt>
      <trkpt lat="47.59154599159956" lon="18.780285967513919">
        <ele>196.12799999999999</ele>
        <time>2010-02-07T01:45:22Z</time>
      </trkpt>
      <trkpt lat="47.591525036841631" lon="18.780250009149313">
        <ele>196.52799999999999</ele>
        <time>2010-02-07T01:45:25Z</time>
      </trkpt>
      <trkpt lat="47.591492012143135" lon="18.780227964743972">
        <ele>196.547</ele>
        <time>2010-02-07T01:45:29Z</time>
      </trkpt>
      <trkpt lat="47.591464016586542" lon="18.780213966965675">
        <ele>196.46100000000001</ele>
        <time>2010-02-07T01:45:32Z</time>
      </trkpt>
      <trkpt lat="47.591436021029949" lon="18.780192006379366">
        <ele>196.54499999999999</ele>
        <time>2010-02-07T01:45:35Z</time>
      </trkpt>
      <trkpt lat="47.591409031301737" lon="18.780161999166012">
        <ele>196.23400000000001</ele>
        <time>2010-02-07T01:45:38Z</time>
      </trkpt>
      <trkpt lat="47.591381035745144" lon="18.780138026922941">
        <ele>196.83099999999999</ele>
        <time>2010-02-07T01:45:42Z</time>
      </trkpt>
      <trkpt lat="47.59135496802628" lon="18.780139032751322">
        <ele>197.05199999999999</ele>
        <time>2010-02-07T01:45:48Z</time>
      </trkpt>
      <trkpt lat="47.591334013268352" lon="18.780169039964676">
        <ele>197.18299999999999</ele>
        <time>2010-02-07T01:46:18Z</time>
      </trkpt>
      <trkpt lat="47.591336024925113" lon="18.780174991115928">
        <ele>198.13200000000001</ele>
        <time>2010-02-07T01:47:19Z</time>
      </trkpt>
      <trkpt lat="47.59135102853179" lon="18.780167028307915">
        <ele>197.994</ele>
        <time>2010-02-07T01:47:39Z</time>
      </trkpt>
      <trkpt lat="47.591344993561506" lon="18.780169961974025">
        <ele>199.13900000000001</ele>
        <time>2010-02-07T01:48:49Z</time>
      </trkpt>
      <trkpt lat="47.591334013268352" lon="18.780111959204078">
        <ele>198.31299999999999</ele>
        <time>2010-02-07T01:49:19Z</time>
      </trkpt>
      <trkpt lat="47.591333007439971" lon="18.780068960040808">
        <ele>197.66499999999999</ele>
        <time>2010-02-07T01:49:51Z</time>
      </trkpt>
      <trkpt lat="47.59133099578321" lon="18.780025960877538">
        <ele>198.28100000000001</ele>
        <time>2010-02-07T01:49:54Z</time>
      </trkpt>
      <trkpt lat="47.591316998004913" lon="18.779977010563016">
        <ele>198.417</ele>
        <time>2010-02-07T01:49:57Z</time>
      </trkpt>
      <trkpt lat="47.591306017711759" lon="18.779930993914604">
        <ele>198.22800000000001</ele>
        <time>2010-02-07T01:50:00Z</time>
      </trkpt>
      <trkpt lat="47.591296965256333" lon="18.779883971437812">
        <ele>197.94300000000001</ele>
        <time>2010-02-07T01:50:03Z</time>
      </trkpt>
      <trkpt lat="47.591285984963179" lon="18.779838960617781">
        <ele>198.267</ele>
        <time>2010-02-07T01:50:06Z</time>
      </trkpt>
      <trkpt lat="47.591281961649656" lon="18.779794033616781">
        <ele>199.01300000000001</ele>
        <time>2010-02-07T01:50:09Z</time>
      </trkpt>
      <trkpt lat="47.591277016326785" lon="18.77974902279675">
        <ele>198.49100000000001</ele>
        <time>2010-02-07T01:50:12Z</time>
      </trkpt>
      <trkpt lat="47.59126796387136" lon="18.779694959521294">
        <ele>198.261</ele>
        <time>2010-02-07T01:50:16Z</time>
      </trkpt>
      <trkpt lat="47.591263018548489" lon="18.779649026691914">
        <ele>198.31299999999999</ele>
        <time>2010-02-07T01:50:19Z</time>
      </trkpt>
      <trkpt lat="47.591253966093063" lon="18.779605021700263">
        <ele>197.41200000000001</ele>
        <time>2010-02-07T01:50:22Z</time>
      </trkpt>
      <trkpt lat="47.591243991628289" lon="18.779563028365374">
        <ele>199.05799999999999</ele>
        <time>2010-02-07T01:50:25Z</time>
      </trkpt>
      <trkpt lat="47.591237034648657" lon="18.779515000060201">
        <ele>197.999</ele>
        <time>2010-02-07T01:50:28Z</time>
      </trkpt>
      <trkpt lat="47.59122597053647" lon="18.779461020603776">
        <ele>197.751</ele>
        <time>2010-02-07T01:50:31Z</time>
      </trkpt>
      <trkpt lat="47.591212978586555" lon="18.77940502949059">
        <ele>198.517</ele>
        <time>2010-02-07T01:50:34Z</time>
      </trkpt>
      <trkpt lat="47.591204009950161" lon="18.779351972043514">
        <ele>198.49600000000001</ele>
        <time>2010-02-07T01:50:37Z</time>
      </trkpt>
      <trkpt lat="47.591199986636639" lon="18.77929899841547">
        <ele>197.83099999999999</ele>
        <time>2010-02-07T01:50:40Z</time>
      </trkpt>
      <trkpt lat="47.591195041313767" lon="18.779252981767058">
        <ele>198.04300000000001</ele>
        <time>2010-02-07T01:50:43Z</time>
      </trkpt>
      <trkpt lat="47.59117903187871" lon="18.779217023402452">
        <ele>199.35300000000001</ele>
        <time>2010-02-07T01:50:46Z</time>
      </trkpt>
      <trkpt lat="47.591168973594904" lon="18.779160026460886">
        <ele>199.61799999999999</ele>
        <time>2010-02-07T01:50:49Z</time>
      </trkpt>
      <trkpt lat="47.59115899913013" lon="18.77910596318543">
        <ele>199.852</ele>
        <time>2010-02-07T01:50:52Z</time>
      </trkpt>
      <trkpt lat="47.591148018836975" lon="18.779055001214147">
        <ele>200.511</ele>
        <time>2010-02-07T01:50:55Z</time>
      </trkpt>
      <trkpt lat="47.591135026887059" lon="18.779003033414483">
        <ele>199.75700000000001</ele>
        <time>2010-02-07T01:50:58Z</time>
      </trkpt>
      <trkpt lat="47.591128991916776" lon="18.778950981795788">
        <ele>199.935</ele>
        <time>2010-02-07T01:51:01Z</time>
      </trkpt>
      <trkpt lat="47.591120023280382" lon="18.778900019824505">
        <ele>199.727</ele>
        <time>2010-02-07T01:51:04Z</time>
      </trkpt>
      <trkpt lat="47.591110970824957" lon="18.778849979862571">
        <ele>200.952</ele>
        <time>2010-02-07T01:51:07Z</time>
      </trkpt>
      <trkpt lat="47.591102002188563" lon="18.778797006234527">
        <ele>199.80699999999999</ele>
        <time>2010-02-07T01:51:10Z</time>
      </trkpt>
      <trkpt lat="47.59109697304666" lon="18.778743026778102">
        <ele>200.899</ele>
        <time>2010-02-07T01:51:13Z</time>
      </trkpt>
      <trkpt lat="47.591091021895409" lon="18.778688963502645">
        <ele>200.50399999999999</ele>
        <time>2010-02-07T01:51:16Z</time>
      </trkpt>
      <trkpt lat="47.591083981096745" lon="18.778631966561079">
        <ele>201.23099999999999</ele>
        <time>2010-02-07T01:51:19Z</time>
      </trkpt>
      <trkpt lat="47.591075012460351" lon="18.778575975447893">
        <ele>201.15299999999999</ele>
        <time>2010-02-07T01:51:22Z</time>
      </trkpt>
      <trkpt lat="47.591066965833306" lon="18.778520990163088">
        <ele>199.91999999999999</ele>
        <time>2010-02-07T01:51:25Z</time>
      </trkpt>
      <trkpt lat="47.59105397388339" lon="18.778468016535044">
        <ele>200.292</ele>
        <time>2010-02-07T01:51:28Z</time>
      </trkpt>
      <trkpt lat="47.591042993590236" lon="18.778413031250238">
        <ele>200.09899999999999</ele>
        <time>2010-02-07T01:51:31Z</time>
      </trkpt>
      <trkpt lat="47.591033019125462" lon="18.778359973803163">
        <ele>201.22200000000001</ele>
        <time>2010-02-07T01:51:34Z</time>
      </trkpt>
      <trkpt lat="47.591022960841656" lon="18.778302976861596">
        <ele>200.40799999999999</ele>
        <time>2010-02-07T01:51:37Z</time>
      </trkpt>
      <trkpt lat="47.59100996889174" lon="18.778250003233552">
        <ele>200.24700000000001</ele>
        <time>2010-02-07T01:51:40Z</time>
      </trkpt>
      <trkpt lat="47.591002006083727" lon="18.778193006291986">
        <ele>200.99100000000001</ele>
        <time>2010-02-07T01:51:43Z</time>
      </trkpt>
      <trkpt lat="47.590995971113443" lon="18.778140032663941">
        <ele>201.77099999999999</ele>
        <time>2010-02-07T01:51:46Z</time>
      </trkpt>
      <trkpt lat="47.59098800830543" lon="18.778085969388485">
        <ele>201.10400000000001</ele>
        <time>2010-02-07T01:51:49Z</time>
      </trkpt>
      <trkpt lat="47.590978033840656" lon="18.778032995760441">
        <ele>200.59299999999999</ele>
        <time>2010-02-07T01:51:52Z</time>
      </trkpt>
      <trkpt lat="47.590969987213612" lon="18.777981027960777">
        <ele>201.25700000000001</ele>
        <time>2010-02-07T01:51:55Z</time>
      </trkpt>
      <trkpt lat="47.590962024405599" lon="18.777930987998843">
        <ele>201.001</ele>
        <time>2010-02-07T01:51:58Z</time>
      </trkpt>
      <trkpt lat="47.590947020798922" lon="18.77788295969367">
        <ele>200.63800000000001</ele>
        <time>2010-02-07T01:52:01Z</time>
      </trkpt>
      <trkpt lat="47.590936040505767" lon="18.777834009379148">
        <ele>200.43600000000001</ele>
        <time>2010-02-07T01:52:04Z</time>
      </trkpt>
      <trkpt lat="47.590930005535483" lon="18.777782041579485">
        <ele>200.166</ele>
        <time>2010-02-07T01:52:07Z</time>
      </trkpt>
      <trkpt lat="47.5909239705652" lon="18.777732001617551">
        <ele>200.47300000000001</ele>
        <time>2010-02-07T01:52:10Z</time>
      </trkpt>
      <trkpt lat="47.590917013585567" lon="18.777680033817887">
        <ele>200.84299999999999</ele>
        <time>2010-02-07T01:52:13Z</time>
      </trkpt>
      <trkpt lat="47.590903015807271" lon="18.777636028826237">
        <ele>200.09700000000001</ele>
        <time>2010-02-07T01:52:16Z</time>
      </trkpt>
      <trkpt lat="47.590893041342497" lon="18.777593029662967">
        <ele>200.88499999999999</ele>
        <time>2010-02-07T01:52:19Z</time>
      </trkpt>
      <trkpt lat="47.59087803773582" lon="18.777545001357794">
        <ele>200.52500000000001</ele>
        <time>2010-02-07T01:52:23Z</time>
      </trkpt>
      <trkpt lat="47.590865967795253" lon="18.777499990537763">
        <ele>200.79400000000001</ele>
        <time>2010-02-07T01:52:26Z</time>
      </trkpt>
      <trkpt lat="47.590855993330479" lon="18.77745296806097">
        <ele>201.09399999999999</ele>
        <time>2010-02-07T01:52:29Z</time>
      </trkpt>
      <trkpt lat="47.590849958360195" lon="18.777404017746449">
        <ele>200.69499999999999</ele>
        <time>2010-02-07T01:52:32Z</time>
      </trkpt>
      <trkpt lat="47.590840989723802" lon="18.777355989441276">
        <ele>200.63</ele>
        <time>2010-02-07T01:52:35Z</time>
      </trkpt>
      <trkpt lat="47.590841995552182" lon="18.777313996106386">
        <ele>200.55699999999999</ele>
        <time>2010-02-07T01:52:38Z</time>
      </trkpt>
      <trkpt lat="47.590841995552182" lon="18.777268985286355">
        <ele>200.78399999999999</ele>
        <time>2010-02-07T01:52:41Z</time>
      </trkpt>
      <trkpt lat="47.590846018865705" lon="18.777226991951466">
        <ele>200.245</ele>
        <time>2010-02-07T01:52:44Z</time>
      </trkpt>
      <trkpt lat="47.59085800498724" lon="18.777176029980183">
        <ele>200.75200000000001</ele>
        <time>2010-02-07T01:52:48Z</time>
      </trkpt>
      <trkpt lat="47.59087803773582" lon="18.777137976139784">
        <ele>200.792</ele>
        <time>2010-02-07T01:52:52Z</time>
      </trkpt>
      <trkpt lat="47.590904021635652" lon="18.777102017775178">
        <ele>201.04599999999999</ele>
        <time>2010-02-07T01:52:59Z</time>
      </trkpt>
      <trkpt lat="47.590934028849006" lon="18.77706597559154">
        <ele>200.89099999999999</ele>
        <time>2010-02-07T01:53:03Z</time>
      </trkpt>
      <trkpt lat="47.590956995263696" lon="18.777031023055315">
        <ele>200.68100000000001</ele>
        <time>2010-02-07T01:53:06Z</time>
      </trkpt>
      <trkpt lat="47.590976022183895" lon="18.776995986700058">
        <ele>201.11099999999999</ele>
        <time>2010-02-07T01:53:09Z</time>
      </trkpt>
      <trkpt lat="47.590982979163527" lon="18.776946030557156">
        <ele>200.952</ele>
        <time>2010-02-07T01:53:12Z</time>
      </trkpt>
      <trkpt lat="47.590976022183895" lon="18.77689297311008">
        <ele>201.09700000000001</ele>
        <time>2010-02-07T01:53:15Z</time>
      </trkpt>
      <trkpt lat="47.590965963900089" lon="18.776834970340133">
        <ele>200.74100000000001</ele>
        <time>2010-02-07T01:53:18Z</time>
      </trkpt>
      <trkpt lat="47.590953977778554" lon="18.776775961741805">
        <ele>200.922</ele>
        <time>2010-02-07T01:53:21Z</time>
      </trkpt>
      <trkpt lat="47.590941991657019" lon="18.776717036962509">
        <ele>200.61699999999999</ele>
        <time>2010-02-07T01:53:24Z</time>
      </trkpt>
      <trkpt lat="47.590928999707103" lon="18.776659034192562">
        <ele>200.75999999999999</ele>
        <time>2010-02-07T01:53:27Z</time>
      </trkpt>
      <trkpt lat="47.590917013585567" lon="18.776604970917106">
        <ele>200.851</ele>
        <time>2010-02-07T01:53:30Z</time>
      </trkpt>
      <trkpt lat="47.590907961130142" lon="18.776545962318778">
        <ele>201.01400000000001</ele>
        <time>2010-02-07T01:53:33Z</time>
      </trkpt>
      <trkpt lat="47.590898992493749" lon="18.776487959548831">
        <ele>200.62200000000001</ele>
        <time>2010-02-07T01:53:36Z</time>
      </trkpt>
      <trkpt lat="47.590887006372213" lon="18.776430040597916">
        <ele>200.625</ele>
        <time>2010-02-07T01:53:39Z</time>
      </trkpt>
      <trkpt lat="47.590875020250678" lon="18.776372959837317">
        <ele>200.39599999999999</ele>
        <time>2010-02-07T01:53:42Z</time>
      </trkpt>
      <trkpt lat="47.590864039957523" lon="18.776318980380893">
        <ele>200.66399999999999</ele>
        <time>2010-02-07T01:53:45Z</time>
      </trkpt>
      <trkpt lat="47.590855993330479" lon="18.776266006752849">
        <ele>200.55099999999999</ele>
        <time>2010-02-07T01:53:48Z</time>
      </trkpt>
      <trkpt lat="47.590845013037324" lon="18.77620599232614">
        <ele>200.779</ele>
        <time>2010-02-07T01:53:51Z</time>
      </trkpt>
      <trkpt lat="47.590834032744169" lon="18.776148995384574">
        <ele>200.68899999999999</ele>
        <time>2010-02-07T01:53:54Z</time>
      </trkpt>
      <trkpt lat="47.590824980288744" lon="18.776093004271388">
        <ele>201.00999999999999</ele>
        <time>2010-02-07T01:53:57Z</time>
      </trkpt>
      <trkpt lat="47.590812994167209" lon="18.776040030643344">
        <ele>200.58600000000001</ele>
        <time>2010-02-07T01:54:00Z</time>
      </trkpt>
      <trkpt lat="47.590806037187576" lon="18.775986973196268">
        <ele>200.30699999999999</ele>
        <time>2010-02-07T01:54:03Z</time>
      </trkpt>
      <trkpt lat="47.59079597890377" lon="18.775930982083082">
        <ele>200.572</ele>
        <time>2010-02-07T01:54:06Z</time>
      </trkpt>
      <trkpt lat="47.590787010267377" lon="18.775875996798277">
        <ele>200.512</ele>
        <time>2010-02-07T01:54:09Z</time>
      </trkpt>
      <trkpt lat="47.590778041630983" lon="18.775825034826994">
        <ele>200.75299999999999</ele>
        <time>2010-02-07T01:54:12Z</time>
      </trkpt>
      <trkpt lat="47.590768989175558" lon="18.775769965723157">
        <ele>200.23500000000001</ele>
        <time>2010-02-07T01:54:15Z</time>
      </trkpt>
      <trkpt lat="47.590763960033655" lon="18.775725960731506">
        <ele>200.36699999999999</ele>
        <time>2010-02-07T01:54:18Z</time>
      </trkpt>
      <trkpt lat="47.5907529797405" lon="18.775677010416985">
        <ele>200.36699999999999</ele>
        <time>2010-02-07T01:54:21Z</time>
      </trkpt>
      <trkpt lat="47.590740993618965" lon="18.775620013475418">
        <ele>200.34399999999999</ele>
        <time>2010-02-07T01:54:24Z</time>
      </trkpt>
      <trkpt lat="47.59072900749743" lon="18.775573996827006">
        <ele>200.94900000000001</ele>
        <time>2010-02-07T01:54:27Z</time>
      </trkpt>
      <trkpt lat="47.590717021375895" lon="18.775525968521833">
        <ele>200.11000000000001</ele>
        <time>2010-02-07T01:54:30Z</time>
      </trkpt>
      <trkpt lat="47.590706963092089" lon="18.775480035692453">
        <ele>200.43000000000001</ele>
        <time>2010-02-07T01:54:33Z</time>
      </trkpt>
      <trkpt lat="47.590699000284076" lon="18.775434019044042">
        <ele>200.048</ele>
        <time>2010-02-07T01:54:36Z</time>
      </trkpt>
      <trkpt lat="47.590689025819302" lon="18.775383979082108">
        <ele>200.90100000000001</ele>
        <time>2010-02-07T01:54:39Z</time>
      </trkpt>
      <trkpt lat="47.590679973363876" lon="18.775337962433696">
        <ele>200.20400000000001</ele>
        <time>2010-02-07T01:54:42Z</time>
      </trkpt>
      <trkpt lat="47.590669998899102" lon="18.775289012119174">
        <ele>200.56100000000001</ele>
        <time>2010-02-07T01:54:45Z</time>
      </trkpt>
      <trkpt lat="47.590658012777567" lon="18.775237966328859">
        <ele>200.93299999999999</ele>
        <time>2010-02-07T01:54:48Z</time>
      </trkpt>
      <trkpt lat="47.590646026656032" lon="18.775185998529196">
        <ele>200.684</ele>
        <time>2010-02-07T01:54:51Z</time>
      </trkpt>
      <trkpt lat="47.590635968372226" lon="18.775133024901152">
        <ele>200.40600000000001</ele>
        <time>2010-02-07T01:54:54Z</time>
      </trkpt>
      <trkpt lat="47.590625993907452" lon="18.775081979110837">
        <ele>200.37299999999999</ele>
        <time>2010-02-07T01:54:57Z</time>
      </trkpt>
      <trkpt lat="47.590617025271058" lon="18.775029005482793">
        <ele>201.01599999999999</ele>
        <time>2010-02-07T01:55:00Z</time>
      </trkpt>
      <trkpt lat="47.590605039149523" lon="18.774975026026368">
        <ele>200.48099999999999</ele>
        <time>2010-02-07T01:55:03Z</time>
      </trkpt>
      <trkpt lat="47.590595986694098" lon="18.774920962750912">
        <ele>201.036</ele>
        <time>2010-02-07T01:55:06Z</time>
      </trkpt>
      <trkpt lat="47.590586012229323" lon="18.774867989122868">
        <ele>200.98599999999999</ele>
        <time>2010-02-07T01:55:09Z</time>
      </trkpt>
      <trkpt lat="47.590577965602279" lon="18.774817027151585">
        <ele>200.851</ele>
        <time>2010-02-07T01:55:12Z</time>
      </trkpt>
      <trkpt lat="47.590567991137505" lon="18.774763969704509">
        <ele>200.81200000000001</ele>
        <time>2010-02-07T01:55:15Z</time>
      </trkpt>
      <trkpt lat="47.590559022501111" lon="18.774710996076465">
        <ele>201.126</ele>
        <time>2010-02-07T01:55:18Z</time>
      </trkpt>
      <trkpt lat="47.590547958388925" lon="18.774656010791659">
        <ele>200.62799999999999</ele>
        <time>2010-02-07T01:55:21Z</time>
      </trkpt>
      <trkpt lat="47.590535972267389" lon="18.774600019678473">
        <ele>200.68899999999999</ele>
        <time>2010-02-07T01:55:24Z</time>
      </trkpt>
      <trkpt lat="47.590525997802615" lon="18.774546040222049">
        <ele>201.143</ele>
        <time>2010-02-07T01:55:27Z</time>
      </trkpt>
      <trkpt lat="47.59051501750946" lon="18.774490971118212">
        <ele>201.155</ele>
        <time>2010-02-07T01:55:30Z</time>
      </trkpt>
      <trkpt lat="47.590504959225655" lon="18.774439003318548">
        <ele>201.46600000000001</ele>
        <time>2010-02-07T01:55:33Z</time>
      </trkpt>
      <trkpt lat="47.590492973104119" lon="18.774387035518885">
        <ele>201.56899999999999</ele>
        <time>2010-02-07T01:55:36Z</time>
      </trkpt>
      <trkpt lat="47.590481992810965" lon="18.774333978071809">
        <ele>201.65700000000001</ele>
        <time>2010-02-07T01:55:39Z</time>
      </trkpt>
      <trkpt lat="47.590469000861049" lon="18.774276981130242">
        <ele>201.98500000000001</ele>
        <time>2010-02-07T01:55:42Z</time>
      </trkpt>
      <trkpt lat="47.590458020567894" lon="18.774224007502198">
        <ele>201.542</ele>
        <time>2010-02-07T01:55:45Z</time>
      </trkpt>
      <trkpt lat="47.590446034446359" lon="18.774172961711884">
        <ele>202.251</ele>
        <time>2010-02-07T01:55:48Z</time>
      </trkpt>
      <trkpt lat="47.590435976162553" lon="18.774119988083839">
        <ele>201.94</ele>
        <time>2010-02-07T01:55:51Z</time>
      </trkpt>
      <trkpt lat="47.59042901918292" lon="18.774071959778666">
        <ele>201.85300000000001</ele>
        <time>2010-02-07T01:55:54Z</time>
      </trkpt>
      <trkpt lat="47.590419966727495" lon="18.774020997807384">
        <ele>201.24799999999999</ele>
        <time>2010-02-07T01:55:57Z</time>
      </trkpt>
      <trkpt lat="47.590410998091102" lon="18.773975986987352">
        <ele>202.04400000000001</ele>
        <time>2010-02-07T01:56:00Z</time>
      </trkpt>
      <trkpt lat="47.590399011969566" lon="18.773922007530928">
        <ele>201.92599999999999</ele>
        <time>2010-02-07T01:56:03Z</time>
      </trkpt>
      <trkpt lat="47.590389037504792" lon="18.773866016417742">
        <ele>201.684</ele>
        <time>2010-02-07T01:56:06Z</time>
      </trkpt>
      <trkpt lat="47.590377973392606" lon="18.773814970627427">
        <ele>201.54300000000001</ele>
        <time>2010-02-07T01:56:09Z</time>
      </trkpt>
      <trkpt lat="47.59036598727107" lon="18.773767026141286">
        <ele>201.119</ele>
        <time>2010-02-07T01:56:12Z</time>
      </trkpt>
      <trkpt lat="47.590356012806296" lon="18.773715980350971">
        <ele>201.249</ele>
        <time>2010-02-07T01:56:15Z</time>
      </trkpt>
      <trkpt lat="47.59034302085638" lon="18.773665018379688">
        <ele>200.53399999999999</ele>
        <time>2010-02-07T01:56:18Z</time>
      </trkpt>
      <trkpt lat="47.590332040563226" lon="18.773614978417754">
        <ele>200.982</ele>
        <time>2010-02-07T01:56:21Z</time>
      </trkpt>
      <trkpt lat="47.590319970622659" lon="18.773563010618091">
        <ele>200.10599999999999</ele>
        <time>2010-02-07T01:56:24Z</time>
      </trkpt>
      <trkpt lat="47.590302033349872" lon="18.773506013676524">
        <ele>200.16900000000001</ele>
        <time>2010-02-07T01:56:27Z</time>
      </trkpt>
      <trkpt lat="47.59027898311615" lon="18.773456979542971">
        <ele>200.09100000000001</ele>
        <time>2010-02-07T01:56:30Z</time>
      </trkpt>
      <trkpt lat="47.59025702252984" lon="18.773410962894559">
        <ele>200.19900000000001</ele>
        <time>2010-02-07T01:56:33Z</time>
      </trkpt>
      <trkpt lat="47.590232966467738" lon="18.773361006751657">
        <ele>199.24700000000001</ele>
        <time>2010-02-07T01:56:36Z</time>
      </trkpt>
      <trkpt lat="47.590216035023332" lon="18.773310966789722">
        <ele>199.35400000000001</ele>
        <time>2010-02-07T01:56:39Z</time>
      </trkpt>
      <trkpt lat="47.590197008103132" lon="18.773266039788723">
        <ele>198.727</ele>
        <time>2010-02-07T01:56:42Z</time>
      </trkpt>
      <trkpt lat="47.590169012546539" lon="18.77324097789824">
        <ele>198.47200000000001</ele>
        <time>2010-02-07T01:56:45Z</time>
      </trkpt>
      <trkpt lat="47.590142022818327" lon="18.773222034797072">
        <ele>198.732</ele>
        <time>2010-02-07T01:56:48Z</time>
      </trkpt>
      <trkpt lat="47.590129030868411" lon="18.773180963471532">
        <ele>198.46799999999999</ele>
        <time>2010-02-07T01:56:51Z</time>
      </trkpt>
      <trkpt lat="47.59012701921165" lon="18.773124972358346">
        <ele>198.774</ele>
        <time>2010-02-07T01:56:54Z</time>
      </trkpt>
      <trkpt lat="47.590132970362902" lon="18.773062024265528">
        <ele>198.81800000000001</ele>
        <time>2010-02-07T01:56:57Z</time>
      </trkpt>
      <trkpt lat="47.590135987848043" lon="18.773010978475213">
        <ele>198.53200000000001</ele>
        <time>2010-02-07T01:56:59Z</time>
      </trkpt>
      <trkpt lat="47.590139005333185" lon="18.772952975705266">
        <ele>199.04900000000001</ele>
        <time>2010-02-07T01:57:01Z</time>
      </trkpt>
      <trkpt lat="47.590136993676424" lon="18.772883992642164">
        <ele>198.15700000000001</ele>
        <time>2010-02-07T01:57:03Z</time>
      </trkpt>
      <trkpt lat="47.590133976191282" lon="18.772814003750682">
        <ele>197.90299999999999</ele>
        <time>2010-02-07T01:57:05Z</time>
      </trkpt>
      <trkpt lat="47.590130036696792" lon="18.77274502068758">
        <ele>196.79599999999999</ele>
        <time>2010-02-07T01:57:07Z</time>
      </trkpt>
      <trkpt lat="47.590129030868411" lon="18.772687017917633">
        <ele>196.31800000000001</ele>
        <time>2010-02-07T01:57:09Z</time>
      </trkpt>
      <trkpt lat="47.590135987848043" lon="18.772630020976067">
        <ele>195.637</ele>
        <time>2010-02-07T01:57:11Z</time>
      </trkpt>
      <trkpt lat="47.590139005333185" lon="18.772565983235836">
        <ele>196.12799999999999</ele>
        <time>2010-02-07T01:57:13Z</time>
      </trkpt>
      <trkpt lat="47.590141016989946" lon="18.772502029314637">
        <ele>194.65899999999999</ele>
        <time>2010-02-07T01:57:15Z</time>
      </trkpt>
      <trkpt lat="47.590145962312818" lon="18.772438997402787">
        <ele>194.30099999999999</ele>
        <time>2010-02-07T01:57:17Z</time>
      </trkpt>
      <trkpt lat="47.590155014768243" lon="18.772375965490937">
        <ele>194.49000000000001</ele>
        <time>2010-02-07T01:57:19Z</time>
      </trkpt>
      <trkpt lat="47.590162977576256" lon="18.772317040711641">
        <ele>194.928</ele>
        <time>2010-02-07T01:57:21Z</time>
      </trkpt>
      <trkpt lat="47.590174041688442" lon="18.772258032113314">
        <ele>194.398</ele>
        <time>2010-02-07T01:57:23Z</time>
      </trkpt>
      <trkpt lat="47.590189967304468" lon="18.772200029343367">
        <ele>193.84899999999999</ele>
        <time>2010-02-07T01:57:25Z</time>
      </trkpt>
      <trkpt lat="47.590208994224668" lon="18.772144038230181">
        <ele>193.51400000000001</ele>
        <time>2010-02-07T01:57:27Z</time>
      </trkpt>
      <trkpt lat="47.590229026973248" lon="18.772088969126344">
        <ele>193.81299999999999</ele>
        <time>2010-02-07T01:57:29Z</time>
      </trkpt>
      <trkpt lat="47.590250987559557" lon="18.7720359954983">
        <ele>194.25200000000001</ele>
        <time>2010-02-07T01:57:31Z</time>
      </trkpt>
      <trkpt lat="47.590273031964898" lon="18.771983021870255">
        <ele>193.631</ele>
        <time>2010-02-07T01:57:33Z</time>
      </trkpt>
      <trkpt lat="47.590293986722827" lon="18.771931976079941">
        <ele>193.52099999999999</ele>
        <time>2010-02-07T01:57:35Z</time>
      </trkpt>
      <trkpt lat="47.590313013643026" lon="18.771885959431529">
        <ele>193.334</ele>
        <time>2010-02-07T01:57:37Z</time>
      </trkpt>
      <trkpt lat="47.590335980057716" lon="18.771839020773768">
        <ele>193.804</ele>
        <time>2010-02-07T01:57:39Z</time>
      </trkpt>
      <trkpt lat="47.590360036119819" lon="18.771796021610498">
        <ele>193.94</ele>
        <time>2010-02-07T01:57:41Z</time>
      </trkpt>
      <trkpt lat="47.59038501419127" lon="18.771754028275609">
        <ele>194.05199999999999</ele>
        <time>2010-02-07T01:57:43Z</time>
      </trkpt>
      <trkpt lat="47.59040898643434" lon="18.771713962778449">
        <ele>193.34399999999999</ele>
        <time>2010-02-07T01:57:45Z</time>
      </trkpt>
      <trkpt lat="47.590432958677411" lon="18.77167297527194">
        <ele>193.47300000000001</ele>
        <time>2010-02-07T01:57:47Z</time>
      </trkpt>
      <trkpt lat="47.590461960062385" lon="18.771632993593812">
        <ele>193.369</ele>
        <time>2010-02-07T01:57:49Z</time>
      </trkpt>
      <trkpt lat="47.590489033609629" lon="18.771592006087303">
        <ele>193.072</ele>
        <time>2010-02-07T01:57:51Z</time>
      </trkpt>
      <trkpt lat="47.59051501750946" lon="18.771549006924033">
        <ele>193.50200000000001</ele>
        <time>2010-02-07T01:57:53Z</time>
      </trkpt>
      <trkpt lat="47.590538989752531" lon="18.771505001932383">
        <ele>193.19</ele>
        <time>2010-02-07T01:57:55Z</time>
      </trkpt>
      <trkpt lat="47.590566985309124" lon="18.771463008597493">
        <ele>192.93799999999999</ele>
        <time>2010-02-07T01:57:57Z</time>
      </trkpt>
      <trkpt lat="47.590592969208956" lon="18.771415986120701">
        <ele>192.58099999999999</ele>
        <time>2010-02-07T01:57:59Z</time>
      </trkpt>
      <trkpt lat="47.590618031099439" lon="18.77137097530067">
        <ele>192.84700000000001</ele>
        <time>2010-02-07T01:58:01Z</time>
      </trkpt>
      <trkpt lat="47.590647032484412" lon="18.7713279761374">
        <ele>192.482</ele>
        <time>2010-02-07T01:58:03Z</time>
      </trkpt>
      <trkpt lat="47.590673016384244" lon="18.771283971145749">
        <ele>191.83600000000001</ele>
        <time>2010-02-07T01:58:05Z</time>
      </trkpt>
      <trkpt lat="47.590699000284076" lon="18.771239966154099">
        <ele>192.32900000000001</ele>
        <time>2010-02-07T01:58:07Z</time>
      </trkpt>
      <trkpt lat="47.590726995840669" lon="18.771195039153099">
        <ele>191.77500000000001</ele>
        <time>2010-02-07T01:58:09Z</time>
      </trkpt>
      <trkpt lat="47.590753985568881" lon="18.771148016676307">
        <ele>191.602</ele>
        <time>2010-02-07T01:58:11Z</time>
      </trkpt>
      <trkpt lat="47.590780975297093" lon="18.771102000027895">
        <ele>191.429</ele>
        <time>2010-02-07T01:58:13Z</time>
      </trkpt>
      <trkpt lat="47.590809976682067" lon="18.771056989207864">
        <ele>191.43299999999999</ele>
        <time>2010-02-07T01:58:15Z</time>
      </trkpt>
      <trkpt lat="47.59083797223866" lon="18.771011978387833">
        <ele>190.78</ele>
        <time>2010-02-07T01:58:17Z</time>
      </trkpt>
      <trkpt lat="47.590865967795253" lon="18.770965961739421">
        <ele>190.5</ele>
        <time>2010-02-07T01:58:19Z</time>
      </trkpt>
      <trkpt lat="47.590893041342497" lon="18.77091801725328">
        <ele>191.09999999999999</ele>
        <time>2010-02-07T01:58:21Z</time>
      </trkpt>
      <trkpt lat="47.590921958908439" lon="18.770870994776487">
        <ele>190.02500000000001</ele>
        <time>2010-02-07T01:58:23Z</time>
      </trkpt>
      <trkpt lat="47.590950038284063" lon="18.770825983956456">
        <ele>190.50200000000001</ele>
        <time>2010-02-07T01:58:25Z</time>
      </trkpt>
      <trkpt lat="47.590979039669037" lon="18.770782984793186">
        <ele>190.37700000000001</ele>
        <time>2010-02-07T01:58:27Z</time>
      </trkpt>
      <trkpt lat="47.591008963063359" lon="18.770737973973155">
        <ele>189.85300000000001</ele>
        <time>2010-02-07T01:58:29Z</time>
      </trkpt>
      <trkpt lat="47.591036958619952" lon="18.770696986466646">
        <ele>189.89099999999999</ele>
        <time>2010-02-07T01:58:31Z</time>
      </trkpt>
      <trkpt lat="47.591065960004926" lon="18.770659016445279">
        <ele>189.267</ele>
        <time>2010-02-07T01:58:33Z</time>
      </trkpt>
      <trkpt lat="47.59109596721828" lon="18.770620040595531">
        <ele>189.42099999999999</ele>
        <time>2010-02-07T01:58:35Z</time>
      </trkpt>
      <trkpt lat="47.591123040765524" lon="18.770583998411894">
        <ele>189.316</ele>
        <time>2010-02-07T01:58:37Z</time>
      </trkpt>
      <trkpt lat="47.591151036322117" lon="18.770547034218907">
        <ele>188.95099999999999</ele>
        <time>2010-02-07T01:58:39Z</time>
      </trkpt>
      <trkpt lat="47.59118003770709" lon="18.770509986206889">
        <ele>189.69999999999999</ele>
        <time>2010-02-07T01:58:41Z</time>
      </trkpt>
      <trkpt lat="47.591211972758174" lon="18.770474027842283">
        <ele>189.143</ele>
        <time>2010-02-07T01:58:43Z</time>
      </trkpt>
      <trkpt lat="47.591242985799909" lon="18.770437985658646">
        <ele>189.00899999999999</ele>
        <time>2010-02-07T01:58:45Z</time>
      </trkpt>
      <trkpt lat="47.591275004670024" lon="18.770407978445292">
        <ele>188.13399999999999</ele>
        <time>2010-02-07T01:58:47Z</time>
      </trkpt>
      <trkpt lat="47.591310041025281" lon="18.770375959575176">
        <ele>188.309</ele>
        <time>2010-02-07T01:58:49Z</time>
      </trkpt>
      <trkpt lat="47.591338036581874" lon="18.770344024524093">
        <ele>188.46899999999999</ele>
        <time>2010-02-07T01:58:51Z</time>
      </trkpt>
      <trkpt lat="47.591370977461338" lon="18.770312005653977">
        <ele>188.34100000000001</ele>
        <time>2010-02-07T01:58:53Z</time>
      </trkpt>
      <trkpt lat="47.591408025473356" lon="18.770279986783862">
        <ele>188.46000000000001</ele>
        <time>2010-02-07T01:58:55Z</time>
      </trkpt>
      <trkpt lat="47.591442978009582" lon="18.770251991227269">
        <ele>188.03</ele>
        <time>2010-02-07T01:58:57Z</time>
      </trkpt>
      <trkpt lat="47.591479020193219" lon="18.770222989842296">
        <ele>188.01300000000001</ele>
        <time>2010-02-07T01:58:59Z</time>
      </trkpt>
      <trkpt lat="47.591548003256321" lon="18.770164987072349">
        <ele>187.31399999999999</ele>
        <time>2010-02-07T01:59:03Z</time>
      </trkpt>
      <trkpt lat="47.591581027954817" lon="18.770131962373853">
        <ele>187.72900000000001</ele>
        <time>2010-02-07T01:59:05Z</time>
      </trkpt>
      <trkpt lat="47.591614974662662" lon="18.770108995959163">
        <ele>188.108</ele>
        <time>2010-02-07T01:59:07Z</time>
      </trkpt>
      <trkpt lat="47.591649005189538" lon="18.770083012059331">
        <ele>187.148</ele>
        <time>2010-02-07T01:59:09Z</time>
      </trkpt>
      <trkpt lat="47.591683035716414" lon="18.770053004845977">
        <ele>187.46299999999999</ele>
        <time>2010-02-07T01:59:11Z</time>
      </trkpt>
      <trkpt lat="47.591716982424259" lon="18.770025009289384">
        <ele>187.036</ele>
        <time>2010-02-07T01:59:13Z</time>
      </trkpt>
      <trkpt lat="47.591751012951136" lon="18.769999025389552">
        <ele>187.595</ele>
        <time>2010-02-07T01:59:15Z</time>
      </trkpt>
      <trkpt lat="47.591784037649632" lon="18.769971029832959">
        <ele>187.22</ele>
        <time>2010-02-07T01:59:17Z</time>
      </trkpt>
      <trkpt lat="47.591813961043954" lon="18.769942028447986">
        <ele>187.47999999999999</ele>
        <time>2010-02-07T01:59:19Z</time>
      </trkpt>
      <trkpt lat="47.591848997399211" lon="18.769913027063012">
        <ele>186.958</ele>
        <time>2010-02-07T01:59:21Z</time>
      </trkpt>
      <trkpt lat="47.591880010440946" lon="18.769886959344149">
        <ele>186.91399999999999</ele>
        <time>2010-02-07T01:59:23Z</time>
      </trkpt>
      <trkpt lat="47.591913035139441" lon="18.769857035949826">
        <ele>187.006</ele>
        <time>2010-02-07T01:59:25Z</time>
      </trkpt>
      <trkpt lat="47.591946981847286" lon="18.769829040393233">
        <ele>186.58600000000001</ele>
        <time>2010-02-07T01:59:27Z</time>
      </trkpt>
      <trkpt lat="47.591982018202543" lon="18.769799033179879">
        <ele>186.66800000000001</ele>
        <time>2010-02-07T01:59:29Z</time>
      </trkpt>
      <trkpt lat="47.592017976567149" lon="18.769766008481383">
        <ele>187.047</ele>
        <time>2010-02-07T01:59:31Z</time>
      </trkpt>
      <trkpt lat="47.592053012922406" lon="18.769731977954507">
        <ele>186.99799999999999</ele>
        <time>2010-02-07T01:59:33Z</time>
      </trkpt>
      <trkpt lat="47.592087965458632" lon="18.769697025418282">
        <ele>186.73500000000001</ele>
        <time>2010-02-07T01:59:35Z</time>
      </trkpt>
      <trkpt lat="47.592124007642269" lon="18.769661989063025">
        <ele>186.751</ele>
        <time>2010-02-07T01:59:37Z</time>
      </trkpt>
      <trkpt lat="47.592164995148778" lon="18.769619995728135">
        <ele>186.565</ele>
        <time>2010-02-07T01:59:39Z</time>
      </trkpt>
      <trkpt lat="47.592200031504035" lon="18.769583031535149">
        <ele>186.71000000000001</ele>
        <time>2010-02-07T01:59:41Z</time>
      </trkpt>
      <trkpt lat="47.592231966555119" lon="18.76954497769475">
        <ele>186.81200000000001</ele>
        <time>2010-02-07T01:59:43Z</time>
      </trkpt>
      <trkpt lat="47.592264991253614" lon="18.769508013501763">
        <ele>186.37799999999999</ele>
        <time>2010-02-07T01:59:45Z</time>
      </trkpt>
      <trkpt lat="47.592299021780491" lon="18.769469037652016">
        <ele>186.626</ele>
        <time>2010-02-07T01:59:47Z</time>
      </trkpt>
      <trkpt lat="47.592337997630239" lon="18.769431989639997">
        <ele>186.14500000000001</ele>
        <time>2010-02-07T01:59:49Z</time>
      </trkpt>
      <trkpt lat="47.592374961823225" lon="18.769389996305108">
        <ele>187.16300000000001</ele>
        <time>2010-02-07T01:59:51Z</time>
      </trkpt>
      <trkpt lat="47.592412009835243" lon="18.769348002970219">
        <ele>185.46199999999999</ele>
        <time>2010-02-07T01:59:53Z</time>
      </trkpt>
      <trkpt lat="47.592446962371469" lon="18.76930701546371">
        <ele>186.68799999999999</ele>
        <time>2010-02-07T01:59:55Z</time>
      </trkpt>
      <trkpt lat="47.592480992898345" lon="18.769269967451692">
        <ele>186.63</ele>
        <time>2010-02-07T01:59:57Z</time>
      </trkpt>
      <trkpt lat="47.59251200594008" lon="18.769229985773563">
        <ele>186.57499999999999</ele>
        <time>2010-02-07T01:59:59Z</time>
      </trkpt>
      <trkpt lat="47.592545030638576" lon="18.769185980781913">
        <ele>186.143</ele>
        <time>2010-02-07T02:00:01Z</time>
      </trkpt>
      <trkpt lat="47.592579983174801" lon="18.769144993275404">
        <ele>187.16900000000001</ele>
        <time>2010-02-07T02:00:03Z</time>
      </trkpt>
      <trkpt lat="47.592616025358438" lon="18.769101994112134">
        <ele>186.88999999999999</ele>
        <time>2010-02-07T02:00:05Z</time>
      </trkpt>
      <trkpt lat="47.592649972066283" lon="18.769054971635342">
        <ele>186.34800000000001</ele>
        <time>2010-02-07T02:00:07Z</time>
      </trkpt>
      <trkpt lat="47.592681990936399" lon="18.76900996081531">
        <ele>187.018</ele>
        <time>2010-02-07T02:00:09Z</time>
      </trkpt>
      <trkpt lat="47.592715015634894" lon="18.76896302215755">
        <ele>186.709</ele>
        <time>2010-02-07T02:00:11Z</time>
      </trkpt>
      <trkpt lat="47.592744017019868" lon="18.768912982195616">
        <ele>186.88800000000001</ele>
        <time>2010-02-07T02:00:13Z</time>
      </trkpt>
      <trkpt lat="47.59277100674808" lon="18.768862020224333">
        <ele>186.73500000000001</ele>
        <time>2010-02-07T02:00:15Z</time>
      </trkpt>
      <trkpt lat="47.592786010354757" lon="18.768819021061063">
        <ele>187.08199999999999</ele>
        <time>2010-02-07T02:00:17Z</time>
      </trkpt>
      <trkpt lat="47.592796990647912" lon="18.768764035776258">
        <ele>187.92099999999999</ele>
        <time>2010-02-07T02:00:20Z</time>
      </trkpt>
      <trkpt lat="47.59279296733439" lon="18.768710978329182">
        <ele>187.84299999999999</ele>
        <time>2010-02-07T02:00:22Z</time>
      </trkpt>
      <trkpt lat="47.592780981212854" lon="18.768664039671421">
        <ele>187.095</ele>
        <time>2010-02-07T02:00:24Z</time>
      </trkpt>
      <trkpt lat="47.592767989262938" lon="18.768618023023009">
        <ele>186.96199999999999</ele>
        <time>2010-02-07T02:00:26Z</time>
      </trkpt>
      <trkpt lat="47.592751979827881" lon="18.768573012202978">
        <ele>186.97800000000001</ele>
        <time>2010-02-07T02:00:28Z</time>
      </trkpt>
      <trkpt lat="47.592735970392823" lon="18.768529007211328">
        <ele>186.99199999999999</ele>
        <time>2010-02-07T02:00:30Z</time>
      </trkpt>
      <trkpt lat="47.592723984271288" lon="18.768477039411664">
        <ele>186.93899999999999</ele>
        <time>2010-02-07T02:00:32Z</time>
      </trkpt>
      <trkpt lat="47.592710992321372" lon="18.768430016934872">
        <ele>187.47900000000001</ele>
        <time>2010-02-07T02:00:34Z</time>
      </trkpt>
      <trkpt lat="47.592690037563443" lon="18.768371008336544">
        <ele>187.49199999999999</ele>
        <time>2010-02-07T02:00:37Z</time>
      </trkpt>
      <trkpt lat="47.592667993158102" lon="18.768311999738216">
        <ele>186.709</ele>
        <time>2010-02-07T02:00:40Z</time>
      </trkpt>
      <trkpt lat="47.592647960409522" lon="18.768246034160256">
        <ele>187.40700000000001</ele>
        <time>2010-02-07T02:00:43Z</time>
      </trkpt>
      <trkpt lat="47.592630023136735" lon="18.768184008076787">
        <ele>187.572</ele>
        <time>2010-02-07T02:00:46Z</time>
      </trkpt>
      <trkpt lat="47.592608984559774" lon="18.768120976164937">
        <ele>187.57900000000001</ele>
        <time>2010-02-07T02:00:49Z</time>
      </trkpt>
      <trkpt lat="47.592593980953097" lon="18.768075965344906">
        <ele>187.70500000000001</ele>
        <time>2010-02-07T02:00:51Z</time>
      </trkpt>
      <trkpt lat="47.592579983174801" lon="18.768029026687145">
        <ele>187.499</ele>
        <time>2010-02-07T02:00:53Z</time>
      </trkpt>
      <trkpt lat="47.592561040073633" lon="18.767969012260437">
        <ele>187.34299999999999</ele>
        <time>2010-02-07T02:00:56Z</time>
      </trkpt>
      <trkpt lat="47.592547964304686" lon="18.767927018925548">
        <ele>186.94399999999999</ele>
        <time>2010-02-07T02:00:58Z</time>
      </trkpt>
      <trkpt lat="47.592532960698009" lon="18.767886031419039">
        <ele>186.81800000000001</ele>
        <time>2010-02-07T02:01:00Z</time>
      </trkpt>
      <trkpt lat="47.592520974576473" lon="18.767841020599008">
        <ele>186.822</ele>
        <time>2010-02-07T02:01:02Z</time>
      </trkpt>
      <trkpt lat="47.592509994283319" lon="18.767792992293835">
        <ele>187.429</ele>
        <time>2010-02-07T02:01:04Z</time>
      </trkpt>
      <trkpt lat="47.592497002333403" lon="18.767745969817042">
        <ele>187.14099999999999</ele>
        <time>2010-02-07T02:01:06Z</time>
      </trkpt>
      <trkpt lat="47.592483004555106" lon="18.767701964825392">
        <ele>187.33099999999999</ele>
        <time>2010-02-07T02:01:08Z</time>
      </trkpt>
      <trkpt lat="47.59247001260519" lon="18.767656031996012">
        <ele>187.809</ele>
        <time>2010-02-07T02:01:10Z</time>
      </trkpt>
      <trkpt lat="47.592456014826894" lon="18.767613032832742">
        <ele>186.84700000000001</ele>
        <time>2010-02-07T02:01:12Z</time>
      </trkpt>
      <trkpt lat="47.592444028705359" lon="18.767569027841091">
        <ele>187.767</ele>
        <time>2010-02-07T02:01:14Z</time>
      </trkpt>
      <trkpt lat="47.592433970421553" lon="18.767523011192679">
        <ele>187.45599999999999</ele>
        <time>2010-02-07T02:01:16Z</time>
      </trkpt>
      <trkpt lat="47.592421984300017" lon="18.767479006201029">
        <ele>187.63900000000001</ele>
        <time>2010-02-07T02:01:18Z</time>
      </trkpt>
      <trkpt lat="47.592408992350101" lon="18.767435001209378">
        <ele>187.80099999999999</ele>
        <time>2010-02-07T02:01:20Z</time>
      </trkpt>
      <trkpt lat="47.592397006228566" lon="18.767389990389347">
        <ele>187.98400000000001</ele>
        <time>2010-02-07T02:01:22Z</time>
      </trkpt>
      <trkpt lat="47.59238401427865" lon="18.767346991226077">
        <ele>187.72</ele>
        <time>2010-02-07T02:01:24Z</time>
      </trkpt>
      <trkpt lat="47.592373033985496" lon="18.767301980406046">
        <ele>187.40199999999999</ele>
        <time>2010-02-07T02:01:26Z</time>
      </trkpt>
      <trkpt lat="47.592359958216548" lon="18.767256969586015">
        <ele>188.059</ele>
        <time>2010-02-07T02:01:28Z</time>
      </trkpt>
      <trkpt lat="47.592345960438251" lon="18.767214976251125">
        <ele>187.90799999999999</ele>
        <time>2010-02-07T02:01:30Z</time>
      </trkpt>
      <trkpt lat="47.592330034822226" lon="18.767172982916236">
        <ele>187.44200000000001</ele>
        <time>2010-02-07T02:01:32Z</time>
      </trkpt>
      <trkpt lat="47.592316959053278" lon="18.767128977924585">
        <ele>187.839</ele>
        <time>2010-02-07T02:01:34Z</time>
      </trkpt>
      <trkpt lat="47.592306984588504" lon="18.767083967104554">
        <ele>187.773</ele>
        <time>2010-02-07T02:01:36Z</time>
      </trkpt>
      <trkpt lat="47.592288963496685" lon="18.767016995698214">
        <ele>187.47</ele>
        <time>2010-02-07T02:01:39Z</time>
      </trkpt>
      <trkpt lat="47.592274965718389" lon="18.766972990706563">
        <ele>187.42699999999999</ele>
        <time>2010-02-07T02:01:41Z</time>
      </trkpt>
      <trkpt lat="47.592263985425234" lon="18.766930997371674">
        <ele>187.82900000000001</ele>
        <time>2010-02-07T02:01:43Z</time>
      </trkpt>
      <trkpt lat="47.592251999303699" lon="18.766886992380023">
        <ele>188.35499999999999</ele>
        <time>2010-02-07T02:01:45Z</time>
      </trkpt>
      <trkpt lat="47.592242024838924" lon="18.766842987388372">
        <ele>186.90100000000001</ele>
        <time>2010-02-07T02:01:47Z</time>
      </trkpt>
      <trkpt lat="47.592228027060628" lon="18.766797976568341">
        <ele>187.87200000000001</ele>
        <time>2010-02-07T02:01:49Z</time>
      </trkpt>
      <trkpt lat="47.592216040939093" lon="18.76675296574831">
        <ele>187.393</ele>
        <time>2010-02-07T02:01:51Z</time>
      </trkpt>
      <trkpt lat="47.592203970998526" lon="18.76670896075666">
        <ele>187.167</ele>
        <time>2010-02-07T02:01:53Z</time>
      </trkpt>
      <trkpt lat="47.592189973220229" lon="18.766663027927279">
        <ele>187.36099999999999</ele>
        <time>2010-02-07T02:01:55Z</time>
      </trkpt>
      <trkpt lat="47.592175975441933" lon="18.766613993793726">
        <ele>187.08699999999999</ele>
        <time>2010-02-07T02:01:57Z</time>
      </trkpt>
      <trkpt lat="47.592160971835256" lon="18.766567977145314">
        <ele>186.732</ele>
        <time>2010-02-07T02:01:59Z</time>
      </trkpt>
      <trkpt lat="47.592144040390849" lon="18.766524977982044">
        <ele>186.708</ele>
        <time>2010-02-07T02:02:01Z</time>
      </trkpt>
      <trkpt lat="47.592129036784172" lon="18.766481978818774">
        <ele>186.762</ele>
        <time>2010-02-07T02:02:03Z</time>
      </trkpt>
      <trkpt lat="47.592118978500366" lon="18.766437973827124">
        <ele>186.38800000000001</ele>
        <time>2010-02-07T02:02:05Z</time>
      </trkpt>
      <trkpt lat="47.59210498072207" lon="18.766393968835473">
        <ele>186.68700000000001</ele>
        <time>2010-02-07T02:02:07Z</time>
      </trkpt>
      <trkpt lat="47.592088971287012" lon="18.766352981328964">
        <ele>186.733</ele>
        <time>2010-02-07T02:02:09Z</time>
      </trkpt>
      <trkpt lat="47.592077990993857" lon="18.766308976337314">
        <ele>186.21299999999999</ele>
        <time>2010-02-07T02:02:11Z</time>
      </trkpt>
      <trkpt lat="47.592067010700703" lon="18.766264971345663">
        <ele>187.02699999999999</ele>
        <time>2010-02-07T02:02:13Z</time>
      </trkpt>
      <trkpt lat="47.592055024579167" lon="18.766219038516283">
        <ele>186.77699999999999</ele>
        <time>2010-02-07T02:02:15Z</time>
      </trkpt>
      <trkpt lat="47.592042032629251" lon="18.766175033524632">
        <ele>187.364</ele>
        <time>2010-02-07T02:02:17Z</time>
      </trkpt>
      <trkpt lat="47.592028034850955" lon="18.766130022704601">
        <ele>186.72999999999999</ele>
        <time>2010-02-07T02:02:19Z</time>
      </trkpt>
      <trkpt lat="47.592016970738769" lon="18.766083000227809">
        <ele>186.833</ele>
        <time>2010-02-07T02:02:21Z</time>
      </trkpt>
      <trkpt lat="47.592005990445614" lon="18.766035977751017">
        <ele>187.39599999999999</ele>
        <time>2010-02-07T02:02:23Z</time>
      </trkpt>
      <trkpt lat="47.591998027637601" lon="18.765988033264875">
        <ele>187.821</ele>
        <time>2010-02-07T02:02:25Z</time>
      </trkpt>
      <trkpt lat="47.591987969353795" lon="18.765941010788083">
        <ele>187.34299999999999</ele>
        <time>2010-02-07T02:02:27Z</time>
      </trkpt>
      <trkpt lat="47.591979000717402" lon="18.76589298248291">
        <ele>187.47300000000001</ele>
        <time>2010-02-07T02:02:29Z</time>
      </trkpt>
      <trkpt lat="47.591968020424247" lon="18.765845960006118">
        <ele>186.982</ele>
        <time>2010-02-07T02:02:31Z</time>
      </trkpt>
      <trkpt lat="47.591957962140441" lon="18.765801033005118">
        <ele>187.07499999999999</ele>
        <time>2010-02-07T02:02:33Z</time>
      </trkpt>
      <trkpt lat="47.591948993504047" lon="18.765757028013468">
        <ele>187.75399999999999</ele>
        <time>2010-02-07T02:02:35Z</time>
      </trkpt>
      <trkpt lat="47.591947987675667" lon="18.765706988051534">
        <ele>187.93899999999999</ele>
        <time>2010-02-07T02:02:37Z</time>
      </trkpt>
      <trkpt lat="47.591939019039273" lon="18.765658959746361">
        <ele>187.70099999999999</ele>
        <time>2010-02-07T02:02:39Z</time>
      </trkpt>
      <trkpt lat="47.591925021260977" lon="18.765615038573742">
        <ele>187.59399999999999</ele>
        <time>2010-02-07T02:02:41Z</time>
      </trkpt>
      <trkpt lat="47.591914040967822" lon="18.765570027753711">
        <ele>187.249</ele>
        <time>2010-02-07T02:02:43Z</time>
      </trkpt>
      <trkpt lat="47.591902976855636" lon="18.76552501693368">
        <ele>187.60499999999999</ele>
        <time>2010-02-07T02:02:45Z</time>
      </trkpt>
      <trkpt lat="47.5918909907341" lon="18.765481011942029">
        <ele>187.46100000000001</ele>
        <time>2010-02-07T02:02:47Z</time>
      </trkpt>
      <trkpt lat="47.591881016269326" lon="18.765436001121998">
        <ele>187.166</ele>
        <time>2010-02-07T02:02:49Z</time>
      </trkpt>
      <trkpt lat="47.591869030147791" lon="18.765390990301967">
        <ele>187.185</ele>
        <time>2010-02-07T02:02:51Z</time>
      </trkpt>
      <trkpt lat="47.591856960207224" lon="18.765345979481936">
        <ele>187.279</ele>
        <time>2010-02-07T02:02:53Z</time>
      </trkpt>
      <trkpt lat="47.591848997399211" lon="18.765295017510653">
        <ele>187.96700000000001</ele>
        <time>2010-02-07T02:02:55Z</time>
      </trkpt>
      <trkpt lat="47.591842040419579" lon="18.765245983377099">
        <ele>188.316</ele>
        <time>2010-02-07T02:02:57Z</time>
      </trkpt>
      <trkpt lat="47.591833993792534" lon="18.765196027234197">
        <ele>188.46100000000001</ele>
        <time>2010-02-07T02:02:59Z</time>
      </trkpt>
      <trkpt lat="47.591829970479012" lon="18.765145987272263">
        <ele>188.61799999999999</ele>
        <time>2010-02-07T02:03:01Z</time>
      </trkpt>
      <trkpt lat="47.59182401932776" lon="18.765097036957741">
        <ele>189.22</ele>
        <time>2010-02-07T02:03:03Z</time>
      </trkpt>
      <trkpt lat="47.591821001842618" lon="18.765048002824187">
        <ele>188.602</ele>
        <time>2010-02-07T02:03:05Z</time>
      </trkpt>
      <trkpt lat="47.591816978529096" lon="18.764999974519014">
        <ele>188.56399999999999</ele>
        <time>2010-02-07T02:03:07Z</time>
      </trkpt>
      <trkpt lat="47.591813961043954" lon="18.764954041689634">
        <ele>188.732</ele>
        <time>2010-02-07T02:03:09Z</time>
      </trkpt>
      <trkpt lat="47.591797029599547" lon="18.764896960929036">
        <ele>188.94499999999999</ele>
        <time>2010-02-07T02:03:12Z</time>
      </trkpt>
      <trkpt lat="47.591788982972503" lon="18.764853039756417">
        <ele>188.80699999999999</ele>
        <time>2010-02-07T02:03:14Z</time>
      </trkpt>
      <trkpt lat="47.591792000457644" lon="18.764806017279625">
        <ele>188.97399999999999</ele>
        <time>2010-02-07T02:03:16Z</time>
      </trkpt>
      <trkpt lat="47.591789988800883" lon="18.764760000631213">
        <ele>189.065</ele>
        <time>2010-02-07T02:03:18Z</time>
      </trkpt>
      <trkpt lat="47.591790994629264" lon="18.76471197232604">
        <ele>189.233</ele>
        <time>2010-02-07T02:03:20Z</time>
      </trkpt>
      <trkpt lat="47.591794012114406" lon="18.76466503366828">
        <ele>189.43799999999999</ele>
        <time>2010-02-07T02:03:22Z</time>
      </trkpt>
      <trkpt lat="47.591797029599547" lon="18.764621028676629">
        <ele>189.42699999999999</ele>
        <time>2010-02-07T02:03:24Z</time>
      </trkpt>
      <trkpt lat="47.591799963265657" lon="18.764574006199837">
        <ele>189.50999999999999</ele>
        <time>2010-02-07T02:03:26Z</time>
      </trkpt>
      <trkpt lat="47.591801974922419" lon="18.764507034793496">
        <ele>189.37200000000001</ele>
        <time>2010-02-07T02:03:29Z</time>
      </trkpt>
      <trkpt lat="47.59180499240756" lon="18.764462023973465">
        <ele>188.869</ele>
        <time>2010-02-07T02:03:31Z</time>
      </trkpt>
      <trkpt lat="47.591807004064322" lon="18.764418018981814">
        <ele>189.876</ele>
        <time>2010-02-07T02:03:33Z</time>
      </trkpt>
      <trkpt lat="47.591812033206224" lon="18.764370996505022">
        <ele>189.51900000000001</ele>
        <time>2010-02-07T02:03:35Z</time>
      </trkpt>
      <trkpt lat="47.591814966872334" lon="18.764325985684991">
        <ele>189.57599999999999</ele>
        <time>2010-02-07T02:03:37Z</time>
      </trkpt>
      <trkpt lat="47.591819996014237" lon="18.76428097486496">
        <ele>189.30500000000001</ele>
        <time>2010-02-07T02:03:39Z</time>
      </trkpt>
      <trkpt lat="47.591826030984521" lon="18.764234036207199">
        <ele>189.77000000000001</ele>
        <time>2010-02-07T02:03:41Z</time>
      </trkpt>
      <trkpt lat="47.591830976307392" lon="18.764188019558787">
        <ele>189.56899999999999</ele>
        <time>2010-02-07T02:03:43Z</time>
      </trkpt>
      <trkpt lat="47.591834999620914" lon="18.764143008738756">
        <ele>190.00299999999999</ele>
        <time>2010-02-07T02:03:45Z</time>
      </trkpt>
      <trkpt lat="47.591836005449295" lon="18.764075031504035">
        <ele>190.45500000000001</ele>
        <time>2010-02-07T02:03:48Z</time>
      </trkpt>
      <trkpt lat="47.591840028762817" lon="18.764010993763804">
        <ele>191.18899999999999</ele>
        <time>2010-02-07T02:03:51Z</time>
      </trkpt>
      <trkpt lat="47.591842040419579" lon="18.763967994600534">
        <ele>190.65799999999999</ele>
        <time>2010-02-07T02:03:53Z</time>
      </trkpt>
      <trkpt lat="47.591845979914069" lon="18.763907980173826">
        <ele>191.49600000000001</ele>
        <time>2010-02-07T02:03:56Z</time>
      </trkpt>
      <trkpt lat="47.59184799157083" lon="18.763864981010556">
        <ele>191.16999999999999</ele>
        <time>2010-02-07T02:03:58Z</time>
      </trkpt>
      <trkpt lat="47.591851009055972" lon="18.763803038746119">
        <ele>191.93799999999999</ele>
        <time>2010-02-07T02:04:01Z</time>
      </trkpt>
      <trkpt lat="47.591852014884353" lon="18.763737995177507">
        <ele>191.84399999999999</ele>
        <time>2010-02-07T02:04:04Z</time>
      </trkpt>
      <trkpt lat="47.591855032369494" lon="18.763674041256309">
        <ele>192.35400000000001</ele>
        <time>2010-02-07T02:04:07Z</time>
      </trkpt>
      <trkpt lat="47.591859977692366" lon="18.763628024607897">
        <ele>192.33600000000001</ele>
        <time>2010-02-07T02:04:09Z</time>
      </trkpt>
      <trkpt lat="47.591864001005888" lon="18.763582007959485">
        <ele>192.816</ele>
        <time>2010-02-07T02:04:11Z</time>
      </trkpt>
      <trkpt lat="47.59186802431941" lon="18.763517970219254">
        <ele>192.63900000000001</ele>
        <time>2010-02-07T02:04:14Z</time>
      </trkpt>
      <trkpt lat="47.591872969642282" lon="18.763456027954817">
        <ele>192.81299999999999</ele>
        <time>2010-02-07T02:04:17Z</time>
      </trkpt>
      <trkpt lat="47.591877998784184" lon="18.763388972729445">
        <ele>192.80099999999999</ele>
        <time>2010-02-07T02:04:20Z</time>
      </trkpt>
      <trkpt lat="47.591880010440946" lon="18.763342034071684">
        <ele>193.19499999999999</ele>
        <time>2010-02-07T02:04:22Z</time>
      </trkpt>
      <trkpt lat="47.591885039582849" lon="18.76327296718955">
        <ele>193.68100000000001</ele>
        <time>2010-02-07T02:04:25Z</time>
      </trkpt>
      <trkpt lat="47.5918909907341" lon="18.763223011046648">
        <ele>194.04400000000001</ele>
        <time>2010-02-07T02:04:27Z</time>
      </trkpt>
      <trkpt lat="47.591897025704384" lon="18.763156961649656">
        <ele>194.09700000000001</ele>
        <time>2010-02-07T02:04:30Z</time>
      </trkpt>
      <trkpt lat="47.591898031532764" lon="18.763087978586555">
        <ele>194.172</ele>
        <time>2010-02-07T02:04:33Z</time>
      </trkpt>
      <trkpt lat="47.591901971027255" lon="18.76301396638155">
        <ele>194.75999999999999</ele>
        <time>2010-02-07T02:04:36Z</time>
      </trkpt>
      <trkpt lat="47.591895014047623" lon="18.76294900663197">
        <ele>194.91999999999999</ele>
        <time>2010-02-07T02:04:39Z</time>
      </trkpt>
      <trkpt lat="47.5918909907341" lon="18.76288304105401">
        <ele>195.006</ele>
        <time>2010-02-07T02:04:42Z</time>
      </trkpt>
      <trkpt lat="47.59188998490572" lon="18.76283903606236">
        <ele>195.12799999999999</ele>
        <time>2010-02-07T02:04:44Z</time>
      </trkpt>
      <trkpt lat="47.591885961592197" lon="18.762795031070709">
        <ele>195.44999999999999</ele>
        <time>2010-02-07T02:04:46Z</time>
      </trkpt>
      <trkpt lat="47.591885039582849" lon="18.762749014422297">
        <ele>195.114</ele>
        <time>2010-02-07T02:04:48Z</time>
      </trkpt>
      <trkpt lat="47.591882022097707" lon="18.762682965025306">
        <ele>195.95699999999999</ele>
        <time>2010-02-07T02:04:51Z</time>
      </trkpt>
      <trkpt lat="47.591870035976171" lon="18.762621022760868">
        <ele>196.70599999999999</ele>
        <time>2010-02-07T02:04:54Z</time>
      </trkpt>
      <trkpt lat="47.591857966035604" lon="18.762557990849018">
        <ele>196.828</ele>
        <time>2010-02-07T02:04:57Z</time>
      </trkpt>
      <trkpt lat="47.591850003227592" lon="18.762509962543845">
        <ele>196.83199999999999</ele>
        <time>2010-02-07T02:04:59Z</time>
      </trkpt>
      <trkpt lat="47.591837011277676" lon="18.762446008622646">
        <ele>197.09999999999999</ele>
        <time>2010-02-07T02:05:02Z</time>
      </trkpt>
      <trkpt lat="47.591821001842618" lon="18.762384988367558">
        <ele>197.13999999999999</ele>
        <time>2010-02-07T02:05:05Z</time>
      </trkpt>
      <trkpt lat="47.591810021549463" lon="18.76232597976923">
        <ele>197.59700000000001</ele>
        <time>2010-02-07T02:05:08Z</time>
      </trkpt>
      <trkpt lat="47.591787977144122" lon="18.762266971170902">
        <ele>197.876</ele>
        <time>2010-02-07T02:05:11Z</time>
      </trkpt>
      <trkpt lat="47.591769034042954" lon="18.762207040563226">
        <ele>197.929</ele>
        <time>2010-02-07T02:05:14Z</time>
      </trkpt>
      <trkpt lat="47.591749001294374" lon="18.762144008651376">
        <ele>198.06800000000001</ele>
        <time>2010-02-07T02:05:18Z</time>
      </trkpt>
      <trkpt lat="47.591727962717414" lon="18.762081982567906">
        <ele>198.77099999999999</ele>
        <time>2010-02-07T02:05:21Z</time>
      </trkpt>
      <trkpt lat="47.591700972989202" lon="18.76202498562634">
        <ele>198.19800000000001</ele>
        <time>2010-02-07T02:05:24Z</time>
      </trkpt>
      <trkpt lat="47.591682029888034" lon="18.761957008391619">
        <ele>198.13499999999999</ele>
        <time>2010-02-07T02:05:27Z</time>
      </trkpt>
      <trkpt lat="47.591668032109737" lon="18.761889031156898">
        <ele>197.79499999999999</ele>
        <time>2010-02-07T02:05:30Z</time>
      </trkpt>
      <trkpt lat="47.591649005189538" lon="18.761818036437035">
        <ele>198.05699999999999</ele>
        <time>2010-02-07T02:05:33Z</time>
      </trkpt>
      <trkpt lat="47.591638024896383" lon="18.761748969554901">
        <ele>198.53800000000001</ele>
        <time>2010-02-07T02:05:36Z</time>
      </trkpt>
      <trkpt lat="47.591623021289706" lon="18.761705970391631">
        <ele>199.79400000000001</ele>
        <time>2010-02-07T02:05:38Z</time>
      </trkpt>
      <trkpt lat="47.591606006026268" lon="18.761645033955574">
        <ele>199.55500000000001</ele>
        <time>2010-02-07T02:05:41Z</time>
      </trkpt>
      <trkpt lat="47.591593014076352" lon="18.761584013700485">
        <ele>199.86799999999999</ele>
        <time>2010-02-07T02:05:44Z</time>
      </trkpt>
      <trkpt lat="47.591578010469675" lon="18.761517964303493">
        <ele>200.01400000000001</ele>
        <time>2010-02-07T02:05:47Z</time>
      </trkpt>
      <trkpt lat="47.59156602434814" lon="18.761475970968604">
        <ele>200.63999999999999</ele>
        <time>2010-02-07T02:05:49Z</time>
      </trkpt>
      <trkpt lat="47.591544985771179" lon="18.761419979855418">
        <ele>201.51900000000001</ele>
        <time>2010-02-07T02:05:52Z</time>
      </trkpt>
      <trkpt lat="47.591521013528109" lon="18.761361977085471">
        <ele>201.304</ele>
        <time>2010-02-07T02:05:55Z</time>
      </trkpt>
      <trkpt lat="47.591505004093051" lon="18.761297017335892">
        <ele>201.703</ele>
        <time>2010-02-07T02:05:58Z</time>
      </trkpt>
      <trkpt lat="47.591486983001232" lon="18.761232979595661">
        <ele>203.01499999999999</ele>
        <time>2010-02-07T02:06:01Z</time>
      </trkpt>
      <trkpt lat="47.591476002708077" lon="18.761167014017701">
        <ele>202.28200000000001</ele>
        <time>2010-02-07T02:06:04Z</time>
      </trkpt>
      <trkpt lat="47.591457981616259" lon="18.761102976277471">
        <ele>202.81700000000001</ele>
        <time>2010-02-07T02:06:07Z</time>
      </trkpt>
      <trkpt lat="47.591448007151484" lon="18.761051008477807">
        <ele>202.84800000000001</ele>
        <time>2010-02-07T02:06:09Z</time>
      </trkpt>
      <trkpt lat="47.591435015201569" lon="18.760979007929564">
        <ele>202.72300000000001</ele>
        <time>2010-02-07T02:06:12Z</time>
      </trkpt>
      <trkpt lat="47.591425040736794" lon="18.7609270401299">
        <ele>203.28800000000001</ele>
        <time>2010-02-07T02:06:14Z</time>
      </trkpt>
      <trkpt lat="47.591415988281369" lon="18.760872976854444">
        <ele>202.49600000000001</ele>
        <time>2010-02-07T02:06:16Z</time>
      </trkpt>
      <trkpt lat="47.59139796718955" lon="18.760804999619722">
        <ele>202.57900000000001</ele>
        <time>2010-02-07T02:06:19Z</time>
      </trkpt>
      <trkpt lat="47.591390004381537" lon="18.760755965486169">
        <ele>203.10900000000001</ele>
        <time>2010-02-07T02:06:21Z</time>
      </trkpt>
      <trkpt lat="47.591371983289719" lon="18.760693017393351">
        <ele>203.286</ele>
        <time>2010-02-07T02:06:24Z</time>
      </trkpt>
      <trkpt lat="47.591353040188551" lon="18.760631997138262">
        <ele>203.66999999999999</ele>
        <time>2010-02-07T02:06:27Z</time>
      </trkpt>
      <trkpt lat="47.591336024925113" lon="18.760571982711554">
        <ele>203.50700000000001</ele>
        <time>2010-02-07T02:06:30Z</time>
      </trkpt>
      <trkpt lat="47.591312974691391" lon="18.760512974113226">
        <ele>204.20099999999999</ele>
        <time>2010-02-07T02:06:33Z</time>
      </trkpt>
      <trkpt lat="47.591291014105082" lon="18.760455977171659">
        <ele>204.28</ele>
        <time>2010-02-07T02:06:36Z</time>
      </trkpt>
      <trkpt lat="47.591276010498405" lon="18.76041398383677">
        <ele>204.285</ele>
        <time>2010-02-07T02:06:38Z</time>
      </trkpt>
      <trkpt lat="47.591262012720108" lon="18.760371990501881">
        <ele>204.27500000000001</ele>
        <time>2010-02-07T02:06:40Z</time>
      </trkpt>
      <trkpt lat="47.591250026598573" lon="18.760331002995372">
        <ele>204.80699999999999</ele>
        <time>2010-02-07T02:06:42Z</time>
      </trkpt>
      <trkpt lat="47.591235022991896" lon="18.760290015488863">
        <ele>205.23699999999999</ele>
        <time>2010-02-07T02:06:44Z</time>
      </trkpt>
      <trkpt lat="47.591220019385219" lon="18.760245004668832">
        <ele>205.51900000000001</ele>
        <time>2010-02-07T02:06:46Z</time>
      </trkpt>
      <trkpt lat="47.591206021606922" lon="18.760204017162323">
        <ele>204.78200000000001</ele>
        <time>2010-02-07T02:06:48Z</time>
      </trkpt>
      <trkpt lat="47.591189006343484" lon="18.760160012170672">
        <ele>204.88300000000001</ele>
        <time>2010-02-07T02:06:50Z</time>
      </trkpt>
      <trkpt lat="47.591178026050329" lon="18.760117013007402">
        <ele>205.18299999999999</ele>
        <time>2010-02-07T02:06:52Z</time>
      </trkpt>
      <trkpt lat="47.591165034100413" lon="18.760074013844132">
        <ele>205.39699999999999</ele>
        <time>2010-02-07T02:06:54Z</time>
      </trkpt>
      <trkpt lat="47.591150030493736" lon="18.760031014680862">
        <ele>205.78100000000001</ele>
        <time>2010-02-07T02:06:56Z</time>
      </trkpt>
      <trkpt lat="47.59113896638155" lon="18.759991033002734">
        <ele>204.70400000000001</ele>
        <time>2010-02-07T02:06:58Z</time>
      </trkpt>
      <trkpt lat="47.591124968603253" lon="18.759950967505574">
        <ele>205.04400000000001</ele>
        <time>2010-02-07T02:07:00Z</time>
      </trkpt>
      <trkpt lat="47.591111976653337" lon="18.759908974170685">
        <ele>205.733</ele>
        <time>2010-02-07T02:07:02Z</time>
      </trkpt>
      <trkpt lat="47.591094961389899" lon="18.759846026077867">
        <ele>205.35599999999999</ele>
        <time>2010-02-07T02:07:05Z</time>
      </trkpt>
      <trkpt lat="47.591076018288732" lon="18.759785005822778">
        <ele>205.18600000000001</ele>
        <time>2010-02-07T02:07:08Z</time>
      </trkpt>
      <trkpt lat="47.591061014682055" lon="18.759741000831127">
        <ele>205.32400000000001</ele>
        <time>2010-02-07T02:07:10Z</time>
      </trkpt>
      <trkpt lat="47.591048022732139" lon="18.759694984182715">
        <ele>205.245</ele>
        <time>2010-02-07T02:07:12Z</time>
      </trkpt>
      <trkpt lat="47.591035030782223" lon="18.759648967534304">
        <ele>205.75200000000001</ele>
        <time>2010-02-07T02:07:14Z</time>
      </trkpt>
      <trkpt lat="47.591022038832307" lon="18.759604040533304">
        <ele>205.93600000000001</ele>
        <time>2010-02-07T02:07:16Z</time>
      </trkpt>
      <trkpt lat="47.591008963063359" lon="18.759560035541654">
        <ele>205.13499999999999</ele>
        <time>2010-02-07T02:07:18Z</time>
      </trkpt>
      <trkpt lat="47.590993959456682" lon="18.759516030550003">
        <ele>206.315</ele>
        <time>2010-02-07T02:07:20Z</time>
      </trkpt>
      <trkpt lat="47.590980967506766" lon="18.759473031386733">
        <ele>205.86199999999999</ele>
        <time>2010-02-07T02:07:22Z</time>
      </trkpt>
      <trkpt lat="47.590965963900089" lon="18.759431960061193">
        <ele>206.17099999999999</ele>
        <time>2010-02-07T02:07:24Z</time>
      </trkpt>
      <trkpt lat="47.590951966121793" lon="18.759388960897923">
        <ele>206.85599999999999</ele>
        <time>2010-02-07T02:07:26Z</time>
      </trkpt>
      <trkpt lat="47.590936040505767" lon="18.759329030290246">
        <ele>206.44900000000001</ele>
        <time>2010-02-07T02:07:29Z</time>
      </trkpt>
      <trkpt lat="47.59092497639358" lon="18.759284019470215">
        <ele>206.40000000000001</ele>
        <time>2010-02-07T02:07:31Z</time>
      </trkpt>
      <trkpt lat="47.590910978615284" lon="18.759240014478564">
        <ele>206.636</ele>
        <time>2010-02-07T02:07:33Z</time>
      </trkpt>
      <trkpt lat="47.590896980836987" lon="18.759198021143675">
        <ele>206.77699999999999</ele>
        <time>2010-02-07T02:07:35Z</time>
      </trkpt>
      <trkpt lat="47.59087803773582" lon="18.759137000888586">
        <ele>206.47999999999999</ele>
        <time>2010-02-07T02:07:38Z</time>
      </trkpt>
      <trkpt lat="47.590863034129143" lon="18.759096013382077">
        <ele>207.637</ele>
        <time>2010-02-07T02:07:40Z</time>
      </trkpt>
      <trkpt lat="47.590849036350846" lon="18.759055025875568">
        <ele>206.74100000000001</ele>
        <time>2010-02-07T02:07:42Z</time>
      </trkpt>
      <trkpt lat="47.590835960581899" lon="18.759011020883918">
        <ele>206.804</ele>
        <time>2010-02-07T02:07:44Z</time>
      </trkpt>
      <trkpt lat="47.590821040794253" lon="18.758968021720648">
        <ele>206.124</ele>
        <time>2010-02-07T02:07:46Z</time>
      </trkpt>
      <trkpt lat="47.590807965025306" lon="18.758923010900617">
        <ele>207.47499999999999</ele>
        <time>2010-02-07T02:07:48Z</time>
      </trkpt>
      <trkpt lat="47.590792961418629" lon="18.758880011737347">
        <ele>207.02000000000001</ele>
        <time>2010-02-07T02:07:50Z</time>
      </trkpt>
      <trkpt lat="47.590778963640332" lon="18.758838018402457">
        <ele>206.714</ele>
        <time>2010-02-07T02:07:52Z</time>
      </trkpt>
      <trkpt lat="47.590764965862036" lon="18.758793007582426">
        <ele>207.05000000000001</ele>
        <time>2010-02-07T02:07:54Z</time>
      </trkpt>
      <trkpt lat="47.5907529797405" lon="18.758750008419156">
        <ele>207.24600000000001</ele>
        <time>2010-02-07T02:07:56Z</time>
      </trkpt>
      <trkpt lat="47.590737976133823" lon="18.758708015084267">
        <ele>207.297</ele>
        <time>2010-02-07T02:07:58Z</time>
      </trkpt>
      <trkpt lat="47.590717021375895" lon="18.758670967072248">
        <ele>207.17699999999999</ele>
        <time>2010-02-07T02:08:00Z</time>
      </trkpt>
      <trkpt lat="47.590701011940837" lon="18.758631991222501">
        <ele>208.15700000000001</ele>
        <time>2010-02-07T02:08:02Z</time>
      </trkpt>
      <trkpt lat="47.590680979192257" lon="18.758571976795793">
        <ele>208.029</ele>
        <time>2010-02-07T02:08:05Z</time>
      </trkpt>
      <trkpt lat="47.590662958100438" lon="18.758514979854226">
        <ele>208.315</ele>
        <time>2010-02-07T02:08:08Z</time>
      </trkpt>
      <trkpt lat="47.590638985857368" lon="18.758430993184447">
        <ele>208.25299999999999</ele>
        <time>2010-02-07T02:08:12Z</time>
      </trkpt>
      <trkpt lat="47.590616019442677" lon="18.758367039263248">
        <ele>208.18600000000001</ele>
        <time>2010-02-07T02:08:15Z</time>
      </trkpt>
      <trkpt lat="47.590601015836" lon="18.758323034271598">
        <ele>208.44300000000001</ele>
        <time>2010-02-07T02:08:17Z</time>
      </trkpt>
      <trkpt lat="47.590581988915801" lon="18.758260002359748">
        <ele>208.536</ele>
        <time>2010-02-07T02:08:20Z</time>
      </trkpt>
      <trkpt lat="47.590566985309124" lon="18.758218009024858">
        <ele>208.65600000000001</ele>
        <time>2010-02-07T02:08:22Z</time>
      </trkpt>
      <trkpt lat="47.590545024722815" lon="18.758153971284628">
        <ele>208.47</ele>
        <time>2010-02-07T02:08:25Z</time>
      </trkpt>
      <trkpt lat="47.590530021116138" lon="18.758109966292977">
        <ele>208.852</ele>
        <time>2010-02-07T02:08:27Z</time>
      </trkpt>
      <trkpt lat="47.59051501750946" lon="18.758065039291978">
        <ele>207.74299999999999</ele>
        <time>2010-02-07T02:08:29Z</time>
      </trkpt>
      <trkpt lat="47.590500013902783" lon="18.758018016815186">
        <ele>207.958</ele>
        <time>2010-02-07T02:08:31Z</time>
      </trkpt>
      <trkpt lat="47.590485010296106" lon="18.757976023480296">
        <ele>208.36000000000001</ele>
        <time>2010-02-07T02:08:33Z</time>
      </trkpt>
      <trkpt lat="47.590470006689429" lon="18.757930006831884">
        <ele>207.50399999999999</ele>
        <time>2010-02-07T02:08:35Z</time>
      </trkpt>
      <trkpt lat="47.590457014739513" lon="18.757887007668614">
        <ele>208.24700000000001</ele>
        <time>2010-02-07T02:08:37Z</time>
      </trkpt>
      <trkpt lat="47.590443016961217" lon="18.757845014333725">
        <ele>207.84999999999999</ele>
        <time>2010-02-07T02:08:39Z</time>
      </trkpt>
      <trkpt lat="47.590420972555876" lon="18.757787011563778">
        <ele>207.53800000000001</ele>
        <time>2010-02-07T02:08:42Z</time>
      </trkpt>
      <trkpt lat="47.590402029454708" lon="18.757743006572127">
        <ele>207.65899999999999</ele>
        <time>2010-02-07T02:08:44Z</time>
      </trkpt>
      <trkpt lat="47.590384008362889" lon="18.757701013237238">
        <ele>207.29400000000001</ele>
        <time>2010-02-07T02:08:46Z</time>
      </trkpt>
      <trkpt lat="47.590361963957548" lon="18.757643010467291">
        <ele>207.60300000000001</ele>
        <time>2010-02-07T02:08:49Z</time>
      </trkpt>
      <trkpt lat="47.590332962572575" lon="18.757585007697344">
        <ele>207.33199999999999</ele>
        <time>2010-02-07T02:08:52Z</time>
      </trkpt>
      <trkpt lat="47.590304967015982" lon="18.757524993270636">
        <ele>207.05000000000001</ele>
        <time>2010-02-07T02:08:55Z</time>
      </trkpt>
      <trkpt lat="47.590276971459389" lon="18.757459027692676">
        <ele>206.84800000000001</ele>
        <time>2010-02-07T02:08:58Z</time>
      </trkpt>
      <trkpt lat="47.590260962024331" lon="18.757416028529406">
        <ele>206.06200000000001</ele>
        <time>2010-02-07T02:09:00Z</time>
      </trkpt>
      <trkpt lat="47.590243024751544" lon="18.757364982739091">
        <ele>206.114</ele>
        <time>2010-02-07T02:09:02Z</time>
      </trkpt>
      <trkpt lat="47.590222992002964" lon="18.757314020767808">
        <ele>205.11099999999999</ele>
        <time>2010-02-07T02:09:04Z</time>
      </trkpt>
      <trkpt lat="47.590204970911145" lon="18.757257023826241">
        <ele>205.29300000000001</ele>
        <time>2010-02-07T02:09:06Z</time>
      </trkpt>
      <trkpt lat="47.590188039466739" lon="18.75721100717783">
        <ele>205.79499999999999</ele>
        <time>2010-02-07T02:09:08Z</time>
      </trkpt>
      <trkpt lat="47.590172030031681" lon="18.757167002186179">
        <ele>204.83199999999999</ele>
        <time>2010-02-07T02:09:10Z</time>
      </trkpt>
      <trkpt lat="47.590151997283101" lon="18.75710497610271">
        <ele>205.465</ele>
        <time>2010-02-07T02:09:13Z</time>
      </trkpt>
      <trkpt lat="47.590136993676424" lon="18.757054014131427">
        <ele>204.61799999999999</ele>
        <time>2010-02-07T02:09:15Z</time>
      </trkpt>
      <trkpt lat="47.590118972584605" lon="18.757012020796537">
        <ele>205.02500000000001</ele>
        <time>2010-02-07T02:09:17Z</time>
      </trkpt>
      <trkpt lat="47.590097011998296" lon="18.756952006369829">
        <ele>204.07400000000001</ele>
        <time>2010-02-07T02:09:20Z</time>
      </trkpt>
      <trkpt lat="47.590081002563238" lon="18.756908001378179">
        <ele>204.43299999999999</ele>
        <time>2010-02-07T02:09:22Z</time>
      </trkpt>
      <trkpt lat="47.590062981471419" lon="18.756870031356812">
        <ele>203.149</ele>
        <time>2010-02-07T02:09:24Z</time>
      </trkpt>
      <trkpt lat="47.590046972036362" lon="18.756828038021922">
        <ele>203.53999999999999</ele>
        <time>2010-02-07T02:09:26Z</time>
      </trkpt>
      <trkpt lat="47.590032974258065" lon="18.756786966696382">
        <ele>203.321</ele>
        <time>2010-02-07T02:09:28Z</time>
      </trkpt>
      <trkpt lat="47.590013025328517" lon="18.756723012775183">
        <ele>203.33600000000001</ele>
        <time>2010-02-07T02:09:31Z</time>
      </trkpt>
      <trkpt lat="47.589987963438034" lon="18.756662998348475">
        <ele>202.12799999999999</ele>
        <time>2010-02-07T02:09:34Z</time>
      </trkpt>
      <trkpt lat="47.589964997023344" lon="18.756599966436625">
        <ele>201.779</ele>
        <time>2010-02-07T02:09:37Z</time>
      </trkpt>
      <trkpt lat="47.589948987588286" lon="18.756554033607244">
        <ele>201.59899999999999</ele>
        <time>2010-02-07T02:09:39Z</time>
      </trkpt>
      <trkpt lat="47.589932978153229" lon="18.756507011130452">
        <ele>201.72</ele>
        <time>2010-02-07T02:09:41Z</time>
      </trkpt>
      <trkpt lat="47.589910011738539" lon="18.756439033895731">
        <ele>201.30099999999999</ele>
        <time>2010-02-07T02:09:44Z</time>
      </trkpt>
      <trkpt lat="47.589895008131862" lon="18.7563940230757">
        <ele>200.93299999999999</ele>
        <time>2010-02-07T02:09:46Z</time>
      </trkpt>
      <trkpt lat="47.589878998696804" lon="18.75635202974081">
        <ele>201.24199999999999</ele>
        <time>2010-02-07T02:09:48Z</time>
      </trkpt>
      <trkpt lat="47.589860977604985" lon="18.75631196424365">
        <ele>201.501</ele>
        <time>2010-02-07T02:09:50Z</time>
      </trkpt>
      <trkpt lat="47.589842034503818" lon="18.75626896508038">
        <ele>201.08000000000001</ele>
        <time>2010-02-07T02:09:52Z</time>
      </trkpt>
      <trkpt lat="47.589824013411999" lon="18.75622596591711">
        <ele>200.798</ele>
        <time>2010-02-07T02:09:54Z</time>
      </trkpt>
      <trkpt lat="47.589810015633702" lon="18.756177015602589">
        <ele>200.733</ele>
        <time>2010-02-07T02:09:56Z</time>
      </trkpt>
      <trkpt lat="47.589808003976941" lon="18.756124963983893">
        <ele>200.756</ele>
        <time>2010-02-07T02:09:58Z</time>
      </trkpt>
      <trkpt lat="47.589814038947225" lon="18.756071990355849">
        <ele>200.26499999999999</ele>
        <time>2010-02-07T02:10:00Z</time>
      </trkpt>
      <trkpt lat="47.589828036725521" lon="18.756024967879057">
        <ele>201.03399999999999</ele>
        <time>2010-02-07T02:10:02Z</time>
      </trkpt>
      <trkpt lat="47.589843040332198" lon="18.755983980372548">
        <ele>199.88200000000001</ele>
        <time>2010-02-07T02:10:04Z</time>
      </trkpt>
      <trkpt lat="47.589855026453733" lon="18.755938969552517">
        <ele>199.679</ele>
        <time>2010-02-07T02:10:06Z</time>
      </trkpt>
      <trkpt lat="47.589872041717172" lon="18.755896976217628">
        <ele>199.37799999999999</ele>
        <time>2010-02-07T02:10:08Z</time>
      </trkpt>
      <trkpt lat="47.58989199064672" lon="18.75585800036788">
        <ele>198.66200000000001</ele>
        <time>2010-02-07T02:10:10Z</time>
      </trkpt>
      <trkpt lat="47.589915962889791" lon="18.755821958184242">
        <ele>199.21600000000001</ele>
        <time>2010-02-07T02:10:12Z</time>
      </trkpt>
      <trkpt lat="47.589940018951893" lon="18.755783988162875">
        <ele>198.64500000000001</ele>
        <time>2010-02-07T02:10:14Z</time>
      </trkpt>
      <trkpt lat="47.589962985366583" lon="18.75574903562665">
        <ele>198.89699999999999</ele>
        <time>2010-02-07T02:10:16Z</time>
      </trkpt>
      <trkpt lat="47.589987963438034" lon="18.75570997595787">
        <ele>198.125</ele>
        <time>2010-02-07T02:10:18Z</time>
      </trkpt>
      <trkpt lat="47.590013025328517" lon="18.755676029250026">
        <ele>197.71100000000001</ele>
        <time>2010-02-07T02:10:20Z</time>
      </trkpt>
      <trkpt lat="47.590038003399968" lon="18.75564300455153">
        <ele>197.964</ele>
        <time>2010-02-07T02:10:22Z</time>
      </trkpt>
      <trkpt lat="47.590060969814658" lon="18.755604028701782">
        <ele>197.86799999999999</ele>
        <time>2010-02-07T02:10:24Z</time>
      </trkpt>
      <trkpt lat="47.59008402004838" lon="18.755571004003286">
        <ele>197.21600000000001</ele>
        <time>2010-02-07T02:10:26Z</time>
      </trkpt>
      <trkpt lat="47.590107992291451" lon="18.755540996789932">
        <ele>197.446</ele>
        <time>2010-02-07T02:10:28Z</time>
      </trkpt>
      <trkpt lat="47.590132970362902" lon="18.755508977919817">
        <ele>197.31100000000001</ele>
        <time>2010-02-07T02:10:30Z</time>
      </trkpt>
      <trkpt lat="47.590157026425004" lon="18.755481988191605">
        <ele>197.42500000000001</ele>
        <time>2010-02-07T02:10:32Z</time>
      </trkpt>
      <trkpt lat="47.590182004496455" lon="18.755459021776915">
        <ele>197.21299999999999</ele>
        <time>2010-02-07T02:10:34Z</time>
      </trkpt>
      <trkpt lat="47.590218968689442" lon="18.755419040098786">
        <ele>197.72999999999999</ele>
        <time>2010-02-07T02:10:37Z</time>
      </trkpt>
      <trkpt lat="47.590245036408305" lon="18.755392972379923">
        <ele>197.798</ele>
        <time>2010-02-07T02:10:39Z</time>
      </trkpt>
      <trkpt lat="47.590269008651376" lon="18.755365982651711">
        <ele>197.73099999999999</ele>
        <time>2010-02-07T02:10:41Z</time>
      </trkpt>
      <trkpt lat="47.590301027521491" lon="18.755326000973582">
        <ele>197.446</ele>
        <time>2010-02-07T02:10:44Z</time>
      </trkpt>
      <trkpt lat="47.590338997542858" lon="18.755287025123835">
        <ele>198.04300000000001</ele>
        <time>2010-02-07T02:10:47Z</time>
      </trkpt>
      <trkpt lat="47.590363975614309" lon="18.755261041224003">
        <ele>197.399</ele>
        <time>2010-02-07T02:10:49Z</time>
      </trkpt>
      <trkpt lat="47.590389037504792" lon="18.755232961848378">
        <ele>197.93100000000001</ele>
        <time>2010-02-07T02:10:51Z</time>
      </trkpt>
      <trkpt lat="47.590415021404624" lon="18.755207983776927">
        <ele>198.37100000000001</ele>
        <time>2010-02-07T02:10:53Z</time>
      </trkpt>
      <trkpt lat="47.590441005304456" lon="18.755180994048715">
        <ele>198.43000000000001</ele>
        <time>2010-02-07T02:10:55Z</time>
      </trkpt>
      <trkpt lat="47.590465983375907" lon="18.755150986835361">
        <ele>198.07400000000001</ele>
        <time>2010-02-07T02:10:57Z</time>
      </trkpt>
      <trkpt lat="47.590491967275739" lon="18.755125002935529">
        <ele>197.99600000000001</ele>
        <time>2010-02-07T02:10:59Z</time>
      </trkpt>
      <trkpt lat="47.590519040822983" lon="18.755098013207316">
        <ele>198.77500000000001</ele>
        <time>2010-02-07T02:11:01Z</time>
      </trkpt>
      <trkpt lat="47.590542007237673" lon="18.755069011822343">
        <ele>198.821</ele>
        <time>2010-02-07T02:11:03Z</time>
      </trkpt>
      <trkpt lat="47.590576037764549" lon="18.755030035972595">
        <ele>199.874</ele>
        <time>2010-02-07T02:11:06Z</time>
      </trkpt>
      <trkpt lat="47.590599004179239" lon="18.755003968253732">
        <ele>199.221</ele>
        <time>2010-02-07T02:11:08Z</time>
      </trkpt>
      <trkpt lat="47.590624988079071" lon="18.754974966868758">
        <ele>199.42699999999999</ele>
        <time>2010-02-07T02:11:10Z</time>
      </trkpt>
      <trkpt lat="47.590651977807283" lon="18.754948982968926">
        <ele>199.08699999999999</ele>
        <time>2010-02-07T02:11:12Z</time>
      </trkpt>
      <trkpt lat="47.590677961707115" lon="18.754924004897475">
        <ele>199.114</ele>
        <time>2010-02-07T02:11:14Z</time>
      </trkpt>
      <trkpt lat="47.590703023597598" lon="18.754898020997643">
        <ele>199.95099999999999</ele>
        <time>2010-02-07T02:11:16Z</time>
      </trkpt>
      <trkpt lat="47.590728001669049" lon="18.754873964935541">
        <ele>199.89400000000001</ele>
        <time>2010-02-07T02:11:18Z</time>
      </trkpt>
      <trkpt lat="47.590754991397262" lon="18.754849992692471">
        <ele>200.04900000000001</ele>
        <time>2010-02-07T02:11:20Z</time>
      </trkpt>
      <trkpt lat="47.590777035802603" lon="18.754819985479116">
        <ele>200.18899999999999</ele>
        <time>2010-02-07T02:11:22Z</time>
      </trkpt>
      <trkpt lat="47.590797990560532" lon="18.754785032942891">
        <ele>200.44200000000001</ele>
        <time>2010-02-07T02:11:24Z</time>
      </trkpt>
      <trkpt lat="47.590822968631983" lon="18.754724012687802">
        <ele>199.846</ele>
        <time>2010-02-07T02:11:27Z</time>
      </trkpt>
      <trkpt lat="47.590851970016956" lon="18.754668021574616">
        <ele>200.602</ele>
        <time>2010-02-07T02:11:30Z</time>
      </trkpt>
      <trkpt lat="47.590877031907439" lon="18.754615969955921">
        <ele>200.548</ele>
        <time>2010-02-07T02:11:33Z</time>
      </trkpt>
      <trkpt lat="47.590893041342497" lon="18.754577999934554">
        <ele>200.36600000000001</ele>
        <time>2010-02-07T02:11:35Z</time>
      </trkpt>
      <trkpt lat="47.590918019413948" lon="18.754521002992988">
        <ele>200.31800000000001</ele>
        <time>2010-02-07T02:11:38Z</time>
      </trkpt>
      <trkpt lat="47.590931011363864" lon="18.75448202714324">
        <ele>200.49100000000001</ele>
        <time>2010-02-07T02:11:40Z</time>
      </trkpt>
      <trkpt lat="47.590947020798922" lon="18.754441039636731">
        <ele>200.499</ele>
        <time>2010-02-07T02:11:42Z</time>
      </trkpt>
      <trkpt lat="47.590959006920457" lon="18.754397034645081">
        <ele>201.178</ele>
        <time>2010-02-07T02:11:44Z</time>
      </trkpt>
      <trkpt lat="47.59096797555685" lon="18.754354035481811">
        <ele>201.50299999999999</ele>
        <time>2010-02-07T02:11:46Z</time>
      </trkpt>
      <trkpt lat="47.590982979163527" lon="18.754314975813031">
        <ele>201.29300000000001</ele>
        <time>2010-02-07T02:11:48Z</time>
      </trkpt>
      <trkpt lat="47.590995971113443" lon="18.754275999963284">
        <ele>201.256</ele>
        <time>2010-02-07T02:11:50Z</time>
      </trkpt>
      <trkpt lat="47.591002006083727" lon="18.754227971658111">
        <ele>201.34</ele>
        <time>2010-02-07T02:11:52Z</time>
      </trkpt>
      <trkpt lat="47.591017009690404" lon="18.754163011908531">
        <ele>201.45099999999999</ele>
        <time>2010-02-07T02:11:55Z</time>
      </trkpt>
      <trkpt lat="47.591025978326797" lon="18.754121018573642">
        <ele>202.53399999999999</ele>
        <time>2010-02-07T02:11:57Z</time>
      </trkpt>
      <trkpt lat="47.591036036610603" lon="18.754079025238752">
        <ele>201.58099999999999</ele>
        <time>2010-02-07T02:11:59Z</time>
      </trkpt>
      <trkpt lat="47.591051962226629" lon="18.754018004983664">
        <ele>201.88999999999999</ele>
        <time>2010-02-07T02:12:02Z</time>
      </trkpt>
      <trkpt lat="47.591065037995577" lon="18.753978023305535">
        <ele>202.02099999999999</ele>
        <time>2010-02-07T02:12:04Z</time>
      </trkpt>
      <trkpt lat="47.591077024117112" lon="18.753936029970646">
        <ele>202.07499999999999</ele>
        <time>2010-02-07T02:12:06Z</time>
      </trkpt>
      <trkpt lat="47.591094961389899" lon="18.753877021372318">
        <ele>202.477</ele>
        <time>2010-02-07T02:12:09Z</time>
      </trkpt>
      <trkpt lat="47.591108959168196" lon="18.753838967531919">
        <ele>202.32900000000001</ele>
        <time>2010-02-07T02:12:11Z</time>
      </trkpt>
      <trkpt lat="47.591123962774873" lon="18.753802003338933">
        <ele>202.52000000000001</ele>
        <time>2010-02-07T02:12:13Z</time>
      </trkpt>
      <trkpt lat="47.59113703854382" lon="18.753759004175663">
        <ele>202.32400000000001</ele>
        <time>2010-02-07T02:12:15Z</time>
      </trkpt>
      <trkpt lat="47.59116000495851" lon="18.753704018890858">
        <ele>202.37700000000001</ele>
        <time>2010-02-07T02:12:18Z</time>
      </trkpt>
      <trkpt lat="47.591175008565187" lon="18.753663031384349">
        <ele>202.25899999999999</ele>
        <time>2010-02-07T02:12:20Z</time>
      </trkpt>
      <trkpt lat="47.591191018000245" lon="18.753606034442782">
        <ele>201.83600000000001</ele>
        <time>2010-02-07T02:12:23Z</time>
      </trkpt>
      <trkpt lat="47.591207027435303" lon="18.753543002530932">
        <ele>202.304</ele>
        <time>2010-02-07T02:12:26Z</time>
      </trkpt>
      <trkpt lat="47.591219013556838" lon="18.753500003367662">
        <ele>202.18700000000001</ele>
        <time>2010-02-07T02:12:28Z</time>
      </trkpt>
      <trkpt lat="47.591226976364851" lon="18.75345298089087">
        <ele>202.065</ele>
        <time>2010-02-07T02:12:30Z</time>
      </trkpt>
      <trkpt lat="47.591237034648657" lon="18.753386009484529">
        <ele>201.78100000000001</ele>
        <time>2010-02-07T02:12:33Z</time>
      </trkpt>
      <trkpt lat="47.591240974143147" lon="18.75334401614964">
        <ele>201.75200000000001</ele>
        <time>2010-02-07T02:12:35Z</time>
      </trkpt>
      <trkpt lat="47.591241979971528" lon="18.753299005329609">
        <ele>201.334</ele>
        <time>2010-02-07T02:12:37Z</time>
      </trkpt>
      <trkpt lat="47.591464770957828" lon="18.752945372834802"/>
      <trkpt lat="47.591644395142794" lon="18.752654772251844"/>
      <trkpt lat="47.591770207509398" lon="18.752311198040843"/>
      <trkpt lat="47.592003727331758" lon="18.751756316050887"/>
      <trkpt lat="47.592129455879331" lon="18.751544924452901"/>
      <trkpt lat="47.592273205518723" lon="18.751227837055922"/>
      <trkpt lat="47.59245291352272" lon="18.750884346663952"/>
      <trkpt lat="47.592578642070293" lon="18.750593746080995"/>
      <trkpt lat="47.592704454436898" lon="18.750197365880013"/>
      <trkpt lat="47.592902015894651" lon="18.74977458268404"/>
      <trkpt lat="47.593081723898649" lon="18.749351799488068"/>
      <trkpt lat="47.593279369175434" lon="18.749166810885072"/>
      <trkpt lat="47.59338716045022" lon="18.748744027689099"/>
      <trkpt lat="47.593620680272579" lon="18.748374134302139"/>
      <trkpt lat="47.593800388276577" lon="18.748004240915179"/>
      <trkpt lat="47.593962075188756" lon="18.7476871535182"/>
      <trkpt lat="47.594213616102934" lon="18.747264370322227"/>
      <trkpt lat="47.59446507319808" lon="18.747026575729251"/>
      <trkpt lat="47.594716614112258" lon="18.746550902724266"/>
      <trkpt lat="47.595075946301222" lon="18.74599602073431"/>
      <trkpt lat="47.595309549942613" lon="18.745573237538338"/>
      <trkpt lat="47.595561090856791" lon="18.74528263695538"/>
      <trkpt lat="47.59586644358933" lon="18.745044758543372"/>
      <trkpt lat="47.596153942868114" lon="18.744542766362429"/>
      <trkpt lat="47.596531212329865" lon="18.744199275970459"/>
      <trkpt lat="47.596818711608648" lon="18.743802895769477"/>
      <trkpt lat="47.5971061270684" lon="18.743406515568495"/>
      <trkpt lat="47.597393626347184" lon="18.743221526965499"/>
      <trkpt lat="47.597645167261362" lon="18.742878036573529"/>
      <trkpt lat="47.597950603812933" lon="18.742587435990572"/>
      <trkpt lat="47.598273977637291" lon="18.742270348593593"/>
      <trkpt lat="47.598525518551469" lon="18.742058956995606"/>
      <trkpt lat="47.598759038373828" lon="18.741715466603637"/>
      <trkpt lat="47.598759038373828" lon="18.741688979789615"/>
      <trkpt lat="47.598777059465647" lon="18.741398379206657"/>
      <trkpt lat="47.598777059465647" lon="18.741371892392635"/>
      <trkpt lat="47.598633309826255" lon="18.740975596010685"/>
      <trkpt lat="47.598633309826255" lon="18.740949109196663"/>
      <trkpt lat="47.598471622914076" lon="18.740711314603686"/>
      <trkpt lat="47.59836383163929" lon="18.740341421216726"/>
      <trkpt lat="47.598202144727111" lon="18.739892235025764"/>
      <trkpt lat="47.598184123635292" lon="18.739892235025764"/>
      <trkpt lat="47.598130227997899" lon="18.739627953618765"/>
      <trkpt lat="47.5980403739959" lon="18.739258060231805"/>
      <trkpt lat="47.597860749810934" lon="18.738993778824806"/>
      <trkpt lat="47.597860749810934" lon="18.738967375829816"/>
      <trkpt lat="47.597806854173541" lon="18.738650288432837"/>
      <trkpt lat="47.597806854173541" lon="18.738623885437846"/>
      <trkpt lat="47.597591271623969" lon="18.738306798040867"/>
      <trkpt lat="47.59750141762197" lon="18.7380426004529"/>
      <trkpt lat="47.597465459257364" lon="18.7380426004529"/>
      <trkpt lat="47.597303772345185" lon="18.737699026241899"/>
      <trkpt lat="47.59703429415822" lon="18.73703844845295"/>
      <trkpt lat="47.596836648881435" lon="18.73635146766901"/>
      <trkpt lat="47.596710920333862" lon="18.736034380272031"/>
      <trkpt lat="47.596621066331863" lon="18.735505901277065"/>
      <trkpt lat="47.596441442146897" lon="18.735188813880086"/>
      <trkpt lat="47.596441442146897" lon="18.735162410885096"/>
      <trkpt lat="47.596297692507505" lon="18.734739627689123"/>
      <trkpt lat="47.595902401953936" lon="18.734184494242072"/>
      <trkpt lat="47.595561090856791" lon="18.734210981056094"/>
      <trkpt lat="47.595363445580006" lon="18.734343079850078"/>
      <trkpt lat="47.5953274872154" lon="18.734369482845068"/>
      <trkpt lat="47.594986176118255" lon="18.734660167247057"/>
      <trkpt lat="47.594968155026436" lon="18.734660167247057"/>
      <trkpt lat="47.594824405387044" lon="18.734818669036031"/>
      <trkpt lat="47.594806468114257" lon="18.734818669036031"/>
      <trkpt lat="47.594518968835473" lon="18.735003657639027"/>
      <trkpt lat="47.594501031562686" lon="18.735003657639027"/>
      <trkpt lat="47.59432140737772" lon="18.73513575643301"/>
      <trkpt lat="47.59432140737772" lon="18.73476586304605"/>
      <trkpt lat="47.594447135925293" lon="18.73442237265408"/>
      <trkpt lat="47.594752572476864" lon="18.734105285257101"/>
      <trkpt lat="47.594914259389043" lon="18.733682502061129"/>
      <trkpt lat="47.595022050663829" lon="18.733444707468152"/>
      <trkpt lat="47.595093967393041" lon="18.732863338664174"/>
      <trkpt lat="47.595093967393041" lon="18.732599141076207"/>
      <trkpt lat="47.595075946301222" lon="18.732572738081217"/>
      <trkpt lat="47.594842426478863" lon="18.732255650684237"/>
      <trkpt lat="47.594842426478863" lon="18.732202760875225"/>
      <trkpt lat="47.594716614112258" lon="18.731753574684262"/>
      <trkpt lat="47.594680739566684" lon="18.731753574684262"/>
      <trkpt lat="47.594536989927292" lon="18.731436487287283"/>
      <trkpt lat="47.594357281923294" lon="18.731013704091311"/>
      <trkpt lat="47.5943932402879" lon="18.730775909498334"/>
      <trkpt lat="47.594662718474865" lon="18.730564517900348"/>
      <trkpt lat="47.594968155026436" lon="18.730273833498359"/>
      <trkpt lat="47.595237633213401" lon="18.729956746101379"/>
      <trkpt lat="47.595273591578007" lon="18.729903940111399"/>
      <trkpt lat="47.595579028129578" lon="18.729560449719429"/>
      <trkpt lat="47.595758652314544" lon="18.729375461116433"/>
      <trkpt lat="47.595776673406363" lon="18.729375461116433"/>
      <trkpt lat="47.595830569043756" lon="18.728873385116458"/>
      <trkpt lat="47.59586644358933" lon="18.728186404332519"/>
      <trkpt lat="47.595848506316543" lon="18.728186404332519"/>
      <trkpt lat="47.595758652314544" lon="18.72757863253355"/>
      <trkpt lat="47.595614986494184" lon="18.727261545136571"/>
      <trkpt lat="47.595471236854792" lon="18.726918054744601"/>
      <trkpt lat="47.595363445580006" lon="18.726521758362651"/>
      <trkpt lat="47.595111904665828" lon="18.726363172754645"/>
      <trkpt lat="47.595093967393041" lon="18.726363172754645"/>
      <trkpt lat="47.59478853084147" lon="18.726363172754645"/>
      <trkpt lat="47.594770509749651" lon="18.726363172754645"/>
      <trkpt lat="47.594572948291898" lon="18.726416062563658"/>
      <trkpt lat="47.594177657738328" lon="18.726204670965672"/>
      <trkpt lat="47.594159720465541" lon="18.726231073960662"/>
      <trkpt lat="47.593818325549364" lon="18.726046085357666"/>
      <trkpt lat="47.593818325549364" lon="18.726072572171688"/>
      <trkpt lat="47.593566784635186" lon="18.725966876372695"/>
      <trkpt lat="47.593297306448221" lon="18.725808290764689"/>
      <trkpt lat="47.59299186989665" lon="18.725755484774709"/>
      <trkpt lat="47.592973932623863" lon="18.725755484774709"/>
      <trkpt lat="47.592758350074291" lon="18.725570496171713"/>
      <trkpt lat="47.592740328982472" lon="18.725570496171713"/>
      <trkpt lat="47.592488788068295" lon="18.725253408774734"/>
      <trkpt lat="47.592470850795507" lon="18.725253408774734"/>
      <trkpt lat="47.592201372608542" lon="18.725094823166728"/>
      <trkpt lat="47.591949831694365" lon="18.724830625578761"/>
      <trkpt lat="47.591913873329759" lon="18.724830625578761"/>
      <trkpt lat="47.591662332415581" lon="18.724698526784778"/>
      <trkpt lat="47.591321021318436" lon="18.724592830985785"/>
      <trkpt lat="47.590997647494078" lon="18.724275743588805"/>
      <trkpt lat="47.590781981125474" lon="18.723932253196836"/>
      <trkpt lat="47.590620294213295" lon="18.723483067005873"/>
      <trkpt lat="47.590602356940508" lon="18.723483067005873"/>
      <trkpt lat="47.590404711663723" lon="18.723192382603884"/>
      <trkpt lat="47.590386774390936" lon="18.723192382603884"/>
      <trkpt lat="47.590225087478757" lon="18.722558040171862"/>
      <trkpt lat="47.590153170749545" lon="18.722003158181906"/>
      <trkpt lat="47.590027442201972" lon="18.72144827619195"/>
      <trkpt lat="47.589901629835367" lon="18.721025492995977"/>
      <trkpt lat="47.589876651763916" lon="18.72073388658464">
        <ele>310.64306640625</ele>
        <time>2012-01-31T15:06:51Z</time>
      </trkpt>
      <trkpt lat="47.589912945404649" lon="18.72072022408247">
        <ele>310.1624755859375</ele>
        <time>2012-01-31T15:06:48Z</time>
      </trkpt>
      <trkpt lat="47.589944042265415" lon="18.720704466104507">
        <ele>309.681884765625</ele>
        <time>2012-01-31T15:06:45Z</time>
      </trkpt>
      <trkpt lat="47.589982934296131" lon="18.720690468326211">
        <ele>309.681884765625</ele>
        <time>2012-01-31T15:06:42Z</time>
      </trkpt>
      <trkpt lat="47.590023167431355" lon="18.720677476376295">
        <ele>308.720458984375</ele>
        <time>2012-01-31T15:06:39Z</time>
      </trkpt>
      <trkpt lat="47.590063652023673" lon="18.720664568245411">
        <ele>309.201171875</ele>
        <time>2012-01-31T15:06:36Z</time>
      </trkpt>
      <trkpt lat="47.590093826875091" lon="18.720657862722874">
        <ele>308.2398681640625</ele>
        <time>2012-01-31T15:06:34Z</time>
      </trkpt>
      <trkpt lat="47.590123666450381" lon="18.720649480819702">
        <ele>308.2398681640625</ele>
        <time>2012-01-31T15:06:32Z</time>
      </trkpt>
      <trkpt lat="47.590167671442032" lon="18.720635147765279">
        <ele>307.75927734375</ele>
        <time>2012-01-31T15:06:29Z</time>
      </trkpt>
      <trkpt lat="47.590198433026671" lon="18.720621317625046">
        <ele>307.75927734375</ele>
        <time>2012-01-31T15:06:27Z</time>
      </trkpt>
      <trkpt lat="47.590227434411645" lon="18.720608241856098">
        <ele>307.278564453125</ele>
        <time>2012-01-31T15:06:25Z</time>
      </trkpt>
      <trkpt lat="47.590256771072745" lon="18.72059709392488">
        <ele>306.7978515625</ele>
        <time>2012-01-31T15:06:23Z</time>
      </trkpt>
      <trkpt lat="47.59029415436089" lon="18.720581671223044">
        <ele>307.75927734375</ele>
        <time>2012-01-31T15:06:20Z</time>
      </trkpt>
      <trkpt lat="47.590321227908134" lon="18.720560045912862">
        <ele>306.7978515625</ele>
        <time>2012-01-31T15:06:16Z</time>
      </trkpt>
      <trkpt lat="47.590363137423992" lon="18.720541018992662">
        <ele>306.7978515625</ele>
        <time>2012-01-31T15:06:13Z</time>
      </trkpt>
      <trkpt lat="47.590392474085093" lon="18.720527524128556">
        <ele>306.3172607421875</ele>
        <time>2012-01-31T15:06:11Z</time>
      </trkpt>
      <trkpt lat="47.590421894565225" lon="18.720516627654433">
        <ele>305.35595703125</ele>
        <time>2012-01-31T15:06:09Z</time>
      </trkpt>
      <trkpt lat="47.590462043881416" lon="18.720493158325553">
        <ele>304.3946533203125</ele>
        <time>2012-01-31T15:06:06Z</time>
      </trkpt>
      <trkpt lat="47.590489033609629" lon="18.720473544672132">
        <ele>303.4332275390625</ele>
        <time>2012-01-31T15:06:04Z</time>
      </trkpt>
      <trkpt lat="47.590529434382915" lon="18.72045049443841">
        <ele>302.9525146484375</ele>
        <time>2012-01-31T15:06:01Z</time>
      </trkpt>
      <trkpt lat="47.590570170432329" lon="18.72042459435761">
        <ele>302.471923828125</ele>
        <time>2012-01-31T15:05:58Z</time>
      </trkpt>
      <trkpt lat="47.59059707634151" lon="18.720404980704188">
        <ele>302.471923828125</ele>
        <time>2012-01-31T15:05:56Z</time>
      </trkpt>
      <trkpt lat="47.590624317526817" lon="18.720383355394006">
        <ele>301.9913330078125</ele>
        <time>2012-01-31T15:05:54Z</time>
      </trkpt>
      <trkpt lat="47.590652732178569" lon="18.720360891893506">
        <ele>301.5106201171875</ele>
        <time>2012-01-31T15:05:52Z</time>
      </trkpt>
      <trkpt lat="47.590680560097098" lon="18.720342367887497">
        <ele>301.5106201171875</ele>
        <time>2012-01-31T15:05:50Z</time>
      </trkpt>
      <trkpt lat="47.59070604108274" lon="18.720317641273141">
        <ele>301.0299072265625</ele>
        <time>2012-01-31T15:05:48Z</time>
      </trkpt>
      <trkpt lat="47.590733617544174" lon="18.720295345410705">
        <ele>301.0299072265625</ele>
        <time>2012-01-31T15:05:46Z</time>
      </trkpt>
      <trkpt lat="47.590762199833989" lon="18.720275983214378">
        <ele>301.0299072265625</ele>
        <time>2012-01-31T15:05:44Z</time>
      </trkpt>
      <trkpt lat="47.590792458504438" lon="18.720255950465798">
        <ele>300.54931640625</ele>
        <time>2012-01-31T15:05:42Z</time>
      </trkpt>
      <trkpt lat="47.590821543708444" lon="18.720235330983996">
        <ele>299.5880126953125</ele>
        <time>2012-01-31T15:05:40Z</time>
      </trkpt>
      <trkpt lat="47.590849790722132" lon="18.720217058435082">
        <ele>299.1072998046875</ele>
        <time>2012-01-31T15:05:38Z</time>
      </trkpt>
      <trkpt lat="47.590877953916788" lon="18.720200462266803">
        <ele>299.1072998046875</ele>
        <time>2012-01-31T15:05:36Z</time>
      </trkpt>
      <trkpt lat="47.590907961130142" lon="18.720183530822396">
        <ele>299.1072998046875</ele>
        <time>2012-01-31T15:05:34Z</time>
      </trkpt>
      <trkpt lat="47.590934447944164" lon="18.720161821693182">
        <ele>298.626708984375</ele>
        <time>2012-01-31T15:05:32Z</time>
      </trkpt>
      <trkpt lat="47.59096353314817" lon="18.720137597993016">
        <ele>298.1461181640625</ele>
        <time>2012-01-31T15:05:30Z</time>
      </trkpt>
      <trkpt lat="47.591002760455012" lon="18.720106584951282">
        <ele>297.6654052734375</ele>
        <time>2012-01-31T15:05:27Z</time>
      </trkpt>
      <trkpt lat="47.591027822345495" lon="18.720079343765974">
        <ele>297.1846923828125</ele>
        <time>2012-01-31T15:05:25Z</time>
      </trkpt>
      <trkpt lat="47.591053890064359" lon="18.72004933655262">
        <ele>296.7041015625</ele>
        <time>2012-01-31T15:05:23Z</time>
      </trkpt>
      <trkpt lat="47.591078197583556" lon="18.720020251348615">
        <ele>296.7041015625</ele>
        <time>2012-01-31T15:05:21Z</time>
      </trkpt>
      <trkpt lat="47.591109797358513" lon="18.719977587461472">
        <ele>296.2235107421875</ele>
        <time>2012-01-31T15:05:18Z</time>
      </trkpt>
      <trkpt lat="47.5911277346313" lon="18.719968870282173">
        <ele>296.2235107421875</ele>
        <time>2012-01-31T15:05:07Z</time>
      </trkpt>
      <trkpt lat="47.591110048815608" lon="18.719900054857135">
        <ele>296.7041015625</ele>
        <time>2012-01-31T15:04:31Z</time>
      </trkpt>
      <trkpt lat="47.591128489002585" lon="18.719921931624413">
        <ele>296.2235107421875</ele>
        <time>2012-01-31T15:04:02Z</time>
      </trkpt>
      <trkpt lat="47.591142989695072" lon="18.719909023493528">
        <ele>296.7041015625</ele>
        <time>2012-01-31T15:03:50Z</time>
      </trkpt>
      <trkpt lat="47.591170482337475" lon="18.719871640205383">
        <ele>295.74267578125</ele>
        <time>2012-01-31T15:03:47Z</time>
      </trkpt>
      <trkpt lat="47.591203171759844" lon="18.719824869185686">
        <ele>295.74267578125</ele>
        <time>2012-01-31T15:03:44Z</time>
      </trkpt>
      <trkpt lat="47.591226641088724" lon="18.719789329916239">
        <ele>295.261962890625</ele>
        <time>2012-01-31T15:03:42Z</time>
      </trkpt>
      <trkpt lat="47.591259498149157" lon="18.719740463420749">
        <ele>295.261962890625</ele>
        <time>2012-01-31T15:03:39Z</time>
      </trkpt>
      <trkpt lat="47.591295121237636" lon="18.719692686572671">
        <ele>294.30078125</ele>
        <time>2012-01-31T15:03:36Z</time>
      </trkpt>
      <trkpt lat="47.591321524232626" lon="18.719662260264158">
        <ele>294.30078125</ele>
        <time>2012-01-31T15:03:34Z</time>
      </trkpt>
      <trkpt lat="47.5913539621979" lon="18.719616075977683">
        <ele>294.30078125</ele>
        <time>2012-01-31T15:03:31Z</time>
      </trkpt>
      <trkpt lat="47.591377766802907" lon="18.719579949975014">
        <ele>293.820068359375</ele>
        <time>2012-01-31T15:03:29Z</time>
      </trkpt>
      <trkpt lat="47.591403247788548" lon="18.719547847285867">
        <ele>293.33935546875</ele>
        <time>2012-01-31T15:03:27Z</time>
      </trkpt>
      <trkpt lat="47.591429818421602" lon="18.719513649120927">
        <ele>292.8587646484375</ele>
        <time>2012-01-31T15:03:25Z</time>
      </trkpt>
      <trkpt lat="47.591462340205908" lon="18.719471571967006">
        <ele>293.33935546875</ele>
        <time>2012-01-31T15:03:22Z</time>
      </trkpt>
      <trkpt lat="47.591488491743803" lon="18.719441732391715">
        <ele>293.33935546875</ele>
        <time>2012-01-31T15:03:20Z</time>
      </trkpt>
      <trkpt lat="47.591525791212916" lon="18.719398733228445">
        <ele>292.8587646484375</ele>
        <time>2012-01-31T15:03:17Z</time>
      </trkpt>
      <trkpt lat="47.591552445665002" lon="18.719369228929281">
        <ele>293.33935546875</ele>
        <time>2012-01-31T15:03:15Z</time>
      </trkpt>
      <trkpt lat="47.591578178107738" lon="18.719342071563005">
        <ele>292.8587646484375</ele>
        <time>2012-01-31T15:03:13Z</time>
      </trkpt>
      <trkpt lat="47.59161832742393" lon="18.71930368244648">
        <ele>290.9361572265625</ele>
        <time>2012-01-31T15:03:10Z</time>
      </trkpt>
      <trkpt lat="47.59164615534246" lon="18.719282057136297">
        <ele>290.45556640625</ele>
        <time>2012-01-31T15:03:08Z</time>
      </trkpt>
      <trkpt lat="47.591683538630605" lon="18.719255235046148">
        <ele>290.45556640625</ele>
        <time>2012-01-31T15:03:05Z</time>
      </trkpt>
      <trkpt lat="47.591721173375845" lon="18.719232184812427">
        <ele>289.974853515625</ele>
        <time>2012-01-31T15:03:02Z</time>
      </trkpt>
      <trkpt lat="47.591759227216244" lon="18.7192059494555">
        <ele>289.494140625</ele>
        <time>2012-01-31T15:02:59Z</time>
      </trkpt>
      <trkpt lat="47.591796861961484" lon="18.719166219234467">
        <ele>288.532958984375</ele>
        <time>2012-01-31T15:02:56Z</time>
      </trkpt>
      <trkpt lat="47.591845225542784" lon="18.719127075746655">
        <ele>287.0908203125</ele>
        <time>2012-01-31T15:02:25Z</time>
      </trkpt>
      <trkpt lat="47.591831563040614" lon="18.719171499833465">
        <ele>289.494140625</ele>
        <time>2012-01-31T15:01:52Z</time>
      </trkpt>
      <trkpt lat="47.591861737892032" lon="18.719162698835135">
        <ele>289.494140625</ele>
        <time>2012-01-31T15:01:45Z</time>
      </trkpt>
      <trkpt lat="47.591871460899711" lon="18.719111988320947">
        <ele>289.0135498046875</ele>
        <time>2012-01-31T15:01:40Z</time>
      </trkpt>
      <trkpt lat="47.591859977692366" lon="18.719141073524952">
        <ele>288.05224609375</ele>
        <time>2012-01-31T15:01:31Z</time>
      </trkpt>
      <trkpt lat="47.591880848631263" lon="18.719132943078876">
        <ele>288.05224609375</ele>
        <time>2012-01-31T15:01:12Z</time>
      </trkpt>
      <trkpt lat="47.591912364587188" lon="18.719130679965019">
        <ele>288.532958984375</ele>
        <time>2012-01-31T15:01:08Z</time>
      </trkpt>
      <trkpt lat="47.591945389285684" lon="18.719109138473868">
        <ele>287.5714111328125</ele>
        <time>2012-01-31T15:01:05Z</time>
      </trkpt>
      <trkpt lat="47.591977743431926" lon="18.719082651659846">
        <ele>287.5714111328125</ele>
        <time>2012-01-31T15:01:02Z</time>
      </trkpt>
      <trkpt lat="47.592010097578168" lon="18.719044849276543">
        <ele>287.0908203125</ele>
        <time>2012-01-31T15:00:59Z</time>
      </trkpt>
      <trkpt lat="47.592036332935095" lon="18.718993635848165">
        <ele>283.7261962890625</ele>
        <time>2012-01-31T15:00:56Z</time>
      </trkpt>
      <trkpt lat="47.592057790607214" lon="18.718935465440154">
        <ele>285.168212890625</ele>
        <time>2012-01-31T15:00:53Z</time>
      </trkpt>
      <trkpt lat="47.59207958355546" lon="18.718876875936985">
        <ele>285.168212890625</ele>
        <time>2012-01-31T15:00:50Z</time>
      </trkpt>
      <trkpt lat="47.592096598818898" lon="18.71883898973465">
        <ele>284.6876220703125</ele>
        <time>2012-01-31T15:00:48Z</time>
      </trkpt>
      <trkpt lat="47.592110596597195" lon="18.718795320019126">
        <ele>284.2069091796875</ele>
        <time>2012-01-31T15:00:46Z</time>
      </trkpt>
      <trkpt lat="47.592122666537762" lon="18.718730947002769">
        <ele>284.2069091796875</ele>
        <time>2012-01-31T15:00:43Z</time>
      </trkpt>
      <trkpt lat="47.592128617689013" lon="18.718683337792754">
        <ele>284.2069091796875</ele>
        <time>2012-01-31T15:00:41Z</time>
      </trkpt>
      <trkpt lat="47.592135323211551" lon="18.718632292002439">
        <ele>284.2069091796875</ele>
        <time>2012-01-31T15:00:39Z</time>
      </trkpt>
      <trkpt lat="47.592141693457961" lon="18.718571439385414">
        <ele>284.2069091796875</ele>
        <time>2012-01-31T15:00:35Z</time>
      </trkpt>
      <trkpt lat="47.592139849439263" lon="18.718530535697937">
        <ele>282.7650146484375</ele>
        <time>2012-01-31T15:00:30Z</time>
      </trkpt>
      <trkpt lat="47.592146722599864" lon="18.718458786606789">
        <ele>282.7650146484375</ele>
        <time>2012-01-31T15:00:27Z</time>
      </trkpt>
      <trkpt lat="47.59213431738317" lon="18.718411596491933">
        <ele>281.8035888671875</ele>
        <time>2012-01-31T15:00:24Z</time>
      </trkpt>
      <trkpt lat="47.592124259099364" lon="18.718360299244523">
        <ele>281.322998046875</ele>
        <time>2012-01-31T15:00:21Z</time>
      </trkpt>
      <trkpt lat="47.592120571061969" lon="18.718290477991104">
        <ele>280.3616943359375</ele>
        <time>2012-01-31T15:00:18Z</time>
      </trkpt>
      <trkpt lat="47.592118140310049" lon="18.718242198228836">
        <ele>279.880859375</ele>
        <time>2012-01-31T15:00:16Z</time>
      </trkpt>
      <trkpt lat="47.592109087854624" lon="18.718181848526001">
        <ele>279.4002685546875</ele>
        <time>2012-01-31T15:00:13Z</time>
      </trkpt>
      <trkpt lat="47.592097520828247" lon="18.718138933181763">
        <ele>279.4002685546875</ele>
        <time>2012-01-31T15:00:11Z</time>
      </trkpt>
      <trkpt lat="47.592086875811219" lon="18.71808017604053">
        <ele>278.43896484375</ele>
        <time>2012-01-31T15:00:08Z</time>
      </trkpt>
      <trkpt lat="47.592085786163807" lon="18.718041619285941">
        <ele>278.919677734375</ele>
        <time>2012-01-31T15:00:04Z</time>
      </trkpt>
      <trkpt lat="47.592069525271654" lon="18.718085456639528">
        <ele>279.4002685546875</ele>
        <time>2012-01-31T15:00:00Z</time>
      </trkpt>
      <trkpt lat="47.59206005372107" lon="18.718098364770412">
        <ele>279.4002685546875</ele>
        <time>2012-01-31T14:59:50Z</time>
      </trkpt>
      <trkpt lat="47.592085031792521" lon="18.71807187795639">
        <ele>278.919677734375</ele>
        <time>2012-01-31T14:59:45Z</time>
      </trkpt>
      <trkpt lat="47.592099448665977" lon="18.718104567378759">
        <ele>279.4002685546875</ele>
        <time>2012-01-31T14:59:40Z</time>
      </trkpt>
      <trkpt lat="47.592083690688014" lon="18.718144381418824">
        <ele>279.880859375</ele>
        <time>2012-01-31T14:59:33Z</time>
      </trkpt>
      <trkpt lat="47.592071536928415" lon="18.718121834099293">
        <ele>279.880859375</ele>
        <time>2012-01-31T14:59:27Z</time>
      </trkpt>
      <trkpt lat="47.592064999043941" lon="18.718077661469579">
        <ele>279.880859375</ele>
        <time>2012-01-31T14:59:24Z</time>
      </trkpt>
      <trkpt lat="47.592062233015895" lon="18.718021837994456">
        <ele>279.4002685546875</ele>
        <time>2012-01-31T14:59:21Z</time>
      </trkpt>
      <trkpt lat="47.592052090913057" lon="18.717980766668916">
        <ele>279.4002685546875</ele>
        <time>2012-01-31T14:59:19Z</time>
      </trkpt>
      <trkpt lat="47.59203365072608" lon="18.717928128316998">
        <ele>279.880859375</ele>
        <time>2012-01-31T14:59:16Z</time>
      </trkpt>
      <trkpt lat="47.592008588835597" lon="18.717876495793462">
        <ele>279.880859375</ele>
        <time>2012-01-31T14:59:13Z</time>
      </trkpt>
      <trkpt lat="47.591982940211892" lon="18.717824360355735">
        <ele>279.880859375</ele>
        <time>2012-01-31T14:59:10Z</time>
      </trkpt>
      <trkpt lat="47.591959051787853" lon="18.717800220474601">
        <ele>279.4002685546875</ele>
        <time>2012-01-31T14:59:08Z</time>
      </trkpt>
      <trkpt lat="47.591929379850626" lon="18.717771722003818">
        <ele>279.4002685546875</ele>
        <time>2012-01-31T14:59:06Z</time>
      </trkpt>
      <trkpt lat="47.591913789510727" lon="18.717734925448895">
        <ele>279.4002685546875</ele>
        <time>2012-01-31T14:59:04Z</time>
      </trkpt>
      <trkpt lat="47.591898534446955" lon="18.717699889093637">
        <ele>279.4002685546875</ele>
        <time>2012-01-31T14:59:02Z</time>
      </trkpt>
      <trkpt lat="47.591889398172498" lon="18.71765504591167">
        <ele>279.4002685546875</ele>
        <time>2012-01-31T14:59:00Z</time>
      </trkpt>
      <trkpt lat="47.591870035976171" lon="18.717621099203825">
        <ele>278.919677734375</ele>
        <time>2012-01-31T14:58:58Z</time>
      </trkpt>
      <trkpt lat="47.591843632981181" lon="18.717592433094978">
        <ele>278.919677734375</ele>
        <time>2012-01-31T14:58:47Z</time>
      </trkpt>
      <trkpt lat="47.591864168643951" lon="18.717628894373775">
        <ele>279.4002685546875</ele>
        <time>2012-01-31T14:58:28Z</time>
      </trkpt>
      <trkpt lat="47.591850841417909" lon="18.717601066455245">
        <ele>279.880859375</ele>
        <time>2012-01-31T14:57:56Z</time>
      </trkpt>
      <trkpt lat="47.591830054298043" lon="18.717561420053244">
        <ele>278.919677734375</ele>
        <time>2012-01-31T14:57:43Z</time>
      </trkpt>
      <trkpt lat="47.59181379340589" lon="18.717513391748071">
        <ele>278.43896484375</ele>
        <time>2012-01-31T14:57:40Z</time>
      </trkpt>
      <trkpt lat="47.591794598847628" lon="18.717476846650243">
        <ele>278.919677734375</ele>
        <time>2012-01-31T14:57:38Z</time>
      </trkpt>
      <trkpt lat="47.591767776757479" lon="18.717426052317023">
        <ele>277.4776611328125</ele>
        <time>2012-01-31T14:57:35Z</time>
      </trkpt>
      <trkpt lat="47.591742295771837" lon="18.717371569946408">
        <ele>277.958251953125</ele>
        <time>2012-01-31T14:57:32Z</time>
      </trkpt>
      <trkpt lat="47.591719245538116" lon="18.717316668480635">
        <ele>277.958251953125</ele>
        <time>2012-01-31T14:57:29Z</time>
      </trkpt>
      <trkpt lat="47.591699631884694" lon="18.717282973229885">
        <ele>277.4776611328125</ele>
        <time>2012-01-31T14:57:27Z</time>
      </trkpt>
      <trkpt lat="47.591681694611907" lon="18.717246595770121">
        <ele>276.9970703125</ele>
        <time>2012-01-31T14:57:25Z</time>
      </trkpt>
      <trkpt lat="47.591664846986532" lon="18.71720552444458">
        <ele>276.03564453125</ele>
        <time>2012-01-31T14:57:23Z</time>
      </trkpt>
      <trkpt lat="47.591645065695047" lon="18.717167554423213">
        <ele>276.03564453125</ele>
        <time>2012-01-31T14:57:21Z</time>
      </trkpt>
      <trkpt lat="47.591622350737453" lon="18.717131931334734">
        <ele>276.03564453125</ele>
        <time>2012-01-31T14:57:19Z</time>
      </trkpt>
      <trkpt lat="47.591603826731443" lon="18.717095470055938">
        <ele>276.03564453125</ele>
        <time>2012-01-31T14:57:17Z</time>
      </trkpt>
      <trkpt lat="47.591583374887705" lon="18.717055069282651">
        <ele>275.5550537109375</ele>
        <time>2012-01-31T14:57:15Z</time>
      </trkpt>
      <trkpt lat="47.591561581939459" lon="18.717018188908696">
        <ele>275.074462890625</ele>
        <time>2012-01-31T14:57:13Z</time>
      </trkpt>
      <trkpt lat="47.591537442058325" lon="18.716983571648598">
        <ele>275.5550537109375</ele>
        <time>2012-01-31T14:57:11Z</time>
      </trkpt>
      <trkpt lat="47.591516152024269" lon="18.716946439817548">
        <ele>275.074462890625</ele>
        <time>2012-01-31T14:57:09Z</time>
      </trkpt>
      <trkpt lat="47.591495783999562" lon="18.716911738738418">
        <ele>274.59375</ele>
        <time>2012-01-31T14:57:07Z</time>
      </trkpt>
      <trkpt lat="47.591475080698729" lon="18.71686982922256">
        <ele>275.074462890625</ele>
        <time>2012-01-31T14:57:05Z</time>
      </trkpt>
      <trkpt lat="47.591448929160833" lon="18.716833535581827">
        <ele>274.59375</ele>
        <time>2012-01-31T14:57:03Z</time>
      </trkpt>
      <trkpt lat="47.59142235852778" lon="18.71679313480854">
        <ele>274.59375</ele>
        <time>2012-01-31T14:57:01Z</time>
      </trkpt>
      <trkpt lat="47.591401068493724" lon="18.716748543083668">
        <ele>273.6324462890625</ele>
        <time>2012-01-31T14:56:59Z</time>
      </trkpt>
      <trkpt lat="47.591380532830954" lon="18.716706046834588">
        <ele>273.15185546875</ele>
        <time>2012-01-31T14:56:57Z</time>
      </trkpt>
      <trkpt lat="47.591356644406915" lon="18.71666656807065">
        <ele>273.15185546875</ele>
        <time>2012-01-31T14:56:55Z</time>
      </trkpt>
      <trkpt lat="47.591335773468018" lon="18.716623149812222">
        <ele>273.15185546875</ele>
        <time>2012-01-31T14:56:53Z</time>
      </trkpt>
      <trkpt lat="47.59131439961493" lon="18.716583168134093">
        <ele>273.6324462890625</ele>
        <time>2012-01-31T14:56:51Z</time>
      </trkpt>
      <trkpt lat="47.591293277218938" lon="18.716541174799204">
        <ele>273.15185546875</ele>
        <time>2012-01-31T14:56:49Z</time>
      </trkpt>
      <trkpt lat="47.59127383120358" lon="18.716497337445617">
        <ele>273.15185546875</ele>
        <time>2012-01-31T14:56:47Z</time>
      </trkpt>
      <trkpt lat="47.591252541169524" lon="18.716452745720744">
        <ele>272.671142578125</ele>
        <time>2012-01-31T14:56:45Z</time>
      </trkpt>
      <trkpt lat="47.591234771534801" lon="18.716408321633935">
        <ele>272.1904296875</ele>
        <time>2012-01-31T14:56:43Z</time>
      </trkpt>
      <trkpt lat="47.591211134567857" lon="18.716374794021249">
        <ele>272.1904296875</ele>
        <time>2012-01-31T14:56:41Z</time>
      </trkpt>
      <trkpt lat="47.591187497600913" lon="18.716347720474005">
        <ele>272.1904296875</ele>
        <time>2012-01-31T14:56:39Z</time>
      </trkpt>
      <trkpt lat="47.591165117919445" lon="18.716321820393205">
        <ele>272.1904296875</ele>
        <time>2012-01-31T14:56:37Z</time>
      </trkpt>
      <trkpt lat="47.591140894219279" lon="18.716293070465326">
        <ele>271.709716796875</ele>
        <time>2012-01-31T14:56:35Z</time>
      </trkpt>
      <trkpt lat="47.591119855642319" lon="18.716260716319084">
        <ele>272.1904296875</ele>
        <time>2012-01-31T14:56:33Z</time>
      </trkpt>
      <trkpt lat="47.591099319979548" lon="18.716228948906064">
        <ele>271.709716796875</ele>
        <time>2012-01-31T14:56:31Z</time>
      </trkpt>
      <trkpt lat="47.591063193976879" lon="18.716193241998553">
        <ele>271.2291259765625</ele>
        <time>2012-01-31T14:56:28Z</time>
      </trkpt>
      <trkpt lat="47.591039473190904" lon="18.716165162622929">
        <ele>271.2291259765625</ele>
        <time>2012-01-31T14:56:26Z</time>
      </trkpt>
      <trkpt lat="47.591015165671706" lon="18.716137250885367">
        <ele>271.2291259765625</ele>
        <time>2012-01-31T14:56:24Z</time>
      </trkpt>
      <trkpt lat="47.590992031618953" lon="18.716111183166504">
        <ele>271.2291259765625</ele>
        <time>2012-01-31T14:56:19Z</time>
      </trkpt>
      <trkpt lat="47.591007454320788" lon="18.716150661930442">
        <ele>271.2291259765625</ele>
        <time>2012-01-31T14:56:16Z</time>
      </trkpt>
      <trkpt lat="47.590997563675046" lon="18.716147979721427">
        <ele>271.2291259765625</ele>
        <time>2012-01-31T14:56:13Z</time>
      </trkpt>
      <trkpt lat="47.590975854545832" lon="18.716106824576855">
        <ele>271.2291259765625</ele>
        <time>2012-01-31T14:56:11Z</time>
      </trkpt>
      <trkpt lat="47.590953391045332" lon="18.716069692745805">
        <ele>271.2291259765625</ele>
        <time>2012-01-31T14:56:09Z</time>
      </trkpt>
      <trkpt lat="47.59093277156353" lon="18.716032058000565">
        <ele>270.7484130859375</ele>
        <time>2012-01-31T14:56:07Z</time>
      </trkpt>
      <trkpt lat="47.590907122939825" lon="18.715997859835625">
        <ele>270.2677001953125</ele>
        <time>2012-01-31T14:56:05Z</time>
      </trkpt>
      <trkpt lat="47.590883821249008" lon="18.715962572023273">
        <ele>270.2677001953125</ele>
        <time>2012-01-31T14:56:03Z</time>
      </trkpt>
      <trkpt lat="47.590861273929477" lon="18.715927116572857">
        <ele>269.787109375</ele>
        <time>2012-01-31T14:56:01Z</time>
      </trkpt>
      <trkpt lat="47.590839397162199" lon="18.715896271169186">
        <ele>269.3065185546875</ele>
        <time>2012-01-31T14:55:59Z</time>
      </trkpt>
      <trkpt lat="47.590815173462033" lon="18.715855032205582">
        <ele>268.8258056640625</ele>
        <time>2012-01-31T14:55:57Z</time>
      </trkpt>
      <trkpt lat="47.590795643627644" lon="18.715820498764515">
        <ele>267.864501953125</ele>
        <time>2012-01-31T14:55:55Z</time>
      </trkpt>
      <trkpt lat="47.590776029974222" lon="18.715782025828958">
        <ele>268.3450927734375</ele>
        <time>2012-01-31T14:55:53Z</time>
      </trkpt>
      <trkpt lat="47.590756248682737" lon="18.715742798522115">
        <ele>268.8258056640625</ele>
        <time>2012-01-31T14:55:51Z</time>
      </trkpt>
      <trkpt lat="47.590733869001269" lon="18.715703571215272">
        <ele>267.864501953125</ele>
        <time>2012-01-31T14:55:49Z</time>
      </trkpt>
      <trkpt lat="47.590710567310452" lon="18.715666271746159">
        <ele>267.3839111328125</ele>
        <time>2012-01-31T14:55:47Z</time>
      </trkpt>
      <trkpt lat="47.590686930343509" lon="18.715632325038314">
        <ele>267.864501953125</ele>
        <time>2012-01-31T14:55:45Z</time>
      </trkpt>
      <trkpt lat="47.590663125738502" lon="18.715601228177547">
        <ele>266.9031982421875</ele>
        <time>2012-01-31T14:55:43Z</time>
      </trkpt>
      <trkpt lat="47.590641751885414" lon="18.715568790212274">
        <ele>265.94189453125</ele>
        <time>2012-01-31T14:55:41Z</time>
      </trkpt>
      <trkpt lat="47.590619791299105" lon="18.715538782998919">
        <ele>265.4613037109375</ele>
        <time>2012-01-31T14:55:39Z</time>
      </trkpt>
      <trkpt lat="47.590584671124816" lon="18.715507183223963">
        <ele>264.9805908203125</ele>
        <time>2012-01-31T14:55:36Z</time>
      </trkpt>
      <trkpt lat="47.59055801667273" lon="18.715488323941827">
        <ele>264.4998779296875</ele>
        <time>2012-01-31T14:55:34Z</time>
      </trkpt>
      <trkpt lat="47.590542677789927" lon="18.715487318113446">
        <ele>264.4998779296875</ele>
        <time>2012-01-31T14:54:39Z</time>
      </trkpt>
      <trkpt lat="47.590555753558874" lon="18.715493436902761">
        <ele>264.4998779296875</ele>
        <time>2012-01-31T14:54:27Z</time>
      </trkpt>
      <trkpt lat="47.590569164603949" lon="18.715470554307103">
        <ele>264.9805908203125</ele>
        <time>2012-01-31T14:54:22Z</time>
      </trkpt>
      <trkpt lat="47.590549131855369" lon="18.715439373627305">
        <ele>264.4998779296875</ele>
        <time>2012-01-31T14:54:18Z</time>
      </trkpt>
      <trkpt lat="47.590525578707457" lon="18.715404085814953">
        <ele>263.53857421875</ele>
        <time>2012-01-31T14:54:15Z</time>
      </trkpt>
      <trkpt lat="47.590500432997942" lon="18.71536728926003">
        <ele>263.53857421875</ele>
        <time>2012-01-31T14:54:12Z</time>
      </trkpt>
      <trkpt lat="47.590472353622317" lon="18.715324960649014">
        <ele>263.057861328125</ele>
        <time>2012-01-31T14:54:09Z</time>
      </trkpt>
      <trkpt lat="47.590444944798946" lon="18.715285398066044">
        <ele>262.0965576171875</ele>
        <time>2012-01-31T14:54:06Z</time>
      </trkpt>
      <trkpt lat="47.590415524318814" lon="18.715237369760871">
        <ele>262.5771484375</ele>
        <time>2012-01-31T14:54:03Z</time>
      </trkpt>
      <trkpt lat="47.590386858209968" lon="18.715197220444679">
        <ele>262.0965576171875</ele>
        <time>2012-01-31T14:54:00Z</time>
      </trkpt>
      <trkpt lat="47.590352324768901" lon="18.715165620669723">
        <ele>261.615966796875</ele>
        <time>2012-01-31T14:53:57Z</time>
      </trkpt>
      <trkpt lat="47.590323742479086" lon="18.715128656476736">
        <ele>261.615966796875</ele>
        <time>2012-01-31T14:53:53Z</time>
      </trkpt>
      <trkpt lat="47.590291891247034" lon="18.715091524645686">
        <ele>261.615966796875</ele>
        <time>2012-01-31T14:53:50Z</time>
      </trkpt>
      <trkpt lat="47.590258195996284" lon="18.715055817738175">
        <ele>261.615966796875</ele>
        <time>2012-01-31T14:53:47Z</time>
      </trkpt>
      <trkpt lat="47.590224836021662" lon="18.715019859373569">
        <ele>261.13525390625</ele>
        <time>2012-01-31T14:53:44Z</time>
      </trkpt>
      <trkpt lat="47.590189799666405" lon="18.71498423628509">
        <ele>260.654541015625</ele>
        <time>2012-01-31T14:53:41Z</time>
      </trkpt>
      <trkpt lat="47.590156272053719" lon="18.714946350082755">
        <ele>259.212646484375</ele>
        <time>2012-01-31T14:53:38Z</time>
      </trkpt>
      <trkpt lat="47.590133221819997" lon="18.714917432516813">
        <ele>259.212646484375</ele>
        <time>2012-01-31T14:53:36Z</time>
      </trkpt>
      <trkpt lat="47.590111847966909" lon="18.714886922389269">
        <ele>258.73193359375</ele>
        <time>2012-01-31T14:53:34Z</time>
      </trkpt>
      <trkpt lat="47.590088546276093" lon="18.714853562414646">
        <ele>258.2513427734375</ele>
        <time>2012-01-31T14:53:28Z</time>
      </trkpt>
      <trkpt lat="47.590057030320168" lon="18.714840654283762">
        <ele>257.770751953125</ele>
        <time>2012-01-31T14:53:25Z</time>
      </trkpt>
      <trkpt lat="47.590024173259735" lon="18.714818274602294">
        <ele>257.770751953125</ele>
        <time>2012-01-31T14:53:22Z</time>
      </trkpt>
      <trkpt lat="47.589989975094795" lon="18.714785249903798">
        <ele>257.2900390625</ele>
        <time>2012-01-31T14:53:19Z</time>
      </trkpt>
      <trkpt lat="47.58995309472084" lon="18.714750548824668">
        <ele>256.809326171875</ele>
        <time>2012-01-31T14:53:16Z</time>
      </trkpt>
      <trkpt lat="47.589928451925516" lon="18.714726157486439">
        <ele>256.809326171875</ele>
        <time>2012-01-31T14:53:14Z</time>
      </trkpt>
      <trkpt lat="47.589903473854065" lon="18.71470176614821">
        <ele>256.3287353515625</ele>
        <time>2012-01-31T14:53:12Z</time>
      </trkpt>
      <trkpt lat="47.589868353679776" lon="18.714664885774255">
        <ele>255.8480224609375</ele>
        <time>2012-01-31T14:53:09Z</time>
      </trkpt>
      <trkpt lat="47.589841531589627" lon="18.714643428102136">
        <ele>255.3673095703125</ele>
        <time>2012-01-31T14:53:07Z</time>
      </trkpt>
      <trkpt lat="47.589816888794303" lon="18.714619036763906">
        <ele>254.8865966796875</ele>
        <time>2012-01-31T14:53:05Z</time>
      </trkpt>
      <trkpt lat="47.589791072532535" lon="18.714596657082438">
        <ele>254.406005859375</ele>
        <time>2012-01-31T14:53:03Z</time>
      </trkpt>
      <trkpt lat="47.589763328433037" lon="18.714574445039034">
        <ele>253.9254150390625</ele>
        <time>2012-01-31T14:53:01Z</time>
      </trkpt>
      <trkpt lat="47.589736087247729" lon="18.714553322643042">
        <ele>253.9254150390625</ele>
        <time>2012-01-31T14:52:59Z</time>
      </trkpt>
      <trkpt lat="47.589707840234041" lon="18.71453027240932">
        <ele>253.9254150390625</ele>
        <time>2012-01-31T14:52:57Z</time>
      </trkpt>
      <trkpt lat="47.589670037850738" lon="18.714500516653061">
        <ele>253.9254150390625</ele>
        <time>2012-01-31T14:52:54Z</time>
      </trkpt>
      <trkpt lat="47.589631732553244" lon="18.71446724049747">
        <ele>252.9639892578125</ele>
        <time>2012-01-31T14:52:51Z</time>
      </trkpt>
      <trkpt lat="47.589592337608337" lon="18.714439999312162">
        <ele>253.4447021484375</ele>
        <time>2012-01-31T14:52:48Z</time>
      </trkpt>
      <trkpt lat="47.589566269889474" lon="18.714419044554234">
        <ele>252.9639892578125</ele>
        <time>2012-01-31T14:52:46Z</time>
      </trkpt>
      <trkpt lat="47.58953869342804" lon="18.714403873309493">
        <ele>252.9639892578125</ele>
        <time>2012-01-31T14:52:44Z</time>
      </trkpt>
      <trkpt lat="47.589511536061764" lon="18.714385265484452">
        <ele>251.5220947265625</ele>
        <time>2012-01-31T14:52:42Z</time>
      </trkpt>
      <trkpt lat="47.589471386745572" lon="18.714358946308494">
        <ele>251.0413818359375</ele>
        <time>2012-01-31T14:52:39Z</time>
      </trkpt>
      <trkpt lat="47.589432243257761" lon="18.714332040399313">
        <ele>252.0028076171875</ele>
        <time>2012-01-31T14:52:36Z</time>
      </trkpt>
      <trkpt lat="47.589392429217696" lon="18.71432114392519">
        <ele>250.560791015625</ele>
        <time>2012-01-31T14:52:28Z</time>
      </trkpt>
      <trkpt lat="47.589361919090152" lon="18.7142981775105">
        <ele>250.560791015625</ele>
        <time>2012-01-31T14:52:25Z</time>
      </trkpt>
      <trkpt lat="47.589321434497833" lon="18.714274792000651">
        <ele>250.0802001953125</ele>
        <time>2012-01-31T14:52:22Z</time>
      </trkpt>
      <trkpt lat="47.589275920763612" lon="18.714254843071103">
        <ele>250.0802001953125</ele>
        <time>2012-01-31T14:52:19Z</time>
      </trkpt>
      <trkpt lat="47.589232083410025" lon="18.714231792837381">
        <ele>250.0802001953125</ele>
        <time>2012-01-31T14:52:15Z</time>
      </trkpt>
      <trkpt lat="47.589189587160945" lon="18.714217040687799">
        <ele>249.5994873046875</ele>
        <time>2012-01-31T14:52:12Z</time>
      </trkpt>
      <trkpt lat="47.589145749807358" lon="18.714190386235714">
        <ele>249.1187744140625</ele>
        <time>2012-01-31T14:52:09Z</time>
      </trkpt>
      <trkpt lat="47.589113228023052" lon="18.714175717905164">
        <ele>248.63818359375</ele>
        <time>2012-01-31T14:52:07Z</time>
      </trkpt>
      <trkpt lat="47.589075258001685" lon="18.714160546660423">
        <ele>248.63818359375</ele>
        <time>2012-01-31T14:52:05Z</time>
      </trkpt>
      <trkpt lat="47.589022619649768" lon="18.714141016826034">
        <ele>247.6767578125</ele>
        <time>2012-01-31T14:52:02Z</time>
      </trkpt>
      <trkpt lat="47.58897727355361" lon="18.71412961743772">
        <ele>247.196044921875</ele>
        <time>2012-01-31T14:51:59Z</time>
      </trkpt>
      <trkpt lat="47.588929161429405" lon="18.71411394327879">
        <ele>246.7154541015625</ele>
        <time>2012-01-31T14:51:56Z</time>
      </trkpt>
      <trkpt lat="47.58888004347682" lon="18.71408904902637">
        <ele>245.2734375</ele>
        <time>2012-01-31T14:51:53Z</time>
      </trkpt>
      <trkpt lat="47.588847186416388" lon="18.714073123410344">
        <ele>245.2734375</ele>
        <time>2012-01-31T14:51:51Z</time>
      </trkpt>
      <trkpt lat="47.58880527690053" lon="18.714053174480796">
        <ele>245.2734375</ele>
        <time>2012-01-31T14:51:48Z</time>
      </trkpt>
      <trkpt lat="47.588760433718562" lon="18.714030124247074">
        <ele>245.2734375</ele>
        <time>2012-01-31T14:51:45Z</time>
      </trkpt>
      <trkpt lat="47.588717434555292" lon="18.71401377953589">
        <ele>244.7928466796875</ele>
        <time>2012-01-31T14:51:42Z</time>
      </trkpt>
      <trkpt lat="47.588697737082839" lon="18.714016964659095">
        <ele>244.312255859375</ele>
        <time>2012-01-31T14:51:24Z</time>
      </trkpt>
      <trkpt lat="47.588712824508548" lon="18.714024592190981">
        <ele>244.7928466796875</ele>
        <time>2012-01-31T14:51:05Z</time>
      </trkpt>
      <trkpt lat="47.588704861700535" lon="18.713991232216358">
        <ele>244.7928466796875</ele>
        <time>2012-01-31T14:50:55Z</time>
      </trkpt>
      <trkpt lat="47.588666053488851" lon="18.713972372934222">
        <ele>245.754150390625</ele>
        <time>2012-01-31T14:50:52Z</time>
      </trkpt>
      <trkpt lat="47.58862447924912" lon="18.713954016566277">
        <ele>243.83154296875</ele>
        <time>2012-01-31T14:50:49Z</time>
      </trkpt>
      <trkpt lat="47.588583156466484" lon="18.713932894170284">
        <ele>244.312255859375</ele>
        <time>2012-01-31T14:50:46Z</time>
      </trkpt>
      <trkpt lat="47.588542085140944" lon="18.713912777602673">
        <ele>243.350830078125</ele>
        <time>2012-01-31T14:50:43Z</time>
      </trkpt>
      <trkpt lat="47.58850084617734" lon="18.71389458887279">
        <ele>243.83154296875</ele>
        <time>2012-01-31T14:50:40Z</time>
      </trkpt>
      <trkpt lat="47.588465474545956" lon="18.713874472305179">
        <ele>242.3896484375</ele>
        <time>2012-01-31T14:50:37Z</time>
      </trkpt>
      <trkpt lat="47.588431276381016" lon="18.713857037946582">
        <ele>242.3896484375</ele>
        <time>2012-01-31T14:50:34Z</time>
      </trkpt>
      <trkpt lat="47.588392551988363" lon="18.71383398771286">
        <ele>241.908935546875</ele>
        <time>2012-01-31T14:50:31Z</time>
      </trkpt>
      <trkpt lat="47.58834888227284" lon="18.71381051838398">
        <ele>241.908935546875</ele>
        <time>2012-01-31T14:50:28Z</time>
      </trkpt>
      <trkpt lat="47.588311331346631" lon="18.713791072368622">
        <ele>241.908935546875</ele>
        <time>2012-01-31T14:50:25Z</time>
      </trkpt>
      <trkpt lat="47.588272439315915" lon="18.71376751922071">
        <ele>241.42822265625</ele>
        <time>2012-01-31T14:50:22Z</time>
      </trkpt>
      <trkpt lat="47.588233882561326" lon="18.713745474815369">
        <ele>241.42822265625</ele>
        <time>2012-01-31T14:50:19Z</time>
      </trkpt>
      <trkpt lat="47.588196750730276" lon="18.713722256943583">
        <ele>241.42822265625</ele>
        <time>2012-01-31T14:50:16Z</time>
      </trkpt>
      <trkpt lat="47.588149392977357" lon="18.713702475652099">
        <ele>240.9476318359375</ele>
        <time>2012-01-31T14:50:13Z</time>
      </trkpt>
      <trkpt lat="47.588122319430113" lon="18.713676240295172">
        <ele>240.9476318359375</ele>
        <time>2012-01-31T14:50:11Z</time>
      </trkpt>
      <trkpt lat="47.588084433227777" lon="18.713652938604355">
        <ele>240.9476318359375</ele>
        <time>2012-01-31T14:50:08Z</time>
      </trkpt>
      <trkpt lat="47.588043780997396" lon="18.713634582236409">
        <ele>240.9476318359375</ele>
        <time>2012-01-31T14:50:05Z</time>
      </trkpt>
      <trkpt lat="47.587995752692223" lon="18.713610442355275">
        <ele>240.467041015625</ele>
        <time>2012-01-31T14:50:02Z</time>
      </trkpt>
      <trkpt lat="47.587966248393059" lon="18.713593175634742">
        <ele>240.467041015625</ele>
        <time>2012-01-31T14:50:00Z</time>
      </trkpt>
      <trkpt lat="47.58793355897069" lon="18.713580686599016">
        <ele>240.467041015625</ele>
        <time>2012-01-31T14:49:58Z</time>
      </trkpt>
      <trkpt lat="47.587889973074198" lon="18.713562162593007">
        <ele>240.467041015625</ele>
        <time>2012-01-31T14:49:55Z</time>
      </trkpt>
      <trkpt lat="47.587843956425786" lon="18.713537519797683">
        <ele>239.9862060546875</ele>
        <time>2012-01-31T14:49:52Z</time>
      </trkpt>
      <trkpt lat="47.587811937555671" lon="18.713521175086498">
        <ele>239.9862060546875</ele>
        <time>2012-01-31T14:49:50Z</time>
      </trkpt>
      <trkpt lat="47.587781092151999" lon="18.713504243642092">
        <ele>239.9862060546875</ele>
        <time>2012-01-31T14:49:48Z</time>
      </trkpt>
      <trkpt lat="47.587751671671867" lon="18.713491084054112">
        <ele>239.5054931640625</ele>
        <time>2012-01-31T14:49:46Z</time>
      </trkpt>
      <trkpt lat="47.587707499042153" lon="18.713473146781325">
        <ele>239.02490234375</ele>
        <time>2012-01-31T14:49:43Z</time>
      </trkpt>
      <trkpt lat="47.587674390524626" lon="18.713458562269807">
        <ele>239.02490234375</ele>
        <time>2012-01-31T14:49:41Z</time>
      </trkpt>
      <trkpt lat="47.587641533464193" lon="18.71344649232924">
        <ele>239.02490234375</ele>
        <time>2012-01-31T14:49:39Z</time>
      </trkpt>
      <trkpt lat="47.587596271187067" lon="18.713426878675818">
        <ele>239.02490234375</ele>
        <time>2012-01-31T14:49:36Z</time>
      </trkpt>
      <trkpt lat="47.587565593421459" lon="18.713414138182998">
        <ele>238.5443115234375</ele>
        <time>2012-01-31T14:49:34Z</time>
      </trkpt>
      <trkpt lat="47.587518822401762" lon="18.713396452367306">
        <ele>239.02490234375</ele>
        <time>2012-01-31T14:49:31Z</time>
      </trkpt>
      <trkpt lat="47.587472638115287" lon="18.71337516233325">
        <ele>238.5443115234375</ele>
        <time>2012-01-31T14:49:28Z</time>
      </trkpt>
      <trkpt lat="47.58742393925786" lon="18.713360829278827">
        <ele>238.5443115234375</ele>
        <time>2012-01-31T14:49:25Z</time>
      </trkpt>
      <trkpt lat="47.587380269542336" lon="18.713343981653452">
        <ele>238.5443115234375</ele>
        <time>2012-01-31T14:49:22Z</time>
      </trkpt>
      <trkpt lat="47.587334671989083" lon="18.71332922950387">
        <ele>237.5828857421875</ele>
        <time>2012-01-31T14:49:19Z</time>
      </trkpt>
      <trkpt lat="47.587290834635496" lon="18.713316489011049">
        <ele>237.5828857421875</ele>
        <time>2012-01-31T14:49:16Z</time>
      </trkpt>
      <trkpt lat="47.587248170748353" lon="18.713308274745941">
        <ele>236.6217041015625</ele>
        <time>2012-01-31T14:49:13Z</time>
      </trkpt>
      <trkpt lat="47.587202740833163" lon="18.713298970833421">
        <ele>236.6217041015625</ele>
        <time>2012-01-31T14:49:10Z</time>
      </trkpt>
      <trkpt lat="47.587170051410794" lon="18.713290169835091">
        <ele>236.6217041015625</ele>
        <time>2012-01-31T14:49:08Z</time>
      </trkpt>
      <trkpt lat="47.587137948721647" lon="18.713281452655792">
        <ele>236.1409912109375</ele>
        <time>2012-01-31T14:49:06Z</time>
      </trkpt>
      <trkpt lat="47.587093776091933" lon="18.713271142914891">
        <ele>236.1409912109375</ele>
        <time>2012-01-31T14:49:03Z</time>
      </trkpt>
      <trkpt lat="47.587052872404456" lon="18.713262425735593">
        <ele>236.1409912109375</ele>
        <time>2012-01-31T14:49:00Z</time>
      </trkpt>
      <trkpt lat="47.587013645097613" lon="18.713255217298865">
        <ele>236.1409912109375</ele>
        <time>2012-01-31T14:48:57Z</time>
      </trkpt>
      <trkpt lat="47.586986571550369" lon="18.713251696899533">
        <ele>235.1796875</ele>
        <time>2012-01-31T14:48:44Z</time>
      </trkpt>
      <trkpt lat="47.587000066414475" lon="18.713238453492522">
        <ele>235.6602783203125</ele>
        <time>2012-01-31T14:48:23Z</time>
      </trkpt>
      <trkpt lat="47.586964359506965" lon="18.713247254490852">
        <ele>235.1796875</ele>
        <time>2012-01-31T14:48:14Z</time>
      </trkpt>
      <trkpt lat="47.586925886571407" lon="18.713244153186679">
        <ele>235.6602783203125</ele>
        <time>2012-01-31T14:48:11Z</time>
      </trkpt>
      <trkpt lat="47.586887162178755" lon="18.71324323117733">
        <ele>234.6990966796875</ele>
        <time>2012-01-31T14:48:08Z</time>
      </trkpt>
      <trkpt lat="47.58684491738677" lon="18.713233759626746">
        <ele>234.6990966796875</ele>
        <time>2012-01-31T14:48:05Z</time>
      </trkpt>
      <trkpt lat="47.586802253499627" lon="18.713215570896864">
        <ele>234.6990966796875</ele>
        <time>2012-01-31T14:48:02Z</time>
      </trkpt>
      <trkpt lat="47.586760679259896" lon="18.713201321661472">
        <ele>234.6990966796875</ele>
        <time>2012-01-31T14:47:59Z</time>
      </trkpt>
      <trkpt lat="47.586714746430516" lon="18.71318363584578">
        <ele>233.7376708984375</ele>
        <time>2012-01-31T14:47:56Z</time>
      </trkpt>
      <trkpt lat="47.586668897420168" lon="18.71317089535296">
        <ele>233.257080078125</ele>
        <time>2012-01-31T14:47:53Z</time>
      </trkpt>
      <trkpt lat="47.586626736447215" lon="18.713158238679171">
        <ele>233.257080078125</ele>
        <time>2012-01-31T14:47:50Z</time>
      </trkpt>
      <trkpt lat="47.586587425321341" lon="18.713143989443779">
        <ele>232.7764892578125</ele>
        <time>2012-01-31T14:47:47Z</time>
      </trkpt>
      <trkpt lat="47.586549958214164" lon="18.713123369961977">
        <ele>232.7764892578125</ele>
        <time>2012-01-31T14:47:44Z</time>
      </trkpt>
      <trkpt lat="47.586513161659241" lon="18.713105851784348">
        <ele>232.2957763671875</ele>
        <time>2012-01-31T14:47:41Z</time>
      </trkpt>
      <trkpt lat="47.586475443094969" lon="18.713092021644115">
        <ele>233.257080078125</ele>
        <time>2012-01-31T14:47:38Z</time>
      </trkpt>
      <trkpt lat="47.586430180817842" lon="18.713083136826754">
        <ele>232.2957763671875</ele>
        <time>2012-01-31T14:47:35Z</time>
      </trkpt>
      <trkpt lat="47.586391791701317" lon="18.713068719953299">
        <ele>232.2957763671875</ele>
        <time>2012-01-31T14:47:32Z</time>
      </trkpt>
      <trkpt lat="47.58635675534606" lon="18.713053883984685">
        <ele>232.2957763671875</ele>
        <time>2012-01-31T14:47:29Z</time>
      </trkpt>
      <trkpt lat="47.586316857486963" lon="18.713041981682181">
        <ele>231.81494140625</ele>
        <time>2012-01-31T14:47:26Z</time>
      </trkpt>
      <trkpt lat="47.586275199428201" lon="18.713033180683851">
        <ele>231.81494140625</ele>
        <time>2012-01-31T14:47:23Z</time>
      </trkpt>
      <trkpt lat="47.586234463378787" lon="18.713018847629428">
        <ele>231.81494140625</ele>
        <time>2012-01-31T14:47:20Z</time>
      </trkpt>
      <trkpt lat="47.586192721500993" lon="18.713005185127258">
        <ele>231.81494140625</ele>
        <time>2012-01-31T14:47:17Z</time>
      </trkpt>
      <trkpt lat="47.586152069270611" lon="18.712987164035439">
        <ele>231.81494140625</ele>
        <time>2012-01-31T14:47:14Z</time>
      </trkpt>
      <trkpt lat="47.586117535829544" lon="18.712968975305557">
        <ele>231.81494140625</ele>
        <time>2012-01-31T14:47:11Z</time>
      </trkpt>
      <trkpt lat="47.586110662668943" lon="18.712920527905226">
        <ele>231.81494140625</ele>
        <time>2012-01-31T14:47:02Z</time>
      </trkpt>
      <trkpt lat="47.586071351543069" lon="18.712934860959649">
        <ele>230.853759765625</ele>
        <time>2012-01-31T14:46:07Z</time>
      </trkpt>
      <trkpt lat="47.586043188348413" lon="18.712953133508563">
        <ele>231.3343505859375</ele>
        <time>2012-01-31T14:46:03Z</time>
      </trkpt>
      <trkpt lat="47.585999770089984" lon="18.712943661957979">
        <ele>231.3343505859375</ele>
        <time>2012-01-31T14:46:00Z</time>
      </trkpt>
      <trkpt lat="47.585954172536731" lon="18.712931340560317">
        <ele>230.373046875</ele>
        <time>2012-01-31T14:45:57Z</time>
      </trkpt>
      <trkpt lat="47.585911760106683" lon="18.712913822382689">
        <ele>230.373046875</ele>
        <time>2012-01-31T14:45:54Z</time>
      </trkpt>
      <trkpt lat="47.585878651589155" lon="18.712899154052138">
        <ele>230.853759765625</ele>
        <time>2012-01-31T14:45:52Z</time>
      </trkpt>
      <trkpt lat="47.585836490616202" lon="18.712878786027431">
        <ele>230.853759765625</ele>
        <time>2012-01-31T14:45:49Z</time>
      </trkpt>
      <trkpt lat="47.585796425119042" lon="18.712864955887198">
        <ele>230.853759765625</ele>
        <time>2012-01-31T14:45:46Z</time>
      </trkpt>
      <trkpt lat="47.585755018517375" lon="18.712850539013743">
        <ele>230.373046875</ele>
        <time>2012-01-31T14:45:43Z</time>
      </trkpt>
      <trkpt lat="47.585726268589497" lon="18.712845845147967">
        <ele>230.373046875</ele>
        <time>2012-01-31T14:45:41Z</time>
      </trkpt>
      <trkpt lat="47.585684442892671" lon="18.712831344455481">
        <ele>230.373046875</ele>
        <time>2012-01-31T14:45:38Z</time>
      </trkpt>
      <trkpt lat="47.585643958300352" lon="18.712815921753645">
        <ele>230.853759765625</ele>
        <time>2012-01-31T14:45:35Z</time>
      </trkpt>
      <trkpt lat="47.585603557527065" lon="18.712806366384029">
        <ele>230.373046875</ele>
        <time>2012-01-31T14:45:32Z</time>
      </trkpt>
      <trkpt lat="47.585573382675648" lon="18.712794464081526">
        <ele>230.373046875</ele>
        <time>2012-01-31T14:45:30Z</time>
      </trkpt>
      <trkpt lat="47.585542453452945" lon="18.712781723588705">
        <ele>230.373046875</ele>
        <time>2012-01-31T14:45:28Z</time>
      </trkpt>
      <trkpt lat="47.585500627756119" lon="18.712768061086535">
        <ele>230.373046875</ele>
        <time>2012-01-31T14:45:25Z</time>
      </trkpt>
      <trkpt lat="47.585456874221563" lon="18.712756074965">
        <ele>230.373046875</ele>
        <time>2012-01-31T14:45:22Z</time>
      </trkpt>
      <trkpt lat="47.585427537560463" lon="18.712746184319258">
        <ele>230.373046875</ele>
        <time>2012-01-31T14:45:20Z</time>
      </trkpt>
      <trkpt lat="47.585396189242601" lon="18.712736126035452">
        <ele>230.373046875</ele>
        <time>2012-01-31T14:45:18Z</time>
      </trkpt>
      <trkpt lat="47.585364086553454" lon="18.712723636999726">
        <ele>229.892333984375</ele>
        <time>2012-01-31T14:45:16Z</time>
      </trkpt>
      <trkpt lat="47.585330475121737" lon="18.71271307580173">
        <ele>229.892333984375</ele>
        <time>2012-01-31T14:45:14Z</time>
      </trkpt>
      <trkpt lat="47.585298959165812" lon="18.712709471583366">
        <ele>229.892333984375</ele>
        <time>2012-01-31T14:45:12Z</time>
      </trkpt>
      <trkpt lat="47.585254199802876" lon="18.712704861536622">
        <ele>229.4117431640625</ele>
        <time>2012-01-31T14:45:09Z</time>
      </trkpt>
      <trkpt lat="47.585215391591191" lon="18.712702682241797">
        <ele>230.373046875</ele>
        <time>2012-01-31T14:45:06Z</time>
      </trkpt>
      <trkpt lat="47.585195694118738" lon="18.712698994204402">
        <ele>228.93115234375</ele>
        <time>2012-01-31T14:44:41Z</time>
      </trkpt>
      <trkpt lat="47.58516644127667" lon="18.712680973112583">
        <ele>229.4117431640625</ele>
        <time>2012-01-31T14:44:38Z</time>
      </trkpt>
      <trkpt lat="47.585127465426922" lon="18.712674351409078">
        <ele>228.93115234375</ele>
        <time>2012-01-31T14:44:35Z</time>
      </trkpt>
      <trkpt lat="47.585087651386857" lon="18.712666053324938">
        <ele>229.4117431640625</ele>
        <time>2012-01-31T14:44:32Z</time>
      </trkpt>
      <trkpt lat="47.585046999156475" lon="18.712661527097225">
        <ele>229.4117431640625</ele>
        <time>2012-01-31T14:44:29Z</time>
      </trkpt>
      <trkpt lat="47.58501841686666" lon="18.712657084688544">
        <ele>228.93115234375</ele>
        <time>2012-01-31T14:44:27Z</time>
      </trkpt>
      <trkpt lat="47.584989499300718" lon="18.712648954242468">
        <ele>228.93115234375</ele>
        <time>2012-01-31T14:44:25Z</time>
      </trkpt>
      <trkpt lat="47.584958150982857" lon="18.712643422186375">
        <ele>228.450439453125</ele>
        <time>2012-01-31T14:44:23Z</time>
      </trkpt>
      <trkpt lat="47.584926467388868" lon="18.712638393044472">
        <ele>228.450439453125</ele>
        <time>2012-01-31T14:44:21Z</time>
      </trkpt>
      <trkpt lat="47.584886653348804" lon="18.712617186829448">
        <ele>227.9697265625</ele>
        <time>2012-01-31T14:44:18Z</time>
      </trkpt>
      <trkpt lat="47.584856729954481" lon="18.712606122717261">
        <ele>227.4891357421875</ele>
        <time>2012-01-31T14:44:16Z</time>
      </trkpt>
      <trkpt lat="47.584828063845634" lon="18.712594220414758">
        <ele>227.4891357421875</ele>
        <time>2012-01-31T14:44:14Z</time>
      </trkpt>
      <trkpt lat="47.584789087995887" lon="18.712583659216762">
        <ele>228.450439453125</ele>
        <time>2012-01-31T14:44:11Z</time>
      </trkpt>
      <trkpt lat="47.584755644202232" lon="18.712572595104575">
        <ele>228.450439453125</ele>
        <time>2012-01-31T14:44:08Z</time>
      </trkpt>
      <trkpt lat="47.584725469350815" lon="18.712561698630452">
        <ele>227.4891357421875</ele>
        <time>2012-01-31T14:44:06Z</time>
      </trkpt>
      <trkpt lat="47.584691690281034" lon="18.71254937723279">
        <ele>227.008544921875</ele>
        <time>2012-01-31T14:44:04Z</time>
      </trkpt>
      <trkpt lat="47.584647266194224" lon="18.712531942874193">
        <ele>227.4891357421875</ele>
        <time>2012-01-31T14:44:01Z</time>
      </trkpt>
      <trkpt lat="47.584619354456663" lon="18.712522136047482">
        <ele>227.008544921875</ele>
        <time>2012-01-31T14:43:59Z</time>
      </trkpt>
      <trkpt lat="47.584586665034294" lon="18.712508892640471">
        <ele>228.450439453125</ele>
        <time>2012-01-31T14:43:57Z</time>
      </trkpt>
      <trkpt lat="47.584552885964513" lon="18.71249564923346">
        <ele>227.008544921875</ele>
        <time>2012-01-31T14:43:55Z</time>
      </trkpt>
      <trkpt lat="47.584518939256668" lon="18.712484082207084">
        <ele>227.008544921875</ele>
        <time>2012-01-31T14:43:53Z</time>
      </trkpt>
      <trkpt lat="47.584487674757838" lon="18.712472096085548">
        <ele>227.008544921875</ele>
        <time>2012-01-31T14:43:51Z</time>
      </trkpt>
      <trkpt lat="47.584457583725452" lon="18.712461367249489">
        <ele>226.52783203125</ele>
        <time>2012-01-31T14:43:49Z</time>
      </trkpt>
      <trkpt lat="47.584426822140813" lon="18.712450554594398">
        <ele>226.047119140625</ele>
        <time>2012-01-31T14:43:47Z</time>
      </trkpt>
      <trkpt lat="47.584396144375205" lon="18.712439993396401">
        <ele>226.52783203125</ele>
        <time>2012-01-31T14:43:45Z</time>
      </trkpt>
      <trkpt lat="47.584363287314773" lon="18.712431276217103">
        <ele>225.5665283203125</ele>
        <time>2012-01-31T14:43:43Z</time>
      </trkpt>
      <trkpt lat="47.584331519901752" lon="18.712422978132963">
        <ele>226.047119140625</ele>
        <time>2012-01-31T14:43:41Z</time>
      </trkpt>
      <trkpt lat="47.584298579022288" lon="18.712415266782045">
        <ele>225.0859375</ele>
        <time>2012-01-31T14:43:39Z</time>
      </trkpt>
      <trkpt lat="47.584266224876046" lon="18.712404621765018">
        <ele>225.5665283203125</ele>
        <time>2012-01-31T14:43:37Z</time>
      </trkpt>
      <trkpt lat="47.584234541282058" lon="18.712395066395402">
        <ele>225.5665283203125</ele>
        <time>2012-01-31T14:43:35Z</time>
      </trkpt>
      <trkpt lat="47.58420336060226" lon="18.712384337559342">
        <ele>225.5665283203125</ele>
        <time>2012-01-31T14:43:33Z</time>
      </trkpt>
      <trkpt lat="47.584170838817954" lon="18.712371177971363">
        <ele>225.0859375</ele>
        <time>2012-01-31T14:43:31Z</time>
      </trkpt>
      <trkpt lat="47.584139155223966" lon="18.712359191849828">
        <ele>224.605224609375</ele>
        <time>2012-01-31T14:43:29Z</time>
      </trkpt>
      <trkpt lat="47.584105543792248" lon="18.712347960099578">
        <ele>224.12451171875</ele>
        <time>2012-01-31T14:43:27Z</time>
      </trkpt>
      <trkpt lat="47.584072183817625" lon="18.712336979806423">
        <ele>224.12451171875</ele>
        <time>2012-01-31T14:43:25Z</time>
      </trkpt>
      <trkpt lat="47.584039662033319" lon="18.712324742227793">
        <ele>224.12451171875</ele>
        <time>2012-01-31T14:43:23Z</time>
      </trkpt>
      <trkpt lat="47.584002697840333" lon="18.712312756106257">
        <ele>224.12451171875</ele>
        <time>2012-01-31T14:43:21Z</time>
      </trkpt>
      <trkpt lat="47.58396933786571" lon="18.712300853803754">
        <ele>223.643798828125</ele>
        <time>2012-01-31T14:43:19Z</time>
      </trkpt>
      <trkpt lat="47.583939163014293" lon="18.712286185473204">
        <ele>223.643798828125</ele>
        <time>2012-01-31T14:43:17Z</time>
      </trkpt>
      <trkpt lat="47.583907563239336" lon="18.712274031713605">
        <ele>223.643798828125</ele>
        <time>2012-01-31T14:43:15Z</time>
      </trkpt>
      <trkpt lat="47.583876717835665" lon="18.712261877954006">
        <ele>223.643798828125</ele>
        <time>2012-01-31T14:43:13Z</time>
      </trkpt>
      <trkpt lat="47.58384813554585" lon="18.712248466908932">
        <ele>222.6824951171875</ele>
        <time>2012-01-31T14:43:11Z</time>
      </trkpt>
      <trkpt lat="47.583816451951861" lon="18.71223765425384">
        <ele>223.1632080078125</ele>
        <time>2012-01-31T14:43:09Z</time>
      </trkpt>
      <trkpt lat="47.583784684538841" lon="18.712227595970035">
        <ele>222.6824951171875</ele>
        <time>2012-01-31T14:43:07Z</time>
      </trkpt>
      <trkpt lat="47.583752162754536" lon="18.712218124419451">
        <ele>222.6824951171875</ele>
        <time>2012-01-31T14:43:05Z</time>
      </trkpt>
      <trkpt lat="47.583715366199613" lon="18.712206138297915">
        <ele>222.6824951171875</ele>
        <time>2012-01-31T14:43:03Z</time>
      </trkpt>
      <trkpt lat="47.583679659292102" lon="18.712197169661522">
        <ele>222.6824951171875</ele>
        <time>2012-01-31T14:43:01Z</time>
      </trkpt>
      <trkpt lat="47.583647053688765" lon="18.712192559614778">
        <ele>222.6824951171875</ele>
        <time>2012-01-31T14:42:59Z</time>
      </trkpt>
      <trkpt lat="47.583613526076078" lon="18.712188368663192">
        <ele>223.1632080078125</ele>
        <time>2012-01-31T14:42:57Z</time>
      </trkpt>
      <trkpt lat="47.583581674844027" lon="18.712182082235813">
        <ele>222.6824951171875</ele>
        <time>2012-01-31T14:42:55Z</time>
      </trkpt>
      <trkpt lat="47.583537586033344" lon="18.712178226560354">
        <ele>222.2017822265625</ele>
        <time>2012-01-31T14:42:52Z</time>
      </trkpt>
      <trkpt lat="47.58350657299161" lon="18.712195158004761">
        <ele>222.2017822265625</ele>
        <time>2012-01-31T14:42:48Z</time>
      </trkpt>
      <trkpt lat="47.583505734801292" lon="18.712207730859518">
        <ele>222.2017822265625</ele>
        <time>2012-01-31T14:42:08Z</time>
      </trkpt>
      <trkpt lat="47.583480756729841" lon="18.712185434997082">
        <ele>221.72119140625</ele>
        <time>2012-01-31T14:42:01Z</time>
      </trkpt>
      <trkpt lat="47.583450246602297" lon="18.71216875500977">
        <ele>221.72119140625</ele>
        <time>2012-01-31T14:41:58Z</time>
      </trkpt>
      <trkpt lat="47.583420658484101" lon="18.712145872414112">
        <ele>221.72119140625</ele>
        <time>2012-01-31T14:41:55Z</time>
      </trkpt>
      <trkpt lat="47.583379670977592" lon="18.712133467197418">
        <ele>221.72119140625</ele>
        <time>2012-01-31T14:41:52Z</time>
      </trkpt>
      <trkpt lat="47.583351423963904" lon="18.712121983990073">
        <ele>221.2406005859375</ele>
        <time>2012-01-31T14:41:50Z</time>
      </trkpt>
      <trkpt lat="47.583323763683438" lon="18.712108572944999">
        <ele>221.2406005859375</ele>
        <time>2012-01-31T14:41:48Z</time>
      </trkpt>
      <trkpt lat="47.583295265212655" lon="18.712097257375717">
        <ele>221.2406005859375</ele>
        <time>2012-01-31T14:41:46Z</time>
      </trkpt>
      <trkpt lat="47.583264587447047" lon="18.712088288739324">
        <ele>221.72119140625</ele>
        <time>2012-01-31T14:41:44Z</time>
      </trkpt>
      <trkpt lat="47.583234580233693" lon="18.712080828845501">
        <ele>221.2406005859375</ele>
        <time>2012-01-31T14:41:42Z</time>
      </trkpt>
      <trkpt lat="47.583205075934529" lon="18.712071776390076">
        <ele>220.7598876953125</ele>
        <time>2012-01-31T14:41:40Z</time>
      </trkpt>
      <trkpt lat="47.583174481987953" lon="18.712059874087572">
        <ele>220.7598876953125</ele>
        <time>2012-01-31T14:41:38Z</time>
      </trkpt>
      <trkpt lat="47.583144223317504" lon="18.712051492184401">
        <ele>220.7598876953125</ele>
        <time>2012-01-31T14:41:36Z</time>
      </trkpt>
      <trkpt lat="47.583101894706488" lon="18.712031124159694">
        <ele>220.7598876953125</ele>
        <time>2012-01-31T14:41:33Z</time>
      </trkpt>
      <trkpt lat="47.583072641864419" lon="18.712015198543668">
        <ele>220.7598876953125</ele>
        <time>2012-01-31T14:41:31Z</time>
      </trkpt>
      <trkpt lat="47.583044562488794" lon="18.712000446394086">
        <ele>221.2406005859375</ele>
        <time>2012-01-31T14:41:29Z</time>
      </trkpt>
      <trkpt lat="47.583002485334873" lon="18.711983766406775">
        <ele>221.72119140625</ele>
        <time>2012-01-31T14:41:26Z</time>
      </trkpt>
      <trkpt lat="47.58296811953187" lon="18.711969768628478">
        <ele>221.2406005859375</ele>
        <time>2012-01-31T14:41:23Z</time>
      </trkpt>
      <trkpt lat="47.582928221672773" lon="18.711960967630148">
        <ele>220.7598876953125</ele>
        <time>2012-01-31T14:41:18Z</time>
      </trkpt>
      <trkpt lat="47.582890251651406" lon="18.711968678981066">
        <ele>220.7598876953125</ele>
        <time>2012-01-31T14:41:13Z</time>
      </trkpt>
      <trkpt lat="47.582896370440722" lon="18.71196742169559">
        <ele>220.7598876953125</ele>
        <time>2012-01-31T14:40:39Z</time>
      </trkpt>
      <trkpt lat="47.58291145786643" lon="18.7119185552001">
        <ele>220.7598876953125</ele>
        <time>2012-01-31T14:40:35Z</time>
      </trkpt>
      <trkpt lat="47.582915732637048" lon="18.711878154426813">
        <ele>221.2406005859375</ele>
        <time>2012-01-31T14:40:29Z</time>
      </trkpt>
      <trkpt lat="47.582914642989635" lon="18.711875723674893">
        <ele>220.2791748046875</ele>
        <time>2012-01-31T14:39:59Z</time>
      </trkpt>
      <trkpt lat="47.582897795364261" lon="18.711874550208449">
        <ele>221.2406005859375</ele>
        <time>2012-01-31T14:39:19Z</time>
      </trkpt>
      <trkpt lat="47.582869632169604" lon="18.711894080042839">
        <ele>221.72119140625</ele>
        <time>2012-01-31T14:39:11Z</time>
      </trkpt>
      <trkpt lat="47.582831494510174" lon="18.711892822757363">
        <ele>221.72119140625</ele>
        <time>2012-01-31T14:39:07Z</time>
      </trkpt>
      <trkpt lat="47.582796541973948" lon="18.711890643462539">
        <ele>222.2017822265625</ele>
        <time>2012-01-31T14:39:04Z</time>
      </trkpt>
      <trkpt lat="47.582761589437723" lon="18.711882764473557">
        <ele>221.72119140625</ele>
        <time>2012-01-31T14:39:01Z</time>
      </trkpt>
      <trkpt lat="47.582727558910847" lon="18.711870023980737">
        <ele>221.72119140625</ele>
        <time>2012-01-31T14:38:58Z</time>
      </trkpt>
      <trkpt lat="47.582693193107843" lon="18.711857870221138">
        <ele>221.2406005859375</ele>
        <time>2012-01-31T14:38:55Z</time>
      </trkpt>
      <trkpt lat="47.582658240571618" lon="18.711842196062207">
        <ele>222.2017822265625</ele>
        <time>2012-01-31T14:38:52Z</time>
      </trkpt>
      <trkpt lat="47.582622030749917" lon="18.711826270446181">
        <ele>221.72119140625</ele>
        <time>2012-01-31T14:38:49Z</time>
      </trkpt>
      <trkpt lat="47.582586659118533" lon="18.711813194677234">
        <ele>221.72119140625</ele>
        <time>2012-01-31T14:38:46Z</time>
      </trkpt>
      <trkpt lat="47.582552628591657" lon="18.711794754490256">
        <ele>222.2017822265625</ele>
        <time>2012-01-31T14:38:43Z</time>
      </trkpt>
      <trkpt lat="47.5825210288167" lon="18.711778242141008">
        <ele>222.2017822265625</ele>
        <time>2012-01-31T14:38:40Z</time>
      </trkpt>
      <trkpt lat="47.58248926140368" lon="18.711766758933663">
        <ele>222.6824951171875</ele>
        <time>2012-01-31T14:38:37Z</time>
      </trkpt>
      <trkpt lat="47.582457829266787" lon="18.71175485663116">
        <ele>222.2017822265625</ele>
        <time>2012-01-31T14:38:34Z</time>
      </trkpt>
      <trkpt lat="47.582423966377974" lon="18.71174018830061">
        <ele>222.2017822265625</ele>
        <time>2012-01-31T14:38:31Z</time>
      </trkpt>
      <trkpt lat="47.582384571433067" lon="18.711731052026153">
        <ele>222.2017822265625</ele>
        <time>2012-01-31T14:38:27Z</time>
      </trkpt>
      <trkpt lat="47.582339057698846" lon="18.711725939065218">
        <ele>222.6824951171875</ele>
        <time>2012-01-31T14:38:17Z</time>
      </trkpt>
      <trkpt lat="47.582298489287496" lon="18.711714623495936">
        <ele>222.6824951171875</ele>
        <time>2012-01-31T14:38:13Z</time>
      </trkpt>
      <trkpt lat="47.582260938361287" lon="18.711710516363382">
        <ele>222.6824951171875</ele>
        <time>2012-01-31T14:38:10Z</time>
      </trkpt>
      <trkpt lat="47.582220453768969" lon="18.711702050641179">
        <ele>222.6824951171875</ele>
        <time>2012-01-31T14:38:07Z</time>
      </trkpt>
      <trkpt lat="47.582180975005031" lon="18.711693584918976">
        <ele>222.6824951171875</ele>
        <time>2012-01-31T14:38:04Z</time>
      </trkpt>
      <trkpt lat="47.582139987498522" lon="18.711681431159377">
        <ele>222.6824951171875</ele>
        <time>2012-01-31T14:38:01Z</time>
      </trkpt>
      <trkpt lat="47.58209933526814" lon="18.711670031771064">
        <ele>222.6824951171875</ele>
        <time>2012-01-31T14:37:58Z</time>
      </trkpt>
      <trkpt lat="47.582062119618058" lon="18.711665170267224">
        <ele>222.6824951171875</ele>
        <time>2012-01-31T14:37:55Z</time>
      </trkpt>
      <trkpt lat="47.582028089091182" lon="18.711659470573068">
        <ele>222.2017822265625</ele>
        <time>2012-01-31T14:37:52Z</time>
      </trkpt>
      <trkpt lat="47.581990119069815" lon="18.711653435602784">
        <ele>222.2017822265625</ele>
        <time>2012-01-31T14:37:49Z</time>
      </trkpt>
      <trkpt lat="47.581951981410384" lon="18.711644718423486">
        <ele>222.2017822265625</ele>
        <time>2012-01-31T14:37:46Z</time>
      </trkpt>
      <trkpt lat="47.581910490989685" lon="18.711640359833837">
        <ele>222.6824951171875</ele>
        <time>2012-01-31T14:37:43Z</time>
      </trkpt>
      <trkpt lat="47.581868916749954" lon="18.711647652089596">
        <ele>221.2406005859375</ele>
        <time>2012-01-31T14:37:40Z</time>
      </trkpt>
      <trkpt lat="47.581826169043779" lon="18.711634827777743">
        <ele>221.2406005859375</ele>
        <time>2012-01-31T14:37:37Z</time>
      </trkpt>
      <trkpt lat="47.581825749948621" lon="18.711589062586427">
        <ele>220.2791748046875</ele>
        <time>2012-01-31T14:33:55Z</time>
      </trkpt>
      <trkpt lat="47.581803454086185" lon="18.711552517488599">
        <ele>220.2791748046875</ele>
        <time>2012-01-31T14:33:43Z</time>
      </trkpt>
      <trkpt lat="47.581740757450461" lon="18.711517145857215">
        <ele>220.2791748046875</ele>
        <time>2012-01-31T14:33:37Z</time>
      </trkpt>
      <trkpt lat="47.581707397475839" lon="18.711503399536014">
        <ele>220.7598876953125</ele>
        <time>2012-01-31T14:33:32Z</time>
      </trkpt>
      <trkpt lat="47.581665068864822" lon="18.711527958512306">
        <ele>219.798583984375</ele>
        <time>2012-01-31T14:32:58Z</time>
      </trkpt>
      <trkpt lat="47.58162978105247" lon="18.711517564952374">
        <ele>220.2791748046875</ele>
        <time>2012-01-31T14:32:50Z</time>
      </trkpt>
      <trkpt lat="47.58159507997334" lon="18.711507925763726">
        <ele>221.2406005859375</ele>
        <time>2012-01-31T14:32:44Z</time>
      </trkpt>
      <trkpt lat="47.581563731655478" lon="18.71149635873735">
        <ele>220.2791748046875</ele>
        <time>2012-01-31T14:32:41Z</time>
      </trkpt>
      <trkpt lat="47.581526264548302" lon="18.711476577445865">
        <ele>220.7598876953125</ele>
        <time>2012-01-31T14:32:37Z</time>
      </trkpt>
      <trkpt lat="47.581496592611074" lon="18.711464926600456">
        <ele>220.2791748046875</ele>
        <time>2012-01-31T14:32:34Z</time>
      </trkpt>
      <trkpt lat="47.581438589841127" lon="18.711439780890942">
        <ele>220.2791748046875</ele>
        <time>2012-01-31T14:32:21Z</time>
      </trkpt>
      <trkpt lat="47.58140061981976" lon="18.711423771455884">
        <ele>219.798583984375</ele>
        <time>2012-01-31T14:32:17Z</time>
      </trkpt>
      <trkpt lat="47.581361727789044" lon="18.711411282420158">
        <ele>220.2791748046875</ele>
        <time>2012-01-31T14:32:13Z</time>
      </trkpt>
      <trkpt lat="47.58132828399539" lon="18.711397955194116">
        <ele>219.798583984375</ele>
        <time>2012-01-31T14:32:10Z</time>
      </trkpt>
      <trkpt lat="47.581296935677528" lon="18.711383370682597">
        <ele>222.2017822265625</ele>
        <time>2012-01-31T14:32:07Z</time>
      </trkpt>
      <trkpt lat="47.581267431378365" lon="18.711371468380094">
        <ele>220.7598876953125</ele>
        <time>2012-01-31T14:32:04Z</time>
      </trkpt>
      <trkpt lat="47.581235999241471" lon="18.711356548592448">
        <ele>221.2406005859375</ele>
        <time>2012-01-31T14:32:01Z</time>
      </trkpt>
      <trkpt lat="47.581203142181039" lon="18.711335090920329">
        <ele>222.2017822265625</ele>
        <time>2012-01-31T14:31:57Z</time>
      </trkpt>
      <trkpt lat="47.581172296777368" lon="18.711323775351048">
        <ele>220.7598876953125</ele>
        <time>2012-01-31T14:31:54Z</time>
      </trkpt>
      <trkpt lat="47.581138350069523" lon="18.711303826421499">
        <ele>221.72119140625</ele>
        <time>2012-01-31T14:31:51Z</time>
      </trkpt>
      <trkpt lat="47.581105828285217" lon="18.711284967139363">
        <ele>221.2406005859375</ele>
        <time>2012-01-31T14:31:48Z</time>
      </trkpt>
      <trkpt lat="47.581071546301246" lon="18.711255630478263">
        <ele>220.7598876953125</ele>
        <time>2012-01-31T14:31:45Z</time>
      </trkpt>
      <trkpt lat="47.581044640392065" lon="18.711212128400803">
        <ele>221.72119140625</ele>
        <time>2012-01-31T14:31:42Z</time>
      </trkpt>
      <trkpt lat="47.581020584329963" lon="18.711165525019169">
        <ele>221.2406005859375</ele>
        <time>2012-01-31T14:31:39Z</time>
      </trkpt>
      <trkpt lat="47.580997198820114" lon="18.711113892495632">
        <ele>221.72119140625</ele>
        <time>2012-01-31T14:31:36Z</time>
      </trkpt>
      <trkpt lat="47.580982195213437" lon="18.711061337962747">
        <ele>221.72119140625</ele>
        <time>2012-01-31T14:31:33Z</time>
      </trkpt>
      <trkpt lat="47.580971047282219" lon="18.71101607568562">
        <ele>220.2791748046875</ele>
        <time>2012-01-31T14:31:30Z</time>
      </trkpt>
      <trkpt lat="47.580959731712937" lon="18.710962431505322">
        <ele>221.72119140625</ele>
        <time>2012-01-31T14:31:27Z</time>
      </trkpt>
      <trkpt lat="47.580950427800417" lon="18.710907027125359">
        <ele>221.2406005859375</ele>
        <time>2012-01-31T14:31:24Z</time>
      </trkpt>
      <trkpt lat="47.580949254333973" lon="18.710851036012173">
        <ele>220.2791748046875</ele>
        <time>2012-01-31T14:31:20Z</time>
      </trkpt>
      <trkpt lat="47.580940453335643" lon="18.710790434852242">
        <ele>221.2406005859375</ele>
        <time>2012-01-31T14:31:17Z</time>
      </trkpt>
      <trkpt lat="47.580934837460518" lon="18.710724050179124">
        <ele>221.2406005859375</ele>
        <time>2012-01-31T14:31:14Z</time>
      </trkpt>
      <trkpt lat="47.580929137766361" lon="18.710658587515354">
        <ele>219.3179931640625</ele>
        <time>2012-01-31T14:31:11Z</time>
      </trkpt>
      <trkpt lat="47.580930646508932" lon="18.710592789575458">
        <ele>220.2791748046875</ele>
        <time>2012-01-31T14:31:08Z</time>
      </trkpt>
      <trkpt lat="47.580929389223456" lon="18.710532439872622">
        <ele>219.798583984375</ele>
        <time>2012-01-31T14:31:05Z</time>
      </trkpt>
      <trkpt lat="47.580918660387397" lon="18.710458930581808">
        <ele>220.2791748046875</ele>
        <time>2012-01-31T14:31:02Z</time>
      </trkpt>
      <trkpt lat="47.580912541598082" lon="18.710393132641912">
        <ele>220.2791748046875</ele>
        <time>2012-01-31T14:30:59Z</time>
      </trkpt>
      <trkpt lat="47.58090608753264" lon="18.710347199812531">
        <ele>219.798583984375</ele>
        <time>2012-01-31T14:30:57Z</time>
      </trkpt>
      <trkpt lat="47.580905416980386" lon="18.710276037454605">
        <ele>219.3179931640625</ele>
        <time>2012-01-31T14:30:54Z</time>
      </trkpt>
      <trkpt lat="47.580904494971037" lon="18.710206970572472">
        <ele>219.798583984375</ele>
        <time>2012-01-31T14:30:51Z</time>
      </trkpt>
      <trkpt lat="47.580903572961688" lon="18.71013798750937">
        <ele>218.3565673828125</ele>
        <time>2012-01-31T14:30:48Z</time>
      </trkpt>
      <trkpt lat="47.580900136381388" lon="18.71007738634944">
        <ele>218.3565673828125</ele>
        <time>2012-01-31T14:30:45Z</time>
      </trkpt>
      <trkpt lat="47.580897454172373" lon="18.71001435443759">
        <ele>219.3179931640625</ele>
        <time>2012-01-31T14:30:42Z</time>
      </trkpt>
      <trkpt lat="47.580895191058517" lon="18.709954675287008">
        <ele>218.8372802734375</ele>
        <time>2012-01-31T14:30:39Z</time>
      </trkpt>
      <trkpt lat="47.580891167744994" lon="18.709897343069315">
        <ele>218.3565673828125</ele>
        <time>2012-01-31T14:30:36Z</time>
      </trkpt>
      <trkpt lat="47.580890664830804" lon="18.709844872355461">
        <ele>217.8759765625</ele>
        <time>2012-01-31T14:30:33Z</time>
      </trkpt>
      <trkpt lat="47.580893095582724" lon="18.709794161841273">
        <ele>218.8372802734375</ele>
        <time>2012-01-31T14:30:30Z</time>
      </trkpt>
      <trkpt lat="47.580888234078884" lon="18.709746384993196">
        <ele>218.3565673828125</ele>
        <time>2012-01-31T14:30:27Z</time>
      </trkpt>
      <trkpt lat="47.580880187451839" lon="18.709690561518073">
        <ele>218.8372802734375</ele>
        <time>2012-01-31T14:30:23Z</time>
      </trkpt>
      <trkpt lat="47.580877337604761" lon="18.709630463272333">
        <ele>218.8372802734375</ele>
        <time>2012-01-31T14:30:18Z</time>
      </trkpt>
      <trkpt lat="47.580866692587733" lon="18.709589643403888">
        <ele>219.3179931640625</ele>
        <time>2012-01-31T14:30:15Z</time>
      </trkpt>
      <trkpt lat="47.580895777791739" lon="18.709578076377511">
        <ele>221.2406005859375</ele>
        <time>2012-01-31T14:29:24Z</time>
      </trkpt>
      <trkpt lat="47.580922851338983" lon="18.709548823535442">
        <ele>219.3179931640625</ele>
        <time>2012-01-31T14:29:20Z</time>
      </trkpt>
      <trkpt lat="47.58094715885818" lon="18.709509344771504">
        <ele>218.8372802734375</ele>
        <time>2012-01-31T14:29:15Z</time>
      </trkpt>
      <trkpt lat="47.58095252327621" lon="18.709457125514746">
        <ele>218.8372802734375</ele>
        <time>2012-01-31T14:29:11Z</time>
      </trkpt>
      <trkpt lat="47.580965179949999" lon="18.709409181028605">
        <ele>218.8372802734375</ele>
        <time>2012-01-31T14:29:08Z</time>
      </trkpt>
      <trkpt lat="47.58097649551928" lon="18.709360733628273">
        <ele>218.8372802734375</ele>
        <time>2012-01-31T14:29:05Z</time>
      </trkpt>
      <trkpt lat="47.580990828573704" lon="18.709312034770846">
        <ele>217.8759765625</ele>
        <time>2012-01-31T14:29:02Z</time>
      </trkpt>
      <trkpt lat="47.581009520217776" lon="18.709265431389213">
        <ele>219.798583984375</ele>
        <time>2012-01-31T14:28:59Z</time>
      </trkpt>
      <trkpt lat="47.581029636785388" lon="18.709224443882704">
        <ele>218.3565673828125</ele>
        <time>2012-01-31T14:28:56Z</time>
      </trkpt>
      <trkpt lat="47.581041287630796" lon="18.70917784050107">
        <ele>217.3953857421875</ele>
        <time>2012-01-31T14:28:53Z</time>
      </trkpt>
      <trkpt lat="47.581049585714936" lon="18.709130398929119">
        <ele>216.4339599609375</ele>
        <time>2012-01-31T14:28:50Z</time>
      </trkpt>
      <trkpt lat="47.581065595149994" lon="18.709076335653663">
        <ele>217.3953857421875</ele>
        <time>2012-01-31T14:28:46Z</time>
      </trkpt>
      <trkpt lat="47.581058386713266" lon="18.709072899073362">
        <ele>219.3179931640625</ele>
        <time>2012-01-31T14:27:50Z</time>
      </trkpt>
      <trkpt lat="47.581074647605419" lon="18.709063678979874">
        <ele>219.3179931640625</ele>
        <time>2012-01-31T14:27:31Z</time>
      </trkpt>
      <trkpt lat="47.581062242388725" lon="18.709047753363848">
        <ele>219.3179931640625</ele>
        <time>2012-01-31T14:27:19Z</time>
      </trkpt>
      <trkpt lat="47.581034163013101" lon="18.709021434187889">
        <ele>219.3179931640625</ele>
        <time>2012-01-31T14:27:15Z</time>
      </trkpt>
      <trkpt lat="47.581015639007092" lon="18.708979859948158">
        <ele>219.3179931640625</ele>
        <time>2012-01-31T14:27:12Z</time>
      </trkpt>
      <trkpt lat="47.580991918221116" lon="18.708944069221616">
        <ele>219.3179931640625</ele>
        <time>2012-01-31T14:27:09Z</time>
      </trkpt>
      <trkpt lat="47.5809720531106" lon="18.708900818601251">
        <ele>219.3179931640625</ele>
        <time>2012-01-31T14:27:06Z</time>
      </trkpt>
      <trkpt lat="47.580955624580383" lon="18.708857148885727">
        <ele>219.3179931640625</ele>
        <time>2012-01-31T14:27:03Z</time>
      </trkpt>
      <trkpt lat="47.580945482477546" lon="18.708812389522791">
        <ele>219.3179931640625</ele>
        <time>2012-01-31T14:27:00Z</time>
      </trkpt>
      <trkpt lat="47.580933328717947" lon="18.708770647644997">
        <ele>219.3179931640625</ele>
        <time>2012-01-31T14:26:57Z</time>
      </trkpt>
      <trkpt lat="47.580925365909934" lon="18.708727564662695">
        <ele>218.8372802734375</ele>
        <time>2012-01-31T14:26:54Z</time>
      </trkpt>
      <trkpt lat="47.580912541598082" lon="18.708671825006604">
        <ele>219.3179931640625</ele>
        <time>2012-01-31T14:26:49Z</time>
      </trkpt>
      <trkpt lat="47.580905165523291" lon="18.708622455596924">
        <ele>218.8372802734375</ele>
        <time>2012-01-31T14:26:45Z</time>
      </trkpt>
      <trkpt lat="47.580889659002423" lon="18.708574930205941">
        <ele>218.3565673828125</ele>
        <time>2012-01-31T14:26:41Z</time>
      </trkpt>
      <trkpt lat="47.580877421423793" lon="18.70852991938591">
        <ele>219.3179931640625</ele>
        <time>2012-01-31T14:26:38Z</time>
      </trkpt>
      <trkpt lat="47.580871470272541" lon="18.708479795604944">
        <ele>218.8372802734375</ele>
        <time>2012-01-31T14:26:35Z</time>
      </trkpt>
      <trkpt lat="47.580863675102592" lon="18.708425564691424">
        <ele>218.8372802734375</ele>
        <time>2012-01-31T14:26:31Z</time>
      </trkpt>
      <trkpt lat="47.580852024257183" lon="18.708381727337837">
        <ele>217.8759765625</ele>
        <time>2012-01-31T14:26:28Z</time>
      </trkpt>
      <trkpt lat="47.580838948488235" lon="18.708330262452364">
        <ele>218.8372802734375</ele>
        <time>2012-01-31T14:26:24Z</time>
      </trkpt>
      <trkpt lat="47.580822687596083" lon="18.708290448412299">
        <ele>218.3565673828125</ele>
        <time>2012-01-31T14:26:21Z</time>
      </trkpt>
      <trkpt lat="47.580810198560357" lon="18.708248035982251">
        <ele>218.3565673828125</ele>
        <time>2012-01-31T14:26:18Z</time>
      </trkpt>
      <trkpt lat="47.580804079771042" lon="18.708207132294774">
        <ele>218.3565673828125</ele>
        <time>2012-01-31T14:26:15Z</time>
      </trkpt>
      <trkpt lat="47.580793853849173" lon="18.70816539041698">
        <ele>218.3565673828125</ele>
        <time>2012-01-31T14:26:12Z</time>
      </trkpt>
      <trkpt lat="47.580785974860191" lon="18.708117445930839">
        <ele>218.3565673828125</ele>
        <time>2012-01-31T14:26:09Z</time>
      </trkpt>
      <trkpt lat="47.580773234367371" lon="18.708072267472744">
        <ele>218.3565673828125</ele>
        <time>2012-01-31T14:26:06Z</time>
      </trkpt>
      <trkpt lat="47.580749345943332" lon="18.708039661869407">
        <ele>217.8759765625</ele>
        <time>2012-01-31T14:26:03Z</time>
      </trkpt>
      <trkpt lat="47.580723529681563" lon="18.708014348521829">
        <ele>217.8759765625</ele>
        <time>2012-01-31T14:26:00Z</time>
      </trkpt>
      <trkpt lat="47.580705173313618" lon="18.707985850051045">
        <ele>217.8759765625</ele>
        <time>2012-01-31T14:25:57Z</time>
      </trkpt>
      <trkpt lat="47.580693019554019" lon="18.707942431792617">
        <ele>217.3953857421875</ele>
        <time>2012-01-31T14:25:53Z</time>
      </trkpt>
      <trkpt lat="47.580673741176724" lon="18.707901863381267">
        <ele>217.3953857421875</ele>
        <time>2012-01-31T14:25:49Z</time>
      </trkpt>
      <trkpt lat="47.580653624609113" lon="18.707860037684441">
        <ele>217.8759765625</ele>
        <time>2012-01-31T14:25:45Z</time>
      </trkpt>
      <trkpt lat="47.580632921308279" lon="18.707814691588283">
        <ele>217.8759765625</ele>
        <time>2012-01-31T14:25:41Z</time>
      </trkpt>
      <trkpt lat="47.580608194693923" lon="18.707774793729186">
        <ele>217.8759765625</ele>
        <time>2012-01-31T14:25:37Z</time>
      </trkpt>
      <trkpt lat="47.580592185258865" lon="18.707731375470757">
        <ele>217.3953857421875</ele>
        <time>2012-01-31T14:25:34Z</time>
      </trkpt>
      <trkpt lat="47.580575756728649" lon="18.707686364650726">
        <ele>216.9146728515625</ele>
        <time>2012-01-31T14:25:31Z</time>
      </trkpt>
      <trkpt lat="47.580573325976729" lon="18.707633977755904">
        <ele>216.9146728515625</ele>
        <time>2012-01-31T14:25:28Z</time>
      </trkpt>
      <trkpt lat="47.580572320148349" lon="18.707582848146558">
        <ele>216.9146728515625</ele>
        <time>2012-01-31T14:25:25Z</time>
      </trkpt>
      <trkpt lat="47.580572236329317" lon="18.707532389089465">
        <ele>216.9146728515625</ele>
        <time>2012-01-31T14:25:22Z</time>
      </trkpt>
      <trkpt lat="47.580576092004776" lon="18.707479247823358">
        <ele>217.3953857421875</ele>
        <time>2012-01-31T14:25:19Z</time>
      </trkpt>
      <trkpt lat="47.580588245764375" lon="18.707424262538552">
        <ele>217.3953857421875</ele>
        <time>2012-01-31T14:25:16Z</time>
      </trkpt>
      <trkpt lat="47.5806007348001" lon="18.707366175949574">
        <ele>216.4339599609375</ele>
        <time>2012-01-31T14:25:13Z</time>
      </trkpt>
      <trkpt lat="47.580611882731318" lon="18.707308256998658">
        <ele>216.9146728515625</ele>
        <time>2012-01-31T14:25:10Z</time>
      </trkpt>
      <trkpt lat="47.580623533576727" lon="18.707253523170948">
        <ele>216.9146728515625</ele>
        <time>2012-01-31T14:25:07Z</time>
      </trkpt>
      <trkpt lat="47.580634178593755" lon="18.707196777686477">
        <ele>216.4339599609375</ele>
        <time>2012-01-31T14:25:04Z</time>
      </trkpt>
      <trkpt lat="47.58064809255302" lon="18.707144474610686">
        <ele>216.4339599609375</ele>
        <time>2012-01-31T14:25:01Z</time>
      </trkpt>
      <trkpt lat="47.580659659579396" lon="18.707087896764278">
        <ele>216.9146728515625</ele>
        <time>2012-01-31T14:24:56Z</time>
      </trkpt>
      <trkpt lat="47.580669382587075" lon="18.70702788233757">
        <ele>217.3953857421875</ele>
        <time>2012-01-31T14:24:53Z</time>
      </trkpt>
      <trkpt lat="47.580682877451181" lon="18.706967448815703">
        <ele>216.4339599609375</ele>
        <time>2012-01-31T14:24:50Z</time>
      </trkpt>
      <trkpt lat="47.580697126686573" lon="18.706908859312534">
        <ele>216.4339599609375</ele>
        <time>2012-01-31T14:24:47Z</time>
      </trkpt>
      <trkpt lat="47.580709028989077" lon="18.706850185990334">
        <ele>216.4339599609375</ele>
        <time>2012-01-31T14:24:44Z</time>
      </trkpt>
      <trkpt lat="47.580721266567707" lon="18.706789668649435">
        <ele>216.9146728515625</ele>
        <time>2012-01-31T14:24:41Z</time>
      </trkpt>
      <trkpt lat="47.58072922937572" lon="18.706730240955949">
        <ele>216.9146728515625</ele>
        <time>2012-01-31T14:24:38Z</time>
      </trkpt>
      <trkpt lat="47.58073995821178" lon="18.706671483814716">
        <ele>216.4339599609375</ele>
        <time>2012-01-31T14:24:35Z</time>
      </trkpt>
      <trkpt lat="47.580749848857522" lon="18.706609960645437">
        <ele>215.9532470703125</ele>
        <time>2012-01-31T14:24:32Z</time>
      </trkpt>
      <trkpt lat="47.580756638199091" lon="18.706548856571317">
        <ele>215.9532470703125</ele>
        <time>2012-01-31T14:24:29Z</time>
      </trkpt>
      <trkpt lat="47.58076636120677" lon="18.706488339230418">
        <ele>216.4339599609375</ele>
        <time>2012-01-31T14:24:26Z</time>
      </trkpt>
      <trkpt lat="47.580775832757354" lon="18.706425642594695">
        <ele>215.9532470703125</ele>
        <time>2012-01-31T14:24:23Z</time>
      </trkpt>
      <trkpt lat="47.580781867727637" lon="18.706364370882511">
        <ele>215.47265625</ele>
        <time>2012-01-31T14:24:20Z</time>
      </trkpt>
      <trkpt lat="47.580790165811777" lon="18.706302344799042">
        <ele>215.9532470703125</ele>
        <time>2012-01-31T14:24:17Z</time>
      </trkpt>
      <trkpt lat="47.580798463895917" lon="18.706240151077509">
        <ele>215.9532470703125</ele>
        <time>2012-01-31T14:24:14Z</time>
      </trkpt>
      <trkpt lat="47.580805839970708" lon="18.706179885193706">
        <ele>216.4339599609375</ele>
        <time>2012-01-31T14:24:11Z</time>
      </trkpt>
      <trkpt lat="47.580812964588404" lon="18.706118948757648">
        <ele>215.9532470703125</ele>
        <time>2012-01-31T14:24:08Z</time>
      </trkpt>
      <trkpt lat="47.580820675939322" lon="18.706060443073511">
        <ele>215.47265625</ele>
        <time>2012-01-31T14:24:05Z</time>
      </trkpt>
      <trkpt lat="47.580825285986066" lon="18.706000344827771">
        <ele>215.47265625</ele>
        <time>2012-01-31T14:24:02Z</time>
      </trkpt>
      <trkpt lat="47.580831488594413" lon="18.705942090600729">
        <ele>215.9532470703125</ele>
        <time>2012-01-31T14:23:59Z</time>
      </trkpt>
      <trkpt lat="47.580842133611441" lon="18.705883333459496">
        <ele>215.47265625</ele>
        <time>2012-01-31T14:23:56Z</time>
      </trkpt>
      <trkpt lat="47.580851269885898" lon="18.705825246870518">
        <ele>215.9532470703125</ele>
        <time>2012-01-31T14:23:53Z</time>
      </trkpt>
      <trkpt lat="47.580857388675213" lon="18.705782582983375">
        <ele>215.9532470703125</ele>
        <time>2012-01-31T14:23:51Z</time>
      </trkpt>
      <trkpt lat="47.580863339826465" lon="18.705740086734295">
        <ele>215.9532470703125</ele>
        <time>2012-01-31T14:23:49Z</time>
      </trkpt>
      <trkpt lat="47.580868871882558" lon="18.705695830285549">
        <ele>215.47265625</ele>
        <time>2012-01-31T14:23:47Z</time>
      </trkpt>
      <trkpt lat="47.580875158309937" lon="18.705649143084884">
        <ele>215.47265625</ele>
        <time>2012-01-31T14:23:45Z</time>
      </trkpt>
      <trkpt lat="47.580882450565696" lon="18.705604635179043">
        <ele>215.47265625</ele>
        <time>2012-01-31T14:23:43Z</time>
      </trkpt>
      <trkpt lat="47.580891419202089" lon="18.705541351810098">
        <ele>214.991943359375</ele>
        <time>2012-01-31T14:23:40Z</time>
      </trkpt>
      <trkpt lat="47.58089586161077" lon="18.705497179180384">
        <ele>214.991943359375</ele>
        <time>2012-01-31T14:23:38Z</time>
      </trkpt>
      <trkpt lat="47.580900387838483" lon="18.705452168360353">
        <ele>214.991943359375</ele>
        <time>2012-01-31T14:23:36Z</time>
      </trkpt>
      <trkpt lat="47.580908099189401" lon="18.705391986295581">
        <ele>214.991943359375</ele>
        <time>2012-01-31T14:23:33Z</time>
      </trkpt>
      <trkpt lat="47.580912793055177" lon="18.705348568037152">
        <ele>214.51123046875</ele>
        <time>2012-01-31T14:23:31Z</time>
      </trkpt>
      <trkpt lat="47.580913379788399" lon="18.705303389579058">
        <ele>214.0306396484375</ele>
        <time>2012-01-31T14:23:29Z</time>
      </trkpt>
      <trkpt lat="47.580919163301587" lon="18.705238346010447">
        <ele>214.991943359375</ele>
        <time>2012-01-31T14:23:26Z</time>
      </trkpt>
      <trkpt lat="47.580924527719617" lon="18.705195346847177">
        <ele>213.550048828125</ele>
        <time>2012-01-31T14:23:24Z</time>
      </trkpt>
      <trkpt lat="47.580928718671203" lon="18.705151677131653">
        <ele>214.0306396484375</ele>
        <time>2012-01-31T14:23:22Z</time>
      </trkpt>
      <trkpt lat="47.580935340374708" lon="18.705108175054193">
        <ele>213.550048828125</ele>
        <time>2012-01-31T14:23:20Z</time>
      </trkpt>
      <trkpt lat="47.580941040068865" lon="18.705064253881574">
        <ele>214.51123046875</ele>
        <time>2012-01-31T14:23:18Z</time>
      </trkpt>
      <trkpt lat="47.580947577953339" lon="18.70502058416605">
        <ele>213.550048828125</ele>
        <time>2012-01-31T14:23:16Z</time>
      </trkpt>
      <trkpt lat="47.58095595985651" lon="18.70497515425086">
        <ele>214.51123046875</ele>
        <time>2012-01-31T14:23:14Z</time>
      </trkpt>
      <trkpt lat="47.580966521054506" lon="18.704930227249861">
        <ele>214.51123046875</ele>
        <time>2012-01-31T14:23:12Z</time>
      </trkpt>
      <trkpt lat="47.580976746976376" lon="18.704884462058544">
        <ele>214.0306396484375</ele>
        <time>2012-01-31T14:23:10Z</time>
      </trkpt>
      <trkpt lat="47.58098672144115" lon="18.704838445410132">
        <ele>214.0306396484375</ele>
        <time>2012-01-31T14:23:08Z</time>
      </trkpt>
      <trkpt lat="47.58099501952529" lon="18.704795362427831">
        <ele>214.51123046875</ele>
        <time>2012-01-31T14:23:06Z</time>
      </trkpt>
      <trkpt lat="47.581004993990064" lon="18.704749429598451">
        <ele>214.0306396484375</ele>
        <time>2012-01-31T14:23:04Z</time>
      </trkpt>
      <trkpt lat="47.581017650663853" lon="18.704704083502293">
        <ele>213.550048828125</ele>
        <time>2012-01-31T14:23:02Z</time>
      </trkpt>
      <trkpt lat="47.581027625128627" lon="18.704658318310976">
        <ele>214.0306396484375</ele>
        <time>2012-01-31T14:23:00Z</time>
      </trkpt>
      <trkpt lat="47.581033743917942" lon="18.704615067690611">
        <ele>214.0306396484375</ele>
        <time>2012-01-31T14:22:58Z</time>
      </trkpt>
      <trkpt lat="47.581046316772699" lon="18.70457399636507">
        <ele>214.0306396484375</ele>
        <time>2012-01-31T14:22:56Z</time>
      </trkpt>
      <trkpt lat="47.581059476360679" lon="18.704533176496625">
        <ele>214.0306396484375</ele>
        <time>2012-01-31T14:22:54Z</time>
      </trkpt>
      <trkpt lat="47.581069618463516" lon="18.704488249495625">
        <ele>214.0306396484375</ele>
        <time>2012-01-31T14:22:52Z</time>
      </trkpt>
      <trkpt lat="47.581078419461846" lon="18.704441981390119">
        <ele>213.550048828125</ele>
        <time>2012-01-31T14:22:50Z</time>
      </trkpt>
      <trkpt lat="47.581083364784718" lon="18.704397222027183">
        <ele>213.550048828125</ele>
        <time>2012-01-31T14:22:48Z</time>
      </trkpt>
      <trkpt lat="47.581092668697238" lon="18.704353468492627">
        <ele>213.550048828125</ele>
        <time>2012-01-31T14:22:46Z</time>
      </trkpt>
      <trkpt lat="47.581102224066854" lon="18.704307451844215">
        <ele>213.550048828125</ele>
        <time>2012-01-31T14:22:44Z</time>
      </trkpt>
      <trkpt lat="47.581112952902913" lon="18.704260177910328">
        <ele>214.0306396484375</ele>
        <time>2012-01-31T14:22:42Z</time>
      </trkpt>
      <trkpt lat="47.581121250987053" lon="18.704213993623853">
        <ele>214.0306396484375</ele>
        <time>2012-01-31T14:22:40Z</time>
      </trkpt>
      <trkpt lat="47.581134494394064" lon="18.704149955883622">
        <ele>214.0306396484375</ele>
        <time>2012-01-31T14:22:37Z</time>
      </trkpt>
      <trkpt lat="47.58114212192595" lon="18.704106034711003">
        <ele>213.550048828125</ele>
        <time>2012-01-31T14:22:35Z</time>
      </trkpt>
      <trkpt lat="47.581155616790056" lon="18.704043673351407">
        <ele>214.51123046875</ele>
        <time>2012-01-31T14:22:32Z</time>
      </trkpt>
      <trkpt lat="47.581168776378036" lon="18.703985754400492">
        <ele>214.991943359375</ele>
        <time>2012-01-31T14:22:29Z</time>
      </trkpt>
      <trkpt lat="47.58118168450892" lon="18.70392557233572">
        <ele>214.991943359375</ele>
        <time>2012-01-31T14:22:26Z</time>
      </trkpt>
      <trkpt lat="47.581193670630455" lon="18.703866731375456">
        <ele>214.991943359375</ele>
        <time>2012-01-31T14:22:23Z</time>
      </trkpt>
      <trkpt lat="47.581204148009419" lon="18.703822139650583">
        <ele>214.991943359375</ele>
        <time>2012-01-31T14:22:21Z</time>
      </trkpt>
      <trkpt lat="47.581214625388384" lon="18.703758772462606">
        <ele>214.51123046875</ele>
        <time>2012-01-31T14:22:18Z</time>
      </trkpt>
      <trkpt lat="47.58122518658638" lon="18.703696578741074">
        <ele>214.51123046875</ele>
        <time>2012-01-31T14:22:15Z</time>
      </trkpt>
      <trkpt lat="47.58123298175633" lon="18.703654585406184">
        <ele>214.991943359375</ele>
        <time>2012-01-31T14:22:13Z</time>
      </trkpt>
      <trkpt lat="47.581240274012089" lon="18.703610580414534">
        <ele>214.991943359375</ele>
        <time>2012-01-31T14:22:11Z</time>
      </trkpt>
      <trkpt lat="47.581250080838799" lon="18.703548554331064">
        <ele>214.51123046875</ele>
        <time>2012-01-31T14:22:08Z</time>
      </trkpt>
      <trkpt lat="47.581262988969684" lon="18.703489461913705">
        <ele>214.991943359375</ele>
        <time>2012-01-31T14:22:05Z</time>
      </trkpt>
      <trkpt lat="47.581270029768348" lon="18.703446546569467">
        <ele>214.991943359375</ele>
        <time>2012-01-31T14:22:03Z</time>
      </trkpt>
      <trkpt lat="47.581274975091219" lon="18.703399188816547">
        <ele>215.47265625</ele>
        <time>2012-01-31T14:22:01Z</time>
      </trkpt>
      <trkpt lat="47.581277238205075" lon="18.703353423625231">
        <ele>214.991943359375</ele>
        <time>2012-01-31T14:21:59Z</time>
      </trkpt>
      <trkpt lat="47.581279836595058" lon="18.703308831900358">
        <ele>214.991943359375</ele>
        <time>2012-01-31T14:21:57Z</time>
      </trkpt>
      <trkpt lat="47.5812828540802" lon="18.703263569623232">
        <ele>215.47265625</ele>
        <time>2012-01-31T14:21:55Z</time>
      </trkpt>
      <trkpt lat="47.58128478191793" lon="18.703203219920397">
        <ele>216.4339599609375</ele>
        <time>2012-01-31T14:21:52Z</time>
      </trkpt>
      <trkpt lat="47.581293080002069" lon="18.703135661780834">
        <ele>215.9532470703125</ele>
        <time>2012-01-31T14:21:43Z</time>
      </trkpt>
      <trkpt lat="47.581292828544974" lon="18.703082520514727">
        <ele>215.9532470703125</ele>
        <time>2012-01-31T14:21:40Z</time>
      </trkpt>
      <trkpt lat="47.58129458874464" lon="18.703029463067651">
        <ele>215.47265625</ele>
        <time>2012-01-31T14:21:37Z</time>
      </trkpt>
      <trkpt lat="47.58129458874464" lon="18.70297615416348">
        <ele>215.9532470703125</ele>
        <time>2012-01-31T14:21:34Z</time>
      </trkpt>
      <trkpt lat="47.581295594573021" lon="18.702922174707055">
        <ele>215.9532470703125</ele>
        <time>2012-01-31T14:21:31Z</time>
      </trkpt>
      <trkpt lat="47.581296935677528" lon="18.702870793640614">
        <ele>215.47265625</ele>
        <time>2012-01-31T14:21:28Z</time>
      </trkpt>
      <trkpt lat="47.581294337287545" lon="18.702811952680349">
        <ele>214.991943359375</ele>
        <time>2012-01-31T14:21:25Z</time>
      </trkpt>
      <trkpt lat="47.581292828544974" lon="18.702755374833941">
        <ele>214.991943359375</ele>
        <time>2012-01-31T14:21:22Z</time>
      </trkpt>
      <trkpt lat="47.58128872141242" lon="18.702699970453978">
        <ele>215.47265625</ele>
        <time>2012-01-31T14:21:19Z</time>
      </trkpt>
      <trkpt lat="47.581286458298564" lon="18.702643727883697">
        <ele>214.991943359375</ele>
        <time>2012-01-31T14:21:16Z</time>
      </trkpt>
      <trkpt lat="47.581282937899232" lon="18.702585473656654">
        <ele>215.47265625</ele>
        <time>2012-01-31T14:21:13Z</time>
      </trkpt>
      <trkpt lat="47.581278998404741" lon="18.702524872496724">
        <ele>215.47265625</ele>
        <time>2012-01-31T14:21:10Z</time>
      </trkpt>
      <trkpt lat="47.58127748966217" lon="18.70246552862227">
        <ele>214.991943359375</ele>
        <time>2012-01-31T14:21:07Z</time>
      </trkpt>
      <trkpt lat="47.581271873787045" lon="18.702404843643308">
        <ele>215.47265625</ele>
        <time>2012-01-31T14:21:04Z</time>
      </trkpt>
      <trkpt lat="47.581260977312922" lon="18.702347679063678">
        <ele>214.991943359375</ele>
        <time>2012-01-31T14:21:01Z</time>
      </trkpt>
      <trkpt lat="47.58125058375299" lon="18.702289089560509">
        <ele>215.9532470703125</ele>
        <time>2012-01-31T14:20:58Z</time>
      </trkpt>
      <trkpt lat="47.581241363659501" lon="18.70223443955183">
        <ele>215.9532470703125</ele>
        <time>2012-01-31T14:20:55Z</time>
      </trkpt>
      <trkpt lat="47.581235496327281" lon="18.702174844220281">
        <ele>215.47265625</ele>
        <time>2012-01-31T14:20:51Z</time>
      </trkpt>
      <trkpt lat="47.581238346174359" lon="18.702124888077378">
        <ele>215.47265625</ele>
        <time>2012-01-31T14:20:48Z</time>
      </trkpt>
      <trkpt lat="47.581243626773357" lon="18.702071495354176">
        <ele>214.991943359375</ele>
        <time>2012-01-31T14:20:45Z</time>
      </trkpt>
      <trkpt lat="47.581247566267848" lon="18.702016677707434">
        <ele>214.991943359375</ele>
        <time>2012-01-31T14:20:42Z</time>
      </trkpt>
      <trkpt lat="47.581252176314592" lon="18.701960854232311">
        <ele>215.47265625</ele>
        <time>2012-01-31T14:20:39Z</time>
      </trkpt>
      <trkpt lat="47.581251841038465" lon="18.701898576691747">
        <ele>214.991943359375</ele>
        <time>2012-01-31T14:20:36Z</time>
      </trkpt>
      <trkpt lat="47.581253936514258" lon="18.701836634427309">
        <ele>214.51123046875</ele>
        <time>2012-01-31T14:20:33Z</time>
      </trkpt>
      <trkpt lat="47.581251170486212" lon="18.701774189248681">
        <ele>214.51123046875</ele>
        <time>2012-01-31T14:20:30Z</time>
      </trkpt>
      <trkpt lat="47.581247733905911" lon="18.701729346066713">
        <ele>214.991943359375</ele>
        <time>2012-01-31T14:20:28Z</time>
      </trkpt>
      <trkpt lat="47.581242453306913" lon="18.701681485399604">
        <ele>214.51123046875</ele>
        <time>2012-01-31T14:20:26Z</time>
      </trkpt>
      <trkpt lat="47.581237088888884" lon="18.701636474579573">
        <ele>214.51123046875</ele>
        <time>2012-01-31T14:20:24Z</time>
      </trkpt>
      <trkpt lat="47.581230048090219" lon="18.701590541750193">
        <ele>214.0306396484375</ele>
        <time>2012-01-31T14:20:22Z</time>
      </trkpt>
      <trkpt lat="47.58122518658638" lon="18.701546285301447">
        <ele>214.991943359375</ele>
        <time>2012-01-31T14:20:20Z</time>
      </trkpt>
      <trkpt lat="47.581222169101238" lon="18.701500268653035">
        <ele>214.51123046875</ele>
        <time>2012-01-31T14:20:18Z</time>
      </trkpt>
      <trkpt lat="47.581215547397733" lon="18.701450899243355">
        <ele>214.51123046875</ele>
        <time>2012-01-31T14:20:16Z</time>
      </trkpt>
      <trkpt lat="47.581212529912591" lon="18.70140329003334">
        <ele>215.47265625</ele>
        <time>2012-01-31T14:20:14Z</time>
      </trkpt>
      <trkpt lat="47.581208171322942" lon="18.701356938108802">
        <ele>214.51123046875</ele>
        <time>2012-01-31T14:20:12Z</time>
      </trkpt>
      <trkpt lat="47.581202890723944" lon="18.7013104185462">
        <ele>214.51123046875</ele>
        <time>2012-01-31T14:20:10Z</time>
      </trkpt>
      <trkpt lat="47.58119635283947" lon="18.701268676668406">
        <ele>214.51123046875</ele>
        <time>2012-01-31T14:20:08Z</time>
      </trkpt>
      <trkpt lat="47.581191658973694" lon="18.701224084943533">
        <ele>214.51123046875</ele>
        <time>2012-01-31T14:20:06Z</time>
      </trkpt>
      <trkpt lat="47.581185791641474" lon="18.701179241761565">
        <ele>214.51123046875</ele>
        <time>2012-01-31T14:20:04Z</time>
      </trkpt>
      <trkpt lat="47.581178667023778" lon="18.701135572046041">
        <ele>214.991943359375</ele>
        <time>2012-01-31T14:20:02Z</time>
      </trkpt>
      <trkpt lat="47.581173051148653" lon="18.701089220121503">
        <ele>214.0306396484375</ele>
        <time>2012-01-31T14:20:00Z</time>
      </trkpt>
      <trkpt lat="47.581165172159672" lon="18.701040353626013">
        <ele>214.0306396484375</ele>
        <time>2012-01-31T14:19:58Z</time>
      </trkpt>
      <trkpt lat="47.581156538799405" lon="18.700994588434696">
        <ele>214.0306396484375</ele>
        <time>2012-01-31T14:19:56Z</time>
      </trkpt>
      <trkpt lat="47.58115142583847" lon="18.700948571786284">
        <ele>214.0306396484375</ele>
        <time>2012-01-31T14:19:54Z</time>
      </trkpt>
      <trkpt lat="47.581144468858838" lon="18.700902974233031">
        <ele>214.0306396484375</ele>
        <time>2012-01-31T14:19:52Z</time>
      </trkpt>
      <trkpt lat="47.581135919317603" lon="18.700856873765588">
        <ele>213.550048828125</ele>
        <time>2012-01-31T14:19:50Z</time>
      </trkpt>
      <trkpt lat="47.581127369776368" lon="18.700808761641383">
        <ele>213.550048828125</ele>
        <time>2012-01-31T14:19:48Z</time>
      </trkpt>
      <trkpt lat="47.581122424453497" lon="18.700762744992971">
        <ele>213.550048828125</ele>
        <time>2012-01-31T14:19:46Z</time>
      </trkpt>
      <trkpt lat="47.581115551292896" lon="18.700715135782957">
        <ele>213.550048828125</ele>
        <time>2012-01-31T14:19:44Z</time>
      </trkpt>
      <trkpt lat="47.581107337027788" lon="18.700673058629036">
        <ele>213.550048828125</ele>
        <time>2012-01-31T14:19:42Z</time>
      </trkpt>
      <trkpt lat="47.581097781658173" lon="18.700629137456417">
        <ele>213.0693359375</ele>
        <time>2012-01-31T14:19:40Z</time>
      </trkpt>
      <trkpt lat="47.581088896840811" lon="18.700587982311845">
        <ele>213.0693359375</ele>
        <time>2012-01-31T14:19:38Z</time>
      </trkpt>
      <trkpt lat="47.581082861870527" lon="18.700544228777289">
        <ele>213.0693359375</ele>
        <time>2012-01-31T14:19:36Z</time>
      </trkpt>
      <trkpt lat="47.581072133034468" lon="18.700489578768611">
        <ele>213.0693359375</ele>
        <time>2012-01-31T14:19:33Z</time>
      </trkpt>
      <trkpt lat="47.581055453047156" lon="18.700453536584973">
        <ele>213.550048828125</ele>
        <time>2012-01-31T14:19:31Z</time>
      </trkpt>
      <trkpt lat="47.58104539476335" lon="18.700398048385978">
        <ele>213.550048828125</ele>
        <time>2012-01-31T14:19:28Z</time>
      </trkpt>
      <trkpt lat="47.581032067537308" lon="18.700356557965279">
        <ele>213.550048828125</ele>
        <time>2012-01-31T14:19:25Z</time>
      </trkpt>
      <trkpt lat="47.581049669533968" lon="18.700368292629719">
        <ele>214.51123046875</ele>
        <time>2012-01-31T14:18:40Z</time>
      </trkpt>
      <trkpt lat="47.581011531874537" lon="18.700348259881139">
        <ele>214.51123046875</ele>
        <time>2012-01-31T14:18:09Z</time>
      </trkpt>
      <trkpt lat="47.581034246832132" lon="18.700309451669455">
        <ele>214.51123046875</ele>
        <time>2012-01-31T14:18:05Z</time>
      </trkpt>
      <trkpt lat="47.581057380884886" lon="18.700272152200341">
        <ele>214.0306396484375</ele>
        <time>2012-01-31T14:18:02Z</time>
      </trkpt>
      <trkpt lat="47.581091746687889" lon="18.700231499969959">
        <ele>212.588623046875</ele>
        <time>2012-01-31T14:17:59Z</time>
      </trkpt>
      <trkpt lat="47.581123849377036" lon="18.700219262391329">
        <ele>213.550048828125</ele>
        <time>2012-01-31T14:17:55Z</time>
      </trkpt>
      <trkpt lat="47.581159975379705" lon="18.700217083096504">
        <ele>213.550048828125</ele>
        <time>2012-01-31T14:17:51Z</time>
      </trkpt>
      <trkpt lat="47.581191323697567" lon="18.700236277654767">
        <ele>213.0693359375</ele>
        <time>2012-01-31T14:17:47Z</time>
      </trkpt>
      <trkpt lat="47.581228455528617" lon="18.700252370908856">
        <ele>214.0306396484375</ele>
        <time>2012-01-31T14:17:41Z</time>
      </trkpt>
      <trkpt lat="47.581248739734292" lon="18.700243821367621">
        <ele>214.51123046875</ele>
        <time>2012-01-31T14:16:51Z</time>
      </trkpt>
      <trkpt lat="47.581251841038465" lon="18.700222363695502">
        <ele>214.991943359375</ele>
        <time>2012-01-31T14:16:06Z</time>
      </trkpt>
      <trkpt lat="47.58128335699439" lon="18.700173832476139">
        <ele>215.47265625</ele>
        <time>2012-01-31T14:15:56Z</time>
      </trkpt>
      <trkpt lat="47.581320740282536" lon="18.70014457963407">
        <ele>215.9532470703125</ele>
        <time>2012-01-31T14:15:52Z</time>
      </trkpt>
      <trkpt lat="47.581349154934287" lon="18.700116416439414">
        <ele>215.9532470703125</ele>
        <time>2012-01-31T14:15:48Z</time>
      </trkpt>
      <trkpt lat="47.581369020044804" lon="18.700078446418047">
        <ele>216.4339599609375</ele>
        <time>2012-01-31T14:15:45Z</time>
      </trkpt>
      <trkpt lat="47.581387124955654" lon="18.700018180534244">
        <ele>216.4339599609375</ele>
        <time>2012-01-31T14:15:41Z</time>
      </trkpt>
      <trkpt lat="47.58138494566083" lon="18.699969733133912">
        <ele>216.4339599609375</ele>
        <time>2012-01-31T14:15:38Z</time>
      </trkpt>
      <trkpt lat="47.581379497423768" lon="18.699918016791344">
        <ele>216.4339599609375</ele>
        <time>2012-01-31T14:15:35Z</time>
      </trkpt>
      <trkpt lat="47.58137421682477" lon="18.699864037334919">
        <ele>216.4339599609375</ele>
        <time>2012-01-31T14:15:32Z</time>
      </trkpt>
      <trkpt lat="47.581370361149311" lon="18.699810393154621">
        <ele>216.4339599609375</ele>
        <time>2012-01-31T14:15:29Z</time>
      </trkpt>
      <trkpt lat="47.581362063065171" lon="18.699741661548615">
        <ele>215.9532470703125</ele>
        <time>2012-01-31T14:15:26Z</time>
      </trkpt>
      <trkpt lat="47.581359045580029" lon="18.699681730940938">
        <ele>216.9146728515625</ele>
        <time>2012-01-31T14:15:23Z</time>
      </trkpt>
      <trkpt lat="47.58135418407619" lon="18.699630182236433">
        <ele>216.4339599609375</ele>
        <time>2012-01-31T14:15:20Z</time>
      </trkpt>
      <trkpt lat="47.58135762065649" lon="18.699581064283848">
        <ele>216.4339599609375</ele>
        <time>2012-01-31T14:15:17Z</time>
      </trkpt>
      <trkpt lat="47.58137664757669" lon="18.699530018493533">
        <ele>216.4339599609375</ele>
        <time>2012-01-31T14:15:14Z</time>
      </trkpt>
      <trkpt lat="47.581391399726272" lon="18.699481738731265">
        <ele>216.4339599609375</ele>
        <time>2012-01-31T14:15:11Z</time>
      </trkpt>
      <trkpt lat="47.581397937610745" lon="18.699432536959648">
        <ele>216.4339599609375</ele>
        <time>2012-01-31T14:15:08Z</time>
      </trkpt>
      <trkpt lat="47.581411097198725" lon="18.699385430663824">
        <ele>216.9146728515625</ele>
        <time>2012-01-31T14:15:05Z</time>
      </trkpt>
      <trkpt lat="47.581424256786704" lon="18.699333379045129">
        <ele>216.4339599609375</ele>
        <time>2012-01-31T14:15:02Z</time>
      </trkpt>
      <trkpt lat="47.581439428031445" lon="18.699284177273512">
        <ele>216.4339599609375</ele>
        <time>2012-01-31T14:14:59Z</time>
      </trkpt>
      <trkpt lat="47.581454096361995" lon="18.699234556406736">
        <ele>215.9532470703125</ele>
        <time>2012-01-31T14:14:56Z</time>
      </trkpt>
      <trkpt lat="47.581474799662828" lon="18.699188372120261">
        <ele>216.4339599609375</ele>
        <time>2012-01-31T14:14:53Z</time>
      </trkpt>
      <trkpt lat="47.581492150202394" lon="18.699132381007075">
        <ele>216.4339599609375</ele>
        <time>2012-01-31T14:14:50Z</time>
      </trkpt>
      <trkpt lat="47.581500364467502" lon="18.699075048789382">
        <ele>216.4339599609375</ele>
        <time>2012-01-31T14:14:47Z</time>
      </trkpt>
      <trkpt lat="47.581516792997718" lon="18.699019560590386">
        <ele>216.4339599609375</ele>
        <time>2012-01-31T14:14:44Z</time>
      </trkpt>
      <trkpt lat="47.581529365852475" lon="18.698964156210423">
        <ele>216.9146728515625</ele>
        <time>2012-01-31T14:14:41Z</time>
      </trkpt>
      <trkpt lat="47.581536071375012" lon="18.698905566707253">
        <ele>217.3953857421875</ele>
        <time>2012-01-31T14:14:38Z</time>
      </trkpt>
      <trkpt lat="47.581553757190704" lon="18.698857538402081">
        <ele>216.4339599609375</ele>
        <time>2012-01-31T14:14:35Z</time>
      </trkpt>
      <trkpt lat="47.581571359187365" lon="18.698800792917609">
        <ele>216.4339599609375</ele>
        <time>2012-01-31T14:14:32Z</time>
      </trkpt>
      <trkpt lat="47.581587787717581" lon="18.698743879795074">
        <ele>216.9146728515625</ele>
        <time>2012-01-31T14:14:29Z</time>
      </trkpt>
      <trkpt lat="47.581596672534943" lon="18.698701048269868">
        <ele>216.9146728515625</ele>
        <time>2012-01-31T14:14:27Z</time>
      </trkpt>
      <trkpt lat="47.581608993932605" lon="18.698659054934978">
        <ele>216.4339599609375</ele>
        <time>2012-01-31T14:14:25Z</time>
      </trkpt>
      <trkpt lat="47.581623159348965" lon="18.698617061600089">
        <ele>216.4339599609375</ele>
        <time>2012-01-31T14:14:23Z</time>
      </trkpt>
      <trkpt lat="47.581634977832437" lon="18.698574146255851">
        <ele>216.4339599609375</ele>
        <time>2012-01-31T14:14:21Z</time>
      </trkpt>
      <trkpt lat="47.581651993095875" lon="18.698512623086572">
        <ele>216.9146728515625</ele>
        <time>2012-01-31T14:14:18Z</time>
      </trkpt>
      <trkpt lat="47.581673953682184" lon="18.698455458506942">
        <ele>216.9146728515625</ele>
        <time>2012-01-31T14:14:15Z</time>
      </trkpt>
      <trkpt lat="47.581688454374671" lon="18.698413297533989">
        <ele>216.4339599609375</ele>
        <time>2012-01-31T14:14:13Z</time>
      </trkpt>
      <trkpt lat="47.581703877076507" lon="18.698372729122639">
        <ele>216.9146728515625</ele>
        <time>2012-01-31T14:14:11Z</time>
      </trkpt>
      <trkpt lat="47.581715947017074" lon="18.69833224453032">
        <ele>216.4339599609375</ele>
        <time>2012-01-31T14:14:09Z</time>
      </trkpt>
      <trkpt lat="47.581730699166656" lon="18.698292849585414">
        <ele>216.9146728515625</ele>
        <time>2012-01-31T14:14:07Z</time>
      </trkpt>
      <trkpt lat="47.58175048045814" lon="18.698255466297269">
        <ele>215.9532470703125</ele>
        <time>2012-01-31T14:14:05Z</time>
      </trkpt>
      <trkpt lat="47.581769926473498" lon="18.698219424113631">
        <ele>216.4339599609375</ele>
        <time>2012-01-31T14:14:03Z</time>
      </trkpt>
      <trkpt lat="47.581788366660476" lon="18.698180448263884">
        <ele>216.9146728515625</ele>
        <time>2012-01-31T14:14:01Z</time>
      </trkpt>
      <trkpt lat="47.581812171265483" lon="18.698126217350364">
        <ele>216.9146728515625</ele>
        <time>2012-01-31T14:13:58Z</time>
      </trkpt>
      <trkpt lat="47.581828767433763" lon="18.698067292571068">
        <ele>217.3953857421875</ele>
        <time>2012-01-31T14:13:55Z</time>
      </trkpt>
      <trkpt lat="47.581834048032761" lon="18.698019264265895">
        <ele>217.3953857421875</ele>
        <time>2012-01-31T14:13:51Z</time>
      </trkpt>
      <trkpt lat="47.581825666129589" lon="18.697993950918317">
        <ele>217.3953857421875</ele>
        <time>2012-01-31T14:13:36Z</time>
      </trkpt>
      <trkpt lat="47.581827593967319" lon="18.697952292859554">
        <ele>217.3953857421875</ele>
        <time>2012-01-31T14:13:30Z</time>
      </trkpt>
      <trkpt lat="47.581813344731927" lon="18.697963859885931">
        <ele>217.8759765625</ele>
        <time>2012-01-31T14:13:24Z</time>
      </trkpt>
      <trkpt lat="47.581811919808388" lon="18.697972828522325">
        <ele>217.3953857421875</ele>
        <time>2012-01-31T14:13:04Z</time>
      </trkpt>
      <trkpt lat="47.581820888444781" lon="18.697974337264895">
        <ele>217.8759765625</ele>
        <time>2012-01-31T14:12:51Z</time>
      </trkpt>
      <trkpt lat="47.581829354166985" lon="18.697994621470571">
        <ele>216.4339599609375</ele>
        <time>2012-01-31T14:12:32Z</time>
      </trkpt>
      <trkpt lat="47.581815356388688" lon="18.697948269546032">
        <ele>216.9146728515625</ele>
        <time>2012-01-31T14:12:28Z</time>
      </trkpt>
      <trkpt lat="47.581793982535601" lon="18.697908036410809">
        <ele>216.4339599609375</ele>
        <time>2012-01-31T14:12:24Z</time>
      </trkpt>
      <trkpt lat="47.581775793805718" lon="18.697865959256887">
        <ele>214.991943359375</ele>
        <time>2012-01-31T14:12:18Z</time>
      </trkpt>
      <trkpt lat="47.581760454922915" lon="18.697827653959394">
        <ele>215.47265625</ele>
        <time>2012-01-31T14:12:14Z</time>
      </trkpt>
      <trkpt lat="47.581763723865151" lon="18.697767555713654">
        <ele>215.47265625</ele>
        <time>2012-01-31T14:12:10Z</time>
      </trkpt>
      <trkpt lat="47.581775542348623" lon="18.697720030322671">
        <ele>214.991943359375</ele>
        <time>2012-01-31T14:12:07Z</time>
      </trkpt>
      <trkpt lat="47.581788366660476" lon="18.697670325636864">
        <ele>214.991943359375</ele>
        <time>2012-01-31T14:12:04Z</time>
      </trkpt>
      <trkpt lat="47.581803957000375" lon="18.697624392807484">
        <ele>215.47265625</ele>
        <time>2012-01-31T14:12:01Z</time>
      </trkpt>
      <trkpt lat="47.581817954778671" lon="18.697575191035867">
        <ele>214.991943359375</ele>
        <time>2012-01-31T14:11:58Z</time>
      </trkpt>
      <trkpt lat="47.581838574260473" lon="18.697526743635535">
        <ele>214.991943359375</ele>
        <time>2012-01-31T14:11:55Z</time>
      </trkpt>
      <trkpt lat="47.581871179863811" lon="18.697475781664252">
        <ele>214.991943359375</ele>
        <time>2012-01-31T14:11:51Z</time>
      </trkpt>
      <trkpt lat="47.581891547888517" lon="18.69742825627327">
        <ele>215.47265625</ele>
        <time>2012-01-31T14:11:47Z</time>
      </trkpt>
      <trkpt lat="47.581915268674493" lon="18.697384167462587">
        <ele>215.47265625</ele>
        <time>2012-01-31T14:11:44Z</time>
      </trkpt>
      <trkpt lat="47.581940330564976" lon="18.697339072823524">
        <ele>214.991943359375</ele>
        <time>2012-01-31T14:11:41Z</time>
      </trkpt>
      <trkpt lat="47.58196547627449" lon="18.697288446128368">
        <ele>214.991943359375</ele>
        <time>2012-01-31T14:11:38Z</time>
      </trkpt>
      <trkpt lat="47.581989197060466" lon="18.697237567976117">
        <ele>215.47265625</ele>
        <time>2012-01-31T14:11:35Z</time>
      </trkpt>
      <trkpt lat="47.582012498751283" lon="18.697184091433883">
        <ele>215.47265625</ele>
        <time>2012-01-31T14:11:32Z</time>
      </trkpt>
      <trkpt lat="47.58203437551856" lon="18.69713556021452">
        <ele>214.51123046875</ele>
        <time>2012-01-31T14:11:29Z</time>
      </trkpt>
      <trkpt lat="47.582055917009711" lon="18.697096752002835">
        <ele>214.991943359375</ele>
        <time>2012-01-31T14:11:26Z</time>
      </trkpt>
      <trkpt lat="47.58208223618567" lon="18.697056686505675">
        <ele>214.991943359375</ele>
        <time>2012-01-31T14:11:23Z</time>
      </trkpt>
      <trkpt lat="47.582107046619058" lon="18.697011424228549">
        <ele>214.51123046875</ele>
        <time>2012-01-31T14:11:20Z</time>
      </trkpt>
      <trkpt lat="47.582134120166302" lon="18.696957863867283">
        <ele>214.0306396484375</ele>
        <time>2012-01-31T14:11:16Z</time>
      </trkpt>
      <trkpt lat="47.582163875922561" lon="18.696911092847586">
        <ele>214.51123046875</ele>
        <time>2012-01-31T14:11:13Z</time>
      </trkpt>
      <trkpt lat="47.58218927308917" lon="18.696862393990159">
        <ele>214.51123046875</ele>
        <time>2012-01-31T14:11:10Z</time>
      </trkpt>
      <trkpt lat="47.582213161513209" lon="18.69681746698916">
        <ele>214.0306396484375</ele>
        <time>2012-01-31T14:11:07Z</time>
      </trkpt>
      <trkpt lat="47.582248030230403" lon="18.696767091751099">
        <ele>214.991943359375</ele>
        <time>2012-01-31T14:11:03Z</time>
      </trkpt>
      <trkpt lat="47.582278959453106" lon="18.696727026253939">
        <ele>214.991943359375</ele>
        <time>2012-01-31T14:11:00Z</time>
      </trkpt>
      <trkpt lat="47.582304356619716" lon="18.696677070111036">
        <ele>214.991943359375</ele>
        <time>2012-01-31T14:10:57Z</time>
      </trkpt>
      <trkpt lat="47.582327574491501" lon="18.696629544720054">
        <ele>214.51123046875</ele>
        <time>2012-01-31T14:10:54Z</time>
      </trkpt>
      <trkpt lat="47.582354648038745" lon="18.696574056521058">
        <ele>214.51123046875</ele>
        <time>2012-01-31T14:10:51Z</time>
      </trkpt>
      <trkpt lat="47.582388678565621" lon="18.696518233045936">
        <ele>214.991943359375</ele>
        <time>2012-01-31T14:10:48Z</time>
      </trkpt>
      <trkpt lat="47.582414830103517" lon="18.696460230275989">
        <ele>215.47265625</ele>
        <time>2012-01-31T14:10:45Z</time>
      </trkpt>
      <trkpt lat="47.582443999126554" lon="18.696404155343771">
        <ele>214.991943359375</ele>
        <time>2012-01-31T14:10:42Z</time>
      </trkpt>
      <trkpt lat="47.582475179806352" lon="18.696364089846611">
        <ele>215.47265625</ele>
        <time>2012-01-31T14:10:39Z</time>
      </trkpt>
      <trkpt lat="47.582510719075799" lon="18.696328466758132">
        <ele>214.51123046875</ele>
        <time>2012-01-31T14:10:36Z</time>
      </trkpt>
      <trkpt lat="47.582541396841407" lon="18.696284545585513">
        <ele>214.0306396484375</ele>
        <time>2012-01-31T14:10:33Z</time>
      </trkpt>
      <trkpt lat="47.582563441246748" lon="18.696254035457969">
        <ele>213.550048828125</ele>
        <time>2012-01-31T14:10:31Z</time>
      </trkpt>
      <trkpt lat="47.582586575299501" lon="18.696197960525751">
        <ele>214.51123046875</ele>
        <time>2012-01-31T14:10:28Z</time>
      </trkpt>
      <trkpt lat="47.582588251680136" lon="18.696163762360811">
        <ele>214.0306396484375</ele>
        <time>2012-01-31T14:10:09Z</time>
      </trkpt>
      <trkpt lat="47.582582216709852" lon="18.696167534217238">
        <ele>214.0306396484375</ele>
        <time>2012-01-31T14:09:43Z</time>
      </trkpt>
      <trkpt lat="47.582618677988648" lon="18.696121098473668">
        <ele>213.550048828125</ele>
        <time>2012-01-31T14:09:37Z</time>
      </trkpt>
      <trkpt lat="47.582652876153588" lon="18.696096371859312">
        <ele>214.0306396484375</ele>
        <time>2012-01-31T14:09:33Z</time>
      </trkpt>
      <trkpt lat="47.582679027691483" lon="18.696065777912736">
        <ele>214.0306396484375</ele>
        <time>2012-01-31T14:09:30Z</time>
      </trkpt>
      <trkpt lat="47.582703419029713" lon="18.696025880053639">
        <ele>214.0306396484375</ele>
        <time>2012-01-31T14:09:27Z</time>
      </trkpt>
      <trkpt lat="47.582732168957591" lon="18.695992771536112">
        <ele>214.51123046875</ele>
        <time>2012-01-31T14:09:24Z</time>
      </trkpt>
      <trkpt lat="47.582752369344234" lon="18.695946922525764">
        <ele>214.991943359375</ele>
        <time>2012-01-31T14:09:21Z</time>
      </trkpt>
      <trkpt lat="47.582778437063098" lon="18.695901827886701">
        <ele>214.51123046875</ele>
        <time>2012-01-31T14:09:18Z</time>
      </trkpt>
      <trkpt lat="47.582798050716519" lon="18.695859834551811">
        <ele>214.51123046875</ele>
        <time>2012-01-31T14:09:15Z</time>
      </trkpt>
      <trkpt lat="47.58281908929348" lon="18.695821529254317">
        <ele>214.51123046875</ele>
        <time>2012-01-31T14:09:12Z</time>
      </trkpt>
      <trkpt lat="47.582841049879789" lon="18.695773249492049">
        <ele>214.0306396484375</ele>
        <time>2012-01-31T14:09:09Z</time>
      </trkpt>
      <trkpt lat="47.582855131477118" lon="18.695720443502069">
        <ele>214.0306396484375</ele>
        <time>2012-01-31T14:09:06Z</time>
      </trkpt>
      <trkpt lat="47.582873068749905" lon="18.695670319721103">
        <ele>214.51123046875</ele>
        <time>2012-01-31T14:09:03Z</time>
      </trkpt>
      <trkpt lat="47.582889916375279" lon="18.695620195940137">
        <ele>214.0306396484375</ele>
        <time>2012-01-31T14:09:00Z</time>
      </trkpt>
      <trkpt lat="47.582902321591973" lon="18.695561187341809">
        <ele>214.0306396484375</ele>
        <time>2012-01-31T14:08:57Z</time>
      </trkpt>
      <trkpt lat="47.582912882789969" lon="18.695502849295735">
        <ele>214.0306396484375</ele>
        <time>2012-01-31T14:08:54Z</time>
      </trkpt>
      <trkpt lat="47.582918163388968" lon="18.695450043305755">
        <ele>213.550048828125</ele>
        <time>2012-01-31T14:08:42Z</time>
      </trkpt>
      <trkpt lat="47.58288262411952" lon="18.69547083042562">
        <ele>213.550048828125</ele>
        <time>2012-01-31T14:08:30Z</time>
      </trkpt>
      <trkpt lat="47.582854963839054" lon="18.695438895374537">
        <ele>214.0306396484375</ele>
        <time>2012-01-31T14:08:27Z</time>
      </trkpt>
      <trkpt lat="47.582826968282461" lon="18.695383742451668">
        <ele>214.0306396484375</ele>
        <time>2012-01-31T14:08:24Z</time>
      </trkpt>
      <trkpt lat="47.582790590822697" lon="18.69532959535718">
        <ele>214.0306396484375</ele>
        <time>2012-01-31T14:08:20Z</time>
      </trkpt>
      <trkpt lat="47.582766953855753" lon="18.695282740518451">
        <ele>213.550048828125</ele>
        <time>2012-01-31T14:08:17Z</time>
      </trkpt>
      <trkpt lat="47.582740131765604" lon="18.695237394422293">
        <ele>214.0306396484375</ele>
        <time>2012-01-31T14:08:14Z</time>
      </trkpt>
      <trkpt lat="47.58270962163806" lon="18.695189785212278">
        <ele>214.51123046875</ele>
        <time>2012-01-31T14:08:10Z</time>
      </trkpt>
      <trkpt lat="47.582682631909847" lon="18.695149719715118">
        <ele>214.0306396484375</ele>
        <time>2012-01-31T14:08:07Z</time>
      </trkpt>
      <trkpt lat="47.582653043791652" lon="18.695113426074386">
        <ele>213.550048828125</ele>
        <time>2012-01-31T14:08:04Z</time>
      </trkpt>
      <trkpt lat="47.58262362331152" lon="18.695075120776892">
        <ele>213.550048828125</ele>
        <time>2012-01-31T14:08:01Z</time>
      </trkpt>
      <trkpt lat="47.582598058506846" lon="18.695042347535491">
        <ele>213.550048828125</ele>
        <time>2012-01-31T14:07:58Z</time>
      </trkpt>
      <trkpt lat="47.582568218931556" lon="18.694993983954191">
        <ele>213.550048828125</ele>
        <time>2012-01-31T14:07:55Z</time>
      </trkpt>
      <trkpt lat="47.582542151212692" lon="18.694959618151188">
        <ele>213.0693359375</ele>
        <time>2012-01-31T14:07:52Z</time>
      </trkpt>
      <trkpt lat="47.582515077665448" lon="18.694928856566548">
        <ele>213.550048828125</ele>
        <time>2012-01-31T14:07:49Z</time>
      </trkpt>
      <trkpt lat="47.582480376586318" lon="18.694888539612293">
        <ele>213.0693359375</ele>
        <time>2012-01-31T14:07:46Z</time>
      </trkpt>
      <trkpt lat="47.582449866458774" lon="18.694854928180575">
        <ele>213.0693359375</ele>
        <time>2012-01-31T14:07:43Z</time>
      </trkpt>
      <trkpt lat="47.58242966607213" lon="18.694821735844016">
        <ele>212.588623046875</ele>
        <time>2012-01-31T14:07:37Z</time>
      </trkpt>
      <trkpt lat="47.58242723532021" lon="18.694793740287423">
        <ele>213.550048828125</ele>
        <time>2012-01-31T14:07:15Z</time>
      </trkpt>
      <trkpt lat="47.5824208650738" lon="18.694784436374903">
        <ele>213.550048828125</ele>
        <time>2012-01-31T14:06:49Z</time>
      </trkpt>
      <trkpt lat="47.582417093217373" lon="18.694874541833997">
        <ele>213.550048828125</ele>
        <time>2012-01-31T14:06:07Z</time>
      </trkpt>
      <trkpt lat="47.582466462627053" lon="18.694883929565549">
        <ele>213.0693359375</ele>
        <time>2012-01-31T14:05:30Z</time>
      </trkpt>
      <trkpt lat="47.582458164542913" lon="18.694846797734499">
        <ele>213.0693359375</ele>
        <time>2012-01-31T14:05:18Z</time>
      </trkpt>
      <trkpt lat="47.582449782639742" lon="18.694821568205953">
        <ele>213.0693359375</ele>
        <time>2012-01-31T14:04:50Z</time>
      </trkpt>
      <trkpt lat="47.58245799690485" lon="18.694772869348526">
        <ele>213.0693359375</ele>
        <time>2012-01-31T14:04:38Z</time>
      </trkpt>
      <trkpt lat="47.582439891993999" lon="18.694725427776575">
        <ele>213.0693359375</ele>
        <time>2012-01-31T14:04:35Z</time>
      </trkpt>
      <trkpt lat="47.582416757941246" lon="18.694684440270066">
        <ele>213.0693359375</ele>
        <time>2012-01-31T14:04:32Z</time>
      </trkpt>
      <trkpt lat="47.582393623888493" lon="18.69464848190546">
        <ele>212.588623046875</ele>
        <time>2012-01-31T14:04:29Z</time>
      </trkpt>
      <trkpt lat="47.582374261692166" lon="18.694609338417649">
        <ele>212.588623046875</ele>
        <time>2012-01-31T14:04:26Z</time>
      </trkpt>
      <trkpt lat="47.582356156781316" lon="18.694565668702126">
        <ele>212.588623046875</ele>
        <time>2012-01-31T14:04:23Z</time>
      </trkpt>
      <trkpt lat="47.582351546734571" lon="18.694509090855718">
        <ele>212.588623046875</ele>
        <time>2012-01-31T14:04:20Z</time>
      </trkpt>
      <trkpt lat="47.582350289449096" lon="18.694448489695787">
        <ele>212.588623046875</ele>
        <time>2012-01-31T14:04:17Z</time>
      </trkpt>
      <trkpt lat="47.582356743514538" lon="18.694388475269079">
        <ele>213.550048828125</ele>
        <time>2012-01-31T14:04:14Z</time>
      </trkpt>
      <trkpt lat="47.582376357167959" lon="18.69433575309813">
        <ele>214.0306396484375</ele>
        <time>2012-01-31T14:04:11Z</time>
      </trkpt>
      <trkpt lat="47.582408543676138" lon="18.694282779470086">
        <ele>213.0693359375</ele>
        <time>2012-01-31T14:04:08Z</time>
      </trkpt>
      <trkpt lat="47.582436790689826" lon="18.694235254079103">
        <ele>213.0693359375</ele>
        <time>2012-01-31T14:04:05Z</time>
      </trkpt>
      <trkpt lat="47.582454895600677" lon="18.694199379533529">
        <ele>213.550048828125</ele>
        <time>2012-01-31T14:04:03Z</time>
      </trkpt>
      <trkpt lat="47.582469563931227" lon="18.694160738959908">
        <ele>214.51123046875</ele>
        <time>2012-01-31T14:04:01Z</time>
      </trkpt>
      <trkpt lat="47.582504181191325" lon="18.694115895777941">
        <ele>214.0306396484375</ele>
        <time>2012-01-31T14:03:58Z</time>
      </trkpt>
      <trkpt lat="47.582527147606015" lon="18.694085972383618">
        <ele>213.550048828125</ele>
        <time>2012-01-31T14:03:56Z</time>
      </trkpt>
      <trkpt lat="47.582549946382642" lon="18.694055881351233">
        <ele>213.550048828125</ele>
        <time>2012-01-31T14:03:54Z</time>
      </trkpt>
      <trkpt lat="47.582581462338567" lon="18.694012798368931">
        <ele>214.51123046875</ele>
        <time>2012-01-31T14:03:51Z</time>
      </trkpt>
      <trkpt lat="47.582617420703173" lon="18.693964770063758">
        <ele>214.991943359375</ele>
        <time>2012-01-31T14:03:48Z</time>
      </trkpt>
      <trkpt lat="47.582653127610683" lon="18.693918418139219">
        <ele>214.991943359375</ele>
        <time>2012-01-31T14:03:45Z</time>
      </trkpt>
      <trkpt lat="47.582677099853754" lon="18.693888997659087">
        <ele>214.0306396484375</ele>
        <time>2012-01-31T14:03:43Z</time>
      </trkpt>
      <trkpt lat="47.582700653001666" lon="18.693855134770274">
        <ele>214.0306396484375</ele>
        <time>2012-01-31T14:03:41Z</time>
      </trkpt>
      <trkpt lat="47.582725547254086" lon="18.693823451176286">
        <ele>214.0306396484375</ele>
        <time>2012-01-31T14:03:39Z</time>
      </trkpt>
      <trkpt lat="47.582748765125871" lon="18.693795120343566">
        <ele>214.51123046875</ele>
        <time>2012-01-31T14:03:37Z</time>
      </trkpt>
      <trkpt lat="47.582770641893148" lon="18.69376452639699">
        <ele>214.51123046875</ele>
        <time>2012-01-31T14:03:35Z</time>
      </trkpt>
      <trkpt lat="47.582801152020693" lon="18.693720269948244">
        <ele>214.0306396484375</ele>
        <time>2012-01-31T14:03:32Z</time>
      </trkpt>
      <trkpt lat="47.582825291901827" lon="18.693689256906509">
        <ele>214.51123046875</ele>
        <time>2012-01-31T14:03:30Z</time>
      </trkpt>
      <trkpt lat="47.582850689068437" lon="18.693658662959933">
        <ele>214.991943359375</ele>
        <time>2012-01-31T14:03:28Z</time>
      </trkpt>
      <trkpt lat="47.58287575095892" lon="18.693628488108516">
        <ele>214.991943359375</ele>
        <time>2012-01-31T14:03:26Z</time>
      </trkpt>
      <trkpt lat="47.582900645211339" lon="18.693598648533225">
        <ele>214.51123046875</ele>
        <time>2012-01-31T14:03:24Z</time>
      </trkpt>
      <trkpt lat="47.582924952730536" lon="18.693566294386983">
        <ele>214.51123046875</ele>
        <time>2012-01-31T14:03:22Z</time>
      </trkpt>
      <trkpt lat="47.582948841154575" lon="18.693534191697836">
        <ele>214.51123046875</ele>
        <time>2012-01-31T14:03:20Z</time>
      </trkpt>
      <trkpt lat="47.58297448977828" lon="18.693504268303514">
        <ele>214.51123046875</ele>
        <time>2012-01-31T14:03:18Z</time>
      </trkpt>
      <trkpt lat="47.582998294383287" lon="18.69347233325243">
        <ele>215.47265625</ele>
        <time>2012-01-31T14:03:16Z</time>
      </trkpt>
      <trkpt lat="47.583022434264421" lon="18.6934410687536">
        <ele>215.47265625</ele>
        <time>2012-01-31T14:03:14Z</time>
      </trkpt>
      <trkpt lat="47.583046155050397" lon="18.693407960236073">
        <ele>214.991943359375</ele>
        <time>2012-01-31T14:03:12Z</time>
      </trkpt>
      <trkpt lat="47.583069372922182" lon="18.693375773727894">
        <ele>216.4339599609375</ele>
        <time>2012-01-31T14:03:10Z</time>
      </trkpt>
      <trkpt lat="47.583093596622348" lon="18.693345347419381">
        <ele>215.47265625</ele>
        <time>2012-01-31T14:03:08Z</time>
      </trkpt>
      <trkpt lat="47.583118071779609" lon="18.693313663825393">
        <ele>215.9532470703125</ele>
        <time>2012-01-31T14:03:06Z</time>
      </trkpt>
      <trkpt lat="47.583142044022679" lon="18.693280890583992">
        <ele>215.47265625</ele>
        <time>2012-01-31T14:03:04Z</time>
      </trkpt>
      <trkpt lat="47.583167273551226" lon="18.693247865885496">
        <ele>215.47265625</ele>
        <time>2012-01-31T14:03:02Z</time>
      </trkpt>
      <trkpt lat="47.583191329613328" lon="18.693214757367969">
        <ele>214.991943359375</ele>
        <time>2012-01-31T14:03:00Z</time>
      </trkpt>
      <trkpt lat="47.583215888589621" lon="18.69318357668817">
        <ele>215.47265625</ele>
        <time>2012-01-31T14:02:58Z</time>
      </trkpt>
      <trkpt lat="47.583239693194628" lon="18.693152647465467">
        <ele>214.51123046875</ele>
        <time>2012-01-31T14:02:56Z</time>
      </trkpt>
      <trkpt lat="47.583263916894794" lon="18.69312247261405">
        <ele>214.991943359375</ele>
        <time>2012-01-31T14:02:54Z</time>
      </trkpt>
      <trkpt lat="47.583286883309484" lon="18.693088945001364">
        <ele>215.47265625</ele>
        <time>2012-01-31T14:02:52Z</time>
      </trkpt>
      <trkpt lat="47.583310939371586" lon="18.693057429045439">
        <ele>214.991943359375</ele>
        <time>2012-01-31T14:02:50Z</time>
      </trkpt>
      <trkpt lat="47.583334995433688" lon="18.69302473962307">
        <ele>214.51123046875</ele>
        <time>2012-01-31T14:02:48Z</time>
      </trkpt>
      <trkpt lat="47.583358297124505" lon="18.692992217838764">
        <ele>215.9532470703125</ele>
        <time>2012-01-31T14:02:46Z</time>
      </trkpt>
      <trkpt lat="47.583381934091449" lon="18.692959947511554">
        <ele>215.47265625</ele>
        <time>2012-01-31T14:02:44Z</time>
      </trkpt>
      <trkpt lat="47.583405654877424" lon="18.692927341908216">
        <ele>215.9532470703125</ele>
        <time>2012-01-31T14:02:42Z</time>
      </trkpt>
      <trkpt lat="47.5834293756634" lon="18.692893981933594">
        <ele>214.51123046875</ele>
        <time>2012-01-31T14:02:40Z</time>
      </trkpt>
      <trkpt lat="47.583451755344868" lon="18.692860538139939">
        <ele>214.991943359375</ele>
        <time>2012-01-31T14:02:38Z</time>
      </trkpt>
      <trkpt lat="47.583474889397621" lon="18.69282734580338">
        <ele>214.51123046875</ele>
        <time>2012-01-31T14:02:36Z</time>
      </trkpt>
      <trkpt lat="47.58349928073585" lon="18.692793482914567">
        <ele>214.51123046875</ele>
        <time>2012-01-31T14:02:34Z</time>
      </trkpt>
      <trkpt lat="47.583523755893111" lon="18.692761296406388">
        <ele>215.47265625</ele>
        <time>2012-01-31T14:02:32Z</time>
      </trkpt>
      <trkpt lat="47.583546722307801" lon="18.692730283364654">
        <ele>214.991943359375</ele>
        <time>2012-01-31T14:02:30Z</time>
      </trkpt>
      <trkpt lat="47.583568347617984" lon="18.692696755751967">
        <ele>214.991943359375</ele>
        <time>2012-01-31T14:02:28Z</time>
      </trkpt>
      <trkpt lat="47.583591230213642" lon="18.692663228139281">
        <ele>214.991943359375</ele>
        <time>2012-01-31T14:02:26Z</time>
      </trkpt>
      <trkpt lat="47.583614867180586" lon="18.692632969468832">
        <ele>214.51123046875</ele>
        <time>2012-01-31T14:02:24Z</time>
      </trkpt>
      <trkpt lat="47.583638587966561" lon="18.692603632807732">
        <ele>214.991943359375</ele>
        <time>2012-01-31T14:02:22Z</time>
      </trkpt>
      <trkpt lat="47.583662560209632" lon="18.692572033032775">
        <ele>214.991943359375</ele>
        <time>2012-01-31T14:02:20Z</time>
      </trkpt>
      <trkpt lat="47.583685778081417" lon="18.692540097981691">
        <ele>214.51123046875</ele>
        <time>2012-01-31T14:02:18Z</time>
      </trkpt>
      <trkpt lat="47.583709247410297" lon="18.692508498206735">
        <ele>214.51123046875</ele>
        <time>2012-01-31T14:02:16Z</time>
      </trkpt>
      <trkpt lat="47.583732381463051" lon="18.692477652803063">
        <ele>214.0306396484375</ele>
        <time>2012-01-31T14:02:14Z</time>
      </trkpt>
      <trkpt lat="47.583755599334836" lon="18.692445466294885">
        <ele>215.47265625</ele>
        <time>2012-01-31T14:02:12Z</time>
      </trkpt>
      <trkpt lat="47.583779823035002" lon="18.692412190139294">
        <ele>214.51123046875</ele>
        <time>2012-01-31T14:02:10Z</time>
      </trkpt>
      <trkpt lat="47.583803962916136" lon="18.69238218292594">
        <ele>215.47265625</ele>
        <time>2012-01-31T14:02:08Z</time>
      </trkpt>
      <trkpt lat="47.583828940987587" lon="18.692353097721934">
        <ele>214.51123046875</ele>
        <time>2012-01-31T14:02:06Z</time>
      </trkpt>
      <trkpt lat="47.583852242678404" lon="18.692322336137295">
        <ele>214.51123046875</ele>
        <time>2012-01-31T14:02:04Z</time>
      </trkpt>
      <trkpt lat="47.583876047283411" lon="18.692290652543306">
        <ele>214.51123046875</ele>
        <time>2012-01-31T14:02:02Z</time>
      </trkpt>
      <trkpt lat="47.58390043862164" lon="18.692259639501572">
        <ele>214.51123046875</ele>
        <time>2012-01-31T14:02:00Z</time>
      </trkpt>
      <trkpt lat="47.583924662321806" lon="18.692227955907583">
        <ele>214.51123046875</ele>
        <time>2012-01-31T14:01:58Z</time>
      </trkpt>
      <trkpt lat="47.583948131650686" lon="18.692198367789388">
        <ele>214.51123046875</ele>
        <time>2012-01-31T14:01:56Z</time>
      </trkpt>
      <trkpt lat="47.583971852436662" lon="18.692167522385716">
        <ele>214.51123046875</ele>
        <time>2012-01-31T14:01:54Z</time>
      </trkpt>
      <trkpt lat="47.583996327593923" lon="18.692136257886887">
        <ele>214.51123046875</ele>
        <time>2012-01-31T14:01:52Z</time>
      </trkpt>
      <trkpt lat="47.58402113802731" lon="18.692107340320945">
        <ele>214.51123046875</ele>
        <time>2012-01-31T14:01:50Z</time>
      </trkpt>
      <trkpt lat="47.584045948460698" lon="18.692076243460178">
        <ele>214.51123046875</ele>
        <time>2012-01-31T14:01:48Z</time>
      </trkpt>
      <trkpt lat="47.584070842713118" lon="18.692045481875539">
        <ele>214.51123046875</ele>
        <time>2012-01-31T14:01:46Z</time>
      </trkpt>
      <trkpt lat="47.584094228222966" lon="18.69201279245317">
        <ele>214.51123046875</ele>
        <time>2012-01-31T14:01:44Z</time>
      </trkpt>
      <trkpt lat="47.584116943180561" lon="18.691979181021452">
        <ele>214.0306396484375</ele>
        <time>2012-01-31T14:01:42Z</time>
      </trkpt>
      <trkpt lat="47.584141250699759" lon="18.691950179636478">
        <ele>214.0306396484375</ele>
        <time>2012-01-31T14:01:40Z</time>
      </trkpt>
      <trkpt lat="47.584165977314115" lon="18.691919920966029">
        <ele>214.0306396484375</ele>
        <time>2012-01-31T14:01:38Z</time>
      </trkpt>
      <trkpt lat="47.584188692271709" lon="18.691891422495246">
        <ele>214.0306396484375</ele>
        <time>2012-01-31T14:01:36Z</time>
      </trkpt>
      <trkpt lat="47.584223980084062" lon="18.691847082227468">
        <ele>214.51123046875</ele>
        <time>2012-01-31T14:01:33Z</time>
      </trkpt>
      <trkpt lat="47.584255496039987" lon="18.69180366396904">
        <ele>214.0306396484375</ele>
        <time>2012-01-31T14:01:30Z</time>
      </trkpt>
      <trkpt lat="47.58428743109107" lon="18.691763263195753">
        <ele>214.0306396484375</ele>
        <time>2012-01-31T14:01:27Z</time>
      </trkpt>
      <trkpt lat="47.584315426647663" lon="18.691715486347675">
        <ele>214.0306396484375</ele>
        <time>2012-01-31T14:01:24Z</time>
      </trkpt>
      <trkpt lat="47.584345182403922" lon="18.691673576831818">
        <ele>214.51123046875</ele>
        <time>2012-01-31T14:01:21Z</time>
      </trkpt>
      <trkpt lat="47.584372591227293" lon="18.69163217023015">
        <ele>213.550048828125</ele>
        <time>2012-01-31T14:01:18Z</time>
      </trkpt>
      <trkpt lat="47.584401424974203" lon="18.691599983721972">
        <ele>214.0306396484375</ele>
        <time>2012-01-31T14:01:15Z</time>
      </trkpt>
      <trkpt lat="47.58443009108305" lon="18.691556565463543">
        <ele>213.0693359375</ele>
        <time>2012-01-31T14:01:12Z</time>
      </trkpt>
      <trkpt lat="47.584452219307423" lon="18.691526222974062">
        <ele>214.0306396484375</ele>
        <time>2012-01-31T14:01:10Z</time>
      </trkpt>
      <trkpt lat="47.584472335875034" lon="18.691491773352027">
        <ele>213.0693359375</ele>
        <time>2012-01-31T14:01:08Z</time>
      </trkpt>
      <trkpt lat="47.58450485765934" lon="18.691450534388423">
        <ele>214.0306396484375</ele>
        <time>2012-01-31T14:01:05Z</time>
      </trkpt>
      <trkpt lat="47.584530925378203" lon="18.691401332616806">
        <ele>214.0306396484375</ele>
        <time>2012-01-31T14:01:02Z</time>
      </trkpt>
      <trkpt lat="47.584564536809921" lon="18.691372498869896">
        <ele>214.0306396484375</ele>
        <time>2012-01-31T14:00:59Z</time>
      </trkpt>
      <trkpt lat="47.584595466032624" lon="18.691334193572402">
        <ele>214.51123046875</ele>
        <time>2012-01-31T14:00:56Z</time>
      </trkpt>
      <trkpt lat="47.584630334749818" lon="18.691300163045526">
        <ele>214.0306396484375</ele>
        <time>2012-01-31T14:00:53Z</time>
      </trkpt>
      <trkpt lat="47.584664365276694" lon="18.691263869404793">
        <ele>213.0693359375</ele>
        <time>2012-01-31T14:00:50Z</time>
      </trkpt>
      <trkpt lat="47.584697222337127" lon="18.691223636269569">
        <ele>213.550048828125</ele>
        <time>2012-01-31T14:00:47Z</time>
      </trkpt>
      <trkpt lat="47.584730749949813" lon="18.691195389255881">
        <ele>214.51123046875</ele>
        <time>2012-01-31T14:00:44Z</time>
      </trkpt>
      <trkpt lat="47.584765953943133" lon="18.691181894391775">
        <ele>214.51123046875</ele>
        <time>2012-01-31T14:00:41Z</time>
      </trkpt>
      <trkpt lat="47.58480342105031" lon="18.691160436719656">
        <ele>213.550048828125</ele>
        <time>2012-01-31T14:00:38Z</time>
      </trkpt>
      <trkpt lat="47.584827141836286" lon="18.691179547458887">
        <ele>213.550048828125</ele>
        <time>2012-01-31T13:58:58Z</time>
      </trkpt>
      <trkpt lat="47.584853125736117" lon="18.691150629892945">
        <ele>214.0306396484375</ele>
        <time>2012-01-31T13:58:55Z</time>
      </trkpt>
      <trkpt lat="47.584881037473679" lon="18.691111318767071">
        <ele>213.550048828125</ele>
        <time>2012-01-31T13:58:52Z</time>
      </trkpt>
      <trkpt lat="47.584911631420255" lon="18.691075360402465">
        <ele>213.550048828125</ele>
        <time>2012-01-31T13:58:49Z</time>
      </trkpt>
      <trkpt lat="47.584945578128099" lon="18.691040072590113">
        <ele>214.0306396484375</ele>
        <time>2012-01-31T13:58:46Z</time>
      </trkpt>
      <trkpt lat="47.584980195388198" lon="18.691001683473587">
        <ele>213.0693359375</ele>
        <time>2012-01-31T13:58:43Z</time>
      </trkpt>
      <trkpt lat="47.585014645010233" lon="18.690966395661235">
        <ele>214.0306396484375</ele>
        <time>2012-01-31T13:58:40Z</time>
      </trkpt>
      <trkpt lat="47.585037862882018" lon="18.690939322113991">
        <ele>213.550048828125</ele>
        <time>2012-01-31T13:58:38Z</time>
      </trkpt>
      <trkpt lat="47.585060745477676" lon="18.690909231081605">
        <ele>213.0693359375</ele>
        <time>2012-01-31T13:58:36Z</time>
      </trkpt>
      <trkpt lat="47.585082035511732" lon="18.690880481153727">
        <ele>214.0306396484375</ele>
        <time>2012-01-31T13:58:34Z</time>
      </trkpt>
      <trkpt lat="47.585117993876338" lon="18.690845193341374">
        <ele>214.51123046875</ele>
        <time>2012-01-31T13:58:31Z</time>
      </trkpt>
      <trkpt lat="47.585153030231595" lon="18.690804960206151">
        <ele>213.550048828125</ele>
        <time>2012-01-31T13:58:28Z</time>
      </trkpt>
      <trkpt lat="47.585177253931761" lon="18.690777970477939">
        <ele>214.0306396484375</ele>
        <time>2012-01-31T13:58:26Z</time>
      </trkpt>
      <trkpt lat="47.585202232003212" lon="18.690751986578107">
        <ele>213.550048828125</ele>
        <time>2012-01-31T13:58:24Z</time>
      </trkpt>
      <trkpt lat="47.585227377712727" lon="18.690723152831197">
        <ele>214.0306396484375</ele>
        <time>2012-01-31T13:58:22Z</time>
      </trkpt>
      <trkpt lat="47.585253696888685" lon="18.69069448672235">
        <ele>214.0306396484375</ele>
        <time>2012-01-31T13:58:20Z</time>
      </trkpt>
      <trkpt lat="47.585277585312724" lon="18.690665569156408">
        <ele>214.0306396484375</ele>
        <time>2012-01-31T13:58:18Z</time>
      </trkpt>
      <trkpt lat="47.585301222279668" lon="18.690634137019515">
        <ele>214.0306396484375</ele>
        <time>2012-01-31T13:58:16Z</time>
      </trkpt>
      <trkpt lat="47.585326032713056" lon="18.690609326586127">
        <ele>214.0306396484375</ele>
        <time>2012-01-31T13:58:14Z</time>
      </trkpt>
      <trkpt lat="47.585351848974824" lon="18.690578732639551">
        <ele>214.0306396484375</ele>
        <time>2012-01-31T13:58:12Z</time>
      </trkpt>
      <trkpt lat="47.585378251969814" lon="18.690549060702324">
        <ele>214.0306396484375</ele>
        <time>2012-01-31T13:58:10Z</time>
      </trkpt>
      <trkpt lat="47.585404571145773" lon="18.690519388765097">
        <ele>214.0306396484375</ele>
        <time>2012-01-31T13:58:08Z</time>
      </trkpt>
      <trkpt lat="47.585431225597858" lon="18.69048778899014">
        <ele>213.550048828125</ele>
        <time>2012-01-31T13:58:06Z</time>
      </trkpt>
      <trkpt lat="47.585457544773817" lon="18.690454177558422">
        <ele>214.0306396484375</ele>
        <time>2012-01-31T13:58:04Z</time>
      </trkpt>
      <trkpt lat="47.585483696311712" lon="18.690421655774117">
        <ele>214.0306396484375</ele>
        <time>2012-01-31T13:58:02Z</time>
      </trkpt>
      <trkpt lat="47.585509596392512" lon="18.690390642732382">
        <ele>214.0306396484375</ele>
        <time>2012-01-31T13:58:00Z</time>
      </trkpt>
      <trkpt lat="47.585534323006868" lon="18.690359964966774">
        <ele>214.51123046875</ele>
        <time>2012-01-31T13:57:58Z</time>
      </trkpt>
      <trkpt lat="47.585559971630573" lon="18.690325766801834">
        <ele>214.0306396484375</ele>
        <time>2012-01-31T13:57:56Z</time>
      </trkpt>
      <trkpt lat="47.585584949702024" lon="18.690291317179799">
        <ele>214.51123046875</ele>
        <time>2012-01-31T13:57:54Z</time>
      </trkpt>
      <trkpt lat="47.585611268877983" lon="18.690260387957096">
        <ele>214.991943359375</ele>
        <time>2012-01-31T13:57:52Z</time>
      </trkpt>
      <trkpt lat="47.585637923330069" lon="18.690228536725044">
        <ele>214.991943359375</ele>
        <time>2012-01-31T13:57:50Z</time>
      </trkpt>
      <trkpt lat="47.585663739591837" lon="18.690198948606849">
        <ele>214.991943359375</ele>
        <time>2012-01-31T13:57:48Z</time>
      </trkpt>
      <trkpt lat="47.585688633844256" lon="18.690168941393495">
        <ele>214.0306396484375</ele>
        <time>2012-01-31T13:57:46Z</time>
      </trkpt>
      <trkpt lat="47.585713695734739" lon="18.69013843126595">
        <ele>214.51123046875</ele>
        <time>2012-01-31T13:57:44Z</time>
      </trkpt>
      <trkpt lat="47.585739428177476" lon="18.690105238929391">
        <ele>214.991943359375</ele>
        <time>2012-01-31T13:57:42Z</time>
      </trkpt>
      <trkpt lat="47.585764490067959" lon="18.690071124583483">
        <ele>214.51123046875</ele>
        <time>2012-01-31T13:57:40Z</time>
      </trkpt>
      <trkpt lat="47.585790473967791" lon="18.690037596970797">
        <ele>214.51123046875</ele>
        <time>2012-01-31T13:57:38Z</time>
      </trkpt>
      <trkpt lat="47.585816625505686" lon="18.690005745738745">
        <ele>214.51123046875</ele>
        <time>2012-01-31T13:57:36Z</time>
      </trkpt>
      <trkpt lat="47.585842022672296" lon="18.689974816516042">
        <ele>214.991943359375</ele>
        <time>2012-01-31T13:57:34Z</time>
      </trkpt>
      <trkpt lat="47.585867671296" lon="18.689943384379148">
        <ele>214.991943359375</ele>
        <time>2012-01-31T13:57:32Z</time>
      </trkpt>
      <trkpt lat="47.585894325748086" lon="18.689908850938082">
        <ele>214.991943359375</ele>
        <time>2012-01-31T13:57:30Z</time>
      </trkpt>
      <trkpt lat="47.585922572761774" lon="18.689874988049269">
        <ele>214.51123046875</ele>
        <time>2012-01-31T13:57:28Z</time>
      </trkpt>
      <trkpt lat="47.585946125909686" lon="18.689838526770473">
        <ele>214.991943359375</ele>
        <time>2012-01-31T13:57:26Z</time>
      </trkpt>
      <trkpt lat="47.58597319945693" lon="18.689810363575816">
        <ele>214.991943359375</ele>
        <time>2012-01-31T13:57:24Z</time>
      </trkpt>
      <trkpt lat="47.585999518632889" lon="18.689779853448272">
        <ele>214.991943359375</ele>
        <time>2012-01-31T13:57:22Z</time>
      </trkpt>
      <trkpt lat="47.58602449670434" lon="18.689746661111712">
        <ele>215.47265625</ele>
        <time>2012-01-31T13:57:20Z</time>
      </trkpt>
      <trkpt lat="47.586051067337394" lon="18.689714642241597">
        <ele>215.47265625</ele>
        <time>2012-01-31T13:57:18Z</time>
      </trkpt>
      <trkpt lat="47.586076380684972" lon="18.689683880656958">
        <ele>214.51123046875</ele>
        <time>2012-01-31T13:57:16Z</time>
      </trkpt>
      <trkpt lat="47.586101777851582" lon="18.689652197062969">
        <ele>214.991943359375</ele>
        <time>2012-01-31T13:57:14Z</time>
      </trkpt>
      <trkpt lat="47.58612859994173" lon="18.68962244130671">
        <ele>214.51123046875</ele>
        <time>2012-01-31T13:57:12Z</time>
      </trkpt>
      <trkpt lat="47.586154835298657" lon="18.689590757712722">
        <ele>214.991943359375</ele>
        <time>2012-01-31T13:57:10Z</time>
      </trkpt>
      <trkpt lat="47.586178556084633" lon="18.689558571204543">
        <ele>214.51123046875</ele>
        <time>2012-01-31T13:57:08Z</time>
      </trkpt>
      <trkpt lat="47.586203282698989" lon="18.689524373039603">
        <ele>215.47265625</ele>
        <time>2012-01-31T13:57:06Z</time>
      </trkpt>
      <trkpt lat="47.586228093132377" lon="18.689490426331758">
        <ele>215.47265625</ele>
        <time>2012-01-31T13:57:04Z</time>
      </trkpt>
      <trkpt lat="47.586253741756082" lon="18.689458994194865">
        <ele>214.991943359375</ele>
        <time>2012-01-31T13:57:02Z</time>
      </trkpt>
      <trkpt lat="47.586278636008501" lon="18.689425298944116">
        <ele>214.991943359375</ele>
        <time>2012-01-31T13:57:00Z</time>
      </trkpt>
      <trkpt lat="47.586303865537047" lon="18.689392525702715">
        <ele>214.991943359375</ele>
        <time>2012-01-31T13:56:58Z</time>
      </trkpt>
      <trkpt lat="47.586326831951737" lon="18.689358159899712">
        <ele>214.991943359375</ele>
        <time>2012-01-31T13:56:56Z</time>
      </trkpt>
      <trkpt lat="47.586349630728364" lon="18.689320357516408">
        <ele>214.51123046875</ele>
        <time>2012-01-31T13:56:54Z</time>
      </trkpt>
      <trkpt lat="47.586373183876276" lon="18.689285237342119">
        <ele>214.51123046875</ele>
        <time>2012-01-31T13:56:52Z</time>
      </trkpt>
      <trkpt lat="47.586396653205156" lon="18.689251374453306">
        <ele>214.0306396484375</ele>
        <time>2012-01-31T13:56:50Z</time>
      </trkpt>
      <trkpt lat="47.586420373991132" lon="18.689216757193208">
        <ele>214.991943359375</ele>
        <time>2012-01-31T13:56:48Z</time>
      </trkpt>
      <trkpt lat="47.586444178596139" lon="18.689182223752141">
        <ele>214.51123046875</ele>
        <time>2012-01-31T13:56:46Z</time>
      </trkpt>
      <trkpt lat="47.586467228829861" lon="18.68914945051074">
        <ele>214.991943359375</ele>
        <time>2012-01-31T13:56:44Z</time>
      </trkpt>
      <trkpt lat="47.58648969233036" lon="18.689115587621927">
        <ele>214.991943359375</ele>
        <time>2012-01-31T13:56:42Z</time>
      </trkpt>
      <trkpt lat="47.586512491106987" lon="18.689080299809575">
        <ele>214.51123046875</ele>
        <time>2012-01-31T13:56:40Z</time>
      </trkpt>
      <trkpt lat="47.58653461933136" lon="18.689043754711747">
        <ele>214.51123046875</ele>
        <time>2012-01-31T13:56:38Z</time>
      </trkpt>
      <trkpt lat="47.586558340117335" lon="18.689007041975856">
        <ele>214.991943359375</ele>
        <time>2012-01-31T13:56:36Z</time>
      </trkpt>
      <trkpt lat="47.586581977084279" lon="18.688971670344472">
        <ele>214.991943359375</ele>
        <time>2012-01-31T13:56:34Z</time>
      </trkpt>
      <trkpt lat="47.586604524403811" lon="18.688934873789549">
        <ele>214.51123046875</ele>
        <time>2012-01-31T13:56:32Z</time>
      </trkpt>
      <trkpt lat="47.586626820266247" lon="18.68889631703496">
        <ele>215.47265625</ele>
        <time>2012-01-31T13:56:30Z</time>
      </trkpt>
      <trkpt lat="47.58664894849062" lon="18.688860693946481">
        <ele>214.51123046875</ele>
        <time>2012-01-31T13:56:28Z</time>
      </trkpt>
      <trkpt lat="47.586672166362405" lon="18.688823897391558">
        <ele>214.0306396484375</ele>
        <time>2012-01-31T13:56:26Z</time>
      </trkpt>
      <trkpt lat="47.586693959310651" lon="18.688788190484047">
        <ele>214.0306396484375</ele>
        <time>2012-01-31T13:56:24Z</time>
      </trkpt>
      <trkpt lat="47.586715668439865" lon="18.688751477748156">
        <ele>214.51123046875</ele>
        <time>2012-01-31T13:56:22Z</time>
      </trkpt>
      <trkpt lat="47.586737377569079" lon="18.688712753355503">
        <ele>214.0306396484375</ele>
        <time>2012-01-31T13:56:20Z</time>
      </trkpt>
      <trkpt lat="47.58675891906023" lon="18.688674028962851">
        <ele>214.51123046875</ele>
        <time>2012-01-31T13:56:18Z</time>
      </trkpt>
      <trkpt lat="47.586782220751047" lon="18.688641590997577">
        <ele>214.0306396484375</ele>
        <time>2012-01-31T13:56:16Z</time>
      </trkpt>
      <trkpt lat="47.586804265156388" lon="18.688603034242988">
        <ele>213.550048828125</ele>
        <time>2012-01-31T13:56:14Z</time>
      </trkpt>
      <trkpt lat="47.586825639009476" lon="18.688565148040652">
        <ele>214.0306396484375</ele>
        <time>2012-01-31T13:56:12Z</time>
      </trkpt>
      <trkpt lat="47.586846342310309" lon="18.688526758924127">
        <ele>214.51123046875</ele>
        <time>2012-01-31T13:56:10Z</time>
      </trkpt>
      <trkpt lat="47.586869057267904" lon="18.688487447798252">
        <ele>214.991943359375</ele>
        <time>2012-01-31T13:56:08Z</time>
      </trkpt>
      <trkpt lat="47.586893197149038" lon="18.688449393957853">
        <ele>214.991943359375</ele>
        <time>2012-01-31T13:56:06Z</time>
      </trkpt>
      <trkpt lat="47.586912056431174" lon="18.688410082831979">
        <ele>214.51123046875</ele>
        <time>2012-01-31T13:56:04Z</time>
      </trkpt>
      <trkpt lat="47.586933178827167" lon="18.688371358439326">
        <ele>214.991943359375</ele>
        <time>2012-01-31T13:56:02Z</time>
      </trkpt>
      <trkpt lat="47.586952457204461" lon="18.688332550227642">
        <ele>214.51123046875</ele>
        <time>2012-01-31T13:56:00Z</time>
      </trkpt>
      <trkpt lat="47.586971065029502" lon="18.688290975987911">
        <ele>214.51123046875</ele>
        <time>2012-01-31T13:55:58Z</time>
      </trkpt>
      <trkpt lat="47.586987996473908" lon="18.688250659033656">
        <ele>214.51123046875</ele>
        <time>2012-01-31T13:55:56Z</time>
      </trkpt>
      <trkpt lat="47.587005598470569" lon="18.68821126408875">
        <ele>215.47265625</ele>
        <time>2012-01-31T13:55:54Z</time>
      </trkpt>
      <trkpt lat="47.587023284286261" lon="18.68817119859159">
        <ele>214.991943359375</ele>
        <time>2012-01-31T13:55:52Z</time>
      </trkpt>
      <trkpt lat="47.587039545178413" lon="18.688129540532827">
        <ele>215.47265625</ele>
        <time>2012-01-31T13:55:50Z</time>
      </trkpt>
      <trkpt lat="47.587058572098613" lon="18.688089223578572">
        <ele>214.51123046875</ele>
        <time>2012-01-31T13:55:48Z</time>
      </trkpt>
      <trkpt lat="47.587072318419814" lon="18.688046894967556">
        <ele>214.51123046875</ele>
        <time>2012-01-31T13:55:46Z</time>
      </trkpt>
      <trkpt lat="47.587087992578745" lon="18.688004063442349">
        <ele>214.51123046875</ele>
        <time>2012-01-31T13:55:44Z</time>
      </trkpt>
      <trkpt lat="47.587103331461549" lon="18.687962489202619">
        <ele>214.51123046875</ele>
        <time>2012-01-31T13:55:42Z</time>
      </trkpt>
      <trkpt lat="47.587117748335004" lon="18.687920579686761">
        <ele>214.51123046875</ele>
        <time>2012-01-31T13:55:40Z</time>
      </trkpt>
      <trkpt lat="47.587131494656205" lon="18.687878418713808">
        <ele>213.550048828125</ele>
        <time>2012-01-31T13:55:38Z</time>
      </trkpt>
      <trkpt lat="47.587144318968058" lon="18.687836173921824">
        <ele>214.0306396484375</ele>
        <time>2012-01-31T13:55:36Z</time>
      </trkpt>
      <trkpt lat="47.587158316746354" lon="18.687793929129839">
        <ele>213.550048828125</ele>
        <time>2012-01-31T13:55:34Z</time>
      </trkpt>
      <trkpt lat="47.587173152714968" lon="18.687750846147537">
        <ele>213.550048828125</ele>
        <time>2012-01-31T13:55:32Z</time>
      </trkpt>
      <trkpt lat="47.58718597702682" lon="18.687705080956221">
        <ele>213.550048828125</ele>
        <time>2012-01-31T13:55:30Z</time>
      </trkpt>
      <trkpt lat="47.587199220433831" lon="18.687659148126841">
        <ele>213.0693359375</ele>
        <time>2012-01-31T13:55:28Z</time>
      </trkpt>
      <trkpt lat="47.587213972583413" lon="18.687615981325507">
        <ele>213.550048828125</ele>
        <time>2012-01-31T13:55:26Z</time>
      </trkpt>
      <trkpt lat="47.587229227647185" lon="18.687570299953222">
        <ele>213.550048828125</ele>
        <time>2012-01-31T13:55:24Z</time>
      </trkpt>
      <trkpt lat="47.587245656177402" lon="18.687525289133191">
        <ele>213.550048828125</ele>
        <time>2012-01-31T13:55:22Z</time>
      </trkpt>
      <trkpt lat="47.587261078879237" lon="18.687483295798302">
        <ele>213.550048828125</ele>
        <time>2012-01-31T13:55:20Z</time>
      </trkpt>
      <trkpt lat="47.587277926504612" lon="18.687441553920507">
        <ele>213.550048828125</ele>
        <time>2012-01-31T13:55:18Z</time>
      </trkpt>
      <trkpt lat="47.587295528501272" lon="18.687397968024015">
        <ele>213.550048828125</ele>
        <time>2012-01-31T13:55:16Z</time>
      </trkpt>
      <trkpt lat="47.587313298135996" lon="18.687355890870094">
        <ele>213.550048828125</ele>
        <time>2012-01-31T13:55:14Z</time>
      </trkpt>
      <trkpt lat="47.587331319227815" lon="18.687314316630363">
        <ele>213.550048828125</ele>
        <time>2012-01-31T13:55:12Z</time>
      </trkpt>
      <trkpt lat="47.587350765243173" lon="18.687274251133204">
        <ele>214.0306396484375</ele>
        <time>2012-01-31T13:55:10Z</time>
      </trkpt>
      <trkpt lat="47.587369037792087" lon="18.687235191464424">
        <ele>213.550048828125</ele>
        <time>2012-01-31T13:55:08Z</time>
      </trkpt>
      <trkpt lat="47.587387645617127" lon="18.687194790691137">
        <ele>214.0306396484375</ele>
        <time>2012-01-31T13:55:06Z</time>
      </trkpt>
      <trkpt lat="47.5874063372612" lon="18.687154054641724">
        <ele>213.550048828125</ele>
        <time>2012-01-31T13:55:04Z</time>
      </trkpt>
      <trkpt lat="47.587427459657192" lon="18.687112983316183">
        <ele>213.0693359375</ele>
        <time>2012-01-31T13:55:02Z</time>
      </trkpt>
      <trkpt lat="47.587448665872216" lon="18.687071828171611">
        <ele>213.550048828125</ele>
        <time>2012-01-31T13:55:00Z</time>
      </trkpt>
      <trkpt lat="47.587469536811113" lon="18.687032349407673">
        <ele>213.550048828125</ele>
        <time>2012-01-31T13:54:58Z</time>
      </trkpt>
      <trkpt lat="47.587489653378725" lon="18.686992870643735">
        <ele>213.550048828125</ele>
        <time>2012-01-31T13:54:56Z</time>
      </trkpt>
      <trkpt lat="47.587511530146003" lon="18.686952721327543">
        <ele>214.0306396484375</ele>
        <time>2012-01-31T13:54:54Z</time>
      </trkpt>
      <trkpt lat="47.587534077465534" lon="18.686917349696159">
        <ele>214.0306396484375</ele>
        <time>2012-01-31T13:54:52Z</time>
      </trkpt>
      <trkpt lat="47.587557043880224" lon="18.68688122369349">
        <ele>214.0306396484375</ele>
        <time>2012-01-31T13:54:50Z</time>
      </trkpt>
      <trkpt lat="47.587581854313612" lon="18.686841996386647">
        <ele>213.550048828125</ele>
        <time>2012-01-31T13:54:48Z</time>
      </trkpt>
      <trkpt lat="47.587608760222793" lon="18.68680452927947">
        <ele>214.0306396484375</ele>
        <time>2012-01-31T13:54:46Z</time>
      </trkpt>
      <trkpt lat="47.587633486837149" lon="18.686767481267452">
        <ele>213.550048828125</ele>
        <time>2012-01-31T13:54:44Z</time>
      </trkpt>
      <trkpt lat="47.587657123804092" lon="18.686730684712529">
        <ele>214.0306396484375</ele>
        <time>2012-01-31T13:54:42Z</time>
      </trkpt>
      <trkpt lat="47.587685119360685" lon="18.686696570366621">
        <ele>213.550048828125</ele>
        <time>2012-01-31T13:54:40Z</time>
      </trkpt>
      <trkpt lat="47.587705655023456" lon="18.686662120744586">
        <ele>214.51123046875</ele>
        <time>2012-01-31T13:54:38Z</time>
      </trkpt>
      <trkpt lat="47.587728118523955" lon="18.686630018055439">
        <ele>214.0306396484375</ele>
        <time>2012-01-31T13:54:36Z</time>
      </trkpt>
      <trkpt lat="47.587755024433136" lon="18.686596238985658">
        <ele>214.0306396484375</ele>
        <time>2012-01-31T13:54:34Z</time>
      </trkpt>
      <trkpt lat="47.587778829038143" lon="18.686557933688164">
        <ele>214.0306396484375</ele>
        <time>2012-01-31T13:54:32Z</time>
      </trkpt>
      <trkpt lat="47.587802298367023" lon="18.68652256205678">
        <ele>214.0306396484375</ele>
        <time>2012-01-31T13:54:30Z</time>
      </trkpt>
      <trkpt lat="47.587826438248158" lon="18.686486938968301">
        <ele>214.0306396484375</ele>
        <time>2012-01-31T13:54:28Z</time>
      </trkpt>
      <trkpt lat="47.587849153205752" lon="18.686452656984329">
        <ele>214.51123046875</ele>
        <time>2012-01-31T13:54:26Z</time>
      </trkpt>
      <trkpt lat="47.587872287258506" lon="18.686415189877152">
        <ele>214.0306396484375</ele>
        <time>2012-01-31T13:54:24Z</time>
      </trkpt>
      <trkpt lat="47.587894834578037" lon="18.686377974227071">
        <ele>214.0306396484375</ele>
        <time>2012-01-31T13:54:22Z</time>
      </trkpt>
      <trkpt lat="47.587918220087886" lon="18.686341680586338">
        <ele>214.0306396484375</ele>
        <time>2012-01-31T13:54:20Z</time>
      </trkpt>
      <trkpt lat="47.587941521778703" lon="18.686303459107876">
        <ele>214.0306396484375</ele>
        <time>2012-01-31T13:54:18Z</time>
      </trkpt>
      <trkpt lat="47.587964655831456" lon="18.686265656724572">
        <ele>214.0306396484375</ele>
        <time>2012-01-31T13:54:16Z</time>
      </trkpt>
      <trkpt lat="47.587986784055829" lon="18.686229027807713">
        <ele>214.51123046875</ele>
        <time>2012-01-31T13:54:14Z</time>
      </trkpt>
      <trkpt lat="47.58800882846117" lon="18.686191057786345">
        <ele>214.0306396484375</ele>
        <time>2012-01-31T13:54:12Z</time>
      </trkpt>
      <trkpt lat="47.588031459599733" lon="18.686153255403042">
        <ele>214.0306396484375</ele>
        <time>2012-01-31T13:54:10Z</time>
      </trkpt>
      <trkpt lat="47.588053336367011" lon="18.686115369200706">
        <ele>214.51123046875</ele>
        <time>2012-01-31T13:54:08Z</time>
      </trkpt>
      <trkpt lat="47.58807479403913" lon="18.686076896265149">
        <ele>214.0306396484375</ele>
        <time>2012-01-31T13:54:06Z</time>
      </trkpt>
      <trkpt lat="47.588096335530281" lon="18.686038590967655">
        <ele>214.51123046875</ele>
        <time>2012-01-31T13:54:04Z</time>
      </trkpt>
      <trkpt lat="47.588117877021432" lon="18.685999531298876">
        <ele>214.0306396484375</ele>
        <time>2012-01-31T13:54:02Z</time>
      </trkpt>
      <trkpt lat="47.588138664141297" lon="18.68596063926816">
        <ele>214.0306396484375</ele>
        <time>2012-01-31T13:54:00Z</time>
      </trkpt>
      <trkpt lat="47.588159618899226" lon="18.685921328142285">
        <ele>214.51123046875</ele>
        <time>2012-01-31T13:53:58Z</time>
      </trkpt>
      <trkpt lat="47.588179567828774" lon="18.685880675911903">
        <ele>213.550048828125</ele>
        <time>2012-01-31T13:53:56Z</time>
      </trkpt>
      <trkpt lat="47.58820085786283" lon="18.685843124985695">
        <ele>214.0306396484375</ele>
        <time>2012-01-31T13:53:54Z</time>
      </trkpt>
      <trkpt lat="47.58822332136333" lon="18.68580574169755">
        <ele>214.0306396484375</ele>
        <time>2012-01-31T13:53:52Z</time>
      </trkpt>
      <trkpt lat="47.588244276121259" lon="18.68576617911458">
        <ele>214.0306396484375</ele>
        <time>2012-01-31T13:53:50Z</time>
      </trkpt>
      <trkpt lat="47.588265985250473" lon="18.685730053111911">
        <ele>213.550048828125</ele>
        <time>2012-01-31T13:53:48Z</time>
      </trkpt>
      <trkpt lat="47.588287945836782" lon="18.685692586004734">
        <ele>214.0306396484375</ele>
        <time>2012-01-31T13:53:46Z</time>
      </trkpt>
      <trkpt lat="47.588309235870838" lon="18.685657968744636">
        <ele>213.550048828125</ele>
        <time>2012-01-31T13:53:44Z</time>
      </trkpt>
      <trkpt lat="47.588331531733274" lon="18.68561957962811">
        <ele>214.0306396484375</ele>
        <time>2012-01-31T13:53:42Z</time>
      </trkpt>
      <trkpt lat="47.588353576138616" lon="18.685578592121601">
        <ele>214.51123046875</ele>
        <time>2012-01-31T13:53:40Z</time>
      </trkpt>
      <trkpt lat="47.588373273611069" lon="18.685540873557329">
        <ele>214.51123046875</ele>
        <time>2012-01-31T13:53:38Z</time>
      </trkpt>
      <trkpt lat="47.588394731283188" lon="18.685503238812089">
        <ele>214.0306396484375</ele>
        <time>2012-01-31T13:53:36Z</time>
      </trkpt>
      <trkpt lat="47.588416943326592" lon="18.685465520247817">
        <ele>213.0693359375</ele>
        <time>2012-01-31T13:53:34Z</time>
      </trkpt>
      <trkpt lat="47.588436892256141" lon="18.685426041483879">
        <ele>213.550048828125</ele>
        <time>2012-01-31T13:53:32Z</time>
      </trkpt>
      <trkpt lat="47.588464636355639" lon="18.685374995693564">
        <ele>213.550048828125</ele>
        <time>2012-01-31T13:53:29Z</time>
      </trkpt>
      <trkpt lat="47.588484920561314" lon="18.685338785871863">
        <ele>213.550048828125</ele>
        <time>2012-01-31T13:53:27Z</time>
      </trkpt>
      <trkpt lat="47.588504953309894" lon="18.685302324593067">
        <ele>214.0306396484375</ele>
        <time>2012-01-31T13:53:25Z</time>
      </trkpt>
      <trkpt lat="47.588525656610727" lon="18.685264438390732">
        <ele>213.550048828125</ele>
        <time>2012-01-31T13:53:23Z</time>
      </trkpt>
      <trkpt lat="47.588546862825751" lon="18.685229318216443">
        <ele>213.0693359375</ele>
        <time>2012-01-31T13:53:21Z</time>
      </trkpt>
      <trkpt lat="47.588568069040775" lon="18.685192186385393">
        <ele>213.0693359375</ele>
        <time>2012-01-31T13:53:19Z</time>
      </trkpt>
      <trkpt lat="47.588588520884514" lon="18.685156647115946">
        <ele>213.550048828125</ele>
        <time>2012-01-31T13:53:17Z</time>
      </trkpt>
      <trkpt lat="47.588608218356967" lon="18.685123454779387">
        <ele>213.0693359375</ele>
        <time>2012-01-31T13:53:15Z</time>
      </trkpt>
      <trkpt lat="47.588629676029086" lon="18.685076935216784">
        <ele>213.0693359375</ele>
        <time>2012-01-31T13:53:12Z</time>
      </trkpt>
      <trkpt lat="47.58868264965713" lon="18.685023374855518">
        <ele>213.0693359375</ele>
        <time>2012-01-31T13:52:57Z</time>
      </trkpt>
      <trkpt lat="47.588685331866145" lon="18.684981465339661">
        <ele>213.0693359375</ele>
        <time>2012-01-31T13:52:51Z</time>
      </trkpt>
      <trkpt lat="47.588680638000369" lon="18.684939472004771">
        <ele>212.588623046875</ele>
        <time>2012-01-31T13:52:46Z</time>
      </trkpt>
      <trkpt lat="47.588683739304543" lon="18.684939136728644">
        <ele>212.1080322265625</ele>
        <time>2012-01-31T13:52:11Z</time>
      </trkpt>
      <trkpt lat="47.58869094774127" lon="18.684954643249512">
        <ele>212.588623046875</ele>
        <time>2012-01-31T13:51:58Z</time>
      </trkpt>
      <trkpt lat="47.588666975498199" lon="18.684988422319293">
        <ele>213.0693359375</ele>
        <time>2012-01-31T13:51:43Z</time>
      </trkpt>
      <trkpt lat="47.588683823123574" lon="18.68492572568357">
        <ele>212.1080322265625</ele>
        <time>2012-01-31T13:51:30Z</time>
      </trkpt>
      <trkpt lat="47.588709136471152" lon="18.6848861631006">
        <ele>212.1080322265625</ele>
        <time>2012-01-31T13:51:27Z</time>
      </trkpt>
      <trkpt lat="47.588724140077829" lon="18.684832518920302">
        <ele>211.62744140625</ele>
        <time>2012-01-31T13:51:24Z</time>
      </trkpt>
      <trkpt lat="47.588739646598697" lon="18.684781473129988">
        <ele>211.62744140625</ele>
        <time>2012-01-31T13:51:21Z</time>
      </trkpt>
      <trkpt lat="47.58875347673893" lon="18.684729840606451">
        <ele>212.1080322265625</ele>
        <time>2012-01-31T13:51:18Z</time>
      </trkpt>
      <trkpt lat="47.588770743459463" lon="18.68467653170228">
        <ele>212.588623046875</ele>
        <time>2012-01-31T13:51:15Z</time>
      </trkpt>
      <trkpt lat="47.588795134797692" lon="18.684623222798109">
        <ele>211.62744140625</ele>
        <time>2012-01-31T13:51:10Z</time>
      </trkpt>
      <trkpt lat="47.588813994079828" lon="18.684577038511634">
        <ele>212.1080322265625</ele>
        <time>2012-01-31T13:51:07Z</time>
      </trkpt>
      <trkpt lat="47.588829416781664" lon="18.684535967186093">
        <ele>212.1080322265625</ele>
        <time>2012-01-31T13:51:05Z</time>
      </trkpt>
      <trkpt lat="47.588845426216722" lon="18.684492884203792">
        <ele>211.146728515625</ele>
        <time>2012-01-31T13:51:03Z</time>
      </trkpt>
      <trkpt lat="47.588864956051111" lon="18.684452399611473">
        <ele>211.62744140625</ele>
        <time>2012-01-31T13:51:01Z</time>
      </trkpt>
      <trkpt lat="47.588882222771645" lon="18.684402024373412">
        <ele>211.62744140625</ele>
        <time>2012-01-31T13:50:59Z</time>
      </trkpt>
      <trkpt lat="47.58890057913959" lon="18.684355085715652">
        <ele>211.62744140625</ele>
        <time>2012-01-31T13:50:57Z</time>
      </trkpt>
      <trkpt lat="47.588915918022394" lon="18.684309655800462">
        <ele>211.62744140625</ele>
        <time>2012-01-31T13:50:55Z</time>
      </trkpt>
      <trkpt lat="47.588932681828737" lon="18.684270428493619">
        <ele>211.62744140625</ele>
        <time>2012-01-31T13:50:53Z</time>
      </trkpt>
      <trkpt lat="47.588948858901858" lon="18.684229021891952">
        <ele>211.146728515625</ele>
        <time>2012-01-31T13:50:51Z</time>
      </trkpt>
      <trkpt lat="47.588974256068468" lon="18.684172192588449">
        <ele>211.146728515625</ele>
        <time>2012-01-31T13:50:48Z</time>
      </trkpt>
      <trkpt lat="47.588992947712541" lon="18.684134054929018">
        <ele>210.666015625</ele>
        <time>2012-01-31T13:50:46Z</time>
      </trkpt>
      <trkpt lat="47.589021027088165" lon="18.684076890349388">
        <ele>210.666015625</ele>
        <time>2012-01-31T13:50:43Z</time>
      </trkpt>
      <trkpt lat="47.589042317122221" lon="18.684036824852228">
        <ele>210.1854248046875</ele>
        <time>2012-01-31T13:50:41Z</time>
      </trkpt>
      <trkpt lat="47.589065534994006" lon="18.684002459049225">
        <ele>210.1854248046875</ele>
        <time>2012-01-31T13:50:39Z</time>
      </trkpt>
      <trkpt lat="47.589086992666125" lon="18.683963650837541">
        <ele>209.704833984375</ele>
        <time>2012-01-31T13:50:37Z</time>
      </trkpt>
      <trkpt lat="47.589106019586325" lon="18.683922663331032">
        <ele>209.22412109375</ele>
        <time>2012-01-31T13:50:35Z</time>
      </trkpt>
      <trkpt lat="47.589126722887158" lon="18.683884525671601">
        <ele>209.22412109375</ele>
        <time>2012-01-31T13:50:33Z</time>
      </trkpt>
      <trkpt lat="47.589147174730897" lon="18.683846723288298">
        <ele>208.743408203125</ele>
        <time>2012-01-31T13:50:31Z</time>
      </trkpt>
      <trkpt lat="47.589167626574636" lon="18.683807663619518">
        <ele>209.22412109375</ele>
        <time>2012-01-31T13:50:29Z</time>
      </trkpt>
      <trkpt lat="47.589187156409025" lon="18.683764832094312">
        <ele>208.743408203125</ele>
        <time>2012-01-31T13:50:27Z</time>
      </trkpt>
      <trkpt lat="47.589209787547588" lon="18.683726945891976">
        <ele>208.743408203125</ele>
        <time>2012-01-31T13:50:25Z</time>
      </trkpt>
      <trkpt lat="47.589235436171293" lon="18.683687383309007">
        <ele>208.2628173828125</ele>
        <time>2012-01-31T13:50:23Z</time>
      </trkpt>
      <trkpt lat="47.589268460869789" lon="18.68363625369966">
        <ele>208.2628173828125</ele>
        <time>2012-01-31T13:50:20Z</time>
      </trkpt>
      <trkpt lat="47.589294863864779" lon="18.683595350012183">
        <ele>208.2628173828125</ele>
        <time>2012-01-31T13:50:18Z</time>
      </trkpt>
      <trkpt lat="47.589320093393326" lon="18.683558972552419">
        <ele>208.2628173828125</ele>
        <time>2012-01-31T13:50:16Z</time>
      </trkpt>
      <trkpt lat="47.589345658197999" lon="18.683526534587145">
        <ele>208.2628173828125</ele>
        <time>2012-01-31T13:50:14Z</time>
      </trkpt>
      <trkpt lat="47.58937256410718" lon="18.683495940640569">
        <ele>208.2628173828125</ele>
        <time>2012-01-31T13:50:12Z</time>
      </trkpt>
      <trkpt lat="47.589399972930551" lon="18.683443637564778">
        <ele>206.8206787109375</ele>
        <time>2012-01-31T13:50:08Z</time>
      </trkpt>
      <trkpt lat="47.589402655139565" lon="18.68342955596745">
        <ele>207.7821044921875</ele>
        <time>2012-01-31T13:49:44Z</time>
      </trkpt>
      <trkpt lat="47.589437859132886" lon="18.6833665240556">
        <ele>207.7821044921875</ele>
        <time>2012-01-31T13:49:29Z</time>
      </trkpt>
      <trkpt lat="47.589463340118527" lon="18.683328554034233">
        <ele>207.3013916015625</ele>
        <time>2012-01-31T13:49:26Z</time>
      </trkpt>
      <trkpt lat="47.589496616274118" lon="18.683289075270295">
        <ele>207.7821044921875</ele>
        <time>2012-01-31T13:49:23Z</time>
      </trkpt>
      <trkpt lat="47.58951723575592" lon="18.683234257623553">
        <ele>207.3013916015625</ele>
        <time>2012-01-31T13:49:20Z</time>
      </trkpt>
      <trkpt lat="47.58953869342804" lon="18.683180697262287">
        <ele>206.8206787109375</ele>
        <time>2012-01-31T13:49:17Z</time>
      </trkpt>
      <trkpt lat="47.589569790288806" lon="18.683134093880653">
        <ele>206.8206787109375</ele>
        <time>2012-01-31T13:49:14Z</time>
      </trkpt>
      <trkpt lat="47.589601138606668" lon="18.683089166879654">
        <ele>206.340087890625</ele>
        <time>2012-01-31T13:49:11Z</time>
      </trkpt>
      <trkpt lat="47.589633828029037" lon="18.683028565719724">
        <ele>206.8206787109375</ele>
        <time>2012-01-31T13:49:08Z</time>
      </trkpt>
      <trkpt lat="47.589666182175279" lon="18.682972574606538">
        <ele>206.340087890625</ele>
        <time>2012-01-31T13:49:05Z</time>
      </trkpt>
      <trkpt lat="47.589698033407331" lon="18.682927563786507">
        <ele>206.340087890625</ele>
        <time>2012-01-31T13:49:02Z</time>
      </trkpt>
      <trkpt lat="47.589728459715843" lon="18.682879786938429">
        <ele>205.8594970703125</ele>
        <time>2012-01-31T13:48:59Z</time>
      </trkpt>
      <trkpt lat="47.589769195765257" lon="18.682827232405543">
        <ele>206.340087890625</ele>
        <time>2012-01-31T13:48:56Z</time>
      </trkpt>
      <trkpt lat="47.589807668700814" lon="18.682781383395195">
        <ele>205.8594970703125</ele>
        <time>2012-01-31T13:48:53Z</time>
      </trkpt>
      <trkpt lat="47.589833820238709" lon="18.682748945429921">
        <ele>206.340087890625</ele>
        <time>2012-01-31T13:48:51Z</time>
      </trkpt>
      <trkpt lat="47.589860977604985" lon="18.682714579626918">
        <ele>206.340087890625</ele>
        <time>2012-01-31T13:48:49Z</time>
      </trkpt>
      <trkpt lat="47.589902048930526" lon="18.682676190510392">
        <ele>206.340087890625</ele>
        <time>2012-01-31T13:48:46Z</time>
      </trkpt>
      <trkpt lat="47.589939264580607" lon="18.68262967094779">
        <ele>205.8594970703125</ele>
        <time>2012-01-31T13:48:43Z</time>
      </trkpt>
      <trkpt lat="47.589972540736198" lon="18.682579798623919">
        <ele>205.8594970703125</ele>
        <time>2012-01-31T13:48:40Z</time>
      </trkpt>
      <trkpt lat="47.58999751880765" lon="18.68253537453711">
        <ele>206.340087890625</ele>
        <time>2012-01-31T13:48:37Z</time>
      </trkpt>
      <trkpt lat="47.590026436373591" lon="18.682492626830935">
        <ele>205.3787841796875</ele>
        <time>2012-01-31T13:48:34Z</time>
      </trkpt>
      <trkpt lat="47.590053426101804" lon="18.682443173602223">
        <ele>205.8594970703125</ele>
        <time>2012-01-31T13:48:31Z</time>
      </trkpt>
      <trkpt lat="47.590099275112152" lon="18.682387350127101">
        <ele>205.3787841796875</ele>
        <time>2012-01-31T13:48:24Z</time>
      </trkpt>
      <trkpt lat="47.590127270668745" lon="18.682341836392879">
        <ele>205.3787841796875</ele>
        <time>2012-01-31T13:48:21Z</time>
      </trkpt>
      <trkpt lat="47.590168258175254" lon="18.682295149192214">
        <ele>205.8594970703125</ele>
        <time>2012-01-31T13:48:17Z</time>
      </trkpt>
      <trkpt lat="47.590198181569576" lon="18.682257933542132">
        <ele>205.8594970703125</ele>
        <time>2012-01-31T13:48:14Z</time>
      </trkpt>
      <trkpt lat="47.590243192389607" lon="18.68222264572978">
        <ele>205.8594970703125</ele>
        <time>2012-01-31T13:48:10Z</time>
      </trkpt>
      <trkpt lat="47.590281078591943" lon="18.682187860831618">
        <ele>205.3787841796875</ele>
        <time>2012-01-31T13:48:06Z</time>
      </trkpt>
      <trkpt lat="47.590315779671073" lon="18.682146370410919">
        <ele>205.3787841796875</ele>
        <time>2012-01-31T13:48:02Z</time>
      </trkpt>
      <trkpt lat="47.590344781056046" lon="18.682107059285045">
        <ele>205.3787841796875</ele>
        <time>2012-01-31T13:47:59Z</time>
      </trkpt>
      <trkpt lat="47.590364394709468" lon="18.682044362649322">
        <ele>205.8594970703125</ele>
        <time>2012-01-31T13:47:55Z</time>
      </trkpt>
      <trkpt lat="47.590383840724826" lon="18.681983174756169">
        <ele>205.8594970703125</ele>
        <time>2012-01-31T13:47:51Z</time>
      </trkpt>
      <trkpt lat="47.590420637279749" lon="18.681930117309093">
        <ele>205.3787841796875</ele>
        <time>2012-01-31T13:47:47Z</time>
      </trkpt>
      <trkpt lat="47.590451231226325" lon="18.681873036548495">
        <ele>206.340087890625</ele>
        <time>2012-01-31T13:47:43Z</time>
      </trkpt>
      <trkpt lat="47.590474868193269" lon="18.68182735517621">
        <ele>206.340087890625</ele>
        <time>2012-01-31T13:47:40Z</time>
      </trkpt>
      <trkpt lat="47.590499175712466" lon="18.681801371276379">
        <ele>206.340087890625</ele>
        <time>2012-01-31T13:47:38Z</time>
      </trkpt>
      <trkpt lat="47.590539492666721" lon="18.6817467212677">
        <ele>206.340087890625</ele>
        <time>2012-01-31T13:47:29Z</time>
      </trkpt>
      <trkpt lat="47.590528093278408" lon="18.681683521717787">
        <ele>204.41748046875</ele>
        <time>2012-01-31T13:45:49Z</time>
      </trkpt>
      <trkpt lat="47.590505043044686" lon="18.681648233905435">
        <ele>205.3787841796875</ele>
        <time>2012-01-31T13:45:46Z</time>
      </trkpt>
      <trkpt lat="47.590486854314804" lon="18.681597942486405">
        <ele>206.8206787109375</ele>
        <time>2012-01-31T13:45:42Z</time>
      </trkpt>
      <trkpt lat="47.590487357228994" lon="18.681550836190581">
        <ele>207.7821044921875</ele>
        <time>2012-01-31T13:45:36Z</time>
      </trkpt>
      <trkpt lat="47.590487524867058" lon="18.68148629553616">
        <ele>208.743408203125</ele>
        <time>2012-01-31T13:45:25Z</time>
      </trkpt>
      <trkpt lat="47.590473694726825" lon="18.681443128734827">
        <ele>209.22412109375</ele>
        <time>2012-01-31T13:45:21Z</time>
      </trkpt>
      <trkpt lat="47.590453242883086" lon="18.681396273896098">
        <ele>209.704833984375</ele>
        <time>2012-01-31T13:45:17Z</time>
      </trkpt>
      <trkpt lat="47.590428097173572" lon="18.681329553946853">
        <ele>211.146728515625</ele>
        <time>2012-01-31T13:45:10Z</time>
      </trkpt>
      <trkpt lat="47.590404124930501" lon="18.681256044656038">
        <ele>211.146728515625</ele>
        <time>2012-01-31T13:45:06Z</time>
      </trkpt>
      <trkpt lat="47.590395240113139" lon="18.681206172332168">
        <ele>213.0693359375</ele>
        <time>2012-01-31T13:45:03Z</time>
      </trkpt>
      <trkpt lat="47.590385936200619" lon="18.681148421019316">
        <ele>213.550048828125</ele>
        <time>2012-01-31T13:45:00Z</time>
      </trkpt>
      <trkpt lat="47.590377470478415" lon="18.681092849001288">
        <ele>214.991943359375</ele>
        <time>2012-01-31T13:44:57Z</time>
      </trkpt>
      <trkpt lat="47.590358778834343" lon="18.681029565632343">
        <ele>215.47265625</ele>
        <time>2012-01-31T13:44:54Z</time>
      </trkpt>
      <trkpt lat="47.590342853218317" lon="18.680976592004299">
        <ele>216.9146728515625</ele>
        <time>2012-01-31T13:44:51Z</time>
      </trkpt>
      <trkpt lat="47.590322233736515" lon="18.68092143908143">
        <ele>217.3953857421875</ele>
        <time>2012-01-31T13:44:48Z</time>
      </trkpt>
      <trkpt lat="47.590301530435681" lon="18.680859664455056">
        <ele>217.3953857421875</ele>
        <time>2012-01-31T13:44:45Z</time>
      </trkpt>
      <trkpt lat="47.590284934267402" lon="18.680801577866077">
        <ele>216.9146728515625</ele>
        <time>2012-01-31T13:44:42Z</time>
      </trkpt>
      <trkpt lat="47.590266074985266" lon="18.680740892887115">
        <ele>217.3953857421875</ele>
        <time>2012-01-31T13:44:39Z</time>
      </trkpt>
      <trkpt lat="47.59025014936924" lon="18.680685488507152">
        <ele>217.8759765625</ele>
        <time>2012-01-31T13:44:36Z</time>
      </trkpt>
      <trkpt lat="47.590225422754884" lon="18.680626899003983">
        <ele>218.8372802734375</ele>
        <time>2012-01-31T13:44:33Z</time>
      </trkpt>
      <trkpt lat="47.590216370299459" lon="18.680528663098812">
        <ele>220.7598876953125</ele>
        <time>2012-01-31T13:44:21Z</time>
      </trkpt>
      <trkpt lat="47.590203043073416" lon="18.680497650057077">
        <ele>220.7598876953125</ele>
        <time>2012-01-31T13:44:15Z</time>
      </trkpt>
      <trkpt lat="47.590184854343534" lon="18.680466553196311">
        <ele>221.72119140625</ele>
        <time>2012-01-31T13:44:12Z</time>
      </trkpt>
      <trkpt lat="47.590165827423334" lon="18.680430175736547">
        <ele>221.72119140625</ele>
        <time>2012-01-31T13:44:09Z</time>
      </trkpt>
      <trkpt lat="47.590160546824336" lon="18.680377369746566">
        <ele>223.1632080078125</ele>
        <time>2012-01-31T13:44:04Z</time>
      </trkpt>
      <trkpt lat="47.590130623430014" lon="18.680345686152577">
        <ele>223.643798828125</ele>
        <time>2012-01-31T13:43:58Z</time>
      </trkpt>
      <trkpt lat="47.590113691985607" lon="18.680222220718861">
        <ele>224.605224609375</ele>
        <time>2012-01-31T13:43:46Z</time>
      </trkpt>
      <trkpt lat="47.590103382244706" lon="18.680155668407679">
        <ele>225.5665283203125</ele>
        <time>2012-01-31T13:43:42Z</time>
      </trkpt>
      <trkpt lat="47.590088462457061" lon="18.68009272031486">
        <ele>227.008544921875</ele>
        <time>2012-01-31T13:43:39Z</time>
      </trkpt>
      <trkpt lat="47.590075638145208" lon="18.68003211915493">
        <ele>227.9697265625</ele>
        <time>2012-01-31T13:43:36Z</time>
      </trkpt>
      <trkpt lat="47.590059880167246" lon="18.679974116384983">
        <ele>228.93115234375</ele>
        <time>2012-01-31T13:43:33Z</time>
      </trkpt>
      <trkpt lat="47.590048648416996" lon="18.679910581558943">
        <ele>228.93115234375</ele>
        <time>2012-01-31T13:43:30Z</time>
      </trkpt>
      <trkpt lat="47.590040937066078" lon="18.679850650951266">
        <ele>229.4117431640625</ele>
        <time>2012-01-31T13:43:27Z</time>
      </trkpt>
      <trkpt lat="47.590027693659067" lon="18.679792480543256">
        <ele>230.373046875</ele>
        <time>2012-01-31T13:43:24Z</time>
      </trkpt>
      <trkpt lat="47.590015036985278" lon="18.679723916575313">
        <ele>230.853759765625</ele>
        <time>2012-01-31T13:43:21Z</time>
      </trkpt>
      <trkpt lat="47.590005397796631" lon="18.679647641256452">
        <ele>231.3343505859375</ele>
        <time>2012-01-31T13:43:18Z</time>
      </trkpt>
      <trkpt lat="47.590003972873092" lon="18.67959869094193">
        <ele>231.3343505859375</ele>
        <time>2012-01-31T13:43:16Z</time>
      </trkpt>
      <trkpt lat="47.590002547949553" lon="18.679537083953619">
        <ele>233.7376708984375</ele>
        <time>2012-01-31T13:43:14Z</time>
      </trkpt>
      <trkpt lat="47.589998189359903" lon="18.679475644603372">
        <ele>235.6602783203125</ele>
        <time>2012-01-31T13:43:12Z</time>
      </trkpt>
      <trkpt lat="47.58999458514154" lon="18.679417977109551">
        <ele>237.102294921875</ele>
        <time>2012-01-31T13:43:10Z</time>
      </trkpt>
      <trkpt lat="47.590004559606314" lon="18.679348491132259">
        <ele>237.102294921875</ele>
        <time>2012-01-31T13:43:07Z</time>
      </trkpt>
      <trkpt lat="47.590010426938534" lon="18.679272383451462">
        <ele>237.102294921875</ele>
        <time>2012-01-31T13:43:04Z</time>
      </trkpt>
      <trkpt lat="47.590010594576597" lon="18.679193258285522">
        <ele>237.5828857421875</ele>
        <time>2012-01-31T13:43:01Z</time>
      </trkpt>
      <trkpt lat="47.590005984529853" lon="18.679109942167997">
        <ele>239.02490234375</ele>
        <time>2012-01-31T13:42:58Z</time>
      </trkpt>
      <trkpt lat="47.590006738901138" lon="18.679042216390371">
        <ele>241.42822265625</ele>
        <time>2012-01-31T13:42:55Z</time>
      </trkpt>
      <trkpt lat="47.590004056692123" lon="18.678977759554982">
        <ele>242.3896484375</ele>
        <time>2012-01-31T13:42:52Z</time>
      </trkpt>
      <trkpt lat="47.589991819113493" lon="18.678903747349977">
        <ele>243.350830078125</ele>
        <time>2012-01-31T13:42:49Z</time>
      </trkpt>
      <trkpt lat="47.589981677010655" lon="18.678842727094889">
        <ele>244.7928466796875</ele>
        <time>2012-01-31T13:42:46Z</time>
      </trkpt>
      <trkpt lat="47.589976731687784" lon="18.678786735981703">
        <ele>244.7928466796875</ele>
        <time>2012-01-31T13:42:43Z</time>
      </trkpt>
      <trkpt lat="47.589976396411657" lon="18.678728649392724">
        <ele>244.7928466796875</ele>
        <time>2012-01-31T13:42:40Z</time>
      </trkpt>
      <trkpt lat="47.589973043650389" lon="18.678672071546316">
        <ele>245.2734375</ele>
        <time>2012-01-31T13:42:37Z</time>
      </trkpt>
      <trkpt lat="47.589962733909488" lon="18.678605854511261">
        <ele>247.6767578125</ele>
        <time>2012-01-31T13:42:34Z</time>
      </trkpt>
      <trkpt lat="47.589955776929855" lon="18.67854424752295">
        <ele>248.63818359375</ele>
        <time>2012-01-31T13:42:31Z</time>
      </trkpt>
      <trkpt lat="47.589946975931525" lon="18.678496554493904">
        <ele>248.63818359375</ele>
        <time>2012-01-31T13:42:29Z</time>
      </trkpt>
      <trkpt lat="47.589942030608654" lon="18.678452717140317">
        <ele>249.5994873046875</ele>
        <time>2012-01-31T13:42:27Z</time>
      </trkpt>
      <trkpt lat="47.589932642877102" lon="18.678407454863191">
        <ele>250.560791015625</ele>
        <time>2012-01-31T13:42:25Z</time>
      </trkpt>
      <trkpt lat="47.589934822171926" lon="18.678340818732977">
        <ele>250.560791015625</ele>
        <time>2012-01-31T13:41:42Z</time>
      </trkpt>
      <trkpt lat="47.589935995638371" lon="18.678323719650507">
        <ele>250.0802001953125</ele>
        <time>2012-01-31T13:41:19Z</time>
      </trkpt>
      <trkpt lat="47.589934570714831" lon="18.678266974166036">
        <ele>250.560791015625</ele>
        <time>2012-01-31T13:41:14Z</time>
      </trkpt>
      <trkpt lat="47.589934570714831" lon="18.678213832899928">
        <ele>251.0413818359375</ele>
        <time>2012-01-31T13:41:11Z</time>
      </trkpt>
      <trkpt lat="47.589942952618003" lon="18.678152225911617">
        <ele>251.5220947265625</ele>
        <time>2012-01-31T13:41:07Z</time>
      </trkpt>
      <trkpt lat="47.58993742056191" lon="18.678079470992088">
        <ele>252.0028076171875</ele>
        <time>2012-01-31T13:41:03Z</time>
      </trkpt>
      <trkpt lat="47.589927865192294" lon="18.678019121289253">
        <ele>252.0028076171875</ele>
        <time>2012-01-31T13:40:59Z</time>
      </trkpt>
      <trkpt lat="47.589903473854065" lon="18.677968326956034">
        <ele>252.4833984375</ele>
        <time>2012-01-31T13:40:51Z</time>
      </trkpt>
      <trkpt lat="47.589873718097806" lon="18.677948461845517">
        <ele>253.4447021484375</ele>
        <time>2012-01-31T13:40:47Z</time>
      </trkpt>
      <trkpt lat="47.58983532898128" lon="18.677935469895601">
        <ele>254.8865966796875</ele>
        <time>2012-01-31T13:40:40Z</time>
      </trkpt>
      <trkpt lat="47.589801969006658" lon="18.67792809382081">
        <ele>255.8480224609375</ele>
        <time>2012-01-31T13:40:37Z</time>
      </trkpt>
      <trkpt lat="47.589770117774606" lon="18.677906552329659">
        <ele>255.3673095703125</ele>
        <time>2012-01-31T13:40:34Z</time>
      </trkpt>
      <trkpt lat="47.589741032570601" lon="18.677888363599777">
        <ele>257.770751953125</ele>
        <time>2012-01-31T13:40:32Z</time>
      </trkpt>
      <trkpt lat="47.589706247672439" lon="18.677866067737341">
        <ele>260.1739501953125</ele>
        <time>2012-01-31T13:40:30Z</time>
      </trkpt>
      <trkpt lat="47.589682778343558" lon="18.677838742733002">
        <ele>261.13525390625</ele>
        <time>2012-01-31T13:40:28Z</time>
      </trkpt>
      <trkpt lat="47.589647322893143" lon="18.677819380536675">
        <ele>264.4998779296875</ele>
        <time>2012-01-31T13:40:25Z</time>
      </trkpt>
      <trkpt lat="47.589622596278787" lon="18.677788199856877">
        <ele>264.4998779296875</ele>
        <time>2012-01-31T13:40:22Z</time>
      </trkpt>
      <trkpt lat="47.589599043130875" lon="18.67775559425354">
        <ele>266.9031982421875</ele>
        <time>2012-01-31T13:40:19Z</time>
      </trkpt>
      <trkpt lat="47.589578172191978" lon="18.677729945629835">
        <ele>268.8258056640625</ele>
        <time>2012-01-31T13:40:16Z</time>
      </trkpt>
      <trkpt lat="47.589554954320192" lon="18.677708655595779">
        <ele>270.2677001953125</ele>
        <time>2012-01-31T13:40:13Z</time>
      </trkpt>
      <trkpt lat="47.589530227705836" lon="18.677691053599119">
        <ele>271.709716796875</ele>
        <time>2012-01-31T13:40:10Z</time>
      </trkpt>
      <trkpt lat="47.589507177472115" lon="18.677680743858218">
        <ele>270.7484130859375</ele>
        <time>2012-01-31T13:39:43Z</time>
      </trkpt>
      <trkpt lat="47.589540621265769" lon="18.677690885961056">
        <ele>269.787109375</ele>
        <time>2012-01-31T13:39:18Z</time>
      </trkpt>
      <trkpt lat="47.589518744498491" lon="18.677686778828502">
        <ele>270.7484130859375</ele>
        <time>2012-01-31T13:38:56Z</time>
      </trkpt>
      <trkpt lat="47.589483456686139" lon="18.677677642554045">
        <ele>272.1904296875</ele>
        <time>2012-01-31T13:38:53Z</time>
      </trkpt>
      <trkpt lat="47.589443391188979" lon="18.677676888182759">
        <ele>274.113037109375</ele>
        <time>2012-01-31T13:38:50Z</time>
      </trkpt>
      <trkpt lat="47.589402990415692" lon="18.677663058042526">
        <ele>276.03564453125</ele>
        <time>2012-01-31T13:38:47Z</time>
      </trkpt>
      <trkpt lat="47.58936669677496" lon="18.677657525986433">
        <ele>277.4776611328125</ele>
        <time>2012-01-31T13:38:44Z</time>
      </trkpt>
      <trkpt lat="47.589329648762941" lon="18.677653167396784">
        <ele>278.919677734375</ele>
        <time>2012-01-31T13:38:41Z</time>
      </trkpt>
      <trkpt lat="47.58928949944675" lon="18.677653083577752">
        <ele>279.4002685546875</ele>
        <time>2012-01-31T13:38:38Z</time>
      </trkpt>
      <trkpt lat="47.589252451434731" lon="18.677670517936349">
        <ele>279.880859375</ele>
        <time>2012-01-31T13:38:35Z</time>
      </trkpt>
      <trkpt lat="47.589215068146586" lon="18.67768426425755">
        <ele>281.322998046875</ele>
        <time>2012-01-31T13:38:26Z</time>
      </trkpt>
      <trkpt lat="47.589166117832065" lon="18.677705721929669">
        <ele>280.8424072265625</ele>
        <time>2012-01-31T13:38:06Z</time>
      </trkpt>
      <trkpt lat="47.589132590219378" lon="18.677732292562723">
        <ele>282.7650146484375</ele>
        <time>2012-01-31T13:38:01Z</time>
      </trkpt>
      <trkpt lat="47.589101660996675" lon="18.677743943408132">
        <ele>284.2069091796875</ele>
        <time>2012-01-31T13:37:56Z</time>
      </trkpt>
      <trkpt lat="47.589070145040751" lon="18.677751487120986">
        <ele>284.2069091796875</ele>
        <time>2012-01-31T13:37:53Z</time>
      </trkpt>
      <trkpt lat="47.589035276323557" lon="18.677760371938348">
        <ele>284.6876220703125</ele>
        <time>2012-01-31T13:37:50Z</time>
      </trkpt>
      <trkpt lat="47.588998563587666" lon="18.67776196449995">
        <ele>284.6876220703125</ele>
        <time>2012-01-31T13:37:47Z</time>
      </trkpt>
      <trkpt lat="47.588967047631741" lon="18.677762718871236">
        <ele>285.6488037109375</ele>
        <time>2012-01-31T13:37:44Z</time>
      </trkpt>
      <trkpt lat="47.588928071781993" lon="18.677749559283257">
        <ele>284.6876220703125</ele>
        <time>2012-01-31T13:37:37Z</time>
      </trkpt>
      <trkpt lat="47.588894544169307" lon="18.677748469635844">
        <ele>284.6876220703125</ele>
        <time>2012-01-31T13:37:34Z</time>
      </trkpt>
      <trkpt lat="47.588853891938925" lon="18.67775509133935">
        <ele>284.6876220703125</ele>
        <time>2012-01-31T13:37:30Z</time>
      </trkpt>
      <trkpt lat="47.588819693773985" lon="18.677757270634174">
        <ele>284.6876220703125</ele>
        <time>2012-01-31T13:37:27Z</time>
      </trkpt>
      <trkpt lat="47.588781975209713" lon="18.677755929529667">
        <ele>284.6876220703125</ele>
        <time>2012-01-31T13:37:24Z</time>
      </trkpt>
      <trkpt lat="47.588744089007378" lon="18.677752241492271">
        <ele>284.2069091796875</ele>
        <time>2012-01-31T13:37:21Z</time>
      </trkpt>
      <trkpt lat="47.588704442605376" lon="18.677735729143023">
        <ele>283.7261962890625</ele>
        <time>2012-01-31T13:37:18Z</time>
      </trkpt>
      <trkpt lat="47.588663371279836" lon="18.677723743021488">
        <ele>283.7261962890625</ele>
        <time>2012-01-31T13:37:15Z</time>
      </trkpt>
      <trkpt lat="47.588623641058803" lon="18.677703626453876">
        <ele>283.7261962890625</ele>
        <time>2012-01-31T13:37:12Z</time>
      </trkpt>
      <trkpt lat="47.588580977171659" lon="18.677674625068903">
        <ele>283.24560546875</ele>
        <time>2012-01-31T13:37:09Z</time>
      </trkpt>
      <trkpt lat="47.588552478700876" lon="18.67765543051064">
        <ele>284.2069091796875</ele>
        <time>2012-01-31T13:37:07Z</time>
      </trkpt>
      <trkpt lat="47.588524734601378" lon="18.677634727209806">
        <ele>285.168212890625</ele>
        <time>2012-01-31T13:37:05Z</time>
      </trkpt>
      <trkpt lat="47.588499253615737" lon="18.677612850442529">
        <ele>285.168212890625</ele>
        <time>2012-01-31T13:37:03Z</time>
      </trkpt>
      <trkpt lat="47.588466899469495" lon="18.677570018917322">
        <ele>286.6102294921875</ele>
        <time>2012-01-31T13:37:00Z</time>
      </trkpt>
      <trkpt lat="47.588435718789697" lon="18.677533222362399">
        <ele>286.1295166015625</ele>
        <time>2012-01-31T13:36:57Z</time>
      </trkpt>
      <trkpt lat="47.588405376300216" lon="18.677487792447209">
        <ele>286.1295166015625</ele>
        <time>2012-01-31T13:36:53Z</time>
      </trkpt>
      <trkpt lat="47.588376039639115" lon="18.677447894588113">
        <ele>287.0908203125</ele>
        <time>2012-01-31T13:36:50Z</time>
      </trkpt>
      <trkpt lat="47.588344942778349" lon="18.677402548491955">
        <ele>287.5714111328125</ele>
        <time>2012-01-31T13:36:47Z</time>
      </trkpt>
      <trkpt lat="47.588315270841122" lon="18.677352676168084">
        <ele>287.5714111328125</ele>
        <time>2012-01-31T13:36:44Z</time>
      </trkpt>
      <trkpt lat="47.58828735910356" lon="18.677311772480607">
        <ele>288.05224609375</ele>
        <time>2012-01-31T13:36:41Z</time>
      </trkpt>
      <trkpt lat="47.588237654417753" lon="18.677254524081945">
        <ele>289.0135498046875</ele>
        <time>2012-01-31T13:36:30Z</time>
      </trkpt>
      <trkpt lat="47.588205132633448" lon="18.677221750840545">
        <ele>289.974853515625</ele>
        <time>2012-01-31T13:36:26Z</time>
      </trkpt>
      <trkpt lat="47.588177556172013" lon="18.677194258198142">
        <ele>291.8974609375</ele>
        <time>2012-01-31T13:36:23Z</time>
      </trkpt>
      <trkpt lat="47.588109746575356" lon="18.677146146073937">
        <ele>291.8974609375</ele>
        <time>2012-01-31T13:36:15Z</time>
      </trkpt>
      <trkpt lat="47.588076889514923" lon="18.677121922373772">
        <ele>293.33935546875</ele>
        <time>2012-01-31T13:36:12Z</time>
      </trkpt>
      <trkpt lat="47.588040847331285" lon="18.67709543555975">
        <ele>294.7813720703125</ele>
        <time>2012-01-31T13:36:08Z</time>
      </trkpt>
      <trkpt lat="47.58800832554698" lon="18.677074899896979">
        <ele>294.7813720703125</ele>
        <time>2012-01-31T13:36:05Z</time>
      </trkpt>
      <trkpt lat="47.587971780449152" lon="18.677050927653909">
        <ele>296.2235107421875</ele>
        <time>2012-01-31T13:36:02Z</time>
      </trkpt>
      <trkpt lat="47.587938420474529" lon="18.677026284858584">
        <ele>296.2235107421875</ele>
        <time>2012-01-31T13:35:59Z</time>
      </trkpt>
      <trkpt lat="47.587902378290892" lon="18.677000468596816">
        <ele>298.626708984375</ele>
        <time>2012-01-31T13:35:56Z</time>
      </trkpt>
      <trkpt lat="47.587784444913268" lon="18.676872560754418">
        <ele>299.1072998046875</ele>
        <time>2012-01-31T13:35:37Z</time>
      </trkpt>
      <trkpt lat="47.587742283940315" lon="18.676820425316691">
        <ele>301.5106201171875</ele>
        <time>2012-01-31T13:35:30Z</time>
      </trkpt>
      <trkpt lat="47.587713953107595" lon="18.676761584356427">
        <ele>301.9913330078125</ele>
        <time>2012-01-31T13:35:26Z</time>
      </trkpt>
      <trkpt lat="47.587682018056512" lon="18.676689583808184">
        <ele>303.4332275390625</ele>
        <time>2012-01-31T13:35:20Z</time>
      </trkpt>
      <trkpt lat="47.587653016671538" lon="18.676628982648253">
        <ele>306.3172607421875</ele>
        <time>2012-01-31T13:35:16Z</time>
      </trkpt>
      <trkpt lat="47.587629463523626" lon="18.676586151123047">
        <ele>308.2398681640625</ele>
        <time>2012-01-31T13:35:13Z</time>
      </trkpt>
      <trkpt lat="47.587602557614446" lon="18.676546923816204">
        <ele>308.2398681640625</ele>
        <time>2012-01-31T13:35:10Z</time>
      </trkpt>
      <trkpt lat="47.587569868192077" lon="18.676509372889996">
        <ele>310.1624755859375</ele>
        <time>2012-01-31T13:35:07Z</time>
      </trkpt>
      <trkpt lat="47.587539022788405" lon="18.676476683467627">
        <ele>312.085205078125</ele>
        <time>2012-01-31T13:35:04Z</time>
      </trkpt>
      <trkpt lat="47.587508764117956" lon="18.676442820578814">
        <ele>312.5657958984375</ele>
        <time>2012-01-31T13:35:01Z</time>
      </trkpt>
      <trkpt lat="47.587482444941998" lon="18.676411472260952">
        <ele>313.5272216796875</ele>
        <time>2012-01-31T13:34:58Z</time>
      </trkpt>
      <trkpt lat="47.587456293404102" lon="18.676378866657615">
        <ele>314.9691162109375</ele>
        <time>2012-01-31T13:34:55Z</time>
      </trkpt>
      <trkpt lat="47.587429974228144" lon="18.676345087587833">
        <ele>316.4110107421875</ele>
        <time>2012-01-31T13:34:52Z</time>
      </trkpt>
      <trkpt lat="47.587407175451517" lon="18.676317427307367">
        <ele>316.8917236328125</ele>
        <time>2012-01-31T13:34:49Z</time>
      </trkpt>
      <trkpt lat="47.587376330047846" lon="18.676288174465299">
        <ele>316.8917236328125</ele>
        <time>2012-01-31T13:34:46Z</time>
      </trkpt>
      <trkpt lat="47.587342299520969" lon="18.676260095089674">
        <ele>318.8143310546875</ele>
        <time>2012-01-31T13:34:42Z</time>
      </trkpt>
      <trkpt lat="47.587316734716296" lon="18.676230339333415">
        <ele>319.2950439453125</ele>
        <time>2012-01-31T13:34:38Z</time>
      </trkpt>
      <trkpt lat="47.587308352813125" lon="18.676193123683333">
        <ele>319.775634765625</ele>
        <time>2012-01-31T13:34:34Z</time>
      </trkpt>
      <trkpt lat="47.58731447160244" lon="18.676182646304369">
        <ele>319.775634765625</ele>
        <time>2012-01-31T13:34:25Z</time>
      </trkpt>
      <trkpt lat="47.587320925667882" lon="18.676207037642598">
        <ele>319.775634765625</ele>
        <time>2012-01-31T13:34:21Z</time>
      </trkpt>
      <trkpt lat="47.587341880425811" lon="18.676216676831245">
        <ele>319.775634765625</ele>
        <time>2012-01-31T13:33:58Z</time>
      </trkpt>
      <trkpt lat="47.587326793000102" lon="18.67620125412941">
        <ele>320.737060546875</ele>
        <time>2012-01-31T13:33:47Z</time>
      </trkpt>
      <trkpt lat="47.587315645068884" lon="18.67616219446063">
        <ele>320.25634765625</ele>
        <time>2012-01-31T13:33:23Z</time>
      </trkpt>
      <trkpt lat="47.587294271215796" lon="18.676124727353454">
        <ele>321.2177734375</ele>
        <time>2012-01-31T13:33:19Z</time>
      </trkpt>
      <trkpt lat="47.587285721674562" lon="18.676085667684674">
        <ele>322.178955078125</ele>
        <time>2012-01-31T13:33:16Z</time>
      </trkpt>
      <trkpt lat="47.587311454117298" lon="18.676041830331087">
        <ele>323.6209716796875</ele>
        <time>2012-01-31T13:33:13Z</time>
      </trkpt>
      <trkpt lat="47.587340120226145" lon="18.675994137302041">
        <ele>325.06298828125</ele>
        <time>2012-01-31T13:33:10Z</time>
      </trkpt>
      <trkpt lat="47.587364763021469" lon="18.675939738750458">
        <ele>325.5435791015625</ele>
        <time>2012-01-31T13:33:07Z</time>
      </trkpt>
      <trkpt lat="47.587386555969715" lon="18.67590319365263">
        <ele>325.5435791015625</ele>
        <time>2012-01-31T13:33:04Z</time>
      </trkpt>
      <trkpt lat="47.587403571233153" lon="18.675885675475001">
        <ele>324.582275390625</ele>
        <time>2012-01-31T13:32:19Z</time>
      </trkpt>
      <trkpt lat="47.587408851832151" lon="18.675836473703384">
        <ele>325.06298828125</ele>
        <time>2012-01-31T13:32:09Z</time>
      </trkpt>
      <trkpt lat="47.587429471313953" lon="18.675797497853637">
        <ele>325.5435791015625</ele>
        <time>2012-01-31T13:32:06Z</time>
      </trkpt>
      <trkpt lat="47.58745763450861" lon="18.67575952783227">
        <ele>326.5048828125</ele>
        <time>2012-01-31T13:32:03Z</time>
      </trkpt>
      <trkpt lat="47.587489485740662" lon="18.675725748762488">
        <ele>327.4661865234375</ele>
        <time>2012-01-31T13:32:00Z</time>
      </trkpt>
      <trkpt lat="47.587523851543665" lon="18.675694148987532">
        <ele>327.94677734375</ele>
        <time>2012-01-31T13:31:57Z</time>
      </trkpt>
      <trkpt lat="47.587555535137653" lon="18.675660118460655">
        <ele>327.94677734375</ele>
        <time>2012-01-31T13:31:54Z</time>
      </trkpt>
      <trkpt lat="47.58759249933064" lon="18.675639918074012">
        <ele>328.4276123046875</ele>
        <time>2012-01-31T13:31:47Z</time>
      </trkpt>
      <trkpt lat="47.587622758001089" lon="18.67563153617084">
        <ele>329.388916015625</ele>
        <time>2012-01-31T13:31:44Z</time>
      </trkpt>
      <trkpt lat="47.587662739679217" lon="18.67560613900423">
        <ele>330.8309326171875</ele>
        <time>2012-01-31T13:31:41Z</time>
      </trkpt>
      <trkpt lat="47.587691992521286" lon="18.675573281943798">
        <ele>331.7921142578125</ele>
        <time>2012-01-31T13:31:38Z</time>
      </trkpt>
      <trkpt lat="47.587716216221452" lon="18.675539251416922">
        <ele>332.7535400390625</ele>
        <time>2012-01-31T13:31:35Z</time>
      </trkpt>
      <trkpt lat="47.587739350274205" lon="18.675489630550146">
        <ele>333.234130859375</ele>
        <time>2012-01-31T13:31:18Z</time>
      </trkpt>
      <trkpt lat="47.587763573974371" lon="18.675438249483705">
        <ele>333.234130859375</ele>
        <time>2012-01-31T13:31:15Z</time>
      </trkpt>
      <trkpt lat="47.587783858180046" lon="18.675402458757162">
        <ele>333.7147216796875</ele>
        <time>2012-01-31T13:31:13Z</time>
      </trkpt>
      <trkpt lat="47.587802298367023" lon="18.675363985821605">
        <ele>334.6761474609375</ele>
        <time>2012-01-31T13:31:11Z</time>
      </trkpt>
      <trkpt lat="47.587821492925286" lon="18.675323082134128">
        <ele>335.6373291015625</ele>
        <time>2012-01-31T13:31:09Z</time>
      </trkpt>
      <trkpt lat="47.587843285873532" lon="18.675270695239305">
        <ele>335.15673828125</ele>
        <time>2012-01-31T13:31:06Z</time>
      </trkpt>
      <trkpt lat="47.58786465972662" lon="18.675228953361511">
        <ele>336.1181640625</ele>
        <time>2012-01-31T13:31:04Z</time>
      </trkpt>
      <trkpt lat="47.587883435189724" lon="18.675186960026622">
        <ele>336.1181640625</ele>
        <time>2012-01-31T13:31:02Z</time>
      </trkpt>
      <trkpt lat="47.58790179155767" lon="18.675149325281382">
        <ele>336.598876953125</ele>
        <time>2012-01-31T13:31:00Z</time>
      </trkpt>
      <trkpt lat="47.587921153753996" lon="18.675108421593904">
        <ele>337.56005859375</ele>
        <time>2012-01-31T13:30:58Z</time>
      </trkpt>
      <trkpt lat="47.587938839569688" lon="18.675070116296411">
        <ele>338.040771484375</ele>
        <time>2012-01-31T13:30:56Z</time>
      </trkpt>
      <trkpt lat="47.587956776842475" lon="18.67503197863698">
        <ele>338.040771484375</ele>
        <time>2012-01-31T13:30:54Z</time>
      </trkpt>
      <trkpt lat="47.587977647781372" lon="18.674974562600255">
        <ele>339.0020751953125</ele>
        <time>2012-01-31T13:30:51Z</time>
      </trkpt>
      <trkpt lat="47.588005056604743" lon="18.674924019724131">
        <ele>339.96337890625</ele>
        <time>2012-01-31T13:30:48Z</time>
      </trkpt>
      <trkpt lat="47.588033555075526" lon="18.674877835437655">
        <ele>340.444091796875</ele>
        <time>2012-01-31T13:30:45Z</time>
      </trkpt>
      <trkpt lat="47.588064735755324" lon="18.674837267026305">
        <ele>340.9246826171875</ele>
        <time>2012-01-31T13:30:42Z</time>
      </trkpt>
      <trkpt lat="47.588098095729947" lon="18.674799799919128">
        <ele>341.885986328125</ele>
        <time>2012-01-31T13:30:39Z</time>
      </trkpt>
      <trkpt lat="47.588134054094553" lon="18.674769373610616">
        <ele>341.885986328125</ele>
        <time>2012-01-31T13:30:36Z</time>
      </trkpt>
      <trkpt lat="47.588162636384368" lon="18.674733666703105">
        <ele>342.36669921875</ele>
        <time>2012-01-31T13:30:31Z</time>
      </trkpt>
      <trkpt lat="47.588192224502563" lon="18.674703994765878">
        <ele>342.8472900390625</ele>
        <time>2012-01-31T13:30:15Z</time>
      </trkpt>
      <trkpt lat="47.588222147896886" lon="18.674673484638333">
        <ele>342.36669921875</ele>
        <time>2012-01-31T13:30:12Z</time>
      </trkpt>
      <trkpt lat="47.588253160938621" lon="18.674637777730823">
        <ele>342.36669921875</ele>
        <time>2012-01-31T13:30:09Z</time>
      </trkpt>
      <trkpt lat="47.588281072676182" lon="18.674589833244681">
        <ele>342.8472900390625</ele>
        <time>2012-01-31T13:30:06Z</time>
      </trkpt>
      <trkpt lat="47.588306050747633" lon="18.674550354480743">
        <ele>343.80859375</ele>
        <time>2012-01-31T13:30:03Z</time>
      </trkpt>
      <trkpt lat="47.588320970535278" lon="18.674512384459376">
        <ele>343.327880859375</ele>
        <time>2012-01-31T13:30:00Z</time>
      </trkpt>
      <trkpt lat="47.588328346610069" lon="18.674459746107459">
        <ele>343.80859375</ele>
        <time>2012-01-31T13:29:56Z</time>
      </trkpt>
      <trkpt lat="47.588311247527599" lon="18.674439461901784">
        <ele>343.80859375</ele>
        <time>2012-01-31T13:29:39Z</time>
      </trkpt>
      <trkpt lat="47.588314097374678" lon="18.674457650631666">
        <ele>344.77001953125</ele>
        <time>2012-01-31T13:28:20Z</time>
      </trkpt>
      <trkpt lat="47.588314181193709" lon="18.674448933452368">
        <ele>345.2506103515625</ele>
        <time>2012-01-31T13:27:33Z</time>
      </trkpt>
      <trkpt lat="47.588316360488534" lon="18.67444952018559">
        <ele>344.77001953125</ele>
        <time>2012-01-31T13:26:54Z</time>
      </trkpt>
      <trkpt lat="47.588322479277849" lon="18.674476677551866">
        <ele>344.2894287109375</ele>
        <time>2012-01-31T13:26:26Z</time>
      </trkpt>
      <trkpt lat="47.588325999677181" lon="18.674454716965556">
        <ele>344.77001953125</ele>
        <time>2012-01-31T13:25:56Z</time>
      </trkpt>
      <trkpt lat="47.588345864787698" lon="18.674416160210967">
        <ele>343.80859375</ele>
        <time>2012-01-31T13:25:50Z</time>
      </trkpt>
      <trkpt lat="47.588367322459817" lon="18.674380453303456">
        <ele>343.327880859375</ele>
        <time>2012-01-31T13:25:46Z</time>
      </trkpt>
      <trkpt lat="47.588401436805725" lon="18.674349691718817">
        <ele>343.327880859375</ele>
        <time>2012-01-31T13:25:40Z</time>
      </trkpt>
      <trkpt lat="47.588425492867827" lon="18.67432882077992">
        <ele>342.36669921875</ele>
        <time>2012-01-31T13:25:35Z</time>
      </trkpt>
      <trkpt lat="47.588450890034437" lon="18.67430878803134">
        <ele>341.885986328125</ele>
        <time>2012-01-31T13:25:31Z</time>
      </trkpt>
      <trkpt lat="47.588487435132265" lon="18.674296466633677">
        <ele>341.4052734375</ele>
        <time>2012-01-31T13:25:27Z</time>
      </trkpt>
      <trkpt lat="47.588524231687188" lon="18.674292862415314">
        <ele>340.444091796875</ele>
        <time>2012-01-31T13:25:23Z</time>
      </trkpt>
      <trkpt lat="47.588560022413731" lon="18.674289928749204">
        <ele>338.040771484375</ele>
        <time>2012-01-31T13:25:19Z</time>
      </trkpt>
      <trkpt lat="47.588589945808053" lon="18.674272326752543">
        <ele>335.15673828125</ele>
        <time>2012-01-31T13:25:14Z</time>
      </trkpt>
      <trkpt lat="47.588640153408051" lon="18.674234775826335">
        <ele>335.6373291015625</ele>
        <time>2012-01-31T13:23:23Z</time>
      </trkpt>
      <trkpt lat="47.58868558332324" lon="18.674205439165235">
        <ele>332.7535400390625</ele>
        <time>2012-01-31T13:23:16Z</time>
      </trkpt>
      <trkpt lat="47.588718859478831" lon="18.674179622903466">
        <ele>331.7921142578125</ele>
        <time>2012-01-31T13:23:10Z</time>
      </trkpt>
      <trkpt lat="47.588748447597027" lon="18.674154980108142">
        <ele>330.3502197265625</ele>
        <time>2012-01-31T13:23:06Z</time>
      </trkpt>
      <trkpt lat="47.588780634105206" lon="18.674119440838695">
        <ele>326.985595703125</ele>
        <time>2012-01-31T13:22:59Z</time>
      </trkpt>
      <trkpt lat="47.58880234323442" lon="18.674090355634689">
        <ele>324.1015625</ele>
        <time>2012-01-31T13:22:54Z</time>
      </trkpt>
      <trkpt lat="47.588830338791013" lon="18.674053223803639">
        <ele>323.6209716796875</ele>
        <time>2012-01-31T13:22:51Z</time>
      </trkpt>
      <trkpt lat="47.588852299377322" lon="18.674039980396628">
        <ele>323.6209716796875</ele>
        <time>2012-01-31T13:21:59Z</time>
      </trkpt>
      <trkpt lat="47.58889228105545" lon="18.673988934606314">
        <ele>322.178955078125</ele>
        <time>2012-01-31T13:21:49Z</time>
      </trkpt>
      <trkpt lat="47.588947266340256" lon="18.67395113222301">
        <ele>320.25634765625</ele>
        <time>2012-01-31T13:21:43Z</time>
      </trkpt>
      <trkpt lat="47.589023457840085" lon="18.67391006089747">
        <ele>317.85302734375</ele>
        <time>2012-01-31T13:21:31Z</time>
      </trkpt>
      <trkpt lat="47.589069977402687" lon="18.673867648467422">
        <ele>315.4498291015625</ele>
        <time>2012-01-31T13:21:23Z</time>
      </trkpt>
      <trkpt lat="47.589161843061447" lon="18.673831857740879">
        <ele>310.1624755859375</ele>
        <time>2012-01-31T13:21:05Z</time>
      </trkpt>
      <trkpt lat="47.589197047054768" lon="18.673805622383952">
        <ele>306.7978515625</ele>
        <time>2012-01-31T13:20:57Z</time>
      </trkpt>
      <trkpt lat="47.589235855266452" lon="18.673751475289464">
        <ele>304.875244140625</ele>
        <time>2012-01-31T13:20:52Z</time>
      </trkpt>
      <trkpt lat="47.589254546910524" lon="18.673708057031035">
        <ele>302.9525146484375</ele>
        <time>2012-01-31T13:20:47Z</time>
      </trkpt>
      <trkpt lat="47.58930366486311" lon="18.673718785867095">
        <ele>300.54931640625</ele>
        <time>2012-01-31T13:20:40Z</time>
      </trkpt>
      <trkpt lat="47.589333839714527" lon="18.6737409979105">
        <ele>299.5880126953125</ele>
        <time>2012-01-31T13:20:35Z</time>
      </trkpt>
      <trkpt lat="47.589345658197999" lon="18.673761952668428">
        <ele>298.626708984375</ele>
        <time>2012-01-31T13:20:27Z</time>
      </trkpt>
      <trkpt lat="47.589314896613359" lon="18.673731861636043">
        <ele>300.0687255859375</ele>
        <time>2012-01-31T13:20:19Z</time>
      </trkpt>
      <trkpt lat="47.589363344013691" lon="18.673737477511168">
        <ele>298.626708984375</ele>
        <time>2012-01-31T13:20:04Z</time>
      </trkpt>
      <trkpt lat="47.58939553052187" lon="18.673705374822021">
        <ele>297.6654052734375</ele>
        <time>2012-01-31T13:18:41Z</time>
      </trkpt>
      <trkpt lat="47.589396284893155" lon="18.673654664307833">
        <ele>296.2235107421875</ele>
        <time>2012-01-31T13:18:37Z</time>
      </trkpt>
      <trkpt lat="47.589405421167612" lon="18.67360613308847">
        <ele>295.261962890625</ele>
        <time>2012-01-31T13:18:34Z</time>
      </trkpt>
      <trkpt lat="47.589411875233054" lon="18.673548130318522">
        <ele>293.820068359375</ele>
        <time>2012-01-31T13:18:30Z</time>
      </trkpt>
      <trkpt lat="47.589410282671452" lon="18.673491887748241">
        <ele>291.416748046875</ele>
        <time>2012-01-31T13:18:26Z</time>
      </trkpt>
      <trkpt lat="47.589402319863439" lon="18.673432292416692">
        <ele>290.9361572265625</ele>
        <time>2012-01-31T13:18:22Z</time>
      </trkpt>
      <trkpt lat="47.5893818680197" lon="18.673384264111519">
        <ele>290.45556640625</ele>
        <time>2012-01-31T13:18:18Z</time>
      </trkpt>
      <trkpt lat="47.589364852756262" lon="18.673328356817365">
        <ele>289.974853515625</ele>
        <time>2012-01-31T13:18:14Z</time>
      </trkpt>
      <trkpt lat="47.589348088949919" lon="18.673272952437401">
        <ele>289.0135498046875</ele>
        <time>2012-01-31T13:18:10Z</time>
      </trkpt>
      <trkpt lat="47.589314477518201" lon="18.673246968537569">
        <ele>289.0135498046875</ele>
        <time>2012-01-31T13:17:45Z</time>
      </trkpt>
      <trkpt lat="47.589289247989655" lon="18.673199191689491">
        <ele>288.05224609375</ele>
        <time>2012-01-31T13:17:41Z</time>
      </trkpt>
      <trkpt lat="47.589259324595332" lon="18.673146972432733">
        <ele>287.0908203125</ele>
        <time>2012-01-31T13:17:37Z</time>
      </trkpt>
      <trkpt lat="47.589238872751594" lon="18.673104727640748">
        <ele>286.6102294921875</ele>
        <time>2012-01-31T13:17:34Z</time>
      </trkpt>
      <trkpt lat="47.589206183329225" lon="18.673052424564958">
        <ele>284.2069091796875</ele>
        <time>2012-01-31T13:17:30Z</time>
      </trkpt>
      <trkpt lat="47.589203082025051" lon="18.672987967729568">
        <ele>282.7650146484375</ele>
        <time>2012-01-31T13:17:26Z</time>
      </trkpt>
      <trkpt lat="47.589173493906856" lon="18.672944633290172">
        <ele>282.7650146484375</ele>
        <time>2012-01-31T13:17:22Z</time>
      </trkpt>
      <trkpt lat="47.589144995436072" lon="18.672923846170306">
        <ele>281.8035888671875</ele>
        <time>2012-01-31T13:17:19Z</time>
      </trkpt>
      <trkpt lat="47.589111551642418" lon="18.672893084585667">
        <ele>280.8424072265625</ele>
        <time>2012-01-31T13:17:14Z</time>
      </trkpt>
      <trkpt lat="47.589030331000686" lon="18.672866430133581">
        <ele>281.322998046875</ele>
        <time>2012-01-31T13:16:42Z</time>
      </trkpt>
      <trkpt lat="47.588994456455112" lon="18.672845391556621">
        <ele>281.322998046875</ele>
        <time>2012-01-31T13:16:38Z</time>
      </trkpt>
      <trkpt lat="47.588938381522894" lon="18.67281504906714">
        <ele>280.8424072265625</ele>
        <time>2012-01-31T13:16:35Z</time>
      </trkpt>
      <trkpt lat="47.588888173922896" lon="18.672772971913218">
        <ele>281.322998046875</ele>
        <time>2012-01-31T13:16:31Z</time>
      </trkpt>
      <trkpt lat="47.588854730129242" lon="18.672734247520566">
        <ele>281.322998046875</ele>
        <time>2012-01-31T13:16:27Z</time>
      </trkpt>
      <trkpt lat="47.588809886947274" lon="18.672706168144941">
        <ele>280.8424072265625</ele>
        <time>2012-01-31T13:16:24Z</time>
      </trkpt>
      <trkpt lat="47.588773928582668" lon="18.67267582565546">
        <ele>280.3616943359375</ele>
        <time>2012-01-31T13:16:21Z</time>
      </trkpt>
      <trkpt lat="47.588734617456794" lon="18.672639196738601">
        <ele>280.3616943359375</ele>
        <time>2012-01-31T13:16:18Z</time>
      </trkpt>
      <trkpt lat="47.588690361008048" lon="18.67260885424912">
        <ele>279.880859375</ele>
        <time>2012-01-31T13:16:15Z</time>
      </trkpt>
      <trkpt lat="47.588638560846448" lon="18.672566022723913">
        <ele>279.4002685546875</ele>
        <time>2012-01-31T13:16:11Z</time>
      </trkpt>
      <trkpt lat="47.588608972728252" lon="18.672529561445117">
        <ele>278.43896484375</ele>
        <time>2012-01-31T13:16:08Z</time>
      </trkpt>
      <trkpt lat="47.588568488135934" lon="18.672493267804384">
        <ele>278.43896484375</ele>
        <time>2012-01-31T13:16:04Z</time>
      </trkpt>
      <trkpt lat="47.588553735986352" lon="18.672471977770329">
        <ele>278.43896484375</ele>
        <time>2012-01-31T13:15:29Z</time>
      </trkpt>
      <trkpt lat="47.588571086525917" lon="18.672473737969995">
        <ele>278.43896484375</ele>
        <time>2012-01-31T13:15:19Z</time>
      </trkpt>
      <trkpt lat="47.588543090969324" lon="18.672475917264819">
        <ele>276.9970703125</ele>
        <time>2012-01-31T13:14:44Z</time>
      </trkpt>
      <trkpt lat="47.588535044342279" lon="18.672448340803385">
        <ele>276.9970703125</ele>
        <time>2012-01-31T13:14:08Z</time>
      </trkpt>
      <trkpt lat="47.588491877540946" lon="18.672424620017409">
        <ele>276.9970703125</ele>
        <time>2012-01-31T13:14:03Z</time>
      </trkpt>
      <trkpt lat="47.58845541626215" lon="18.672391762956977">
        <ele>276.516357421875</ele>
        <time>2012-01-31T13:14:00Z</time>
      </trkpt>
      <trkpt lat="47.588417446240783" lon="18.672363935038447">
        <ele>276.9970703125</ele>
        <time>2012-01-31T13:13:57Z</time>
      </trkpt>
      <trkpt lat="47.588385092094541" lon="18.672346081584692">
        <ele>276.516357421875</ele>
        <time>2012-01-31T13:13:54Z</time>
      </trkpt>
      <trkpt lat="47.588357347995043" lon="18.672322193160653">
        <ele>275.5550537109375</ele>
        <time>2012-01-31T13:13:51Z</time>
      </trkpt>
      <trkpt lat="47.588325748220086" lon="18.672296293079853">
        <ele>276.516357421875</ele>
        <time>2012-01-31T13:13:47Z</time>
      </trkpt>
      <trkpt lat="47.588300099596381" lon="18.67226486094296">
        <ele>276.03564453125</ele>
        <time>2012-01-31T13:13:44Z</time>
      </trkpt>
      <trkpt lat="47.588266236707568" lon="18.672230327501893">
        <ele>275.074462890625</ele>
        <time>2012-01-31T13:13:41Z</time>
      </trkpt>
      <trkpt lat="47.58823991753161" lon="18.672185484319925">
        <ele>275.074462890625</ele>
        <time>2012-01-31T13:13:38Z</time>
      </trkpt>
      <trkpt lat="47.588228099048138" lon="18.672154722735286">
        <ele>275.5550537109375</ele>
        <time>2012-01-31T13:13:26Z</time>
      </trkpt>
      <trkpt lat="47.588203623890877" lon="18.672161176800728">
        <ele>276.03564453125</ele>
        <time>2012-01-31T13:12:44Z</time>
      </trkpt>
      <trkpt lat="47.588179735466838" lon="18.672140641137958">
        <ele>276.516357421875</ele>
        <time>2012-01-31T13:12:09Z</time>
      </trkpt>
      <trkpt lat="47.588179567828774" lon="18.672160925343633">
        <ele>276.516357421875</ele>
        <time>2012-01-31T13:11:50Z</time>
      </trkpt>
      <trkpt lat="47.588206473737955" lon="18.672099066898227">
        <ele>275.5550537109375</ele>
        <time>2012-01-31T13:10:55Z</time>
      </trkpt>
      <trkpt lat="47.588196247816086" lon="18.672121949493885">
        <ele>275.074462890625</ele>
        <time>2012-01-31T13:10:36Z</time>
      </trkpt>
      <trkpt lat="47.5881368201226" lon="18.672103676944971">
        <ele>275.5550537109375</ele>
        <time>2012-01-31T13:10:01Z</time>
      </trkpt>
      <trkpt lat="47.588106896728277" lon="18.672060174867511">
        <ele>276.03564453125</ele>
        <time>2012-01-31T13:09:57Z</time>
      </trkpt>
      <trkpt lat="47.588077895343304" lon="18.672034777700901">
        <ele>276.03564453125</ele>
        <time>2012-01-31T13:09:54Z</time>
      </trkpt>
      <trkpt lat="47.588081164285541" lon="18.671988761052489">
        <ele>276.03564453125</ele>
        <time>2012-01-31T13:08:53Z</time>
      </trkpt>
      <trkpt lat="47.588089881464839" lon="18.672034274786711">
        <ele>276.516357421875</ele>
        <time>2012-01-31T13:08:30Z</time>
      </trkpt>
      <trkpt lat="47.588112261146307" lon="18.672068389132619">
        <ele>276.03564453125</ele>
        <time>2012-01-31T13:07:21Z</time>
      </trkpt>
      <trkpt lat="47.58813782595098" lon="18.672106945887208">
        <ele>276.516357421875</ele>
        <time>2012-01-31T13:07:16Z</time>
      </trkpt>
      <trkpt lat="47.588127851486206" lon="18.67206159979105">
        <ele>275.5550537109375</ele>
        <time>2012-01-31T13:07:07Z</time>
      </trkpt>
      <trkpt lat="47.588102873414755" lon="18.67202932946384">
        <ele>276.03564453125</ele>
        <time>2012-01-31T13:07:04Z</time>
      </trkpt>
      <trkpt lat="47.588079236447811" lon="18.671985240653157">
        <ele>276.03564453125</ele>
        <time>2012-01-31T13:07:00Z</time>
      </trkpt>
      <trkpt lat="47.588070016354322" lon="18.671946432441473">
        <ele>275.074462890625</ele>
        <time>2012-01-31T13:06:54Z</time>
      </trkpt>
      <trkpt lat="47.588091641664505" lon="18.671911647543311">
        <ele>274.59375</ele>
        <time>2012-01-31T13:06:51Z</time>
      </trkpt>
      <trkpt lat="47.588122067973018" lon="18.67187493480742">
        <ele>274.113037109375</ele>
        <time>2012-01-31T13:06:48Z</time>
      </trkpt>
      <trkpt lat="47.588147716596723" lon="18.671837383881211">
        <ele>273.6324462890625</ele>
        <time>2012-01-31T13:06:43Z</time>
      </trkpt>
      <trkpt lat="47.588176382705569" lon="18.671794552356005">
        <ele>272.671142578125</ele>
        <time>2012-01-31T13:06:38Z</time>
      </trkpt>
      <trkpt lat="47.588204042986035" lon="18.671771921217442">
        <ele>273.15185546875</ele>
        <time>2012-01-31T13:06:34Z</time>
      </trkpt>
      <trkpt lat="47.588244779035449" lon="18.67175524123013">
        <ele>273.15185546875</ele>
        <time>2012-01-31T13:06:19Z</time>
      </trkpt>
      <trkpt lat="47.58822281844914" lon="18.671773681417108">
        <ele>272.671142578125</ele>
        <time>2012-01-31T13:05:53Z</time>
      </trkpt>
      <trkpt lat="47.588209491223097" lon="18.671739231795073">
        <ele>271.709716796875</ele>
        <time>2012-01-31T13:05:03Z</time>
      </trkpt>
      <trkpt lat="47.588225668296218" lon="18.671725736930966">
        <ele>271.2291259765625</ele>
        <time>2012-01-31T13:04:45Z</time>
      </trkpt>
      <trkpt lat="47.58825265802443" lon="18.671705452725291">
        <ele>271.709716796875</ele>
        <time>2012-01-31T13:04:42Z</time>
      </trkpt>
      <trkpt lat="47.588284593075514" lon="18.671680893748999">
        <ele>270.2677001953125</ele>
        <time>2012-01-31T13:04:39Z</time>
      </trkpt>
      <trkpt lat="47.588313929736614" lon="18.671646192669868">
        <ele>270.2677001953125</ele>
        <time>2012-01-31T13:04:36Z</time>
      </trkpt>
      <trkpt lat="47.588339578360319" lon="18.671605372801423">
        <ele>269.3065185546875</ele>
        <time>2012-01-31T13:04:33Z</time>
      </trkpt>
      <trkpt lat="47.588370172306895" lon="18.671559439972043">
        <ele>269.787109375</ele>
        <time>2012-01-31T13:04:30Z</time>
      </trkpt>
      <trkpt lat="47.588403197005391" lon="18.671517362818122">
        <ele>268.8258056640625</ele>
        <time>2012-01-31T13:04:27Z</time>
      </trkpt>
      <trkpt lat="47.588428426533937" lon="18.671470172703266">
        <ele>268.8258056640625</ele>
        <time>2012-01-31T13:04:24Z</time>
      </trkpt>
      <trkpt lat="47.588448878377676" lon="18.671441338956356">
        <ele>267.3839111328125</ele>
        <time>2012-01-31T13:04:22Z</time>
      </trkpt>
      <trkpt lat="47.588469497859478" lon="18.671409320086241">
        <ele>267.864501953125</ele>
        <time>2012-01-31T13:04:20Z</time>
      </trkpt>
      <trkpt lat="47.588494727388024" lon="18.671375876292586">
        <ele>266.9031982421875</ele>
        <time>2012-01-31T13:04:18Z</time>
      </trkpt>
      <trkpt lat="47.588522639125586" lon="18.671327764168382">
        <ele>266.4224853515625</ele>
        <time>2012-01-31T13:04:15Z</time>
      </trkpt>
      <trkpt lat="47.58854535408318" lon="18.671295493841171">
        <ele>266.9031982421875</ele>
        <time>2012-01-31T13:04:13Z</time>
      </trkpt>
      <trkpt lat="47.588578043505549" lon="18.671249644830823">
        <ele>265.94189453125</ele>
        <time>2012-01-31T13:04:10Z</time>
      </trkpt>
      <trkpt lat="47.588597824797034" lon="18.671219386160374">
        <ele>265.4613037109375</ele>
        <time>2012-01-31T13:04:08Z</time>
      </trkpt>
      <trkpt lat="47.588621042668819" lon="18.6711869481951">
        <ele>264.9805908203125</ele>
        <time>2012-01-31T13:04:06Z</time>
      </trkpt>
      <trkpt lat="47.588652223348618" lon="18.671142943203449">
        <ele>264.9805908203125</ele>
        <time>2012-01-31T13:04:03Z</time>
      </trkpt>
      <trkpt lat="47.588672759011388" lon="18.671111594885588">
        <ele>264.4998779296875</ele>
        <time>2012-01-31T13:04:01Z</time>
      </trkpt>
      <trkpt lat="47.588691869750619" lon="18.671076474711299">
        <ele>264.4998779296875</ele>
        <time>2012-01-31T13:03:59Z</time>
      </trkpt>
      <trkpt lat="47.588711734861135" lon="18.671043869107962">
        <ele>263.057861328125</ele>
        <time>2012-01-31T13:03:57Z</time>
      </trkpt>
      <trkpt lat="47.58874325081706" lon="18.670995337888598">
        <ele>263.057861328125</ele>
        <time>2012-01-31T13:03:54Z</time>
      </trkpt>
      <trkpt lat="47.588760266080499" lon="18.670957954600453">
        <ele>263.057861328125</ele>
        <time>2012-01-31T13:03:52Z</time>
      </trkpt>
      <trkpt lat="47.58878038264811" lon="18.670921744778752">
        <ele>262.5771484375</ele>
        <time>2012-01-31T13:03:50Z</time>
      </trkpt>
      <trkpt lat="47.588798990473151" lon="18.670888720080256">
        <ele>262.0965576171875</ele>
        <time>2012-01-31T13:03:48Z</time>
      </trkpt>
      <trkpt lat="47.588816927745938" lon="18.670854521915317">
        <ele>262.5771484375</ele>
        <time>2012-01-31T13:03:46Z</time>
      </trkpt>
      <trkpt lat="47.588832434266806" lon="18.670815043151379">
        <ele>261.615966796875</ele>
        <time>2012-01-31T13:03:44Z</time>
      </trkpt>
      <trkpt lat="47.588850958272815" lon="18.670764667913318">
        <ele>261.615966796875</ele>
        <time>2012-01-31T13:03:41Z</time>
      </trkpt>
      <trkpt lat="47.588848862797022" lon="18.670717729255557">
        <ele>261.615966796875</ele>
        <time>2012-01-31T13:03:38Z</time>
      </trkpt>
      <trkpt lat="47.588860765099525" lon="18.670710436999798">
        <ele>261.13525390625</ele>
        <time>2012-01-31T13:03:15Z</time>
      </trkpt>
      <trkpt lat="47.588896388188004" lon="18.670687722042203">
        <ele>260.654541015625</ele>
        <time>2012-01-31T13:03:12Z</time>
      </trkpt>
      <trkpt lat="47.588930418714881" lon="18.67066266015172">
        <ele>261.13525390625</ele>
        <time>2012-01-31T13:03:09Z</time>
      </trkpt>
      <trkpt lat="47.588961096480489" lon="18.670624354854226">
        <ele>260.654541015625</ele>
        <time>2012-01-31T13:03:06Z</time>
      </trkpt>
      <trkpt lat="47.58898314088583" lon="18.670596275478601">
        <ele>259.693359375</ele>
        <time>2012-01-31T13:03:04Z</time>
      </trkpt>
      <trkpt lat="47.589008621871471" lon="18.670570878311992">
        <ele>259.212646484375</ele>
        <time>2012-01-31T13:03:02Z</time>
      </trkpt>
      <trkpt lat="47.589031169191003" lon="18.670543469488621">
        <ele>260.1739501953125</ele>
        <time>2012-01-31T13:03:00Z</time>
      </trkpt>
      <trkpt lat="47.589054387062788" lon="18.670513881370425">
        <ele>259.693359375</ele>
        <time>2012-01-31T13:02:58Z</time>
      </trkpt>
      <trkpt lat="47.589075425639749" lon="18.670482533052564">
        <ele>258.73193359375</ele>
        <time>2012-01-31T13:02:56Z</time>
      </trkpt>
      <trkpt lat="47.589097386226058" lon="18.670450346544385">
        <ele>259.212646484375</ele>
        <time>2012-01-31T13:02:54Z</time>
      </trkpt>
      <trkpt lat="47.589120185002685" lon="18.670420423150063">
        <ele>258.73193359375</ele>
        <time>2012-01-31T13:02:52Z</time>
      </trkpt>
      <trkpt lat="47.589143738150597" lon="18.670387733727694">
        <ele>258.73193359375</ele>
        <time>2012-01-31T13:02:50Z</time>
      </trkpt>
      <trkpt lat="47.589168967679143" lon="18.67035579867661">
        <ele>258.73193359375</ele>
        <time>2012-01-31T13:02:48Z</time>
      </trkpt>
      <trkpt lat="47.589191682636738" lon="18.670322438701987">
        <ele>257.770751953125</ele>
        <time>2012-01-31T13:02:46Z</time>
      </trkpt>
      <trkpt lat="47.589211128652096" lon="18.670286145061255">
        <ele>258.73193359375</ele>
        <time>2012-01-31T13:02:44Z</time>
      </trkpt>
      <trkpt lat="47.58923283778131" lon="18.670251276344061">
        <ele>257.770751953125</ele>
        <time>2012-01-31T13:02:42Z</time>
      </trkpt>
      <trkpt lat="47.589255971834064" lon="18.670218335464597">
        <ele>258.2513427734375</ele>
        <time>2012-01-31T13:02:40Z</time>
      </trkpt>
      <trkpt lat="47.589281285181642" lon="18.670187825337052">
        <ele>257.770751953125</ele>
        <time>2012-01-31T13:02:38Z</time>
      </trkpt>
      <trkpt lat="47.589303161948919" lon="18.670155387371778">
        <ele>257.2900390625</ele>
        <time>2012-01-31T13:02:36Z</time>
      </trkpt>
      <trkpt lat="47.589325625449419" lon="18.670121021568775">
        <ele>257.2900390625</ele>
        <time>2012-01-31T13:02:34Z</time>
      </trkpt>
      <trkpt lat="47.58935546502471" lon="18.670069724321365">
        <ele>257.2900390625</ele>
        <time>2012-01-31T13:02:31Z</time>
      </trkpt>
      <trkpt lat="47.589382119476795" lon="18.670023623853922">
        <ele>256.3287353515625</ele>
        <time>2012-01-31T13:02:28Z</time>
      </trkpt>
      <trkpt lat="47.589405169710517" lon="18.669970650225878">
        <ele>256.3287353515625</ele>
        <time>2012-01-31T13:02:25Z</time>
      </trkpt>
      <trkpt lat="47.589424951002002" lon="18.669939553365111">
        <ele>256.3287353515625</ele>
        <time>2012-01-31T13:02:23Z</time>
      </trkpt>
      <trkpt lat="47.589446492493153" lon="18.669885993003845">
        <ele>254.406005859375</ele>
        <time>2012-01-31T13:02:20Z</time>
      </trkpt>
      <trkpt lat="47.589467279613018" lon="18.669830420985818">
        <ele>253.9254150390625</ele>
        <time>2012-01-31T13:02:17Z</time>
      </trkpt>
      <trkpt lat="47.589489324018359" lon="18.669783482328057">
        <ele>253.4447021484375</ele>
        <time>2012-01-31T13:02:14Z</time>
      </trkpt>
      <trkpt lat="47.589483959600329" lon="18.669734364375472">
        <ele>253.4447021484375</ele>
        <time>2012-01-31T13:02:08Z</time>
      </trkpt>
      <trkpt lat="47.589499717578292" lon="18.66973084397614">
        <ele>252.4833984375</ele>
        <time>2012-01-31T13:01:44Z</time>
      </trkpt>
      <trkpt lat="47.58952796459198" lon="18.669712487608194">
        <ele>252.9639892578125</ele>
        <time>2012-01-31T13:01:41Z</time>
      </trkpt>
      <trkpt lat="47.589566940441728" lon="18.669686838984489">
        <ele>252.0028076171875</ele>
        <time>2012-01-31T13:01:38Z</time>
      </trkpt>
      <trkpt lat="47.589602647349238" lon="18.669651048257947">
        <ele>251.0413818359375</ele>
        <time>2012-01-31T13:01:35Z</time>
      </trkpt>
      <trkpt lat="47.589628295972943" lon="18.669627830386162">
        <ele>251.0413818359375</ele>
        <time>2012-01-31T13:01:33Z</time>
      </trkpt>
      <trkpt lat="47.589654447510839" lon="18.669603690505028">
        <ele>251.0413818359375</ele>
        <time>2012-01-31T13:01:31Z</time>
      </trkpt>
      <trkpt lat="47.589679341763258" lon="18.669577455148101">
        <ele>251.0413818359375</ele>
        <time>2012-01-31T13:01:29Z</time>
      </trkpt>
      <trkpt lat="47.589717982336879" lon="18.669538730755448">
        <ele>250.0802001953125</ele>
        <time>2012-01-31T13:01:26Z</time>
      </trkpt>
      <trkpt lat="47.589743547141552" lon="18.669511657208204">
        <ele>249.5994873046875</ele>
        <time>2012-01-31T13:01:24Z</time>
      </trkpt>
      <trkpt lat="47.589767184108496" lon="18.66948215290904">
        <ele>250.0802001953125</ele>
        <time>2012-01-31T13:01:22Z</time>
      </trkpt>
      <trkpt lat="47.589792665094137" lon="18.669458264485002">
        <ele>248.1575927734375</ele>
        <time>2012-01-31T13:01:20Z</time>
      </trkpt>
      <trkpt lat="47.589819235727191" lon="18.669436136260629">
        <ele>249.5994873046875</ele>
        <time>2012-01-31T13:01:18Z</time>
      </trkpt>
      <trkpt lat="47.589848320931196" lon="18.669411577284336">
        <ele>248.63818359375</ele>
        <time>2012-01-31T13:01:16Z</time>
      </trkpt>
      <trkpt lat="47.589877238497138" lon="18.669389868155122">
        <ele>247.6767578125</ele>
        <time>2012-01-31T13:01:14Z</time>
      </trkpt>
      <trkpt lat="47.589906994253397" lon="18.66937167942524">
        <ele>248.1575927734375</ele>
        <time>2012-01-31T13:01:12Z</time>
      </trkpt>
      <trkpt lat="47.589948568493128" lon="18.669346617534757">
        <ele>248.1575927734375</ele>
        <time>2012-01-31T13:01:09Z</time>
      </trkpt>
      <trkpt lat="47.589976396411657" lon="18.669326417148113">
        <ele>247.196044921875</ele>
        <time>2012-01-31T13:01:07Z</time>
      </trkpt>
      <trkpt lat="47.590003972873092" lon="18.66930621676147">
        <ele>248.1575927734375</ele>
        <time>2012-01-31T13:01:05Z</time>
      </trkpt>
      <trkpt lat="47.5900415237993" lon="18.66927201859653">
        <ele>247.6767578125</ele>
        <time>2012-01-31T13:01:02Z</time>
      </trkpt>
      <trkpt lat="47.590069267898798" lon="18.669246537610888">
        <ele>247.196044921875</ele>
        <time>2012-01-31T13:01:00Z</time>
      </trkpt>
      <trkpt lat="47.590099778026342" lon="18.669228767976165">
        <ele>247.196044921875</ele>
        <time>2012-01-31T13:00:58Z</time>
      </trkpt>
      <trkpt lat="47.590131293982267" lon="18.669216362759471">
        <ele>247.196044921875</ele>
        <time>2012-01-31T13:00:56Z</time>
      </trkpt>
      <trkpt lat="47.590163564309478" lon="18.669202364981174">
        <ele>247.196044921875</ele>
        <time>2012-01-31T13:00:54Z</time>
      </trkpt>
      <trkpt lat="47.590193655341864" lon="18.669183421880007">
        <ele>246.7154541015625</ele>
        <time>2012-01-31T13:00:52Z</time>
      </trkpt>
      <trkpt lat="47.590234391391277" lon="18.669156767427921">
        <ele>247.196044921875</ele>
        <time>2012-01-31T13:00:49Z</time>
      </trkpt>
      <trkpt lat="47.590262889862061" lon="18.669138830155134">
        <ele>245.2734375</ele>
        <time>2012-01-31T13:00:47Z</time>
      </trkpt>
      <trkpt lat="47.590288622304797" lon="18.66912055760622">
        <ele>245.754150390625</ele>
        <time>2012-01-31T13:00:45Z</time>
      </trkpt>
      <trkpt lat="47.590316198766232" lon="18.669099854305387">
        <ele>245.754150390625</ele>
        <time>2012-01-31T13:00:43Z</time>
      </trkpt>
      <trkpt lat="47.590346541255713" lon="18.669083174318075">
        <ele>245.754150390625</ele>
        <time>2012-01-31T13:00:41Z</time>
      </trkpt>
      <trkpt lat="47.590375626459718" lon="18.669065656140447">
        <ele>244.312255859375</ele>
        <time>2012-01-31T13:00:39Z</time>
      </trkpt>
      <trkpt lat="47.590403454378247" lon="18.669049981981516">
        <ele>244.7928466796875</ele>
        <time>2012-01-31T13:00:37Z</time>
      </trkpt>
      <trkpt lat="47.590432539582253" lon="18.669036738574505">
        <ele>245.2734375</ele>
        <time>2012-01-31T13:00:35Z</time>
      </trkpt>
      <trkpt lat="47.590459948405623" lon="18.669020980596542">
        <ele>245.2734375</ele>
        <time>2012-01-31T13:00:33Z</time>
      </trkpt>
      <trkpt lat="47.590486351400614" lon="18.669003462418914">
        <ele>244.312255859375</ele>
        <time>2012-01-31T13:00:31Z</time>
      </trkpt>
      <trkpt lat="47.590525327250361" lon="18.668976640328765">
        <ele>244.7928466796875</ele>
        <time>2012-01-31T13:00:28Z</time>
      </trkpt>
      <trkpt lat="47.590557849034667" lon="18.668949063867331">
        <ele>243.83154296875</ele>
        <time>2012-01-31T13:00:25Z</time>
      </trkpt>
      <trkpt lat="47.590590622276068" lon="18.668940346688032">
        <ele>244.7928466796875</ele>
        <time>2012-01-31T13:00:20Z</time>
      </trkpt>
      <trkpt lat="47.590599255636334" lon="18.668897766619921">
        <ele>244.312255859375</ele>
        <time>2012-01-31T12:59:53Z</time>
      </trkpt>
      <trkpt lat="47.590625239536166" lon="18.668868681415915">
        <ele>244.312255859375</ele>
        <time>2012-01-31T12:59:50Z</time>
      </trkpt>
      <trkpt lat="47.590652229264379" lon="18.668849486857653">
        <ele>243.83154296875</ele>
        <time>2012-01-31T12:59:48Z</time>
      </trkpt>
      <trkpt lat="47.590693552047014" lon="18.668822245672345">
        <ele>243.350830078125</ele>
        <time>2012-01-31T12:59:45Z</time>
      </trkpt>
      <trkpt lat="47.590721296146512" lon="18.668807577341795">
        <ele>243.350830078125</ele>
        <time>2012-01-31T12:59:43Z</time>
      </trkpt>
      <trkpt lat="47.590746525675058" lon="18.668789220973849">
        <ele>243.350830078125</ele>
        <time>2012-01-31T12:59:41Z</time>
      </trkpt>
      <trkpt lat="47.590773850679398" lon="18.668771032243967">
        <ele>243.350830078125</ele>
        <time>2012-01-31T12:59:39Z</time>
      </trkpt>
      <trkpt lat="47.590803941711783" lon="18.668751586228609">
        <ele>242.8702392578125</ele>
        <time>2012-01-31T12:59:37Z</time>
      </trkpt>
      <trkpt lat="47.590832188725471" lon="18.668728619813919">
        <ele>243.350830078125</ele>
        <time>2012-01-31T12:59:35Z</time>
      </trkpt>
      <trkpt lat="47.590862363576889" lon="18.668708167970181">
        <ele>241.42822265625</ele>
        <time>2012-01-31T12:59:33Z</time>
      </trkpt>
      <trkpt lat="47.590891867876053" lon="18.668684950098395">
        <ele>241.42822265625</ele>
        <time>2012-01-31T12:59:31Z</time>
      </trkpt>
      <trkpt lat="47.590920198708773" lon="18.668663576245308">
        <ele>240.9476318359375</ele>
        <time>2012-01-31T12:59:29Z</time>
      </trkpt>
      <trkpt lat="47.590958755463362" lon="18.668635580688715">
        <ele>241.42822265625</ele>
        <time>2012-01-31T12:59:26Z</time>
      </trkpt>
      <trkpt lat="47.590987170115113" lon="18.668613955378532">
        <ele>240.467041015625</ele>
        <time>2012-01-31T12:59:24Z</time>
      </trkpt>
      <trkpt lat="47.591014578938484" lon="18.668593587353826">
        <ele>239.9862060546875</ele>
        <time>2012-01-31T12:59:22Z</time>
      </trkpt>
      <trkpt lat="47.591044586151838" lon="18.668572045862675">
        <ele>239.9862060546875</ele>
        <time>2012-01-31T12:59:20Z</time>
      </trkpt>
      <trkpt lat="47.591075850650668" lon="18.668553773313761">
        <ele>239.02490234375</ele>
        <time>2012-01-31T12:59:18Z</time>
      </trkpt>
      <trkpt lat="47.591103594750166" lon="18.668535584583879">
        <ele>239.02490234375</ele>
        <time>2012-01-31T12:59:16Z</time>
      </trkpt>
      <trkpt lat="47.591134440153837" lon="18.66851856932044">
        <ele>239.5054931640625</ele>
        <time>2012-01-31T12:59:14Z</time>
      </trkpt>
      <trkpt lat="47.591162854805589" lon="18.668499793857336">
        <ele>237.5828857421875</ele>
        <time>2012-01-31T12:59:12Z</time>
      </trkpt>
      <trkpt lat="47.591188671067357" lon="18.668476827442646">
        <ele>238.5443115234375</ele>
        <time>2012-01-31T12:59:10Z</time>
      </trkpt>
      <trkpt lat="47.591218259185553" lon="18.668455621227622">
        <ele>237.5828857421875</ele>
        <time>2012-01-31T12:59:08Z</time>
      </trkpt>
      <trkpt lat="47.591246590018272" lon="18.668433325365186">
        <ele>236.6217041015625</ele>
        <time>2012-01-31T12:59:06Z</time>
      </trkpt>
      <trkpt lat="47.591286571696401" lon="18.668404575437307">
        <ele>238.0635986328125</ele>
        <time>2012-01-31T12:59:03Z</time>
      </trkpt>
      <trkpt lat="47.591322865337133" lon="18.668369958177209">
        <ele>236.1409912109375</ele>
        <time>2012-01-31T12:59:00Z</time>
      </trkpt>
      <trkpt lat="47.591357985511422" lon="18.668336682021618">
        <ele>237.102294921875</ele>
        <time>2012-01-31T12:58:57Z</time>
      </trkpt>
      <trkpt lat="47.591396877542138" lon="18.668332071974874">
        <ele>236.1409912109375</ele>
        <time>2012-01-31T12:58:55Z</time>
      </trkpt>
      <trkpt lat="47.591424789279699" lon="18.668321762233973">
        <ele>236.6217041015625</ele>
        <time>2012-01-31T12:58:53Z</time>
      </trkpt>
      <trkpt lat="47.591456640511751" lon="18.668302986770868">
        <ele>235.6602783203125</ele>
        <time>2012-01-31T12:58:50Z</time>
      </trkpt>
      <trkpt lat="47.591473152860999" lon="18.668312793597579">
        <ele>235.1796875</ele>
        <time>2012-01-31T12:58:31Z</time>
      </trkpt>
      <trkpt lat="47.591477930545807" lon="18.668267698958516">
        <ele>235.1796875</ele>
        <time>2012-01-31T12:58:26Z</time>
      </trkpt>
      <trkpt lat="47.591510619968176" lon="18.668229477480054">
        <ele>235.1796875</ele>
        <time>2012-01-31T12:58:23Z</time>
      </trkpt>
      <trkpt lat="47.591549763455987" lon="18.668195279315114">
        <ele>234.6990966796875</ele>
        <time>2012-01-31T12:58:20Z</time>
      </trkpt>
      <trkpt lat="47.591585973277688" lon="18.668155632913113">
        <ele>234.2183837890625</ele>
        <time>2012-01-31T12:58:17Z</time>
      </trkpt>
      <trkpt lat="47.59162318892777" lon="18.668121099472046">
        <ele>234.2183837890625</ele>
        <time>2012-01-31T12:58:14Z</time>
      </trkpt>
      <trkpt lat="47.591647747904062" lon="18.668094025924802">
        <ele>233.257080078125</ele>
        <time>2012-01-31T12:58:12Z</time>
      </trkpt>
      <trkpt lat="47.591675240546465" lon="18.668067287653685">
        <ele>234.2183837890625</ele>
        <time>2012-01-31T12:58:10Z</time>
      </trkpt>
      <trkpt lat="47.591716563329101" lon="18.668037867173553">
        <ele>234.2183837890625</ele>
        <time>2012-01-31T12:58:07Z</time>
      </trkpt>
      <trkpt lat="47.591742379590869" lon="18.668013392016292">
        <ele>233.257080078125</ele>
        <time>2012-01-31T12:58:05Z</time>
      </trkpt>
      <trkpt lat="47.591774649918079" lon="18.667967040091753">
        <ele>232.2957763671875</ele>
        <time>2012-01-31T12:58:02Z</time>
      </trkpt>
      <trkpt lat="47.591812117025256" lon="18.667928567156196">
        <ele>232.2957763671875</ele>
        <time>2012-01-31T12:57:59Z</time>
      </trkpt>
      <trkpt lat="47.591857630759478" lon="18.667893782258034">
        <ele>232.2957763671875</ele>
        <time>2012-01-31T12:57:56Z</time>
      </trkpt>
      <trkpt lat="47.591888979077339" lon="18.667870899662375">
        <ele>231.81494140625</ele>
        <time>2012-01-31T12:57:54Z</time>
      </trkpt>
      <trkpt lat="47.591914627701044" lon="18.667846256867051">
        <ele>231.3343505859375</ele>
        <time>2012-01-31T12:57:52Z</time>
      </trkpt>
      <trkpt lat="47.591942036524415" lon="18.667820356786251">
        <ele>232.2957763671875</ele>
        <time>2012-01-31T12:57:50Z</time>
      </trkpt>
      <trkpt lat="47.591967936605215" lon="18.66779345087707">
        <ele>231.3343505859375</ele>
        <time>2012-01-31T12:57:48Z</time>
      </trkpt>
      <trkpt lat="47.59200238622725" lon="18.667757324874401">
        <ele>231.3343505859375</ele>
        <time>2012-01-31T12:57:45Z</time>
      </trkpt>
      <trkpt lat="47.592039685696363" lon="18.667722288519144">
        <ele>232.2957763671875</ele>
        <time>2012-01-31T12:57:42Z</time>
      </trkpt>
      <trkpt lat="47.592074973508716" lon="18.667691862210631">
        <ele>230.373046875</ele>
        <time>2012-01-31T12:57:39Z</time>
      </trkpt>
      <trkpt lat="47.592110596597195" lon="18.667660681530833">
        <ele>229.892333984375</ele>
        <time>2012-01-31T12:57:36Z</time>
      </trkpt>
      <trkpt lat="47.592151081189513" lon="18.667635452002287">
        <ele>230.373046875</ele>
        <time>2012-01-31T12:57:33Z</time>
      </trkpt>
      <trkpt lat="47.592181172221899" lon="18.667613072320819">
        <ele>230.373046875</ele>
        <time>2012-01-31T12:57:31Z</time>
      </trkpt>
      <trkpt lat="47.592206317931414" lon="18.667591363191605">
        <ele>229.892333984375</ele>
        <time>2012-01-31T12:57:29Z</time>
      </trkpt>
      <trkpt lat="47.592230793088675" lon="18.667566636577249">
        <ele>229.892333984375</ele>
        <time>2012-01-31T12:57:27Z</time>
      </trkpt>
      <trkpt lat="47.592265158891678" lon="18.667527493089437">
        <ele>229.892333984375</ele>
        <time>2012-01-31T12:57:24Z</time>
      </trkpt>
      <trkpt lat="47.592288544401526" lon="18.667498575523496">
        <ele>229.892333984375</ele>
        <time>2012-01-31T12:57:22Z</time>
      </trkpt>
      <trkpt lat="47.592312935739756" lon="18.667469574138522">
        <ele>229.4117431640625</ele>
        <time>2012-01-31T12:57:20Z</time>
      </trkpt>
      <trkpt lat="47.592336740344763" lon="18.667441830039024">
        <ele>229.892333984375</ele>
        <time>2012-01-31T12:57:18Z</time>
      </trkpt>
      <trkpt lat="47.592361383140087" lon="18.667415929958224">
        <ele>229.4117431640625</ele>
        <time>2012-01-31T12:57:16Z</time>
      </trkpt>
      <trkpt lat="47.59238694794476" lon="18.667386928573251">
        <ele>228.93115234375</ele>
        <time>2012-01-31T12:57:14Z</time>
      </trkpt>
      <trkpt lat="47.592428522184491" lon="18.667374858632684">
        <ele>229.4117431640625</ele>
        <time>2012-01-31T12:57:11Z</time>
      </trkpt>
      <trkpt lat="47.592456685379148" lon="18.667352143675089">
        <ele>228.93115234375</ele>
        <time>2012-01-31T12:57:09Z</time>
      </trkpt>
      <trkpt lat="47.592480154708028" lon="18.667325237765908">
        <ele>228.93115234375</ele>
        <time>2012-01-31T12:57:07Z</time>
      </trkpt>
      <trkpt lat="47.592503037303686" lon="18.667299253866076">
        <ele>228.93115234375</ele>
        <time>2012-01-31T12:57:05Z</time>
      </trkpt>
      <trkpt lat="47.592528937384486" lon="18.667269917204976">
        <ele>229.892333984375</ele>
        <time>2012-01-31T12:57:03Z</time>
      </trkpt>
      <trkpt lat="47.592548886314034" lon="18.667221637442708">
        <ele>228.450439453125</ele>
        <time>2012-01-31T12:57:00Z</time>
      </trkpt>
      <trkpt lat="47.592540923506021" lon="18.667175453156233">
        <ele>228.450439453125</ele>
        <time>2012-01-31T12:56:55Z</time>
      </trkpt>
      <trkpt lat="47.592546287924051" lon="18.667183835059404">
        <ele>229.4117431640625</ele>
        <time>2012-01-31T12:56:49Z</time>
      </trkpt>
      <trkpt lat="47.592541174963117" lon="18.667185427621007">
        <ele>228.450439453125</ele>
        <time>2012-01-31T12:56:25Z</time>
      </trkpt>
      <trkpt lat="47.592530194669962" lon="18.667116276919842">
        <ele>229.892333984375</ele>
        <time>2012-01-31T12:56:05Z</time>
      </trkpt>
      <trkpt lat="47.592518292367458" lon="18.66705316118896">
        <ele>229.4117431640625</ele>
        <time>2012-01-31T12:56:02Z</time>
      </trkpt>
      <trkpt lat="47.592503540217876" lon="18.666988788172603">
        <ele>228.450439453125</ele>
        <time>2012-01-31T12:55:59Z</time>
      </trkpt>
      <trkpt lat="47.592486441135406" lon="18.666949141770601">
        <ele>229.4117431640625</ele>
        <time>2012-01-31T12:55:57Z</time>
      </trkpt>
      <trkpt lat="47.592463558539748" lon="18.666894743219018">
        <ele>229.4117431640625</ele>
        <time>2012-01-31T12:55:54Z</time>
      </trkpt>
      <trkpt lat="47.592440843582153" lon="18.666836321353912">
        <ele>229.892333984375</ele>
        <time>2012-01-31T12:55:51Z</time>
      </trkpt>
      <trkpt lat="47.592423493042588" lon="18.666774546727538">
        <ele>229.4117431640625</ele>
        <time>2012-01-31T12:55:48Z</time>
      </trkpt>
      <trkpt lat="47.592408070340753" lon="18.666710592806339">
        <ele>229.4117431640625</ele>
        <time>2012-01-31T12:55:45Z</time>
      </trkpt>
      <trkpt lat="47.592389462515712" lon="18.66664906963706">
        <ele>228.93115234375</ele>
        <time>2012-01-31T12:55:42Z</time>
      </trkpt>
      <trkpt lat="47.592374458909035" lon="18.666593581438065">
        <ele>228.93115234375</ele>
        <time>2012-01-31T12:55:39Z</time>
      </trkpt>
      <trkpt lat="47.592358784750104" lon="18.666537925601006">
        <ele>228.450439453125</ele>
        <time>2012-01-31T12:55:36Z</time>
      </trkpt>
      <trkpt lat="47.592339674010873" lon="18.666475983336568">
        <ele>228.450439453125</ele>
        <time>2012-01-31T12:55:33Z</time>
      </trkpt>
      <trkpt lat="47.592323161661625" lon="18.666428038850427">
        <ele>227.9697265625</ele>
        <time>2012-01-31T12:55:30Z</time>
      </trkpt>
      <trkpt lat="47.592305643483996" lon="18.666382525116205">
        <ele>228.450439453125</ele>
        <time>2012-01-31T12:55:27Z</time>
      </trkpt>
      <trkpt lat="47.592294663190842" lon="18.666334748268127">
        <ele>227.4891357421875</ele>
        <time>2012-01-31T12:55:17Z</time>
      </trkpt>
      <trkpt lat="47.592325089499354" lon="18.666315637528896">
        <ele>227.008544921875</ele>
        <time>2012-01-31T12:54:52Z</time>
      </trkpt>
      <trkpt lat="47.592293238267303" lon="18.666307087987661">
        <ele>226.52783203125</ele>
        <time>2012-01-31T12:54:17Z</time>
      </trkpt>
      <trkpt lat="47.592281838878989" lon="18.666260484606028">
        <ele>226.047119140625</ele>
        <time>2012-01-31T12:54:14Z</time>
      </trkpt>
      <trkpt lat="47.59227697737515" lon="18.66621513850987">
        <ele>227.008544921875</ele>
        <time>2012-01-31T12:54:12Z</time>
      </trkpt>
      <trkpt lat="47.59228385053575" lon="18.666168451309204">
        <ele>227.008544921875</ele>
        <time>2012-01-31T12:54:10Z</time>
      </trkpt>
      <trkpt lat="47.592283682897687" lon="18.666109861806035">
        <ele>225.5665283203125</ele>
        <time>2012-01-31T12:54:07Z</time>
      </trkpt>
      <trkpt lat="47.592267757281661" lon="18.666052529588342">
        <ele>226.047119140625</ele>
        <time>2012-01-31T12:54:04Z</time>
      </trkpt>
      <trkpt lat="47.592253340408206" lon="18.66600994952023">
        <ele>225.5665283203125</ele>
        <time>2012-01-31T12:54:02Z</time>
      </trkpt>
      <trkpt lat="47.592237666249275" lon="18.665970470756292">
        <ele>226.047119140625</ele>
        <time>2012-01-31T12:54:00Z</time>
      </trkpt>
      <trkpt lat="47.592222662642598" lon="18.665929483249784">
        <ele>226.047119140625</ele>
        <time>2012-01-31T12:53:58Z</time>
      </trkpt>
      <trkpt lat="47.592207994312048" lon="18.665885142982006">
        <ele>226.52783203125</ele>
        <time>2012-01-31T12:53:56Z</time>
      </trkpt>
      <trkpt lat="47.592193996533751" lon="18.665841557085514">
        <ele>226.047119140625</ele>
        <time>2012-01-31T12:53:54Z</time>
      </trkpt>
      <trkpt lat="47.592178741469979" lon="18.665799060836434">
        <ele>226.047119140625</ele>
        <time>2012-01-31T12:53:52Z</time>
      </trkpt>
      <trkpt lat="47.5921621453017" lon="18.665752457454801">
        <ele>226.047119140625</ele>
        <time>2012-01-31T12:53:50Z</time>
      </trkpt>
      <trkpt lat="47.592149153351784" lon="18.66571482270956">
        <ele>225.0859375</ele>
        <time>2012-01-31T12:53:48Z</time>
      </trkpt>
      <trkpt lat="47.592133227735758" lon="18.66567668505013">
        <ele>225.5665283203125</ele>
        <time>2012-01-31T12:53:46Z</time>
      </trkpt>
      <trkpt lat="47.592119062319398" lon="18.665636535733938">
        <ele>225.5665283203125</ele>
        <time>2012-01-31T12:53:44Z</time>
      </trkpt>
      <trkpt lat="47.59210498072207" lon="18.665596889331937">
        <ele>225.0859375</ele>
        <time>2012-01-31T12:53:42Z</time>
      </trkpt>
      <trkpt lat="47.592090480029583" lon="18.665555734187365">
        <ele>225.0859375</ele>
        <time>2012-01-31T12:53:40Z</time>
      </trkpt>
      <trkpt lat="47.592073883861303" lon="18.66549295373261">
        <ele>225.0859375</ele>
        <time>2012-01-31T12:53:37Z</time>
      </trkpt>
      <trkpt lat="47.59205024689436" lon="18.66544702090323">
        <ele>224.605224609375</ele>
        <time>2012-01-31T12:53:34Z</time>
      </trkpt>
      <trkpt lat="47.592027531936765" lon="18.665415169671178">
        <ele>224.12451171875</ele>
        <time>2012-01-31T12:53:30Z</time>
      </trkpt>
      <trkpt lat="47.592033734545112" lon="18.665400082245469">
        <ele>225.0859375</ele>
        <time>2012-01-31T12:53:01Z</time>
      </trkpt>
      <trkpt lat="47.592053264379501" lon="18.665310060605407">
        <ele>224.605224609375</ele>
        <time>2012-01-31T12:52:26Z</time>
      </trkpt>
      <trkpt lat="47.592046055942774" lon="18.665256416425109">
        <ele>224.605224609375</ele>
        <time>2012-01-31T12:52:23Z</time>
      </trkpt>
      <trkpt lat="47.592036081478" lon="18.665202185511589">
        <ele>223.643798828125</ele>
        <time>2012-01-31T12:52:20Z</time>
      </trkpt>
      <trkpt lat="47.592013366520405" lon="18.66514602676034">
        <ele>223.643798828125</ele>
        <time>2012-01-31T12:52:17Z</time>
      </trkpt>
      <trkpt lat="47.591997273266315" lon="18.665095986798406">
        <ele>223.1632080078125</ele>
        <time>2012-01-31T12:52:14Z</time>
      </trkpt>
      <trkpt lat="47.591979671269655" lon="18.665036140009761">
        <ele>222.2017822265625</ele>
        <time>2012-01-31T12:52:11Z</time>
      </trkpt>
      <trkpt lat="47.591960644349456" lon="18.664987944066525">
        <ele>222.2017822265625</ele>
        <time>2012-01-31T12:52:08Z</time>
      </trkpt>
      <trkpt lat="47.591943964362144" lon="18.664938071742654">
        <ele>222.2017822265625</ele>
        <time>2012-01-31T12:52:05Z</time>
      </trkpt>
      <trkpt lat="47.591926278546453" lon="18.664885181933641">
        <ele>221.2406005859375</ele>
        <time>2012-01-31T12:52:02Z</time>
      </trkpt>
      <trkpt lat="47.591901887208223" lon="18.664844278246164">
        <ele>221.2406005859375</ele>
        <time>2012-01-31T12:51:59Z</time>
      </trkpt>
      <trkpt lat="47.591880261898041" lon="18.664798764511943">
        <ele>220.7598876953125</ele>
        <time>2012-01-31T12:51:56Z</time>
      </trkpt>
      <trkpt lat="47.59185679256916" lon="18.664752328768373">
        <ele>219.798583984375</ele>
        <time>2012-01-31T12:51:53Z</time>
      </trkpt>
      <trkpt lat="47.591829132288694" lon="18.664705557748675">
        <ele>219.798583984375</ele>
        <time>2012-01-31T12:51:50Z</time>
      </trkpt>
      <trkpt lat="47.591815888881683" lon="18.664645794779062">
        <ele>218.8372802734375</ele>
        <time>2012-01-31T12:51:47Z</time>
      </trkpt>
      <trkpt lat="47.591800633817911" lon="18.66458946838975">
        <ele>219.3179931640625</ele>
        <time>2012-01-31T12:51:44Z</time>
      </trkpt>
      <trkpt lat="47.591794682666659" lon="18.66453523747623">
        <ele>218.3565673828125</ele>
        <time>2012-01-31T12:51:41Z</time>
      </trkpt>
      <trkpt lat="47.591774566099048" lon="18.664497938007116">
        <ele>218.3565673828125</ele>
        <time>2012-01-31T12:51:38Z</time>
      </trkpt>
      <trkpt lat="47.591764591634274" lon="18.664451083168387">
        <ele>218.3565673828125</ele>
        <time>2012-01-31T12:51:35Z</time>
      </trkpt>
      <trkpt lat="47.591758472844958" lon="18.664381681010127">
        <ele>217.8759765625</ele>
        <time>2012-01-31T12:51:05Z</time>
      </trkpt>
      <trkpt lat="47.591745899990201" lon="18.664412358775735">
        <ele>217.8759765625</ele>
        <time>2012-01-31T12:50:43Z</time>
      </trkpt>
      <trkpt lat="47.591775571927428" lon="18.664389559999108">
        <ele>218.3565673828125</ele>
        <time>2012-01-31T12:50:14Z</time>
      </trkpt>
      <trkpt lat="47.591758975759149" lon="18.664404144510627">
        <ele>218.3565673828125</ele>
        <time>2012-01-31T12:49:42Z</time>
      </trkpt>
      <trkpt lat="47.591754449531436" lon="18.664358295500278">
        <ele>218.3565673828125</ele>
        <time>2012-01-31T12:49:34Z</time>
      </trkpt>
      <trkpt lat="47.591729387640953" lon="18.664324264973402">
        <ele>217.8759765625</ele>
        <time>2012-01-31T12:49:29Z</time>
      </trkpt>
      <trkpt lat="47.591699296608567" lon="18.664299622178078">
        <ele>217.8759765625</ele>
        <time>2012-01-31T12:49:25Z</time>
      </trkpt>
      <trkpt lat="47.591686388477683" lon="18.664248576387763">
        <ele>217.8759765625</ele>
        <time>2012-01-31T12:49:22Z</time>
      </trkpt>
      <trkpt lat="47.591684879735112" lon="18.664191579446197">
        <ele>218.3565673828125</ele>
        <time>2012-01-31T12:49:19Z</time>
      </trkpt>
      <trkpt lat="47.591703068464994" lon="18.664145646616817">
        <ele>219.3179931640625</ele>
        <time>2012-01-31T12:49:15Z</time>
      </trkpt>
      <trkpt lat="47.591743050143123" lon="18.664114633575082">
        <ele>219.3179931640625</ele>
        <time>2012-01-31T12:49:11Z</time>
      </trkpt>
      <trkpt lat="47.591787055134773" lon="18.664087476208806">
        <ele>219.3179931640625</ele>
        <time>2012-01-31T12:49:08Z</time>
      </trkpt>
      <trkpt lat="47.591821840032935" lon="18.664038693532348">
        <ele>218.8372802734375</ele>
        <time>2012-01-31T12:49:05Z</time>
      </trkpt>
      <trkpt lat="47.591832233592868" lon="18.664024779573083">
        <ele>218.8372802734375</ele>
        <time>2012-01-31T12:48:52Z</time>
      </trkpt>
      <trkpt lat="47.591704577207565" lon="18.66391958668828">
        <ele>218.3565673828125</ele>
        <time>2012-01-31T12:45:53Z</time>
      </trkpt>
      <trkpt lat="47.591711785644293" lon="18.663900978863239">
        <ele>218.3565673828125</ele>
        <time>2012-01-31T12:34:15Z</time>
      </trkpt>
      <trkpt lat="47.591704996302724" lon="18.663898967206478">
        <ele>218.3565673828125</ele>
        <time>2012-01-31T12:33:48Z</time>
      </trkpt>
      <trkpt lat="47.591732237488031" lon="18.663914725184441">
        <ele>217.8759765625</ele>
        <time>2012-01-31T12:31:58Z</time>
      </trkpt>
      <trkpt lat="47.591730393469334" lon="18.663915060460567">
        <ele>217.8759765625</ele>
        <time>2012-01-31T12:31:15Z</time>
      </trkpt>
      <trkpt lat="47.591780768707395" lon="18.663970632478595">
        <ele>216.4339599609375</ele>
        <time>2012-01-31T12:30:22Z</time>
      </trkpt>
    </trkseg>
  </trk>

</gpx>
